<?xml version="1.0" encoding="UTF-8"?><gpx version="1.1" creator="Relive" xmlns="http://www.topografix.com/GPX/1/1" xmlns:xsi="http://www.w3.org/2001/XMLSchema-instance" xsi:schemaLocation="http://www.topografix.com/GPX/1/1 http://www.topografix.com/GPX/1/1/gpx.xsd http://www.garmin.com/xmlschemas/TrackPointExtension/v1 http://www.garmin.com/xmlschemas/TrackPointExtensionv1.xsd http://www.garmin.com/xmlschemas/GpxExtensions/v3 http://www.garmin.com/xmlschemas/GpxExtensionsv3.xsd" xmlns:gpxtpx="http://www.garmin.com/xmlschemas/TrackPointExtension/v1" xmlns:gpxx="http://www.garmin.com/xmlschemas/GpxExtensions/v3"><metadata><time>2024-05-04T06:21:39.000Z</time><name>Morning May 4th</name></metadata><trk><trkseg><trkpt lat="45.824501" lon="9.185577"><time>2024-05-04T06:21:39.000Z</time><ele>875.6</ele></trkpt><trkpt lat="45.824501" lon="9.185577"><time>2024-05-04T06:21:40.000Z</time><ele>875.6</ele></trkpt><trkpt lat="45.824501" lon="9.185577"><time>2024-05-04T06:21:41.000Z</time><ele>875.6</ele></trkpt><trkpt lat="45.824501" lon="9.185577"><time>2024-05-04T06:21:42.000Z</time><ele>875.6</ele></trkpt><trkpt lat="45.824501" lon="9.185577"><time>2024-05-04T06:21:43.000Z</time><ele>875.6</ele></trkpt><trkpt lat="45.824501" lon="9.185577"><time>2024-05-04T06:21:44.000Z</time><ele>875.6</ele></trkpt><trkpt lat="45.824501" lon="9.185577"><time>2024-05-04T06:21:45.000Z</time><ele>875.6</ele></trkpt><trkpt lat="45.824501" lon="9.185577"><time>2024-05-04T06:21:46.000Z</time><ele>875.6</ele></trkpt><trkpt lat="45.824501" lon="9.185577"><time>2024-05-04T06:21:47.000Z</time><ele>875.6</ele></trkpt><trkpt lat="45.824501" lon="9.185577"><time>2024-05-04T06:21:48.000Z</time><ele>875.6</ele></trkpt><trkpt lat="45.8245" lon="9.185577"><time>2024-05-04T06:21:49.000Z</time><ele>875.6</ele></trkpt><trkpt lat="45.8245" lon="9.185577"><time>2024-05-04T06:21:50.000Z</time><ele>875.6</ele></trkpt><trkpt lat="45.8245" lon="9.185577"><time>2024-05-04T06:21:51.000Z</time><ele>875.6</ele></trkpt><trkpt lat="45.8245" lon="9.185577"><time>2024-05-04T06:21:52.000Z</time><ele>875.6</ele></trkpt><trkpt lat="45.824501" lon="9.185577"><time>2024-05-04T06:21:53.000Z</time><ele>875.6</ele></trkpt><trkpt lat="45.824501" lon="9.185577"><time>2024-05-04T06:21:54.000Z</time><ele>875.6</ele></trkpt><trkpt lat="45.824501" lon="9.185577"><time>2024-05-04T06:21:55.000Z</time><ele>875.6</ele></trkpt><trkpt lat="45.824501" lon="9.185577"><time>2024-05-04T06:21:56.000Z</time><ele>875.6</ele></trkpt><trkpt lat="45.824505" lon="9.185581"><time>2024-05-04T06:21:57.000Z</time><ele>875.6</ele></trkpt><trkpt lat="45.824515" lon="9.18559"><time>2024-05-04T06:21:58.000Z</time><ele>875.6</ele></trkpt><trkpt lat="45.824523" lon="9.185604"><time>2024-05-04T06:21:59.000Z</time><ele>875.6</ele></trkpt><trkpt lat="45.824531" lon="9.185615"><time>2024-05-04T06:22:00.000Z</time><ele>875.6</ele></trkpt><trkpt lat="45.824538" lon="9.185628"><time>2024-05-04T06:22:01.000Z</time><ele>875.6</ele></trkpt><trkpt lat="45.824549" lon="9.185638"><time>2024-05-04T06:22:02.000Z</time><ele>875.6</ele></trkpt><trkpt lat="45.824558" lon="9.185649"><time>2024-05-04T06:22:03.000Z</time><ele>875.6</ele></trkpt><trkpt lat="45.824558" lon="9.185649"><time>2024-05-04T06:22:04.000Z</time><ele>875.6</ele></trkpt><trkpt lat="45.824572" lon="9.185688"><time>2024-05-04T06:22:05.000Z</time><ele>875.6</ele></trkpt><trkpt lat="45.824575" lon="9.18572"><time>2024-05-04T06:22:06.000Z</time><ele>875.6</ele></trkpt><trkpt lat="45.824575" lon="9.185743"><time>2024-05-04T06:22:07.000Z</time><ele>875.6</ele></trkpt><trkpt lat="45.824577" lon="9.185758"><time>2024-05-04T06:22:08.000Z</time><ele>875.6</ele></trkpt><trkpt lat="45.824582" lon="9.185765"><time>2024-05-04T06:22:09.000Z</time><ele>875.6</ele></trkpt><trkpt lat="45.824588" lon="9.185769"><time>2024-05-04T06:22:10.000Z</time><ele>875.6</ele></trkpt><trkpt lat="45.824596" lon="9.185767"><time>2024-05-04T06:22:11.000Z</time><ele>876.2</ele></trkpt><trkpt lat="45.824601" lon="9.185769"><time>2024-05-04T06:22:12.000Z</time><ele>876.6</ele></trkpt><trkpt lat="45.824605" lon="9.185771"><time>2024-05-04T06:22:13.000Z</time><ele>876.8</ele></trkpt><trkpt lat="45.824609" lon="9.185769"><time>2024-05-04T06:22:14.000Z</time><ele>876.8</ele></trkpt><trkpt lat="45.824612" lon="9.185768"><time>2024-05-04T06:22:15.000Z</time><ele>877</ele></trkpt><trkpt lat="45.824616" lon="9.185766"><time>2024-05-04T06:22:16.000Z</time><ele>877</ele></trkpt><trkpt lat="45.824619" lon="9.185767"><time>2024-05-04T06:22:17.000Z</time><ele>877</ele></trkpt><trkpt lat="45.824618" lon="9.185759"><time>2024-05-04T06:22:18.000Z</time><ele>877</ele></trkpt><trkpt lat="45.824617" lon="9.18575"><time>2024-05-04T06:22:19.000Z</time><ele>877.2</ele></trkpt><trkpt lat="45.824616" lon="9.185751"><time>2024-05-04T06:22:20.000Z</time><ele>877.2</ele></trkpt><trkpt lat="45.824615" lon="9.185755"><time>2024-05-04T06:22:21.000Z</time><ele>877.4</ele></trkpt><trkpt lat="45.824616" lon="9.185762"><time>2024-05-04T06:22:22.000Z</time><ele>877.4</ele></trkpt><trkpt lat="45.824617" lon="9.185771"><time>2024-05-04T06:22:23.000Z</time><ele>877.4</ele></trkpt><trkpt lat="45.824617" lon="9.185775"><time>2024-05-04T06:22:24.000Z</time><ele>876.8</ele></trkpt><trkpt lat="45.824616" lon="9.185779"><time>2024-05-04T06:22:25.000Z</time><ele>876.8</ele></trkpt><trkpt lat="45.824616" lon="9.185788"><time>2024-05-04T06:22:26.000Z</time><ele>876.8</ele></trkpt><trkpt lat="45.824614" lon="9.185803"><time>2024-05-04T06:22:27.000Z</time><ele>876.8</ele></trkpt><trkpt lat="45.824612" lon="9.185817"><time>2024-05-04T06:22:28.000Z</time><ele>876.8</ele></trkpt><trkpt lat="45.824612" lon="9.185828"><time>2024-05-04T06:22:29.000Z</time><ele>876.8</ele></trkpt><trkpt lat="45.824615" lon="9.185839"><time>2024-05-04T06:22:30.000Z</time><ele>876.8</ele></trkpt><trkpt lat="45.824618" lon="9.185845"><time>2024-05-04T06:22:31.000Z</time><ele>876.8</ele></trkpt><trkpt lat="45.824618" lon="9.185845"><time>2024-05-04T06:22:32.000Z</time><ele>877</ele></trkpt><trkpt lat="45.824621" lon="9.18586"><time>2024-05-04T06:22:33.000Z</time><ele>877</ele></trkpt><trkpt lat="45.824625" lon="9.185871"><time>2024-05-04T06:22:34.000Z</time><ele>877</ele></trkpt><trkpt lat="45.824627" lon="9.185881"><time>2024-05-04T06:22:35.000Z</time><ele>877</ele></trkpt><trkpt lat="45.82463" lon="9.185895"><time>2024-05-04T06:22:36.000Z</time><ele>877</ele></trkpt><trkpt lat="45.824635" lon="9.185916"><time>2024-05-04T06:22:37.000Z</time><ele>877.2</ele></trkpt><trkpt lat="45.824642" lon="9.185945"><time>2024-05-04T06:22:38.000Z</time><ele>877.2</ele></trkpt><trkpt lat="45.824647" lon="9.185965"><time>2024-05-04T06:22:39.000Z</time><ele>877.2</ele></trkpt><trkpt lat="45.824651" lon="9.185974"><time>2024-05-04T06:22:40.000Z</time><ele>877.2</ele></trkpt><trkpt lat="45.824656" lon="9.185981"><time>2024-05-04T06:22:41.000Z</time><ele>877.4</ele></trkpt><trkpt lat="45.824661" lon="9.185987"><time>2024-05-04T06:22:42.000Z</time><ele>877.4</ele></trkpt><trkpt lat="45.824669" lon="9.185998"><time>2024-05-04T06:22:43.000Z</time><ele>877.2</ele></trkpt><trkpt lat="45.824678" lon="9.186008"><time>2024-05-04T06:22:44.000Z</time><ele>877.2</ele></trkpt><trkpt lat="45.824686" lon="9.186015"><time>2024-05-04T06:22:45.000Z</time><ele>877.4</ele></trkpt><trkpt lat="45.824692" lon="9.186025"><time>2024-05-04T06:22:46.000Z</time><ele>877.4</ele></trkpt><trkpt lat="45.824697" lon="9.186037"><time>2024-05-04T06:22:47.000Z</time><ele>877.4</ele></trkpt><trkpt lat="45.824701" lon="9.186054"><time>2024-05-04T06:22:48.000Z</time><ele>877.4</ele></trkpt><trkpt lat="45.824707" lon="9.186071"><time>2024-05-04T06:22:49.000Z</time><ele>877.4</ele></trkpt><trkpt lat="45.824714" lon="9.186084"><time>2024-05-04T06:22:50.000Z</time><ele>877.4</ele></trkpt><trkpt lat="45.824726" lon="9.186092"><time>2024-05-04T06:22:51.000Z</time><ele>877.4</ele></trkpt><trkpt lat="45.824735" lon="9.186105"><time>2024-05-04T06:22:52.000Z</time><ele>877.4</ele></trkpt><trkpt lat="45.824745" lon="9.186119"><time>2024-05-04T06:22:53.000Z</time><ele>877.4</ele></trkpt><trkpt lat="45.824756" lon="9.186132"><time>2024-05-04T06:22:54.000Z</time><ele>877.4</ele></trkpt><trkpt lat="45.824772" lon="9.186149"><time>2024-05-04T06:22:55.000Z</time><ele>877.6</ele></trkpt><trkpt lat="45.824782" lon="9.186156"><time>2024-05-04T06:22:56.000Z</time><ele>877.6</ele></trkpt><trkpt lat="45.824794" lon="9.186164"><time>2024-05-04T06:22:57.000Z</time><ele>877.6</ele></trkpt><trkpt lat="45.824797" lon="9.186182"><time>2024-05-04T06:22:58.000Z</time><ele>877.6</ele></trkpt><trkpt lat="45.824794" lon="9.186202"><time>2024-05-04T06:22:59.000Z</time><ele>877.6</ele></trkpt><trkpt lat="45.824795" lon="9.186215"><time>2024-05-04T06:23:00.000Z</time><ele>877.8</ele></trkpt><trkpt lat="45.8248" lon="9.18623"><time>2024-05-04T06:23:01.000Z</time><ele>877.8</ele></trkpt><trkpt lat="45.824807" lon="9.186235"><time>2024-05-04T06:23:02.000Z</time><ele>877.8</ele></trkpt><trkpt lat="45.824813" lon="9.186238"><time>2024-05-04T06:23:03.000Z</time><ele>877.8</ele></trkpt><trkpt lat="45.824818" lon="9.186244"><time>2024-05-04T06:23:04.000Z</time><ele>878</ele></trkpt><trkpt lat="45.824825" lon="9.186257"><time>2024-05-04T06:23:05.000Z</time><ele>878</ele></trkpt><trkpt lat="45.824833" lon="9.186267"><time>2024-05-04T06:23:06.000Z</time><ele>878</ele></trkpt><trkpt lat="45.824834" lon="9.186275"><time>2024-05-04T06:23:07.000Z</time><ele>878</ele></trkpt><trkpt lat="45.824832" lon="9.186283"><time>2024-05-04T06:23:08.000Z</time><ele>878</ele></trkpt><trkpt lat="45.824835" lon="9.186296"><time>2024-05-04T06:23:09.000Z</time><ele>878</ele></trkpt><trkpt lat="45.824842" lon="9.186309"><time>2024-05-04T06:23:10.000Z</time><ele>878.2</ele></trkpt><trkpt lat="45.824848" lon="9.186318"><time>2024-05-04T06:23:11.000Z</time><ele>878.4</ele></trkpt><trkpt lat="45.824855" lon="9.186331"><time>2024-05-04T06:23:12.000Z</time><ele>878.4</ele></trkpt><trkpt lat="45.824865" lon="9.186344"><time>2024-05-04T06:23:13.000Z</time><ele>878.6</ele></trkpt><trkpt lat="45.824871" lon="9.186355"><time>2024-05-04T06:23:14.000Z</time><ele>878.6</ele></trkpt><trkpt lat="45.824878" lon="9.186367"><time>2024-05-04T06:23:15.000Z</time><ele>878.6</ele></trkpt><trkpt lat="45.824883" lon="9.186381"><time>2024-05-04T06:23:16.000Z</time><ele>878.6</ele></trkpt><trkpt lat="45.824891" lon="9.186394"><time>2024-05-04T06:23:17.000Z</time><ele>878.6</ele></trkpt><trkpt lat="45.824899" lon="9.186407"><time>2024-05-04T06:23:18.000Z</time><ele>878.6</ele></trkpt><trkpt lat="45.824907" lon="9.18642"><time>2024-05-04T06:23:19.000Z</time><ele>878.8</ele></trkpt><trkpt lat="45.824916" lon="9.186432"><time>2024-05-04T06:23:20.000Z</time><ele>878.8</ele></trkpt><trkpt lat="45.824926" lon="9.186443"><time>2024-05-04T06:23:21.000Z</time><ele>878.8</ele></trkpt><trkpt lat="45.824938" lon="9.186454"><time>2024-05-04T06:23:22.000Z</time><ele>879</ele></trkpt><trkpt lat="45.82495" lon="9.186467"><time>2024-05-04T06:23:23.000Z</time><ele>879</ele></trkpt><trkpt lat="45.824958" lon="9.186479"><time>2024-05-04T06:23:24.000Z</time><ele>879</ele></trkpt><trkpt lat="45.824965" lon="9.186489"><time>2024-05-04T06:23:25.000Z</time><ele>879</ele></trkpt><trkpt lat="45.824969" lon="9.186501"><time>2024-05-04T06:23:26.000Z</time><ele>879</ele></trkpt><trkpt lat="45.824976" lon="9.186516"><time>2024-05-04T06:23:27.000Z</time><ele>879</ele></trkpt><trkpt lat="45.824981" lon="9.186533"><time>2024-05-04T06:23:28.000Z</time><ele>879</ele></trkpt><trkpt lat="45.824991" lon="9.18655"><time>2024-05-04T06:23:29.000Z</time><ele>879</ele></trkpt><trkpt lat="45.824996" lon="9.186568"><time>2024-05-04T06:23:30.000Z</time><ele>879.2</ele></trkpt><trkpt lat="45.825003" lon="9.186576"><time>2024-05-04T06:23:31.000Z</time><ele>879.2</ele></trkpt><trkpt lat="45.825014" lon="9.186588"><time>2024-05-04T06:23:32.000Z</time><ele>879.2</ele></trkpt><trkpt lat="45.825024" lon="9.186603"><time>2024-05-04T06:23:33.000Z</time><ele>879.2</ele></trkpt><trkpt lat="45.825032" lon="9.186616"><time>2024-05-04T06:23:34.000Z</time><ele>879.2</ele></trkpt><trkpt lat="45.82504" lon="9.186628"><time>2024-05-04T06:23:35.000Z</time><ele>879.2</ele></trkpt><trkpt lat="45.825048" lon="9.186639"><time>2024-05-04T06:23:36.000Z</time><ele>879.2</ele></trkpt><trkpt lat="45.825054" lon="9.186649"><time>2024-05-04T06:23:37.000Z</time><ele>879.4</ele></trkpt><trkpt lat="45.825063" lon="9.186665"><time>2024-05-04T06:23:38.000Z</time><ele>879.4</ele></trkpt><trkpt lat="45.82507" lon="9.186676"><time>2024-05-04T06:23:39.000Z</time><ele>879.4</ele></trkpt><trkpt lat="45.825078" lon="9.186691"><time>2024-05-04T06:23:40.000Z</time><ele>879.4</ele></trkpt><trkpt lat="45.825084" lon="9.186702"><time>2024-05-04T06:23:41.000Z</time><ele>879.4</ele></trkpt><trkpt lat="45.825091" lon="9.186713"><time>2024-05-04T06:23:42.000Z</time><ele>879.4</ele></trkpt><trkpt lat="45.825097" lon="9.186729"><time>2024-05-04T06:23:43.000Z</time><ele>879.4</ele></trkpt><trkpt lat="45.825103" lon="9.186749"><time>2024-05-04T06:23:44.000Z</time><ele>879.6</ele></trkpt><trkpt lat="45.825111" lon="9.186764"><time>2024-05-04T06:23:45.000Z</time><ele>879.6</ele></trkpt><trkpt lat="45.825119" lon="9.186775"><time>2024-05-04T06:23:46.000Z</time><ele>879.8</ele></trkpt><trkpt lat="45.825125" lon="9.186787"><time>2024-05-04T06:23:47.000Z</time><ele>879.8</ele></trkpt><trkpt lat="45.825132" lon="9.186799"><time>2024-05-04T06:23:48.000Z</time><ele>879.8</ele></trkpt><trkpt lat="45.82514" lon="9.186815"><time>2024-05-04T06:23:49.000Z</time><ele>879.8</ele></trkpt><trkpt lat="45.825146" lon="9.186829"><time>2024-05-04T06:23:50.000Z</time><ele>879.8</ele></trkpt><trkpt lat="45.825146" lon="9.186829"><time>2024-05-04T06:23:51.000Z</time><ele>880</ele></trkpt><trkpt lat="45.825152" lon="9.186864"><time>2024-05-04T06:23:52.000Z</time><ele>880</ele></trkpt><trkpt lat="45.825154" lon="9.18688"><time>2024-05-04T06:23:53.000Z</time><ele>880</ele></trkpt><trkpt lat="45.825159" lon="9.186896"><time>2024-05-04T06:23:54.000Z</time><ele>880</ele></trkpt><trkpt lat="45.825159" lon="9.186896"><time>2024-05-04T06:23:55.000Z</time><ele>880</ele></trkpt><trkpt lat="45.825169" lon="9.186943"><time>2024-05-04T06:23:56.000Z</time><ele>880</ele></trkpt><trkpt lat="45.825175" lon="9.186962"><time>2024-05-04T06:23:57.000Z</time><ele>880.2</ele></trkpt><trkpt lat="45.825186" lon="9.186976"><time>2024-05-04T06:23:58.000Z</time><ele>880.2</ele></trkpt><trkpt lat="45.825201" lon="9.186982"><time>2024-05-04T06:23:59.000Z</time><ele>880.2</ele></trkpt><trkpt lat="45.825214" lon="9.18699"><time>2024-05-04T06:24:00.000Z</time><ele>880.2</ele></trkpt><trkpt lat="45.825226" lon="9.186998"><time>2024-05-04T06:24:01.000Z</time><ele>880.2</ele></trkpt><trkpt lat="45.825238" lon="9.187006"><time>2024-05-04T06:24:02.000Z</time><ele>880.2</ele></trkpt><trkpt lat="45.82525" lon="9.187019"><time>2024-05-04T06:24:03.000Z</time><ele>880</ele></trkpt><trkpt lat="45.825257" lon="9.187022"><time>2024-05-04T06:24:04.000Z</time><ele>880</ele></trkpt><trkpt lat="45.825263" lon="9.187033"><time>2024-05-04T06:24:05.000Z</time><ele>880.2</ele></trkpt><trkpt lat="45.825265" lon="9.187037"><time>2024-05-04T06:24:06.000Z</time><ele>880.2</ele></trkpt><trkpt lat="45.825269" lon="9.187037"><time>2024-05-04T06:24:07.000Z</time><ele>880.4</ele></trkpt><trkpt lat="45.825276" lon="9.187039"><time>2024-05-04T06:24:08.000Z</time><ele>880.4</ele></trkpt><trkpt lat="45.825277" lon="9.187042"><time>2024-05-04T06:24:09.000Z</time><ele>880.4</ele></trkpt><trkpt lat="45.825279" lon="9.187044"><time>2024-05-04T06:24:10.000Z</time><ele>880.4</ele></trkpt><trkpt lat="45.825282" lon="9.187047"><time>2024-05-04T06:24:11.000Z</time><ele>880.4</ele></trkpt><trkpt lat="45.825295" lon="9.187069"><time>2024-05-04T06:24:12.000Z</time><ele>880.2</ele></trkpt><trkpt lat="45.825299" lon="9.18707"><time>2024-05-04T06:24:13.000Z</time><ele>880.2</ele></trkpt><trkpt lat="45.82531" lon="9.187077"><time>2024-05-04T06:24:14.000Z</time><ele>880.2</ele></trkpt><trkpt lat="45.825315" lon="9.187086"><time>2024-05-04T06:24:15.000Z</time><ele>880.2</ele></trkpt><trkpt lat="45.82532" lon="9.187102"><time>2024-05-04T06:24:16.000Z</time><ele>880.2</ele></trkpt><trkpt lat="45.825325" lon="9.187116"><time>2024-05-04T06:24:17.000Z</time><ele>880.2</ele></trkpt><trkpt lat="45.825332" lon="9.187127"><time>2024-05-04T06:24:18.000Z</time><ele>880.2</ele></trkpt><trkpt lat="45.825342" lon="9.187139"><time>2024-05-04T06:24:19.000Z</time><ele>880.2</ele></trkpt><trkpt lat="45.825348" lon="9.187151"><time>2024-05-04T06:24:20.000Z</time><ele>880.2</ele></trkpt><trkpt lat="45.825357" lon="9.187163"><time>2024-05-04T06:24:21.000Z</time><ele>880.2</ele></trkpt><trkpt lat="45.825367" lon="9.187172"><time>2024-05-04T06:24:22.000Z</time><ele>880.2</ele></trkpt><trkpt lat="45.825379" lon="9.187184"><time>2024-05-04T06:24:23.000Z</time><ele>880.2</ele></trkpt><trkpt lat="45.825389" lon="9.187195"><time>2024-05-04T06:24:24.000Z</time><ele>880.2</ele></trkpt><trkpt lat="45.8254" lon="9.187206"><time>2024-05-04T06:24:25.000Z</time><ele>880.2</ele></trkpt><trkpt lat="45.825411" lon="9.187215"><time>2024-05-04T06:24:26.000Z</time><ele>880.2</ele></trkpt><trkpt lat="45.825423" lon="9.187235"><time>2024-05-04T06:24:27.000Z</time><ele>880.2</ele></trkpt><trkpt lat="45.825433" lon="9.187252"><time>2024-05-04T06:24:28.000Z</time><ele>880.2</ele></trkpt><trkpt lat="45.82544" lon="9.187264"><time>2024-05-04T06:24:29.000Z</time><ele>880.2</ele></trkpt><trkpt lat="45.825445" lon="9.187278"><time>2024-05-04T06:24:30.000Z</time><ele>880.2</ele></trkpt><trkpt lat="45.825454" lon="9.187292"><time>2024-05-04T06:24:31.000Z</time><ele>880.2</ele></trkpt><trkpt lat="45.825465" lon="9.187306"><time>2024-05-04T06:24:32.000Z</time><ele>880</ele></trkpt><trkpt lat="45.825475" lon="9.187317"><time>2024-05-04T06:24:33.000Z</time><ele>880</ele></trkpt><trkpt lat="45.825486" lon="9.187331"><time>2024-05-04T06:24:34.000Z</time><ele>880</ele></trkpt><trkpt lat="45.825492" lon="9.187348"><time>2024-05-04T06:24:35.000Z</time><ele>880</ele></trkpt><trkpt lat="45.825497" lon="9.187363"><time>2024-05-04T06:24:36.000Z</time><ele>880</ele></trkpt><trkpt lat="45.825503" lon="9.187377"><time>2024-05-04T06:24:37.000Z</time><ele>880</ele></trkpt><trkpt lat="45.825506" lon="9.187389"><time>2024-05-04T06:24:38.000Z</time><ele>880</ele></trkpt><trkpt lat="45.825512" lon="9.187406"><time>2024-05-04T06:24:39.000Z</time><ele>880</ele></trkpt><trkpt lat="45.825519" lon="9.187422"><time>2024-05-04T06:24:40.000Z</time><ele>880</ele></trkpt><trkpt lat="45.825526" lon="9.187437"><time>2024-05-04T06:24:41.000Z</time><ele>880</ele></trkpt><trkpt lat="45.825535" lon="9.187451"><time>2024-05-04T06:24:42.000Z</time><ele>879.8</ele></trkpt><trkpt lat="45.825543" lon="9.187465"><time>2024-05-04T06:24:43.000Z</time><ele>879.8</ele></trkpt><trkpt lat="45.825551" lon="9.187477"><time>2024-05-04T06:24:44.000Z</time><ele>879.8</ele></trkpt><trkpt lat="45.825558" lon="9.187488"><time>2024-05-04T06:24:45.000Z</time><ele>879.8</ele></trkpt><trkpt lat="45.825563" lon="9.187503"><time>2024-05-04T06:24:46.000Z</time><ele>879.8</ele></trkpt><trkpt lat="45.82557" lon="9.187515"><time>2024-05-04T06:24:47.000Z</time><ele>879.6</ele></trkpt><trkpt lat="45.825578" lon="9.18753"><time>2024-05-04T06:24:48.000Z</time><ele>879.6</ele></trkpt><trkpt lat="45.825579" lon="9.187557"><time>2024-05-04T06:24:49.000Z</time><ele>879.6</ele></trkpt><trkpt lat="45.82559" lon="9.187577"><time>2024-05-04T06:24:50.000Z</time><ele>879.6</ele></trkpt><trkpt lat="45.825598" lon="9.187594"><time>2024-05-04T06:24:51.000Z</time><ele>879.6</ele></trkpt><trkpt lat="45.825602" lon="9.187611"><time>2024-05-04T06:24:52.000Z</time><ele>879.6</ele></trkpt><trkpt lat="45.825606" lon="9.187635"><time>2024-05-04T06:24:53.000Z</time><ele>879.6</ele></trkpt><trkpt lat="45.825609" lon="9.187654"><time>2024-05-04T06:24:54.000Z</time><ele>879.4</ele></trkpt><trkpt lat="45.825621" lon="9.187684"><time>2024-05-04T06:24:55.000Z</time><ele>879.6</ele></trkpt><trkpt lat="45.825629" lon="9.187701"><time>2024-05-04T06:24:56.000Z</time><ele>879.6</ele></trkpt><trkpt lat="45.825639" lon="9.187717"><time>2024-05-04T06:24:57.000Z</time><ele>879.6</ele></trkpt><trkpt lat="45.825646" lon="9.187731"><time>2024-05-04T06:24:58.000Z</time><ele>879.6</ele></trkpt><trkpt lat="45.825658" lon="9.187752"><time>2024-05-04T06:24:59.000Z</time><ele>879.6</ele></trkpt><trkpt lat="45.825666" lon="9.187768"><time>2024-05-04T06:25:00.000Z</time><ele>879.6</ele></trkpt><trkpt lat="45.825681" lon="9.187783"><time>2024-05-04T06:25:01.000Z</time><ele>879.6</ele></trkpt><trkpt lat="45.825696" lon="9.1878"><time>2024-05-04T06:25:02.000Z</time><ele>879.6</ele></trkpt><trkpt lat="45.825707" lon="9.187823"><time>2024-05-04T06:25:03.000Z</time><ele>879.6</ele></trkpt><trkpt lat="45.825711" lon="9.187838"><time>2024-05-04T06:25:04.000Z</time><ele>879.6</ele></trkpt><trkpt lat="45.82572" lon="9.18785"><time>2024-05-04T06:25:05.000Z</time><ele>879.6</ele></trkpt><trkpt lat="45.825729" lon="9.187864"><time>2024-05-04T06:25:06.000Z</time><ele>879.6</ele></trkpt><trkpt lat="45.825738" lon="9.187879"><time>2024-05-04T06:25:07.000Z</time><ele>879.6</ele></trkpt><trkpt lat="45.825742" lon="9.187882"><time>2024-05-04T06:25:08.000Z</time><ele>879.6</ele></trkpt><trkpt lat="45.82575" lon="9.187899"><time>2024-05-04T06:25:09.000Z</time><ele>879.6</ele></trkpt><trkpt lat="45.825755" lon="9.187901"><time>2024-05-04T06:25:10.000Z</time><ele>879.6</ele></trkpt><trkpt lat="45.825757" lon="9.187902"><time>2024-05-04T06:25:11.000Z</time><ele>879.6</ele></trkpt><trkpt lat="45.825763" lon="9.187916"><time>2024-05-04T06:25:12.000Z</time><ele>879.6</ele></trkpt><trkpt lat="45.825774" lon="9.18793"><time>2024-05-04T06:25:13.000Z</time><ele>879.6</ele></trkpt><trkpt lat="45.825774" lon="9.187928"><time>2024-05-04T06:25:14.000Z</time><ele>879.6</ele></trkpt><trkpt lat="45.825776" lon="9.187923"><time>2024-05-04T06:25:15.000Z</time><ele>879.6</ele></trkpt><trkpt lat="45.825778" lon="9.187921"><time>2024-05-04T06:25:16.000Z</time><ele>879.6</ele></trkpt><trkpt lat="45.825779" lon="9.18792"><time>2024-05-04T06:25:17.000Z</time><ele>879.8</ele></trkpt><trkpt lat="45.825779" lon="9.187917"><time>2024-05-04T06:25:18.000Z</time><ele>879.8</ele></trkpt><trkpt lat="45.825777" lon="9.187916"><time>2024-05-04T06:25:19.000Z</time><ele>879.8</ele></trkpt><trkpt lat="45.825777" lon="9.187917"><time>2024-05-04T06:25:20.000Z</time><ele>880</ele></trkpt><trkpt lat="45.825778" lon="9.187918"><time>2024-05-04T06:25:21.000Z</time><ele>880</ele></trkpt><trkpt lat="45.82578" lon="9.187918"><time>2024-05-04T06:25:22.000Z</time><ele>880</ele></trkpt><trkpt lat="45.825783" lon="9.187921"><time>2024-05-04T06:25:23.000Z</time><ele>880</ele></trkpt><trkpt lat="45.825789" lon="9.187919"><time>2024-05-04T06:25:24.000Z</time><ele>880</ele></trkpt><trkpt lat="45.825794" lon="9.187917"><time>2024-05-04T06:25:25.000Z</time><ele>880</ele></trkpt><trkpt lat="45.825801" lon="9.187918"><time>2024-05-04T06:25:26.000Z</time><ele>879.8</ele></trkpt><trkpt lat="45.825804" lon="9.187918"><time>2024-05-04T06:25:27.000Z</time><ele>879.8</ele></trkpt><trkpt lat="45.825805" lon="9.187919"><time>2024-05-04T06:25:28.000Z</time><ele>879.8</ele></trkpt><trkpt lat="45.825811" lon="9.187921"><time>2024-05-04T06:25:29.000Z</time><ele>879.8</ele></trkpt><trkpt lat="45.825814" lon="9.187922"><time>2024-05-04T06:25:30.000Z</time><ele>880</ele></trkpt><trkpt lat="45.825814" lon="9.187926"><time>2024-05-04T06:25:31.000Z</time><ele>880</ele></trkpt><trkpt lat="45.825811" lon="9.187928"><time>2024-05-04T06:25:32.000Z</time><ele>880</ele></trkpt><trkpt lat="45.825809" lon="9.187929"><time>2024-05-04T06:25:33.000Z</time><ele>880</ele></trkpt><trkpt lat="45.825809" lon="9.187928"><time>2024-05-04T06:25:34.000Z</time><ele>880</ele></trkpt><trkpt lat="45.825813" lon="9.187931"><time>2024-05-04T06:25:35.000Z</time><ele>880</ele></trkpt><trkpt lat="45.825819" lon="9.187933"><time>2024-05-04T06:25:36.000Z</time><ele>880</ele></trkpt><trkpt lat="45.825822" lon="9.187934"><time>2024-05-04T06:25:37.000Z</time><ele>880</ele></trkpt><trkpt lat="45.825824" lon="9.187936"><time>2024-05-04T06:25:38.000Z</time><ele>880</ele></trkpt><trkpt lat="45.825825" lon="9.187937"><time>2024-05-04T06:25:39.000Z</time><ele>880</ele></trkpt><trkpt lat="45.825825" lon="9.187937"><time>2024-05-04T06:25:40.000Z</time><ele>880</ele></trkpt><trkpt lat="45.825825" lon="9.187937"><time>2024-05-04T06:25:41.000Z</time><ele>880.2</ele></trkpt><trkpt lat="45.825825" lon="9.187937"><time>2024-05-04T06:25:42.000Z</time><ele>880.2</ele></trkpt><trkpt lat="45.825825" lon="9.187937"><time>2024-05-04T06:25:43.000Z</time><ele>880.2</ele></trkpt><trkpt lat="45.825825" lon="9.187937"><time>2024-05-04T06:25:44.000Z</time><ele>880.2</ele></trkpt><trkpt lat="45.825825" lon="9.187937"><time>2024-05-04T06:25:45.000Z</time><ele>880.4</ele></trkpt><trkpt lat="45.825825" lon="9.187937"><time>2024-05-04T06:25:46.000Z</time><ele>880.4</ele></trkpt><trkpt lat="45.825831" lon="9.187937"><time>2024-05-04T06:25:47.000Z</time><ele>880.4</ele></trkpt><trkpt lat="45.825848" lon="9.187937"><time>2024-05-04T06:25:48.000Z</time><ele>880.6</ele></trkpt><trkpt lat="45.825858" lon="9.187933"><time>2024-05-04T06:25:49.000Z</time><ele>880.6</ele></trkpt><trkpt lat="45.825872" lon="9.187929"><time>2024-05-04T06:25:50.000Z</time><ele>880.6</ele></trkpt><trkpt lat="45.825885" lon="9.187921"><time>2024-05-04T06:25:51.000Z</time><ele>880.8</ele></trkpt><trkpt lat="45.825898" lon="9.187909"><time>2024-05-04T06:25:52.000Z</time><ele>880.8</ele></trkpt><trkpt lat="45.825915" lon="9.187903"><time>2024-05-04T06:25:53.000Z</time><ele>880.8</ele></trkpt><trkpt lat="45.825931" lon="9.187899"><time>2024-05-04T06:25:54.000Z</time><ele>880.8</ele></trkpt><trkpt lat="45.825944" lon="9.187897"><time>2024-05-04T06:25:55.000Z</time><ele>880.8</ele></trkpt><trkpt lat="45.825958" lon="9.187891"><time>2024-05-04T06:25:56.000Z</time><ele>881</ele></trkpt><trkpt lat="45.825968" lon="9.187886"><time>2024-05-04T06:25:57.000Z</time><ele>881</ele></trkpt><trkpt lat="45.825975" lon="9.187882"><time>2024-05-04T06:25:58.000Z</time><ele>881.2</ele></trkpt><trkpt lat="45.825978" lon="9.187879"><time>2024-05-04T06:25:59.000Z</time><ele>881.2</ele></trkpt><trkpt lat="45.825988" lon="9.187883"><time>2024-05-04T06:26:00.000Z</time><ele>881.4</ele></trkpt><trkpt lat="45.825999" lon="9.187884"><time>2024-05-04T06:26:01.000Z</time><ele>881.4</ele></trkpt><trkpt lat="45.826016" lon="9.187884"><time>2024-05-04T06:26:02.000Z</time><ele>881.4</ele></trkpt><trkpt lat="45.826031" lon="9.187885"><time>2024-05-04T06:26:03.000Z</time><ele>881.6</ele></trkpt><trkpt lat="45.826042" lon="9.187885"><time>2024-05-04T06:26:04.000Z</time><ele>881.8</ele></trkpt><trkpt lat="45.826052" lon="9.187888"><time>2024-05-04T06:26:05.000Z</time><ele>881.8</ele></trkpt><trkpt lat="45.826073" lon="9.187894"><time>2024-05-04T06:26:06.000Z</time><ele>881.8</ele></trkpt><trkpt lat="45.826093" lon="9.187888"><time>2024-05-04T06:26:07.000Z</time><ele>882</ele></trkpt><trkpt lat="45.826113" lon="9.18788"><time>2024-05-04T06:26:08.000Z</time><ele>882</ele></trkpt><trkpt lat="45.826129" lon="9.18788"><time>2024-05-04T06:26:09.000Z</time><ele>882.2</ele></trkpt><trkpt lat="45.826141" lon="9.187887"><time>2024-05-04T06:26:10.000Z</time><ele>882.2</ele></trkpt><trkpt lat="45.826155" lon="9.187895"><time>2024-05-04T06:26:11.000Z</time><ele>882.2</ele></trkpt><trkpt lat="45.826167" lon="9.187894"><time>2024-05-04T06:26:12.000Z</time><ele>882.4</ele></trkpt><trkpt lat="45.826182" lon="9.187885"><time>2024-05-04T06:26:13.000Z</time><ele>882.4</ele></trkpt><trkpt lat="45.826196" lon="9.187884"><time>2024-05-04T06:26:14.000Z</time><ele>882.6</ele></trkpt><trkpt lat="45.826208" lon="9.187877"><time>2024-05-04T06:26:15.000Z</time><ele>882.8</ele></trkpt><trkpt lat="45.826227" lon="9.187863"><time>2024-05-04T06:26:16.000Z</time><ele>882.8</ele></trkpt><trkpt lat="45.826248" lon="9.187847"><time>2024-05-04T06:26:17.000Z</time><ele>883</ele></trkpt><trkpt lat="45.826265" lon="9.187832"><time>2024-05-04T06:26:18.000Z</time><ele>883</ele></trkpt><trkpt lat="45.826276" lon="9.18782"><time>2024-05-04T06:26:19.000Z</time><ele>883.2</ele></trkpt><trkpt lat="45.826287" lon="9.18781"><time>2024-05-04T06:26:20.000Z</time><ele>883.2</ele></trkpt><trkpt lat="45.826295" lon="9.187804"><time>2024-05-04T06:26:21.000Z</time><ele>883.2</ele></trkpt><trkpt lat="45.826301" lon="9.187799"><time>2024-05-04T06:26:22.000Z</time><ele>883.2</ele></trkpt><trkpt lat="45.826307" lon="9.18779"><time>2024-05-04T06:26:23.000Z</time><ele>883.4</ele></trkpt><trkpt lat="45.826319" lon="9.18779"><time>2024-05-04T06:26:24.000Z</time><ele>883.4</ele></trkpt><trkpt lat="45.826331" lon="9.187786"><time>2024-05-04T06:26:25.000Z</time><ele>883.4</ele></trkpt><trkpt lat="45.826331" lon="9.187786"><time>2024-05-04T06:26:26.000Z</time><ele>883.6</ele></trkpt><trkpt lat="45.826358" lon="9.18777"><time>2024-05-04T06:26:27.000Z</time><ele>883.6</ele></trkpt><trkpt lat="45.826366" lon="9.187761"><time>2024-05-04T06:26:28.000Z</time><ele>883.6</ele></trkpt><trkpt lat="45.826375" lon="9.18775"><time>2024-05-04T06:26:29.000Z</time><ele>883.8</ele></trkpt><trkpt lat="45.826385" lon="9.18774"><time>2024-05-04T06:26:30.000Z</time><ele>883.8</ele></trkpt><trkpt lat="45.826391" lon="9.18774"><time>2024-05-04T06:26:31.000Z</time><ele>883.8</ele></trkpt><trkpt lat="45.826401" lon="9.187734"><time>2024-05-04T06:26:32.000Z</time><ele>884</ele></trkpt><trkpt lat="45.826409" lon="9.187726"><time>2024-05-04T06:26:33.000Z</time><ele>884</ele></trkpt><trkpt lat="45.82641" lon="9.187721"><time>2024-05-04T06:26:34.000Z</time><ele>884</ele></trkpt><trkpt lat="45.826413" lon="9.187708"><time>2024-05-04T06:26:35.000Z</time><ele>884.2</ele></trkpt><trkpt lat="45.826415" lon="9.187702"><time>2024-05-04T06:26:36.000Z</time><ele>884.2</ele></trkpt><trkpt lat="45.826415" lon="9.187702"><time>2024-05-04T06:26:37.000Z</time><ele>884.4</ele></trkpt><trkpt lat="45.826428" lon="9.187676"><time>2024-05-04T06:26:38.000Z</time><ele>884.4</ele></trkpt><trkpt lat="45.826438" lon="9.18767"><time>2024-05-04T06:26:39.000Z</time><ele>884.4</ele></trkpt><trkpt lat="45.826448" lon="9.187662"><time>2024-05-04T06:26:40.000Z</time><ele>884.6</ele></trkpt><trkpt lat="45.82646" lon="9.187655"><time>2024-05-04T06:26:41.000Z</time><ele>884.6</ele></trkpt><trkpt lat="45.826471" lon="9.187652"><time>2024-05-04T06:26:42.000Z</time><ele>884.6</ele></trkpt><trkpt lat="45.826482" lon="9.187645"><time>2024-05-04T06:26:43.000Z</time><ele>884.8</ele></trkpt><trkpt lat="45.826493" lon="9.187641"><time>2024-05-04T06:26:44.000Z</time><ele>884.8</ele></trkpt><trkpt lat="45.826499" lon="9.187638"><time>2024-05-04T06:26:45.000Z</time><ele>885</ele></trkpt><trkpt lat="45.826507" lon="9.187631"><time>2024-05-04T06:26:46.000Z</time><ele>885</ele></trkpt><trkpt lat="45.826515" lon="9.18763"><time>2024-05-04T06:26:47.000Z</time><ele>885.2</ele></trkpt><trkpt lat="45.826521" lon="9.187635"><time>2024-05-04T06:26:48.000Z</time><ele>885.2</ele></trkpt><trkpt lat="45.826529" lon="9.187644"><time>2024-05-04T06:26:49.000Z</time><ele>885.2</ele></trkpt><trkpt lat="45.826543" lon="9.187648"><time>2024-05-04T06:26:50.000Z</time><ele>885.2</ele></trkpt><trkpt lat="45.826554" lon="9.18764"><time>2024-05-04T06:26:51.000Z</time><ele>885.4</ele></trkpt><trkpt lat="45.826567" lon="9.187626"><time>2024-05-04T06:26:52.000Z</time><ele>885.4</ele></trkpt><trkpt lat="45.82658" lon="9.187612"><time>2024-05-04T06:26:53.000Z</time><ele>885.4</ele></trkpt><trkpt lat="45.826591" lon="9.187602"><time>2024-05-04T06:26:54.000Z</time><ele>885.6</ele></trkpt><trkpt lat="45.826601" lon="9.187593"><time>2024-05-04T06:26:55.000Z</time><ele>885.8</ele></trkpt><trkpt lat="45.82661" lon="9.187601"><time>2024-05-04T06:26:56.000Z</time><ele>885.8</ele></trkpt><trkpt lat="45.826623" lon="9.187599"><time>2024-05-04T06:26:57.000Z</time><ele>885.8</ele></trkpt><trkpt lat="45.826642" lon="9.187594"><time>2024-05-04T06:26:58.000Z</time><ele>886</ele></trkpt><trkpt lat="45.826655" lon="9.187581"><time>2024-05-04T06:26:59.000Z</time><ele>886</ele></trkpt><trkpt lat="45.826659" lon="9.187577"><time>2024-05-04T06:27:00.000Z</time><ele>886</ele></trkpt><trkpt lat="45.82666" lon="9.187574"><time>2024-05-04T06:27:01.000Z</time><ele>886.2</ele></trkpt><trkpt lat="45.82666" lon="9.187566"><time>2024-05-04T06:27:02.000Z</time><ele>886.2</ele></trkpt><trkpt lat="45.826657" lon="9.187567"><time>2024-05-04T06:27:03.000Z</time><ele>886.2</ele></trkpt><trkpt lat="45.826655" lon="9.187566"><time>2024-05-04T06:27:04.000Z</time><ele>886.4</ele></trkpt><trkpt lat="45.826654" lon="9.187563"><time>2024-05-04T06:27:05.000Z</time><ele>886.4</ele></trkpt><trkpt lat="45.826665" lon="9.187549"><time>2024-05-04T06:27:06.000Z</time><ele>886.4</ele></trkpt><trkpt lat="45.826666" lon="9.187546"><time>2024-05-04T06:27:07.000Z</time><ele>886.4</ele></trkpt><trkpt lat="45.826668" lon="9.187547"><time>2024-05-04T06:27:08.000Z</time><ele>886.4</ele></trkpt><trkpt lat="45.82667" lon="9.187546"><time>2024-05-04T06:27:09.000Z</time><ele>886.6</ele></trkpt><trkpt lat="45.82667" lon="9.187544"><time>2024-05-04T06:27:10.000Z</time><ele>886.8</ele></trkpt><trkpt lat="45.82667" lon="9.187543"><time>2024-05-04T06:27:11.000Z</time><ele>886.8</ele></trkpt><trkpt lat="45.826671" lon="9.187539"><time>2024-05-04T06:27:12.000Z</time><ele>887</ele></trkpt><trkpt lat="45.826675" lon="9.187536"><time>2024-05-04T06:27:13.000Z</time><ele>887</ele></trkpt><trkpt lat="45.826675" lon="9.187538"><time>2024-05-04T06:27:14.000Z</time><ele>886.8</ele></trkpt><trkpt lat="45.826684" lon="9.187535"><time>2024-05-04T06:27:15.000Z</time><ele>886.8</ele></trkpt><trkpt lat="45.826689" lon="9.187533"><time>2024-05-04T06:27:16.000Z</time><ele>886.6</ele></trkpt><trkpt lat="45.826702" lon="9.187534"><time>2024-05-04T06:27:17.000Z</time><ele>886.4</ele></trkpt><trkpt lat="45.826711" lon="9.187531"><time>2024-05-04T06:27:18.000Z</time><ele>886.4</ele></trkpt><trkpt lat="45.826717" lon="9.187525"><time>2024-05-04T06:27:19.000Z</time><ele>886.4</ele></trkpt><trkpt lat="45.826721" lon="9.187514"><time>2024-05-04T06:27:20.000Z</time><ele>886.6</ele></trkpt><trkpt lat="45.826724" lon="9.187503"><time>2024-05-04T06:27:21.000Z</time><ele>886.8</ele></trkpt><trkpt lat="45.826729" lon="9.187493"><time>2024-05-04T06:27:22.000Z</time><ele>886.8</ele></trkpt><trkpt lat="45.826738" lon="9.187489"><time>2024-05-04T06:27:23.000Z</time><ele>887.2</ele></trkpt><trkpt lat="45.826748" lon="9.187493"><time>2024-05-04T06:27:24.000Z</time><ele>887.4</ele></trkpt><trkpt lat="45.826757" lon="9.187492"><time>2024-05-04T06:27:25.000Z</time><ele>887.6</ele></trkpt><trkpt lat="45.826769" lon="9.187488"><time>2024-05-04T06:27:26.000Z</time><ele>887.8</ele></trkpt><trkpt lat="45.826782" lon="9.187484"><time>2024-05-04T06:27:27.000Z</time><ele>887.8</ele></trkpt><trkpt lat="45.826791" lon="9.187472"><time>2024-05-04T06:27:28.000Z</time><ele>888</ele></trkpt><trkpt lat="45.826805" lon="9.187458"><time>2024-05-04T06:27:29.000Z</time><ele>888</ele></trkpt><trkpt lat="45.826822" lon="9.187454"><time>2024-05-04T06:27:30.000Z</time><ele>888.4</ele></trkpt><trkpt lat="45.82684" lon="9.187469"><time>2024-05-04T06:27:31.000Z</time><ele>888.4</ele></trkpt><trkpt lat="45.826852" lon="9.187484"><time>2024-05-04T06:27:32.000Z</time><ele>888.6</ele></trkpt><trkpt lat="45.826863" lon="9.187495"><time>2024-05-04T06:27:33.000Z</time><ele>888.8</ele></trkpt><trkpt lat="45.826878" lon="9.1875"><time>2024-05-04T06:27:34.000Z</time><ele>889</ele></trkpt><trkpt lat="45.826887" lon="9.187501"><time>2024-05-04T06:27:35.000Z</time><ele>889.2</ele></trkpt><trkpt lat="45.826895" lon="9.187498"><time>2024-05-04T06:27:36.000Z</time><ele>889.4</ele></trkpt><trkpt lat="45.826905" lon="9.187498"><time>2024-05-04T06:27:37.000Z</time><ele>889.6</ele></trkpt><trkpt lat="45.826916" lon="9.187497"><time>2024-05-04T06:27:38.000Z</time><ele>889.8</ele></trkpt><trkpt lat="45.826926" lon="9.187496"><time>2024-05-04T06:27:39.000Z</time><ele>890.2</ele></trkpt><trkpt lat="45.826937" lon="9.187494"><time>2024-05-04T06:27:40.000Z</time><ele>890.4</ele></trkpt><trkpt lat="45.826938" lon="9.187492"><time>2024-05-04T06:27:41.000Z</time><ele>890.8</ele></trkpt><trkpt lat="45.82694" lon="9.187488"><time>2024-05-04T06:27:42.000Z</time><ele>890.8</ele></trkpt><trkpt lat="45.826942" lon="9.18748"><time>2024-05-04T06:27:43.000Z</time><ele>891</ele></trkpt><trkpt lat="45.826942" lon="9.187474"><time>2024-05-04T06:27:44.000Z</time><ele>891</ele></trkpt><trkpt lat="45.826948" lon="9.18747"><time>2024-05-04T06:27:45.000Z</time><ele>891</ele></trkpt><trkpt lat="45.826956" lon="9.187465"><time>2024-05-04T06:27:46.000Z</time><ele>891</ele></trkpt><trkpt lat="45.82697" lon="9.187456"><time>2024-05-04T06:27:47.000Z</time><ele>891.2</ele></trkpt><trkpt lat="45.82698" lon="9.187446"><time>2024-05-04T06:27:48.000Z</time><ele>891.4</ele></trkpt><trkpt lat="45.826984" lon="9.18743"><time>2024-05-04T06:27:49.000Z</time><ele>891.6</ele></trkpt><trkpt lat="45.826986" lon="9.187409"><time>2024-05-04T06:27:50.000Z</time><ele>891.6</ele></trkpt><trkpt lat="45.826992" lon="9.187387"><time>2024-05-04T06:27:51.000Z</time><ele>891.8</ele></trkpt><trkpt lat="45.827006" lon="9.187379"><time>2024-05-04T06:27:52.000Z</time><ele>892</ele></trkpt><trkpt lat="45.827013" lon="9.187376"><time>2024-05-04T06:27:53.000Z</time><ele>892</ele></trkpt><trkpt lat="45.827028" lon="9.187375"><time>2024-05-04T06:27:54.000Z</time><ele>892.2</ele></trkpt><trkpt lat="45.827044" lon="9.187375"><time>2024-05-04T06:27:55.000Z</time><ele>892.4</ele></trkpt><trkpt lat="45.827059" lon="9.187376"><time>2024-05-04T06:27:56.000Z</time><ele>892.4</ele></trkpt><trkpt lat="45.82707" lon="9.18737"><time>2024-05-04T06:27:57.000Z</time><ele>892.6</ele></trkpt><trkpt lat="45.827081" lon="9.187367"><time>2024-05-04T06:27:58.000Z</time><ele>892.6</ele></trkpt><trkpt lat="45.827095" lon="9.187365"><time>2024-05-04T06:27:59.000Z</time><ele>892.8</ele></trkpt><trkpt lat="45.827108" lon="9.187358"><time>2024-05-04T06:28:00.000Z</time><ele>893</ele></trkpt><trkpt lat="45.827119" lon="9.187351"><time>2024-05-04T06:28:01.000Z</time><ele>893</ele></trkpt><trkpt lat="45.82713" lon="9.187343"><time>2024-05-04T06:28:02.000Z</time><ele>893.2</ele></trkpt><trkpt lat="45.827143" lon="9.18733"><time>2024-05-04T06:28:03.000Z</time><ele>893.2</ele></trkpt><trkpt lat="45.827158" lon="9.187321"><time>2024-05-04T06:28:04.000Z</time><ele>893.2</ele></trkpt><trkpt lat="45.827173" lon="9.187311"><time>2024-05-04T06:28:05.000Z</time><ele>893.2</ele></trkpt><trkpt lat="45.827194" lon="9.1873"><time>2024-05-04T06:28:06.000Z</time><ele>893.2</ele></trkpt><trkpt lat="45.827213" lon="9.187284"><time>2024-05-04T06:28:07.000Z</time><ele>893.2</ele></trkpt><trkpt lat="45.827227" lon="9.187267"><time>2024-05-04T06:28:08.000Z</time><ele>893.2</ele></trkpt><trkpt lat="45.827231" lon="9.187262"><time>2024-05-04T06:28:09.000Z</time><ele>893.2</ele></trkpt><trkpt lat="45.827231" lon="9.187259"><time>2024-05-04T06:28:10.000Z</time><ele>893.2</ele></trkpt><trkpt lat="45.827233" lon="9.18725"><time>2024-05-04T06:28:11.000Z</time><ele>893.2</ele></trkpt><trkpt lat="45.827234" lon="9.18724"><time>2024-05-04T06:28:12.000Z</time><ele>893.2</ele></trkpt><trkpt lat="45.827233" lon="9.18724"><time>2024-05-04T06:28:13.000Z</time><ele>893.2</ele></trkpt><trkpt lat="45.827234" lon="9.18724"><time>2024-05-04T06:28:14.000Z</time><ele>893.2</ele></trkpt><trkpt lat="45.827235" lon="9.187241"><time>2024-05-04T06:28:15.000Z</time><ele>893.2</ele></trkpt><trkpt lat="45.827237" lon="9.187241"><time>2024-05-04T06:28:16.000Z</time><ele>893.2</ele></trkpt><trkpt lat="45.827238" lon="9.187242"><time>2024-05-04T06:28:17.000Z</time><ele>893.2</ele></trkpt><trkpt lat="45.827242" lon="9.187238"><time>2024-05-04T06:28:18.000Z</time><ele>893.2</ele></trkpt><trkpt lat="45.827247" lon="9.187239"><time>2024-05-04T06:28:19.000Z</time><ele>893.2</ele></trkpt><trkpt lat="45.82725" lon="9.187239"><time>2024-05-04T06:28:20.000Z</time><ele>893.2</ele></trkpt><trkpt lat="45.827254" lon="9.187239"><time>2024-05-04T06:28:21.000Z</time><ele>893.2</ele></trkpt><trkpt lat="45.827262" lon="9.187236"><time>2024-05-04T06:28:22.000Z</time><ele>893.2</ele></trkpt><trkpt lat="45.827264" lon="9.187233"><time>2024-05-04T06:28:23.000Z</time><ele>893.2</ele></trkpt><trkpt lat="45.827265" lon="9.187229"><time>2024-05-04T06:28:24.000Z</time><ele>893.2</ele></trkpt><trkpt lat="45.827266" lon="9.187225"><time>2024-05-04T06:28:25.000Z</time><ele>893</ele></trkpt><trkpt lat="45.827277" lon="9.187223"><time>2024-05-04T06:28:26.000Z</time><ele>893</ele></trkpt><trkpt lat="45.82728" lon="9.187223"><time>2024-05-04T06:28:27.000Z</time><ele>893</ele></trkpt><trkpt lat="45.827284" lon="9.187219"><time>2024-05-04T06:28:28.000Z</time><ele>893</ele></trkpt><trkpt lat="45.827296" lon="9.187216"><time>2024-05-04T06:28:29.000Z</time><ele>893</ele></trkpt><trkpt lat="45.827299" lon="9.187216"><time>2024-05-04T06:28:30.000Z</time><ele>893</ele></trkpt><trkpt lat="45.827301" lon="9.187215"><time>2024-05-04T06:28:31.000Z</time><ele>893</ele></trkpt><trkpt lat="45.827301" lon="9.187216"><time>2024-05-04T06:28:32.000Z</time><ele>893</ele></trkpt><trkpt lat="45.827301" lon="9.187212"><time>2024-05-04T06:28:33.000Z</time><ele>893</ele></trkpt><trkpt lat="45.827301" lon="9.187212"><time>2024-05-04T06:28:34.000Z</time><ele>893</ele></trkpt><trkpt lat="45.827301" lon="9.187214"><time>2024-05-04T06:28:35.000Z</time><ele>893</ele></trkpt><trkpt lat="45.827303" lon="9.187214"><time>2024-05-04T06:28:36.000Z</time><ele>893.2</ele></trkpt><trkpt lat="45.827305" lon="9.187211"><time>2024-05-04T06:28:37.000Z</time><ele>893</ele></trkpt><trkpt lat="45.827307" lon="9.187207"><time>2024-05-04T06:28:38.000Z</time><ele>893</ele></trkpt><trkpt lat="45.827304" lon="9.187206"><time>2024-05-04T06:28:39.000Z</time><ele>893</ele></trkpt><trkpt lat="45.827303" lon="9.187203"><time>2024-05-04T06:28:40.000Z</time><ele>893</ele></trkpt><trkpt lat="45.827301" lon="9.187203"><time>2024-05-04T06:28:41.000Z</time><ele>893</ele></trkpt><trkpt lat="45.8273" lon="9.187204"><time>2024-05-04T06:28:42.000Z</time><ele>893</ele></trkpt><trkpt lat="45.827299" lon="9.187206"><time>2024-05-04T06:28:43.000Z</time><ele>893</ele></trkpt><trkpt lat="45.827293" lon="9.187209"><time>2024-05-04T06:28:44.000Z</time><ele>893</ele></trkpt><trkpt lat="45.827289" lon="9.187211"><time>2024-05-04T06:28:45.000Z</time><ele>893.2</ele></trkpt><trkpt lat="45.827286" lon="9.187211"><time>2024-05-04T06:28:46.000Z</time><ele>893.2</ele></trkpt><trkpt lat="45.827284" lon="9.187204"><time>2024-05-04T06:28:47.000Z</time><ele>893.2</ele></trkpt><trkpt lat="45.827285" lon="9.187199"><time>2024-05-04T06:28:48.000Z</time><ele>893.2</ele></trkpt><trkpt lat="45.827282" lon="9.187194"><time>2024-05-04T06:28:49.000Z</time><ele>893.4</ele></trkpt><trkpt lat="45.827279" lon="9.187189"><time>2024-05-04T06:28:50.000Z</time><ele>893.2</ele></trkpt><trkpt lat="45.827286" lon="9.187178"><time>2024-05-04T06:28:51.000Z</time><ele>893.2</ele></trkpt><trkpt lat="45.82729" lon="9.187166"><time>2024-05-04T06:28:52.000Z</time><ele>893.2</ele></trkpt><trkpt lat="45.827299" lon="9.187162"><time>2024-05-04T06:28:53.000Z</time><ele>893.2</ele></trkpt><trkpt lat="45.827308" lon="9.187154"><time>2024-05-04T06:28:54.000Z</time><ele>893</ele></trkpt><trkpt lat="45.827317" lon="9.187141"><time>2024-05-04T06:28:55.000Z</time><ele>893</ele></trkpt><trkpt lat="45.827327" lon="9.187133"><time>2024-05-04T06:28:56.000Z</time><ele>893</ele></trkpt><trkpt lat="45.827338" lon="9.187129"><time>2024-05-04T06:28:57.000Z</time><ele>893</ele></trkpt><trkpt lat="45.827349" lon="9.187125"><time>2024-05-04T06:28:58.000Z</time><ele>893</ele></trkpt><trkpt lat="45.827361" lon="9.187121"><time>2024-05-04T06:28:59.000Z</time><ele>893.2</ele></trkpt><trkpt lat="45.827369" lon="9.187111"><time>2024-05-04T06:29:00.000Z</time><ele>893.4</ele></trkpt><trkpt lat="45.827377" lon="9.187099"><time>2024-05-04T06:29:01.000Z</time><ele>893.6</ele></trkpt><trkpt lat="45.827385" lon="9.187086"><time>2024-05-04T06:29:02.000Z</time><ele>893.6</ele></trkpt><trkpt lat="45.827386" lon="9.187083"><time>2024-05-04T06:29:03.000Z</time><ele>893.6</ele></trkpt><trkpt lat="45.827387" lon="9.187084"><time>2024-05-04T06:29:04.000Z</time><ele>893.6</ele></trkpt><trkpt lat="45.827388" lon="9.187083"><time>2024-05-04T06:29:05.000Z</time><ele>893.8</ele></trkpt><trkpt lat="45.827386" lon="9.18708"><time>2024-05-04T06:29:06.000Z</time><ele>893.8</ele></trkpt><trkpt lat="45.827385" lon="9.18708"><time>2024-05-04T06:29:07.000Z</time><ele>893.6</ele></trkpt><trkpt lat="45.827377" lon="9.187086"><time>2024-05-04T06:29:08.000Z</time><ele>893.6</ele></trkpt><trkpt lat="45.827367" lon="9.187096"><time>2024-05-04T06:29:09.000Z</time><ele>893.6</ele></trkpt><trkpt lat="45.827358" lon="9.187097"><time>2024-05-04T06:29:10.000Z</time><ele>893.8</ele></trkpt><trkpt lat="45.827356" lon="9.187093"><time>2024-05-04T06:29:11.000Z</time><ele>893.8</ele></trkpt><trkpt lat="45.827351" lon="9.187093"><time>2024-05-04T06:29:12.000Z</time><ele>893.8</ele></trkpt><trkpt lat="45.827345" lon="9.1871"><time>2024-05-04T06:29:13.000Z</time><ele>893.8</ele></trkpt><trkpt lat="45.827341" lon="9.187103"><time>2024-05-04T06:29:14.000Z</time><ele>893.8</ele></trkpt><trkpt lat="45.827342" lon="9.187104"><time>2024-05-04T06:29:15.000Z</time><ele>893.8</ele></trkpt><trkpt lat="45.827342" lon="9.187109"><time>2024-05-04T06:29:16.000Z</time><ele>893.8</ele></trkpt><trkpt lat="45.827343" lon="9.187111"><time>2024-05-04T06:29:17.000Z</time><ele>893.8</ele></trkpt><trkpt lat="45.827345" lon="9.18711"><time>2024-05-04T06:29:18.000Z</time><ele>893.8</ele></trkpt><trkpt lat="45.827342" lon="9.18711"><time>2024-05-04T06:29:19.000Z</time><ele>893.8</ele></trkpt><trkpt lat="45.827343" lon="9.187103"><time>2024-05-04T06:29:20.000Z</time><ele>893.8</ele></trkpt><trkpt lat="45.827345" lon="9.187102"><time>2024-05-04T06:29:21.000Z</time><ele>893.8</ele></trkpt><trkpt lat="45.82735" lon="9.187095"><time>2024-05-04T06:29:22.000Z</time><ele>893.8</ele></trkpt><trkpt lat="45.827351" lon="9.187094"><time>2024-05-04T06:29:23.000Z</time><ele>893.8</ele></trkpt><trkpt lat="45.827354" lon="9.187088"><time>2024-05-04T06:29:24.000Z</time><ele>893.8</ele></trkpt><trkpt lat="45.827352" lon="9.187088"><time>2024-05-04T06:29:25.000Z</time><ele>893.8</ele></trkpt><trkpt lat="45.827352" lon="9.18709"><time>2024-05-04T06:29:26.000Z</time><ele>893.8</ele></trkpt><trkpt lat="45.827354" lon="9.187096"><time>2024-05-04T06:29:27.000Z</time><ele>893.8</ele></trkpt><trkpt lat="45.827348" lon="9.187101"><time>2024-05-04T06:29:28.000Z</time><ele>893.8</ele></trkpt><trkpt lat="45.827339" lon="9.18711"><time>2024-05-04T06:29:29.000Z</time><ele>893.8</ele></trkpt><trkpt lat="45.827333" lon="9.187113"><time>2024-05-04T06:29:30.000Z</time><ele>893.8</ele></trkpt><trkpt lat="45.82733" lon="9.187113"><time>2024-05-04T06:29:31.000Z</time><ele>893.8</ele></trkpt><trkpt lat="45.827328" lon="9.187112"><time>2024-05-04T06:29:32.000Z</time><ele>893.8</ele></trkpt><trkpt lat="45.827326" lon="9.187115"><time>2024-05-04T06:29:33.000Z</time><ele>893.8</ele></trkpt><trkpt lat="45.827325" lon="9.18712"><time>2024-05-04T06:29:34.000Z</time><ele>893.8</ele></trkpt><trkpt lat="45.827325" lon="9.187117"><time>2024-05-04T06:29:35.000Z</time><ele>893.8</ele></trkpt><trkpt lat="45.827329" lon="9.187114"><time>2024-05-04T06:29:36.000Z</time><ele>893.8</ele></trkpt><trkpt lat="45.827335" lon="9.187109"><time>2024-05-04T06:29:37.000Z</time><ele>893.8</ele></trkpt><trkpt lat="45.827344" lon="9.1871"><time>2024-05-04T06:29:38.000Z</time><ele>893.8</ele></trkpt><trkpt lat="45.827353" lon="9.187093"><time>2024-05-04T06:29:39.000Z</time><ele>894</ele></trkpt><trkpt lat="45.827357" lon="9.18709"><time>2024-05-04T06:29:40.000Z</time><ele>894.2</ele></trkpt><trkpt lat="45.827356" lon="9.187086"><time>2024-05-04T06:29:41.000Z</time><ele>894.2</ele></trkpt><trkpt lat="45.827361" lon="9.187082"><time>2024-05-04T06:29:42.000Z</time><ele>894.4</ele></trkpt><trkpt lat="45.827369" lon="9.187074"><time>2024-05-04T06:29:43.000Z</time><ele>894.4</ele></trkpt><trkpt lat="45.827378" lon="9.187067"><time>2024-05-04T06:29:44.000Z</time><ele>894.4</ele></trkpt><trkpt lat="45.827385" lon="9.187057"><time>2024-05-04T06:29:45.000Z</time><ele>893.6</ele></trkpt><trkpt lat="45.827392" lon="9.18705"><time>2024-05-04T06:29:46.000Z</time><ele>893.6</ele></trkpt><trkpt lat="45.827405" lon="9.187044"><time>2024-05-04T06:29:47.000Z</time><ele>893.6</ele></trkpt><trkpt lat="45.827415" lon="9.187038"><time>2024-05-04T06:29:48.000Z</time><ele>893.6</ele></trkpt><trkpt lat="45.827427" lon="9.187029"><time>2024-05-04T06:29:49.000Z</time><ele>894.4</ele></trkpt><trkpt lat="45.827433" lon="9.18702"><time>2024-05-04T06:29:50.000Z</time><ele>894.8</ele></trkpt><trkpt lat="45.82744" lon="9.187006"><time>2024-05-04T06:29:51.000Z</time><ele>895</ele></trkpt><trkpt lat="45.827448" lon="9.186993"><time>2024-05-04T06:29:52.000Z</time><ele>895.2</ele></trkpt><trkpt lat="45.82746" lon="9.186983"><time>2024-05-04T06:29:53.000Z</time><ele>895.4</ele></trkpt><trkpt lat="45.827474" lon="9.18698"><time>2024-05-04T06:29:54.000Z</time><ele>895.6</ele></trkpt><trkpt lat="45.827494" lon="9.186975"><time>2024-05-04T06:29:55.000Z</time><ele>895.6</ele></trkpt><trkpt lat="45.827508" lon="9.186966"><time>2024-05-04T06:29:56.000Z</time><ele>895.8</ele></trkpt><trkpt lat="45.827522" lon="9.186963"><time>2024-05-04T06:29:57.000Z</time><ele>896</ele></trkpt><trkpt lat="45.827538" lon="9.186969"><time>2024-05-04T06:29:58.000Z</time><ele>896.2</ele></trkpt><trkpt lat="45.827551" lon="9.186969"><time>2024-05-04T06:29:59.000Z</time><ele>896.2</ele></trkpt><trkpt lat="45.82756" lon="9.186964"><time>2024-05-04T06:30:00.000Z</time><ele>896.6</ele></trkpt><trkpt lat="45.827566" lon="9.186959"><time>2024-05-04T06:30:01.000Z</time><ele>896.6</ele></trkpt><trkpt lat="45.827573" lon="9.186955"><time>2024-05-04T06:30:02.000Z</time><ele>896.8</ele></trkpt><trkpt lat="45.827583" lon="9.186952"><time>2024-05-04T06:30:03.000Z</time><ele>897</ele></trkpt><trkpt lat="45.827593" lon="9.186948"><time>2024-05-04T06:30:04.000Z</time><ele>897.2</ele></trkpt><trkpt lat="45.827605" lon="9.186946"><time>2024-05-04T06:30:05.000Z</time><ele>897.4</ele></trkpt><trkpt lat="45.827618" lon="9.186946"><time>2024-05-04T06:30:06.000Z</time><ele>897.6</ele></trkpt><trkpt lat="45.827629" lon="9.186943"><time>2024-05-04T06:30:07.000Z</time><ele>897.8</ele></trkpt><trkpt lat="45.827633" lon="9.18693"><time>2024-05-04T06:30:08.000Z</time><ele>898</ele></trkpt><trkpt lat="45.827639" lon="9.186919"><time>2024-05-04T06:30:09.000Z</time><ele>898.2</ele></trkpt><trkpt lat="45.82765" lon="9.186911"><time>2024-05-04T06:30:10.000Z</time><ele>898.4</ele></trkpt><trkpt lat="45.827664" lon="9.186908"><time>2024-05-04T06:30:11.000Z</time><ele>898.6</ele></trkpt><trkpt lat="45.827675" lon="9.186904"><time>2024-05-04T06:30:12.000Z</time><ele>899</ele></trkpt><trkpt lat="45.827683" lon="9.186898"><time>2024-05-04T06:30:13.000Z</time><ele>899</ele></trkpt><trkpt lat="45.827689" lon="9.186888"><time>2024-05-04T06:30:14.000Z</time><ele>899.2</ele></trkpt><trkpt lat="45.827697" lon="9.186882"><time>2024-05-04T06:30:15.000Z</time><ele>899.4</ele></trkpt><trkpt lat="45.827704" lon="9.186881"><time>2024-05-04T06:30:16.000Z</time><ele>899.6</ele></trkpt><trkpt lat="45.827712" lon="9.186873"><time>2024-05-04T06:30:17.000Z</time><ele>899.8</ele></trkpt><trkpt lat="45.827717" lon="9.186869"><time>2024-05-04T06:30:18.000Z</time><ele>900</ele></trkpt><trkpt lat="45.827726" lon="9.186865"><time>2024-05-04T06:30:19.000Z</time><ele>900.2</ele></trkpt><trkpt lat="45.827734" lon="9.18686"><time>2024-05-04T06:30:20.000Z</time><ele>900.4</ele></trkpt><trkpt lat="45.827741" lon="9.186856"><time>2024-05-04T06:30:21.000Z</time><ele>900.4</ele></trkpt><trkpt lat="45.827743" lon="9.186848"><time>2024-05-04T06:30:22.000Z</time><ele>900.8</ele></trkpt><trkpt lat="45.827747" lon="9.18684"><time>2024-05-04T06:30:23.000Z</time><ele>901</ele></trkpt><trkpt lat="45.827755" lon="9.186834"><time>2024-05-04T06:30:24.000Z</time><ele>901.2</ele></trkpt><trkpt lat="45.827766" lon="9.186828"><time>2024-05-04T06:30:25.000Z</time><ele>901.2</ele></trkpt><trkpt lat="45.827774" lon="9.186815"><time>2024-05-04T06:30:26.000Z</time><ele>901.6</ele></trkpt><trkpt lat="45.827782" lon="9.186797"><time>2024-05-04T06:30:27.000Z</time><ele>901.6</ele></trkpt><trkpt lat="45.827794" lon="9.18679"><time>2024-05-04T06:30:28.000Z</time><ele>901.8</ele></trkpt><trkpt lat="45.827803" lon="9.186787"><time>2024-05-04T06:30:29.000Z</time><ele>902</ele></trkpt><trkpt lat="45.827805" lon="9.186781"><time>2024-05-04T06:30:30.000Z</time><ele>902.2</ele></trkpt><trkpt lat="45.827806" lon="9.186774"><time>2024-05-04T06:30:31.000Z</time><ele>902.2</ele></trkpt><trkpt lat="45.82781" lon="9.186766"><time>2024-05-04T06:30:32.000Z</time><ele>902.4</ele></trkpt><trkpt lat="45.827813" lon="9.186757"><time>2024-05-04T06:30:33.000Z</time><ele>902.6</ele></trkpt><trkpt lat="45.827816" lon="9.186744"><time>2024-05-04T06:30:34.000Z</time><ele>903</ele></trkpt><trkpt lat="45.827823" lon="9.186733"><time>2024-05-04T06:30:35.000Z</time><ele>903.2</ele></trkpt><trkpt lat="45.827832" lon="9.186723"><time>2024-05-04T06:30:36.000Z</time><ele>903.4</ele></trkpt><trkpt lat="45.82784" lon="9.186715"><time>2024-05-04T06:30:37.000Z</time><ele>903.6</ele></trkpt><trkpt lat="45.827843" lon="9.186713"><time>2024-05-04T06:30:38.000Z</time><ele>903.8</ele></trkpt><trkpt lat="45.827854" lon="9.186707"><time>2024-05-04T06:30:39.000Z</time><ele>904</ele></trkpt><trkpt lat="45.827862" lon="9.186705"><time>2024-05-04T06:30:40.000Z</time><ele>904</ele></trkpt><trkpt lat="45.827863" lon="9.186704"><time>2024-05-04T06:30:41.000Z</time><ele>904.2</ele></trkpt><trkpt lat="45.827873" lon="9.1867"><time>2024-05-04T06:30:42.000Z</time><ele>904.4</ele></trkpt><trkpt lat="45.827877" lon="9.186691"><time>2024-05-04T06:30:43.000Z</time><ele>904.6</ele></trkpt><trkpt lat="45.827877" lon="9.186683"><time>2024-05-04T06:30:44.000Z</time><ele>904.8</ele></trkpt><trkpt lat="45.827875" lon="9.186677"><time>2024-05-04T06:30:45.000Z</time><ele>905</ele></trkpt><trkpt lat="45.827872" lon="9.186676"><time>2024-05-04T06:30:46.000Z</time><ele>905</ele></trkpt><trkpt lat="45.827878" lon="9.186668"><time>2024-05-04T06:30:47.000Z</time><ele>905</ele></trkpt><trkpt lat="45.82789" lon="9.186658"><time>2024-05-04T06:30:48.000Z</time><ele>905.2</ele></trkpt><trkpt lat="45.82789" lon="9.186658"><time>2024-05-04T06:30:49.000Z</time><ele>905.4</ele></trkpt><trkpt lat="45.827898" lon="9.186629"><time>2024-05-04T06:30:50.000Z</time><ele>905.4</ele></trkpt><trkpt lat="45.827901" lon="9.186617"><time>2024-05-04T06:30:51.000Z</time><ele>905.6</ele></trkpt><trkpt lat="45.827905" lon="9.186621"><time>2024-05-04T06:30:52.000Z</time><ele>905.6</ele></trkpt><trkpt lat="45.82791" lon="9.186622"><time>2024-05-04T06:30:53.000Z</time><ele>905.8</ele></trkpt><trkpt lat="45.827916" lon="9.18662"><time>2024-05-04T06:30:54.000Z</time><ele>906</ele></trkpt><trkpt lat="45.827924" lon="9.186618"><time>2024-05-04T06:30:55.000Z</time><ele>906</ele></trkpt><trkpt lat="45.827927" lon="9.186615"><time>2024-05-04T06:30:56.000Z</time><ele>906</ele></trkpt><trkpt lat="45.827932" lon="9.18661"><time>2024-05-04T06:30:57.000Z</time><ele>906.2</ele></trkpt><trkpt lat="45.827937" lon="9.1866"><time>2024-05-04T06:30:58.000Z</time><ele>906.2</ele></trkpt><trkpt lat="45.827938" lon="9.186598"><time>2024-05-04T06:30:59.000Z</time><ele>906.4</ele></trkpt><trkpt lat="45.827936" lon="9.186591"><time>2024-05-04T06:31:00.000Z</time><ele>906.6</ele></trkpt><trkpt lat="45.827935" lon="9.186588"><time>2024-05-04T06:31:01.000Z</time><ele>906.6</ele></trkpt><trkpt lat="45.82794" lon="9.186575"><time>2024-05-04T06:31:02.000Z</time><ele>906.8</ele></trkpt><trkpt lat="45.827946" lon="9.186562"><time>2024-05-04T06:31:03.000Z</time><ele>907</ele></trkpt><trkpt lat="45.827952" lon="9.186548"><time>2024-05-04T06:31:04.000Z</time><ele>907.2</ele></trkpt><trkpt lat="45.827954" lon="9.186543"><time>2024-05-04T06:31:05.000Z</time><ele>907.4</ele></trkpt><trkpt lat="45.827962" lon="9.186536"><time>2024-05-04T06:31:06.000Z</time><ele>907.6</ele></trkpt><trkpt lat="45.827971" lon="9.186528"><time>2024-05-04T06:31:07.000Z</time><ele>907.8</ele></trkpt><trkpt lat="45.827977" lon="9.186521"><time>2024-05-04T06:31:08.000Z</time><ele>908</ele></trkpt><trkpt lat="45.827983" lon="9.186512"><time>2024-05-04T06:31:09.000Z</time><ele>908</ele></trkpt><trkpt lat="45.827991" lon="9.186505"><time>2024-05-04T06:31:10.000Z</time><ele>908.2</ele></trkpt><trkpt lat="45.827997" lon="9.186495"><time>2024-05-04T06:31:11.000Z</time><ele>908.4</ele></trkpt><trkpt lat="45.828001" lon="9.186481"><time>2024-05-04T06:31:12.000Z</time><ele>908.4</ele></trkpt><trkpt lat="45.828013" lon="9.186468"><time>2024-05-04T06:31:13.000Z</time><ele>908.6</ele></trkpt><trkpt lat="45.828023" lon="9.186457"><time>2024-05-04T06:31:14.000Z</time><ele>908.6</ele></trkpt><trkpt lat="45.82803" lon="9.18645"><time>2024-05-04T06:31:15.000Z</time><ele>908.8</ele></trkpt><trkpt lat="45.828042" lon="9.186448"><time>2024-05-04T06:31:16.000Z</time><ele>908.8</ele></trkpt><trkpt lat="45.828053" lon="9.186445"><time>2024-05-04T06:31:17.000Z</time><ele>909.2</ele></trkpt><trkpt lat="45.828061" lon="9.186437"><time>2024-05-04T06:31:18.000Z</time><ele>909.4</ele></trkpt><trkpt lat="45.828063" lon="9.186425"><time>2024-05-04T06:31:19.000Z</time><ele>909.6</ele></trkpt><trkpt lat="45.828065" lon="9.18641"><time>2024-05-04T06:31:20.000Z</time><ele>909.8</ele></trkpt><trkpt lat="45.82807" lon="9.186397"><time>2024-05-04T06:31:21.000Z</time><ele>910</ele></trkpt><trkpt lat="45.828078" lon="9.186386"><time>2024-05-04T06:31:22.000Z</time><ele>910</ele></trkpt><trkpt lat="45.828081" lon="9.18638"><time>2024-05-04T06:31:23.000Z</time><ele>910.4</ele></trkpt><trkpt lat="45.828087" lon="9.186374"><time>2024-05-04T06:31:24.000Z</time><ele>910.8</ele></trkpt><trkpt lat="45.828094" lon="9.18637"><time>2024-05-04T06:31:25.000Z</time><ele>910.8</ele></trkpt><trkpt lat="45.828098" lon="9.186364"><time>2024-05-04T06:31:26.000Z</time><ele>911</ele></trkpt><trkpt lat="45.828109" lon="9.186355"><time>2024-05-04T06:31:27.000Z</time><ele>911.2</ele></trkpt><trkpt lat="45.828125" lon="9.186338"><time>2024-05-04T06:31:28.000Z</time><ele>911.4</ele></trkpt><trkpt lat="45.828135" lon="9.186321"><time>2024-05-04T06:31:29.000Z</time><ele>911.6</ele></trkpt><trkpt lat="45.828141" lon="9.18631"><time>2024-05-04T06:31:30.000Z</time><ele>911.8</ele></trkpt><trkpt lat="45.828142" lon="9.186304"><time>2024-05-04T06:31:31.000Z</time><ele>912.2</ele></trkpt><trkpt lat="45.828144" lon="9.186291"><time>2024-05-04T06:31:32.000Z</time><ele>912.4</ele></trkpt><trkpt lat="45.828146" lon="9.186279"><time>2024-05-04T06:31:33.000Z</time><ele>912.6</ele></trkpt><trkpt lat="45.828152" lon="9.186274"><time>2024-05-04T06:31:34.000Z</time><ele>912.6</ele></trkpt><trkpt lat="45.828165" lon="9.186272"><time>2024-05-04T06:31:35.000Z</time><ele>912.8</ele></trkpt><trkpt lat="45.828176" lon="9.186265"><time>2024-05-04T06:31:36.000Z</time><ele>913</ele></trkpt><trkpt lat="45.828177" lon="9.186261"><time>2024-05-04T06:31:37.000Z</time><ele>913.2</ele></trkpt><trkpt lat="45.828178" lon="9.186253"><time>2024-05-04T06:31:38.000Z</time><ele>913.6</ele></trkpt><trkpt lat="45.828181" lon="9.186242"><time>2024-05-04T06:31:39.000Z</time><ele>913.6</ele></trkpt><trkpt lat="45.828191" lon="9.18623"><time>2024-05-04T06:31:40.000Z</time><ele>913.8</ele></trkpt><trkpt lat="45.828197" lon="9.186224"><time>2024-05-04T06:31:41.000Z</time><ele>914.2</ele></trkpt><trkpt lat="45.828204" lon="9.186214"><time>2024-05-04T06:31:42.000Z</time><ele>914.4</ele></trkpt><trkpt lat="45.828208" lon="9.186204"><time>2024-05-04T06:31:43.000Z</time><ele>914.6</ele></trkpt><trkpt lat="45.828213" lon="9.186193"><time>2024-05-04T06:31:44.000Z</time><ele>914.6</ele></trkpt><trkpt lat="45.828219" lon="9.186185"><time>2024-05-04T06:31:45.000Z</time><ele>914.8</ele></trkpt><trkpt lat="45.828225" lon="9.186178"><time>2024-05-04T06:31:46.000Z</time><ele>915</ele></trkpt><trkpt lat="45.828231" lon="9.186181"><time>2024-05-04T06:31:47.000Z</time><ele>915.2</ele></trkpt><trkpt lat="45.828236" lon="9.186185"><time>2024-05-04T06:31:48.000Z</time><ele>915.4</ele></trkpt><trkpt lat="45.82824" lon="9.186182"><time>2024-05-04T06:31:49.000Z</time><ele>915.4</ele></trkpt><trkpt lat="45.828251" lon="9.186172"><time>2024-05-04T06:31:50.000Z</time><ele>915.6</ele></trkpt><trkpt lat="45.828262" lon="9.186172"><time>2024-05-04T06:31:51.000Z</time><ele>915.8</ele></trkpt><trkpt lat="45.828275" lon="9.186175"><time>2024-05-04T06:31:52.000Z</time><ele>915.8</ele></trkpt><trkpt lat="45.828288" lon="9.186179"><time>2024-05-04T06:31:53.000Z</time><ele>916</ele></trkpt><trkpt lat="45.828294" lon="9.186175"><time>2024-05-04T06:31:54.000Z</time><ele>916</ele></trkpt><trkpt lat="45.828294" lon="9.186166"><time>2024-05-04T06:31:55.000Z</time><ele>916</ele></trkpt><trkpt lat="45.828294" lon="9.186153"><time>2024-05-04T06:31:56.000Z</time><ele>916.4</ele></trkpt><trkpt lat="45.828297" lon="9.186149"><time>2024-05-04T06:31:57.000Z</time><ele>916.4</ele></trkpt><trkpt lat="45.828302" lon="9.186141"><time>2024-05-04T06:31:58.000Z</time><ele>916.6</ele></trkpt><trkpt lat="45.828305" lon="9.186129"><time>2024-05-04T06:31:59.000Z</time><ele>917</ele></trkpt><trkpt lat="45.828309" lon="9.186116"><time>2024-05-04T06:32:00.000Z</time><ele>917.2</ele></trkpt><trkpt lat="45.828314" lon="9.186107"><time>2024-05-04T06:32:01.000Z</time><ele>917.4</ele></trkpt><trkpt lat="45.828314" lon="9.186103"><time>2024-05-04T06:32:02.000Z</time><ele>917.6</ele></trkpt><trkpt lat="45.828317" lon="9.186101"><time>2024-05-04T06:32:03.000Z</time><ele>917.8</ele></trkpt><trkpt lat="45.828324" lon="9.186098"><time>2024-05-04T06:32:04.000Z</time><ele>918</ele></trkpt><trkpt lat="45.828333" lon="9.186094"><time>2024-05-04T06:32:05.000Z</time><ele>918.2</ele></trkpt><trkpt lat="45.828343" lon="9.186091"><time>2024-05-04T06:32:06.000Z</time><ele>918.4</ele></trkpt><trkpt lat="45.82835" lon="9.186091"><time>2024-05-04T06:32:07.000Z</time><ele>918.6</ele></trkpt><trkpt lat="45.828351" lon="9.186087"><time>2024-05-04T06:32:08.000Z</time><ele>918.6</ele></trkpt><trkpt lat="45.828354" lon="9.186087"><time>2024-05-04T06:32:09.000Z</time><ele>918.8</ele></trkpt><trkpt lat="45.828354" lon="9.186087"><time>2024-05-04T06:32:10.000Z</time><ele>918.8</ele></trkpt><trkpt lat="45.828359" lon="9.186078"><time>2024-05-04T06:32:11.000Z</time><ele>919</ele></trkpt><trkpt lat="45.828363" lon="9.186074"><time>2024-05-04T06:32:12.000Z</time><ele>919.2</ele></trkpt><trkpt lat="45.828372" lon="9.186072"><time>2024-05-04T06:32:13.000Z</time><ele>919.2</ele></trkpt><trkpt lat="45.828382" lon="9.186073"><time>2024-05-04T06:32:14.000Z</time><ele>919.6</ele></trkpt><trkpt lat="45.828387" lon="9.186076"><time>2024-05-04T06:32:15.000Z</time><ele>919.8</ele></trkpt><trkpt lat="45.828386" lon="9.186068"><time>2024-05-04T06:32:16.000Z</time><ele>920</ele></trkpt><trkpt lat="45.828388" lon="9.186067"><time>2024-05-04T06:32:17.000Z</time><ele>920.2</ele></trkpt><trkpt lat="45.828396" lon="9.186059"><time>2024-05-04T06:32:18.000Z</time><ele>920.6</ele></trkpt><trkpt lat="45.828396" lon="9.186059"><time>2024-05-04T06:32:19.000Z</time><ele>920.6</ele></trkpt><trkpt lat="45.828405" lon="9.186045"><time>2024-05-04T06:32:20.000Z</time><ele>921</ele></trkpt><trkpt lat="45.828408" lon="9.186045"><time>2024-05-04T06:32:21.000Z</time><ele>921</ele></trkpt><trkpt lat="45.828408" lon="9.186044"><time>2024-05-04T06:32:22.000Z</time><ele>921.2</ele></trkpt><trkpt lat="45.828412" lon="9.186039"><time>2024-05-04T06:32:23.000Z</time><ele>921.4</ele></trkpt><trkpt lat="45.828414" lon="9.186035"><time>2024-05-04T06:32:24.000Z</time><ele>921.6</ele></trkpt><trkpt lat="45.828419" lon="9.186028"><time>2024-05-04T06:32:25.000Z</time><ele>921.8</ele></trkpt><trkpt lat="45.828423" lon="9.186021"><time>2024-05-04T06:32:26.000Z</time><ele>921.8</ele></trkpt><trkpt lat="45.828426" lon="9.186015"><time>2024-05-04T06:32:27.000Z</time><ele>922.2</ele></trkpt><trkpt lat="45.828436" lon="9.186006"><time>2024-05-04T06:32:28.000Z</time><ele>922.4</ele></trkpt><trkpt lat="45.828442" lon="9.185991"><time>2024-05-04T06:32:29.000Z</time><ele>922.6</ele></trkpt><trkpt lat="45.828446" lon="9.185988"><time>2024-05-04T06:32:30.000Z</time><ele>922.6</ele></trkpt><trkpt lat="45.828448" lon="9.185979"><time>2024-05-04T06:32:31.000Z</time><ele>923</ele></trkpt><trkpt lat="45.828449" lon="9.185977"><time>2024-05-04T06:32:32.000Z</time><ele>923</ele></trkpt><trkpt lat="45.828449" lon="9.185977"><time>2024-05-04T06:32:33.000Z</time><ele>923.2</ele></trkpt><trkpt lat="45.828454" lon="9.185966"><time>2024-05-04T06:32:34.000Z</time><ele>923.2</ele></trkpt><trkpt lat="45.828456" lon="9.185951"><time>2024-05-04T06:32:35.000Z</time><ele>923.4</ele></trkpt><trkpt lat="45.828457" lon="9.185933"><time>2024-05-04T06:32:36.000Z</time><ele>923.4</ele></trkpt><trkpt lat="45.828456" lon="9.185923"><time>2024-05-04T06:32:37.000Z</time><ele>923.4</ele></trkpt><trkpt lat="45.828455" lon="9.185919"><time>2024-05-04T06:32:38.000Z</time><ele>923.6</ele></trkpt><trkpt lat="45.828456" lon="9.185914"><time>2024-05-04T06:32:39.000Z</time><ele>923.6</ele></trkpt><trkpt lat="45.828457" lon="9.185914"><time>2024-05-04T06:32:40.000Z</time><ele>923.4</ele></trkpt><trkpt lat="45.828454" lon="9.185921"><time>2024-05-04T06:32:41.000Z</time><ele>923.4</ele></trkpt><trkpt lat="45.828448" lon="9.185928"><time>2024-05-04T06:32:42.000Z</time><ele>923.4</ele></trkpt><trkpt lat="45.828442" lon="9.185928"><time>2024-05-04T06:32:43.000Z</time><ele>923.4</ele></trkpt><trkpt lat="45.82844" lon="9.185926"><time>2024-05-04T06:32:44.000Z</time><ele>923.4</ele></trkpt><trkpt lat="45.828438" lon="9.185924"><time>2024-05-04T06:32:45.000Z</time><ele>923.4</ele></trkpt><trkpt lat="45.828436" lon="9.185924"><time>2024-05-04T06:32:46.000Z</time><ele>923.4</ele></trkpt><trkpt lat="45.828443" lon="9.18593"><time>2024-05-04T06:32:47.000Z</time><ele>923.4</ele></trkpt><trkpt lat="45.828447" lon="9.185933"><time>2024-05-04T06:32:48.000Z</time><ele>923.4</ele></trkpt><trkpt lat="45.828448" lon="9.185932"><time>2024-05-04T06:32:49.000Z</time><ele>923.4</ele></trkpt><trkpt lat="45.828449" lon="9.185931"><time>2024-05-04T06:32:50.000Z</time><ele>923.4</ele></trkpt><trkpt lat="45.828449" lon="9.185933"><time>2024-05-04T06:32:51.000Z</time><ele>923.4</ele></trkpt><trkpt lat="45.82845" lon="9.185935"><time>2024-05-04T06:32:52.000Z</time><ele>923.4</ele></trkpt><trkpt lat="45.828455" lon="9.185934"><time>2024-05-04T06:32:53.000Z</time><ele>923.4</ele></trkpt><trkpt lat="45.828455" lon="9.185933"><time>2024-05-04T06:32:54.000Z</time><ele>923.4</ele></trkpt><trkpt lat="45.828455" lon="9.185933"><time>2024-05-04T06:32:55.000Z</time><ele>923.4</ele></trkpt><trkpt lat="45.828455" lon="9.18593"><time>2024-05-04T06:32:56.000Z</time><ele>923.4</ele></trkpt><trkpt lat="45.828462" lon="9.185926"><time>2024-05-04T06:32:57.000Z</time><ele>923.4</ele></trkpt><trkpt lat="45.828466" lon="9.185918"><time>2024-05-04T06:32:58.000Z</time><ele>923.4</ele></trkpt><trkpt lat="45.828472" lon="9.18591"><time>2024-05-04T06:32:59.000Z</time><ele>923.4</ele></trkpt><trkpt lat="45.82848" lon="9.185903"><time>2024-05-04T06:33:00.000Z</time><ele>923.4</ele></trkpt><trkpt lat="45.828486" lon="9.1859"><time>2024-05-04T06:33:01.000Z</time><ele>923.6</ele></trkpt><trkpt lat="45.828491" lon="9.185895"><time>2024-05-04T06:33:02.000Z</time><ele>923.6</ele></trkpt><trkpt lat="45.828495" lon="9.185895"><time>2024-05-04T06:33:03.000Z</time><ele>923.8</ele></trkpt><trkpt lat="45.828502" lon="9.185895"><time>2024-05-04T06:33:04.000Z</time><ele>924</ele></trkpt><trkpt lat="45.828506" lon="9.185889"><time>2024-05-04T06:33:05.000Z</time><ele>924.2</ele></trkpt><trkpt lat="45.828509" lon="9.185887"><time>2024-05-04T06:33:06.000Z</time><ele>924.4</ele></trkpt><trkpt lat="45.828517" lon="9.185895"><time>2024-05-04T06:33:07.000Z</time><ele>924.6</ele></trkpt><trkpt lat="45.828525" lon="9.185905"><time>2024-05-04T06:33:08.000Z</time><ele>924.6</ele></trkpt><trkpt lat="45.828529" lon="9.185909"><time>2024-05-04T06:33:09.000Z</time><ele>924.8</ele></trkpt><trkpt lat="45.828531" lon="9.185912"><time>2024-05-04T06:33:10.000Z</time><ele>925</ele></trkpt><trkpt lat="45.828535" lon="9.185913"><time>2024-05-04T06:33:11.000Z</time><ele>925.2</ele></trkpt><trkpt lat="45.828538" lon="9.185905"><time>2024-05-04T06:33:12.000Z</time><ele>925.4</ele></trkpt><trkpt lat="45.828541" lon="9.185897"><time>2024-05-04T06:33:13.000Z</time><ele>925.6</ele></trkpt><trkpt lat="45.828546" lon="9.185895"><time>2024-05-04T06:33:14.000Z</time><ele>925.8</ele></trkpt><trkpt lat="45.828546" lon="9.185891"><time>2024-05-04T06:33:15.000Z</time><ele>926</ele></trkpt><trkpt lat="45.828547" lon="9.185888"><time>2024-05-04T06:33:16.000Z</time><ele>926.2</ele></trkpt><trkpt lat="45.828544" lon="9.185885"><time>2024-05-04T06:33:17.000Z</time><ele>926.4</ele></trkpt><trkpt lat="45.828546" lon="9.185886"><time>2024-05-04T06:33:18.000Z</time><ele>926.4</ele></trkpt><trkpt lat="45.828544" lon="9.185887"><time>2024-05-04T06:33:19.000Z</time><ele>926.6</ele></trkpt><trkpt lat="45.82854" lon="9.185888"><time>2024-05-04T06:33:20.000Z</time><ele>926.6</ele></trkpt><trkpt lat="45.828546" lon="9.18588"><time>2024-05-04T06:33:21.000Z</time><ele>926.8</ele></trkpt><trkpt lat="45.828553" lon="9.18587"><time>2024-05-04T06:33:22.000Z</time><ele>926.8</ele></trkpt><trkpt lat="45.828558" lon="9.185862"><time>2024-05-04T06:33:23.000Z</time><ele>927</ele></trkpt><trkpt lat="45.828562" lon="9.185854"><time>2024-05-04T06:33:24.000Z</time><ele>927.2</ele></trkpt><trkpt lat="45.828569" lon="9.185849"><time>2024-05-04T06:33:25.000Z</time><ele>927.4</ele></trkpt><trkpt lat="45.828572" lon="9.185844"><time>2024-05-04T06:33:26.000Z</time><ele>927.6</ele></trkpt><trkpt lat="45.828582" lon="9.185838"><time>2024-05-04T06:33:27.000Z</time><ele>927.8</ele></trkpt><trkpt lat="45.828593" lon="9.185839"><time>2024-05-04T06:33:28.000Z</time><ele>928</ele></trkpt><trkpt lat="45.828604" lon="9.185841"><time>2024-05-04T06:33:29.000Z</time><ele>928</ele></trkpt><trkpt lat="45.828614" lon="9.185838"><time>2024-05-04T06:33:30.000Z</time><ele>928.2</ele></trkpt><trkpt lat="45.828624" lon="9.185833"><time>2024-05-04T06:33:31.000Z</time><ele>928.4</ele></trkpt><trkpt lat="45.828636" lon="9.185829"><time>2024-05-04T06:33:32.000Z</time><ele>928.6</ele></trkpt><trkpt lat="45.828647" lon="9.185827"><time>2024-05-04T06:33:33.000Z</time><ele>928.8</ele></trkpt><trkpt lat="45.828655" lon="9.185829"><time>2024-05-04T06:33:34.000Z</time><ele>929</ele></trkpt><trkpt lat="45.828662" lon="9.185829"><time>2024-05-04T06:33:35.000Z</time><ele>929.2</ele></trkpt><trkpt lat="45.828671" lon="9.185828"><time>2024-05-04T06:33:36.000Z</time><ele>929.4</ele></trkpt><trkpt lat="45.828679" lon="9.185821"><time>2024-05-04T06:33:37.000Z</time><ele>929.6</ele></trkpt><trkpt lat="45.828679" lon="9.185819"><time>2024-05-04T06:33:38.000Z</time><ele>929.6</ele></trkpt><trkpt lat="45.828679" lon="9.185813"><time>2024-05-04T06:33:39.000Z</time><ele>930</ele></trkpt><trkpt lat="45.828678" lon="9.18581"><time>2024-05-04T06:33:40.000Z</time><ele>930.2</ele></trkpt><trkpt lat="45.828684" lon="9.185806"><time>2024-05-04T06:33:41.000Z</time><ele>930.6</ele></trkpt><trkpt lat="45.828687" lon="9.185805"><time>2024-05-04T06:33:42.000Z</time><ele>930.6</ele></trkpt><trkpt lat="45.8287" lon="9.18579"><time>2024-05-04T06:33:43.000Z</time><ele>931</ele></trkpt><trkpt lat="45.828714" lon="9.18578"><time>2024-05-04T06:33:44.000Z</time><ele>931.2</ele></trkpt><trkpt lat="45.828731" lon="9.18577"><time>2024-05-04T06:33:45.000Z</time><ele>931.4</ele></trkpt><trkpt lat="45.828741" lon="9.185766"><time>2024-05-04T06:33:46.000Z</time><ele>931.6</ele></trkpt><trkpt lat="45.828745" lon="9.185768"><time>2024-05-04T06:33:47.000Z</time><ele>931.6</ele></trkpt><trkpt lat="45.828751" lon="9.185774"><time>2024-05-04T06:33:48.000Z</time><ele>931.8</ele></trkpt><trkpt lat="45.828753" lon="9.185776"><time>2024-05-04T06:33:49.000Z</time><ele>932</ele></trkpt><trkpt lat="45.828754" lon="9.185778"><time>2024-05-04T06:33:50.000Z</time><ele>932.2</ele></trkpt><trkpt lat="45.828756" lon="9.185782"><time>2024-05-04T06:33:51.000Z</time><ele>932.6</ele></trkpt><trkpt lat="45.828755" lon="9.185786"><time>2024-05-04T06:33:52.000Z</time><ele>932.6</ele></trkpt><trkpt lat="45.828758" lon="9.185789"><time>2024-05-04T06:33:53.000Z</time><ele>932.8</ele></trkpt><trkpt lat="45.828764" lon="9.185788"><time>2024-05-04T06:33:54.000Z</time><ele>933</ele></trkpt><trkpt lat="45.828772" lon="9.185789"><time>2024-05-04T06:33:55.000Z</time><ele>933</ele></trkpt><trkpt lat="45.828775" lon="9.185789"><time>2024-05-04T06:33:56.000Z</time><ele>933.2</ele></trkpt><trkpt lat="45.828782" lon="9.185792"><time>2024-05-04T06:33:57.000Z</time><ele>933.6</ele></trkpt><trkpt lat="45.82879" lon="9.185793"><time>2024-05-04T06:33:58.000Z</time><ele>933.6</ele></trkpt><trkpt lat="45.828796" lon="9.185791"><time>2024-05-04T06:33:59.000Z</time><ele>933.8</ele></trkpt><trkpt lat="45.828803" lon="9.185794"><time>2024-05-04T06:34:00.000Z</time><ele>934</ele></trkpt><trkpt lat="45.828807" lon="9.185793"><time>2024-05-04T06:34:01.000Z</time><ele>934.4</ele></trkpt><trkpt lat="45.828811" lon="9.185792"><time>2024-05-04T06:34:02.000Z</time><ele>934.8</ele></trkpt><trkpt lat="45.828817" lon="9.185793"><time>2024-05-04T06:34:03.000Z</time><ele>935</ele></trkpt><trkpt lat="45.828826" lon="9.185786"><time>2024-05-04T06:34:04.000Z</time><ele>935.2</ele></trkpt><trkpt lat="45.828834" lon="9.185778"><time>2024-05-04T06:34:05.000Z</time><ele>935.4</ele></trkpt><trkpt lat="45.828841" lon="9.185769"><time>2024-05-04T06:34:06.000Z</time><ele>935.6</ele></trkpt><trkpt lat="45.828843" lon="9.185761"><time>2024-05-04T06:34:07.000Z</time><ele>935.6</ele></trkpt><trkpt lat="45.828845" lon="9.185757"><time>2024-05-04T06:34:08.000Z</time><ele>936</ele></trkpt><trkpt lat="45.82886" lon="9.185752"><time>2024-05-04T06:34:09.000Z</time><ele>936.2</ele></trkpt><trkpt lat="45.828863" lon="9.185754"><time>2024-05-04T06:34:10.000Z</time><ele>936.4</ele></trkpt><trkpt lat="45.828869" lon="9.185758"><time>2024-05-04T06:34:11.000Z</time><ele>936.4</ele></trkpt><trkpt lat="45.82888" lon="9.185751"><time>2024-05-04T06:34:12.000Z</time><ele>936.6</ele></trkpt><trkpt lat="45.828888" lon="9.185747"><time>2024-05-04T06:34:13.000Z</time><ele>937</ele></trkpt><trkpt lat="45.828897" lon="9.185736"><time>2024-05-04T06:34:14.000Z</time><ele>937.2</ele></trkpt><trkpt lat="45.8289" lon="9.185736"><time>2024-05-04T06:34:15.000Z</time><ele>937.4</ele></trkpt><trkpt lat="45.828909" lon="9.185736"><time>2024-05-04T06:34:16.000Z</time><ele>937.6</ele></trkpt><trkpt lat="45.828921" lon="9.185731"><time>2024-05-04T06:34:17.000Z</time><ele>937.8</ele></trkpt><trkpt lat="45.828937" lon="9.185729"><time>2024-05-04T06:34:18.000Z</time><ele>938</ele></trkpt><trkpt lat="45.828952" lon="9.185726"><time>2024-05-04T06:34:19.000Z</time><ele>938.2</ele></trkpt><trkpt lat="45.828963" lon="9.185726"><time>2024-05-04T06:34:20.000Z</time><ele>938.4</ele></trkpt><trkpt lat="45.828968" lon="9.185723"><time>2024-05-04T06:34:21.000Z</time><ele>938.6</ele></trkpt><trkpt lat="45.828972" lon="9.185722"><time>2024-05-04T06:34:22.000Z</time><ele>938.8</ele></trkpt><trkpt lat="45.82898" lon="9.185716"><time>2024-05-04T06:34:23.000Z</time><ele>939</ele></trkpt><trkpt lat="45.828987" lon="9.185711"><time>2024-05-04T06:34:24.000Z</time><ele>939.2</ele></trkpt><trkpt lat="45.828999" lon="9.185716"><time>2024-05-04T06:34:25.000Z</time><ele>939.4</ele></trkpt><trkpt lat="45.829008" lon="9.185718"><time>2024-05-04T06:34:26.000Z</time><ele>939.6</ele></trkpt><trkpt lat="45.829019" lon="9.185712"><time>2024-05-04T06:34:27.000Z</time><ele>939.8</ele></trkpt><trkpt lat="45.829025" lon="9.185713"><time>2024-05-04T06:34:28.000Z</time><ele>940.2</ele></trkpt><trkpt lat="45.829039" lon="9.185708"><time>2024-05-04T06:34:29.000Z</time><ele>940.2</ele></trkpt><trkpt lat="45.829049" lon="9.185702"><time>2024-05-04T06:34:30.000Z</time><ele>940.4</ele></trkpt><trkpt lat="45.829057" lon="9.185692"><time>2024-05-04T06:34:31.000Z</time><ele>940.6</ele></trkpt><trkpt lat="45.829066" lon="9.185692"><time>2024-05-04T06:34:32.000Z</time><ele>940.8</ele></trkpt><trkpt lat="45.829077" lon="9.185691"><time>2024-05-04T06:34:33.000Z</time><ele>941</ele></trkpt><trkpt lat="45.82908" lon="9.185693"><time>2024-05-04T06:34:34.000Z</time><ele>941.2</ele></trkpt><trkpt lat="45.829088" lon="9.185698"><time>2024-05-04T06:34:35.000Z</time><ele>941.4</ele></trkpt><trkpt lat="45.829093" lon="9.185693"><time>2024-05-04T06:34:36.000Z</time><ele>941.6</ele></trkpt><trkpt lat="45.829103" lon="9.185689"><time>2024-05-04T06:34:37.000Z</time><ele>941.8</ele></trkpt><trkpt lat="45.829111" lon="9.185675"><time>2024-05-04T06:34:38.000Z</time><ele>942</ele></trkpt><trkpt lat="45.829122" lon="9.185667"><time>2024-05-04T06:34:39.000Z</time><ele>942.4</ele></trkpt><trkpt lat="45.829129" lon="9.185656"><time>2024-05-04T06:34:40.000Z</time><ele>942.4</ele></trkpt><trkpt lat="45.829138" lon="9.185642"><time>2024-05-04T06:34:41.000Z</time><ele>942.6</ele></trkpt><trkpt lat="45.829144" lon="9.185637"><time>2024-05-04T06:34:42.000Z</time><ele>942.8</ele></trkpt><trkpt lat="45.829151" lon="9.185646"><time>2024-05-04T06:34:43.000Z</time><ele>943</ele></trkpt><trkpt lat="45.829157" lon="9.18565"><time>2024-05-04T06:34:44.000Z</time><ele>943.2</ele></trkpt><trkpt lat="45.82917" lon="9.185669"><time>2024-05-04T06:34:45.000Z</time><ele>943.4</ele></trkpt><trkpt lat="45.82918" lon="9.185685"><time>2024-05-04T06:34:46.000Z</time><ele>943.8</ele></trkpt><trkpt lat="45.829185" lon="9.185694"><time>2024-05-04T06:34:47.000Z</time><ele>944</ele></trkpt><trkpt lat="45.82919" lon="9.185704"><time>2024-05-04T06:34:48.000Z</time><ele>944.2</ele></trkpt><trkpt lat="45.829193" lon="9.185703"><time>2024-05-04T06:34:49.000Z</time><ele>944.2</ele></trkpt><trkpt lat="45.8292" lon="9.185707"><time>2024-05-04T06:34:50.000Z</time><ele>944.6</ele></trkpt><trkpt lat="45.829206" lon="9.185705"><time>2024-05-04T06:34:51.000Z</time><ele>944.8</ele></trkpt><trkpt lat="45.829207" lon="9.185707"><time>2024-05-04T06:34:52.000Z</time><ele>945</ele></trkpt><trkpt lat="45.829209" lon="9.185708"><time>2024-05-04T06:34:53.000Z</time><ele>945</ele></trkpt><trkpt lat="45.829206" lon="9.18571"><time>2024-05-04T06:34:54.000Z</time><ele>945.2</ele></trkpt><trkpt lat="45.829201" lon="9.185713"><time>2024-05-04T06:34:55.000Z</time><ele>945.4</ele></trkpt><trkpt lat="45.8292" lon="9.185712"><time>2024-05-04T06:34:56.000Z</time><ele>945.8</ele></trkpt><trkpt lat="45.829208" lon="9.185714"><time>2024-05-04T06:34:57.000Z</time><ele>946.2</ele></trkpt><trkpt lat="45.829216" lon="9.185726"><time>2024-05-04T06:34:58.000Z</time><ele>946.4</ele></trkpt><trkpt lat="45.829222" lon="9.185738"><time>2024-05-04T06:34:59.000Z</time><ele>946.4</ele></trkpt><trkpt lat="45.829227" lon="9.185744"><time>2024-05-04T06:35:00.000Z</time><ele>946.6</ele></trkpt><trkpt lat="45.829232" lon="9.185751"><time>2024-05-04T06:35:01.000Z</time><ele>946.8</ele></trkpt><trkpt lat="45.829238" lon="9.18576"><time>2024-05-04T06:35:02.000Z</time><ele>946.8</ele></trkpt><trkpt lat="45.829247" lon="9.185759"><time>2024-05-04T06:35:03.000Z</time><ele>947</ele></trkpt><trkpt lat="45.829259" lon="9.185753"><time>2024-05-04T06:35:04.000Z</time><ele>947.2</ele></trkpt><trkpt lat="45.829271" lon="9.185753"><time>2024-05-04T06:35:05.000Z</time><ele>947.4</ele></trkpt><trkpt lat="45.829281" lon="9.185755"><time>2024-05-04T06:35:06.000Z</time><ele>947.4</ele></trkpt><trkpt lat="45.829289" lon="9.185756"><time>2024-05-04T06:35:07.000Z</time><ele>947.6</ele></trkpt><trkpt lat="45.829294" lon="9.185761"><time>2024-05-04T06:35:08.000Z</time><ele>947.8</ele></trkpt><trkpt lat="45.829294" lon="9.185761"><time>2024-05-04T06:35:09.000Z</time><ele>948</ele></trkpt><trkpt lat="45.829296" lon="9.185761"><time>2024-05-04T06:35:10.000Z</time><ele>948.2</ele></trkpt><trkpt lat="45.829298" lon="9.18576"><time>2024-05-04T06:35:11.000Z</time><ele>948.4</ele></trkpt><trkpt lat="45.829301" lon="9.185763"><time>2024-05-04T06:35:12.000Z</time><ele>948.4</ele></trkpt><trkpt lat="45.829307" lon="9.185765"><time>2024-05-04T06:35:13.000Z</time><ele>948.6</ele></trkpt><trkpt lat="45.82931" lon="9.185759"><time>2024-05-04T06:35:14.000Z</time><ele>948.6</ele></trkpt><trkpt lat="45.829317" lon="9.185762"><time>2024-05-04T06:35:15.000Z</time><ele>948.6</ele></trkpt><trkpt lat="45.829317" lon="9.185764"><time>2024-05-04T06:35:16.000Z</time><ele>948.8</ele></trkpt><trkpt lat="45.829316" lon="9.185776"><time>2024-05-04T06:35:17.000Z</time><ele>948.8</ele></trkpt><trkpt lat="45.829319" lon="9.185773"><time>2024-05-04T06:35:18.000Z</time><ele>948.8</ele></trkpt><trkpt lat="45.829325" lon="9.185775"><time>2024-05-04T06:35:19.000Z</time><ele>949</ele></trkpt><trkpt lat="45.829335" lon="9.18578"><time>2024-05-04T06:35:20.000Z</time><ele>948.8</ele></trkpt><trkpt lat="45.829343" lon="9.18579"><time>2024-05-04T06:35:21.000Z</time><ele>949</ele></trkpt><trkpt lat="45.829357" lon="9.185795"><time>2024-05-04T06:35:22.000Z</time><ele>949</ele></trkpt><trkpt lat="45.829368" lon="9.185802"><time>2024-05-04T06:35:23.000Z</time><ele>949</ele></trkpt><trkpt lat="45.829379" lon="9.185804"><time>2024-05-04T06:35:24.000Z</time><ele>949</ele></trkpt><trkpt lat="45.829385" lon="9.185804"><time>2024-05-04T06:35:25.000Z</time><ele>949.2</ele></trkpt><trkpt lat="45.829393" lon="9.185804"><time>2024-05-04T06:35:26.000Z</time><ele>949.4</ele></trkpt><trkpt lat="45.829404" lon="9.185803"><time>2024-05-04T06:35:27.000Z</time><ele>949.6</ele></trkpt><trkpt lat="45.829411" lon="9.185804"><time>2024-05-04T06:35:28.000Z</time><ele>949.8</ele></trkpt><trkpt lat="45.829415" lon="9.185816"><time>2024-05-04T06:35:29.000Z</time><ele>950</ele></trkpt><trkpt lat="45.829423" lon="9.185824"><time>2024-05-04T06:35:30.000Z</time><ele>950.2</ele></trkpt><trkpt lat="45.82943" lon="9.185831"><time>2024-05-04T06:35:31.000Z</time><ele>950.4</ele></trkpt><trkpt lat="45.829443" lon="9.185838"><time>2024-05-04T06:35:32.000Z</time><ele>950.6</ele></trkpt><trkpt lat="45.829453" lon="9.185843"><time>2024-05-04T06:35:33.000Z</time><ele>951</ele></trkpt><trkpt lat="45.829465" lon="9.18585"><time>2024-05-04T06:35:34.000Z</time><ele>951.2</ele></trkpt><trkpt lat="45.829476" lon="9.185859"><time>2024-05-04T06:35:35.000Z</time><ele>951.4</ele></trkpt><trkpt lat="45.829491" lon="9.185861"><time>2024-05-04T06:35:36.000Z</time><ele>951.6</ele></trkpt><trkpt lat="45.829504" lon="9.185863"><time>2024-05-04T06:35:37.000Z</time><ele>951.8</ele></trkpt><trkpt lat="45.829512" lon="9.185864"><time>2024-05-04T06:35:38.000Z</time><ele>952</ele></trkpt><trkpt lat="45.82952" lon="9.185872"><time>2024-05-04T06:35:39.000Z</time><ele>952.2</ele></trkpt><trkpt lat="45.829525" lon="9.18588"><time>2024-05-04T06:35:40.000Z</time><ele>952.4</ele></trkpt><trkpt lat="45.829533" lon="9.185888"><time>2024-05-04T06:35:41.000Z</time><ele>952.6</ele></trkpt><trkpt lat="45.829537" lon="9.185903"><time>2024-05-04T06:35:42.000Z</time><ele>952.8</ele></trkpt><trkpt lat="45.829542" lon="9.185914"><time>2024-05-04T06:35:43.000Z</time><ele>952.8</ele></trkpt><trkpt lat="45.82955" lon="9.185914"><time>2024-05-04T06:35:44.000Z</time><ele>953.2</ele></trkpt><trkpt lat="45.829556" lon="9.185916"><time>2024-05-04T06:35:45.000Z</time><ele>953.4</ele></trkpt><trkpt lat="45.82956" lon="9.185916"><time>2024-05-04T06:35:46.000Z</time><ele>953.6</ele></trkpt><trkpt lat="45.829565" lon="9.185926"><time>2024-05-04T06:35:47.000Z</time><ele>953.8</ele></trkpt><trkpt lat="45.829568" lon="9.185927"><time>2024-05-04T06:35:48.000Z</time><ele>954</ele></trkpt><trkpt lat="45.829575" lon="9.185933"><time>2024-05-04T06:35:49.000Z</time><ele>954.2</ele></trkpt><trkpt lat="45.829576" lon="9.185942"><time>2024-05-04T06:35:50.000Z</time><ele>954.4</ele></trkpt><trkpt lat="45.829581" lon="9.185955"><time>2024-05-04T06:35:51.000Z</time><ele>954.4</ele></trkpt><trkpt lat="45.829585" lon="9.185969"><time>2024-05-04T06:35:52.000Z</time><ele>954.6</ele></trkpt><trkpt lat="45.829588" lon="9.185973"><time>2024-05-04T06:35:53.000Z</time><ele>954.6</ele></trkpt><trkpt lat="45.829589" lon="9.185974"><time>2024-05-04T06:35:54.000Z</time><ele>954.8</ele></trkpt><trkpt lat="45.829593" lon="9.185973"><time>2024-05-04T06:35:55.000Z</time><ele>955</ele></trkpt><trkpt lat="45.829597" lon="9.185982"><time>2024-05-04T06:35:56.000Z</time><ele>955.2</ele></trkpt><trkpt lat="45.829606" lon="9.18599"><time>2024-05-04T06:35:57.000Z</time><ele>955.2</ele></trkpt><trkpt lat="45.829613" lon="9.186003"><time>2024-05-04T06:35:58.000Z</time><ele>955.2</ele></trkpt><trkpt lat="45.829614" lon="9.186004"><time>2024-05-04T06:35:59.000Z</time><ele>955.2</ele></trkpt><trkpt lat="45.829615" lon="9.186004"><time>2024-05-04T06:36:00.000Z</time><ele>955.2</ele></trkpt><trkpt lat="45.829618" lon="9.186017"><time>2024-05-04T06:36:01.000Z</time><ele>955.2</ele></trkpt><trkpt lat="45.829618" lon="9.186022"><time>2024-05-04T06:36:02.000Z</time><ele>955.2</ele></trkpt><trkpt lat="45.829621" lon="9.186028"><time>2024-05-04T06:36:03.000Z</time><ele>955.4</ele></trkpt><trkpt lat="45.829626" lon="9.186038"><time>2024-05-04T06:36:04.000Z</time><ele>955.4</ele></trkpt><trkpt lat="45.829628" lon="9.186039"><time>2024-05-04T06:36:05.000Z</time><ele>955.6</ele></trkpt><trkpt lat="45.82963" lon="9.186039"><time>2024-05-04T06:36:06.000Z</time><ele>955.6</ele></trkpt><trkpt lat="45.829631" lon="9.186038"><time>2024-05-04T06:36:07.000Z</time><ele>955.6</ele></trkpt><trkpt lat="45.829632" lon="9.186039"><time>2024-05-04T06:36:08.000Z</time><ele>955.6</ele></trkpt><trkpt lat="45.829633" lon="9.18604"><time>2024-05-04T06:36:09.000Z</time><ele>955.6</ele></trkpt><trkpt lat="45.829635" lon="9.18605"><time>2024-05-04T06:36:10.000Z</time><ele>955.8</ele></trkpt><trkpt lat="45.829635" lon="9.186055"><time>2024-05-04T06:36:11.000Z</time><ele>956</ele></trkpt><trkpt lat="45.829634" lon="9.186064"><time>2024-05-04T06:36:12.000Z</time><ele>956.2</ele></trkpt><trkpt lat="45.829636" lon="9.186078"><time>2024-05-04T06:36:13.000Z</time><ele>956.4</ele></trkpt><trkpt lat="45.829633" lon="9.186082"><time>2024-05-04T06:36:14.000Z</time><ele>956.4</ele></trkpt><trkpt lat="45.829629" lon="9.186086"><time>2024-05-04T06:36:15.000Z</time><ele>956.6</ele></trkpt><trkpt lat="45.829619" lon="9.186093"><time>2024-05-04T06:36:16.000Z</time><ele>956.6</ele></trkpt><trkpt lat="45.829611" lon="9.1861"><time>2024-05-04T06:36:17.000Z</time><ele>956.8</ele></trkpt><trkpt lat="45.829607" lon="9.186104"><time>2024-05-04T06:36:18.000Z</time><ele>956.8</ele></trkpt><trkpt lat="45.82961" lon="9.186114"><time>2024-05-04T06:36:19.000Z</time><ele>956.8</ele></trkpt><trkpt lat="45.829622" lon="9.186114"><time>2024-05-04T06:36:20.000Z</time><ele>956.8</ele></trkpt><trkpt lat="45.829629" lon="9.186114"><time>2024-05-04T06:36:21.000Z</time><ele>957</ele></trkpt><trkpt lat="45.829631" lon="9.186116"><time>2024-05-04T06:36:22.000Z</time><ele>957</ele></trkpt><trkpt lat="45.829638" lon="9.186111"><time>2024-05-04T06:36:23.000Z</time><ele>957</ele></trkpt><trkpt lat="45.82964" lon="9.186113"><time>2024-05-04T06:36:24.000Z</time><ele>957.2</ele></trkpt><trkpt lat="45.829643" lon="9.186116"><time>2024-05-04T06:36:25.000Z</time><ele>957.4</ele></trkpt><trkpt lat="45.829655" lon="9.18611"><time>2024-05-04T06:36:26.000Z</time><ele>957.6</ele></trkpt><trkpt lat="45.829664" lon="9.186112"><time>2024-05-04T06:36:27.000Z</time><ele>957.6</ele></trkpt><trkpt lat="45.829666" lon="9.186117"><time>2024-05-04T06:36:28.000Z</time><ele>957.8</ele></trkpt><trkpt lat="45.829669" lon="9.18612"><time>2024-05-04T06:36:29.000Z</time><ele>958</ele></trkpt><trkpt lat="45.829676" lon="9.186123"><time>2024-05-04T06:36:30.000Z</time><ele>958.4</ele></trkpt><trkpt lat="45.829679" lon="9.186124"><time>2024-05-04T06:36:31.000Z</time><ele>958.6</ele></trkpt><trkpt lat="45.82968" lon="9.186129"><time>2024-05-04T06:36:32.000Z</time><ele>959</ele></trkpt><trkpt lat="45.829691" lon="9.186139"><time>2024-05-04T06:36:33.000Z</time><ele>959.2</ele></trkpt><trkpt lat="45.829705" lon="9.186141"><time>2024-05-04T06:36:34.000Z</time><ele>959.4</ele></trkpt><trkpt lat="45.829716" lon="9.186138"><time>2024-05-04T06:36:35.000Z</time><ele>959.6</ele></trkpt><trkpt lat="45.829724" lon="9.186145"><time>2024-05-04T06:36:36.000Z</time><ele>959.8</ele></trkpt><trkpt lat="45.829735" lon="9.186152"><time>2024-05-04T06:36:37.000Z</time><ele>960.2</ele></trkpt><trkpt lat="45.829744" lon="9.186154"><time>2024-05-04T06:36:38.000Z</time><ele>960.4</ele></trkpt><trkpt lat="45.82976" lon="9.186154"><time>2024-05-04T06:36:39.000Z</time><ele>960.6</ele></trkpt><trkpt lat="45.829764" lon="9.186155"><time>2024-05-04T06:36:40.000Z</time><ele>960.8</ele></trkpt><trkpt lat="45.829773" lon="9.18616"><time>2024-05-04T06:36:41.000Z</time><ele>961</ele></trkpt><trkpt lat="45.829774" lon="9.186165"><time>2024-05-04T06:36:42.000Z</time><ele>961.4</ele></trkpt><trkpt lat="45.829778" lon="9.186171"><time>2024-05-04T06:36:43.000Z</time><ele>961.6</ele></trkpt><trkpt lat="45.82978" lon="9.186171"><time>2024-05-04T06:36:44.000Z</time><ele>961.8</ele></trkpt><trkpt lat="45.829781" lon="9.186169"><time>2024-05-04T06:36:45.000Z</time><ele>962</ele></trkpt><trkpt lat="45.829781" lon="9.186171"><time>2024-05-04T06:36:46.000Z</time><ele>962</ele></trkpt><trkpt lat="45.829782" lon="9.186174"><time>2024-05-04T06:36:47.000Z</time><ele>962</ele></trkpt><trkpt lat="45.82978" lon="9.186177"><time>2024-05-04T06:36:48.000Z</time><ele>962.2</ele></trkpt><trkpt lat="45.82978" lon="9.186179"><time>2024-05-04T06:36:49.000Z</time><ele>962.2</ele></trkpt><trkpt lat="45.829779" lon="9.186181"><time>2024-05-04T06:36:50.000Z</time><ele>962.2</ele></trkpt><trkpt lat="45.82978" lon="9.18618"><time>2024-05-04T06:36:51.000Z</time><ele>962.2</ele></trkpt><trkpt lat="45.829781" lon="9.186181"><time>2024-05-04T06:36:52.000Z</time><ele>962.2</ele></trkpt><trkpt lat="45.82978" lon="9.186181"><time>2024-05-04T06:36:53.000Z</time><ele>962.2</ele></trkpt><trkpt lat="45.829779" lon="9.186181"><time>2024-05-04T06:36:54.000Z</time><ele>962.2</ele></trkpt><trkpt lat="45.82978" lon="9.186193"><time>2024-05-04T06:36:55.000Z</time><ele>962.2</ele></trkpt><trkpt lat="45.829788" lon="9.186196"><time>2024-05-04T06:36:56.000Z</time><ele>962.2</ele></trkpt><trkpt lat="45.829789" lon="9.186195"><time>2024-05-04T06:36:57.000Z</time><ele>962.2</ele></trkpt><trkpt lat="45.829789" lon="9.186203"><time>2024-05-04T06:36:58.000Z</time><ele>962.2</ele></trkpt><trkpt lat="45.829789" lon="9.1862"><time>2024-05-04T06:36:59.000Z</time><ele>962.2</ele></trkpt><trkpt lat="45.829793" lon="9.186208"><time>2024-05-04T06:37:00.000Z</time><ele>962.2</ele></trkpt><trkpt lat="45.829796" lon="9.18622"><time>2024-05-04T06:37:01.000Z</time><ele>962.4</ele></trkpt><trkpt lat="45.829795" lon="9.186219"><time>2024-05-04T06:37:02.000Z</time><ele>962.4</ele></trkpt><trkpt lat="45.829795" lon="9.186217"><time>2024-05-04T06:37:03.000Z</time><ele>962.4</ele></trkpt><trkpt lat="45.829795" lon="9.186217"><time>2024-05-04T06:37:04.000Z</time><ele>962.6</ele></trkpt><trkpt lat="45.829795" lon="9.186217"><time>2024-05-04T06:37:05.000Z</time><ele>962.6</ele></trkpt><trkpt lat="45.829795" lon="9.186217"><time>2024-05-04T06:37:06.000Z</time><ele>962.6</ele></trkpt><trkpt lat="45.829795" lon="9.186217"><time>2024-05-04T06:37:07.000Z</time><ele>962.6</ele></trkpt><trkpt lat="45.829795" lon="9.186217"><time>2024-05-04T06:37:08.000Z</time><ele>962.6</ele></trkpt><trkpt lat="45.829795" lon="9.186217"><time>2024-05-04T06:37:09.000Z</time><ele>962.6</ele></trkpt><trkpt lat="45.829795" lon="9.186217"><time>2024-05-04T06:37:10.000Z</time><ele>962.8</ele></trkpt><trkpt lat="45.829795" lon="9.186217"><time>2024-05-04T06:37:11.000Z</time><ele>962.8</ele></trkpt><trkpt lat="45.829795" lon="9.186217"><time>2024-05-04T06:37:12.000Z</time><ele>962.8</ele></trkpt><trkpt lat="45.829795" lon="9.186217"><time>2024-05-04T06:37:13.000Z</time><ele>963</ele></trkpt><trkpt lat="45.829795" lon="9.186217"><time>2024-05-04T06:37:14.000Z</time><ele>963.2</ele></trkpt><trkpt lat="45.829795" lon="9.186217"><time>2024-05-04T06:37:15.000Z</time><ele>963.4</ele></trkpt><trkpt lat="45.829795" lon="9.186217"><time>2024-05-04T06:37:16.000Z</time><ele>963.4</ele></trkpt><trkpt lat="45.829795" lon="9.186217"><time>2024-05-04T06:37:17.000Z</time><ele>963.6</ele></trkpt><trkpt lat="45.829795" lon="9.186217"><time>2024-05-04T06:37:18.000Z</time><ele>963.6</ele></trkpt><trkpt lat="45.829795" lon="9.186217"><time>2024-05-04T06:37:19.000Z</time><ele>963.8</ele></trkpt><trkpt lat="45.829795" lon="9.186217"><time>2024-05-04T06:37:20.000Z</time><ele>963.8</ele></trkpt><trkpt lat="45.829795" lon="9.186218"><time>2024-05-04T06:37:21.000Z</time><ele>964</ele></trkpt><trkpt lat="45.829796" lon="9.186218"><time>2024-05-04T06:37:22.000Z</time><ele>964.2</ele></trkpt><trkpt lat="45.829798" lon="9.186218"><time>2024-05-04T06:37:23.000Z</time><ele>964.4</ele></trkpt><trkpt lat="45.829807" lon="9.186218"><time>2024-05-04T06:37:24.000Z</time><ele>964.6</ele></trkpt><trkpt lat="45.829832" lon="9.186219"><time>2024-05-04T06:37:25.000Z</time><ele>964.6</ele></trkpt><trkpt lat="45.829851" lon="9.186224"><time>2024-05-04T06:37:26.000Z</time><ele>964.8</ele></trkpt><trkpt lat="45.829871" lon="9.186232"><time>2024-05-04T06:37:27.000Z</time><ele>964.8</ele></trkpt><trkpt lat="45.829887" lon="9.186237"><time>2024-05-04T06:37:28.000Z</time><ele>965.2</ele></trkpt><trkpt lat="45.8299" lon="9.186238"><time>2024-05-04T06:37:29.000Z</time><ele>965.4</ele></trkpt><trkpt lat="45.829917" lon="9.186247"><time>2024-05-04T06:37:30.000Z</time><ele>965.6</ele></trkpt><trkpt lat="45.829939" lon="9.186254"><time>2024-05-04T06:37:31.000Z</time><ele>965.6</ele></trkpt><trkpt lat="45.82996" lon="9.186267"><time>2024-05-04T06:37:32.000Z</time><ele>965.8</ele></trkpt><trkpt lat="45.829982" lon="9.186275"><time>2024-05-04T06:37:33.000Z</time><ele>965.8</ele></trkpt><trkpt lat="45.829995" lon="9.186278"><time>2024-05-04T06:37:34.000Z</time><ele>966</ele></trkpt><trkpt lat="45.830006" lon="9.186284"><time>2024-05-04T06:37:35.000Z</time><ele>966.2</ele></trkpt><trkpt lat="45.830018" lon="9.186286"><time>2024-05-04T06:37:36.000Z</time><ele>966.2</ele></trkpt><trkpt lat="45.830028" lon="9.186288"><time>2024-05-04T06:37:37.000Z</time><ele>966.4</ele></trkpt><trkpt lat="45.830035" lon="9.186292"><time>2024-05-04T06:37:38.000Z</time><ele>966.4</ele></trkpt><trkpt lat="45.830039" lon="9.186296"><time>2024-05-04T06:37:39.000Z</time><ele>966.6</ele></trkpt><trkpt lat="45.830046" lon="9.186305"><time>2024-05-04T06:37:40.000Z</time><ele>966.8</ele></trkpt><trkpt lat="45.830046" lon="9.186305"><time>2024-05-04T06:37:41.000Z</time><ele>967</ele></trkpt><trkpt lat="45.830059" lon="9.186327"><time>2024-05-04T06:37:42.000Z</time><ele>967</ele></trkpt><trkpt lat="45.830066" lon="9.186334"><time>2024-05-04T06:37:43.000Z</time><ele>967.2</ele></trkpt><trkpt lat="45.830067" lon="9.186338"><time>2024-05-04T06:37:44.000Z</time><ele>967.2</ele></trkpt><trkpt lat="45.830079" lon="9.186334"><time>2024-05-04T06:37:45.000Z</time><ele>967.4</ele></trkpt><trkpt lat="45.830095" lon="9.186335"><time>2024-05-04T06:37:46.000Z</time><ele>967.4</ele></trkpt><trkpt lat="45.830107" lon="9.186334"><time>2024-05-04T06:37:47.000Z</time><ele>967.6</ele></trkpt><trkpt lat="45.830117" lon="9.186332"><time>2024-05-04T06:37:48.000Z</time><ele>967.6</ele></trkpt><trkpt lat="45.830126" lon="9.186337"><time>2024-05-04T06:37:49.000Z</time><ele>967.8</ele></trkpt><trkpt lat="45.830126" lon="9.186337"><time>2024-05-04T06:37:50.000Z</time><ele>968</ele></trkpt><trkpt lat="45.830143" lon="9.186333"><time>2024-05-04T06:37:51.000Z</time><ele>968.2</ele></trkpt><trkpt lat="45.830146" lon="9.186332"><time>2024-05-04T06:37:52.000Z</time><ele>968.2</ele></trkpt><trkpt lat="45.830158" lon="9.186333"><time>2024-05-04T06:37:53.000Z</time><ele>968.2</ele></trkpt><trkpt lat="45.830168" lon="9.186335"><time>2024-05-04T06:37:54.000Z</time><ele>968.4</ele></trkpt><trkpt lat="45.830176" lon="9.186341"><time>2024-05-04T06:37:55.000Z</time><ele>968.6</ele></trkpt><trkpt lat="45.83018" lon="9.186344"><time>2024-05-04T06:37:56.000Z</time><ele>968.8</ele></trkpt><trkpt lat="45.830182" lon="9.186345"><time>2024-05-04T06:37:57.000Z</time><ele>969</ele></trkpt><trkpt lat="45.830185" lon="9.186346"><time>2024-05-04T06:37:58.000Z</time><ele>969</ele></trkpt><trkpt lat="45.830191" lon="9.186351"><time>2024-05-04T06:37:59.000Z</time><ele>969.2</ele></trkpt><trkpt lat="45.830198" lon="9.18636"><time>2024-05-04T06:38:00.000Z</time><ele>969.2</ele></trkpt><trkpt lat="45.830208" lon="9.186368"><time>2024-05-04T06:38:01.000Z</time><ele>969.4</ele></trkpt><trkpt lat="45.830223" lon="9.18637"><time>2024-05-04T06:38:02.000Z</time><ele>969.6</ele></trkpt><trkpt lat="45.830237" lon="9.186369"><time>2024-05-04T06:38:03.000Z</time><ele>969.8</ele></trkpt><trkpt lat="45.830251" lon="9.186372"><time>2024-05-04T06:38:04.000Z</time><ele>970</ele></trkpt><trkpt lat="45.830266" lon="9.186376"><time>2024-05-04T06:38:05.000Z</time><ele>970.2</ele></trkpt><trkpt lat="45.83028" lon="9.186384"><time>2024-05-04T06:38:06.000Z</time><ele>970.2</ele></trkpt><trkpt lat="45.830294" lon="9.186395"><time>2024-05-04T06:38:07.000Z</time><ele>970.4</ele></trkpt><trkpt lat="45.830299" lon="9.1864"><time>2024-05-04T06:38:08.000Z</time><ele>970.6</ele></trkpt><trkpt lat="45.83031" lon="9.186404"><time>2024-05-04T06:38:09.000Z</time><ele>970.8</ele></trkpt><trkpt lat="45.830314" lon="9.186406"><time>2024-05-04T06:38:10.000Z</time><ele>971</ele></trkpt><trkpt lat="45.830325" lon="9.186403"><time>2024-05-04T06:38:11.000Z</time><ele>971.2</ele></trkpt><trkpt lat="45.830335" lon="9.186404"><time>2024-05-04T06:38:12.000Z</time><ele>971.6</ele></trkpt><trkpt lat="45.830337" lon="9.186405"><time>2024-05-04T06:38:13.000Z</time><ele>971.8</ele></trkpt><trkpt lat="45.830345" lon="9.186415"><time>2024-05-04T06:38:14.000Z</time><ele>972.2</ele></trkpt><trkpt lat="45.83036" lon="9.186422"><time>2024-05-04T06:38:15.000Z</time><ele>972.4</ele></trkpt><trkpt lat="45.830372" lon="9.186424"><time>2024-05-04T06:38:16.000Z</time><ele>972.6</ele></trkpt><trkpt lat="45.830376" lon="9.186427"><time>2024-05-04T06:38:17.000Z</time><ele>972.8</ele></trkpt><trkpt lat="45.830385" lon="9.186423"><time>2024-05-04T06:38:18.000Z</time><ele>973</ele></trkpt><trkpt lat="45.830388" lon="9.186423"><time>2024-05-04T06:38:19.000Z</time><ele>973</ele></trkpt><trkpt lat="45.830404" lon="9.186425"><time>2024-05-04T06:38:20.000Z</time><ele>973.2</ele></trkpt><trkpt lat="45.830419" lon="9.186423"><time>2024-05-04T06:38:21.000Z</time><ele>973.4</ele></trkpt><trkpt lat="45.830434" lon="9.186428"><time>2024-05-04T06:38:22.000Z</time><ele>973.6</ele></trkpt><trkpt lat="45.83045" lon="9.186442"><time>2024-05-04T06:38:23.000Z</time><ele>973.8</ele></trkpt><trkpt lat="45.830454" lon="9.186452"><time>2024-05-04T06:38:24.000Z</time><ele>973.8</ele></trkpt><trkpt lat="45.830459" lon="9.186464"><time>2024-05-04T06:38:25.000Z</time><ele>974</ele></trkpt><trkpt lat="45.830473" lon="9.186475"><time>2024-05-04T06:38:26.000Z</time><ele>974.2</ele></trkpt><trkpt lat="45.830488" lon="9.186486"><time>2024-05-04T06:38:27.000Z</time><ele>974.4</ele></trkpt><trkpt lat="45.830496" lon="9.186492"><time>2024-05-04T06:38:28.000Z</time><ele>974.8</ele></trkpt><trkpt lat="45.830511" lon="9.186496"><time>2024-05-04T06:38:29.000Z</time><ele>974.8</ele></trkpt><trkpt lat="45.830523" lon="9.186504"><time>2024-05-04T06:38:30.000Z</time><ele>975.2</ele></trkpt><trkpt lat="45.830531" lon="9.186509"><time>2024-05-04T06:38:31.000Z</time><ele>975.4</ele></trkpt><trkpt lat="45.830537" lon="9.186511"><time>2024-05-04T06:38:32.000Z</time><ele>975.4</ele></trkpt><trkpt lat="45.830544" lon="9.186511"><time>2024-05-04T06:38:33.000Z</time><ele>975.6</ele></trkpt><trkpt lat="45.83055" lon="9.186516"><time>2024-05-04T06:38:34.000Z</time><ele>975.8</ele></trkpt><trkpt lat="45.830555" lon="9.186516"><time>2024-05-04T06:38:35.000Z</time><ele>976</ele></trkpt><trkpt lat="45.830556" lon="9.186518"><time>2024-05-04T06:38:36.000Z</time><ele>976.2</ele></trkpt><trkpt lat="45.830557" lon="9.186517"><time>2024-05-04T06:38:37.000Z</time><ele>976.2</ele></trkpt><trkpt lat="45.830562" lon="9.186522"><time>2024-05-04T06:38:38.000Z</time><ele>976.4</ele></trkpt><trkpt lat="45.830561" lon="9.186521"><time>2024-05-04T06:38:39.000Z</time><ele>976.6</ele></trkpt><trkpt lat="45.830555" lon="9.186536"><time>2024-05-04T06:38:40.000Z</time><ele>976.8</ele></trkpt><trkpt lat="45.83055" lon="9.186546"><time>2024-05-04T06:38:41.000Z</time><ele>976.8</ele></trkpt><trkpt lat="45.830548" lon="9.186545"><time>2024-05-04T06:38:42.000Z</time><ele>976.8</ele></trkpt><trkpt lat="45.830551" lon="9.18654"><time>2024-05-04T06:38:43.000Z</time><ele>976.8</ele></trkpt><trkpt lat="45.83055" lon="9.186543"><time>2024-05-04T06:38:44.000Z</time><ele>976.8</ele></trkpt><trkpt lat="45.830549" lon="9.186542"><time>2024-05-04T06:38:45.000Z</time><ele>976.8</ele></trkpt><trkpt lat="45.830548" lon="9.186544"><time>2024-05-04T06:38:46.000Z</time><ele>977</ele></trkpt><trkpt lat="45.830552" lon="9.186543"><time>2024-05-04T06:38:47.000Z</time><ele>977</ele></trkpt><trkpt lat="45.830556" lon="9.186541"><time>2024-05-04T06:38:48.000Z</time><ele>977.2</ele></trkpt><trkpt lat="45.830563" lon="9.18654"><time>2024-05-04T06:38:49.000Z</time><ele>977.2</ele></trkpt><trkpt lat="45.830568" lon="9.186543"><time>2024-05-04T06:38:50.000Z</time><ele>977.2</ele></trkpt><trkpt lat="45.830569" lon="9.186542"><time>2024-05-04T06:38:51.000Z</time><ele>977.2</ele></trkpt><trkpt lat="45.830568" lon="9.186543"><time>2024-05-04T06:38:52.000Z</time><ele>977.2</ele></trkpt><trkpt lat="45.830572" lon="9.186546"><time>2024-05-04T06:38:53.000Z</time><ele>977.2</ele></trkpt><trkpt lat="45.830574" lon="9.186545"><time>2024-05-04T06:38:54.000Z</time><ele>977.2</ele></trkpt><trkpt lat="45.830581" lon="9.186538"><time>2024-05-04T06:38:55.000Z</time><ele>977.2</ele></trkpt><trkpt lat="45.83059" lon="9.186533"><time>2024-05-04T06:38:56.000Z</time><ele>977.2</ele></trkpt><trkpt lat="45.830601" lon="9.186521"><time>2024-05-04T06:38:57.000Z</time><ele>977</ele></trkpt><trkpt lat="45.830612" lon="9.186517"><time>2024-05-04T06:38:58.000Z</time><ele>977.2</ele></trkpt><trkpt lat="45.830612" lon="9.186517"><time>2024-05-04T06:38:59.000Z</time><ele>977.2</ele></trkpt><trkpt lat="45.830613" lon="9.186511"><time>2024-05-04T06:39:00.000Z</time><ele>977.4</ele></trkpt><trkpt lat="45.830613" lon="9.186511"><time>2024-05-04T06:39:01.000Z</time><ele>977.8</ele></trkpt><trkpt lat="45.830617" lon="9.186508"><time>2024-05-04T06:39:02.000Z</time><ele>978</ele></trkpt><trkpt lat="45.830618" lon="9.186505"><time>2024-05-04T06:39:03.000Z</time><ele>978.2</ele></trkpt><trkpt lat="45.830615" lon="9.186504"><time>2024-05-04T06:39:04.000Z</time><ele>978.4</ele></trkpt><trkpt lat="45.830613" lon="9.186504"><time>2024-05-04T06:39:05.000Z</time><ele>978.6</ele></trkpt><trkpt lat="45.830621" lon="9.186504"><time>2024-05-04T06:39:06.000Z</time><ele>978.8</ele></trkpt><trkpt lat="45.830624" lon="9.186503"><time>2024-05-04T06:39:07.000Z</time><ele>978.8</ele></trkpt><trkpt lat="45.830621" lon="9.186501"><time>2024-05-04T06:39:08.000Z</time><ele>978.8</ele></trkpt><trkpt lat="45.830622" lon="9.186494"><time>2024-05-04T06:39:09.000Z</time><ele>979</ele></trkpt><trkpt lat="45.830627" lon="9.186517"><time>2024-05-04T06:39:10.000Z</time><ele>979</ele></trkpt><trkpt lat="45.83064" lon="9.186533"><time>2024-05-04T06:39:11.000Z</time><ele>979.2</ele></trkpt><trkpt lat="45.830643" lon="9.186537"><time>2024-05-04T06:39:12.000Z</time><ele>979.2</ele></trkpt><trkpt lat="45.830645" lon="9.18654"><time>2024-05-04T06:39:13.000Z</time><ele>979.2</ele></trkpt><trkpt lat="45.830646" lon="9.186542"><time>2024-05-04T06:39:14.000Z</time><ele>979.4</ele></trkpt><trkpt lat="45.830658" lon="9.186535"><time>2024-05-04T06:39:15.000Z</time><ele>979.4</ele></trkpt><trkpt lat="45.830673" lon="9.186524"><time>2024-05-04T06:39:16.000Z</time><ele>979.8</ele></trkpt><trkpt lat="45.830675" lon="9.186527"><time>2024-05-04T06:39:17.000Z</time><ele>980.2</ele></trkpt><trkpt lat="45.83069" lon="9.186538"><time>2024-05-04T06:39:18.000Z</time><ele>980.4</ele></trkpt><trkpt lat="45.8307" lon="9.186548"><time>2024-05-04T06:39:19.000Z</time><ele>980.4</ele></trkpt><trkpt lat="45.830702" lon="9.186553"><time>2024-05-04T06:39:20.000Z</time><ele>980.6</ele></trkpt><trkpt lat="45.83071" lon="9.186559"><time>2024-05-04T06:39:21.000Z</time><ele>980.8</ele></trkpt><trkpt lat="45.830719" lon="9.186557"><time>2024-05-04T06:39:22.000Z</time><ele>981</ele></trkpt><trkpt lat="45.830727" lon="9.186552"><time>2024-05-04T06:39:23.000Z</time><ele>981.2</ele></trkpt><trkpt lat="45.830736" lon="9.186546"><time>2024-05-04T06:39:24.000Z</time><ele>981.6</ele></trkpt><trkpt lat="45.830745" lon="9.18654"><time>2024-05-04T06:39:25.000Z</time><ele>981.8</ele></trkpt><trkpt lat="45.830755" lon="9.18654"><time>2024-05-04T06:39:26.000Z</time><ele>982</ele></trkpt><trkpt lat="45.830769" lon="9.186541"><time>2024-05-04T06:39:27.000Z</time><ele>982.2</ele></trkpt><trkpt lat="45.830779" lon="9.186543"><time>2024-05-04T06:39:28.000Z</time><ele>982.4</ele></trkpt><trkpt lat="45.830791" lon="9.186544"><time>2024-05-04T06:39:29.000Z</time><ele>982.6</ele></trkpt><trkpt lat="45.830799" lon="9.186553"><time>2024-05-04T06:39:30.000Z</time><ele>982.8</ele></trkpt><trkpt lat="45.830807" lon="9.186556"><time>2024-05-04T06:39:31.000Z</time><ele>983</ele></trkpt><trkpt lat="45.830815" lon="9.18656"><time>2024-05-04T06:39:32.000Z</time><ele>983.2</ele></trkpt><trkpt lat="45.830819" lon="9.186561"><time>2024-05-04T06:39:33.000Z</time><ele>983.2</ele></trkpt><trkpt lat="45.830821" lon="9.186561"><time>2024-05-04T06:39:34.000Z</time><ele>983.4</ele></trkpt><trkpt lat="45.830828" lon="9.186554"><time>2024-05-04T06:39:35.000Z</time><ele>983.6</ele></trkpt><trkpt lat="45.830839" lon="9.186544"><time>2024-05-04T06:39:36.000Z</time><ele>983.6</ele></trkpt><trkpt lat="45.830849" lon="9.186536"><time>2024-05-04T06:39:37.000Z</time><ele>984</ele></trkpt><trkpt lat="45.830862" lon="9.186527"><time>2024-05-04T06:39:38.000Z</time><ele>984.2</ele></trkpt><trkpt lat="45.830875" lon="9.186518"><time>2024-05-04T06:39:39.000Z</time><ele>984.2</ele></trkpt><trkpt lat="45.830884" lon="9.18651"><time>2024-05-04T06:39:40.000Z</time><ele>984.2</ele></trkpt><trkpt lat="45.830893" lon="9.186504"><time>2024-05-04T06:39:41.000Z</time><ele>984.4</ele></trkpt><trkpt lat="45.830893" lon="9.186502"><time>2024-05-04T06:39:42.000Z</time><ele>984.6</ele></trkpt><trkpt lat="45.830899" lon="9.186497"><time>2024-05-04T06:39:43.000Z</time><ele>984.6</ele></trkpt><trkpt lat="45.830904" lon="9.186489"><time>2024-05-04T06:39:44.000Z</time><ele>984.8</ele></trkpt><trkpt lat="45.830908" lon="9.18648"><time>2024-05-04T06:39:45.000Z</time><ele>985</ele></trkpt><trkpt lat="45.830913" lon="9.186485"><time>2024-05-04T06:39:46.000Z</time><ele>985.2</ele></trkpt><trkpt lat="45.830924" lon="9.186482"><time>2024-05-04T06:39:47.000Z</time><ele>985.4</ele></trkpt><trkpt lat="45.830936" lon="9.186475"><time>2024-05-04T06:39:48.000Z</time><ele>985.6</ele></trkpt><trkpt lat="45.83095" lon="9.186471"><time>2024-05-04T06:39:49.000Z</time><ele>985.8</ele></trkpt><trkpt lat="45.83096" lon="9.186465"><time>2024-05-04T06:39:50.000Z</time><ele>986</ele></trkpt><trkpt lat="45.830968" lon="9.186453"><time>2024-05-04T06:39:51.000Z</time><ele>986.2</ele></trkpt><trkpt lat="45.830977" lon="9.186444"><time>2024-05-04T06:39:52.000Z</time><ele>986.4</ele></trkpt><trkpt lat="45.830989" lon="9.186432"><time>2024-05-04T06:39:53.000Z</time><ele>986.6</ele></trkpt><trkpt lat="45.831001" lon="9.186427"><time>2024-05-04T06:39:54.000Z</time><ele>986.8</ele></trkpt><trkpt lat="45.83101" lon="9.186422"><time>2024-05-04T06:39:55.000Z</time><ele>986.8</ele></trkpt><trkpt lat="45.831017" lon="9.186416"><time>2024-05-04T06:39:56.000Z</time><ele>987</ele></trkpt><trkpt lat="45.831023" lon="9.186409"><time>2024-05-04T06:39:57.000Z</time><ele>987.2</ele></trkpt><trkpt lat="45.831029" lon="9.1864"><time>2024-05-04T06:39:58.000Z</time><ele>987.4</ele></trkpt><trkpt lat="45.831036" lon="9.186398"><time>2024-05-04T06:39:59.000Z</time><ele>987.6</ele></trkpt><trkpt lat="45.831045" lon="9.186395"><time>2024-05-04T06:40:00.000Z</time><ele>987.6</ele></trkpt><trkpt lat="45.831054" lon="9.186392"><time>2024-05-04T06:40:01.000Z</time><ele>988</ele></trkpt><trkpt lat="45.831062" lon="9.186385"><time>2024-05-04T06:40:02.000Z</time><ele>988.2</ele></trkpt><trkpt lat="45.831071" lon="9.186384"><time>2024-05-04T06:40:03.000Z</time><ele>988.4</ele></trkpt><trkpt lat="45.831076" lon="9.186384"><time>2024-05-04T06:40:04.000Z</time><ele>988.6</ele></trkpt><trkpt lat="45.831079" lon="9.186379"><time>2024-05-04T06:40:05.000Z</time><ele>988.8</ele></trkpt><trkpt lat="45.831082" lon="9.186377"><time>2024-05-04T06:40:06.000Z</time><ele>989.2</ele></trkpt><trkpt lat="45.831086" lon="9.186375"><time>2024-05-04T06:40:07.000Z</time><ele>989.4</ele></trkpt><trkpt lat="45.831088" lon="9.186371"><time>2024-05-04T06:40:08.000Z</time><ele>989.8</ele></trkpt><trkpt lat="45.831101" lon="9.186344"><time>2024-05-04T06:40:09.000Z</time><ele>990</ele></trkpt><trkpt lat="45.831113" lon="9.186335"><time>2024-05-04T06:40:10.000Z</time><ele>990.2</ele></trkpt><trkpt lat="45.831126" lon="9.186328"><time>2024-05-04T06:40:11.000Z</time><ele>990.2</ele></trkpt><trkpt lat="45.831136" lon="9.186325"><time>2024-05-04T06:40:12.000Z</time><ele>990.6</ele></trkpt><trkpt lat="45.831136" lon="9.186322"><time>2024-05-04T06:40:13.000Z</time><ele>990.8</ele></trkpt><trkpt lat="45.831137" lon="9.186317"><time>2024-05-04T06:40:14.000Z</time><ele>991</ele></trkpt><trkpt lat="45.831141" lon="9.186325"><time>2024-05-04T06:40:15.000Z</time><ele>991.2</ele></trkpt><trkpt lat="45.831144" lon="9.186325"><time>2024-05-04T06:40:16.000Z</time><ele>991.2</ele></trkpt><trkpt lat="45.83115" lon="9.186323"><time>2024-05-04T06:40:17.000Z</time><ele>991.6</ele></trkpt><trkpt lat="45.83116" lon="9.186316"><time>2024-05-04T06:40:18.000Z</time><ele>991.8</ele></trkpt><trkpt lat="45.831173" lon="9.186304"><time>2024-05-04T06:40:19.000Z</time><ele>992</ele></trkpt><trkpt lat="45.831184" lon="9.186288"><time>2024-05-04T06:40:20.000Z</time><ele>992</ele></trkpt><trkpt lat="45.83119" lon="9.186272"><time>2024-05-04T06:40:21.000Z</time><ele>992.2</ele></trkpt><trkpt lat="45.831198" lon="9.186262"><time>2024-05-04T06:40:22.000Z</time><ele>992.2</ele></trkpt><trkpt lat="45.831202" lon="9.186261"><time>2024-05-04T06:40:23.000Z</time><ele>992.4</ele></trkpt><trkpt lat="45.83121" lon="9.18626"><time>2024-05-04T06:40:24.000Z</time><ele>992.6</ele></trkpt><trkpt lat="45.831215" lon="9.186259"><time>2024-05-04T06:40:25.000Z</time><ele>992.8</ele></trkpt><trkpt lat="45.831222" lon="9.186258"><time>2024-05-04T06:40:26.000Z</time><ele>993</ele></trkpt><trkpt lat="45.831228" lon="9.186257"><time>2024-05-04T06:40:27.000Z</time><ele>993.2</ele></trkpt><trkpt lat="45.831239" lon="9.186251"><time>2024-05-04T06:40:28.000Z</time><ele>993.4</ele></trkpt><trkpt lat="45.831244" lon="9.186248"><time>2024-05-04T06:40:29.000Z</time><ele>993.6</ele></trkpt><trkpt lat="45.831246" lon="9.186242"><time>2024-05-04T06:40:30.000Z</time><ele>993.8</ele></trkpt><trkpt lat="45.831249" lon="9.186238"><time>2024-05-04T06:40:31.000Z</time><ele>994</ele></trkpt><trkpt lat="45.831255" lon="9.186231"><time>2024-05-04T06:40:32.000Z</time><ele>994.2</ele></trkpt><trkpt lat="45.83126" lon="9.186222"><time>2024-05-04T06:40:33.000Z</time><ele>994.4</ele></trkpt><trkpt lat="45.831267" lon="9.186222"><time>2024-05-04T06:40:34.000Z</time><ele>994.6</ele></trkpt><trkpt lat="45.831276" lon="9.186227"><time>2024-05-04T06:40:35.000Z</time><ele>994.8</ele></trkpt><trkpt lat="45.831279" lon="9.186226"><time>2024-05-04T06:40:36.000Z</time><ele>995</ele></trkpt><trkpt lat="45.831295" lon="9.186214"><time>2024-05-04T06:40:37.000Z</time><ele>995.2</ele></trkpt><trkpt lat="45.831315" lon="9.186204"><time>2024-05-04T06:40:38.000Z</time><ele>995.4</ele></trkpt><trkpt lat="45.831322" lon="9.186195"><time>2024-05-04T06:40:39.000Z</time><ele>995.6</ele></trkpt><trkpt lat="45.83133" lon="9.186186"><time>2024-05-04T06:40:40.000Z</time><ele>995.6</ele></trkpt><trkpt lat="45.831334" lon="9.186182"><time>2024-05-04T06:40:41.000Z</time><ele>995.8</ele></trkpt><trkpt lat="45.831337" lon="9.186177"><time>2024-05-04T06:40:42.000Z</time><ele>996</ele></trkpt><trkpt lat="45.831346" lon="9.186169"><time>2024-05-04T06:40:43.000Z</time><ele>996.2</ele></trkpt><trkpt lat="45.831353" lon="9.18616"><time>2024-05-04T06:40:44.000Z</time><ele>996.4</ele></trkpt><trkpt lat="45.831364" lon="9.186153"><time>2024-05-04T06:40:45.000Z</time><ele>996.6</ele></trkpt><trkpt lat="45.831374" lon="9.18615"><time>2024-05-04T06:40:46.000Z</time><ele>996.8</ele></trkpt><trkpt lat="45.831383" lon="9.186145"><time>2024-05-04T06:40:47.000Z</time><ele>997</ele></trkpt><trkpt lat="45.83139" lon="9.186135"><time>2024-05-04T06:40:48.000Z</time><ele>997.4</ele></trkpt><trkpt lat="45.831403" lon="9.186121"><time>2024-05-04T06:40:49.000Z</time><ele>997.4</ele></trkpt><trkpt lat="45.831407" lon="9.186117"><time>2024-05-04T06:40:50.000Z</time><ele>997.6</ele></trkpt><trkpt lat="45.831414" lon="9.186112"><time>2024-05-04T06:40:51.000Z</time><ele>997.8</ele></trkpt><trkpt lat="45.831417" lon="9.186103"><time>2024-05-04T06:40:52.000Z</time><ele>998</ele></trkpt><trkpt lat="45.831424" lon="9.186102"><time>2024-05-04T06:40:53.000Z</time><ele>998.2</ele></trkpt><trkpt lat="45.831432" lon="9.186102"><time>2024-05-04T06:40:54.000Z</time><ele>998.4</ele></trkpt><trkpt lat="45.831438" lon="9.186107"><time>2024-05-04T06:40:55.000Z</time><ele>998.6</ele></trkpt><trkpt lat="45.831438" lon="9.186106"><time>2024-05-04T06:40:56.000Z</time><ele>998.8</ele></trkpt><trkpt lat="45.831441" lon="9.186095"><time>2024-05-04T06:40:57.000Z</time><ele>999</ele></trkpt><trkpt lat="45.831444" lon="9.186083"><time>2024-05-04T06:40:58.000Z</time><ele>999.2</ele></trkpt><trkpt lat="45.83145" lon="9.186076"><time>2024-05-04T06:40:59.000Z</time><ele>999.6</ele></trkpt><trkpt lat="45.83146" lon="9.186069"><time>2024-05-04T06:41:00.000Z</time><ele>999.6</ele></trkpt><trkpt lat="45.831465" lon="9.186044"><time>2024-05-04T06:41:01.000Z</time><ele>999.8</ele></trkpt><trkpt lat="45.83147" lon="9.186034"><time>2024-05-04T06:41:02.000Z</time><ele>1000.2</ele></trkpt><trkpt lat="45.831472" lon="9.186034"><time>2024-05-04T06:41:03.000Z</time><ele>1000.4</ele></trkpt><trkpt lat="45.831471" lon="9.186035"><time>2024-05-04T06:41:04.000Z</time><ele>1000.6</ele></trkpt><trkpt lat="45.83147" lon="9.186036"><time>2024-05-04T06:41:05.000Z</time><ele>1000.8</ele></trkpt><trkpt lat="45.831467" lon="9.186011"><time>2024-05-04T06:41:06.000Z</time><ele>1001</ele></trkpt><trkpt lat="45.831465" lon="9.18601"><time>2024-05-04T06:41:07.000Z</time><ele>1001</ele></trkpt><trkpt lat="45.831466" lon="9.18601"><time>2024-05-04T06:41:08.000Z</time><ele>1001</ele></trkpt><trkpt lat="45.831465" lon="9.18601"><time>2024-05-04T06:41:09.000Z</time><ele>1001</ele></trkpt><trkpt lat="45.831463" lon="9.186012"><time>2024-05-04T06:41:10.000Z</time><ele>1001</ele></trkpt><trkpt lat="45.831464" lon="9.186012"><time>2024-05-04T06:41:11.000Z</time><ele>1001</ele></trkpt><trkpt lat="45.831461" lon="9.186006"><time>2024-05-04T06:41:12.000Z</time><ele>1001</ele></trkpt><trkpt lat="45.831456" lon="9.185997"><time>2024-05-04T06:41:13.000Z</time><ele>1001</ele></trkpt><trkpt lat="45.831458" lon="9.185995"><time>2024-05-04T06:41:14.000Z</time><ele>1001</ele></trkpt><trkpt lat="45.831459" lon="9.185997"><time>2024-05-04T06:41:15.000Z</time><ele>1001</ele></trkpt><trkpt lat="45.831461" lon="9.186"><time>2024-05-04T06:41:16.000Z</time><ele>1001</ele></trkpt><trkpt lat="45.831461" lon="9.186001"><time>2024-05-04T06:41:17.000Z</time><ele>1000.8</ele></trkpt><trkpt lat="45.831455" lon="9.185998"><time>2024-05-04T06:41:18.000Z</time><ele>1000.8</ele></trkpt><trkpt lat="45.831449" lon="9.185995"><time>2024-05-04T06:41:19.000Z</time><ele>1000.8</ele></trkpt><trkpt lat="45.831447" lon="9.185987"><time>2024-05-04T06:41:20.000Z</time><ele>1000.8</ele></trkpt><trkpt lat="45.831448" lon="9.185979"><time>2024-05-04T06:41:21.000Z</time><ele>1000.8</ele></trkpt><trkpt lat="45.831455" lon="9.185975"><time>2024-05-04T06:41:22.000Z</time><ele>1000.8</ele></trkpt><trkpt lat="45.831461" lon="9.185973"><time>2024-05-04T06:41:23.000Z</time><ele>1000.8</ele></trkpt><trkpt lat="45.83147" lon="9.185967"><time>2024-05-04T06:41:24.000Z</time><ele>1000.8</ele></trkpt><trkpt lat="45.831479" lon="9.185963"><time>2024-05-04T06:41:25.000Z</time><ele>1000.8</ele></trkpt><trkpt lat="45.831488" lon="9.18596"><time>2024-05-04T06:41:26.000Z</time><ele>1000.8</ele></trkpt><trkpt lat="45.831493" lon="9.185956"><time>2024-05-04T06:41:27.000Z</time><ele>1000.8</ele></trkpt><trkpt lat="45.8315" lon="9.18595"><time>2024-05-04T06:41:28.000Z</time><ele>1001</ele></trkpt><trkpt lat="45.831509" lon="9.185943"><time>2024-05-04T06:41:29.000Z</time><ele>1001.4</ele></trkpt><trkpt lat="45.831516" lon="9.185937"><time>2024-05-04T06:41:30.000Z</time><ele>1001.6</ele></trkpt><trkpt lat="45.831521" lon="9.185933"><time>2024-05-04T06:41:31.000Z</time><ele>1001.8</ele></trkpt><trkpt lat="45.831526" lon="9.185919"><time>2024-05-04T06:41:32.000Z</time><ele>1002</ele></trkpt><trkpt lat="45.831531" lon="9.18591"><time>2024-05-04T06:41:33.000Z</time><ele>1002.2</ele></trkpt><trkpt lat="45.831538" lon="9.185905"><time>2024-05-04T06:41:34.000Z</time><ele>1002.4</ele></trkpt><trkpt lat="45.831542" lon="9.1859"><time>2024-05-04T06:41:35.000Z</time><ele>1002.6</ele></trkpt><trkpt lat="45.83155" lon="9.185893"><time>2024-05-04T06:41:36.000Z</time><ele>1002.8</ele></trkpt><trkpt lat="45.831561" lon="9.185886"><time>2024-05-04T06:41:37.000Z</time><ele>1003</ele></trkpt><trkpt lat="45.831574" lon="9.185881"><time>2024-05-04T06:41:38.000Z</time><ele>1003.4</ele></trkpt><trkpt lat="45.831583" lon="9.185878"><time>2024-05-04T06:41:39.000Z</time><ele>1003.6</ele></trkpt><trkpt lat="45.831592" lon="9.185875"><time>2024-05-04T06:41:40.000Z</time><ele>1003.8</ele></trkpt><trkpt lat="45.831602" lon="9.18587"><time>2024-05-04T06:41:41.000Z</time><ele>1004</ele></trkpt><trkpt lat="45.831605" lon="9.18586"><time>2024-05-04T06:41:42.000Z</time><ele>1004.2</ele></trkpt><trkpt lat="45.831612" lon="9.185846"><time>2024-05-04T06:41:43.000Z</time><ele>1004.2</ele></trkpt><trkpt lat="45.83162" lon="9.185838"><time>2024-05-04T06:41:44.000Z</time><ele>1004.4</ele></trkpt><trkpt lat="45.831632" lon="9.185832"><time>2024-05-04T06:41:45.000Z</time><ele>1004.6</ele></trkpt><trkpt lat="45.831642" lon="9.185828"><time>2024-05-04T06:41:46.000Z</time><ele>1004.8</ele></trkpt><trkpt lat="45.831642" lon="9.185827"><time>2024-05-04T06:41:47.000Z</time><ele>1004.8</ele></trkpt><trkpt lat="45.831642" lon="9.185829"><time>2024-05-04T06:41:48.000Z</time><ele>1004.8</ele></trkpt><trkpt lat="45.831642" lon="9.185832"><time>2024-05-04T06:41:49.000Z</time><ele>1005</ele></trkpt><trkpt lat="45.831651" lon="9.18583"><time>2024-05-04T06:41:50.000Z</time><ele>1005</ele></trkpt><trkpt lat="45.831655" lon="9.185832"><time>2024-05-04T06:41:51.000Z</time><ele>1005</ele></trkpt><trkpt lat="45.831661" lon="9.185832"><time>2024-05-04T06:41:52.000Z</time><ele>1005.2</ele></trkpt><trkpt lat="45.831665" lon="9.185825"><time>2024-05-04T06:41:53.000Z</time><ele>1005.2</ele></trkpt><trkpt lat="45.831665" lon="9.185814"><time>2024-05-04T06:41:54.000Z</time><ele>1005.4</ele></trkpt><trkpt lat="45.831669" lon="9.185809"><time>2024-05-04T06:41:55.000Z</time><ele>1005.6</ele></trkpt><trkpt lat="45.83167" lon="9.185804"><time>2024-05-04T06:41:56.000Z</time><ele>1005.8</ele></trkpt><trkpt lat="45.831673" lon="9.185804"><time>2024-05-04T06:41:57.000Z</time><ele>1006</ele></trkpt><trkpt lat="45.831679" lon="9.185802"><time>2024-05-04T06:41:58.000Z</time><ele>1006</ele></trkpt><trkpt lat="45.831684" lon="9.185807"><time>2024-05-04T06:41:59.000Z</time><ele>1006.2</ele></trkpt><trkpt lat="45.831687" lon="9.185806"><time>2024-05-04T06:42:00.000Z</time><ele>1006.4</ele></trkpt><trkpt lat="45.831686" lon="9.185807"><time>2024-05-04T06:42:01.000Z</time><ele>1006.6</ele></trkpt><trkpt lat="45.831685" lon="9.185808"><time>2024-05-04T06:42:02.000Z</time><ele>1006.6</ele></trkpt><trkpt lat="45.831687" lon="9.185808"><time>2024-05-04T06:42:03.000Z</time><ele>1006.6</ele></trkpt><trkpt lat="45.83169" lon="9.185808"><time>2024-05-04T06:42:04.000Z</time><ele>1006.6</ele></trkpt><trkpt lat="45.831689" lon="9.185811"><time>2024-05-04T06:42:05.000Z</time><ele>1006.6</ele></trkpt><trkpt lat="45.83169" lon="9.185812"><time>2024-05-04T06:42:06.000Z</time><ele>1006.6</ele></trkpt><trkpt lat="45.831692" lon="9.185812"><time>2024-05-04T06:42:07.000Z</time><ele>1006.6</ele></trkpt><trkpt lat="45.831694" lon="9.18581"><time>2024-05-04T06:42:08.000Z</time><ele>1006.6</ele></trkpt><trkpt lat="45.831695" lon="9.18581"><time>2024-05-04T06:42:09.000Z</time><ele>1006.6</ele></trkpt><trkpt lat="45.831701" lon="9.185809"><time>2024-05-04T06:42:10.000Z</time><ele>1006.6</ele></trkpt><trkpt lat="45.831702" lon="9.185809"><time>2024-05-04T06:42:11.000Z</time><ele>1006.6</ele></trkpt><trkpt lat="45.831702" lon="9.185809"><time>2024-05-04T06:42:12.000Z</time><ele>1006.6</ele></trkpt><trkpt lat="45.831703" lon="9.185808"><time>2024-05-04T06:42:13.000Z</time><ele>1006.6</ele></trkpt><trkpt lat="45.831712" lon="9.185802"><time>2024-05-04T06:42:14.000Z</time><ele>1006.6</ele></trkpt><trkpt lat="45.831713" lon="9.185804"><time>2024-05-04T06:42:15.000Z</time><ele>1006.6</ele></trkpt><trkpt lat="45.831714" lon="9.185808"><time>2024-05-04T06:42:16.000Z</time><ele>1006.6</ele></trkpt><trkpt lat="45.831712" lon="9.18581"><time>2024-05-04T06:42:17.000Z</time><ele>1006.6</ele></trkpt><trkpt lat="45.831714" lon="9.18581"><time>2024-05-04T06:42:18.000Z</time><ele>1006.6</ele></trkpt><trkpt lat="45.831715" lon="9.185811"><time>2024-05-04T06:42:19.000Z</time><ele>1006.6</ele></trkpt><trkpt lat="45.831716" lon="9.18581"><time>2024-05-04T06:42:20.000Z</time><ele>1006.6</ele></trkpt><trkpt lat="45.831716" lon="9.185811"><time>2024-05-04T06:42:21.000Z</time><ele>1006.6</ele></trkpt><trkpt lat="45.831715" lon="9.185812"><time>2024-05-04T06:42:22.000Z</time><ele>1006.6</ele></trkpt><trkpt lat="45.831716" lon="9.185812"><time>2024-05-04T06:42:23.000Z</time><ele>1006.4</ele></trkpt><trkpt lat="45.831716" lon="9.18581"><time>2024-05-04T06:42:24.000Z</time><ele>1006.4</ele></trkpt><trkpt lat="45.831716" lon="9.18581"><time>2024-05-04T06:42:25.000Z</time><ele>1006.4</ele></trkpt><trkpt lat="45.831716" lon="9.18581"><time>2024-05-04T06:42:26.000Z</time><ele>1006.2</ele></trkpt><trkpt lat="45.831716" lon="9.18581"><time>2024-05-04T06:42:27.000Z</time><ele>1006.2</ele></trkpt><trkpt lat="45.831716" lon="9.18581"><time>2024-05-04T06:42:28.000Z</time><ele>1006.2</ele></trkpt><trkpt lat="45.831716" lon="9.18581"><time>2024-05-04T06:42:29.000Z</time><ele>1006.2</ele></trkpt><trkpt lat="45.831716" lon="9.18581"><time>2024-05-04T06:42:30.000Z</time><ele>1006.2</ele></trkpt><trkpt lat="45.831716" lon="9.18581"><time>2024-05-04T06:42:31.000Z</time><ele>1006.2</ele></trkpt><trkpt lat="45.831716" lon="9.18581"><time>2024-05-04T06:42:32.000Z</time><ele>1006</ele></trkpt><trkpt lat="45.831716" lon="9.18581"><time>2024-05-04T06:42:33.000Z</time><ele>1006</ele></trkpt><trkpt lat="45.831716" lon="9.18581"><time>2024-05-04T06:42:34.000Z</time><ele>1006</ele></trkpt><trkpt lat="45.831716" lon="9.18581"><time>2024-05-04T06:42:35.000Z</time><ele>1006</ele></trkpt><trkpt lat="45.831716" lon="9.18581"><time>2024-05-04T06:42:36.000Z</time><ele>1006</ele></trkpt><trkpt lat="45.831716" lon="9.18581"><time>2024-05-04T06:42:37.000Z</time><ele>1006.2</ele></trkpt><trkpt lat="45.831716" lon="9.18581"><time>2024-05-04T06:42:38.000Z</time><ele>1006</ele></trkpt><trkpt lat="45.831716" lon="9.18581"><time>2024-05-04T06:42:39.000Z</time><ele>1006.2</ele></trkpt><trkpt lat="45.831716" lon="9.18581"><time>2024-05-04T06:42:40.000Z</time><ele>1006.2</ele></trkpt><trkpt lat="45.831716" lon="9.185811"><time>2024-05-04T06:42:41.000Z</time><ele>1006.2</ele></trkpt><trkpt lat="45.831718" lon="9.185811"><time>2024-05-04T06:42:42.000Z</time><ele>1006.2</ele></trkpt><trkpt lat="45.831719" lon="9.185811"><time>2024-05-04T06:42:43.000Z</time><ele>1006.6</ele></trkpt><trkpt lat="45.83172" lon="9.185811"><time>2024-05-04T06:42:44.000Z</time><ele>1006.6</ele></trkpt><trkpt lat="45.83172" lon="9.185811"><time>2024-05-04T06:42:45.000Z</time><ele>1006.8</ele></trkpt><trkpt lat="45.831721" lon="9.185812"><time>2024-05-04T06:42:46.000Z</time><ele>1007</ele></trkpt><trkpt lat="45.831721" lon="9.185812"><time>2024-05-04T06:42:47.000Z</time><ele>1007.2</ele></trkpt><trkpt lat="45.831722" lon="9.185812"><time>2024-05-04T06:42:48.000Z</time><ele>1007.4</ele></trkpt><trkpt lat="45.831722" lon="9.185812"><time>2024-05-04T06:42:49.000Z</time><ele>1007.6</ele></trkpt><trkpt lat="45.831723" lon="9.185812"><time>2024-05-04T06:42:50.000Z</time><ele>1007.8</ele></trkpt><trkpt lat="45.831723" lon="9.185812"><time>2024-05-04T06:42:51.000Z</time><ele>1008</ele></trkpt><trkpt lat="45.831723" lon="9.185813"><time>2024-05-04T06:42:52.000Z</time><ele>1008.2</ele></trkpt><trkpt lat="45.831723" lon="9.185817"><time>2024-05-04T06:42:53.000Z</time><ele>1008.4</ele></trkpt><trkpt lat="45.831723" lon="9.18582"><time>2024-05-04T06:42:54.000Z</time><ele>1008.4</ele></trkpt><trkpt lat="45.831717" lon="9.185823"><time>2024-05-04T06:42:55.000Z</time><ele>1008.6</ele></trkpt><trkpt lat="45.831702" lon="9.185837"><time>2024-05-04T06:42:56.000Z</time><ele>1008.8</ele></trkpt><trkpt lat="45.831689" lon="9.185853"><time>2024-05-04T06:42:57.000Z</time><ele>1009</ele></trkpt><trkpt lat="45.831681" lon="9.185863"><time>2024-05-04T06:42:58.000Z</time><ele>1009.4</ele></trkpt><trkpt lat="45.831672" lon="9.18587"><time>2024-05-04T06:42:59.000Z</time><ele>1009.6</ele></trkpt><trkpt lat="45.831663" lon="9.185879"><time>2024-05-04T06:43:00.000Z</time><ele>1009.6</ele></trkpt><trkpt lat="45.831657" lon="9.185892"><time>2024-05-04T06:43:01.000Z</time><ele>1009.8</ele></trkpt><trkpt lat="45.831651" lon="9.185903"><time>2024-05-04T06:43:02.000Z</time><ele>1009.8</ele></trkpt><trkpt lat="45.831645" lon="9.185913"><time>2024-05-04T06:43:03.000Z</time><ele>1010</ele></trkpt><trkpt lat="45.83163" lon="9.185929"><time>2024-05-04T06:43:04.000Z</time><ele>1010</ele></trkpt><trkpt lat="45.831626" lon="9.185942"><time>2024-05-04T06:43:05.000Z</time><ele>1010.2</ele></trkpt><trkpt lat="45.83162" lon="9.185951"><time>2024-05-04T06:43:06.000Z</time><ele>1010.2</ele></trkpt><trkpt lat="45.831609" lon="9.185958"><time>2024-05-04T06:43:07.000Z</time><ele>1010.4</ele></trkpt><trkpt lat="45.831599" lon="9.185964"><time>2024-05-04T06:43:08.000Z</time><ele>1010.6</ele></trkpt><trkpt lat="45.831595" lon="9.185969"><time>2024-05-04T06:43:09.000Z</time><ele>1010.8</ele></trkpt><trkpt lat="45.831592" lon="9.185975"><time>2024-05-04T06:43:10.000Z</time><ele>1011</ele></trkpt><trkpt lat="45.831588" lon="9.185982"><time>2024-05-04T06:43:11.000Z</time><ele>1011.2</ele></trkpt><trkpt lat="45.831587" lon="9.185989"><time>2024-05-04T06:43:12.000Z</time><ele>1011.2</ele></trkpt><trkpt lat="45.831586" lon="9.185996"><time>2024-05-04T06:43:13.000Z</time><ele>1011.4</ele></trkpt><trkpt lat="45.831583" lon="9.186008"><time>2024-05-04T06:43:14.000Z</time><ele>1011.6</ele></trkpt><trkpt lat="45.831581" lon="9.18602"><time>2024-05-04T06:43:15.000Z</time><ele>1011.6</ele></trkpt><trkpt lat="45.831581" lon="9.186037"><time>2024-05-04T06:43:16.000Z</time><ele>1011.8</ele></trkpt><trkpt lat="45.831576" lon="9.186049"><time>2024-05-04T06:43:17.000Z</time><ele>1012</ele></trkpt><trkpt lat="45.831574" lon="9.18606"><time>2024-05-04T06:43:18.000Z</time><ele>1012</ele></trkpt><trkpt lat="45.831572" lon="9.186068"><time>2024-05-04T06:43:19.000Z</time><ele>1012.2</ele></trkpt><trkpt lat="45.831573" lon="9.186078"><time>2024-05-04T06:43:20.000Z</time><ele>1012.2</ele></trkpt><trkpt lat="45.831573" lon="9.186088"><time>2024-05-04T06:43:21.000Z</time><ele>1012.4</ele></trkpt><trkpt lat="45.831571" lon="9.186098"><time>2024-05-04T06:43:22.000Z</time><ele>1012.6</ele></trkpt><trkpt lat="45.831568" lon="9.186107"><time>2024-05-04T06:43:23.000Z</time><ele>1012.8</ele></trkpt><trkpt lat="45.831563" lon="9.186118"><time>2024-05-04T06:43:24.000Z</time><ele>1013</ele></trkpt><trkpt lat="45.831561" lon="9.186128"><time>2024-05-04T06:43:25.000Z</time><ele>1013</ele></trkpt><trkpt lat="45.831559" lon="9.186139"><time>2024-05-04T06:43:26.000Z</time><ele>1013.4</ele></trkpt><trkpt lat="45.831556" lon="9.186154"><time>2024-05-04T06:43:27.000Z</time><ele>1013.6</ele></trkpt><trkpt lat="45.831551" lon="9.186165"><time>2024-05-04T06:43:28.000Z</time><ele>1013.8</ele></trkpt><trkpt lat="45.831555" lon="9.186181"><time>2024-05-04T06:43:29.000Z</time><ele>1014</ele></trkpt><trkpt lat="45.831557" lon="9.186193"><time>2024-05-04T06:43:30.000Z</time><ele>1014.2</ele></trkpt><trkpt lat="45.831554" lon="9.186205"><time>2024-05-04T06:43:31.000Z</time><ele>1014.4</ele></trkpt><trkpt lat="45.831554" lon="9.186223"><time>2024-05-04T06:43:32.000Z</time><ele>1014.4</ele></trkpt><trkpt lat="45.831555" lon="9.186234"><time>2024-05-04T06:43:33.000Z</time><ele>1014.6</ele></trkpt><trkpt lat="45.83155" lon="9.186241"><time>2024-05-04T06:43:34.000Z</time><ele>1014.8</ele></trkpt><trkpt lat="45.831541" lon="9.186252"><time>2024-05-04T06:43:35.000Z</time><ele>1015</ele></trkpt><trkpt lat="45.831536" lon="9.18626"><time>2024-05-04T06:43:36.000Z</time><ele>1015</ele></trkpt><trkpt lat="45.831528" lon="9.186272"><time>2024-05-04T06:43:37.000Z</time><ele>1015.2</ele></trkpt><trkpt lat="45.831519" lon="9.186286"><time>2024-05-04T06:43:38.000Z</time><ele>1015.6</ele></trkpt><trkpt lat="45.831512" lon="9.186296"><time>2024-05-04T06:43:39.000Z</time><ele>1015.8</ele></trkpt><trkpt lat="45.83151" lon="9.186303"><time>2024-05-04T06:43:40.000Z</time><ele>1016</ele></trkpt><trkpt lat="45.831507" lon="9.186317"><time>2024-05-04T06:43:41.000Z</time><ele>1016.2</ele></trkpt><trkpt lat="45.831501" lon="9.186331"><time>2024-05-04T06:43:42.000Z</time><ele>1016.4</ele></trkpt><trkpt lat="45.831492" lon="9.18635"><time>2024-05-04T06:43:43.000Z</time><ele>1016.6</ele></trkpt><trkpt lat="45.831494" lon="9.186368"><time>2024-05-04T06:43:44.000Z</time><ele>1016.8</ele></trkpt><trkpt lat="45.83149" lon="9.186389"><time>2024-05-04T06:43:45.000Z</time><ele>1016.8</ele></trkpt><trkpt lat="45.831487" lon="9.1864"><time>2024-05-04T06:43:46.000Z</time><ele>1017</ele></trkpt><trkpt lat="45.831485" lon="9.186408"><time>2024-05-04T06:43:47.000Z</time><ele>1017.2</ele></trkpt><trkpt lat="45.831481" lon="9.186413"><time>2024-05-04T06:43:48.000Z</time><ele>1017.2</ele></trkpt><trkpt lat="45.831481" lon="9.186419"><time>2024-05-04T06:43:49.000Z</time><ele>1017.4</ele></trkpt><trkpt lat="45.831486" lon="9.186429"><time>2024-05-04T06:43:50.000Z</time><ele>1017.4</ele></trkpt><trkpt lat="45.831487" lon="9.186435"><time>2024-05-04T06:43:51.000Z</time><ele>1017.6</ele></trkpt><trkpt lat="45.831485" lon="9.186437"><time>2024-05-04T06:43:52.000Z</time><ele>1018</ele></trkpt><trkpt lat="45.831479" lon="9.186445"><time>2024-05-04T06:43:53.000Z</time><ele>1018.2</ele></trkpt><trkpt lat="45.831467" lon="9.186456"><time>2024-05-04T06:43:54.000Z</time><ele>1018.4</ele></trkpt><trkpt lat="45.831462" lon="9.186467"><time>2024-05-04T06:43:55.000Z</time><ele>1018.6</ele></trkpt><trkpt lat="45.831461" lon="9.186481"><time>2024-05-04T06:43:56.000Z</time><ele>1018.6</ele></trkpt><trkpt lat="45.831456" lon="9.186494"><time>2024-05-04T06:43:57.000Z</time><ele>1018.8</ele></trkpt><trkpt lat="45.831455" lon="9.186506"><time>2024-05-04T06:43:58.000Z</time><ele>1019</ele></trkpt><trkpt lat="45.831455" lon="9.186513"><time>2024-05-04T06:43:59.000Z</time><ele>1019</ele></trkpt><trkpt lat="45.831453" lon="9.186518"><time>2024-05-04T06:44:00.000Z</time><ele>1019.2</ele></trkpt><trkpt lat="45.831451" lon="9.186525"><time>2024-05-04T06:44:01.000Z</time><ele>1019.4</ele></trkpt><trkpt lat="45.831446" lon="9.186534"><time>2024-05-04T06:44:02.000Z</time><ele>1019.4</ele></trkpt><trkpt lat="45.831442" lon="9.186548"><time>2024-05-04T06:44:03.000Z</time><ele>1019.6</ele></trkpt><trkpt lat="45.831438" lon="9.186563"><time>2024-05-04T06:44:04.000Z</time><ele>1019.8</ele></trkpt><trkpt lat="45.831437" lon="9.186568"><time>2024-05-04T06:44:05.000Z</time><ele>1020</ele></trkpt><trkpt lat="45.831434" lon="9.18657"><time>2024-05-04T06:44:06.000Z</time><ele>1020.2</ele></trkpt><trkpt lat="45.831432" lon="9.186573"><time>2024-05-04T06:44:07.000Z</time><ele>1020.4</ele></trkpt><trkpt lat="45.83143" lon="9.186583"><time>2024-05-04T06:44:08.000Z</time><ele>1020.6</ele></trkpt><trkpt lat="45.831429" lon="9.18659"><time>2024-05-04T06:44:09.000Z</time><ele>1020.8</ele></trkpt><trkpt lat="45.831431" lon="9.186603"><time>2024-05-04T06:44:10.000Z</time><ele>1021</ele></trkpt><trkpt lat="45.831429" lon="9.186616"><time>2024-05-04T06:44:11.000Z</time><ele>1021</ele></trkpt><trkpt lat="45.831424" lon="9.186629"><time>2024-05-04T06:44:12.000Z</time><ele>1021.2</ele></trkpt><trkpt lat="45.83142" lon="9.18664"><time>2024-05-04T06:44:13.000Z</time><ele>1021.6</ele></trkpt><trkpt lat="45.83142" lon="9.186651"><time>2024-05-04T06:44:14.000Z</time><ele>1021.6</ele></trkpt><trkpt lat="45.831415" lon="9.186665"><time>2024-05-04T06:44:15.000Z</time><ele>1021.8</ele></trkpt><trkpt lat="45.831413" lon="9.186673"><time>2024-05-04T06:44:16.000Z</time><ele>1021.8</ele></trkpt><trkpt lat="45.831408" lon="9.186687"><time>2024-05-04T06:44:17.000Z</time><ele>1022</ele></trkpt><trkpt lat="45.831404" lon="9.186698"><time>2024-05-04T06:44:18.000Z</time><ele>1022.2</ele></trkpt><trkpt lat="45.831397" lon="9.186706"><time>2024-05-04T06:44:19.000Z</time><ele>1022.2</ele></trkpt><trkpt lat="45.831392" lon="9.186713"><time>2024-05-04T06:44:20.000Z</time><ele>1022.4</ele></trkpt><trkpt lat="45.831385" lon="9.186719"><time>2024-05-04T06:44:21.000Z</time><ele>1022.6</ele></trkpt><trkpt lat="45.831379" lon="9.186725"><time>2024-05-04T06:44:22.000Z</time><ele>1022.8</ele></trkpt><trkpt lat="45.831375" lon="9.186728"><time>2024-05-04T06:44:23.000Z</time><ele>1022.8</ele></trkpt><trkpt lat="45.831374" lon="9.186732"><time>2024-05-04T06:44:24.000Z</time><ele>1023.2</ele></trkpt><trkpt lat="45.831371" lon="9.18674"><time>2024-05-04T06:44:25.000Z</time><ele>1023.4</ele></trkpt><trkpt lat="45.831369" lon="9.186742"><time>2024-05-04T06:44:26.000Z</time><ele>1023.6</ele></trkpt><trkpt lat="45.831361" lon="9.18675"><time>2024-05-04T06:44:27.000Z</time><ele>1023.8</ele></trkpt><trkpt lat="45.831354" lon="9.186763"><time>2024-05-04T06:44:28.000Z</time><ele>1024</ele></trkpt><trkpt lat="45.831352" lon="9.186779"><time>2024-05-04T06:44:29.000Z</time><ele>1024</ele></trkpt><trkpt lat="45.831347" lon="9.186792"><time>2024-05-04T06:44:30.000Z</time><ele>1024.2</ele></trkpt><trkpt lat="45.831344" lon="9.186797"><time>2024-05-04T06:44:31.000Z</time><ele>1024.4</ele></trkpt><trkpt lat="45.831343" lon="9.186802"><time>2024-05-04T06:44:32.000Z</time><ele>1024.6</ele></trkpt><trkpt lat="45.831341" lon="9.186831"><time>2024-05-04T06:44:33.000Z</time><ele>1024.8</ele></trkpt><trkpt lat="45.831338" lon="9.18686"><time>2024-05-04T06:44:34.000Z</time><ele>1025</ele></trkpt><trkpt lat="45.831335" lon="9.186877"><time>2024-05-04T06:44:35.000Z</time><ele>1025</ele></trkpt><trkpt lat="45.831333" lon="9.186882"><time>2024-05-04T06:44:36.000Z</time><ele>1025.2</ele></trkpt><trkpt lat="45.831318" lon="9.186885"><time>2024-05-04T06:44:37.000Z</time><ele>1025.4</ele></trkpt><trkpt lat="45.831315" lon="9.186887"><time>2024-05-04T06:44:38.000Z</time><ele>1025.6</ele></trkpt><trkpt lat="45.831306" lon="9.186895"><time>2024-05-04T06:44:39.000Z</time><ele>1025.6</ele></trkpt><trkpt lat="45.831298" lon="9.186912"><time>2024-05-04T06:44:40.000Z</time><ele>1025.8</ele></trkpt><trkpt lat="45.83129" lon="9.186932"><time>2024-05-04T06:44:41.000Z</time><ele>1026</ele></trkpt><trkpt lat="45.831288" lon="9.186945"><time>2024-05-04T06:44:42.000Z</time><ele>1026</ele></trkpt><trkpt lat="45.831289" lon="9.186953"><time>2024-05-04T06:44:43.000Z</time><ele>1026.2</ele></trkpt><trkpt lat="45.831276" lon="9.18696"><time>2024-05-04T06:44:44.000Z</time><ele>1026.4</ele></trkpt><trkpt lat="45.831269" lon="9.186974"><time>2024-05-04T06:44:45.000Z</time><ele>1026.6</ele></trkpt><trkpt lat="45.831263" lon="9.18699"><time>2024-05-04T06:44:46.000Z</time><ele>1026.8</ele></trkpt><trkpt lat="45.831253" lon="9.187007"><time>2024-05-04T06:44:47.000Z</time><ele>1027</ele></trkpt><trkpt lat="45.831245" lon="9.187021"><time>2024-05-04T06:44:48.000Z</time><ele>1027</ele></trkpt><trkpt lat="45.831238" lon="9.187034"><time>2024-05-04T06:44:49.000Z</time><ele>1027.2</ele></trkpt><trkpt lat="45.831236" lon="9.187044"><time>2024-05-04T06:44:50.000Z</time><ele>1027.4</ele></trkpt><trkpt lat="45.831233" lon="9.187065"><time>2024-05-04T06:44:51.000Z</time><ele>1027.6</ele></trkpt><trkpt lat="45.831232" lon="9.187075"><time>2024-05-04T06:44:52.000Z</time><ele>1027.8</ele></trkpt><trkpt lat="45.831228" lon="9.187083"><time>2024-05-04T06:44:53.000Z</time><ele>1027.8</ele></trkpt><trkpt lat="45.831224" lon="9.187095"><time>2024-05-04T06:44:54.000Z</time><ele>1028</ele></trkpt><trkpt lat="45.831219" lon="9.187116"><time>2024-05-04T06:44:55.000Z</time><ele>1028</ele></trkpt><trkpt lat="45.831212" lon="9.187138"><time>2024-05-04T06:44:56.000Z</time><ele>1028.2</ele></trkpt><trkpt lat="45.831207" lon="9.187142"><time>2024-05-04T06:44:57.000Z</time><ele>1028.4</ele></trkpt><trkpt lat="45.831202" lon="9.187151"><time>2024-05-04T06:44:58.000Z</time><ele>1028.4</ele></trkpt><trkpt lat="45.831199" lon="9.187152"><time>2024-05-04T06:44:59.000Z</time><ele>1028.6</ele></trkpt><trkpt lat="45.831194" lon="9.187157"><time>2024-05-04T06:45:00.000Z</time><ele>1028.8</ele></trkpt><trkpt lat="45.83119" lon="9.187162"><time>2024-05-04T06:45:01.000Z</time><ele>1029.2</ele></trkpt><trkpt lat="45.831181" lon="9.187168"><time>2024-05-04T06:45:02.000Z</time><ele>1029.4</ele></trkpt><trkpt lat="45.831175" lon="9.187175"><time>2024-05-04T06:45:03.000Z</time><ele>1029.4</ele></trkpt><trkpt lat="45.83117" lon="9.187179"><time>2024-05-04T06:45:04.000Z</time><ele>1029.4</ele></trkpt><trkpt lat="45.831163" lon="9.187185"><time>2024-05-04T06:45:05.000Z</time><ele>1029.6</ele></trkpt><trkpt lat="45.83116" lon="9.187191"><time>2024-05-04T06:45:06.000Z</time><ele>1029.6</ele></trkpt><trkpt lat="45.831157" lon="9.187199"><time>2024-05-04T06:45:07.000Z</time><ele>1029.8</ele></trkpt><trkpt lat="45.831156" lon="9.187204"><time>2024-05-04T06:45:08.000Z</time><ele>1030</ele></trkpt><trkpt lat="45.831149" lon="9.187215"><time>2024-05-04T06:45:09.000Z</time><ele>1030</ele></trkpt><trkpt lat="45.831143" lon="9.187224"><time>2024-05-04T06:45:10.000Z</time><ele>1030.2</ele></trkpt><trkpt lat="45.831141" lon="9.187231"><time>2024-05-04T06:45:11.000Z</time><ele>1030.4</ele></trkpt><trkpt lat="45.831133" lon="9.187237"><time>2024-05-04T06:45:12.000Z</time><ele>1030.6</ele></trkpt><trkpt lat="45.831124" lon="9.187244"><time>2024-05-04T06:45:13.000Z</time><ele>1031</ele></trkpt><trkpt lat="45.831117" lon="9.187251"><time>2024-05-04T06:45:14.000Z</time><ele>1031</ele></trkpt><trkpt lat="45.831111" lon="9.187257"><time>2024-05-04T06:45:15.000Z</time><ele>1031.2</ele></trkpt><trkpt lat="45.831099" lon="9.18726"><time>2024-05-04T06:45:16.000Z</time><ele>1031.4</ele></trkpt><trkpt lat="45.831092" lon="9.187269"><time>2024-05-04T06:45:17.000Z</time><ele>1031.6</ele></trkpt><trkpt lat="45.831083" lon="9.187281"><time>2024-05-04T06:45:18.000Z</time><ele>1031.6</ele></trkpt><trkpt lat="45.831074" lon="9.187294"><time>2024-05-04T06:45:19.000Z</time><ele>1031.8</ele></trkpt><trkpt lat="45.831069" lon="9.18731"><time>2024-05-04T06:45:20.000Z</time><ele>1032</ele></trkpt><trkpt lat="45.831065" lon="9.187328"><time>2024-05-04T06:45:21.000Z</time><ele>1032</ele></trkpt><trkpt lat="45.83106" lon="9.187342"><time>2024-05-04T06:45:22.000Z</time><ele>1032.2</ele></trkpt><trkpt lat="45.83105" lon="9.187351"><time>2024-05-04T06:45:23.000Z</time><ele>1032.2</ele></trkpt><trkpt lat="45.83104" lon="9.18736"><time>2024-05-04T06:45:24.000Z</time><ele>1032.4</ele></trkpt><trkpt lat="45.831033" lon="9.187362"><time>2024-05-04T06:45:25.000Z</time><ele>1032.6</ele></trkpt><trkpt lat="45.83103" lon="9.187372"><time>2024-05-04T06:45:26.000Z</time><ele>1032.8</ele></trkpt><trkpt lat="45.831024" lon="9.187383"><time>2024-05-04T06:45:27.000Z</time><ele>1032.8</ele></trkpt><trkpt lat="45.831019" lon="9.187395"><time>2024-05-04T06:45:28.000Z</time><ele>1033</ele></trkpt><trkpt lat="45.831011" lon="9.187405"><time>2024-05-04T06:45:29.000Z</time><ele>1033</ele></trkpt><trkpt lat="45.831003" lon="9.187414"><time>2024-05-04T06:45:30.000Z</time><ele>1033.2</ele></trkpt><trkpt lat="45.830995" lon="9.187422"><time>2024-05-04T06:45:31.000Z</time><ele>1033.4</ele></trkpt><trkpt lat="45.830985" lon="9.18743"><time>2024-05-04T06:45:32.000Z</time><ele>1033.6</ele></trkpt><trkpt lat="45.83098" lon="9.187442"><time>2024-05-04T06:45:33.000Z</time><ele>1033.6</ele></trkpt><trkpt lat="45.830975" lon="9.187452"><time>2024-05-04T06:45:34.000Z</time><ele>1033.8</ele></trkpt><trkpt lat="45.830967" lon="9.187463"><time>2024-05-04T06:45:35.000Z</time><ele>1033.8</ele></trkpt><trkpt lat="45.83096" lon="9.187476"><time>2024-05-04T06:45:36.000Z</time><ele>1034</ele></trkpt><trkpt lat="45.830958" lon="9.187481"><time>2024-05-04T06:45:37.000Z</time><ele>1034</ele></trkpt><trkpt lat="45.830958" lon="9.187486"><time>2024-05-04T06:45:38.000Z</time><ele>1034.2</ele></trkpt><trkpt lat="45.830959" lon="9.187487"><time>2024-05-04T06:45:39.000Z</time><ele>1034.2</ele></trkpt><trkpt lat="45.830966" lon="9.187516"><time>2024-05-04T06:45:40.000Z</time><ele>1034.4</ele></trkpt><trkpt lat="45.83097" lon="9.187519"><time>2024-05-04T06:45:41.000Z</time><ele>1034.6</ele></trkpt><trkpt lat="45.830971" lon="9.18752"><time>2024-05-04T06:45:42.000Z</time><ele>1034.6</ele></trkpt><trkpt lat="45.830969" lon="9.187521"><time>2024-05-04T06:45:43.000Z</time><ele>1034.6</ele></trkpt><trkpt lat="45.830966" lon="9.187523"><time>2024-05-04T06:45:44.000Z</time><ele>1034.6</ele></trkpt><trkpt lat="45.830972" lon="9.187538"><time>2024-05-04T06:45:45.000Z</time><ele>1034.8</ele></trkpt><trkpt lat="45.830968" lon="9.187539"><time>2024-05-04T06:45:46.000Z</time><ele>1034.8</ele></trkpt><trkpt lat="45.830973" lon="9.18756"><time>2024-05-04T06:45:47.000Z</time><ele>1034.8</ele></trkpt><trkpt lat="45.830971" lon="9.187566"><time>2024-05-04T06:45:48.000Z</time><ele>1034.8</ele></trkpt><trkpt lat="45.830964" lon="9.187572"><time>2024-05-04T06:45:49.000Z</time><ele>1034.8</ele></trkpt><trkpt lat="45.830955" lon="9.187578"><time>2024-05-04T06:45:50.000Z</time><ele>1034.8</ele></trkpt><trkpt lat="45.830943" lon="9.187583"><time>2024-05-04T06:45:51.000Z</time><ele>1034.6</ele></trkpt><trkpt lat="45.830934" lon="9.187583"><time>2024-05-04T06:45:52.000Z</time><ele>1034.6</ele></trkpt><trkpt lat="45.830927" lon="9.187589"><time>2024-05-04T06:45:53.000Z</time><ele>1034.6</ele></trkpt><trkpt lat="45.830924" lon="9.187597"><time>2024-05-04T06:45:54.000Z</time><ele>1034.6</ele></trkpt><trkpt lat="45.83092" lon="9.187607"><time>2024-05-04T06:45:55.000Z</time><ele>1034.8</ele></trkpt><trkpt lat="45.830917" lon="9.187616"><time>2024-05-04T06:45:56.000Z</time><ele>1034.8</ele></trkpt><trkpt lat="45.830914" lon="9.187622"><time>2024-05-04T06:45:57.000Z</time><ele>1035</ele></trkpt><trkpt lat="45.830908" lon="9.187629"><time>2024-05-04T06:45:58.000Z</time><ele>1035.2</ele></trkpt><trkpt lat="45.830905" lon="9.187635"><time>2024-05-04T06:45:59.000Z</time><ele>1035.4</ele></trkpt><trkpt lat="45.830904" lon="9.187644"><time>2024-05-04T06:46:00.000Z</time><ele>1035.4</ele></trkpt><trkpt lat="45.830904" lon="9.187649"><time>2024-05-04T06:46:01.000Z</time><ele>1035.6</ele></trkpt><trkpt lat="45.830903" lon="9.187652"><time>2024-05-04T06:46:02.000Z</time><ele>1035.6</ele></trkpt><trkpt lat="45.830902" lon="9.187656"><time>2024-05-04T06:46:03.000Z</time><ele>1035.6</ele></trkpt><trkpt lat="45.830896" lon="9.187662"><time>2024-05-04T06:46:04.000Z</time><ele>1035.8</ele></trkpt><trkpt lat="45.830894" lon="9.187664"><time>2024-05-04T06:46:05.000Z</time><ele>1036</ele></trkpt><trkpt lat="45.830891" lon="9.187669"><time>2024-05-04T06:46:06.000Z</time><ele>1036.2</ele></trkpt><trkpt lat="45.830891" lon="9.187672"><time>2024-05-04T06:46:07.000Z</time><ele>1036.4</ele></trkpt><trkpt lat="45.830893" lon="9.187675"><time>2024-05-04T06:46:08.000Z</time><ele>1036.6</ele></trkpt><trkpt lat="45.830892" lon="9.187681"><time>2024-05-04T06:46:09.000Z</time><ele>1036.8</ele></trkpt><trkpt lat="45.830891" lon="9.187686"><time>2024-05-04T06:46:10.000Z</time><ele>1037</ele></trkpt><trkpt lat="45.830889" lon="9.187688"><time>2024-05-04T06:46:11.000Z</time><ele>1037</ele></trkpt><trkpt lat="45.830887" lon="9.187692"><time>2024-05-04T06:46:12.000Z</time><ele>1037</ele></trkpt><trkpt lat="45.830885" lon="9.187696"><time>2024-05-04T06:46:13.000Z</time><ele>1037</ele></trkpt><trkpt lat="45.830882" lon="9.187697"><time>2024-05-04T06:46:14.000Z</time><ele>1037</ele></trkpt><trkpt lat="45.830881" lon="9.187696"><time>2024-05-04T06:46:15.000Z</time><ele>1037</ele></trkpt><trkpt lat="45.83088" lon="9.187694"><time>2024-05-04T06:46:16.000Z</time><ele>1037</ele></trkpt><trkpt lat="45.830879" lon="9.187694"><time>2024-05-04T06:46:17.000Z</time><ele>1037</ele></trkpt><trkpt lat="45.830878" lon="9.187695"><time>2024-05-04T06:46:18.000Z</time><ele>1037</ele></trkpt><trkpt lat="45.830879" lon="9.187698"><time>2024-05-04T06:46:19.000Z</time><ele>1036.8</ele></trkpt><trkpt lat="45.830879" lon="9.187699"><time>2024-05-04T06:46:20.000Z</time><ele>1036.6</ele></trkpt><trkpt lat="45.830879" lon="9.187699"><time>2024-05-04T06:46:21.000Z</time><ele>1036.6</ele></trkpt><trkpt lat="45.830879" lon="9.187699"><time>2024-05-04T06:46:22.000Z</time><ele>1036.4</ele></trkpt><trkpt lat="45.830879" lon="9.187699"><time>2024-05-04T06:46:23.000Z</time><ele>1036.4</ele></trkpt><trkpt lat="45.830879" lon="9.187699"><time>2024-05-04T06:46:24.000Z</time><ele>1036.2</ele></trkpt><trkpt lat="45.830879" lon="9.187699"><time>2024-05-04T06:46:25.000Z</time><ele>1036.2</ele></trkpt><trkpt lat="45.830879" lon="9.187699"><time>2024-05-04T06:46:26.000Z</time><ele>1036.2</ele></trkpt><trkpt lat="45.830879" lon="9.187699"><time>2024-05-04T06:46:27.000Z</time><ele>1036.2</ele></trkpt><trkpt lat="45.830879" lon="9.187698"><time>2024-05-04T06:46:28.000Z</time><ele>1036.2</ele></trkpt><trkpt lat="45.830879" lon="9.187698"><time>2024-05-04T06:46:29.000Z</time><ele>1036.2</ele></trkpt><trkpt lat="45.830879" lon="9.187698"><time>2024-05-04T06:46:30.000Z</time><ele>1036.2</ele></trkpt><trkpt lat="45.830879" lon="9.187698"><time>2024-05-04T06:46:31.000Z</time><ele>1036.2</ele></trkpt><trkpt lat="45.830879" lon="9.187698"><time>2024-05-04T06:46:32.000Z</time><ele>1036.2</ele></trkpt><trkpt lat="45.830879" lon="9.187698"><time>2024-05-04T06:46:33.000Z</time><ele>1036.2</ele></trkpt><trkpt lat="45.830879" lon="9.187698"><time>2024-05-04T06:46:34.000Z</time><ele>1036.2</ele></trkpt><trkpt lat="45.830879" lon="9.187698"><time>2024-05-04T06:46:35.000Z</time><ele>1036.2</ele></trkpt><trkpt lat="45.830879" lon="9.187698"><time>2024-05-04T06:46:36.000Z</time><ele>1036.2</ele></trkpt><trkpt lat="45.830879" lon="9.187698"><time>2024-05-04T06:46:37.000Z</time><ele>1036.2</ele></trkpt><trkpt lat="45.830879" lon="9.187698"><time>2024-05-04T06:46:38.000Z</time><ele>1036.2</ele></trkpt><trkpt lat="45.830879" lon="9.187698"><time>2024-05-04T06:46:39.000Z</time><ele>1036.2</ele></trkpt><trkpt lat="45.830879" lon="9.187698"><time>2024-05-04T06:46:40.000Z</time><ele>1036.2</ele></trkpt><trkpt lat="45.830879" lon="9.187697"><time>2024-05-04T06:46:41.000Z</time><ele>1036.2</ele></trkpt><trkpt lat="45.830879" lon="9.187697"><time>2024-05-04T06:46:42.000Z</time><ele>1036.2</ele></trkpt><trkpt lat="45.830879" lon="9.187698"><time>2024-05-04T06:46:43.000Z</time><ele>1036.2</ele></trkpt><trkpt lat="45.830879" lon="9.187698"><time>2024-05-04T06:46:44.000Z</time><ele>1036.2</ele></trkpt><trkpt lat="45.830879" lon="9.187698"><time>2024-05-04T06:46:45.000Z</time><ele>1036.2</ele></trkpt><trkpt lat="45.830879" lon="9.187698"><time>2024-05-04T06:46:46.000Z</time><ele>1036.2</ele></trkpt><trkpt lat="45.830879" lon="9.187699"><time>2024-05-04T06:46:47.000Z</time><ele>1036.2</ele></trkpt><trkpt lat="45.830879" lon="9.187699"><time>2024-05-04T06:46:48.000Z</time><ele>1036.2</ele></trkpt><trkpt lat="45.830879" lon="9.1877"><time>2024-05-04T06:46:49.000Z</time><ele>1036.2</ele></trkpt><trkpt lat="45.830879" lon="9.1877"><time>2024-05-04T06:46:50.000Z</time><ele>1036.2</ele></trkpt><trkpt lat="45.830879" lon="9.1877"><time>2024-05-04T06:46:51.000Z</time><ele>1036.2</ele></trkpt><trkpt lat="45.830879" lon="9.1877"><time>2024-05-04T06:46:52.000Z</time><ele>1036.4</ele></trkpt><trkpt lat="45.830879" lon="9.1877"><time>2024-05-04T06:46:53.000Z</time><ele>1036.4</ele></trkpt><trkpt lat="45.83088" lon="9.187701"><time>2024-05-04T06:46:54.000Z</time><ele>1036.4</ele></trkpt><trkpt lat="45.83088" lon="9.187701"><time>2024-05-04T06:46:55.000Z</time><ele>1036.4</ele></trkpt><trkpt lat="45.83088" lon="9.187701"><time>2024-05-04T06:46:56.000Z</time><ele>1036.4</ele></trkpt><trkpt lat="45.830881" lon="9.187701"><time>2024-05-04T06:46:57.000Z</time><ele>1036.4</ele></trkpt><trkpt lat="45.830882" lon="9.187702"><time>2024-05-04T06:46:58.000Z</time><ele>1036.4</ele></trkpt><trkpt lat="45.830882" lon="9.187706"><time>2024-05-04T06:46:59.000Z</time><ele>1036.6</ele></trkpt><trkpt lat="45.830882" lon="9.187707"><time>2024-05-04T06:47:00.000Z</time><ele>1036.8</ele></trkpt><trkpt lat="45.830882" lon="9.187709"><time>2024-05-04T06:47:01.000Z</time><ele>1036.8</ele></trkpt><trkpt lat="45.830886" lon="9.18771"><time>2024-05-04T06:47:02.000Z</time><ele>1037</ele></trkpt><trkpt lat="45.830892" lon="9.187711"><time>2024-05-04T06:47:03.000Z</time><ele>1037</ele></trkpt><trkpt lat="45.830898" lon="9.187711"><time>2024-05-04T06:47:04.000Z</time><ele>1037</ele></trkpt><trkpt lat="45.830898" lon="9.187711"><time>2024-05-04T06:47:05.000Z</time><ele>1037</ele></trkpt><trkpt lat="45.830915" lon="9.187712"><time>2024-05-04T06:47:06.000Z</time><ele>1037</ele></trkpt><trkpt lat="45.830924" lon="9.187712"><time>2024-05-04T06:47:07.000Z</time><ele>1036.8</ele></trkpt><trkpt lat="45.830932" lon="9.187712"><time>2024-05-04T06:47:08.000Z</time><ele>1036.8</ele></trkpt><trkpt lat="45.830938" lon="9.187713"><time>2024-05-04T06:47:09.000Z</time><ele>1036.8</ele></trkpt><trkpt lat="45.830954" lon="9.187718"><time>2024-05-04T06:47:10.000Z</time><ele>1036.8</ele></trkpt><trkpt lat="45.830971" lon="9.18772"><time>2024-05-04T06:47:11.000Z</time><ele>1036.8</ele></trkpt><trkpt lat="45.830986" lon="9.187721"><time>2024-05-04T06:47:12.000Z</time><ele>1036.8</ele></trkpt><trkpt lat="45.831" lon="9.187722"><time>2024-05-04T06:47:13.000Z</time><ele>1037</ele></trkpt><trkpt lat="45.831014" lon="9.187722"><time>2024-05-04T06:47:14.000Z</time><ele>1037</ele></trkpt><trkpt lat="45.831027" lon="9.187726"><time>2024-05-04T06:47:15.000Z</time><ele>1037.2</ele></trkpt><trkpt lat="45.831042" lon="9.18773"><time>2024-05-04T06:47:16.000Z</time><ele>1037.2</ele></trkpt><trkpt lat="45.831054" lon="9.187734"><time>2024-05-04T06:47:17.000Z</time><ele>1037.4</ele></trkpt><trkpt lat="45.83106" lon="9.187737"><time>2024-05-04T06:47:18.000Z</time><ele>1037.4</ele></trkpt><trkpt lat="45.831055" lon="9.187736"><time>2024-05-04T06:47:19.000Z</time><ele>1037.4</ele></trkpt><trkpt lat="45.831057" lon="9.187738"><time>2024-05-04T06:47:20.000Z</time><ele>1037.6</ele></trkpt><trkpt lat="45.831057" lon="9.187739"><time>2024-05-04T06:47:21.000Z</time><ele>1037.6</ele></trkpt><trkpt lat="45.831056" lon="9.187739"><time>2024-05-04T06:47:22.000Z</time><ele>1037.8</ele></trkpt><trkpt lat="45.831057" lon="9.187739"><time>2024-05-04T06:47:23.000Z</time><ele>1037.8</ele></trkpt><trkpt lat="45.831058" lon="9.18774"><time>2024-05-04T06:47:24.000Z</time><ele>1038</ele></trkpt><trkpt lat="45.831058" lon="9.18774"><time>2024-05-04T06:47:25.000Z</time><ele>1038</ele></trkpt><trkpt lat="45.831057" lon="9.187741"><time>2024-05-04T06:47:26.000Z</time><ele>1038</ele></trkpt><trkpt lat="45.831058" lon="9.187741"><time>2024-05-04T06:47:27.000Z</time><ele>1038</ele></trkpt><trkpt lat="45.831059" lon="9.187741"><time>2024-05-04T06:47:28.000Z</time><ele>1038</ele></trkpt><trkpt lat="45.831061" lon="9.187738"><time>2024-05-04T06:47:29.000Z</time><ele>1038</ele></trkpt><trkpt lat="45.831062" lon="9.18774"><time>2024-05-04T06:47:30.000Z</time><ele>1037.8</ele></trkpt><trkpt lat="45.831064" lon="9.187742"><time>2024-05-04T06:47:31.000Z</time><ele>1038</ele></trkpt><trkpt lat="45.831064" lon="9.18774"><time>2024-05-04T06:47:32.000Z</time><ele>1038</ele></trkpt><trkpt lat="45.831066" lon="9.18774"><time>2024-05-04T06:47:33.000Z</time><ele>1037.8</ele></trkpt><trkpt lat="45.831067" lon="9.187739"><time>2024-05-04T06:47:34.000Z</time><ele>1038</ele></trkpt><trkpt lat="45.83107" lon="9.187738"><time>2024-05-04T06:47:35.000Z</time><ele>1038</ele></trkpt><trkpt lat="45.831072" lon="9.187736"><time>2024-05-04T06:47:36.000Z</time><ele>1038</ele></trkpt><trkpt lat="45.831075" lon="9.187735"><time>2024-05-04T06:47:37.000Z</time><ele>1038</ele></trkpt><trkpt lat="45.831076" lon="9.187734"><time>2024-05-04T06:47:38.000Z</time><ele>1038</ele></trkpt><trkpt lat="45.831076" lon="9.187733"><time>2024-05-04T06:47:39.000Z</time><ele>1038</ele></trkpt><trkpt lat="45.831076" lon="9.187733"><time>2024-05-04T06:47:40.000Z</time><ele>1038</ele></trkpt><trkpt lat="45.831076" lon="9.187733"><time>2024-05-04T06:47:41.000Z</time><ele>1038</ele></trkpt><trkpt lat="45.831076" lon="9.187733"><time>2024-05-04T06:47:42.000Z</time><ele>1038</ele></trkpt><trkpt lat="45.831076" lon="9.187733"><time>2024-05-04T06:47:43.000Z</time><ele>1038</ele></trkpt><trkpt lat="45.831076" lon="9.187733"><time>2024-05-04T06:47:44.000Z</time><ele>1038</ele></trkpt><trkpt lat="45.831076" lon="9.187733"><time>2024-05-04T06:47:45.000Z</time><ele>1038</ele></trkpt><trkpt lat="45.831076" lon="9.187733"><time>2024-05-04T06:47:46.000Z</time><ele>1038.2</ele></trkpt><trkpt lat="45.831076" lon="9.187734"><time>2024-05-04T06:47:47.000Z</time><ele>1038.2</ele></trkpt><trkpt lat="45.831076" lon="9.187734"><time>2024-05-04T06:47:48.000Z</time><ele>1038.2</ele></trkpt><trkpt lat="45.831076" lon="9.187735"><time>2024-05-04T06:47:49.000Z</time><ele>1038.4</ele></trkpt><trkpt lat="45.831076" lon="9.187735"><time>2024-05-04T06:47:50.000Z</time><ele>1038.4</ele></trkpt><trkpt lat="45.831076" lon="9.187735"><time>2024-05-04T06:47:51.000Z</time><ele>1038.4</ele></trkpt><trkpt lat="45.831076" lon="9.187735"><time>2024-05-04T06:47:52.000Z</time><ele>1038.4</ele></trkpt><trkpt lat="45.831076" lon="9.187735"><time>2024-05-04T06:47:53.000Z</time><ele>1038.4</ele></trkpt><trkpt lat="45.831076" lon="9.187735"><time>2024-05-04T06:47:54.000Z</time><ele>1038.2</ele></trkpt><trkpt lat="45.831076" lon="9.187735"><time>2024-05-04T06:47:55.000Z</time><ele>1038.2</ele></trkpt><trkpt lat="45.831076" lon="9.187736"><time>2024-05-04T06:47:56.000Z</time><ele>1038.2</ele></trkpt><trkpt lat="45.831076" lon="9.187736"><time>2024-05-04T06:47:57.000Z</time><ele>1038.2</ele></trkpt><trkpt lat="45.831076" lon="9.187736"><time>2024-05-04T06:47:58.000Z</time><ele>1038.2</ele></trkpt><trkpt lat="45.831076" lon="9.187736"><time>2024-05-04T06:47:59.000Z</time><ele>1038.2</ele></trkpt><trkpt lat="45.831079" lon="9.187741"><time>2024-05-04T06:48:00.000Z</time><ele>1038.2</ele></trkpt><trkpt lat="45.831088" lon="9.187752"><time>2024-05-04T06:48:01.000Z</time><ele>1038.4</ele></trkpt><trkpt lat="45.831099" lon="9.187754"><time>2024-05-04T06:48:02.000Z</time><ele>1038.6</ele></trkpt><trkpt lat="45.831114" lon="9.187753"><time>2024-05-04T06:48:03.000Z</time><ele>1038.6</ele></trkpt><trkpt lat="45.831129" lon="9.187754"><time>2024-05-04T06:48:04.000Z</time><ele>1038.8</ele></trkpt><trkpt lat="45.831147" lon="9.187763"><time>2024-05-04T06:48:05.000Z</time><ele>1039</ele></trkpt><trkpt lat="45.831153" lon="9.187767"><time>2024-05-04T06:48:06.000Z</time><ele>1039.2</ele></trkpt><trkpt lat="45.831157" lon="9.18777"><time>2024-05-04T06:48:07.000Z</time><ele>1039.2</ele></trkpt><trkpt lat="45.831162" lon="9.187772"><time>2024-05-04T06:48:08.000Z</time><ele>1039.4</ele></trkpt><trkpt lat="45.831169" lon="9.18777"><time>2024-05-04T06:48:09.000Z</time><ele>1039.4</ele></trkpt><trkpt lat="45.831173" lon="9.187767"><time>2024-05-04T06:48:10.000Z</time><ele>1039.6</ele></trkpt><trkpt lat="45.831176" lon="9.187767"><time>2024-05-04T06:48:11.000Z</time><ele>1039.8</ele></trkpt><trkpt lat="45.831175" lon="9.187768"><time>2024-05-04T06:48:12.000Z</time><ele>1040</ele></trkpt><trkpt lat="45.831174" lon="9.187769"><time>2024-05-04T06:48:13.000Z</time><ele>1040.2</ele></trkpt><trkpt lat="45.831183" lon="9.18777"><time>2024-05-04T06:48:14.000Z</time><ele>1040.2</ele></trkpt><trkpt lat="45.831196" lon="9.187769"><time>2024-05-04T06:48:15.000Z</time><ele>1040.4</ele></trkpt><trkpt lat="45.83121" lon="9.187766"><time>2024-05-04T06:48:16.000Z</time><ele>1040.6</ele></trkpt><trkpt lat="45.831214" lon="9.187766"><time>2024-05-04T06:48:17.000Z</time><ele>1040.6</ele></trkpt><trkpt lat="45.831213" lon="9.187767"><time>2024-05-04T06:48:18.000Z</time><ele>1040.6</ele></trkpt><trkpt lat="45.831218" lon="9.187768"><time>2024-05-04T06:48:19.000Z</time><ele>1040.8</ele></trkpt><trkpt lat="45.831221" lon="9.187769"><time>2024-05-04T06:48:20.000Z</time><ele>1041</ele></trkpt><trkpt lat="45.831229" lon="9.187764"><time>2024-05-04T06:48:21.000Z</time><ele>1041</ele></trkpt><trkpt lat="45.831241" lon="9.187759"><time>2024-05-04T06:48:22.000Z</time><ele>1041.2</ele></trkpt><trkpt lat="45.831247" lon="9.187756"><time>2024-05-04T06:48:23.000Z</time><ele>1041.4</ele></trkpt><trkpt lat="45.831253" lon="9.187754"><time>2024-05-04T06:48:24.000Z</time><ele>1041.4</ele></trkpt><trkpt lat="45.831263" lon="9.18776"><time>2024-05-04T06:48:25.000Z</time><ele>1041.6</ele></trkpt><trkpt lat="45.83127" lon="9.187764"><time>2024-05-04T06:48:26.000Z</time><ele>1041.8</ele></trkpt><trkpt lat="45.831277" lon="9.187765"><time>2024-05-04T06:48:27.000Z</time><ele>1042</ele></trkpt><trkpt lat="45.831288" lon="9.187765"><time>2024-05-04T06:48:28.000Z</time><ele>1042.2</ele></trkpt><trkpt lat="45.831293" lon="9.187767"><time>2024-05-04T06:48:29.000Z</time><ele>1042.4</ele></trkpt><trkpt lat="45.831305" lon="9.187767"><time>2024-05-04T06:48:30.000Z</time><ele>1042.6</ele></trkpt><trkpt lat="45.831316" lon="9.187767"><time>2024-05-04T06:48:31.000Z</time><ele>1042.8</ele></trkpt><trkpt lat="45.831331" lon="9.187767"><time>2024-05-04T06:48:32.000Z</time><ele>1042.8</ele></trkpt><trkpt lat="45.831341" lon="9.187765"><time>2024-05-04T06:48:33.000Z</time><ele>1043</ele></trkpt><trkpt lat="45.831354" lon="9.18777"><time>2024-05-04T06:48:34.000Z</time><ele>1043</ele></trkpt><trkpt lat="45.831364" lon="9.187775"><time>2024-05-04T06:48:35.000Z</time><ele>1043.4</ele></trkpt><trkpt lat="45.831373" lon="9.187774"><time>2024-05-04T06:48:36.000Z</time><ele>1043.6</ele></trkpt><trkpt lat="45.831378" lon="9.187772"><time>2024-05-04T06:48:37.000Z</time><ele>1043.8</ele></trkpt><trkpt lat="45.831384" lon="9.187772"><time>2024-05-04T06:48:38.000Z</time><ele>1044</ele></trkpt><trkpt lat="45.831387" lon="9.187774"><time>2024-05-04T06:48:39.000Z</time><ele>1044</ele></trkpt><trkpt lat="45.83139" lon="9.187778"><time>2024-05-04T06:48:40.000Z</time><ele>1044</ele></trkpt><trkpt lat="45.831398" lon="9.187777"><time>2024-05-04T06:48:41.000Z</time><ele>1044</ele></trkpt><trkpt lat="45.83141" lon="9.187769"><time>2024-05-04T06:48:42.000Z</time><ele>1044.2</ele></trkpt><trkpt lat="45.831424" lon="9.187766"><time>2024-05-04T06:48:43.000Z</time><ele>1044.6</ele></trkpt><trkpt lat="45.83143" lon="9.187766"><time>2024-05-04T06:48:44.000Z</time><ele>1044.8</ele></trkpt><trkpt lat="45.831438" lon="9.187763"><time>2024-05-04T06:48:45.000Z</time><ele>1044.8</ele></trkpt><trkpt lat="45.831444" lon="9.187757"><time>2024-05-04T06:48:46.000Z</time><ele>1045</ele></trkpt><trkpt lat="45.831455" lon="9.187752"><time>2024-05-04T06:48:47.000Z</time><ele>1045.2</ele></trkpt><trkpt lat="45.831465" lon="9.187751"><time>2024-05-04T06:48:48.000Z</time><ele>1045.4</ele></trkpt><trkpt lat="45.831469" lon="9.187751"><time>2024-05-04T06:48:49.000Z</time><ele>1045.4</ele></trkpt><trkpt lat="45.831477" lon="9.187751"><time>2024-05-04T06:48:50.000Z</time><ele>1045.6</ele></trkpt><trkpt lat="45.831488" lon="9.18775"><time>2024-05-04T06:48:51.000Z</time><ele>1045.8</ele></trkpt><trkpt lat="45.831502" lon="9.187753"><time>2024-05-04T06:48:52.000Z</time><ele>1046</ele></trkpt><trkpt lat="45.831514" lon="9.187757"><time>2024-05-04T06:48:53.000Z</time><ele>1046.2</ele></trkpt><trkpt lat="45.831521" lon="9.187751"><time>2024-05-04T06:48:54.000Z</time><ele>1046.4</ele></trkpt><trkpt lat="45.831535" lon="9.18775"><time>2024-05-04T06:48:55.000Z</time><ele>1046.6</ele></trkpt><trkpt lat="45.831549" lon="9.187743"><time>2024-05-04T06:48:56.000Z</time><ele>1046.8</ele></trkpt><trkpt lat="45.831565" lon="9.187738"><time>2024-05-04T06:48:57.000Z</time><ele>1047</ele></trkpt><trkpt lat="45.831578" lon="9.187735"><time>2024-05-04T06:48:58.000Z</time><ele>1047</ele></trkpt><trkpt lat="45.831578" lon="9.187735"><time>2024-05-04T06:48:59.000Z</time><ele>1047</ele></trkpt><trkpt lat="45.831598" lon="9.187734"><time>2024-05-04T06:49:00.000Z</time><ele>1047</ele></trkpt><trkpt lat="45.83161" lon="9.187737"><time>2024-05-04T06:49:01.000Z</time><ele>1047.2</ele></trkpt><trkpt lat="45.831622" lon="9.187748"><time>2024-05-04T06:49:02.000Z</time><ele>1047.4</ele></trkpt><trkpt lat="45.831633" lon="9.187748"><time>2024-05-04T06:49:03.000Z</time><ele>1047.6</ele></trkpt><trkpt lat="45.831644" lon="9.18775"><time>2024-05-04T06:49:04.000Z</time><ele>1047.8</ele></trkpt><trkpt lat="45.831653" lon="9.187752"><time>2024-05-04T06:49:05.000Z</time><ele>1048</ele></trkpt><trkpt lat="45.831656" lon="9.187749"><time>2024-05-04T06:49:06.000Z</time><ele>1048.2</ele></trkpt><trkpt lat="45.831657" lon="9.187744"><time>2024-05-04T06:49:07.000Z</time><ele>1048.2</ele></trkpt><trkpt lat="45.831664" lon="9.187739"><time>2024-05-04T06:49:08.000Z</time><ele>1048.4</ele></trkpt><trkpt lat="45.831665" lon="9.187735"><time>2024-05-04T06:49:09.000Z</time><ele>1048.6</ele></trkpt><trkpt lat="45.831676" lon="9.187731"><time>2024-05-04T06:49:10.000Z</time><ele>1048.8</ele></trkpt><trkpt lat="45.831686" lon="9.187726"><time>2024-05-04T06:49:11.000Z</time><ele>1049</ele></trkpt><trkpt lat="45.8317" lon="9.187723"><time>2024-05-04T06:49:12.000Z</time><ele>1049.2</ele></trkpt><trkpt lat="45.831709" lon="9.18772"><time>2024-05-04T06:49:13.000Z</time><ele>1049.2</ele></trkpt><trkpt lat="45.831718" lon="9.18772"><time>2024-05-04T06:49:14.000Z</time><ele>1049.4</ele></trkpt><trkpt lat="45.831724" lon="9.187723"><time>2024-05-04T06:49:15.000Z</time><ele>1049.6</ele></trkpt><trkpt lat="45.831731" lon="9.187743"><time>2024-05-04T06:49:16.000Z</time><ele>1049.8</ele></trkpt><trkpt lat="45.831733" lon="9.187754"><time>2024-05-04T06:49:17.000Z</time><ele>1049.8</ele></trkpt><trkpt lat="45.831733" lon="9.18776"><time>2024-05-04T06:49:18.000Z</time><ele>1050</ele></trkpt><trkpt lat="45.831732" lon="9.187765"><time>2024-05-04T06:49:19.000Z</time><ele>1050.2</ele></trkpt><trkpt lat="45.831737" lon="9.187772"><time>2024-05-04T06:49:20.000Z</time><ele>1050.2</ele></trkpt><trkpt lat="45.831743" lon="9.18777"><time>2024-05-04T06:49:21.000Z</time><ele>1050.6</ele></trkpt><trkpt lat="45.831748" lon="9.187768"><time>2024-05-04T06:49:22.000Z</time><ele>1050.6</ele></trkpt><trkpt lat="45.831751" lon="9.187769"><time>2024-05-04T06:49:23.000Z</time><ele>1050.8</ele></trkpt><trkpt lat="45.831756" lon="9.187769"><time>2024-05-04T06:49:24.000Z</time><ele>1051</ele></trkpt><trkpt lat="45.831765" lon="9.187769"><time>2024-05-04T06:49:25.000Z</time><ele>1051</ele></trkpt><trkpt lat="45.831773" lon="9.187766"><time>2024-05-04T06:49:26.000Z</time><ele>1051</ele></trkpt><trkpt lat="45.831782" lon="9.187764"><time>2024-05-04T06:49:27.000Z</time><ele>1051.2</ele></trkpt><trkpt lat="45.831804" lon="9.187757"><time>2024-05-04T06:49:28.000Z</time><ele>1051.4</ele></trkpt><trkpt lat="45.831805" lon="9.187757"><time>2024-05-04T06:49:29.000Z</time><ele>1051.8</ele></trkpt><trkpt lat="45.831808" lon="9.187758"><time>2024-05-04T06:49:30.000Z</time><ele>1052</ele></trkpt><trkpt lat="45.831812" lon="9.187755"><time>2024-05-04T06:49:31.000Z</time><ele>1052.2</ele></trkpt><trkpt lat="45.831822" lon="9.187751"><time>2024-05-04T06:49:32.000Z</time><ele>1052.2</ele></trkpt><trkpt lat="45.831827" lon="9.187747"><time>2024-05-04T06:49:33.000Z</time><ele>1052.4</ele></trkpt><trkpt lat="45.83183" lon="9.187751"><time>2024-05-04T06:49:34.000Z</time><ele>1052.6</ele></trkpt><trkpt lat="45.831833" lon="9.187748"><time>2024-05-04T06:49:35.000Z</time><ele>1052.6</ele></trkpt><trkpt lat="45.831837" lon="9.187749"><time>2024-05-04T06:49:36.000Z</time><ele>1052.8</ele></trkpt><trkpt lat="45.831843" lon="9.187746"><time>2024-05-04T06:49:37.000Z</time><ele>1052.8</ele></trkpt><trkpt lat="45.831848" lon="9.187746"><time>2024-05-04T06:49:38.000Z</time><ele>1053</ele></trkpt><trkpt lat="45.83185" lon="9.18775"><time>2024-05-04T06:49:39.000Z</time><ele>1053</ele></trkpt><trkpt lat="45.831856" lon="9.187751"><time>2024-05-04T06:49:40.000Z</time><ele>1053.2</ele></trkpt><trkpt lat="45.831861" lon="9.187753"><time>2024-05-04T06:49:41.000Z</time><ele>1053.4</ele></trkpt><trkpt lat="45.831864" lon="9.187758"><time>2024-05-04T06:49:42.000Z</time><ele>1053.4</ele></trkpt><trkpt lat="45.831872" lon="9.187762"><time>2024-05-04T06:49:43.000Z</time><ele>1053.6</ele></trkpt><trkpt lat="45.831887" lon="9.18776"><time>2024-05-04T06:49:44.000Z</time><ele>1053.6</ele></trkpt><trkpt lat="45.831891" lon="9.187758"><time>2024-05-04T06:49:45.000Z</time><ele>1053.8</ele></trkpt><trkpt lat="45.831895" lon="9.187759"><time>2024-05-04T06:49:46.000Z</time><ele>1054</ele></trkpt><trkpt lat="45.831901" lon="9.187765"><time>2024-05-04T06:49:47.000Z</time><ele>1054.2</ele></trkpt><trkpt lat="45.831909" lon="9.187771"><time>2024-05-04T06:49:48.000Z</time><ele>1054.4</ele></trkpt><trkpt lat="45.831922" lon="9.18777"><time>2024-05-04T06:49:49.000Z</time><ele>1054.6</ele></trkpt><trkpt lat="45.831933" lon="9.187769"><time>2024-05-04T06:49:50.000Z</time><ele>1054.8</ele></trkpt><trkpt lat="45.831948" lon="9.18777"><time>2024-05-04T06:49:51.000Z</time><ele>1054.8</ele></trkpt><trkpt lat="45.831957" lon="9.18777"><time>2024-05-04T06:49:52.000Z</time><ele>1055</ele></trkpt><trkpt lat="45.831964" lon="9.187771"><time>2024-05-04T06:49:53.000Z</time><ele>1055.2</ele></trkpt><trkpt lat="45.831968" lon="9.187772"><time>2024-05-04T06:49:54.000Z</time><ele>1055.4</ele></trkpt><trkpt lat="45.831971" lon="9.187767"><time>2024-05-04T06:49:55.000Z</time><ele>1055.4</ele></trkpt><trkpt lat="45.831983" lon="9.187764"><time>2024-05-04T06:49:56.000Z</time><ele>1055.6</ele></trkpt><trkpt lat="45.831993" lon="9.187761"><time>2024-05-04T06:49:57.000Z</time><ele>1055.6</ele></trkpt><trkpt lat="45.832005" lon="9.187758"><time>2024-05-04T06:49:58.000Z</time><ele>1055.8</ele></trkpt><trkpt lat="45.832014" lon="9.187752"><time>2024-05-04T06:49:59.000Z</time><ele>1055.8</ele></trkpt><trkpt lat="45.832024" lon="9.187751"><time>2024-05-04T06:50:00.000Z</time><ele>1056</ele></trkpt><trkpt lat="45.832034" lon="9.187757"><time>2024-05-04T06:50:01.000Z</time><ele>1056.2</ele></trkpt><trkpt lat="45.832045" lon="9.187763"><time>2024-05-04T06:50:02.000Z</time><ele>1056.4</ele></trkpt><trkpt lat="45.832053" lon="9.18776"><time>2024-05-04T06:50:03.000Z</time><ele>1056.4</ele></trkpt><trkpt lat="45.832061" lon="9.187763"><time>2024-05-04T06:50:04.000Z</time><ele>1056.6</ele></trkpt><trkpt lat="45.832069" lon="9.187762"><time>2024-05-04T06:50:05.000Z</time><ele>1056.6</ele></trkpt><trkpt lat="45.832082" lon="9.187758"><time>2024-05-04T06:50:06.000Z</time><ele>1056.8</ele></trkpt><trkpt lat="45.832092" lon="9.18776"><time>2024-05-04T06:50:07.000Z</time><ele>1056.8</ele></trkpt><trkpt lat="45.832102" lon="9.187767"><time>2024-05-04T06:50:08.000Z</time><ele>1057</ele></trkpt><trkpt lat="45.832108" lon="9.187771"><time>2024-05-04T06:50:09.000Z</time><ele>1057.2</ele></trkpt><trkpt lat="45.832115" lon="9.187775"><time>2024-05-04T06:50:10.000Z</time><ele>1057.2</ele></trkpt><trkpt lat="45.832124" lon="9.187779"><time>2024-05-04T06:50:11.000Z</time><ele>1057.4</ele></trkpt><trkpt lat="45.832132" lon="9.187784"><time>2024-05-04T06:50:12.000Z</time><ele>1057.6</ele></trkpt><trkpt lat="45.83214" lon="9.187787"><time>2024-05-04T06:50:13.000Z</time><ele>1057.8</ele></trkpt><trkpt lat="45.832144" lon="9.187789"><time>2024-05-04T06:50:14.000Z</time><ele>1058</ele></trkpt><trkpt lat="45.832149" lon="9.187795"><time>2024-05-04T06:50:15.000Z</time><ele>1058</ele></trkpt><trkpt lat="45.832159" lon="9.187799"><time>2024-05-04T06:50:16.000Z</time><ele>1058.2</ele></trkpt><trkpt lat="45.832168" lon="9.187801"><time>2024-05-04T06:50:17.000Z</time><ele>1058.2</ele></trkpt><trkpt lat="45.832176" lon="9.187802"><time>2024-05-04T06:50:18.000Z</time><ele>1058.2</ele></trkpt><trkpt lat="45.83218" lon="9.187804"><time>2024-05-04T06:50:19.000Z</time><ele>1058.6</ele></trkpt><trkpt lat="45.832186" lon="9.187808"><time>2024-05-04T06:50:20.000Z</time><ele>1058.8</ele></trkpt><trkpt lat="45.832193" lon="9.187811"><time>2024-05-04T06:50:21.000Z</time><ele>1059</ele></trkpt><trkpt lat="45.832201" lon="9.187811"><time>2024-05-04T06:50:22.000Z</time><ele>1059</ele></trkpt><trkpt lat="45.832209" lon="9.187814"><time>2024-05-04T06:50:23.000Z</time><ele>1059.2</ele></trkpt><trkpt lat="45.83222" lon="9.187815"><time>2024-05-04T06:50:24.000Z</time><ele>1059.2</ele></trkpt><trkpt lat="45.832231" lon="9.187814"><time>2024-05-04T06:50:25.000Z</time><ele>1059.4</ele></trkpt><trkpt lat="45.832243" lon="9.187816"><time>2024-05-04T06:50:26.000Z</time><ele>1059.8</ele></trkpt><trkpt lat="45.832254" lon="9.187813"><time>2024-05-04T06:50:27.000Z</time><ele>1059.8</ele></trkpt><trkpt lat="45.832264" lon="9.187808"><time>2024-05-04T06:50:28.000Z</time><ele>1060</ele></trkpt><trkpt lat="45.832282" lon="9.187793"><time>2024-05-04T06:50:29.000Z</time><ele>1060.2</ele></trkpt><trkpt lat="45.832294" lon="9.187785"><time>2024-05-04T06:50:30.000Z</time><ele>1060.4</ele></trkpt><trkpt lat="45.832303" lon="9.187783"><time>2024-05-04T06:50:31.000Z</time><ele>1060.4</ele></trkpt><trkpt lat="45.832309" lon="9.187793"><time>2024-05-04T06:50:32.000Z</time><ele>1060.8</ele></trkpt><trkpt lat="45.832321" lon="9.1878"><time>2024-05-04T06:50:33.000Z</time><ele>1061</ele></trkpt><trkpt lat="45.83233" lon="9.187801"><time>2024-05-04T06:50:34.000Z</time><ele>1061.2</ele></trkpt><trkpt lat="45.832339" lon="9.187807"><time>2024-05-04T06:50:35.000Z</time><ele>1061.2</ele></trkpt><trkpt lat="45.832354" lon="9.187817"><time>2024-05-04T06:50:36.000Z</time><ele>1061.4</ele></trkpt><trkpt lat="45.832358" lon="9.187822"><time>2024-05-04T06:50:37.000Z</time><ele>1061.6</ele></trkpt><trkpt lat="45.832362" lon="9.18782"><time>2024-05-04T06:50:38.000Z</time><ele>1061.8</ele></trkpt><trkpt lat="45.832364" lon="9.187814"><time>2024-05-04T06:50:39.000Z</time><ele>1062</ele></trkpt><trkpt lat="45.83237" lon="9.187822"><time>2024-05-04T06:50:40.000Z</time><ele>1062.2</ele></trkpt><trkpt lat="45.832377" lon="9.187829"><time>2024-05-04T06:50:41.000Z</time><ele>1062.4</ele></trkpt><trkpt lat="45.832388" lon="9.187833"><time>2024-05-04T06:50:42.000Z</time><ele>1062.6</ele></trkpt><trkpt lat="45.832401" lon="9.187837"><time>2024-05-04T06:50:43.000Z</time><ele>1062.8</ele></trkpt><trkpt lat="45.832413" lon="9.187834"><time>2024-05-04T06:50:44.000Z</time><ele>1063</ele></trkpt><trkpt lat="45.832422" lon="9.187824"><time>2024-05-04T06:50:45.000Z</time><ele>1063.2</ele></trkpt><trkpt lat="45.832433" lon="9.187807"><time>2024-05-04T06:50:46.000Z</time><ele>1063.4</ele></trkpt><trkpt lat="45.832443" lon="9.187799"><time>2024-05-04T06:50:47.000Z</time><ele>1063.6</ele></trkpt><trkpt lat="45.832456" lon="9.187785"><time>2024-05-04T06:50:48.000Z</time><ele>1063.6</ele></trkpt><trkpt lat="45.832467" lon="9.187775"><time>2024-05-04T06:50:49.000Z</time><ele>1063.8</ele></trkpt><trkpt lat="45.83247" lon="9.187759"><time>2024-05-04T06:50:50.000Z</time><ele>1064</ele></trkpt><trkpt lat="45.832472" lon="9.187749"><time>2024-05-04T06:50:51.000Z</time><ele>1064.2</ele></trkpt><trkpt lat="45.832471" lon="9.187745"><time>2024-05-04T06:50:52.000Z</time><ele>1064.4</ele></trkpt><trkpt lat="45.832468" lon="9.187739"><time>2024-05-04T06:50:53.000Z</time><ele>1064.4</ele></trkpt><trkpt lat="45.832468" lon="9.187735"><time>2024-05-04T06:50:54.000Z</time><ele>1064.6</ele></trkpt><trkpt lat="45.832468" lon="9.187729"><time>2024-05-04T06:50:55.000Z</time><ele>1064.8</ele></trkpt><trkpt lat="45.832463" lon="9.187729"><time>2024-05-04T06:50:56.000Z</time><ele>1065</ele></trkpt><trkpt lat="45.832465" lon="9.187718"><time>2024-05-04T06:50:57.000Z</time><ele>1065.2</ele></trkpt><trkpt lat="45.832461" lon="9.18771"><time>2024-05-04T06:50:58.000Z</time><ele>1065.4</ele></trkpt><trkpt lat="45.832453" lon="9.187703"><time>2024-05-04T06:50:59.000Z</time><ele>1065.6</ele></trkpt><trkpt lat="45.83244" lon="9.1877"><time>2024-05-04T06:51:00.000Z</time><ele>1065.8</ele></trkpt><trkpt lat="45.832434" lon="9.187701"><time>2024-05-04T06:51:01.000Z</time><ele>1066</ele></trkpt><trkpt lat="45.832427" lon="9.187694"><time>2024-05-04T06:51:02.000Z</time><ele>1066</ele></trkpt><trkpt lat="45.832421" lon="9.187686"><time>2024-05-04T06:51:03.000Z</time><ele>1066.2</ele></trkpt><trkpt lat="45.832416" lon="9.187674"><time>2024-05-04T06:51:04.000Z</time><ele>1066.2</ele></trkpt><trkpt lat="45.832408" lon="9.187665"><time>2024-05-04T06:51:05.000Z</time><ele>1066.2</ele></trkpt><trkpt lat="45.832397" lon="9.187658"><time>2024-05-04T06:51:06.000Z</time><ele>1066.4</ele></trkpt><trkpt lat="45.832389" lon="9.187649"><time>2024-05-04T06:51:07.000Z</time><ele>1066.6</ele></trkpt><trkpt lat="45.832384" lon="9.187646"><time>2024-05-04T06:51:08.000Z</time><ele>1066.8</ele></trkpt><trkpt lat="45.832381" lon="9.187643"><time>2024-05-04T06:51:09.000Z</time><ele>1067</ele></trkpt><trkpt lat="45.832376" lon="9.187626"><time>2024-05-04T06:51:10.000Z</time><ele>1067.4</ele></trkpt><trkpt lat="45.832364" lon="9.187612"><time>2024-05-04T06:51:11.000Z</time><ele>1067.6</ele></trkpt><trkpt lat="45.832358" lon="9.187604"><time>2024-05-04T06:51:12.000Z</time><ele>1067.6</ele></trkpt><trkpt lat="45.832355" lon="9.187599"><time>2024-05-04T06:51:13.000Z</time><ele>1067.8</ele></trkpt><trkpt lat="45.832356" lon="9.187588"><time>2024-05-04T06:51:14.000Z</time><ele>1068</ele></trkpt><trkpt lat="45.832356" lon="9.187571"><time>2024-05-04T06:51:15.000Z</time><ele>1068.2</ele></trkpt><trkpt lat="45.832351" lon="9.187565"><time>2024-05-04T06:51:16.000Z</time><ele>1068.4</ele></trkpt><trkpt lat="45.832348" lon="9.187556"><time>2024-05-04T06:51:17.000Z</time><ele>1068.6</ele></trkpt><trkpt lat="45.832342" lon="9.187542"><time>2024-05-04T06:51:18.000Z</time><ele>1068.6</ele></trkpt><trkpt lat="45.832336" lon="9.187527"><time>2024-05-04T06:51:19.000Z</time><ele>1068.6</ele></trkpt><trkpt lat="45.832331" lon="9.187515"><time>2024-05-04T06:51:20.000Z</time><ele>1068.8</ele></trkpt><trkpt lat="45.832326" lon="9.187505"><time>2024-05-04T06:51:21.000Z</time><ele>1069.2</ele></trkpt><trkpt lat="45.832323" lon="9.187492"><time>2024-05-04T06:51:22.000Z</time><ele>1069.2</ele></trkpt><trkpt lat="45.832315" lon="9.187477"><time>2024-05-04T06:51:23.000Z</time><ele>1069.4</ele></trkpt><trkpt lat="45.832306" lon="9.187464"><time>2024-05-04T06:51:24.000Z</time><ele>1069.6</ele></trkpt><trkpt lat="45.832301" lon="9.187448"><time>2024-05-04T06:51:25.000Z</time><ele>1069.8</ele></trkpt><trkpt lat="45.8323" lon="9.187438"><time>2024-05-04T06:51:26.000Z</time><ele>1070</ele></trkpt><trkpt lat="45.832301" lon="9.187429"><time>2024-05-04T06:51:27.000Z</time><ele>1070.2</ele></trkpt><trkpt lat="45.832302" lon="9.187416"><time>2024-05-04T06:51:28.000Z</time><ele>1070.2</ele></trkpt><trkpt lat="45.832303" lon="9.187403"><time>2024-05-04T06:51:29.000Z</time><ele>1070.4</ele></trkpt><trkpt lat="45.832302" lon="9.187399"><time>2024-05-04T06:51:30.000Z</time><ele>1070.6</ele></trkpt><trkpt lat="45.8323" lon="9.187397"><time>2024-05-04T06:51:31.000Z</time><ele>1070.6</ele></trkpt><trkpt lat="45.832291" lon="9.187395"><time>2024-05-04T06:51:32.000Z</time><ele>1070.8</ele></trkpt><trkpt lat="45.832288" lon="9.187392"><time>2024-05-04T06:51:33.000Z</time><ele>1070.8</ele></trkpt><trkpt lat="45.832289" lon="9.18739"><time>2024-05-04T06:51:34.000Z</time><ele>1071</ele></trkpt><trkpt lat="45.83229" lon="9.187387"><time>2024-05-04T06:51:35.000Z</time><ele>1071.2</ele></trkpt><trkpt lat="45.832289" lon="9.187385"><time>2024-05-04T06:51:36.000Z</time><ele>1071.4</ele></trkpt><trkpt lat="45.832288" lon="9.187382"><time>2024-05-04T06:51:37.000Z</time><ele>1071.6</ele></trkpt><trkpt lat="45.832289" lon="9.187381"><time>2024-05-04T06:51:38.000Z</time><ele>1071.6</ele></trkpt><trkpt lat="45.832288" lon="9.187377"><time>2024-05-04T06:51:39.000Z</time><ele>1071.8</ele></trkpt><trkpt lat="45.832289" lon="9.187379"><time>2024-05-04T06:51:40.000Z</time><ele>1071.6</ele></trkpt><trkpt lat="45.832281" lon="9.187379"><time>2024-05-04T06:51:41.000Z</time><ele>1071.6</ele></trkpt><trkpt lat="45.83228" lon="9.187367"><time>2024-05-04T06:51:42.000Z</time><ele>1071.4</ele></trkpt><trkpt lat="45.83228" lon="9.187356"><time>2024-05-04T06:51:43.000Z</time><ele>1071.4</ele></trkpt><trkpt lat="45.832281" lon="9.187344"><time>2024-05-04T06:51:44.000Z</time><ele>1071.6</ele></trkpt><trkpt lat="45.832283" lon="9.187336"><time>2024-05-04T06:51:45.000Z</time><ele>1071.8</ele></trkpt><trkpt lat="45.832286" lon="9.187328"><time>2024-05-04T06:51:46.000Z</time><ele>1071.8</ele></trkpt><trkpt lat="45.832284" lon="9.187325"><time>2024-05-04T06:51:47.000Z</time><ele>1072</ele></trkpt><trkpt lat="45.832284" lon="9.187321"><time>2024-05-04T06:51:48.000Z</time><ele>1072</ele></trkpt><trkpt lat="45.832285" lon="9.187323"><time>2024-05-04T06:51:49.000Z</time><ele>1072.2</ele></trkpt><trkpt lat="45.832293" lon="9.187334"><time>2024-05-04T06:51:50.000Z</time><ele>1072.4</ele></trkpt><trkpt lat="45.832302" lon="9.187343"><time>2024-05-04T06:51:51.000Z</time><ele>1072.6</ele></trkpt><trkpt lat="45.83231" lon="9.187344"><time>2024-05-04T06:51:52.000Z</time><ele>1072.8</ele></trkpt><trkpt lat="45.832316" lon="9.187343"><time>2024-05-04T06:51:53.000Z</time><ele>1073</ele></trkpt><trkpt lat="45.832317" lon="9.187348"><time>2024-05-04T06:51:54.000Z</time><ele>1073.2</ele></trkpt><trkpt lat="45.832318" lon="9.187354"><time>2024-05-04T06:51:55.000Z</time><ele>1073.4</ele></trkpt><trkpt lat="45.832318" lon="9.187354"><time>2024-05-04T06:51:56.000Z</time><ele>1073.4</ele></trkpt><trkpt lat="45.832326" lon="9.187356"><time>2024-05-04T06:51:57.000Z</time><ele>1073.6</ele></trkpt><trkpt lat="45.83233" lon="9.187352"><time>2024-05-04T06:51:58.000Z</time><ele>1073.8</ele></trkpt><trkpt lat="45.832334" lon="9.18735"><time>2024-05-04T06:51:59.000Z</time><ele>1074</ele></trkpt><trkpt lat="45.832343" lon="9.187351"><time>2024-05-04T06:52:00.000Z</time><ele>1074</ele></trkpt><trkpt lat="45.832352" lon="9.187355"><time>2024-05-04T06:52:01.000Z</time><ele>1074.2</ele></trkpt><trkpt lat="45.832355" lon="9.187354"><time>2024-05-04T06:52:02.000Z</time><ele>1074.2</ele></trkpt><trkpt lat="45.832362" lon="9.187357"><time>2024-05-04T06:52:03.000Z</time><ele>1074.4</ele></trkpt><trkpt lat="45.832361" lon="9.18736"><time>2024-05-04T06:52:04.000Z</time><ele>1074.6</ele></trkpt><trkpt lat="45.832365" lon="9.18736"><time>2024-05-04T06:52:05.000Z</time><ele>1074.8</ele></trkpt><trkpt lat="45.832369" lon="9.187359"><time>2024-05-04T06:52:06.000Z</time><ele>1075</ele></trkpt><trkpt lat="45.832374" lon="9.187362"><time>2024-05-04T06:52:07.000Z</time><ele>1075.2</ele></trkpt><trkpt lat="45.832381" lon="9.187363"><time>2024-05-04T06:52:08.000Z</time><ele>1075.2</ele></trkpt><trkpt lat="45.832389" lon="9.187361"><time>2024-05-04T06:52:09.000Z</time><ele>1075.2</ele></trkpt><trkpt lat="45.832389" lon="9.187361"><time>2024-05-04T06:52:10.000Z</time><ele>1075.4</ele></trkpt><trkpt lat="45.832401" lon="9.187364"><time>2024-05-04T06:52:11.000Z</time><ele>1075.4</ele></trkpt><trkpt lat="45.832415" lon="9.187381"><time>2024-05-04T06:52:12.000Z</time><ele>1075.6</ele></trkpt><trkpt lat="45.83243" lon="9.187387"><time>2024-05-04T06:52:13.000Z</time><ele>1076</ele></trkpt><trkpt lat="45.832449" lon="9.187393"><time>2024-05-04T06:52:14.000Z</time><ele>1076</ele></trkpt><trkpt lat="45.832466" lon="9.187391"><time>2024-05-04T06:52:15.000Z</time><ele>1076.2</ele></trkpt><trkpt lat="45.83248" lon="9.187393"><time>2024-05-04T06:52:16.000Z</time><ele>1076.4</ele></trkpt><trkpt lat="45.832488" lon="9.187404"><time>2024-05-04T06:52:17.000Z</time><ele>1076.4</ele></trkpt><trkpt lat="45.832493" lon="9.187405"><time>2024-05-04T06:52:18.000Z</time><ele>1076.6</ele></trkpt><trkpt lat="45.832496" lon="9.187406"><time>2024-05-04T06:52:19.000Z</time><ele>1076.6</ele></trkpt><trkpt lat="45.832499" lon="9.187408"><time>2024-05-04T06:52:20.000Z</time><ele>1076.8</ele></trkpt><trkpt lat="45.832504" lon="9.187405"><time>2024-05-04T06:52:21.000Z</time><ele>1077</ele></trkpt><trkpt lat="45.832512" lon="9.187403"><time>2024-05-04T06:52:22.000Z</time><ele>1077</ele></trkpt><trkpt lat="45.832523" lon="9.1874"><time>2024-05-04T06:52:23.000Z</time><ele>1077.2</ele></trkpt><trkpt lat="45.832531" lon="9.187401"><time>2024-05-04T06:52:24.000Z</time><ele>1077.6</ele></trkpt><trkpt lat="45.832533" lon="9.187398"><time>2024-05-04T06:52:25.000Z</time><ele>1077.8</ele></trkpt><trkpt lat="45.832541" lon="9.187395"><time>2024-05-04T06:52:26.000Z</time><ele>1078</ele></trkpt><trkpt lat="45.832549" lon="9.187398"><time>2024-05-04T06:52:27.000Z</time><ele>1078.2</ele></trkpt><trkpt lat="45.83256" lon="9.1874"><time>2024-05-04T06:52:28.000Z</time><ele>1078.4</ele></trkpt><trkpt lat="45.832571" lon="9.187398"><time>2024-05-04T06:52:29.000Z</time><ele>1078.6</ele></trkpt><trkpt lat="45.832581" lon="9.1874"><time>2024-05-04T06:52:30.000Z</time><ele>1078.8</ele></trkpt><trkpt lat="45.832588" lon="9.187402"><time>2024-05-04T06:52:31.000Z</time><ele>1078.8</ele></trkpt><trkpt lat="45.832598" lon="9.1874"><time>2024-05-04T06:52:32.000Z</time><ele>1079</ele></trkpt><trkpt lat="45.832598" lon="9.1874"><time>2024-05-04T06:52:33.000Z</time><ele>1079.2</ele></trkpt><trkpt lat="45.832623" lon="9.187391"><time>2024-05-04T06:52:34.000Z</time><ele>1079.2</ele></trkpt><trkpt lat="45.832627" lon="9.187397"><time>2024-05-04T06:52:35.000Z</time><ele>1079.4</ele></trkpt><trkpt lat="45.832633" lon="9.187399"><time>2024-05-04T06:52:36.000Z</time><ele>1079.6</ele></trkpt><trkpt lat="45.832643" lon="9.187401"><time>2024-05-04T06:52:37.000Z</time><ele>1079.6</ele></trkpt><trkpt lat="45.832651" lon="9.187405"><time>2024-05-04T06:52:38.000Z</time><ele>1080</ele></trkpt><trkpt lat="45.832662" lon="9.187413"><time>2024-05-04T06:52:39.000Z</time><ele>1080.2</ele></trkpt><trkpt lat="45.832672" lon="9.18742"><time>2024-05-04T06:52:40.000Z</time><ele>1080.2</ele></trkpt><trkpt lat="45.832681" lon="9.187426"><time>2024-05-04T06:52:41.000Z</time><ele>1080.4</ele></trkpt><trkpt lat="45.832685" lon="9.18743"><time>2024-05-04T06:52:42.000Z</time><ele>1080.6</ele></trkpt><trkpt lat="45.832681" lon="9.187442"><time>2024-05-04T06:52:43.000Z</time><ele>1080.8</ele></trkpt><trkpt lat="45.832682" lon="9.187454"><time>2024-05-04T06:52:44.000Z</time><ele>1081</ele></trkpt><trkpt lat="45.832684" lon="9.187463"><time>2024-05-04T06:52:45.000Z</time><ele>1081.2</ele></trkpt><trkpt lat="45.832683" lon="9.187473"><time>2024-05-04T06:52:46.000Z</time><ele>1081.2</ele></trkpt><trkpt lat="45.832687" lon="9.187471"><time>2024-05-04T06:52:47.000Z</time><ele>1081.4</ele></trkpt><trkpt lat="45.832693" lon="9.187462"><time>2024-05-04T06:52:48.000Z</time><ele>1081.6</ele></trkpt><trkpt lat="45.8327" lon="9.187458"><time>2024-05-04T06:52:49.000Z</time><ele>1081.8</ele></trkpt><trkpt lat="45.832703" lon="9.18746"><time>2024-05-04T06:52:50.000Z</time><ele>1081.8</ele></trkpt><trkpt lat="45.83271" lon="9.187461"><time>2024-05-04T06:52:51.000Z</time><ele>1082.2</ele></trkpt><trkpt lat="45.832721" lon="9.18746"><time>2024-05-04T06:52:52.000Z</time><ele>1082.2</ele></trkpt><trkpt lat="45.832732" lon="9.18745"><time>2024-05-04T06:52:53.000Z</time><ele>1082.4</ele></trkpt><trkpt lat="45.832741" lon="9.187439"><time>2024-05-04T06:52:54.000Z</time><ele>1082.6</ele></trkpt><trkpt lat="45.83275" lon="9.187432"><time>2024-05-04T06:52:55.000Z</time><ele>1082.8</ele></trkpt><trkpt lat="45.832755" lon="9.187427"><time>2024-05-04T06:52:56.000Z</time><ele>1082.8</ele></trkpt><trkpt lat="45.832757" lon="9.187423"><time>2024-05-04T06:52:57.000Z</time><ele>1083</ele></trkpt><trkpt lat="45.832759" lon="9.187419"><time>2024-05-04T06:52:58.000Z</time><ele>1083.2</ele></trkpt><trkpt lat="45.83278" lon="9.187397"><time>2024-05-04T06:52:59.000Z</time><ele>1083.4</ele></trkpt><trkpt lat="45.83279" lon="9.18738"><time>2024-05-04T06:53:00.000Z</time><ele>1083.8</ele></trkpt><trkpt lat="45.832791" lon="9.187372"><time>2024-05-04T06:53:01.000Z</time><ele>1084</ele></trkpt><trkpt lat="45.832799" lon="9.187347"><time>2024-05-04T06:53:02.000Z</time><ele>1084</ele></trkpt><trkpt lat="45.832802" lon="9.187322"><time>2024-05-04T06:53:03.000Z</time><ele>1084.2</ele></trkpt><trkpt lat="45.832811" lon="9.187299"><time>2024-05-04T06:53:04.000Z</time><ele>1084.2</ele></trkpt><trkpt lat="45.832822" lon="9.187288"><time>2024-05-04T06:53:05.000Z</time><ele>1084.4</ele></trkpt><trkpt lat="45.83283" lon="9.187287"><time>2024-05-04T06:53:06.000Z</time><ele>1084.6</ele></trkpt><trkpt lat="45.832839" lon="9.187277"><time>2024-05-04T06:53:07.000Z</time><ele>1084.8</ele></trkpt><trkpt lat="45.832834" lon="9.187269"><time>2024-05-04T06:53:08.000Z</time><ele>1085</ele></trkpt><trkpt lat="45.832824" lon="9.187258"><time>2024-05-04T06:53:09.000Z</time><ele>1085</ele></trkpt><trkpt lat="45.832818" lon="9.187248"><time>2024-05-04T06:53:10.000Z</time><ele>1085.2</ele></trkpt><trkpt lat="45.832814" lon="9.187234"><time>2024-05-04T06:53:11.000Z</time><ele>1085.4</ele></trkpt><trkpt lat="45.832815" lon="9.187225"><time>2024-05-04T06:53:12.000Z</time><ele>1085.8</ele></trkpt><trkpt lat="45.832815" lon="9.187216"><time>2024-05-04T06:53:13.000Z</time><ele>1086</ele></trkpt><trkpt lat="45.832821" lon="9.187203"><time>2024-05-04T06:53:14.000Z</time><ele>1086</ele></trkpt><trkpt lat="45.832831" lon="9.187195"><time>2024-05-04T06:53:15.000Z</time><ele>1086.2</ele></trkpt><trkpt lat="45.832829" lon="9.187193"><time>2024-05-04T06:53:16.000Z</time><ele>1086.4</ele></trkpt><trkpt lat="45.83283" lon="9.187181"><time>2024-05-04T06:53:17.000Z</time><ele>1086.4</ele></trkpt><trkpt lat="45.832838" lon="9.187164"><time>2024-05-04T06:53:18.000Z</time><ele>1086.6</ele></trkpt><trkpt lat="45.832834" lon="9.187148"><time>2024-05-04T06:53:19.000Z</time><ele>1086.8</ele></trkpt><trkpt lat="45.832827" lon="9.187132"><time>2024-05-04T06:53:20.000Z</time><ele>1086.8</ele></trkpt><trkpt lat="45.832828" lon="9.187118"><time>2024-05-04T06:53:21.000Z</time><ele>1087</ele></trkpt><trkpt lat="45.832827" lon="9.187107"><time>2024-05-04T06:53:22.000Z</time><ele>1087.2</ele></trkpt><trkpt lat="45.832825" lon="9.187098"><time>2024-05-04T06:53:23.000Z</time><ele>1087.2</ele></trkpt><trkpt lat="45.832824" lon="9.187088"><time>2024-05-04T06:53:24.000Z</time><ele>1087.4</ele></trkpt><trkpt lat="45.832822" lon="9.187076"><time>2024-05-04T06:53:25.000Z</time><ele>1087.8</ele></trkpt><trkpt lat="45.832823" lon="9.187065"><time>2024-05-04T06:53:26.000Z</time><ele>1087.8</ele></trkpt><trkpt lat="45.832824" lon="9.187056"><time>2024-05-04T06:53:27.000Z</time><ele>1088</ele></trkpt><trkpt lat="45.832828" lon="9.187044"><time>2024-05-04T06:53:28.000Z</time><ele>1088.2</ele></trkpt><trkpt lat="45.832835" lon="9.187041"><time>2024-05-04T06:53:29.000Z</time><ele>1088.4</ele></trkpt><trkpt lat="45.832834" lon="9.187043"><time>2024-05-04T06:53:30.000Z</time><ele>1088.4</ele></trkpt><trkpt lat="45.832835" lon="9.18704"><time>2024-05-04T06:53:31.000Z</time><ele>1088.6</ele></trkpt><trkpt lat="45.832842" lon="9.187035"><time>2024-05-04T06:53:32.000Z</time><ele>1088.8</ele></trkpt><trkpt lat="45.832846" lon="9.187031"><time>2024-05-04T06:53:33.000Z</time><ele>1089</ele></trkpt><trkpt lat="45.832848" lon="9.187027"><time>2024-05-04T06:53:34.000Z</time><ele>1089</ele></trkpt><trkpt lat="45.832852" lon="9.187024"><time>2024-05-04T06:53:35.000Z</time><ele>1089.2</ele></trkpt><trkpt lat="45.832859" lon="9.187026"><time>2024-05-04T06:53:36.000Z</time><ele>1089.2</ele></trkpt><trkpt lat="45.832857" lon="9.187028"><time>2024-05-04T06:53:37.000Z</time><ele>1089.4</ele></trkpt><trkpt lat="45.832856" lon="9.187027"><time>2024-05-04T06:53:38.000Z</time><ele>1089.4</ele></trkpt><trkpt lat="45.83286" lon="9.187021"><time>2024-05-04T06:53:39.000Z</time><ele>1089.6</ele></trkpt><trkpt lat="45.83286" lon="9.187014"><time>2024-05-04T06:53:40.000Z</time><ele>1089.8</ele></trkpt><trkpt lat="45.832867" lon="9.187008"><time>2024-05-04T06:53:41.000Z</time><ele>1090</ele></trkpt><trkpt lat="45.832876" lon="9.187001"><time>2024-05-04T06:53:42.000Z</time><ele>1090.2</ele></trkpt><trkpt lat="45.832879" lon="9.186995"><time>2024-05-04T06:53:43.000Z</time><ele>1090.2</ele></trkpt><trkpt lat="45.832885" lon="9.186991"><time>2024-05-04T06:53:44.000Z</time><ele>1090.4</ele></trkpt><trkpt lat="45.832888" lon="9.186987"><time>2024-05-04T06:53:45.000Z</time><ele>1090.6</ele></trkpt><trkpt lat="45.832895" lon="9.186986"><time>2024-05-04T06:53:46.000Z</time><ele>1090.6</ele></trkpt><trkpt lat="45.832905" lon="9.186979"><time>2024-05-04T06:53:47.000Z</time><ele>1090.8</ele></trkpt><trkpt lat="45.832916" lon="9.186969"><time>2024-05-04T06:53:48.000Z</time><ele>1090.8</ele></trkpt><trkpt lat="45.832923" lon="9.186962"><time>2024-05-04T06:53:49.000Z</time><ele>1090.8</ele></trkpt><trkpt lat="45.83293" lon="9.186961"><time>2024-05-04T06:53:50.000Z</time><ele>1091</ele></trkpt><trkpt lat="45.832937" lon="9.186958"><time>2024-05-04T06:53:51.000Z</time><ele>1091.2</ele></trkpt><trkpt lat="45.83294" lon="9.186958"><time>2024-05-04T06:53:52.000Z</time><ele>1091.4</ele></trkpt><trkpt lat="45.832949" lon="9.18696"><time>2024-05-04T06:53:53.000Z</time><ele>1091.4</ele></trkpt><trkpt lat="45.832952" lon="9.186952"><time>2024-05-04T06:53:54.000Z</time><ele>1091.6</ele></trkpt><trkpt lat="45.832954" lon="9.186949"><time>2024-05-04T06:53:55.000Z</time><ele>1091.8</ele></trkpt><trkpt lat="45.83296" lon="9.18695"><time>2024-05-04T06:53:56.000Z</time><ele>1092</ele></trkpt><trkpt lat="45.832961" lon="9.186948"><time>2024-05-04T06:53:57.000Z</time><ele>1092</ele></trkpt><trkpt lat="45.832958" lon="9.186946"><time>2024-05-04T06:53:58.000Z</time><ele>1092.2</ele></trkpt><trkpt lat="45.832959" lon="9.186943"><time>2024-05-04T06:53:59.000Z</time><ele>1092.2</ele></trkpt><trkpt lat="45.83296" lon="9.18694"><time>2024-05-04T06:54:00.000Z</time><ele>1092.2</ele></trkpt><trkpt lat="45.832955" lon="9.186936"><time>2024-05-04T06:54:01.000Z</time><ele>1092.2</ele></trkpt><trkpt lat="45.832958" lon="9.186932"><time>2024-05-04T06:54:02.000Z</time><ele>1092.2</ele></trkpt><trkpt lat="45.832957" lon="9.18693"><time>2024-05-04T06:54:03.000Z</time><ele>1092</ele></trkpt><trkpt lat="45.832956" lon="9.186931"><time>2024-05-04T06:54:04.000Z</time><ele>1092</ele></trkpt><trkpt lat="45.832955" lon="9.18693"><time>2024-05-04T06:54:05.000Z</time><ele>1092</ele></trkpt><trkpt lat="45.832953" lon="9.186928"><time>2024-05-04T06:54:06.000Z</time><ele>1092</ele></trkpt><trkpt lat="45.832952" lon="9.186927"><time>2024-05-04T06:54:07.000Z</time><ele>1092</ele></trkpt><trkpt lat="45.832953" lon="9.186925"><time>2024-05-04T06:54:08.000Z</time><ele>1092</ele></trkpt><trkpt lat="45.832952" lon="9.186925"><time>2024-05-04T06:54:09.000Z</time><ele>1092</ele></trkpt><trkpt lat="45.832952" lon="9.186925"><time>2024-05-04T06:54:10.000Z</time><ele>1092</ele></trkpt><trkpt lat="45.832952" lon="9.186925"><time>2024-05-04T06:54:11.000Z</time><ele>1092</ele></trkpt><trkpt lat="45.832952" lon="9.186925"><time>2024-05-04T06:54:12.000Z</time><ele>1092</ele></trkpt><trkpt lat="45.832952" lon="9.186925"><time>2024-05-04T06:54:13.000Z</time><ele>1092</ele></trkpt><trkpt lat="45.832952" lon="9.186925"><time>2024-05-04T06:54:14.000Z</time><ele>1092</ele></trkpt><trkpt lat="45.832952" lon="9.186925"><time>2024-05-04T06:54:15.000Z</time><ele>1092</ele></trkpt><trkpt lat="45.832952" lon="9.186925"><time>2024-05-04T06:54:16.000Z</time><ele>1092</ele></trkpt><trkpt lat="45.832952" lon="9.186925"><time>2024-05-04T06:54:17.000Z</time><ele>1092</ele></trkpt><trkpt lat="45.832952" lon="9.186927"><time>2024-05-04T06:54:18.000Z</time><ele>1092</ele></trkpt><trkpt lat="45.832952" lon="9.186928"><time>2024-05-04T06:54:19.000Z</time><ele>1092</ele></trkpt><trkpt lat="45.832952" lon="9.18693"><time>2024-05-04T06:54:20.000Z</time><ele>1092</ele></trkpt><trkpt lat="45.832952" lon="9.18693"><time>2024-05-04T06:54:21.000Z</time><ele>1092</ele></trkpt><trkpt lat="45.832952" lon="9.18693"><time>2024-05-04T06:54:22.000Z</time><ele>1092.2</ele></trkpt><trkpt lat="45.832952" lon="9.186931"><time>2024-05-04T06:54:23.000Z</time><ele>1092.4</ele></trkpt><trkpt lat="45.832952" lon="9.186932"><time>2024-05-04T06:54:24.000Z</time><ele>1092.4</ele></trkpt><trkpt lat="45.832947" lon="9.186934"><time>2024-05-04T06:54:25.000Z</time><ele>1092.4</ele></trkpt><trkpt lat="45.832943" lon="9.186934"><time>2024-05-04T06:54:26.000Z</time><ele>1092.4</ele></trkpt><trkpt lat="45.832943" lon="9.186934"><time>2024-05-04T06:54:27.000Z</time><ele>1092.6</ele></trkpt><trkpt lat="45.832943" lon="9.186934"><time>2024-05-04T06:54:28.000Z</time><ele>1092.6</ele></trkpt><trkpt lat="45.832943" lon="9.186934"><time>2024-05-04T06:54:29.000Z</time><ele>1092.8</ele></trkpt><trkpt lat="45.832943" lon="9.186934"><time>2024-05-04T06:54:30.000Z</time><ele>1092.8</ele></trkpt><trkpt lat="45.832943" lon="9.186932"><time>2024-05-04T06:54:31.000Z</time><ele>1093</ele></trkpt><trkpt lat="45.832943" lon="9.186932"><time>2024-05-04T06:54:32.000Z</time><ele>1093</ele></trkpt><trkpt lat="45.832943" lon="9.186932"><time>2024-05-04T06:54:33.000Z</time><ele>1093</ele></trkpt><trkpt lat="45.832943" lon="9.186932"><time>2024-05-04T06:54:34.000Z</time><ele>1093.2</ele></trkpt><trkpt lat="45.832943" lon="9.186932"><time>2024-05-04T06:54:35.000Z</time><ele>1093.4</ele></trkpt><trkpt lat="45.832943" lon="9.186932"><time>2024-05-04T06:54:36.000Z</time><ele>1093.6</ele></trkpt><trkpt lat="45.832943" lon="9.186932"><time>2024-05-04T06:54:37.000Z</time><ele>1093.8</ele></trkpt><trkpt lat="45.832943" lon="9.186932"><time>2024-05-04T06:54:38.000Z</time><ele>1094</ele></trkpt><trkpt lat="45.832943" lon="9.186932"><time>2024-05-04T06:54:39.000Z</time><ele>1094</ele></trkpt><trkpt lat="45.832943" lon="9.186932"><time>2024-05-04T06:54:40.000Z</time><ele>1094.2</ele></trkpt><trkpt lat="45.832946" lon="9.186926"><time>2024-05-04T06:54:41.000Z</time><ele>1094.2</ele></trkpt><trkpt lat="45.832956" lon="9.186921"><time>2024-05-04T06:54:42.000Z</time><ele>1094.4</ele></trkpt><trkpt lat="45.832965" lon="9.186918"><time>2024-05-04T06:54:43.000Z</time><ele>1094.6</ele></trkpt><trkpt lat="45.83297" lon="9.186915"><time>2024-05-04T06:54:44.000Z</time><ele>1094.8</ele></trkpt><trkpt lat="45.832971" lon="9.186914"><time>2024-05-04T06:54:45.000Z</time><ele>1095.2</ele></trkpt><trkpt lat="45.832972" lon="9.186912"><time>2024-05-04T06:54:46.000Z</time><ele>1095.4</ele></trkpt><trkpt lat="45.832972" lon="9.186908"><time>2024-05-04T06:54:47.000Z</time><ele>1095.6</ele></trkpt><trkpt lat="45.832975" lon="9.1869"><time>2024-05-04T06:54:48.000Z</time><ele>1095.6</ele></trkpt><trkpt lat="45.83298" lon="9.186894"><time>2024-05-04T06:54:49.000Z</time><ele>1095.8</ele></trkpt><trkpt lat="45.832987" lon="9.186891"><time>2024-05-04T06:54:50.000Z</time><ele>1095.8</ele></trkpt><trkpt lat="45.832989" lon="9.186891"><time>2024-05-04T06:54:51.000Z</time><ele>1096</ele></trkpt><trkpt lat="45.83299" lon="9.18689"><time>2024-05-04T06:54:52.000Z</time><ele>1096.2</ele></trkpt><trkpt lat="45.832993" lon="9.18689"><time>2024-05-04T06:54:53.000Z</time><ele>1096.4</ele></trkpt><trkpt lat="45.832994" lon="9.186889"><time>2024-05-04T06:54:54.000Z</time><ele>1096.6</ele></trkpt><trkpt lat="45.832995" lon="9.186888"><time>2024-05-04T06:54:55.000Z</time><ele>1096.8</ele></trkpt><trkpt lat="45.832997" lon="9.186886"><time>2024-05-04T06:54:56.000Z</time><ele>1097</ele></trkpt><trkpt lat="45.832999" lon="9.186883"><time>2024-05-04T06:54:57.000Z</time><ele>1097</ele></trkpt><trkpt lat="45.833004" lon="9.186879"><time>2024-05-04T06:54:58.000Z</time><ele>1097.2</ele></trkpt><trkpt lat="45.833009" lon="9.186876"><time>2024-05-04T06:54:59.000Z</time><ele>1097.4</ele></trkpt><trkpt lat="45.83302" lon="9.186871"><time>2024-05-04T06:55:00.000Z</time><ele>1097.4</ele></trkpt><trkpt lat="45.833033" lon="9.186858"><time>2024-05-04T06:55:01.000Z</time><ele>1097.6</ele></trkpt><trkpt lat="45.833049" lon="9.186848"><time>2024-05-04T06:55:02.000Z</time><ele>1097.8</ele></trkpt><trkpt lat="45.833062" lon="9.186843"><time>2024-05-04T06:55:03.000Z</time><ele>1098</ele></trkpt><trkpt lat="45.833089" lon="9.186835"><time>2024-05-04T06:55:04.000Z</time><ele>1098.2</ele></trkpt><trkpt lat="45.833109" lon="9.186828"><time>2024-05-04T06:55:05.000Z</time><ele>1098.4</ele></trkpt><trkpt lat="45.833127" lon="9.18682"><time>2024-05-04T06:55:06.000Z</time><ele>1098.6</ele></trkpt><trkpt lat="45.833142" lon="9.186809"><time>2024-05-04T06:55:07.000Z</time><ele>1098.6</ele></trkpt><trkpt lat="45.83316" lon="9.186796"><time>2024-05-04T06:55:08.000Z</time><ele>1099</ele></trkpt><trkpt lat="45.833181" lon="9.186788"><time>2024-05-04T06:55:09.000Z</time><ele>1099.2</ele></trkpt><trkpt lat="45.833185" lon="9.186782"><time>2024-05-04T06:55:10.000Z</time><ele>1099.2</ele></trkpt><trkpt lat="45.833191" lon="9.186777"><time>2024-05-04T06:55:11.000Z</time><ele>1099.4</ele></trkpt><trkpt lat="45.833198" lon="9.186772"><time>2024-05-04T06:55:12.000Z</time><ele>1099.6</ele></trkpt><trkpt lat="45.833207" lon="9.186764"><time>2024-05-04T06:55:13.000Z</time><ele>1099.8</ele></trkpt><trkpt lat="45.833211" lon="9.186761"><time>2024-05-04T06:55:14.000Z</time><ele>1100</ele></trkpt><trkpt lat="45.83322" lon="9.186756"><time>2024-05-04T06:55:15.000Z</time><ele>1100.2</ele></trkpt><trkpt lat="45.833223" lon="9.186748"><time>2024-05-04T06:55:16.000Z</time><ele>1100.2</ele></trkpt><trkpt lat="45.833233" lon="9.186739"><time>2024-05-04T06:55:17.000Z</time><ele>1100.4</ele></trkpt><trkpt lat="45.833237" lon="9.186736"><time>2024-05-04T06:55:18.000Z</time><ele>1100.8</ele></trkpt><trkpt lat="45.833244" lon="9.186726"><time>2024-05-04T06:55:19.000Z</time><ele>1100.8</ele></trkpt><trkpt lat="45.833253" lon="9.186717"><time>2024-05-04T06:55:20.000Z</time><ele>1101.2</ele></trkpt><trkpt lat="45.833264" lon="9.186712"><time>2024-05-04T06:55:21.000Z</time><ele>1101.4</ele></trkpt><trkpt lat="45.833273" lon="9.186709"><time>2024-05-04T06:55:22.000Z</time><ele>1101.4</ele></trkpt><trkpt lat="45.833282" lon="9.186704"><time>2024-05-04T06:55:23.000Z</time><ele>1101.6</ele></trkpt><trkpt lat="45.833292" lon="9.186697"><time>2024-05-04T06:55:24.000Z</time><ele>1101.8</ele></trkpt><trkpt lat="45.833303" lon="9.186695"><time>2024-05-04T06:55:25.000Z</time><ele>1101.8</ele></trkpt><trkpt lat="45.833311" lon="9.186692"><time>2024-05-04T06:55:26.000Z</time><ele>1102</ele></trkpt><trkpt lat="45.833319" lon="9.186693"><time>2024-05-04T06:55:27.000Z</time><ele>1102.2</ele></trkpt><trkpt lat="45.833324" lon="9.186687"><time>2024-05-04T06:55:28.000Z</time><ele>1102.4</ele></trkpt><trkpt lat="45.833326" lon="9.186682"><time>2024-05-04T06:55:29.000Z</time><ele>1102.6</ele></trkpt><trkpt lat="45.833326" lon="9.186679"><time>2024-05-04T06:55:30.000Z</time><ele>1102.8</ele></trkpt><trkpt lat="45.833328" lon="9.186677"><time>2024-05-04T06:55:31.000Z</time><ele>1103</ele></trkpt><trkpt lat="45.83333" lon="9.186662"><time>2024-05-04T06:55:32.000Z</time><ele>1103.2</ele></trkpt><trkpt lat="45.83334" lon="9.186646"><time>2024-05-04T06:55:33.000Z</time><ele>1103.4</ele></trkpt><trkpt lat="45.833351" lon="9.186637"><time>2024-05-04T06:55:34.000Z</time><ele>1103.4</ele></trkpt><trkpt lat="45.833367" lon="9.18663"><time>2024-05-04T06:55:35.000Z</time><ele>1103.8</ele></trkpt><trkpt lat="45.833377" lon="9.186624"><time>2024-05-04T06:55:36.000Z</time><ele>1103.8</ele></trkpt><trkpt lat="45.83338" lon="9.186619"><time>2024-05-04T06:55:37.000Z</time><ele>1104</ele></trkpt><trkpt lat="45.833382" lon="9.186615"><time>2024-05-04T06:55:38.000Z</time><ele>1104.2</ele></trkpt><trkpt lat="45.833388" lon="9.186608"><time>2024-05-04T06:55:39.000Z</time><ele>1104.4</ele></trkpt><trkpt lat="45.833396" lon="9.186602"><time>2024-05-04T06:55:40.000Z</time><ele>1104.6</ele></trkpt><trkpt lat="45.833405" lon="9.186588"><time>2024-05-04T06:55:41.000Z</time><ele>1104.8</ele></trkpt><trkpt lat="45.833417" lon="9.186578"><time>2024-05-04T06:55:42.000Z</time><ele>1105</ele></trkpt><trkpt lat="45.833426" lon="9.186569"><time>2024-05-04T06:55:43.000Z</time><ele>1105.2</ele></trkpt><trkpt lat="45.833433" lon="9.186563"><time>2024-05-04T06:55:44.000Z</time><ele>1105.2</ele></trkpt><trkpt lat="45.833436" lon="9.186558"><time>2024-05-04T06:55:45.000Z</time><ele>1105.4</ele></trkpt><trkpt lat="45.833437" lon="9.186554"><time>2024-05-04T06:55:46.000Z</time><ele>1105.6</ele></trkpt><trkpt lat="45.833452" lon="9.186549"><time>2024-05-04T06:55:47.000Z</time><ele>1105.8</ele></trkpt><trkpt lat="45.83346" lon="9.186547"><time>2024-05-04T06:55:48.000Z</time><ele>1105.8</ele></trkpt><trkpt lat="45.833461" lon="9.186546"><time>2024-05-04T06:55:49.000Z</time><ele>1106</ele></trkpt><trkpt lat="45.83347" lon="9.18654"><time>2024-05-04T06:55:50.000Z</time><ele>1106.2</ele></trkpt><trkpt lat="45.833475" lon="9.186537"><time>2024-05-04T06:55:51.000Z</time><ele>1106.4</ele></trkpt><trkpt lat="45.833482" lon="9.186529"><time>2024-05-04T06:55:52.000Z</time><ele>1106.6</ele></trkpt><trkpt lat="45.833484" lon="9.186531"><time>2024-05-04T06:55:53.000Z</time><ele>1106.8</ele></trkpt><trkpt lat="45.833488" lon="9.186523"><time>2024-05-04T06:55:54.000Z</time><ele>1107</ele></trkpt><trkpt lat="45.833489" lon="9.186524"><time>2024-05-04T06:55:55.000Z</time><ele>1107</ele></trkpt><trkpt lat="45.833488" lon="9.186524"><time>2024-05-04T06:55:56.000Z</time><ele>1107</ele></trkpt><trkpt lat="45.833495" lon="9.186518"><time>2024-05-04T06:55:57.000Z</time><ele>1107.2</ele></trkpt><trkpt lat="45.8335" lon="9.186513"><time>2024-05-04T06:55:58.000Z</time><ele>1107.4</ele></trkpt><trkpt lat="45.833504" lon="9.18651"><time>2024-05-04T06:55:59.000Z</time><ele>1107.6</ele></trkpt><trkpt lat="45.833514" lon="9.1865"><time>2024-05-04T06:56:00.000Z</time><ele>1107.8</ele></trkpt><trkpt lat="45.83352" lon="9.186491"><time>2024-05-04T06:56:01.000Z</time><ele>1107.8</ele></trkpt><trkpt lat="45.833529" lon="9.186485"><time>2024-05-04T06:56:02.000Z</time><ele>1108</ele></trkpt><trkpt lat="45.833542" lon="9.186476"><time>2024-05-04T06:56:03.000Z</time><ele>1108.2</ele></trkpt><trkpt lat="45.833556" lon="9.18647"><time>2024-05-04T06:56:04.000Z</time><ele>1108.4</ele></trkpt><trkpt lat="45.833568" lon="9.186461"><time>2024-05-04T06:56:05.000Z</time><ele>1108.6</ele></trkpt><trkpt lat="45.833583" lon="9.186452"><time>2024-05-04T06:56:06.000Z</time><ele>1108.8</ele></trkpt><trkpt lat="45.833585" lon="9.186452"><time>2024-05-04T06:56:07.000Z</time><ele>1109</ele></trkpt><trkpt lat="45.833587" lon="9.18645"><time>2024-05-04T06:56:08.000Z</time><ele>1109.2</ele></trkpt><trkpt lat="45.833588" lon="9.186452"><time>2024-05-04T06:56:09.000Z</time><ele>1109.4</ele></trkpt><trkpt lat="45.833588" lon="9.18645"><time>2024-05-04T06:56:10.000Z</time><ele>1109.6</ele></trkpt><trkpt lat="45.83359" lon="9.186442"><time>2024-05-04T06:56:11.000Z</time><ele>1109.6</ele></trkpt><trkpt lat="45.833594" lon="9.186436"><time>2024-05-04T06:56:12.000Z</time><ele>1109.6</ele></trkpt><trkpt lat="45.833599" lon="9.186429"><time>2024-05-04T06:56:13.000Z</time><ele>1109.8</ele></trkpt><trkpt lat="45.833609" lon="9.186421"><time>2024-05-04T06:56:14.000Z</time><ele>1110</ele></trkpt><trkpt lat="45.833616" lon="9.186412"><time>2024-05-04T06:56:15.000Z</time><ele>1110</ele></trkpt><trkpt lat="45.833616" lon="9.186404"><time>2024-05-04T06:56:16.000Z</time><ele>1110.2</ele></trkpt><trkpt lat="45.833619" lon="9.186397"><time>2024-05-04T06:56:17.000Z</time><ele>1110.4</ele></trkpt><trkpt lat="45.833619" lon="9.186388"><time>2024-05-04T06:56:18.000Z</time><ele>1110.6</ele></trkpt><trkpt lat="45.833628" lon="9.186373"><time>2024-05-04T06:56:19.000Z</time><ele>1110.8</ele></trkpt><trkpt lat="45.833637" lon="9.186361"><time>2024-05-04T06:56:20.000Z</time><ele>1111</ele></trkpt><trkpt lat="45.833647" lon="9.186346"><time>2024-05-04T06:56:21.000Z</time><ele>1111.2</ele></trkpt><trkpt lat="45.833651" lon="9.186342"><time>2024-05-04T06:56:22.000Z</time><ele>1111.4</ele></trkpt><trkpt lat="45.833655" lon="9.186342"><time>2024-05-04T06:56:23.000Z</time><ele>1111.6</ele></trkpt><trkpt lat="45.833659" lon="9.186344"><time>2024-05-04T06:56:24.000Z</time><ele>1111.8</ele></trkpt><trkpt lat="45.83366" lon="9.18634"><time>2024-05-04T06:56:25.000Z</time><ele>1111.8</ele></trkpt><trkpt lat="45.833662" lon="9.186333"><time>2024-05-04T06:56:26.000Z</time><ele>1112</ele></trkpt><trkpt lat="45.833669" lon="9.186328"><time>2024-05-04T06:56:27.000Z</time><ele>1112.2</ele></trkpt><trkpt lat="45.833676" lon="9.186324"><time>2024-05-04T06:56:28.000Z</time><ele>1112.4</ele></trkpt><trkpt lat="45.833682" lon="9.186317"><time>2024-05-04T06:56:29.000Z</time><ele>1112.4</ele></trkpt><trkpt lat="45.83369" lon="9.186307"><time>2024-05-04T06:56:30.000Z</time><ele>1112.6</ele></trkpt><trkpt lat="45.833695" lon="9.186303"><time>2024-05-04T06:56:31.000Z</time><ele>1113</ele></trkpt><trkpt lat="45.833699" lon="9.186297"><time>2024-05-04T06:56:32.000Z</time><ele>1113.2</ele></trkpt><trkpt lat="45.833702" lon="9.186289"><time>2024-05-04T06:56:33.000Z</time><ele>1113.2</ele></trkpt><trkpt lat="45.833709" lon="9.186282"><time>2024-05-04T06:56:34.000Z</time><ele>1113.4</ele></trkpt><trkpt lat="45.833714" lon="9.186276"><time>2024-05-04T06:56:35.000Z</time><ele>1113.6</ele></trkpt><trkpt lat="45.83372" lon="9.186273"><time>2024-05-04T06:56:36.000Z</time><ele>1113.6</ele></trkpt><trkpt lat="45.833725" lon="9.18627"><time>2024-05-04T06:56:37.000Z</time><ele>1113.8</ele></trkpt><trkpt lat="45.833731" lon="9.186262"><time>2024-05-04T06:56:38.000Z</time><ele>1114.2</ele></trkpt><trkpt lat="45.833735" lon="9.186255"><time>2024-05-04T06:56:39.000Z</time><ele>1114.4</ele></trkpt><trkpt lat="45.833749" lon="9.186234"><time>2024-05-04T06:56:40.000Z</time><ele>1114.6</ele></trkpt><trkpt lat="45.833758" lon="9.186218"><time>2024-05-04T06:56:41.000Z</time><ele>1114.8</ele></trkpt><trkpt lat="45.833768" lon="9.186208"><time>2024-05-04T06:56:42.000Z</time><ele>1115</ele></trkpt><trkpt lat="45.833781" lon="9.186201"><time>2024-05-04T06:56:43.000Z</time><ele>1115.2</ele></trkpt><trkpt lat="45.833797" lon="9.186184"><time>2024-05-04T06:56:44.000Z</time><ele>1115.4</ele></trkpt><trkpt lat="45.833807" lon="9.186169"><time>2024-05-04T06:56:45.000Z</time><ele>1115.6</ele></trkpt><trkpt lat="45.833816" lon="9.186156"><time>2024-05-04T06:56:46.000Z</time><ele>1115.6</ele></trkpt><trkpt lat="45.833822" lon="9.186145"><time>2024-05-04T06:56:47.000Z</time><ele>1115.8</ele></trkpt><trkpt lat="45.83383" lon="9.186135"><time>2024-05-04T06:56:48.000Z</time><ele>1115.8</ele></trkpt><trkpt lat="45.833835" lon="9.186127"><time>2024-05-04T06:56:49.000Z</time><ele>1116</ele></trkpt><trkpt lat="45.833842" lon="9.186118"><time>2024-05-04T06:56:50.000Z</time><ele>1116</ele></trkpt><trkpt lat="45.833846" lon="9.186107"><time>2024-05-04T06:56:51.000Z</time><ele>1116</ele></trkpt><trkpt lat="45.833849" lon="9.186098"><time>2024-05-04T06:56:52.000Z</time><ele>1116.2</ele></trkpt><trkpt lat="45.833856" lon="9.186091"><time>2024-05-04T06:56:53.000Z</time><ele>1116.2</ele></trkpt><trkpt lat="45.833865" lon="9.186086"><time>2024-05-04T06:56:54.000Z</time><ele>1116.4</ele></trkpt><trkpt lat="45.833867" lon="9.186078"><time>2024-05-04T06:56:55.000Z</time><ele>1116.6</ele></trkpt><trkpt lat="45.83387" lon="9.186066"><time>2024-05-04T06:56:56.000Z</time><ele>1117</ele></trkpt><trkpt lat="45.833878" lon="9.186051"><time>2024-05-04T06:56:57.000Z</time><ele>1117.2</ele></trkpt><trkpt lat="45.833882" lon="9.186037"><time>2024-05-04T06:56:58.000Z</time><ele>1117.6</ele></trkpt><trkpt lat="45.833884" lon="9.186024"><time>2024-05-04T06:56:59.000Z</time><ele>1117.8</ele></trkpt><trkpt lat="45.833886" lon="9.186013"><time>2024-05-04T06:57:00.000Z</time><ele>1118</ele></trkpt><trkpt lat="45.833892" lon="9.186005"><time>2024-05-04T06:57:01.000Z</time><ele>1118.2</ele></trkpt><trkpt lat="45.833903" lon="9.186001"><time>2024-05-04T06:57:02.000Z</time><ele>1118.4</ele></trkpt><trkpt lat="45.833912" lon="9.185995"><time>2024-05-04T06:57:03.000Z</time><ele>1118.6</ele></trkpt><trkpt lat="45.833924" lon="9.185982"><time>2024-05-04T06:57:04.000Z</time><ele>1118.6</ele></trkpt><trkpt lat="45.833927" lon="9.185971"><time>2024-05-04T06:57:05.000Z</time><ele>1118.8</ele></trkpt><trkpt lat="45.833927" lon="9.185966"><time>2024-05-04T06:57:06.000Z</time><ele>1118.8</ele></trkpt><trkpt lat="45.833931" lon="9.185959"><time>2024-05-04T06:57:07.000Z</time><ele>1119</ele></trkpt><trkpt lat="45.833934" lon="9.185954"><time>2024-05-04T06:57:08.000Z</time><ele>1119.2</ele></trkpt><trkpt lat="45.833938" lon="9.185951"><time>2024-05-04T06:57:09.000Z</time><ele>1119.4</ele></trkpt><trkpt lat="45.833945" lon="9.185938"><time>2024-05-04T06:57:10.000Z</time><ele>1119.4</ele></trkpt><trkpt lat="45.833947" lon="9.185929"><time>2024-05-04T06:57:11.000Z</time><ele>1119.4</ele></trkpt><trkpt lat="45.833947" lon="9.185921"><time>2024-05-04T06:57:12.000Z</time><ele>1119.6</ele></trkpt><trkpt lat="45.833943" lon="9.185918"><time>2024-05-04T06:57:13.000Z</time><ele>1119.6</ele></trkpt><trkpt lat="45.833945" lon="9.185909"><time>2024-05-04T06:57:14.000Z</time><ele>1119.8</ele></trkpt><trkpt lat="45.833938" lon="9.185901"><time>2024-05-04T06:57:15.000Z</time><ele>1120</ele></trkpt><trkpt lat="45.833938" lon="9.185899"><time>2024-05-04T06:57:16.000Z</time><ele>1120</ele></trkpt><trkpt lat="45.833937" lon="9.185896"><time>2024-05-04T06:57:17.000Z</time><ele>1120.2</ele></trkpt><trkpt lat="45.833937" lon="9.185895"><time>2024-05-04T06:57:18.000Z</time><ele>1120.4</ele></trkpt><trkpt lat="45.833936" lon="9.185895"><time>2024-05-04T06:57:19.000Z</time><ele>1120.6</ele></trkpt><trkpt lat="45.833935" lon="9.185894"><time>2024-05-04T06:57:20.000Z</time><ele>1120.8</ele></trkpt><trkpt lat="45.833935" lon="9.185892"><time>2024-05-04T06:57:21.000Z</time><ele>1120.8</ele></trkpt><trkpt lat="45.833934" lon="9.185891"><time>2024-05-04T06:57:22.000Z</time><ele>1121</ele></trkpt><trkpt lat="45.833933" lon="9.185892"><time>2024-05-04T06:57:23.000Z</time><ele>1121</ele></trkpt><trkpt lat="45.833931" lon="9.185895"><time>2024-05-04T06:57:24.000Z</time><ele>1121</ele></trkpt><trkpt lat="45.833928" lon="9.185897"><time>2024-05-04T06:57:25.000Z</time><ele>1121</ele></trkpt><trkpt lat="45.833926" lon="9.185899"><time>2024-05-04T06:57:26.000Z</time><ele>1121</ele></trkpt><trkpt lat="45.833923" lon="9.185902"><time>2024-05-04T06:57:27.000Z</time><ele>1120.6</ele></trkpt><trkpt lat="45.833921" lon="9.185897"><time>2024-05-04T06:57:28.000Z</time><ele>1120.6</ele></trkpt><trkpt lat="45.83392" lon="9.185892"><time>2024-05-04T06:57:29.000Z</time><ele>1120.4</ele></trkpt><trkpt lat="45.833919" lon="9.185889"><time>2024-05-04T06:57:30.000Z</time><ele>1120.4</ele></trkpt><trkpt lat="45.833917" lon="9.185887"><time>2024-05-04T06:57:31.000Z</time><ele>1120.4</ele></trkpt><trkpt lat="45.833916" lon="9.185887"><time>2024-05-04T06:57:32.000Z</time><ele>1120.4</ele></trkpt><trkpt lat="45.833915" lon="9.185887"><time>2024-05-04T06:57:33.000Z</time><ele>1120.4</ele></trkpt><trkpt lat="45.833912" lon="9.185885"><time>2024-05-04T06:57:34.000Z</time><ele>1120.4</ele></trkpt><trkpt lat="45.833908" lon="9.185885"><time>2024-05-04T06:57:35.000Z</time><ele>1120.4</ele></trkpt><trkpt lat="45.833913" lon="9.185879"><time>2024-05-04T06:57:36.000Z</time><ele>1120.4</ele></trkpt><trkpt lat="45.833913" lon="9.185881"><time>2024-05-04T06:57:37.000Z</time><ele>1120.4</ele></trkpt><trkpt lat="45.833913" lon="9.185883"><time>2024-05-04T06:57:38.000Z</time><ele>1120.4</ele></trkpt><trkpt lat="45.833913" lon="9.185885"><time>2024-05-04T06:57:39.000Z</time><ele>1120.6</ele></trkpt><trkpt lat="45.833911" lon="9.185887"><time>2024-05-04T06:57:40.000Z</time><ele>1120.6</ele></trkpt><trkpt lat="45.833909" lon="9.185888"><time>2024-05-04T06:57:41.000Z</time><ele>1120.8</ele></trkpt><trkpt lat="45.833907" lon="9.18589"><time>2024-05-04T06:57:42.000Z</time><ele>1120.8</ele></trkpt><trkpt lat="45.833903" lon="9.185893"><time>2024-05-04T06:57:43.000Z</time><ele>1120.8</ele></trkpt><trkpt lat="45.833902" lon="9.185894"><time>2024-05-04T06:57:44.000Z</time><ele>1120.8</ele></trkpt><trkpt lat="45.833904" lon="9.185897"><time>2024-05-04T06:57:45.000Z</time><ele>1120.8</ele></trkpt><trkpt lat="45.833907" lon="9.185897"><time>2024-05-04T06:57:46.000Z</time><ele>1120.8</ele></trkpt><trkpt lat="45.833904" lon="9.185901"><time>2024-05-04T06:57:47.000Z</time><ele>1120.8</ele></trkpt><trkpt lat="45.833904" lon="9.185899"><time>2024-05-04T06:57:48.000Z</time><ele>1120.8</ele></trkpt><trkpt lat="45.833905" lon="9.185897"><time>2024-05-04T06:57:49.000Z</time><ele>1120.8</ele></trkpt><trkpt lat="45.833905" lon="9.185896"><time>2024-05-04T06:57:50.000Z</time><ele>1120.8</ele></trkpt><trkpt lat="45.833904" lon="9.185896"><time>2024-05-04T06:57:51.000Z</time><ele>1120.8</ele></trkpt><trkpt lat="45.833905" lon="9.185896"><time>2024-05-04T06:57:52.000Z</time><ele>1120.6</ele></trkpt><trkpt lat="45.833905" lon="9.185896"><time>2024-05-04T06:57:53.000Z</time><ele>1120.4</ele></trkpt><trkpt lat="45.833905" lon="9.185896"><time>2024-05-04T06:57:54.000Z</time><ele>1120.4</ele></trkpt><trkpt lat="45.833905" lon="9.185896"><time>2024-05-04T06:57:55.000Z</time><ele>1120.4</ele></trkpt><trkpt lat="45.833905" lon="9.185896"><time>2024-05-04T06:57:56.000Z</time><ele>1120.2</ele></trkpt><trkpt lat="45.833905" lon="9.185896"><time>2024-05-04T06:57:57.000Z</time><ele>1120.2</ele></trkpt><trkpt lat="45.833905" lon="9.185896"><time>2024-05-04T06:57:58.000Z</time><ele>1120.2</ele></trkpt><trkpt lat="45.833905" lon="9.185896"><time>2024-05-04T06:57:59.000Z</time><ele>1120.2</ele></trkpt><trkpt lat="45.833905" lon="9.185896"><time>2024-05-04T06:58:00.000Z</time><ele>1120.2</ele></trkpt><trkpt lat="45.833905" lon="9.185896"><time>2024-05-04T06:58:01.000Z</time><ele>1120.2</ele></trkpt><trkpt lat="45.833905" lon="9.185896"><time>2024-05-04T06:58:02.000Z</time><ele>1120.2</ele></trkpt><trkpt lat="45.833905" lon="9.185896"><time>2024-05-04T06:58:03.000Z</time><ele>1120.2</ele></trkpt><trkpt lat="45.833905" lon="9.185896"><time>2024-05-04T06:58:04.000Z</time><ele>1120.2</ele></trkpt><trkpt lat="45.833905" lon="9.185896"><time>2024-05-04T06:58:05.000Z</time><ele>1120.2</ele></trkpt><trkpt lat="45.833905" lon="9.185896"><time>2024-05-04T06:58:06.000Z</time><ele>1120.2</ele></trkpt><trkpt lat="45.833905" lon="9.185896"><time>2024-05-04T06:58:07.000Z</time><ele>1120.2</ele></trkpt><trkpt lat="45.833905" lon="9.185896"><time>2024-05-04T06:58:08.000Z</time><ele>1120.2</ele></trkpt><trkpt lat="45.833905" lon="9.185896"><time>2024-05-04T06:58:09.000Z</time><ele>1120.2</ele></trkpt><trkpt lat="45.833905" lon="9.185896"><time>2024-05-04T06:58:10.000Z</time><ele>1120.2</ele></trkpt><trkpt lat="45.833904" lon="9.185896"><time>2024-05-04T06:58:11.000Z</time><ele>1120.2</ele></trkpt><trkpt lat="45.833904" lon="9.185896"><time>2024-05-04T06:58:12.000Z</time><ele>1120.2</ele></trkpt><trkpt lat="45.833904" lon="9.185896"><time>2024-05-04T06:58:13.000Z</time><ele>1120.2</ele></trkpt><trkpt lat="45.833904" lon="9.185896"><time>2024-05-04T06:58:14.000Z</time><ele>1120.2</ele></trkpt><trkpt lat="45.833904" lon="9.185896"><time>2024-05-04T06:58:15.000Z</time><ele>1120.2</ele></trkpt><trkpt lat="45.833904" lon="9.185896"><time>2024-05-04T06:58:16.000Z</time><ele>1120.2</ele></trkpt><trkpt lat="45.833904" lon="9.185896"><time>2024-05-04T06:58:17.000Z</time><ele>1120.2</ele></trkpt><trkpt lat="45.833904" lon="9.185896"><time>2024-05-04T06:58:18.000Z</time><ele>1120</ele></trkpt><trkpt lat="45.833902" lon="9.185896"><time>2024-05-04T06:58:19.000Z</time><ele>1120</ele></trkpt><trkpt lat="45.833899" lon="9.185896"><time>2024-05-04T06:58:20.000Z</time><ele>1120</ele></trkpt><trkpt lat="45.833892" lon="9.185897"><time>2024-05-04T06:58:21.000Z</time><ele>1119.8</ele></trkpt><trkpt lat="45.833888" lon="9.185897"><time>2024-05-04T06:58:22.000Z</time><ele>1119.8</ele></trkpt><trkpt lat="45.833884" lon="9.1859"><time>2024-05-04T06:58:23.000Z</time><ele>1119.8</ele></trkpt><trkpt lat="45.833882" lon="9.185902"><time>2024-05-04T06:58:24.000Z</time><ele>1119.8</ele></trkpt><trkpt lat="45.833881" lon="9.185903"><time>2024-05-04T06:58:25.000Z</time><ele>1119.8</ele></trkpt><trkpt lat="45.833881" lon="9.185904"><time>2024-05-04T06:58:26.000Z</time><ele>1120</ele></trkpt><trkpt lat="45.833881" lon="9.185904"><time>2024-05-04T06:58:27.000Z</time><ele>1120</ele></trkpt><trkpt lat="45.833881" lon="9.185904"><time>2024-05-04T06:58:28.000Z</time><ele>1120</ele></trkpt><trkpt lat="45.833881" lon="9.185904"><time>2024-05-04T06:58:29.000Z</time><ele>1120.2</ele></trkpt><trkpt lat="45.833881" lon="9.185904"><time>2024-05-04T06:58:30.000Z</time><ele>1120.2</ele></trkpt><trkpt lat="45.833881" lon="9.185904"><time>2024-05-04T06:58:31.000Z</time><ele>1120.2</ele></trkpt><trkpt lat="45.833881" lon="9.185905"><time>2024-05-04T06:58:32.000Z</time><ele>1120.2</ele></trkpt><trkpt lat="45.833881" lon="9.185905"><time>2024-05-04T06:58:33.000Z</time><ele>1120.2</ele></trkpt><trkpt lat="45.833881" lon="9.185905"><time>2024-05-04T06:58:34.000Z</time><ele>1120.2</ele></trkpt><trkpt lat="45.833881" lon="9.185906"><time>2024-05-04T06:58:35.000Z</time><ele>1120.2</ele></trkpt><trkpt lat="45.833881" lon="9.185906"><time>2024-05-04T06:58:36.000Z</time><ele>1120.2</ele></trkpt><trkpt lat="45.833881" lon="9.185906"><time>2024-05-04T06:58:37.000Z</time><ele>1120</ele></trkpt><trkpt lat="45.833881" lon="9.185906"><time>2024-05-04T06:58:38.000Z</time><ele>1120</ele></trkpt><trkpt lat="45.833881" lon="9.185906"><time>2024-05-04T06:58:39.000Z</time><ele>1120</ele></trkpt><trkpt lat="45.833881" lon="9.185906"><time>2024-05-04T06:58:40.000Z</time><ele>1120</ele></trkpt><trkpt lat="45.833882" lon="9.185906"><time>2024-05-04T06:58:41.000Z</time><ele>1120</ele></trkpt><trkpt lat="45.833882" lon="9.185906"><time>2024-05-04T06:58:42.000Z</time><ele>1120</ele></trkpt><trkpt lat="45.833882" lon="9.185906"><time>2024-05-04T06:58:43.000Z</time><ele>1120</ele></trkpt><trkpt lat="45.833882" lon="9.185906"><time>2024-05-04T06:58:44.000Z</time><ele>1120</ele></trkpt><trkpt lat="45.833883" lon="9.185906"><time>2024-05-04T06:58:45.000Z</time><ele>1120</ele></trkpt><trkpt lat="45.833883" lon="9.185906"><time>2024-05-04T06:58:46.000Z</time><ele>1120.2</ele></trkpt><trkpt lat="45.833884" lon="9.185906"><time>2024-05-04T06:58:47.000Z</time><ele>1120.2</ele></trkpt><trkpt lat="45.833885" lon="9.185906"><time>2024-05-04T06:58:48.000Z</time><ele>1120.2</ele></trkpt><trkpt lat="45.833886" lon="9.185906"><time>2024-05-04T06:58:49.000Z</time><ele>1120.2</ele></trkpt><trkpt lat="45.833886" lon="9.185906"><time>2024-05-04T06:58:50.000Z</time><ele>1120.2</ele></trkpt><trkpt lat="45.833887" lon="9.185906"><time>2024-05-04T06:58:51.000Z</time><ele>1120.4</ele></trkpt><trkpt lat="45.833887" lon="9.185906"><time>2024-05-04T06:58:52.000Z</time><ele>1120.6</ele></trkpt><trkpt lat="45.833888" lon="9.185907"><time>2024-05-04T06:58:53.000Z</time><ele>1120.6</ele></trkpt><trkpt lat="45.833889" lon="9.185907"><time>2024-05-04T06:58:54.000Z</time><ele>1120.8</ele></trkpt><trkpt lat="45.833891" lon="9.185907"><time>2024-05-04T06:58:55.000Z</time><ele>1120.8</ele></trkpt><trkpt lat="45.833892" lon="9.185907"><time>2024-05-04T06:58:56.000Z</time><ele>1121</ele></trkpt><trkpt lat="45.833893" lon="9.185909"><time>2024-05-04T06:58:57.000Z</time><ele>1121.2</ele></trkpt><trkpt lat="45.833895" lon="9.185911"><time>2024-05-04T06:58:58.000Z</time><ele>1121.2</ele></trkpt><trkpt lat="45.833897" lon="9.185913"><time>2024-05-04T06:58:59.000Z</time><ele>1121.6</ele></trkpt><trkpt lat="45.833897" lon="9.185926"><time>2024-05-04T06:59:00.000Z</time><ele>1121.6</ele></trkpt><trkpt lat="45.83389" lon="9.185953"><time>2024-05-04T06:59:01.000Z</time><ele>1121.8</ele></trkpt><trkpt lat="45.833883" lon="9.185976"><time>2024-05-04T06:59:02.000Z</time><ele>1122</ele></trkpt><trkpt lat="45.833876" lon="9.185997"><time>2024-05-04T06:59:03.000Z</time><ele>1122.2</ele></trkpt><trkpt lat="45.833875" lon="9.186016"><time>2024-05-04T06:59:04.000Z</time><ele>1122.4</ele></trkpt><trkpt lat="45.833884" lon="9.186035"><time>2024-05-04T06:59:05.000Z</time><ele>1122.6</ele></trkpt><trkpt lat="45.833887" lon="9.186058"><time>2024-05-04T06:59:06.000Z</time><ele>1122.8</ele></trkpt><trkpt lat="45.833894" lon="9.186081"><time>2024-05-04T06:59:07.000Z</time><ele>1122.8</ele></trkpt><trkpt lat="45.833896" lon="9.186104"><time>2024-05-04T06:59:08.000Z</time><ele>1123</ele></trkpt><trkpt lat="45.833895" lon="9.186123"><time>2024-05-04T06:59:09.000Z</time><ele>1123</ele></trkpt><trkpt lat="45.833893" lon="9.186123"><time>2024-05-04T06:59:10.000Z</time><ele>1123.4</ele></trkpt><trkpt lat="45.833888" lon="9.186135"><time>2024-05-04T06:59:11.000Z</time><ele>1123.4</ele></trkpt><trkpt lat="45.833889" lon="9.186141"><time>2024-05-04T06:59:12.000Z</time><ele>1123.6</ele></trkpt><trkpt lat="45.833893" lon="9.18615"><time>2024-05-04T06:59:13.000Z</time><ele>1123.8</ele></trkpt><trkpt lat="45.833898" lon="9.186157"><time>2024-05-04T06:59:14.000Z</time><ele>1124.2</ele></trkpt><trkpt lat="45.833901" lon="9.186158"><time>2024-05-04T06:59:15.000Z</time><ele>1124.4</ele></trkpt><trkpt lat="45.833904" lon="9.186156"><time>2024-05-04T06:59:16.000Z</time><ele>1124.6</ele></trkpt><trkpt lat="45.833905" lon="9.186152"><time>2024-05-04T06:59:17.000Z</time><ele>1124.6</ele></trkpt><trkpt lat="45.833903" lon="9.18615"><time>2024-05-04T06:59:18.000Z</time><ele>1124.8</ele></trkpt><trkpt lat="45.833904" lon="9.186153"><time>2024-05-04T06:59:19.000Z</time><ele>1124.8</ele></trkpt><trkpt lat="45.833906" lon="9.186159"><time>2024-05-04T06:59:20.000Z</time><ele>1124.8</ele></trkpt><trkpt lat="45.833909" lon="9.186167"><time>2024-05-04T06:59:21.000Z</time><ele>1124.8</ele></trkpt><trkpt lat="45.833912" lon="9.186175"><time>2024-05-04T06:59:22.000Z</time><ele>1125</ele></trkpt><trkpt lat="45.833916" lon="9.186181"><time>2024-05-04T06:59:23.000Z</time><ele>1125</ele></trkpt><trkpt lat="45.833919" lon="9.186186"><time>2024-05-04T06:59:24.000Z</time><ele>1125.2</ele></trkpt><trkpt lat="45.833919" lon="9.186188"><time>2024-05-04T06:59:25.000Z</time><ele>1125.2</ele></trkpt><trkpt lat="45.833926" lon="9.186187"><time>2024-05-04T06:59:26.000Z</time><ele>1125.4</ele></trkpt><trkpt lat="45.833929" lon="9.186189"><time>2024-05-04T06:59:27.000Z</time><ele>1125.4</ele></trkpt><trkpt lat="45.833929" lon="9.186193"><time>2024-05-04T06:59:28.000Z</time><ele>1125.4</ele></trkpt><trkpt lat="45.833929" lon="9.186202"><time>2024-05-04T06:59:29.000Z</time><ele>1125.6</ele></trkpt><trkpt lat="45.833929" lon="9.186204"><time>2024-05-04T06:59:30.000Z</time><ele>1125.6</ele></trkpt><trkpt lat="45.83393" lon="9.186204"><time>2024-05-04T06:59:31.000Z</time><ele>1125.6</ele></trkpt><trkpt lat="45.833931" lon="9.186204"><time>2024-05-04T06:59:32.000Z</time><ele>1125.6</ele></trkpt><trkpt lat="45.833932" lon="9.186204"><time>2024-05-04T06:59:33.000Z</time><ele>1125.6</ele></trkpt><trkpt lat="45.833933" lon="9.186212"><time>2024-05-04T06:59:34.000Z</time><ele>1125.4</ele></trkpt><trkpt lat="45.833937" lon="9.186221"><time>2024-05-04T06:59:35.000Z</time><ele>1125.4</ele></trkpt><trkpt lat="45.833942" lon="9.18622"><time>2024-05-04T06:59:36.000Z</time><ele>1125.4</ele></trkpt><trkpt lat="45.833948" lon="9.18622"><time>2024-05-04T06:59:37.000Z</time><ele>1125.4</ele></trkpt><trkpt lat="45.833951" lon="9.186221"><time>2024-05-04T06:59:38.000Z</time><ele>1125.4</ele></trkpt><trkpt lat="45.833957" lon="9.186221"><time>2024-05-04T06:59:39.000Z</time><ele>1125.4</ele></trkpt><trkpt lat="45.833963" lon="9.186218"><time>2024-05-04T06:59:40.000Z</time><ele>1125.4</ele></trkpt><trkpt lat="45.833962" lon="9.186218"><time>2024-05-04T06:59:41.000Z</time><ele>1125.4</ele></trkpt><trkpt lat="45.833965" lon="9.186219"><time>2024-05-04T06:59:42.000Z</time><ele>1125.4</ele></trkpt><trkpt lat="45.833971" lon="9.186215"><time>2024-05-04T06:59:43.000Z</time><ele>1125.4</ele></trkpt><trkpt lat="45.833978" lon="9.18621"><time>2024-05-04T06:59:44.000Z</time><ele>1125.4</ele></trkpt><trkpt lat="45.83398" lon="9.186205"><time>2024-05-04T06:59:45.000Z</time><ele>1125.4</ele></trkpt><trkpt lat="45.833985" lon="9.186201"><time>2024-05-04T06:59:46.000Z</time><ele>1125.4</ele></trkpt><trkpt lat="45.833998" lon="9.186196"><time>2024-05-04T06:59:47.000Z</time><ele>1125.6</ele></trkpt><trkpt lat="45.834013" lon="9.186193"><time>2024-05-04T06:59:48.000Z</time><ele>1125.6</ele></trkpt><trkpt lat="45.834026" lon="9.186194"><time>2024-05-04T06:59:49.000Z</time><ele>1126</ele></trkpt><trkpt lat="45.83403" lon="9.186192"><time>2024-05-04T06:59:50.000Z</time><ele>1126.2</ele></trkpt><trkpt lat="45.834033" lon="9.186188"><time>2024-05-04T06:59:51.000Z</time><ele>1126.2</ele></trkpt><trkpt lat="45.834031" lon="9.186187"><time>2024-05-04T06:59:52.000Z</time><ele>1126.6</ele></trkpt><trkpt lat="45.834034" lon="9.186185"><time>2024-05-04T06:59:53.000Z</time><ele>1126.8</ele></trkpt><trkpt lat="45.834044" lon="9.186178"><time>2024-05-04T06:59:54.000Z</time><ele>1127</ele></trkpt><trkpt lat="45.834056" lon="9.186174"><time>2024-05-04T06:59:55.000Z</time><ele>1127</ele></trkpt><trkpt lat="45.834062" lon="9.186173"><time>2024-05-04T06:59:56.000Z</time><ele>1127.2</ele></trkpt><trkpt lat="45.834068" lon="9.186168"><time>2024-05-04T06:59:57.000Z</time><ele>1127.4</ele></trkpt><trkpt lat="45.83407" lon="9.186167"><time>2024-05-04T06:59:58.000Z</time><ele>1127.6</ele></trkpt><trkpt lat="45.834073" lon="9.186164"><time>2024-05-04T06:59:59.000Z</time><ele>1127.8</ele></trkpt><trkpt lat="45.834077" lon="9.186161"><time>2024-05-04T07:00:00.000Z</time><ele>1128</ele></trkpt><trkpt lat="45.834086" lon="9.186164"><time>2024-05-04T07:00:01.000Z</time><ele>1128</ele></trkpt><trkpt lat="45.834098" lon="9.186161"><time>2024-05-04T07:00:02.000Z</time><ele>1128.2</ele></trkpt><trkpt lat="45.834114" lon="9.186159"><time>2024-05-04T07:00:03.000Z</time><ele>1128.4</ele></trkpt><trkpt lat="45.834118" lon="9.186159"><time>2024-05-04T07:00:04.000Z</time><ele>1128.4</ele></trkpt><trkpt lat="45.834122" lon="9.186156"><time>2024-05-04T07:00:05.000Z</time><ele>1128.6</ele></trkpt><trkpt lat="45.834129" lon="9.186155"><time>2024-05-04T07:00:06.000Z</time><ele>1128.8</ele></trkpt><trkpt lat="45.834134" lon="9.186148"><time>2024-05-04T07:00:07.000Z</time><ele>1129</ele></trkpt><trkpt lat="45.834138" lon="9.186143"><time>2024-05-04T07:00:08.000Z</time><ele>1129</ele></trkpt><trkpt lat="45.834144" lon="9.18614"><time>2024-05-04T07:00:09.000Z</time><ele>1129.2</ele></trkpt><trkpt lat="45.83415" lon="9.186139"><time>2024-05-04T07:00:10.000Z</time><ele>1129.2</ele></trkpt><trkpt lat="45.834155" lon="9.186138"><time>2024-05-04T07:00:11.000Z</time><ele>1129.4</ele></trkpt><trkpt lat="45.834161" lon="9.186136"><time>2024-05-04T07:00:12.000Z</time><ele>1129.6</ele></trkpt><trkpt lat="45.834168" lon="9.186137"><time>2024-05-04T07:00:13.000Z</time><ele>1129.8</ele></trkpt><trkpt lat="45.834172" lon="9.186136"><time>2024-05-04T07:00:14.000Z</time><ele>1130</ele></trkpt><trkpt lat="45.834178" lon="9.186139"><time>2024-05-04T07:00:15.000Z</time><ele>1130.2</ele></trkpt><trkpt lat="45.834187" lon="9.186143"><time>2024-05-04T07:00:16.000Z</time><ele>1130.4</ele></trkpt><trkpt lat="45.834192" lon="9.186144"><time>2024-05-04T07:00:17.000Z</time><ele>1130.6</ele></trkpt><trkpt lat="45.834194" lon="9.186144"><time>2024-05-04T07:00:18.000Z</time><ele>1130.8</ele></trkpt><trkpt lat="45.834199" lon="9.18614"><time>2024-05-04T07:00:19.000Z</time><ele>1131</ele></trkpt><trkpt lat="45.834203" lon="9.186138"><time>2024-05-04T07:00:20.000Z</time><ele>1131.2</ele></trkpt><trkpt lat="45.83421" lon="9.186135"><time>2024-05-04T07:00:21.000Z</time><ele>1131.4</ele></trkpt><trkpt lat="45.834216" lon="9.186135"><time>2024-05-04T07:00:22.000Z</time><ele>1131.6</ele></trkpt><trkpt lat="45.83422" lon="9.186132"><time>2024-05-04T07:00:23.000Z</time><ele>1131.6</ele></trkpt><trkpt lat="45.834228" lon="9.18613"><time>2024-05-04T07:00:24.000Z</time><ele>1131.6</ele></trkpt><trkpt lat="45.834234" lon="9.18613"><time>2024-05-04T07:00:25.000Z</time><ele>1131.8</ele></trkpt><trkpt lat="45.834239" lon="9.18613"><time>2024-05-04T07:00:26.000Z</time><ele>1132</ele></trkpt><trkpt lat="45.834242" lon="9.186128"><time>2024-05-04T07:00:27.000Z</time><ele>1132.2</ele></trkpt><trkpt lat="45.834248" lon="9.186123"><time>2024-05-04T07:00:28.000Z</time><ele>1132.4</ele></trkpt><trkpt lat="45.834254" lon="9.186121"><time>2024-05-04T07:00:29.000Z</time><ele>1132.6</ele></trkpt><trkpt lat="45.834258" lon="9.186117"><time>2024-05-04T07:00:30.000Z</time><ele>1132.6</ele></trkpt><trkpt lat="45.83426" lon="9.186115"><time>2024-05-04T07:00:31.000Z</time><ele>1132.8</ele></trkpt><trkpt lat="45.83426" lon="9.186111"><time>2024-05-04T07:00:32.000Z</time><ele>1133</ele></trkpt><trkpt lat="45.834261" lon="9.186109"><time>2024-05-04T07:00:33.000Z</time><ele>1133</ele></trkpt><trkpt lat="45.834263" lon="9.18611"><time>2024-05-04T07:00:34.000Z</time><ele>1133.2</ele></trkpt><trkpt lat="45.834265" lon="9.186114"><time>2024-05-04T07:00:35.000Z</time><ele>1133.4</ele></trkpt><trkpt lat="45.834268" lon="9.18612"><time>2024-05-04T07:00:36.000Z</time><ele>1133.4</ele></trkpt><trkpt lat="45.834268" lon="9.186124"><time>2024-05-04T07:00:37.000Z</time><ele>1133.4</ele></trkpt><trkpt lat="45.834269" lon="9.186125"><time>2024-05-04T07:00:38.000Z</time><ele>1133.4</ele></trkpt><trkpt lat="45.834268" lon="9.186128"><time>2024-05-04T07:00:39.000Z</time><ele>1133.4</ele></trkpt><trkpt lat="45.83427" lon="9.186129"><time>2024-05-04T07:00:40.000Z</time><ele>1133.4</ele></trkpt><trkpt lat="45.834271" lon="9.186132"><time>2024-05-04T07:00:41.000Z</time><ele>1133.6</ele></trkpt><trkpt lat="45.834272" lon="9.186135"><time>2024-05-04T07:00:42.000Z</time><ele>1133.6</ele></trkpt><trkpt lat="45.834273" lon="9.186133"><time>2024-05-04T07:00:43.000Z</time><ele>1133.6</ele></trkpt><trkpt lat="45.834273" lon="9.186133"><time>2024-05-04T07:00:44.000Z</time><ele>1133.8</ele></trkpt><trkpt lat="45.834273" lon="9.186133"><time>2024-05-04T07:00:45.000Z</time><ele>1134</ele></trkpt><trkpt lat="45.834273" lon="9.186133"><time>2024-05-04T07:00:46.000Z</time><ele>1134</ele></trkpt><trkpt lat="45.834273" lon="9.186133"><time>2024-05-04T07:00:47.000Z</time><ele>1134</ele></trkpt><trkpt lat="45.834273" lon="9.186133"><time>2024-05-04T07:00:48.000Z</time><ele>1134</ele></trkpt><trkpt lat="45.834273" lon="9.186133"><time>2024-05-04T07:00:49.000Z</time><ele>1134</ele></trkpt><trkpt lat="45.834273" lon="9.186133"><time>2024-05-04T07:00:50.000Z</time><ele>1134</ele></trkpt><trkpt lat="45.834273" lon="9.186133"><time>2024-05-04T07:00:51.000Z</time><ele>1133.8</ele></trkpt><trkpt lat="45.834273" lon="9.186133"><time>2024-05-04T07:00:52.000Z</time><ele>1133.8</ele></trkpt><trkpt lat="45.834273" lon="9.186133"><time>2024-05-04T07:00:53.000Z</time><ele>1134</ele></trkpt><trkpt lat="45.834273" lon="9.186133"><time>2024-05-04T07:00:54.000Z</time><ele>1134</ele></trkpt><trkpt lat="45.834273" lon="9.186133"><time>2024-05-04T07:00:55.000Z</time><ele>1134</ele></trkpt><trkpt lat="45.834273" lon="9.186133"><time>2024-05-04T07:00:56.000Z</time><ele>1134.2</ele></trkpt><trkpt lat="45.834273" lon="9.186133"><time>2024-05-04T07:00:57.000Z</time><ele>1134.4</ele></trkpt><trkpt lat="45.834273" lon="9.186133"><time>2024-05-04T07:00:58.000Z</time><ele>1134.4</ele></trkpt><trkpt lat="45.834273" lon="9.186133"><time>2024-05-04T07:00:59.000Z</time><ele>1134.6</ele></trkpt><trkpt lat="45.834274" lon="9.186132"><time>2024-05-04T07:01:00.000Z</time><ele>1134.8</ele></trkpt><trkpt lat="45.834279" lon="9.186126"><time>2024-05-04T07:01:01.000Z</time><ele>1134.8</ele></trkpt><trkpt lat="45.834289" lon="9.186116"><time>2024-05-04T07:01:02.000Z</time><ele>1135</ele></trkpt><trkpt lat="45.834299" lon="9.186102"><time>2024-05-04T07:01:03.000Z</time><ele>1135</ele></trkpt><trkpt lat="45.834312" lon="9.186089"><time>2024-05-04T07:01:04.000Z</time><ele>1135.4</ele></trkpt><trkpt lat="45.834321" lon="9.186078"><time>2024-05-04T07:01:05.000Z</time><ele>1135.6</ele></trkpt><trkpt lat="45.834331" lon="9.186067"><time>2024-05-04T07:01:06.000Z</time><ele>1135.8</ele></trkpt><trkpt lat="45.83434" lon="9.186059"><time>2024-05-04T07:01:07.000Z</time><ele>1136</ele></trkpt><trkpt lat="45.83435" lon="9.186041"><time>2024-05-04T07:01:08.000Z</time><ele>1136</ele></trkpt><trkpt lat="45.834359" lon="9.186022"><time>2024-05-04T07:01:09.000Z</time><ele>1136.2</ele></trkpt><trkpt lat="45.834367" lon="9.186003"><time>2024-05-04T07:01:10.000Z</time><ele>1136.4</ele></trkpt><trkpt lat="45.834374" lon="9.185992"><time>2024-05-04T07:01:11.000Z</time><ele>1136.6</ele></trkpt><trkpt lat="45.834376" lon="9.185989"><time>2024-05-04T07:01:12.000Z</time><ele>1136.6</ele></trkpt><trkpt lat="45.834385" lon="9.185981"><time>2024-05-04T07:01:13.000Z</time><ele>1137</ele></trkpt><trkpt lat="45.834392" lon="9.185973"><time>2024-05-04T07:01:14.000Z</time><ele>1137.2</ele></trkpt><trkpt lat="45.834399" lon="9.185968"><time>2024-05-04T07:01:15.000Z</time><ele>1137.4</ele></trkpt><trkpt lat="45.834404" lon="9.185964"><time>2024-05-04T07:01:16.000Z</time><ele>1137.8</ele></trkpt><trkpt lat="45.834412" lon="9.185957"><time>2024-05-04T07:01:17.000Z</time><ele>1138</ele></trkpt><trkpt lat="45.834419" lon="9.185952"><time>2024-05-04T07:01:18.000Z</time><ele>1138</ele></trkpt><trkpt lat="45.834424" lon="9.185948"><time>2024-05-04T07:01:19.000Z</time><ele>1138.2</ele></trkpt><trkpt lat="45.834431" lon="9.185943"><time>2024-05-04T07:01:20.000Z</time><ele>1138.4</ele></trkpt><trkpt lat="45.834438" lon="9.185938"><time>2024-05-04T07:01:21.000Z</time><ele>1138.8</ele></trkpt><trkpt lat="45.834444" lon="9.185935"><time>2024-05-04T07:01:22.000Z</time><ele>1139</ele></trkpt><trkpt lat="45.834455" lon="9.185933"><time>2024-05-04T07:01:23.000Z</time><ele>1139</ele></trkpt><trkpt lat="45.834466" lon="9.18593"><time>2024-05-04T07:01:24.000Z</time><ele>1139.2</ele></trkpt><trkpt lat="45.834479" lon="9.185928"><time>2024-05-04T07:01:25.000Z</time><ele>1139.4</ele></trkpt><trkpt lat="45.83449" lon="9.185925"><time>2024-05-04T07:01:26.000Z</time><ele>1139.4</ele></trkpt><trkpt lat="45.834501" lon="9.185914"><time>2024-05-04T07:01:27.000Z</time><ele>1139.6</ele></trkpt><trkpt lat="45.834507" lon="9.185912"><time>2024-05-04T07:01:28.000Z</time><ele>1139.6</ele></trkpt><trkpt lat="45.834509" lon="9.185913"><time>2024-05-04T07:01:29.000Z</time><ele>1139.8</ele></trkpt><trkpt lat="45.834514" lon="9.185909"><time>2024-05-04T07:01:30.000Z</time><ele>1140</ele></trkpt><trkpt lat="45.834517" lon="9.185908"><time>2024-05-04T07:01:31.000Z</time><ele>1140.2</ele></trkpt><trkpt lat="45.834521" lon="9.18591"><time>2024-05-04T07:01:32.000Z</time><ele>1140.4</ele></trkpt><trkpt lat="45.834535" lon="9.185913"><time>2024-05-04T07:01:33.000Z</time><ele>1140.6</ele></trkpt><trkpt lat="45.834545" lon="9.18591"><time>2024-05-04T07:01:34.000Z</time><ele>1140.8</ele></trkpt><trkpt lat="45.834549" lon="9.185906"><time>2024-05-04T07:01:35.000Z</time><ele>1141</ele></trkpt><trkpt lat="45.834549" lon="9.185907"><time>2024-05-04T07:01:36.000Z</time><ele>1141.2</ele></trkpt><trkpt lat="45.83455" lon="9.185908"><time>2024-05-04T07:01:37.000Z</time><ele>1141.2</ele></trkpt><trkpt lat="45.834562" lon="9.185904"><time>2024-05-04T07:01:38.000Z</time><ele>1141.4</ele></trkpt><trkpt lat="45.834569" lon="9.185907"><time>2024-05-04T07:01:39.000Z</time><ele>1141.4</ele></trkpt><trkpt lat="45.834575" lon="9.185911"><time>2024-05-04T07:01:40.000Z</time><ele>1141.6</ele></trkpt><trkpt lat="45.834586" lon="9.185906"><time>2024-05-04T07:01:41.000Z</time><ele>1141.8</ele></trkpt><trkpt lat="45.834594" lon="9.185901"><time>2024-05-04T07:01:42.000Z</time><ele>1142</ele></trkpt><trkpt lat="45.834607" lon="9.185892"><time>2024-05-04T07:01:43.000Z</time><ele>1142.2</ele></trkpt><trkpt lat="45.834618" lon="9.185887"><time>2024-05-04T07:01:44.000Z</time><ele>1142.4</ele></trkpt><trkpt lat="45.834629" lon="9.185884"><time>2024-05-04T07:01:45.000Z</time><ele>1142.4</ele></trkpt><trkpt lat="45.834634" lon="9.185883"><time>2024-05-04T07:01:46.000Z</time><ele>1142.8</ele></trkpt><trkpt lat="45.834643" lon="9.185879"><time>2024-05-04T07:01:47.000Z</time><ele>1143</ele></trkpt><trkpt lat="45.834646" lon="9.185878"><time>2024-05-04T07:01:48.000Z</time><ele>1143.2</ele></trkpt><trkpt lat="45.834653" lon="9.185877"><time>2024-05-04T07:01:49.000Z</time><ele>1143.4</ele></trkpt><trkpt lat="45.83466" lon="9.185869"><time>2024-05-04T07:01:50.000Z</time><ele>1143.6</ele></trkpt><trkpt lat="45.834669" lon="9.185858"><time>2024-05-04T07:01:51.000Z</time><ele>1143.8</ele></trkpt><trkpt lat="45.834674" lon="9.185856"><time>2024-05-04T07:01:52.000Z</time><ele>1144</ele></trkpt><trkpt lat="45.834687" lon="9.185854"><time>2024-05-04T07:01:53.000Z</time><ele>1144.2</ele></trkpt><trkpt lat="45.834698" lon="9.185851"><time>2024-05-04T07:01:54.000Z</time><ele>1144.6</ele></trkpt><trkpt lat="45.83471" lon="9.185847"><time>2024-05-04T07:01:55.000Z</time><ele>1144.6</ele></trkpt><trkpt lat="45.83472" lon="9.185843"><time>2024-05-04T07:01:56.000Z</time><ele>1144.8</ele></trkpt><trkpt lat="45.834732" lon="9.185836"><time>2024-05-04T07:01:57.000Z</time><ele>1145</ele></trkpt><trkpt lat="45.834744" lon="9.185827"><time>2024-05-04T07:01:58.000Z</time><ele>1145.2</ele></trkpt><trkpt lat="45.834757" lon="9.185823"><time>2024-05-04T07:01:59.000Z</time><ele>1145.4</ele></trkpt><trkpt lat="45.834771" lon="9.18582"><time>2024-05-04T07:02:00.000Z</time><ele>1145.6</ele></trkpt><trkpt lat="45.834778" lon="9.18582"><time>2024-05-04T07:02:01.000Z</time><ele>1145.6</ele></trkpt><trkpt lat="45.834786" lon="9.18582"><time>2024-05-04T07:02:02.000Z</time><ele>1145.8</ele></trkpt><trkpt lat="45.834787" lon="9.185824"><time>2024-05-04T07:02:03.000Z</time><ele>1145.8</ele></trkpt><trkpt lat="45.834795" lon="9.185819"><time>2024-05-04T07:02:04.000Z</time><ele>1146</ele></trkpt><trkpt lat="45.834802" lon="9.185817"><time>2024-05-04T07:02:05.000Z</time><ele>1146.2</ele></trkpt><trkpt lat="45.834808" lon="9.18582"><time>2024-05-04T07:02:06.000Z</time><ele>1146.4</ele></trkpt><trkpt lat="45.834813" lon="9.18583"><time>2024-05-04T07:02:07.000Z</time><ele>1146.6</ele></trkpt><trkpt lat="45.834815" lon="9.185834"><time>2024-05-04T07:02:08.000Z</time><ele>1146.8</ele></trkpt><trkpt lat="45.834816" lon="9.185841"><time>2024-05-04T07:02:09.000Z</time><ele>1147</ele></trkpt><trkpt lat="45.834821" lon="9.185848"><time>2024-05-04T07:02:10.000Z</time><ele>1147.2</ele></trkpt><trkpt lat="45.834825" lon="9.185848"><time>2024-05-04T07:02:11.000Z</time><ele>1147.4</ele></trkpt><trkpt lat="45.834829" lon="9.185848"><time>2024-05-04T07:02:12.000Z</time><ele>1147.6</ele></trkpt><trkpt lat="45.834834" lon="9.185854"><time>2024-05-04T07:02:13.000Z</time><ele>1147.8</ele></trkpt><trkpt lat="45.834841" lon="9.185863"><time>2024-05-04T07:02:14.000Z</time><ele>1148</ele></trkpt><trkpt lat="45.834848" lon="9.185871"><time>2024-05-04T07:02:15.000Z</time><ele>1148.2</ele></trkpt><trkpt lat="45.83486" lon="9.185878"><time>2024-05-04T07:02:16.000Z</time><ele>1148.4</ele></trkpt><trkpt lat="45.834869" lon="9.185882"><time>2024-05-04T07:02:17.000Z</time><ele>1148.4</ele></trkpt><trkpt lat="45.834876" lon="9.185891"><time>2024-05-04T07:02:18.000Z</time><ele>1148.4</ele></trkpt><trkpt lat="45.834881" lon="9.185895"><time>2024-05-04T07:02:19.000Z</time><ele>1148.6</ele></trkpt><trkpt lat="45.834887" lon="9.185898"><time>2024-05-04T07:02:20.000Z</time><ele>1148.8</ele></trkpt><trkpt lat="45.834895" lon="9.185908"><time>2024-05-04T07:02:21.000Z</time><ele>1149</ele></trkpt><trkpt lat="45.834899" lon="9.185909"><time>2024-05-04T07:02:22.000Z</time><ele>1149.2</ele></trkpt><trkpt lat="45.834908" lon="9.185908"><time>2024-05-04T07:02:23.000Z</time><ele>1149.4</ele></trkpt><trkpt lat="45.834917" lon="9.185918"><time>2024-05-04T07:02:24.000Z</time><ele>1149.6</ele></trkpt><trkpt lat="45.834925" lon="9.185926"><time>2024-05-04T07:02:25.000Z</time><ele>1149.8</ele></trkpt><trkpt lat="45.834931" lon="9.185928"><time>2024-05-04T07:02:26.000Z</time><ele>1149.8</ele></trkpt><trkpt lat="45.834938" lon="9.185932"><time>2024-05-04T07:02:27.000Z</time><ele>1150</ele></trkpt><trkpt lat="45.834945" lon="9.185934"><time>2024-05-04T07:02:28.000Z</time><ele>1150</ele></trkpt><trkpt lat="45.83495" lon="9.185933"><time>2024-05-04T07:02:29.000Z</time><ele>1150.2</ele></trkpt><trkpt lat="45.834955" lon="9.185933"><time>2024-05-04T07:02:30.000Z</time><ele>1150.2</ele></trkpt><trkpt lat="45.834961" lon="9.185931"><time>2024-05-04T07:02:31.000Z</time><ele>1150.4</ele></trkpt><trkpt lat="45.834967" lon="9.185927"><time>2024-05-04T07:02:32.000Z</time><ele>1150.6</ele></trkpt><trkpt lat="45.83497" lon="9.185926"><time>2024-05-04T07:02:33.000Z</time><ele>1150.6</ele></trkpt><trkpt lat="45.83497" lon="9.185927"><time>2024-05-04T07:02:34.000Z</time><ele>1151.2</ele></trkpt><trkpt lat="45.834969" lon="9.185926"><time>2024-05-04T07:02:35.000Z</time><ele>1151.4</ele></trkpt><trkpt lat="45.834968" lon="9.185925"><time>2024-05-04T07:02:36.000Z</time><ele>1151.6</ele></trkpt><trkpt lat="45.834965" lon="9.185928"><time>2024-05-04T07:02:37.000Z</time><ele>1151.8</ele></trkpt><trkpt lat="45.834964" lon="9.18593"><time>2024-05-04T07:02:38.000Z</time><ele>1151.8</ele></trkpt><trkpt lat="45.834959" lon="9.185937"><time>2024-05-04T07:02:39.000Z</time><ele>1151.8</ele></trkpt><trkpt lat="45.834954" lon="9.185941"><time>2024-05-04T07:02:40.000Z</time><ele>1151.8</ele></trkpt><trkpt lat="45.83495" lon="9.185945"><time>2024-05-04T07:02:41.000Z</time><ele>1152</ele></trkpt><trkpt lat="45.834949" lon="9.185946"><time>2024-05-04T07:02:42.000Z</time><ele>1152</ele></trkpt><trkpt lat="45.834949" lon="9.185946"><time>2024-05-04T07:02:43.000Z</time><ele>1152</ele></trkpt><trkpt lat="45.834949" lon="9.185946"><time>2024-05-04T07:02:44.000Z</time><ele>1152</ele></trkpt><trkpt lat="45.834949" lon="9.185946"><time>2024-05-04T07:02:45.000Z</time><ele>1152</ele></trkpt><trkpt lat="45.834949" lon="9.185946"><time>2024-05-04T07:02:46.000Z</time><ele>1152</ele></trkpt><trkpt lat="45.834949" lon="9.185946"><time>2024-05-04T07:02:47.000Z</time><ele>1151.8</ele></trkpt><trkpt lat="45.834949" lon="9.185946"><time>2024-05-04T07:02:48.000Z</time><ele>1151.8</ele></trkpt><trkpt lat="45.834949" lon="9.185946"><time>2024-05-04T07:02:49.000Z</time><ele>1151.6</ele></trkpt><trkpt lat="45.83495" lon="9.185946"><time>2024-05-04T07:02:50.000Z</time><ele>1151.6</ele></trkpt><trkpt lat="45.83495" lon="9.185945"><time>2024-05-04T07:02:51.000Z</time><ele>1151.6</ele></trkpt><trkpt lat="45.834952" lon="9.185945"><time>2024-05-04T07:02:52.000Z</time><ele>1151.6</ele></trkpt><trkpt lat="45.834954" lon="9.185941"><time>2024-05-04T07:02:53.000Z</time><ele>1151.6</ele></trkpt><trkpt lat="45.834956" lon="9.185941"><time>2024-05-04T07:02:54.000Z</time><ele>1151.6</ele></trkpt><trkpt lat="45.834958" lon="9.185941"><time>2024-05-04T07:02:55.000Z</time><ele>1151.6</ele></trkpt><trkpt lat="45.834959" lon="9.185941"><time>2024-05-04T07:02:56.000Z</time><ele>1151.6</ele></trkpt><trkpt lat="45.834959" lon="9.185941"><time>2024-05-04T07:02:57.000Z</time><ele>1151.6</ele></trkpt><trkpt lat="45.834959" lon="9.185941"><time>2024-05-04T07:02:58.000Z</time><ele>1151.6</ele></trkpt><trkpt lat="45.834959" lon="9.185941"><time>2024-05-04T07:02:59.000Z</time><ele>1151.8</ele></trkpt><trkpt lat="45.834959" lon="9.185941"><time>2024-05-04T07:03:00.000Z</time><ele>1152</ele></trkpt><trkpt lat="45.834959" lon="9.185941"><time>2024-05-04T07:03:01.000Z</time><ele>1152</ele></trkpt><trkpt lat="45.834959" lon="9.185941"><time>2024-05-04T07:03:02.000Z</time><ele>1152</ele></trkpt><trkpt lat="45.834959" lon="9.185941"><time>2024-05-04T07:03:03.000Z</time><ele>1152.2</ele></trkpt><trkpt lat="45.834959" lon="9.185942"><time>2024-05-04T07:03:04.000Z</time><ele>1152.2</ele></trkpt><trkpt lat="45.834959" lon="9.185944"><time>2024-05-04T07:03:05.000Z</time><ele>1152.2</ele></trkpt><trkpt lat="45.834959" lon="9.185945"><time>2024-05-04T07:03:06.000Z</time><ele>1152.2</ele></trkpt><trkpt lat="45.834959" lon="9.185945"><time>2024-05-04T07:03:07.000Z</time><ele>1152.2</ele></trkpt><trkpt lat="45.834959" lon="9.185945"><time>2024-05-04T07:03:08.000Z</time><ele>1152</ele></trkpt><trkpt lat="45.834959" lon="9.185945"><time>2024-05-04T07:03:09.000Z</time><ele>1152</ele></trkpt><trkpt lat="45.834959" lon="9.185945"><time>2024-05-04T07:03:10.000Z</time><ele>1151.8</ele></trkpt><trkpt lat="45.834959" lon="9.185945"><time>2024-05-04T07:03:11.000Z</time><ele>1151.8</ele></trkpt><trkpt lat="45.834959" lon="9.185945"><time>2024-05-04T07:03:12.000Z</time><ele>1151.8</ele></trkpt><trkpt lat="45.834959" lon="9.185945"><time>2024-05-04T07:03:13.000Z</time><ele>1151.8</ele></trkpt><trkpt lat="45.834959" lon="9.185945"><time>2024-05-04T07:03:14.000Z</time><ele>1151.8</ele></trkpt><trkpt lat="45.834959" lon="9.185945"><time>2024-05-04T07:03:15.000Z</time><ele>1151.8</ele></trkpt><trkpt lat="45.834959" lon="9.185946"><time>2024-05-04T07:03:16.000Z</time><ele>1151.8</ele></trkpt><trkpt lat="45.834959" lon="9.185946"><time>2024-05-04T07:03:17.000Z</time><ele>1151.8</ele></trkpt><trkpt lat="45.834959" lon="9.185946"><time>2024-05-04T07:03:18.000Z</time><ele>1151.8</ele></trkpt><trkpt lat="45.834958" lon="9.185946"><time>2024-05-04T07:03:19.000Z</time><ele>1151.8</ele></trkpt><trkpt lat="45.834957" lon="9.185947"><time>2024-05-04T07:03:20.000Z</time><ele>1151.8</ele></trkpt><trkpt lat="45.834957" lon="9.185947"><time>2024-05-04T07:03:21.000Z</time><ele>1151.8</ele></trkpt><trkpt lat="45.834956" lon="9.185947"><time>2024-05-04T07:03:22.000Z</time><ele>1151.8</ele></trkpt><trkpt lat="45.834956" lon="9.185947"><time>2024-05-04T07:03:23.000Z</time><ele>1151.8</ele></trkpt><trkpt lat="45.834956" lon="9.185948"><time>2024-05-04T07:03:24.000Z</time><ele>1151.6</ele></trkpt><trkpt lat="45.834955" lon="9.185949"><time>2024-05-04T07:03:25.000Z</time><ele>1151.6</ele></trkpt><trkpt lat="45.834955" lon="9.185949"><time>2024-05-04T07:03:26.000Z</time><ele>1151.6</ele></trkpt><trkpt lat="45.834955" lon="9.18595"><time>2024-05-04T07:03:27.000Z</time><ele>1151.6</ele></trkpt><trkpt lat="45.834955" lon="9.18595"><time>2024-05-04T07:03:28.000Z</time><ele>1151.6</ele></trkpt><trkpt lat="45.834955" lon="9.18595"><time>2024-05-04T07:03:29.000Z</time><ele>1151.8</ele></trkpt><trkpt lat="45.834954" lon="9.18595"><time>2024-05-04T07:03:30.000Z</time><ele>1151.8</ele></trkpt><trkpt lat="45.834954" lon="9.18595"><time>2024-05-04T07:03:31.000Z</time><ele>1151.8</ele></trkpt><trkpt lat="45.834954" lon="9.18595"><time>2024-05-04T07:03:32.000Z</time><ele>1151.8</ele></trkpt><trkpt lat="45.834954" lon="9.185951"><time>2024-05-04T07:03:33.000Z</time><ele>1151.8</ele></trkpt><trkpt lat="45.834954" lon="9.185952"><time>2024-05-04T07:03:34.000Z</time><ele>1151.8</ele></trkpt><trkpt lat="45.834954" lon="9.185953"><time>2024-05-04T07:03:35.000Z</time><ele>1151.8</ele></trkpt><trkpt lat="45.834954" lon="9.185953"><time>2024-05-04T07:03:36.000Z</time><ele>1151.8</ele></trkpt><trkpt lat="45.834954" lon="9.185954"><time>2024-05-04T07:03:37.000Z</time><ele>1151.8</ele></trkpt><trkpt lat="45.834954" lon="9.185955"><time>2024-05-04T07:03:38.000Z</time><ele>1151.8</ele></trkpt><trkpt lat="45.834954" lon="9.185955"><time>2024-05-04T07:03:39.000Z</time><ele>1151.8</ele></trkpt><trkpt lat="45.834955" lon="9.185956"><time>2024-05-04T07:03:40.000Z</time><ele>1151.6</ele></trkpt><trkpt lat="45.834955" lon="9.185956"><time>2024-05-04T07:03:41.000Z</time><ele>1151.6</ele></trkpt><trkpt lat="45.834955" lon="9.185956"><time>2024-05-04T07:03:42.000Z</time><ele>1151.6</ele></trkpt><trkpt lat="45.834955" lon="9.185957"><time>2024-05-04T07:03:43.000Z</time><ele>1151.6</ele></trkpt><trkpt lat="45.834955" lon="9.185958"><time>2024-05-04T07:03:44.000Z</time><ele>1151.6</ele></trkpt><trkpt lat="45.834955" lon="9.185958"><time>2024-05-04T07:03:45.000Z</time><ele>1151.6</ele></trkpt><trkpt lat="45.834955" lon="9.185958"><time>2024-05-04T07:03:46.000Z</time><ele>1151.6</ele></trkpt><trkpt lat="45.834956" lon="9.185958"><time>2024-05-04T07:03:47.000Z</time><ele>1151.6</ele></trkpt><trkpt lat="45.834956" lon="9.185958"><time>2024-05-04T07:03:48.000Z</time><ele>1151.6</ele></trkpt><trkpt lat="45.834956" lon="9.185958"><time>2024-05-04T07:03:49.000Z</time><ele>1151.6</ele></trkpt><trkpt lat="45.834956" lon="9.185958"><time>2024-05-04T07:03:50.000Z</time><ele>1151.6</ele></trkpt><trkpt lat="45.834957" lon="9.185959"><time>2024-05-04T07:03:51.000Z</time><ele>1151.6</ele></trkpt><trkpt lat="45.834957" lon="9.185959"><time>2024-05-04T07:03:52.000Z</time><ele>1151.4</ele></trkpt><trkpt lat="45.834957" lon="9.185959"><time>2024-05-04T07:03:53.000Z</time><ele>1151.4</ele></trkpt><trkpt lat="45.834958" lon="9.185959"><time>2024-05-04T07:03:54.000Z</time><ele>1151.4</ele></trkpt><trkpt lat="45.834958" lon="9.185959"><time>2024-05-04T07:03:55.000Z</time><ele>1151.4</ele></trkpt><trkpt lat="45.834959" lon="9.185959"><time>2024-05-04T07:03:56.000Z</time><ele>1151.4</ele></trkpt><trkpt lat="45.834959" lon="9.185959"><time>2024-05-04T07:03:57.000Z</time><ele>1151.4</ele></trkpt><trkpt lat="45.834959" lon="9.185959"><time>2024-05-04T07:03:58.000Z</time><ele>1151.4</ele></trkpt><trkpt lat="45.834959" lon="9.185959"><time>2024-05-04T07:03:59.000Z</time><ele>1151.4</ele></trkpt><trkpt lat="45.834959" lon="9.18596"><time>2024-05-04T07:04:00.000Z</time><ele>1151.4</ele></trkpt><trkpt lat="45.834959" lon="9.18596"><time>2024-05-04T07:04:01.000Z</time><ele>1151.4</ele></trkpt><trkpt lat="45.834959" lon="9.18596"><time>2024-05-04T07:04:02.000Z</time><ele>1151.4</ele></trkpt><trkpt lat="45.834959" lon="9.185961"><time>2024-05-04T07:04:03.000Z</time><ele>1151.4</ele></trkpt><trkpt lat="45.834959" lon="9.185961"><time>2024-05-04T07:04:04.000Z</time><ele>1151.4</ele></trkpt><trkpt lat="45.834959" lon="9.185961"><time>2024-05-04T07:04:05.000Z</time><ele>1151.4</ele></trkpt><trkpt lat="45.834959" lon="9.185961"><time>2024-05-04T07:04:06.000Z</time><ele>1151.4</ele></trkpt><trkpt lat="45.834959" lon="9.185962"><time>2024-05-04T07:04:07.000Z</time><ele>1151.4</ele></trkpt><trkpt lat="45.834959" lon="9.185962"><time>2024-05-04T07:04:08.000Z</time><ele>1151.4</ele></trkpt><trkpt lat="45.834959" lon="9.185962"><time>2024-05-04T07:04:09.000Z</time><ele>1151.4</ele></trkpt><trkpt lat="45.834959" lon="9.185963"><time>2024-05-04T07:04:10.000Z</time><ele>1151.4</ele></trkpt><trkpt lat="45.834959" lon="9.185963"><time>2024-05-04T07:04:11.000Z</time><ele>1151.4</ele></trkpt><trkpt lat="45.834959" lon="9.185963"><time>2024-05-04T07:04:12.000Z</time><ele>1151.4</ele></trkpt><trkpt lat="45.834959" lon="9.185964"><time>2024-05-04T07:04:13.000Z</time><ele>1151.4</ele></trkpt><trkpt lat="45.834959" lon="9.185965"><time>2024-05-04T07:04:14.000Z</time><ele>1151.4</ele></trkpt><trkpt lat="45.834959" lon="9.185966"><time>2024-05-04T07:04:15.000Z</time><ele>1151.4</ele></trkpt><trkpt lat="45.834958" lon="9.185967"><time>2024-05-04T07:04:16.000Z</time><ele>1151.4</ele></trkpt><trkpt lat="45.834958" lon="9.185968"><time>2024-05-04T07:04:17.000Z</time><ele>1151.4</ele></trkpt><trkpt lat="45.834957" lon="9.18597"><time>2024-05-04T07:04:18.000Z</time><ele>1151.4</ele></trkpt><trkpt lat="45.834957" lon="9.18597"><time>2024-05-04T07:04:19.000Z</time><ele>1151.4</ele></trkpt><trkpt lat="45.834956" lon="9.185971"><time>2024-05-04T07:04:20.000Z</time><ele>1151.4</ele></trkpt><trkpt lat="45.834955" lon="9.185972"><time>2024-05-04T07:04:21.000Z</time><ele>1151.4</ele></trkpt><trkpt lat="45.834954" lon="9.185972"><time>2024-05-04T07:04:22.000Z</time><ele>1151.4</ele></trkpt><trkpt lat="45.834954" lon="9.185972"><time>2024-05-04T07:04:23.000Z</time><ele>1151.4</ele></trkpt><trkpt lat="45.834954" lon="9.185973"><time>2024-05-04T07:04:24.000Z</time><ele>1151.4</ele></trkpt><trkpt lat="45.834954" lon="9.185973"><time>2024-05-04T07:04:25.000Z</time><ele>1151.4</ele></trkpt><trkpt lat="45.834954" lon="9.185973"><time>2024-05-04T07:04:26.000Z</time><ele>1151.4</ele></trkpt><trkpt lat="45.834953" lon="9.185973"><time>2024-05-04T07:04:27.000Z</time><ele>1151.4</ele></trkpt><trkpt lat="45.834953" lon="9.185974"><time>2024-05-04T07:04:28.000Z</time><ele>1151.4</ele></trkpt><trkpt lat="45.834953" lon="9.185974"><time>2024-05-04T07:04:29.000Z</time><ele>1151.4</ele></trkpt><trkpt lat="45.834953" lon="9.185974"><time>2024-05-04T07:04:30.000Z</time><ele>1151.4</ele></trkpt><trkpt lat="45.834953" lon="9.185974"><time>2024-05-04T07:04:31.000Z</time><ele>1151.4</ele></trkpt><trkpt lat="45.834953" lon="9.185975"><time>2024-05-04T07:04:32.000Z</time><ele>1151.4</ele></trkpt><trkpt lat="45.834953" lon="9.185977"><time>2024-05-04T07:04:33.000Z</time><ele>1151.4</ele></trkpt><trkpt lat="45.834953" lon="9.185978"><time>2024-05-04T07:04:34.000Z</time><ele>1151.4</ele></trkpt><trkpt lat="45.834953" lon="9.185979"><time>2024-05-04T07:04:35.000Z</time><ele>1151.4</ele></trkpt><trkpt lat="45.834953" lon="9.18598"><time>2024-05-04T07:04:36.000Z</time><ele>1151.4</ele></trkpt><trkpt lat="45.834953" lon="9.185981"><time>2024-05-04T07:04:37.000Z</time><ele>1151.4</ele></trkpt><trkpt lat="45.834954" lon="9.185981"><time>2024-05-04T07:04:38.000Z</time><ele>1151.4</ele></trkpt><trkpt lat="45.834954" lon="9.185981"><time>2024-05-04T07:04:39.000Z</time><ele>1151.4</ele></trkpt><trkpt lat="45.834954" lon="9.185982"><time>2024-05-04T07:04:40.000Z</time><ele>1151.4</ele></trkpt><trkpt lat="45.834954" lon="9.185983"><time>2024-05-04T07:04:41.000Z</time><ele>1151.4</ele></trkpt><trkpt lat="45.834954" lon="9.185984"><time>2024-05-04T07:04:42.000Z</time><ele>1151.4</ele></trkpt><trkpt lat="45.834954" lon="9.185984"><time>2024-05-04T07:04:43.000Z</time><ele>1151.4</ele></trkpt><trkpt lat="45.834956" lon="9.185984"><time>2024-05-04T07:04:44.000Z</time><ele>1151.4</ele></trkpt><trkpt lat="45.834958" lon="9.185985"><time>2024-05-04T07:04:45.000Z</time><ele>1151.4</ele></trkpt><trkpt lat="45.834959" lon="9.185985"><time>2024-05-04T07:04:46.000Z</time><ele>1151.4</ele></trkpt><trkpt lat="45.83496" lon="9.185985"><time>2024-05-04T07:04:47.000Z</time><ele>1151.4</ele></trkpt><trkpt lat="45.83496" lon="9.185985"><time>2024-05-04T07:04:48.000Z</time><ele>1151.4</ele></trkpt><trkpt lat="45.834961" lon="9.185985"><time>2024-05-04T07:04:49.000Z</time><ele>1151.4</ele></trkpt><trkpt lat="45.834961" lon="9.185985"><time>2024-05-04T07:04:50.000Z</time><ele>1151.4</ele></trkpt><trkpt lat="45.834962" lon="9.185985"><time>2024-05-04T07:04:51.000Z</time><ele>1151.4</ele></trkpt><trkpt lat="45.834962" lon="9.185984"><time>2024-05-04T07:04:52.000Z</time><ele>1151.4</ele></trkpt><trkpt lat="45.834967" lon="9.185984"><time>2024-05-04T07:04:53.000Z</time><ele>1151.4</ele></trkpt><trkpt lat="45.83498" lon="9.185988"><time>2024-05-04T07:04:54.000Z</time><ele>1151.4</ele></trkpt><trkpt lat="45.834993" lon="9.185991"><time>2024-05-04T07:04:55.000Z</time><ele>1151.4</ele></trkpt><trkpt lat="45.835003" lon="9.185995"><time>2024-05-04T07:04:56.000Z</time><ele>1151.4</ele></trkpt><trkpt lat="45.835003" lon="9.185995"><time>2024-05-04T07:04:57.000Z</time><ele>1151.4</ele></trkpt><trkpt lat="45.835028" lon="9.186002"><time>2024-05-04T07:04:58.000Z</time><ele>1151.4</ele></trkpt><trkpt lat="45.835037" lon="9.186005"><time>2024-05-04T07:04:59.000Z</time><ele>1151.4</ele></trkpt><trkpt lat="45.835049" lon="9.186014"><time>2024-05-04T07:05:00.000Z</time><ele>1151.4</ele></trkpt><trkpt lat="45.835061" lon="9.186024"><time>2024-05-04T07:05:01.000Z</time><ele>1151.4</ele></trkpt><trkpt lat="45.835073" lon="9.186031"><time>2024-05-04T07:05:02.000Z</time><ele>1151.4</ele></trkpt><trkpt lat="45.83508" lon="9.186037"><time>2024-05-04T07:05:03.000Z</time><ele>1152.6</ele></trkpt><trkpt lat="45.835084" lon="9.186038"><time>2024-05-04T07:05:04.000Z</time><ele>1153.2</ele></trkpt><trkpt lat="45.83509" lon="9.186037"><time>2024-05-04T07:05:05.000Z</time><ele>1153.6</ele></trkpt><trkpt lat="45.835097" lon="9.186036"><time>2024-05-04T07:05:06.000Z</time><ele>1153.8</ele></trkpt><trkpt lat="45.835104" lon="9.186034"><time>2024-05-04T07:05:07.000Z</time><ele>1154</ele></trkpt><trkpt lat="45.835112" lon="9.186031"><time>2024-05-04T07:05:08.000Z</time><ele>1154.2</ele></trkpt><trkpt lat="45.83512" lon="9.186028"><time>2024-05-04T07:05:09.000Z</time><ele>1154.4</ele></trkpt><trkpt lat="45.835124" lon="9.186026"><time>2024-05-04T07:05:10.000Z</time><ele>1154.6</ele></trkpt><trkpt lat="45.835125" lon="9.186022"><time>2024-05-04T07:05:11.000Z</time><ele>1154.6</ele></trkpt><trkpt lat="45.835126" lon="9.18602"><time>2024-05-04T07:05:12.000Z</time><ele>1154.6</ele></trkpt><trkpt lat="45.835129" lon="9.186018"><time>2024-05-04T07:05:13.000Z</time><ele>1154.6</ele></trkpt><trkpt lat="45.835137" lon="9.186018"><time>2024-05-04T07:05:14.000Z</time><ele>1154.6</ele></trkpt><trkpt lat="45.835144" lon="9.186012"><time>2024-05-04T07:05:15.000Z</time><ele>1154.6</ele></trkpt><trkpt lat="45.835152" lon="9.186002"><time>2024-05-04T07:05:16.000Z</time><ele>1154.6</ele></trkpt><trkpt lat="45.835155" lon="9.185996"><time>2024-05-04T07:05:17.000Z</time><ele>1154.6</ele></trkpt><trkpt lat="45.835154" lon="9.185995"><time>2024-05-04T07:05:18.000Z</time><ele>1154.6</ele></trkpt><trkpt lat="45.835152" lon="9.185997"><time>2024-05-04T07:05:19.000Z</time><ele>1154.6</ele></trkpt><trkpt lat="45.835149" lon="9.186007"><time>2024-05-04T07:05:20.000Z</time><ele>1154.6</ele></trkpt><trkpt lat="45.835149" lon="9.186011"><time>2024-05-04T07:05:21.000Z</time><ele>1154.8</ele></trkpt><trkpt lat="45.835154" lon="9.186006"><time>2024-05-04T07:05:22.000Z</time><ele>1154.8</ele></trkpt><trkpt lat="45.835162" lon="9.185996"><time>2024-05-04T07:05:23.000Z</time><ele>1154.8</ele></trkpt><trkpt lat="45.835169" lon="9.185981"><time>2024-05-04T07:05:24.000Z</time><ele>1154.8</ele></trkpt><trkpt lat="45.835173" lon="9.185965"><time>2024-05-04T07:05:25.000Z</time><ele>1155</ele></trkpt><trkpt lat="45.835172" lon="9.185952"><time>2024-05-04T07:05:26.000Z</time><ele>1155</ele></trkpt><trkpt lat="45.835169" lon="9.185944"><time>2024-05-04T07:05:27.000Z</time><ele>1155.2</ele></trkpt><trkpt lat="45.835165" lon="9.185934"><time>2024-05-04T07:05:28.000Z</time><ele>1155.2</ele></trkpt><trkpt lat="45.835161" lon="9.185925"><time>2024-05-04T07:05:29.000Z</time><ele>1155.4</ele></trkpt><trkpt lat="45.835159" lon="9.185908"><time>2024-05-04T07:05:30.000Z</time><ele>1155.6</ele></trkpt><trkpt lat="45.835153" lon="9.185894"><time>2024-05-04T07:05:31.000Z</time><ele>1155.6</ele></trkpt><trkpt lat="45.835146" lon="9.185884"><time>2024-05-04T07:05:32.000Z</time><ele>1155.8</ele></trkpt><trkpt lat="45.835141" lon="9.185876"><time>2024-05-04T07:05:33.000Z</time><ele>1156</ele></trkpt><trkpt lat="45.835139" lon="9.185868"><time>2024-05-04T07:05:34.000Z</time><ele>1156</ele></trkpt><trkpt lat="45.835138" lon="9.185855"><time>2024-05-04T07:05:35.000Z</time><ele>1156.2</ele></trkpt><trkpt lat="45.835131" lon="9.185842"><time>2024-05-04T07:05:36.000Z</time><ele>1156.4</ele></trkpt><trkpt lat="45.835127" lon="9.185837"><time>2024-05-04T07:05:37.000Z</time><ele>1156.4</ele></trkpt><trkpt lat="45.835122" lon="9.185823"><time>2024-05-04T07:05:38.000Z</time><ele>1156.6</ele></trkpt><trkpt lat="45.835117" lon="9.185821"><time>2024-05-04T07:05:39.000Z</time><ele>1156.6</ele></trkpt><trkpt lat="45.835111" lon="9.185809"><time>2024-05-04T07:05:40.000Z</time><ele>1156.8</ele></trkpt><trkpt lat="45.835104" lon="9.1858"><time>2024-05-04T07:05:41.000Z</time><ele>1156.8</ele></trkpt><trkpt lat="45.835098" lon="9.185788"><time>2024-05-04T07:05:42.000Z</time><ele>1157</ele></trkpt><trkpt lat="45.835091" lon="9.185777"><time>2024-05-04T07:05:43.000Z</time><ele>1157.2</ele></trkpt><trkpt lat="45.835082" lon="9.185764"><time>2024-05-04T07:05:44.000Z</time><ele>1157.4</ele></trkpt><trkpt lat="45.835077" lon="9.185757"><time>2024-05-04T07:05:45.000Z</time><ele>1157.6</ele></trkpt><trkpt lat="45.835073" lon="9.185748"><time>2024-05-04T07:05:46.000Z</time><ele>1157.8</ele></trkpt><trkpt lat="45.835071" lon="9.185745"><time>2024-05-04T07:05:47.000Z</time><ele>1158</ele></trkpt><trkpt lat="45.835063" lon="9.185744"><time>2024-05-04T07:05:48.000Z</time><ele>1158.2</ele></trkpt><trkpt lat="45.835056" lon="9.185741"><time>2024-05-04T07:05:49.000Z</time><ele>1158.4</ele></trkpt><trkpt lat="45.835051" lon="9.185734"><time>2024-05-04T07:05:50.000Z</time><ele>1158.4</ele></trkpt><trkpt lat="45.835049" lon="9.185725"><time>2024-05-04T07:05:51.000Z</time><ele>1158.6</ele></trkpt><trkpt lat="45.835047" lon="9.185717"><time>2024-05-04T07:05:52.000Z</time><ele>1158.8</ele></trkpt><trkpt lat="45.83504" lon="9.185707"><time>2024-05-04T07:05:53.000Z</time><ele>1158.8</ele></trkpt><trkpt lat="45.835034" lon="9.1857"><time>2024-05-04T07:05:54.000Z</time><ele>1159</ele></trkpt><trkpt lat="45.83503" lon="9.18569"><time>2024-05-04T07:05:55.000Z</time><ele>1159</ele></trkpt><trkpt lat="45.835026" lon="9.18568"><time>2024-05-04T07:05:56.000Z</time><ele>1159.2</ele></trkpt><trkpt lat="45.835017" lon="9.185666"><time>2024-05-04T07:05:57.000Z</time><ele>1159.4</ele></trkpt><trkpt lat="45.83501" lon="9.185659"><time>2024-05-04T07:05:58.000Z</time><ele>1159.4</ele></trkpt><trkpt lat="45.835007" lon="9.185656"><time>2024-05-04T07:05:59.000Z</time><ele>1159.4</ele></trkpt><trkpt lat="45.835001" lon="9.185652"><time>2024-05-04T07:06:00.000Z</time><ele>1159.6</ele></trkpt><trkpt lat="45.834996" lon="9.185645"><time>2024-05-04T07:06:01.000Z</time><ele>1159.6</ele></trkpt><trkpt lat="45.834991" lon="9.185637"><time>2024-05-04T07:06:02.000Z</time><ele>1159.8</ele></trkpt><trkpt lat="45.834986" lon="9.185628"><time>2024-05-04T07:06:03.000Z</time><ele>1159.8</ele></trkpt><trkpt lat="45.834981" lon="9.185618"><time>2024-05-04T07:06:04.000Z</time><ele>1160</ele></trkpt><trkpt lat="45.834974" lon="9.185609"><time>2024-05-04T07:06:05.000Z</time><ele>1160</ele></trkpt><trkpt lat="45.834967" lon="9.185602"><time>2024-05-04T07:06:06.000Z</time><ele>1160.4</ele></trkpt><trkpt lat="45.834958" lon="9.185596"><time>2024-05-04T07:06:07.000Z</time><ele>1160.6</ele></trkpt><trkpt lat="45.83495" lon="9.185589"><time>2024-05-04T07:06:08.000Z</time><ele>1160.8</ele></trkpt><trkpt lat="45.834944" lon="9.185581"><time>2024-05-04T07:06:09.000Z</time><ele>1161</ele></trkpt><trkpt lat="45.834937" lon="9.185571"><time>2024-05-04T07:06:10.000Z</time><ele>1161.2</ele></trkpt><trkpt lat="45.83493" lon="9.18556"><time>2024-05-04T07:06:11.000Z</time><ele>1161.4</ele></trkpt><trkpt lat="45.834923" lon="9.185549"><time>2024-05-04T07:06:12.000Z</time><ele>1161.6</ele></trkpt><trkpt lat="45.834918" lon="9.185542"><time>2024-05-04T07:06:13.000Z</time><ele>1161.8</ele></trkpt><trkpt lat="45.834914" lon="9.185532"><time>2024-05-04T07:06:14.000Z</time><ele>1162</ele></trkpt><trkpt lat="45.834909" lon="9.185522"><time>2024-05-04T07:06:15.000Z</time><ele>1162.2</ele></trkpt><trkpt lat="45.834903" lon="9.185512"><time>2024-05-04T07:06:16.000Z</time><ele>1162.2</ele></trkpt><trkpt lat="45.834897" lon="9.185505"><time>2024-05-04T07:06:17.000Z</time><ele>1162.6</ele></trkpt><trkpt lat="45.834892" lon="9.185497"><time>2024-05-04T07:06:18.000Z</time><ele>1162.6</ele></trkpt><trkpt lat="45.834887" lon="9.185488"><time>2024-05-04T07:06:19.000Z</time><ele>1162.8</ele></trkpt><trkpt lat="45.83488" lon="9.185482"><time>2024-05-04T07:06:20.000Z</time><ele>1162.8</ele></trkpt><trkpt lat="45.834873" lon="9.185474"><time>2024-05-04T07:06:21.000Z</time><ele>1163.2</ele></trkpt><trkpt lat="45.834867" lon="9.185465"><time>2024-05-04T07:06:22.000Z</time><ele>1163.4</ele></trkpt><trkpt lat="45.834864" lon="9.185456"><time>2024-05-04T07:06:23.000Z</time><ele>1163.4</ele></trkpt><trkpt lat="45.83486" lon="9.185444"><time>2024-05-04T07:06:24.000Z</time><ele>1163.6</ele></trkpt><trkpt lat="45.834857" lon="9.185436"><time>2024-05-04T07:06:25.000Z</time><ele>1163.8</ele></trkpt><trkpt lat="45.834852" lon="9.185431"><time>2024-05-04T07:06:26.000Z</time><ele>1164</ele></trkpt><trkpt lat="45.834847" lon="9.185426"><time>2024-05-04T07:06:27.000Z</time><ele>1164.2</ele></trkpt><trkpt lat="45.834846" lon="9.185419"><time>2024-05-04T07:06:28.000Z</time><ele>1164.6</ele></trkpt><trkpt lat="45.834846" lon="9.185412"><time>2024-05-04T07:06:29.000Z</time><ele>1164.8</ele></trkpt><trkpt lat="45.834845" lon="9.185406"><time>2024-05-04T07:06:30.000Z</time><ele>1165</ele></trkpt><trkpt lat="45.834846" lon="9.1854"><time>2024-05-04T07:06:31.000Z</time><ele>1165</ele></trkpt><trkpt lat="45.834846" lon="9.185394"><time>2024-05-04T07:06:32.000Z</time><ele>1165.4</ele></trkpt><trkpt lat="45.834845" lon="9.185387"><time>2024-05-04T07:06:33.000Z</time><ele>1165.8</ele></trkpt><trkpt lat="45.834842" lon="9.185379"><time>2024-05-04T07:06:34.000Z</time><ele>1166</ele></trkpt><trkpt lat="45.834836" lon="9.185372"><time>2024-05-04T07:06:35.000Z</time><ele>1166.2</ele></trkpt><trkpt lat="45.834832" lon="9.185358"><time>2024-05-04T07:06:36.000Z</time><ele>1166.2</ele></trkpt><trkpt lat="45.834828" lon="9.185349"><time>2024-05-04T07:06:37.000Z</time><ele>1166.4</ele></trkpt><trkpt lat="45.834833" lon="9.185329"><time>2024-05-04T07:06:38.000Z</time><ele>1166.6</ele></trkpt><trkpt lat="45.834833" lon="9.185316"><time>2024-05-04T07:06:39.000Z</time><ele>1166.8</ele></trkpt><trkpt lat="45.834833" lon="9.185305"><time>2024-05-04T07:06:40.000Z</time><ele>1167</ele></trkpt><trkpt lat="45.834835" lon="9.185291"><time>2024-05-04T07:06:41.000Z</time><ele>1167.2</ele></trkpt><trkpt lat="45.83484" lon="9.18528"><time>2024-05-04T07:06:42.000Z</time><ele>1167.2</ele></trkpt><trkpt lat="45.834842" lon="9.185271"><time>2024-05-04T07:06:43.000Z</time><ele>1167.4</ele></trkpt><trkpt lat="45.834849" lon="9.185262"><time>2024-05-04T07:06:44.000Z</time><ele>1167.6</ele></trkpt><trkpt lat="45.834856" lon="9.185259"><time>2024-05-04T07:06:45.000Z</time><ele>1167.8</ele></trkpt><trkpt lat="45.834859" lon="9.185252"><time>2024-05-04T07:06:46.000Z</time><ele>1168</ele></trkpt><trkpt lat="45.834863" lon="9.18525"><time>2024-05-04T07:06:47.000Z</time><ele>1168.2</ele></trkpt><trkpt lat="45.834869" lon="9.185249"><time>2024-05-04T07:06:48.000Z</time><ele>1168.2</ele></trkpt><trkpt lat="45.834873" lon="9.185251"><time>2024-05-04T07:06:49.000Z</time><ele>1168.2</ele></trkpt><trkpt lat="45.834878" lon="9.185255"><time>2024-05-04T07:06:50.000Z</time><ele>1168.4</ele></trkpt><trkpt lat="45.834886" lon="9.185264"><time>2024-05-04T07:06:51.000Z</time><ele>1168.4</ele></trkpt><trkpt lat="45.834893" lon="9.185265"><time>2024-05-04T07:06:52.000Z</time><ele>1168.8</ele></trkpt><trkpt lat="45.834898" lon="9.185263"><time>2024-05-04T07:06:53.000Z</time><ele>1169</ele></trkpt><trkpt lat="45.834904" lon="9.185266"><time>2024-05-04T07:06:54.000Z</time><ele>1169</ele></trkpt><trkpt lat="45.834907" lon="9.185268"><time>2024-05-04T07:06:55.000Z</time><ele>1169.4</ele></trkpt><trkpt lat="45.834911" lon="9.185272"><time>2024-05-04T07:06:56.000Z</time><ele>1169.6</ele></trkpt><trkpt lat="45.834913" lon="9.185276"><time>2024-05-04T07:06:57.000Z</time><ele>1169.8</ele></trkpt><trkpt lat="45.834917" lon="9.185279"><time>2024-05-04T07:06:58.000Z</time><ele>1170</ele></trkpt><trkpt lat="45.834926" lon="9.185282"><time>2024-05-04T07:06:59.000Z</time><ele>1170.2</ele></trkpt><trkpt lat="45.834933" lon="9.185283"><time>2024-05-04T07:07:00.000Z</time><ele>1170.2</ele></trkpt><trkpt lat="45.834939" lon="9.185287"><time>2024-05-04T07:07:01.000Z</time><ele>1170.4</ele></trkpt><trkpt lat="45.834944" lon="9.185293"><time>2024-05-04T07:07:02.000Z</time><ele>1170.4</ele></trkpt><trkpt lat="45.834946" lon="9.1853"><time>2024-05-04T07:07:03.000Z</time><ele>1170.6</ele></trkpt><trkpt lat="45.834954" lon="9.185305"><time>2024-05-04T07:07:04.000Z</time><ele>1170.8</ele></trkpt><trkpt lat="45.834963" lon="9.185309"><time>2024-05-04T07:07:05.000Z</time><ele>1171</ele></trkpt><trkpt lat="45.834971" lon="9.185312"><time>2024-05-04T07:07:06.000Z</time><ele>1171</ele></trkpt><trkpt lat="45.834978" lon="9.185317"><time>2024-05-04T07:07:07.000Z</time><ele>1171.2</ele></trkpt><trkpt lat="45.834988" lon="9.185322"><time>2024-05-04T07:07:08.000Z</time><ele>1171.4</ele></trkpt><trkpt lat="45.834997" lon="9.185326"><time>2024-05-04T07:07:09.000Z</time><ele>1171.6</ele></trkpt><trkpt lat="45.835006" lon="9.185334"><time>2024-05-04T07:07:10.000Z</time><ele>1171.6</ele></trkpt><trkpt lat="45.835014" lon="9.185335"><time>2024-05-04T07:07:11.000Z</time><ele>1171.8</ele></trkpt><trkpt lat="45.835019" lon="9.185336"><time>2024-05-04T07:07:12.000Z</time><ele>1171.8</ele></trkpt><trkpt lat="45.835023" lon="9.185336"><time>2024-05-04T07:07:13.000Z</time><ele>1172</ele></trkpt><trkpt lat="45.835029" lon="9.185337"><time>2024-05-04T07:07:14.000Z</time><ele>1172</ele></trkpt><trkpt lat="45.835036" lon="9.18534"><time>2024-05-04T07:07:15.000Z</time><ele>1172.2</ele></trkpt><trkpt lat="45.835041" lon="9.18533"><time>2024-05-04T07:07:16.000Z</time><ele>1172.2</ele></trkpt><trkpt lat="45.835042" lon="9.185326"><time>2024-05-04T07:07:17.000Z</time><ele>1172.4</ele></trkpt><trkpt lat="45.835048" lon="9.185326"><time>2024-05-04T07:07:18.000Z</time><ele>1172.6</ele></trkpt><trkpt lat="45.835064" lon="9.185327"><time>2024-05-04T07:07:19.000Z</time><ele>1172.6</ele></trkpt><trkpt lat="45.835076" lon="9.185335"><time>2024-05-04T07:07:20.000Z</time><ele>1172.8</ele></trkpt><trkpt lat="45.835085" lon="9.185343"><time>2024-05-04T07:07:21.000Z</time><ele>1172.8</ele></trkpt><trkpt lat="45.835093" lon="9.18535"><time>2024-05-04T07:07:22.000Z</time><ele>1173</ele></trkpt><trkpt lat="45.835099" lon="9.185356"><time>2024-05-04T07:07:23.000Z</time><ele>1173.4</ele></trkpt><trkpt lat="45.835111" lon="9.185358"><time>2024-05-04T07:07:24.000Z</time><ele>1173.4</ele></trkpt><trkpt lat="45.83512" lon="9.185357"><time>2024-05-04T07:07:25.000Z</time><ele>1173.8</ele></trkpt><trkpt lat="45.835129" lon="9.185366"><time>2024-05-04T07:07:26.000Z</time><ele>1173.8</ele></trkpt><trkpt lat="45.835137" lon="9.185369"><time>2024-05-04T07:07:27.000Z</time><ele>1174</ele></trkpt><trkpt lat="45.835143" lon="9.185375"><time>2024-05-04T07:07:28.000Z</time><ele>1174</ele></trkpt><trkpt lat="45.83515" lon="9.185381"><time>2024-05-04T07:07:29.000Z</time><ele>1174.2</ele></trkpt><trkpt lat="45.835158" lon="9.185387"><time>2024-05-04T07:07:30.000Z</time><ele>1174.4</ele></trkpt><trkpt lat="45.835166" lon="9.18539"><time>2024-05-04T07:07:31.000Z</time><ele>1174.4</ele></trkpt><trkpt lat="45.835176" lon="9.185396"><time>2024-05-04T07:07:32.000Z</time><ele>1174.6</ele></trkpt><trkpt lat="45.835183" lon="9.185402"><time>2024-05-04T07:07:33.000Z</time><ele>1174.8</ele></trkpt><trkpt lat="45.835192" lon="9.185407"><time>2024-05-04T07:07:34.000Z</time><ele>1174.8</ele></trkpt><trkpt lat="45.835199" lon="9.185408"><time>2024-05-04T07:07:35.000Z</time><ele>1175</ele></trkpt><trkpt lat="45.835209" lon="9.185414"><time>2024-05-04T07:07:36.000Z</time><ele>1175.2</ele></trkpt><trkpt lat="45.835217" lon="9.185418"><time>2024-05-04T07:07:37.000Z</time><ele>1175.2</ele></trkpt><trkpt lat="45.835223" lon="9.185425"><time>2024-05-04T07:07:38.000Z</time><ele>1175.6</ele></trkpt><trkpt lat="45.83523" lon="9.185428"><time>2024-05-04T07:07:39.000Z</time><ele>1176</ele></trkpt><trkpt lat="45.835236" lon="9.185432"><time>2024-05-04T07:07:40.000Z</time><ele>1176</ele></trkpt><trkpt lat="45.835246" lon="9.185436"><time>2024-05-04T07:07:41.000Z</time><ele>1176.2</ele></trkpt><trkpt lat="45.835254" lon="9.185441"><time>2024-05-04T07:07:42.000Z</time><ele>1176.2</ele></trkpt><trkpt lat="45.835262" lon="9.185445"><time>2024-05-04T07:07:43.000Z</time><ele>1176.4</ele></trkpt><trkpt lat="45.835271" lon="9.185452"><time>2024-05-04T07:07:44.000Z</time><ele>1176.4</ele></trkpt><trkpt lat="45.835278" lon="9.18546"><time>2024-05-04T07:07:45.000Z</time><ele>1176.4</ele></trkpt><trkpt lat="45.835284" lon="9.185469"><time>2024-05-04T07:07:46.000Z</time><ele>1176.6</ele></trkpt><trkpt lat="45.835292" lon="9.185481"><time>2024-05-04T07:07:47.000Z</time><ele>1176.8</ele></trkpt><trkpt lat="45.835299" lon="9.185491"><time>2024-05-04T07:07:48.000Z</time><ele>1176.8</ele></trkpt><trkpt lat="45.835307" lon="9.185497"><time>2024-05-04T07:07:49.000Z</time><ele>1177</ele></trkpt><trkpt lat="45.835314" lon="9.185501"><time>2024-05-04T07:07:50.000Z</time><ele>1177.2</ele></trkpt><trkpt lat="45.835318" lon="9.185506"><time>2024-05-04T07:07:51.000Z</time><ele>1177.4</ele></trkpt><trkpt lat="45.835325" lon="9.185508"><time>2024-05-04T07:07:52.000Z</time><ele>1177.4</ele></trkpt><trkpt lat="45.835337" lon="9.185509"><time>2024-05-04T07:07:53.000Z</time><ele>1177.6</ele></trkpt><trkpt lat="45.835347" lon="9.185507"><time>2024-05-04T07:07:54.000Z</time><ele>1177.6</ele></trkpt><trkpt lat="45.835353" lon="9.185507"><time>2024-05-04T07:07:55.000Z</time><ele>1177.6</ele></trkpt><trkpt lat="45.835362" lon="9.18551"><time>2024-05-04T07:07:56.000Z</time><ele>1177.8</ele></trkpt><trkpt lat="45.835372" lon="9.185513"><time>2024-05-04T07:07:57.000Z</time><ele>1178</ele></trkpt><trkpt lat="45.835381" lon="9.185517"><time>2024-05-04T07:07:58.000Z</time><ele>1178</ele></trkpt><trkpt lat="45.83539" lon="9.185519"><time>2024-05-04T07:07:59.000Z</time><ele>1178.4</ele></trkpt><trkpt lat="45.835399" lon="9.185522"><time>2024-05-04T07:08:00.000Z</time><ele>1178.6</ele></trkpt><trkpt lat="45.835408" lon="9.185524"><time>2024-05-04T07:08:01.000Z</time><ele>1178.8</ele></trkpt><trkpt lat="45.835413" lon="9.185527"><time>2024-05-04T07:08:02.000Z</time><ele>1179</ele></trkpt><trkpt lat="45.835415" lon="9.185532"><time>2024-05-04T07:08:03.000Z</time><ele>1179</ele></trkpt><trkpt lat="45.835415" lon="9.185539"><time>2024-05-04T07:08:04.000Z</time><ele>1179.2</ele></trkpt><trkpt lat="45.835415" lon="9.185547"><time>2024-05-04T07:08:05.000Z</time><ele>1179.4</ele></trkpt><trkpt lat="45.83541" lon="9.185555"><time>2024-05-04T07:08:06.000Z</time><ele>1179.4</ele></trkpt><trkpt lat="45.835412" lon="9.185557"><time>2024-05-04T07:08:07.000Z</time><ele>1179.4</ele></trkpt><trkpt lat="45.835412" lon="9.18556"><time>2024-05-04T07:08:08.000Z</time><ele>1179.4</ele></trkpt><trkpt lat="45.835414" lon="9.18556"><time>2024-05-04T07:08:09.000Z</time><ele>1179.4</ele></trkpt><trkpt lat="45.835415" lon="9.185561"><time>2024-05-04T07:08:10.000Z</time><ele>1179.4</ele></trkpt><trkpt lat="45.835416" lon="9.185562"><time>2024-05-04T07:08:11.000Z</time><ele>1179.6</ele></trkpt><trkpt lat="45.835416" lon="9.185562"><time>2024-05-04T07:08:12.000Z</time><ele>1179.6</ele></trkpt><trkpt lat="45.835416" lon="9.185562"><time>2024-05-04T07:08:13.000Z</time><ele>1179.6</ele></trkpt><trkpt lat="45.835417" lon="9.185563"><time>2024-05-04T07:08:14.000Z</time><ele>1179.8</ele></trkpt><trkpt lat="45.835417" lon="9.185563"><time>2024-05-04T07:08:15.000Z</time><ele>1180</ele></trkpt><trkpt lat="45.835417" lon="9.185563"><time>2024-05-04T07:08:16.000Z</time><ele>1180</ele></trkpt><trkpt lat="45.835417" lon="9.185563"><time>2024-05-04T07:08:17.000Z</time><ele>1180</ele></trkpt><trkpt lat="45.835417" lon="9.185563"><time>2024-05-04T07:08:18.000Z</time><ele>1180</ele></trkpt><trkpt lat="45.835417" lon="9.185563"><time>2024-05-04T07:08:19.000Z</time><ele>1180</ele></trkpt><trkpt lat="45.835417" lon="9.185563"><time>2024-05-04T07:08:20.000Z</time><ele>1179.8</ele></trkpt><trkpt lat="45.835417" lon="9.185563"><time>2024-05-04T07:08:21.000Z</time><ele>1179.8</ele></trkpt><trkpt lat="45.835417" lon="9.185563"><time>2024-05-04T07:08:22.000Z</time><ele>1179.6</ele></trkpt><trkpt lat="45.835417" lon="9.185563"><time>2024-05-04T07:08:23.000Z</time><ele>1179.6</ele></trkpt><trkpt lat="45.835417" lon="9.185562"><time>2024-05-04T07:08:24.000Z</time><ele>1179.8</ele></trkpt><trkpt lat="45.835417" lon="9.185562"><time>2024-05-04T07:08:25.000Z</time><ele>1179.8</ele></trkpt><trkpt lat="45.835417" lon="9.185562"><time>2024-05-04T07:08:26.000Z</time><ele>1179.8</ele></trkpt><trkpt lat="45.835417" lon="9.185562"><time>2024-05-04T07:08:27.000Z</time><ele>1179.8</ele></trkpt><trkpt lat="45.835417" lon="9.185561"><time>2024-05-04T07:08:28.000Z</time><ele>1179.8</ele></trkpt><trkpt lat="45.835417" lon="9.18556"><time>2024-05-04T07:08:29.000Z</time><ele>1179.8</ele></trkpt><trkpt lat="45.835417" lon="9.18556"><time>2024-05-04T07:08:30.000Z</time><ele>1179.8</ele></trkpt><trkpt lat="45.835417" lon="9.185559"><time>2024-05-04T07:08:31.000Z</time><ele>1179.8</ele></trkpt><trkpt lat="45.835417" lon="9.185557"><time>2024-05-04T07:08:32.000Z</time><ele>1179.8</ele></trkpt><trkpt lat="45.835417" lon="9.185557"><time>2024-05-04T07:08:33.000Z</time><ele>1179.8</ele></trkpt><trkpt lat="45.835417" lon="9.185557"><time>2024-05-04T07:08:34.000Z</time><ele>1179.8</ele></trkpt><trkpt lat="45.835418" lon="9.185556"><time>2024-05-04T07:08:35.000Z</time><ele>1179.8</ele></trkpt><trkpt lat="45.835418" lon="9.185556"><time>2024-05-04T07:08:36.000Z</time><ele>1179.8</ele></trkpt><trkpt lat="45.835418" lon="9.185554"><time>2024-05-04T07:08:37.000Z</time><ele>1179.8</ele></trkpt><trkpt lat="45.835418" lon="9.185554"><time>2024-05-04T07:08:38.000Z</time><ele>1179.8</ele></trkpt><trkpt lat="45.835419" lon="9.185553"><time>2024-05-04T07:08:39.000Z</time><ele>1179.8</ele></trkpt><trkpt lat="45.835419" lon="9.185553"><time>2024-05-04T07:08:40.000Z</time><ele>1179.8</ele></trkpt><trkpt lat="45.83542" lon="9.185553"><time>2024-05-04T07:08:41.000Z</time><ele>1179.8</ele></trkpt><trkpt lat="45.835422" lon="9.185551"><time>2024-05-04T07:08:42.000Z</time><ele>1179.6</ele></trkpt><trkpt lat="45.835423" lon="9.18555"><time>2024-05-04T07:08:43.000Z</time><ele>1179.6</ele></trkpt><trkpt lat="45.835425" lon="9.18555"><time>2024-05-04T07:08:44.000Z</time><ele>1179.6</ele></trkpt><trkpt lat="45.835425" lon="9.18555"><time>2024-05-04T07:08:45.000Z</time><ele>1179.6</ele></trkpt><trkpt lat="45.835427" lon="9.18555"><time>2024-05-04T07:08:46.000Z</time><ele>1179.6</ele></trkpt><trkpt lat="45.835427" lon="9.185549"><time>2024-05-04T07:08:47.000Z</time><ele>1179.4</ele></trkpt><trkpt lat="45.835427" lon="9.185549"><time>2024-05-04T07:08:48.000Z</time><ele>1179.4</ele></trkpt><trkpt lat="45.835427" lon="9.185549"><time>2024-05-04T07:08:49.000Z</time><ele>1179.4</ele></trkpt><trkpt lat="45.835427" lon="9.185548"><time>2024-05-04T07:08:50.000Z</time><ele>1179.4</ele></trkpt><trkpt lat="45.835427" lon="9.185548"><time>2024-05-04T07:08:51.000Z</time><ele>1179.4</ele></trkpt><trkpt lat="45.835427" lon="9.185548"><time>2024-05-04T07:08:52.000Z</time><ele>1179.4</ele></trkpt><trkpt lat="45.835427" lon="9.185545"><time>2024-05-04T07:08:53.000Z</time><ele>1179.4</ele></trkpt><trkpt lat="45.835427" lon="9.185545"><time>2024-05-04T07:08:54.000Z</time><ele>1179.4</ele></trkpt><trkpt lat="45.835427" lon="9.185545"><time>2024-05-04T07:08:55.000Z</time><ele>1179.4</ele></trkpt><trkpt lat="45.835427" lon="9.185545"><time>2024-05-04T07:08:56.000Z</time><ele>1179.4</ele></trkpt><trkpt lat="45.835427" lon="9.185545"><time>2024-05-04T07:08:57.000Z</time><ele>1179.4</ele></trkpt><trkpt lat="45.835427" lon="9.185545"><time>2024-05-04T07:08:58.000Z</time><ele>1179.4</ele></trkpt><trkpt lat="45.835427" lon="9.185544"><time>2024-05-04T07:08:59.000Z</time><ele>1179.4</ele></trkpt><trkpt lat="45.835427" lon="9.185544"><time>2024-05-04T07:09:00.000Z</time><ele>1179.4</ele></trkpt><trkpt lat="45.835427" lon="9.185544"><time>2024-05-04T07:09:01.000Z</time><ele>1179.4</ele></trkpt><trkpt lat="45.835427" lon="9.185544"><time>2024-05-04T07:09:02.000Z</time><ele>1179.4</ele></trkpt><trkpt lat="45.835426" lon="9.185544"><time>2024-05-04T07:09:03.000Z</time><ele>1179.4</ele></trkpt><trkpt lat="45.835426" lon="9.185544"><time>2024-05-04T07:09:04.000Z</time><ele>1179.4</ele></trkpt><trkpt lat="45.835425" lon="9.185544"><time>2024-05-04T07:09:05.000Z</time><ele>1179.4</ele></trkpt><trkpt lat="45.835425" lon="9.185544"><time>2024-05-04T07:09:06.000Z</time><ele>1179.4</ele></trkpt><trkpt lat="45.835425" lon="9.185544"><time>2024-05-04T07:09:07.000Z</time><ele>1179.4</ele></trkpt><trkpt lat="45.835424" lon="9.185544"><time>2024-05-04T07:09:08.000Z</time><ele>1179.4</ele></trkpt><trkpt lat="45.835424" lon="9.185544"><time>2024-05-04T07:09:09.000Z</time><ele>1179.4</ele></trkpt><trkpt lat="45.835424" lon="9.185544"><time>2024-05-04T07:09:10.000Z</time><ele>1179.2</ele></trkpt><trkpt lat="45.835424" lon="9.185544"><time>2024-05-04T07:09:11.000Z</time><ele>1179.4</ele></trkpt><trkpt lat="45.835424" lon="9.185545"><time>2024-05-04T07:09:12.000Z</time><ele>1179.2</ele></trkpt><trkpt lat="45.835424" lon="9.185545"><time>2024-05-04T07:09:13.000Z</time><ele>1179.2</ele></trkpt><trkpt lat="45.835423" lon="9.185545"><time>2024-05-04T07:09:14.000Z</time><ele>1179.2</ele></trkpt><trkpt lat="45.835422" lon="9.185545"><time>2024-05-04T07:09:15.000Z</time><ele>1179.2</ele></trkpt><trkpt lat="45.835421" lon="9.185545"><time>2024-05-04T07:09:16.000Z</time><ele>1179.2</ele></trkpt><trkpt lat="45.835421" lon="9.185545"><time>2024-05-04T07:09:17.000Z</time><ele>1179.2</ele></trkpt><trkpt lat="45.83542" lon="9.185545"><time>2024-05-04T07:09:18.000Z</time><ele>1179.2</ele></trkpt><trkpt lat="45.83542" lon="9.185545"><time>2024-05-04T07:09:19.000Z</time><ele>1179.2</ele></trkpt><trkpt lat="45.83542" lon="9.185546"><time>2024-05-04T07:09:20.000Z</time><ele>1179.2</ele></trkpt><trkpt lat="45.83542" lon="9.185546"><time>2024-05-04T07:09:21.000Z</time><ele>1179.2</ele></trkpt><trkpt lat="45.835419" lon="9.185546"><time>2024-05-04T07:09:22.000Z</time><ele>1179.2</ele></trkpt><trkpt lat="45.835419" lon="9.185546"><time>2024-05-04T07:09:23.000Z</time><ele>1179.2</ele></trkpt><trkpt lat="45.835418" lon="9.185546"><time>2024-05-04T07:09:24.000Z</time><ele>1179.2</ele></trkpt><trkpt lat="45.835418" lon="9.185546"><time>2024-05-04T07:09:25.000Z</time><ele>1179.2</ele></trkpt><trkpt lat="45.835418" lon="9.185547"><time>2024-05-04T07:09:26.000Z</time><ele>1179.2</ele></trkpt><trkpt lat="45.835417" lon="9.185547"><time>2024-05-04T07:09:27.000Z</time><ele>1179.2</ele></trkpt><trkpt lat="45.835416" lon="9.185548"><time>2024-05-04T07:09:28.000Z</time><ele>1179</ele></trkpt><trkpt lat="45.835414" lon="9.185548"><time>2024-05-04T07:09:29.000Z</time><ele>1179</ele></trkpt><trkpt lat="45.835413" lon="9.185549"><time>2024-05-04T07:09:30.000Z</time><ele>1179</ele></trkpt><trkpt lat="45.835413" lon="9.18555"><time>2024-05-04T07:09:31.000Z</time><ele>1179</ele></trkpt><trkpt lat="45.835412" lon="9.18555"><time>2024-05-04T07:09:32.000Z</time><ele>1179</ele></trkpt><trkpt lat="45.835412" lon="9.18555"><time>2024-05-04T07:09:33.000Z</time><ele>1179</ele></trkpt><trkpt lat="45.83541" lon="9.18555"><time>2024-05-04T07:09:34.000Z</time><ele>1179</ele></trkpt><trkpt lat="45.83541" lon="9.185551"><time>2024-05-04T07:09:35.000Z</time><ele>1179</ele></trkpt><trkpt lat="45.835408" lon="9.185552"><time>2024-05-04T07:09:36.000Z</time><ele>1179</ele></trkpt><trkpt lat="45.835408" lon="9.185553"><time>2024-05-04T07:09:37.000Z</time><ele>1179.2</ele></trkpt><trkpt lat="45.835407" lon="9.185555"><time>2024-05-04T07:09:38.000Z</time><ele>1179.2</ele></trkpt><trkpt lat="45.835407" lon="9.185556"><time>2024-05-04T07:09:39.000Z</time><ele>1179.2</ele></trkpt><trkpt lat="45.835406" lon="9.185557"><time>2024-05-04T07:09:40.000Z</time><ele>1179.4</ele></trkpt><trkpt lat="45.835406" lon="9.185557"><time>2024-05-04T07:09:41.000Z</time><ele>1179.4</ele></trkpt><trkpt lat="45.835406" lon="9.185559"><time>2024-05-04T07:09:42.000Z</time><ele>1179.4</ele></trkpt><trkpt lat="45.835405" lon="9.185561"><time>2024-05-04T07:09:43.000Z</time><ele>1179.6</ele></trkpt><trkpt lat="45.835405" lon="9.185563"><time>2024-05-04T07:09:44.000Z</time><ele>1179.6</ele></trkpt><trkpt lat="45.835405" lon="9.185564"><time>2024-05-04T07:09:45.000Z</time><ele>1179.4</ele></trkpt><trkpt lat="45.835405" lon="9.185565"><time>2024-05-04T07:09:46.000Z</time><ele>1179.4</ele></trkpt><trkpt lat="45.835405" lon="9.185565"><time>2024-05-04T07:09:47.000Z</time><ele>1179.2</ele></trkpt><trkpt lat="45.835405" lon="9.185565"><time>2024-05-04T07:09:48.000Z</time><ele>1179</ele></trkpt><trkpt lat="45.835404" lon="9.185566"><time>2024-05-04T07:09:49.000Z</time><ele>1179</ele></trkpt><trkpt lat="45.835404" lon="9.185566"><time>2024-05-04T07:09:50.000Z</time><ele>1179</ele></trkpt><trkpt lat="45.835404" lon="9.185566"><time>2024-05-04T07:09:51.000Z</time><ele>1179</ele></trkpt><trkpt lat="45.835407" lon="9.185567"><time>2024-05-04T07:09:52.000Z</time><ele>1179.2</ele></trkpt><trkpt lat="45.835419" lon="9.185571"><time>2024-05-04T07:09:53.000Z</time><ele>1179.4</ele></trkpt><trkpt lat="45.835429" lon="9.185572"><time>2024-05-04T07:09:54.000Z</time><ele>1179.6</ele></trkpt><trkpt lat="45.835438" lon="9.185571"><time>2024-05-04T07:09:55.000Z</time><ele>1179.6</ele></trkpt><trkpt lat="45.835447" lon="9.185569"><time>2024-05-04T07:09:56.000Z</time><ele>1179.8</ele></trkpt><trkpt lat="45.835451" lon="9.18557"><time>2024-05-04T07:09:57.000Z</time><ele>1179.8</ele></trkpt><trkpt lat="45.835457" lon="9.185567"><time>2024-05-04T07:09:58.000Z</time><ele>1180</ele></trkpt><trkpt lat="45.835465" lon="9.185558"><time>2024-05-04T07:09:59.000Z</time><ele>1180.2</ele></trkpt><trkpt lat="45.835467" lon="9.18555"><time>2024-05-04T07:10:00.000Z</time><ele>1180.4</ele></trkpt><trkpt lat="45.835467" lon="9.185538"><time>2024-05-04T07:10:01.000Z</time><ele>1180.6</ele></trkpt><trkpt lat="45.835466" lon="9.185522"><time>2024-05-04T07:10:02.000Z</time><ele>1180.8</ele></trkpt><trkpt lat="45.835468" lon="9.185509"><time>2024-05-04T07:10:03.000Z</time><ele>1181</ele></trkpt><trkpt lat="45.835465" lon="9.185497"><time>2024-05-04T07:10:04.000Z</time><ele>1181</ele></trkpt><trkpt lat="45.835463" lon="9.185486"><time>2024-05-04T07:10:05.000Z</time><ele>1181</ele></trkpt><trkpt lat="45.835455" lon="9.185477"><time>2024-05-04T07:10:06.000Z</time><ele>1181.4</ele></trkpt><trkpt lat="45.83545" lon="9.185468"><time>2024-05-04T07:10:07.000Z</time><ele>1181.6</ele></trkpt><trkpt lat="45.835455" lon="9.185456"><time>2024-05-04T07:10:08.000Z</time><ele>1182</ele></trkpt><trkpt lat="45.835455" lon="9.185445"><time>2024-05-04T07:10:09.000Z</time><ele>1182.2</ele></trkpt><trkpt lat="45.835455" lon="9.185445"><time>2024-05-04T07:10:10.000Z</time><ele>1182.2</ele></trkpt><trkpt lat="45.835444" lon="9.185425"><time>2024-05-04T07:10:11.000Z</time><ele>1182.4</ele></trkpt><trkpt lat="45.835438" lon="9.185413"><time>2024-05-04T07:10:12.000Z</time><ele>1182.4</ele></trkpt><trkpt lat="45.835432" lon="9.185402"><time>2024-05-04T07:10:13.000Z</time><ele>1182.6</ele></trkpt><trkpt lat="45.835427" lon="9.185392"><time>2024-05-04T07:10:14.000Z</time><ele>1182.8</ele></trkpt><trkpt lat="45.835424" lon="9.185384"><time>2024-05-04T07:10:15.000Z</time><ele>1183</ele></trkpt><trkpt lat="45.83542" lon="9.185377"><time>2024-05-04T07:10:16.000Z</time><ele>1183.2</ele></trkpt><trkpt lat="45.835417" lon="9.185368"><time>2024-05-04T07:10:17.000Z</time><ele>1183.2</ele></trkpt><trkpt lat="45.835416" lon="9.185361"><time>2024-05-04T07:10:18.000Z</time><ele>1183.4</ele></trkpt><trkpt lat="45.835415" lon="9.185352"><time>2024-05-04T07:10:19.000Z</time><ele>1183.4</ele></trkpt><trkpt lat="45.835413" lon="9.185345"><time>2024-05-04T07:10:20.000Z</time><ele>1183.4</ele></trkpt><trkpt lat="45.835413" lon="9.185333"><time>2024-05-04T07:10:21.000Z</time><ele>1183.6</ele></trkpt><trkpt lat="45.835413" lon="9.185322"><time>2024-05-04T07:10:22.000Z</time><ele>1183.8</ele></trkpt><trkpt lat="45.835413" lon="9.185317"><time>2024-05-04T07:10:23.000Z</time><ele>1184</ele></trkpt><trkpt lat="45.835412" lon="9.185308"><time>2024-05-04T07:10:24.000Z</time><ele>1184.2</ele></trkpt><trkpt lat="45.835409" lon="9.185299"><time>2024-05-04T07:10:25.000Z</time><ele>1184.4</ele></trkpt><trkpt lat="45.835406" lon="9.185288"><time>2024-05-04T07:10:26.000Z</time><ele>1184.6</ele></trkpt><trkpt lat="45.835399" lon="9.18528"><time>2024-05-04T07:10:27.000Z</time><ele>1184.8</ele></trkpt><trkpt lat="45.835395" lon="9.185271"><time>2024-05-04T07:10:28.000Z</time><ele>1185</ele></trkpt><trkpt lat="45.835391" lon="9.18526"><time>2024-05-04T07:10:29.000Z</time><ele>1185.2</ele></trkpt><trkpt lat="45.835387" lon="9.185252"><time>2024-05-04T07:10:30.000Z</time><ele>1185.4</ele></trkpt><trkpt lat="45.835384" lon="9.185244"><time>2024-05-04T07:10:31.000Z</time><ele>1185.4</ele></trkpt><trkpt lat="45.835389" lon="9.185227"><time>2024-05-04T07:10:32.000Z</time><ele>1185.4</ele></trkpt><trkpt lat="45.835392" lon="9.185213"><time>2024-05-04T07:10:33.000Z</time><ele>1185.6</ele></trkpt><trkpt lat="45.835395" lon="9.185203"><time>2024-05-04T07:10:34.000Z</time><ele>1185.8</ele></trkpt><trkpt lat="45.835395" lon="9.185195"><time>2024-05-04T07:10:35.000Z</time><ele>1186</ele></trkpt><trkpt lat="45.835393" lon="9.185186"><time>2024-05-04T07:10:36.000Z</time><ele>1186.2</ele></trkpt><trkpt lat="45.835392" lon="9.185174"><time>2024-05-04T07:10:37.000Z</time><ele>1186.4</ele></trkpt><trkpt lat="45.835391" lon="9.185163"><time>2024-05-04T07:10:38.000Z</time><ele>1186.6</ele></trkpt><trkpt lat="45.835387" lon="9.185154"><time>2024-05-04T07:10:39.000Z</time><ele>1186.8</ele></trkpt><trkpt lat="45.835383" lon="9.185143"><time>2024-05-04T07:10:40.000Z</time><ele>1187</ele></trkpt><trkpt lat="45.83538" lon="9.185131"><time>2024-05-04T07:10:41.000Z</time><ele>1187.2</ele></trkpt><trkpt lat="45.83538" lon="9.185119"><time>2024-05-04T07:10:42.000Z</time><ele>1187.4</ele></trkpt><trkpt lat="45.835373" lon="9.185109"><time>2024-05-04T07:10:43.000Z</time><ele>1187.4</ele></trkpt><trkpt lat="45.835372" lon="9.1851"><time>2024-05-04T07:10:44.000Z</time><ele>1187.6</ele></trkpt><trkpt lat="45.835375" lon="9.185092"><time>2024-05-04T07:10:45.000Z</time><ele>1187.8</ele></trkpt><trkpt lat="45.835379" lon="9.185081"><time>2024-05-04T07:10:46.000Z</time><ele>1188.2</ele></trkpt><trkpt lat="45.835383" lon="9.185071"><time>2024-05-04T07:10:47.000Z</time><ele>1188.4</ele></trkpt><trkpt lat="45.835382" lon="9.185064"><time>2024-05-04T07:10:48.000Z</time><ele>1188.6</ele></trkpt><trkpt lat="45.835382" lon="9.185055"><time>2024-05-04T07:10:49.000Z</time><ele>1188.8</ele></trkpt><trkpt lat="45.835383" lon="9.185045"><time>2024-05-04T07:10:50.000Z</time><ele>1189</ele></trkpt><trkpt lat="45.835384" lon="9.185035"><time>2024-05-04T07:10:51.000Z</time><ele>1189.2</ele></trkpt><trkpt lat="45.835386" lon="9.185025"><time>2024-05-04T07:10:52.000Z</time><ele>1189.4</ele></trkpt><trkpt lat="45.835388" lon="9.185018"><time>2024-05-04T07:10:53.000Z</time><ele>1189.6</ele></trkpt><trkpt lat="45.83539" lon="9.185009"><time>2024-05-04T07:10:54.000Z</time><ele>1189.8</ele></trkpt><trkpt lat="45.835393" lon="9.184998"><time>2024-05-04T07:10:55.000Z</time><ele>1189.8</ele></trkpt><trkpt lat="45.835401" lon="9.184993"><time>2024-05-04T07:10:56.000Z</time><ele>1190</ele></trkpt><trkpt lat="45.835409" lon="9.184983"><time>2024-05-04T07:10:57.000Z</time><ele>1190.2</ele></trkpt><trkpt lat="45.835418" lon="9.18497"><time>2024-05-04T07:10:58.000Z</time><ele>1190.4</ele></trkpt><trkpt lat="45.835421" lon="9.184961"><time>2024-05-04T07:10:59.000Z</time><ele>1190.6</ele></trkpt><trkpt lat="45.835423" lon="9.184954"><time>2024-05-04T07:11:00.000Z</time><ele>1190.8</ele></trkpt><trkpt lat="45.835424" lon="9.184945"><time>2024-05-04T07:11:01.000Z</time><ele>1190.8</ele></trkpt><trkpt lat="45.835426" lon="9.184935"><time>2024-05-04T07:11:02.000Z</time><ele>1191</ele></trkpt><trkpt lat="45.835431" lon="9.184924"><time>2024-05-04T07:11:03.000Z</time><ele>1191.2</ele></trkpt><trkpt lat="45.835436" lon="9.184917"><time>2024-05-04T07:11:04.000Z</time><ele>1191.2</ele></trkpt><trkpt lat="45.835441" lon="9.184909"><time>2024-05-04T07:11:05.000Z</time><ele>1191.2</ele></trkpt><trkpt lat="45.835447" lon="9.184899"><time>2024-05-04T07:11:06.000Z</time><ele>1191.4</ele></trkpt><trkpt lat="45.835452" lon="9.18489"><time>2024-05-04T07:11:07.000Z</time><ele>1191.6</ele></trkpt><trkpt lat="45.835461" lon="9.184883"><time>2024-05-04T07:11:08.000Z</time><ele>1191.8</ele></trkpt><trkpt lat="45.835469" lon="9.184878"><time>2024-05-04T07:11:09.000Z</time><ele>1192</ele></trkpt><trkpt lat="45.835473" lon="9.184871"><time>2024-05-04T07:11:10.000Z</time><ele>1192</ele></trkpt><trkpt lat="45.835476" lon="9.184861"><time>2024-05-04T07:11:11.000Z</time><ele>1192.4</ele></trkpt><trkpt lat="45.835481" lon="9.184855"><time>2024-05-04T07:11:12.000Z</time><ele>1192.6</ele></trkpt><trkpt lat="45.835487" lon="9.184849"><time>2024-05-04T07:11:13.000Z</time><ele>1192.8</ele></trkpt><trkpt lat="45.835494" lon="9.184845"><time>2024-05-04T07:11:14.000Z</time><ele>1193</ele></trkpt><trkpt lat="45.835502" lon="9.184842"><time>2024-05-04T07:11:15.000Z</time><ele>1193.2</ele></trkpt><trkpt lat="45.835509" lon="9.18484"><time>2024-05-04T07:11:16.000Z</time><ele>1193.4</ele></trkpt><trkpt lat="45.835516" lon="9.184837"><time>2024-05-04T07:11:17.000Z</time><ele>1193.6</ele></trkpt><trkpt lat="45.835521" lon="9.184834"><time>2024-05-04T07:11:18.000Z</time><ele>1193.6</ele></trkpt><trkpt lat="45.835527" lon="9.184831"><time>2024-05-04T07:11:19.000Z</time><ele>1193.8</ele></trkpt><trkpt lat="45.83553" lon="9.184829"><time>2024-05-04T07:11:20.000Z</time><ele>1194</ele></trkpt><trkpt lat="45.835532" lon="9.184826"><time>2024-05-04T07:11:21.000Z</time><ele>1194.2</ele></trkpt><trkpt lat="45.835535" lon="9.184823"><time>2024-05-04T07:11:22.000Z</time><ele>1194.2</ele></trkpt><trkpt lat="45.83554" lon="9.184819"><time>2024-05-04T07:11:23.000Z</time><ele>1194.2</ele></trkpt><trkpt lat="45.835545" lon="9.184812"><time>2024-05-04T07:11:24.000Z</time><ele>1194.6</ele></trkpt><trkpt lat="45.835549" lon="9.184808"><time>2024-05-04T07:11:25.000Z</time><ele>1194.8</ele></trkpt><trkpt lat="45.835557" lon="9.184801"><time>2024-05-04T07:11:26.000Z</time><ele>1195</ele></trkpt><trkpt lat="45.835562" lon="9.184797"><time>2024-05-04T07:11:27.000Z</time><ele>1195.2</ele></trkpt><trkpt lat="45.835567" lon="9.184796"><time>2024-05-04T07:11:28.000Z</time><ele>1195.2</ele></trkpt><trkpt lat="45.835575" lon="9.1848"><time>2024-05-04T07:11:29.000Z</time><ele>1195.4</ele></trkpt><trkpt lat="45.835584" lon="9.184802"><time>2024-05-04T07:11:30.000Z</time><ele>1195.6</ele></trkpt><trkpt lat="45.835594" lon="9.184795"><time>2024-05-04T07:11:31.000Z</time><ele>1195.8</ele></trkpt><trkpt lat="45.835604" lon="9.18479"><time>2024-05-04T07:11:32.000Z</time><ele>1195.8</ele></trkpt><trkpt lat="45.83561" lon="9.184779"><time>2024-05-04T07:11:33.000Z</time><ele>1196</ele></trkpt><trkpt lat="45.83562" lon="9.184773"><time>2024-05-04T07:11:34.000Z</time><ele>1196.2</ele></trkpt><trkpt lat="45.835626" lon="9.18477"><time>2024-05-04T07:11:35.000Z</time><ele>1196.4</ele></trkpt><trkpt lat="45.835629" lon="9.184768"><time>2024-05-04T07:11:36.000Z</time><ele>1196.6</ele></trkpt><trkpt lat="45.83564" lon="9.184762"><time>2024-05-04T07:11:37.000Z</time><ele>1196.6</ele></trkpt><trkpt lat="45.835653" lon="9.184757"><time>2024-05-04T07:11:38.000Z</time><ele>1196.6</ele></trkpt><trkpt lat="45.835663" lon="9.184751"><time>2024-05-04T07:11:39.000Z</time><ele>1196.8</ele></trkpt><trkpt lat="45.835668" lon="9.184745"><time>2024-05-04T07:11:40.000Z</time><ele>1197</ele></trkpt><trkpt lat="45.835676" lon="9.184742"><time>2024-05-04T07:11:41.000Z</time><ele>1197.4</ele></trkpt><trkpt lat="45.835687" lon="9.184743"><time>2024-05-04T07:11:42.000Z</time><ele>1197.6</ele></trkpt><trkpt lat="45.835697" lon="9.184738"><time>2024-05-04T07:11:43.000Z</time><ele>1197.8</ele></trkpt><trkpt lat="45.835706" lon="9.184733"><time>2024-05-04T07:11:44.000Z</time><ele>1198</ele></trkpt><trkpt lat="45.835715" lon="9.184727"><time>2024-05-04T07:11:45.000Z</time><ele>1198</ele></trkpt><trkpt lat="45.835724" lon="9.184723"><time>2024-05-04T07:11:46.000Z</time><ele>1198</ele></trkpt><trkpt lat="45.835731" lon="9.18472"><time>2024-05-04T07:11:47.000Z</time><ele>1198.2</ele></trkpt><trkpt lat="45.835739" lon="9.184716"><time>2024-05-04T07:11:48.000Z</time><ele>1198.2</ele></trkpt><trkpt lat="45.835747" lon="9.18471"><time>2024-05-04T07:11:49.000Z</time><ele>1198.4</ele></trkpt><trkpt lat="45.835757" lon="9.184705"><time>2024-05-04T07:11:50.000Z</time><ele>1198.4</ele></trkpt><trkpt lat="45.835759" lon="9.184698"><time>2024-05-04T07:11:51.000Z</time><ele>1198.6</ele></trkpt><trkpt lat="45.835762" lon="9.18469"><time>2024-05-04T07:11:52.000Z</time><ele>1198.8</ele></trkpt><trkpt lat="45.835765" lon="9.184684"><time>2024-05-04T07:11:53.000Z</time><ele>1199</ele></trkpt><trkpt lat="45.83577" lon="9.184682"><time>2024-05-04T07:11:54.000Z</time><ele>1199.2</ele></trkpt><trkpt lat="45.83578" lon="9.184682"><time>2024-05-04T07:11:55.000Z</time><ele>1199.4</ele></trkpt><trkpt lat="45.835789" lon="9.184679"><time>2024-05-04T07:11:56.000Z</time><ele>1199.6</ele></trkpt><trkpt lat="45.835793" lon="9.184671"><time>2024-05-04T07:11:57.000Z</time><ele>1199.8</ele></trkpt><trkpt lat="45.835798" lon="9.184665"><time>2024-05-04T07:11:58.000Z</time><ele>1200.2</ele></trkpt><trkpt lat="45.835806" lon="9.184658"><time>2024-05-04T07:11:59.000Z</time><ele>1200.4</ele></trkpt><trkpt lat="45.835811" lon="9.184652"><time>2024-05-04T07:12:00.000Z</time><ele>1200.6</ele></trkpt><trkpt lat="45.835816" lon="9.18465"><time>2024-05-04T07:12:01.000Z</time><ele>1200.8</ele></trkpt><trkpt lat="45.835825" lon="9.184646"><time>2024-05-04T07:12:02.000Z</time><ele>1200.8</ele></trkpt><trkpt lat="45.83583" lon="9.184641"><time>2024-05-04T07:12:03.000Z</time><ele>1200.8</ele></trkpt><trkpt lat="45.835838" lon="9.184637"><time>2024-05-04T07:12:04.000Z</time><ele>1201.2</ele></trkpt><trkpt lat="45.835846" lon="9.184636"><time>2024-05-04T07:12:05.000Z</time><ele>1201.6</ele></trkpt><trkpt lat="45.835851" lon="9.184632"><time>2024-05-04T07:12:06.000Z</time><ele>1201.8</ele></trkpt><trkpt lat="45.835857" lon="9.184629"><time>2024-05-04T07:12:07.000Z</time><ele>1202</ele></trkpt><trkpt lat="45.835864" lon="9.184623"><time>2024-05-04T07:12:08.000Z</time><ele>1202.2</ele></trkpt><trkpt lat="45.835872" lon="9.184621"><time>2024-05-04T07:12:09.000Z</time><ele>1202.2</ele></trkpt><trkpt lat="45.835879" lon="9.18462"><time>2024-05-04T07:12:10.000Z</time><ele>1202.4</ele></trkpt><trkpt lat="45.835884" lon="9.184617"><time>2024-05-04T07:12:11.000Z</time><ele>1202.6</ele></trkpt><trkpt lat="45.835892" lon="9.184613"><time>2024-05-04T07:12:12.000Z</time><ele>1202.6</ele></trkpt><trkpt lat="45.8359" lon="9.184609"><time>2024-05-04T07:12:13.000Z</time><ele>1202.8</ele></trkpt><trkpt lat="45.835908" lon="9.184605"><time>2024-05-04T07:12:14.000Z</time><ele>1202.8</ele></trkpt><trkpt lat="45.835915" lon="9.1846"><time>2024-05-04T07:12:15.000Z</time><ele>1203.2</ele></trkpt><trkpt lat="45.835923" lon="9.184598"><time>2024-05-04T07:12:16.000Z</time><ele>1203.4</ele></trkpt><trkpt lat="45.835932" lon="9.184596"><time>2024-05-04T07:12:17.000Z</time><ele>1203.6</ele></trkpt><trkpt lat="45.835942" lon="9.184595"><time>2024-05-04T07:12:18.000Z</time><ele>1203.8</ele></trkpt><trkpt lat="45.83595" lon="9.184592"><time>2024-05-04T07:12:19.000Z</time><ele>1204</ele></trkpt><trkpt lat="45.835959" lon="9.184589"><time>2024-05-04T07:12:20.000Z</time><ele>1204.2</ele></trkpt><trkpt lat="45.835967" lon="9.184585"><time>2024-05-04T07:12:21.000Z</time><ele>1204.4</ele></trkpt><trkpt lat="45.835977" lon="9.18458"><time>2024-05-04T07:12:22.000Z</time><ele>1204.6</ele></trkpt><trkpt lat="45.835984" lon="9.184574"><time>2024-05-04T07:12:23.000Z</time><ele>1204.8</ele></trkpt><trkpt lat="45.835987" lon="9.18457"><time>2024-05-04T07:12:24.000Z</time><ele>1205</ele></trkpt><trkpt lat="45.835992" lon="9.184566"><time>2024-05-04T07:12:25.000Z</time><ele>1205</ele></trkpt><trkpt lat="45.835995" lon="9.184561"><time>2024-05-04T07:12:26.000Z</time><ele>1205.2</ele></trkpt><trkpt lat="45.835999" lon="9.184557"><time>2024-05-04T07:12:27.000Z</time><ele>1205.2</ele></trkpt><trkpt lat="45.835999" lon="9.184552"><time>2024-05-04T07:12:28.000Z</time><ele>1205.4</ele></trkpt><trkpt lat="45.836003" lon="9.184545"><time>2024-05-04T07:12:29.000Z</time><ele>1205.6</ele></trkpt><trkpt lat="45.836004" lon="9.184536"><time>2024-05-04T07:12:30.000Z</time><ele>1205.8</ele></trkpt><trkpt lat="45.836009" lon="9.18453"><time>2024-05-04T07:12:31.000Z</time><ele>1206</ele></trkpt><trkpt lat="45.836018" lon="9.184526"><time>2024-05-04T07:12:32.000Z</time><ele>1206.4</ele></trkpt><trkpt lat="45.836025" lon="9.184521"><time>2024-05-04T07:12:33.000Z</time><ele>1206.6</ele></trkpt><trkpt lat="45.836034" lon="9.184515"><time>2024-05-04T07:12:34.000Z</time><ele>1206.6</ele></trkpt><trkpt lat="45.836039" lon="9.184509"><time>2024-05-04T07:12:35.000Z</time><ele>1206.8</ele></trkpt><trkpt lat="45.836045" lon="9.184507"><time>2024-05-04T07:12:36.000Z</time><ele>1207</ele></trkpt><trkpt lat="45.836049" lon="9.184502"><time>2024-05-04T07:12:37.000Z</time><ele>1207.2</ele></trkpt><trkpt lat="45.836049" lon="9.184499"><time>2024-05-04T07:12:38.000Z</time><ele>1207.6</ele></trkpt><trkpt lat="45.836054" lon="9.184496"><time>2024-05-04T07:12:39.000Z</time><ele>1207.8</ele></trkpt><trkpt lat="45.836058" lon="9.184494"><time>2024-05-04T07:12:40.000Z</time><ele>1208</ele></trkpt><trkpt lat="45.836065" lon="9.184487"><time>2024-05-04T07:12:41.000Z</time><ele>1208.2</ele></trkpt><trkpt lat="45.836071" lon="9.18448"><time>2024-05-04T07:12:42.000Z</time><ele>1208.4</ele></trkpt><trkpt lat="45.836072" lon="9.184469"><time>2024-05-04T07:12:43.000Z</time><ele>1208.4</ele></trkpt><trkpt lat="45.836075" lon="9.184458"><time>2024-05-04T07:12:44.000Z</time><ele>1208.4</ele></trkpt><trkpt lat="45.836082" lon="9.184449"><time>2024-05-04T07:12:45.000Z</time><ele>1208.6</ele></trkpt><trkpt lat="45.836088" lon="9.184439"><time>2024-05-04T07:12:46.000Z</time><ele>1208.6</ele></trkpt><trkpt lat="45.836092" lon="9.184432"><time>2024-05-04T07:12:47.000Z</time><ele>1208.8</ele></trkpt><trkpt lat="45.836099" lon="9.184426"><time>2024-05-04T07:12:48.000Z</time><ele>1208.8</ele></trkpt><trkpt lat="45.836105" lon="9.184422"><time>2024-05-04T07:12:49.000Z</time><ele>1209</ele></trkpt><trkpt lat="45.836112" lon="9.184416"><time>2024-05-04T07:12:50.000Z</time><ele>1209.2</ele></trkpt><trkpt lat="45.83612" lon="9.18441"><time>2024-05-04T07:12:51.000Z</time><ele>1209.4</ele></trkpt><trkpt lat="45.836125" lon="9.184406"><time>2024-05-04T07:12:52.000Z</time><ele>1209.6</ele></trkpt><trkpt lat="45.836132" lon="9.184402"><time>2024-05-04T07:12:53.000Z</time><ele>1209.6</ele></trkpt><trkpt lat="45.836139" lon="9.184394"><time>2024-05-04T07:12:54.000Z</time><ele>1210</ele></trkpt><trkpt lat="45.836148" lon="9.184386"><time>2024-05-04T07:12:55.000Z</time><ele>1210</ele></trkpt><trkpt lat="45.836154" lon="9.184379"><time>2024-05-04T07:12:56.000Z</time><ele>1210.2</ele></trkpt><trkpt lat="45.836157" lon="9.184375"><time>2024-05-04T07:12:57.000Z</time><ele>1210.4</ele></trkpt><trkpt lat="45.836161" lon="9.18437"><time>2024-05-04T07:12:58.000Z</time><ele>1210.4</ele></trkpt><trkpt lat="45.836165" lon="9.184359"><time>2024-05-04T07:12:59.000Z</time><ele>1210.6</ele></trkpt><trkpt lat="45.836172" lon="9.184352"><time>2024-05-04T07:13:00.000Z</time><ele>1210.8</ele></trkpt><trkpt lat="45.83618" lon="9.184345"><time>2024-05-04T07:13:01.000Z</time><ele>1211.2</ele></trkpt><trkpt lat="45.836188" lon="9.184339"><time>2024-05-04T07:13:02.000Z</time><ele>1211.4</ele></trkpt><trkpt lat="45.836196" lon="9.184336"><time>2024-05-04T07:13:03.000Z</time><ele>1211.8</ele></trkpt><trkpt lat="45.836203" lon="9.18433"><time>2024-05-04T07:13:04.000Z</time><ele>1212</ele></trkpt><trkpt lat="45.836211" lon="9.184324"><time>2024-05-04T07:13:05.000Z</time><ele>1212.2</ele></trkpt><trkpt lat="45.836217" lon="9.18432"><time>2024-05-04T07:13:06.000Z</time><ele>1212.4</ele></trkpt><trkpt lat="45.836222" lon="9.184314"><time>2024-05-04T07:13:07.000Z</time><ele>1212.6</ele></trkpt><trkpt lat="45.836225" lon="9.184308"><time>2024-05-04T07:13:08.000Z</time><ele>1212.8</ele></trkpt><trkpt lat="45.83623" lon="9.184303"><time>2024-05-04T07:13:09.000Z</time><ele>1212.8</ele></trkpt><trkpt lat="45.83624" lon="9.184297"><time>2024-05-04T07:13:10.000Z</time><ele>1213</ele></trkpt><trkpt lat="45.836247" lon="9.184292"><time>2024-05-04T07:13:11.000Z</time><ele>1213</ele></trkpt><trkpt lat="45.836254" lon="9.184288"><time>2024-05-04T07:13:12.000Z</time><ele>1213.2</ele></trkpt><trkpt lat="45.836264" lon="9.184284"><time>2024-05-04T07:13:13.000Z</time><ele>1213.4</ele></trkpt><trkpt lat="45.836274" lon="9.184275"><time>2024-05-04T07:13:14.000Z</time><ele>1213.6</ele></trkpt><trkpt lat="45.836281" lon="9.184268"><time>2024-05-04T07:13:15.000Z</time><ele>1213.8</ele></trkpt><trkpt lat="45.836285" lon="9.184263"><time>2024-05-04T07:13:16.000Z</time><ele>1214</ele></trkpt><trkpt lat="45.836294" lon="9.184255"><time>2024-05-04T07:13:17.000Z</time><ele>1214.2</ele></trkpt><trkpt lat="45.836304" lon="9.184251"><time>2024-05-04T07:13:18.000Z</time><ele>1214.4</ele></trkpt><trkpt lat="45.83631" lon="9.184246"><time>2024-05-04T07:13:19.000Z</time><ele>1214.6</ele></trkpt><trkpt lat="45.836314" lon="9.184242"><time>2024-05-04T07:13:20.000Z</time><ele>1214.6</ele></trkpt><trkpt lat="45.83632" lon="9.184237"><time>2024-05-04T07:13:21.000Z</time><ele>1214.6</ele></trkpt><trkpt lat="45.836327" lon="9.184229"><time>2024-05-04T07:13:22.000Z</time><ele>1215</ele></trkpt><trkpt lat="45.836334" lon="9.184223"><time>2024-05-04T07:13:23.000Z</time><ele>1215</ele></trkpt><trkpt lat="45.836344" lon="9.184214"><time>2024-05-04T07:13:24.000Z</time><ele>1215.2</ele></trkpt><trkpt lat="45.836351" lon="9.184203"><time>2024-05-04T07:13:25.000Z</time><ele>1215.4</ele></trkpt><trkpt lat="45.836355" lon="9.184195"><time>2024-05-04T07:13:26.000Z</time><ele>1215.6</ele></trkpt><trkpt lat="45.836359" lon="9.184187"><time>2024-05-04T07:13:27.000Z</time><ele>1216</ele></trkpt><trkpt lat="45.836363" lon="9.184176"><time>2024-05-04T07:13:28.000Z</time><ele>1216.4</ele></trkpt><trkpt lat="45.836366" lon="9.184166"><time>2024-05-04T07:13:29.000Z</time><ele>1216.4</ele></trkpt><trkpt lat="45.836373" lon="9.184157"><time>2024-05-04T07:13:30.000Z</time><ele>1216.8</ele></trkpt><trkpt lat="45.836381" lon="9.18415"><time>2024-05-04T07:13:31.000Z</time><ele>1216.8</ele></trkpt><trkpt lat="45.836387" lon="9.184146"><time>2024-05-04T07:13:32.000Z</time><ele>1217</ele></trkpt><trkpt lat="45.836392" lon="9.184141"><time>2024-05-04T07:13:33.000Z</time><ele>1217.2</ele></trkpt><trkpt lat="45.836397" lon="9.184136"><time>2024-05-04T07:13:34.000Z</time><ele>1217.4</ele></trkpt><trkpt lat="45.836404" lon="9.184128"><time>2024-05-04T07:13:35.000Z</time><ele>1217.6</ele></trkpt><trkpt lat="45.836409" lon="9.18412"><time>2024-05-04T07:13:36.000Z</time><ele>1217.8</ele></trkpt><trkpt lat="45.836415" lon="9.184113"><time>2024-05-04T07:13:37.000Z</time><ele>1217.8</ele></trkpt><trkpt lat="45.836421" lon="9.184105"><time>2024-05-04T07:13:38.000Z</time><ele>1218</ele></trkpt><trkpt lat="45.836429" lon="9.184095"><time>2024-05-04T07:13:39.000Z</time><ele>1218.4</ele></trkpt><trkpt lat="45.836432" lon="9.184087"><time>2024-05-04T07:13:40.000Z</time><ele>1218.6</ele></trkpt><trkpt lat="45.836437" lon="9.184082"><time>2024-05-04T07:13:41.000Z</time><ele>1218.6</ele></trkpt><trkpt lat="45.836438" lon="9.184077"><time>2024-05-04T07:13:42.000Z</time><ele>1218.8</ele></trkpt><trkpt lat="45.836442" lon="9.184072"><time>2024-05-04T07:13:43.000Z</time><ele>1218.8</ele></trkpt><trkpt lat="45.836444" lon="9.18407"><time>2024-05-04T07:13:44.000Z</time><ele>1218.8</ele></trkpt><trkpt lat="45.836442" lon="9.184071"><time>2024-05-04T07:13:45.000Z</time><ele>1219</ele></trkpt><trkpt lat="45.836439" lon="9.184074"><time>2024-05-04T07:13:46.000Z</time><ele>1219</ele></trkpt><trkpt lat="45.836438" lon="9.184076"><time>2024-05-04T07:13:47.000Z</time><ele>1219</ele></trkpt><trkpt lat="45.836436" lon="9.184078"><time>2024-05-04T07:13:48.000Z</time><ele>1219</ele></trkpt><trkpt lat="45.836436" lon="9.184078"><time>2024-05-04T07:13:49.000Z</time><ele>1219</ele></trkpt><trkpt lat="45.836435" lon="9.184078"><time>2024-05-04T07:13:50.000Z</time><ele>1218.8</ele></trkpt><trkpt lat="45.836435" lon="9.184078"><time>2024-05-04T07:13:51.000Z</time><ele>1218.8</ele></trkpt><trkpt lat="45.836435" lon="9.184078"><time>2024-05-04T07:13:52.000Z</time><ele>1218.8</ele></trkpt><trkpt lat="45.836435" lon="9.184078"><time>2024-05-04T07:13:53.000Z</time><ele>1218.8</ele></trkpt><trkpt lat="45.836435" lon="9.184078"><time>2024-05-04T07:13:54.000Z</time><ele>1218.8</ele></trkpt><trkpt lat="45.836435" lon="9.184078"><time>2024-05-04T07:13:55.000Z</time><ele>1219</ele></trkpt><trkpt lat="45.836435" lon="9.184078"><time>2024-05-04T07:13:56.000Z</time><ele>1219</ele></trkpt><trkpt lat="45.836435" lon="9.184078"><time>2024-05-04T07:13:57.000Z</time><ele>1219</ele></trkpt><trkpt lat="45.836435" lon="9.184078"><time>2024-05-04T07:13:58.000Z</time><ele>1219.2</ele></trkpt><trkpt lat="45.836435" lon="9.184078"><time>2024-05-04T07:13:59.000Z</time><ele>1219.2</ele></trkpt><trkpt lat="45.836435" lon="9.184078"><time>2024-05-04T07:14:00.000Z</time><ele>1219.4</ele></trkpt><trkpt lat="45.836435" lon="9.184078"><time>2024-05-04T07:14:01.000Z</time><ele>1219.4</ele></trkpt><trkpt lat="45.836435" lon="9.184078"><time>2024-05-04T07:14:02.000Z</time><ele>1219.2</ele></trkpt><trkpt lat="45.836435" lon="9.184078"><time>2024-05-04T07:14:03.000Z</time><ele>1219.2</ele></trkpt><trkpt lat="45.836435" lon="9.184078"><time>2024-05-04T07:14:04.000Z</time><ele>1219.2</ele></trkpt><trkpt lat="45.836435" lon="9.184078"><time>2024-05-04T07:14:05.000Z</time><ele>1219.2</ele></trkpt><trkpt lat="45.836435" lon="9.184078"><time>2024-05-04T07:14:06.000Z</time><ele>1219</ele></trkpt><trkpt lat="45.836435" lon="9.184078"><time>2024-05-04T07:14:07.000Z</time><ele>1219</ele></trkpt><trkpt lat="45.836435" lon="9.184079"><time>2024-05-04T07:14:08.000Z</time><ele>1218.8</ele></trkpt><trkpt lat="45.836435" lon="9.184079"><time>2024-05-04T07:14:09.000Z</time><ele>1218.8</ele></trkpt><trkpt lat="45.836435" lon="9.184079"><time>2024-05-04T07:14:10.000Z</time><ele>1218.8</ele></trkpt><trkpt lat="45.836435" lon="9.184079"><time>2024-05-04T07:14:11.000Z</time><ele>1218.8</ele></trkpt><trkpt lat="45.836435" lon="9.184079"><time>2024-05-04T07:14:12.000Z</time><ele>1219</ele></trkpt><trkpt lat="45.836435" lon="9.184079"><time>2024-05-04T07:14:13.000Z</time><ele>1219</ele></trkpt><trkpt lat="45.836435" lon="9.184079"><time>2024-05-04T07:14:14.000Z</time><ele>1219</ele></trkpt><trkpt lat="45.836435" lon="9.184079"><time>2024-05-04T07:14:15.000Z</time><ele>1219</ele></trkpt><trkpt lat="45.836435" lon="9.184079"><time>2024-05-04T07:14:16.000Z</time><ele>1219</ele></trkpt><trkpt lat="45.836435" lon="9.184079"><time>2024-05-04T07:14:17.000Z</time><ele>1219</ele></trkpt><trkpt lat="45.836434" lon="9.184079"><time>2024-05-04T07:14:18.000Z</time><ele>1219</ele></trkpt><trkpt lat="45.836434" lon="9.184079"><time>2024-05-04T07:14:19.000Z</time><ele>1219</ele></trkpt><trkpt lat="45.836434" lon="9.184079"><time>2024-05-04T07:14:20.000Z</time><ele>1219.2</ele></trkpt><trkpt lat="45.836434" lon="9.184079"><time>2024-05-04T07:14:21.000Z</time><ele>1219.2</ele></trkpt><trkpt lat="45.836434" lon="9.184077"><time>2024-05-04T07:14:22.000Z</time><ele>1219.2</ele></trkpt><trkpt lat="45.836434" lon="9.184075"><time>2024-05-04T07:14:23.000Z</time><ele>1219.2</ele></trkpt><trkpt lat="45.836434" lon="9.184072"><time>2024-05-04T07:14:24.000Z</time><ele>1219.2</ele></trkpt><trkpt lat="45.836433" lon="9.18407"><time>2024-05-04T07:14:25.000Z</time><ele>1219</ele></trkpt><trkpt lat="45.836431" lon="9.184069"><time>2024-05-04T07:14:26.000Z</time><ele>1219</ele></trkpt><trkpt lat="45.836426" lon="9.184069"><time>2024-05-04T07:14:27.000Z</time><ele>1219</ele></trkpt><trkpt lat="45.836423" lon="9.184068"><time>2024-05-04T07:14:28.000Z</time><ele>1218.8</ele></trkpt><trkpt lat="45.836421" lon="9.184068"><time>2024-05-04T07:14:29.000Z</time><ele>1218.8</ele></trkpt><trkpt lat="45.836421" lon="9.184067"><time>2024-05-04T07:14:30.000Z</time><ele>1218.8</ele></trkpt><trkpt lat="45.836421" lon="9.184067"><time>2024-05-04T07:14:31.000Z</time><ele>1219</ele></trkpt><trkpt lat="45.83642" lon="9.184067"><time>2024-05-04T07:14:32.000Z</time><ele>1219.2</ele></trkpt><trkpt lat="45.83642" lon="9.184065"><time>2024-05-04T07:14:33.000Z</time><ele>1219.2</ele></trkpt><trkpt lat="45.83642" lon="9.184064"><time>2024-05-04T07:14:34.000Z</time><ele>1219.4</ele></trkpt><trkpt lat="45.836419" lon="9.184063"><time>2024-05-04T07:14:35.000Z</time><ele>1219.6</ele></trkpt><trkpt lat="45.836419" lon="9.184063"><time>2024-05-04T07:14:36.000Z</time><ele>1219.6</ele></trkpt><trkpt lat="45.836419" lon="9.184061"><time>2024-05-04T07:14:37.000Z</time><ele>1219.8</ele></trkpt><trkpt lat="45.836419" lon="9.184058"><time>2024-05-04T07:14:38.000Z</time><ele>1219.8</ele></trkpt><trkpt lat="45.836418" lon="9.184057"><time>2024-05-04T07:14:39.000Z</time><ele>1219.6</ele></trkpt><trkpt lat="45.836418" lon="9.184056"><time>2024-05-04T07:14:40.000Z</time><ele>1219.4</ele></trkpt><trkpt lat="45.836418" lon="9.184055"><time>2024-05-04T07:14:41.000Z</time><ele>1219</ele></trkpt><trkpt lat="45.836418" lon="9.184054"><time>2024-05-04T07:14:42.000Z</time><ele>1218.8</ele></trkpt><trkpt lat="45.836417" lon="9.184054"><time>2024-05-04T07:14:43.000Z</time><ele>1218.8</ele></trkpt><trkpt lat="45.836417" lon="9.184054"><time>2024-05-04T07:14:44.000Z</time><ele>1218.6</ele></trkpt><trkpt lat="45.836417" lon="9.184054"><time>2024-05-04T07:14:45.000Z</time><ele>1218.6</ele></trkpt><trkpt lat="45.836417" lon="9.184054"><time>2024-05-04T07:14:46.000Z</time><ele>1218.6</ele></trkpt><trkpt lat="45.836417" lon="9.184054"><time>2024-05-04T07:14:47.000Z</time><ele>1218.8</ele></trkpt><trkpt lat="45.836417" lon="9.184054"><time>2024-05-04T07:14:48.000Z</time><ele>1218.8</ele></trkpt><trkpt lat="45.836417" lon="9.184054"><time>2024-05-04T07:14:49.000Z</time><ele>1219</ele></trkpt><trkpt lat="45.836417" lon="9.184054"><time>2024-05-04T07:14:50.000Z</time><ele>1219</ele></trkpt><trkpt lat="45.836417" lon="9.184053"><time>2024-05-04T07:14:51.000Z</time><ele>1219.2</ele></trkpt><trkpt lat="45.836417" lon="9.184052"><time>2024-05-04T07:14:52.000Z</time><ele>1219.2</ele></trkpt><trkpt lat="45.836417" lon="9.184052"><time>2024-05-04T07:14:53.000Z</time><ele>1219.2</ele></trkpt><trkpt lat="45.836417" lon="9.184051"><time>2024-05-04T07:14:54.000Z</time><ele>1219.2</ele></trkpt><trkpt lat="45.836417" lon="9.18405"><time>2024-05-04T07:14:55.000Z</time><ele>1219.4</ele></trkpt><trkpt lat="45.836417" lon="9.184049"><time>2024-05-04T07:14:56.000Z</time><ele>1219.4</ele></trkpt><trkpt lat="45.836417" lon="9.184048"><time>2024-05-04T07:14:57.000Z</time><ele>1219.4</ele></trkpt><trkpt lat="45.836417" lon="9.184048"><time>2024-05-04T07:14:58.000Z</time><ele>1219.4</ele></trkpt><trkpt lat="45.836421" lon="9.184047"><time>2024-05-04T07:14:59.000Z</time><ele>1219.6</ele></trkpt><trkpt lat="45.836428" lon="9.184047"><time>2024-05-04T07:15:00.000Z</time><ele>1219.8</ele></trkpt><trkpt lat="45.836436" lon="9.184047"><time>2024-05-04T07:15:01.000Z</time><ele>1220</ele></trkpt><trkpt lat="45.836445" lon="9.184047"><time>2024-05-04T07:15:02.000Z</time><ele>1220</ele></trkpt><trkpt lat="45.83645" lon="9.184047"><time>2024-05-04T07:15:03.000Z</time><ele>1220.2</ele></trkpt><trkpt lat="45.836453" lon="9.184047"><time>2024-05-04T07:15:04.000Z</time><ele>1220.4</ele></trkpt><trkpt lat="45.836455" lon="9.184047"><time>2024-05-04T07:15:05.000Z</time><ele>1220.4</ele></trkpt><trkpt lat="45.836456" lon="9.184047"><time>2024-05-04T07:15:06.000Z</time><ele>1220.6</ele></trkpt><trkpt lat="45.836456" lon="9.184047"><time>2024-05-04T07:15:07.000Z</time><ele>1220.6</ele></trkpt><trkpt lat="45.836463" lon="9.184041"><time>2024-05-04T07:15:08.000Z</time><ele>1220.6</ele></trkpt><trkpt lat="45.836475" lon="9.184031"><time>2024-05-04T07:15:09.000Z</time><ele>1220.8</ele></trkpt><trkpt lat="45.836484" lon="9.18402"><time>2024-05-04T07:15:10.000Z</time><ele>1221</ele></trkpt><trkpt lat="45.836496" lon="9.18401"><time>2024-05-04T07:15:11.000Z</time><ele>1221.2</ele></trkpt><trkpt lat="45.836509" lon="9.183999"><time>2024-05-04T07:15:12.000Z</time><ele>1221.2</ele></trkpt><trkpt lat="45.836523" lon="9.183987"><time>2024-05-04T07:15:13.000Z</time><ele>1221.4</ele></trkpt><trkpt lat="45.836537" lon="9.183974"><time>2024-05-04T07:15:14.000Z</time><ele>1221.4</ele></trkpt><trkpt lat="45.83655" lon="9.183961"><time>2024-05-04T07:15:15.000Z</time><ele>1221.4</ele></trkpt><trkpt lat="45.836564" lon="9.18395"><time>2024-05-04T07:15:16.000Z</time><ele>1221.8</ele></trkpt><trkpt lat="45.836576" lon="9.18394"><time>2024-05-04T07:15:17.000Z</time><ele>1222</ele></trkpt><trkpt lat="45.836583" lon="9.183936"><time>2024-05-04T07:15:18.000Z</time><ele>1222</ele></trkpt><trkpt lat="45.836587" lon="9.18393"><time>2024-05-04T07:15:19.000Z</time><ele>1222.2</ele></trkpt><trkpt lat="45.836592" lon="9.183924"><time>2024-05-04T07:15:20.000Z</time><ele>1222.4</ele></trkpt><trkpt lat="45.836599" lon="9.183918"><time>2024-05-04T07:15:21.000Z</time><ele>1222.4</ele></trkpt><trkpt lat="45.836606" lon="9.183914"><time>2024-05-04T07:15:22.000Z</time><ele>1222.6</ele></trkpt><trkpt lat="45.836612" lon="9.183912"><time>2024-05-04T07:15:23.000Z</time><ele>1222.6</ele></trkpt><trkpt lat="45.836622" lon="9.183906"><time>2024-05-04T07:15:24.000Z</time><ele>1222.8</ele></trkpt><trkpt lat="45.836627" lon="9.183899"><time>2024-05-04T07:15:25.000Z</time><ele>1223</ele></trkpt><trkpt lat="45.836629" lon="9.183894"><time>2024-05-04T07:15:26.000Z</time><ele>1223.2</ele></trkpt><trkpt lat="45.836633" lon="9.183888"><time>2024-05-04T07:15:27.000Z</time><ele>1223.4</ele></trkpt><trkpt lat="45.836637" lon="9.183882"><time>2024-05-04T07:15:28.000Z</time><ele>1223.6</ele></trkpt><trkpt lat="45.836641" lon="9.183877"><time>2024-05-04T07:15:29.000Z</time><ele>1223.8</ele></trkpt><trkpt lat="45.836645" lon="9.183871"><time>2024-05-04T07:15:30.000Z</time><ele>1224</ele></trkpt><trkpt lat="45.836652" lon="9.183868"><time>2024-05-04T07:15:31.000Z</time><ele>1224.2</ele></trkpt><trkpt lat="45.836659" lon="9.183861"><time>2024-05-04T07:15:32.000Z</time><ele>1224.4</ele></trkpt><trkpt lat="45.836664" lon="9.183854"><time>2024-05-04T07:15:33.000Z</time><ele>1224.6</ele></trkpt><trkpt lat="45.836671" lon="9.183844"><time>2024-05-04T07:15:34.000Z</time><ele>1225</ele></trkpt><trkpt lat="45.836675" lon="9.183836"><time>2024-05-04T07:15:35.000Z</time><ele>1225</ele></trkpt><trkpt lat="45.836678" lon="9.183829"><time>2024-05-04T07:15:36.000Z</time><ele>1225.2</ele></trkpt><trkpt lat="45.836683" lon="9.18382"><time>2024-05-04T07:15:37.000Z</time><ele>1225.4</ele></trkpt><trkpt lat="45.836688" lon="9.183814"><time>2024-05-04T07:15:38.000Z</time><ele>1225.4</ele></trkpt><trkpt lat="45.836694" lon="9.183807"><time>2024-05-04T07:15:39.000Z</time><ele>1225.6</ele></trkpt><trkpt lat="45.836701" lon="9.183799"><time>2024-05-04T07:15:40.000Z</time><ele>1225.6</ele></trkpt><trkpt lat="45.836705" lon="9.18379"><time>2024-05-04T07:15:41.000Z</time><ele>1225.8</ele></trkpt><trkpt lat="45.836709" lon="9.183783"><time>2024-05-04T07:15:42.000Z</time><ele>1225.8</ele></trkpt><trkpt lat="45.836715" lon="9.183773"><time>2024-05-04T07:15:43.000Z</time><ele>1225.8</ele></trkpt><trkpt lat="45.83672" lon="9.183761"><time>2024-05-04T07:15:44.000Z</time><ele>1226</ele></trkpt><trkpt lat="45.836723" lon="9.183752"><time>2024-05-04T07:15:45.000Z</time><ele>1226</ele></trkpt><trkpt lat="45.836728" lon="9.183748"><time>2024-05-04T07:15:46.000Z</time><ele>1226.2</ele></trkpt><trkpt lat="45.836732" lon="9.18374"><time>2024-05-04T07:15:47.000Z</time><ele>1226.4</ele></trkpt><trkpt lat="45.836738" lon="9.183734"><time>2024-05-04T07:15:48.000Z</time><ele>1226.6</ele></trkpt><trkpt lat="45.836742" lon="9.183729"><time>2024-05-04T07:15:49.000Z</time><ele>1226.8</ele></trkpt><trkpt lat="45.836744" lon="9.183719"><time>2024-05-04T07:15:50.000Z</time><ele>1227</ele></trkpt><trkpt lat="45.836744" lon="9.18371"><time>2024-05-04T07:15:51.000Z</time><ele>1227.2</ele></trkpt><trkpt lat="45.836743" lon="9.183704"><time>2024-05-04T07:15:52.000Z</time><ele>1227.2</ele></trkpt><trkpt lat="45.83674" lon="9.183703"><time>2024-05-04T07:15:53.000Z</time><ele>1227.4</ele></trkpt><trkpt lat="45.836738" lon="9.183702"><time>2024-05-04T07:15:54.000Z</time><ele>1227.6</ele></trkpt><trkpt lat="45.83674" lon="9.183703"><time>2024-05-04T07:15:55.000Z</time><ele>1227.6</ele></trkpt><trkpt lat="45.83674" lon="9.183704"><time>2024-05-04T07:15:56.000Z</time><ele>1227.6</ele></trkpt><trkpt lat="45.836741" lon="9.183704"><time>2024-05-04T07:15:57.000Z</time><ele>1227.6</ele></trkpt><trkpt lat="45.836743" lon="9.183702"><time>2024-05-04T07:15:58.000Z</time><ele>1227.8</ele></trkpt><trkpt lat="45.836745" lon="9.183696"><time>2024-05-04T07:15:59.000Z</time><ele>1227.8</ele></trkpt><trkpt lat="45.836749" lon="9.183692"><time>2024-05-04T07:16:00.000Z</time><ele>1228</ele></trkpt><trkpt lat="45.836752" lon="9.183688"><time>2024-05-04T07:16:01.000Z</time><ele>1228</ele></trkpt><trkpt lat="45.836758" lon="9.183677"><time>2024-05-04T07:16:02.000Z</time><ele>1228</ele></trkpt><trkpt lat="45.836766" lon="9.183669"><time>2024-05-04T07:16:03.000Z</time><ele>1228.2</ele></trkpt><trkpt lat="45.836773" lon="9.183662"><time>2024-05-04T07:16:04.000Z</time><ele>1228.2</ele></trkpt><trkpt lat="45.836777" lon="9.183652"><time>2024-05-04T07:16:05.000Z</time><ele>1228.2</ele></trkpt><trkpt lat="45.83678" lon="9.183643"><time>2024-05-04T07:16:06.000Z</time><ele>1228.4</ele></trkpt><trkpt lat="45.836784" lon="9.183636"><time>2024-05-04T07:16:07.000Z</time><ele>1228.6</ele></trkpt><trkpt lat="45.836791" lon="9.183628"><time>2024-05-04T07:16:08.000Z</time><ele>1228.8</ele></trkpt><trkpt lat="45.836799" lon="9.183619"><time>2024-05-04T07:16:09.000Z</time><ele>1228.8</ele></trkpt><trkpt lat="45.836804" lon="9.183611"><time>2024-05-04T07:16:10.000Z</time><ele>1229</ele></trkpt><trkpt lat="45.836809" lon="9.183602"><time>2024-05-04T07:16:11.000Z</time><ele>1229</ele></trkpt><trkpt lat="45.836813" lon="9.183591"><time>2024-05-04T07:16:12.000Z</time><ele>1229.4</ele></trkpt><trkpt lat="45.836817" lon="9.183585"><time>2024-05-04T07:16:13.000Z</time><ele>1229.4</ele></trkpt><trkpt lat="45.836826" lon="9.183576"><time>2024-05-04T07:16:14.000Z</time><ele>1229.6</ele></trkpt><trkpt lat="45.83683" lon="9.18357"><time>2024-05-04T07:16:15.000Z</time><ele>1229.8</ele></trkpt><trkpt lat="45.836836" lon="9.183563"><time>2024-05-04T07:16:16.000Z</time><ele>1230</ele></trkpt><trkpt lat="45.836843" lon="9.183553"><time>2024-05-04T07:16:17.000Z</time><ele>1230</ele></trkpt><trkpt lat="45.836849" lon="9.183545"><time>2024-05-04T07:16:18.000Z</time><ele>1230.2</ele></trkpt><trkpt lat="45.836852" lon="9.183535"><time>2024-05-04T07:16:19.000Z</time><ele>1230.4</ele></trkpt><trkpt lat="45.836857" lon="9.183522"><time>2024-05-04T07:16:20.000Z</time><ele>1230.6</ele></trkpt><trkpt lat="45.836863" lon="9.183515"><time>2024-05-04T07:16:21.000Z</time><ele>1230.8</ele></trkpt><trkpt lat="45.836872" lon="9.183507"><time>2024-05-04T07:16:22.000Z</time><ele>1231</ele></trkpt><trkpt lat="45.836879" lon="9.1835"><time>2024-05-04T07:16:23.000Z</time><ele>1231.2</ele></trkpt><trkpt lat="45.836884" lon="9.183494"><time>2024-05-04T07:16:24.000Z</time><ele>1231.4</ele></trkpt><trkpt lat="45.836889" lon="9.183484"><time>2024-05-04T07:16:25.000Z</time><ele>1231.6</ele></trkpt><trkpt lat="45.836892" lon="9.183473"><time>2024-05-04T07:16:26.000Z</time><ele>1231.8</ele></trkpt><trkpt lat="45.836895" lon="9.183464"><time>2024-05-04T07:16:27.000Z</time><ele>1232</ele></trkpt><trkpt lat="45.836901" lon="9.183454"><time>2024-05-04T07:16:28.000Z</time><ele>1232.2</ele></trkpt><trkpt lat="45.836905" lon="9.183446"><time>2024-05-04T07:16:29.000Z</time><ele>1232.4</ele></trkpt><trkpt lat="45.836906" lon="9.183434"><time>2024-05-04T07:16:30.000Z</time><ele>1232.6</ele></trkpt><trkpt lat="45.83691" lon="9.183424"><time>2024-05-04T07:16:31.000Z</time><ele>1232.6</ele></trkpt><trkpt lat="45.836913" lon="9.183413"><time>2024-05-04T07:16:32.000Z</time><ele>1232.8</ele></trkpt><trkpt lat="45.836916" lon="9.183402"><time>2024-05-04T07:16:33.000Z</time><ele>1233</ele></trkpt><trkpt lat="45.836921" lon="9.183394"><time>2024-05-04T07:16:34.000Z</time><ele>1233</ele></trkpt><trkpt lat="45.836925" lon="9.183384"><time>2024-05-04T07:16:35.000Z</time><ele>1233</ele></trkpt><trkpt lat="45.836929" lon="9.183374"><time>2024-05-04T07:16:36.000Z</time><ele>1233.2</ele></trkpt><trkpt lat="45.836935" lon="9.183365"><time>2024-05-04T07:16:37.000Z</time><ele>1233.2</ele></trkpt><trkpt lat="45.836939" lon="9.183356"><time>2024-05-04T07:16:38.000Z</time><ele>1233.4</ele></trkpt><trkpt lat="45.836943" lon="9.183346"><time>2024-05-04T07:16:39.000Z</time><ele>1233.6</ele></trkpt><trkpt lat="45.836943" lon="9.18334"><time>2024-05-04T07:16:40.000Z</time><ele>1233.8</ele></trkpt><trkpt lat="45.83694" lon="9.183329"><time>2024-05-04T07:16:41.000Z</time><ele>1234</ele></trkpt><trkpt lat="45.83694" lon="9.18332"><time>2024-05-04T07:16:42.000Z</time><ele>1234.2</ele></trkpt><trkpt lat="45.836943" lon="9.18331"><time>2024-05-04T07:16:43.000Z</time><ele>1234.4</ele></trkpt><trkpt lat="45.836948" lon="9.183301"><time>2024-05-04T07:16:44.000Z</time><ele>1234.4</ele></trkpt><trkpt lat="45.83695" lon="9.183293"><time>2024-05-04T07:16:45.000Z</time><ele>1234.6</ele></trkpt><trkpt lat="45.836952" lon="9.183282"><time>2024-05-04T07:16:46.000Z</time><ele>1234.8</ele></trkpt><trkpt lat="45.836953" lon="9.183276"><time>2024-05-04T07:16:47.000Z</time><ele>1234.8</ele></trkpt><trkpt lat="45.836955" lon="9.183269"><time>2024-05-04T07:16:48.000Z</time><ele>1235.2</ele></trkpt><trkpt lat="45.836959" lon="9.183259"><time>2024-05-04T07:16:49.000Z</time><ele>1235.2</ele></trkpt><trkpt lat="45.836962" lon="9.183249"><time>2024-05-04T07:16:50.000Z</time><ele>1235.6</ele></trkpt><trkpt lat="45.836966" lon="9.183237"><time>2024-05-04T07:16:51.000Z</time><ele>1235.6</ele></trkpt><trkpt lat="45.836967" lon="9.183227"><time>2024-05-04T07:16:52.000Z</time><ele>1235.8</ele></trkpt><trkpt lat="45.836966" lon="9.183219"><time>2024-05-04T07:16:53.000Z</time><ele>1235.8</ele></trkpt><trkpt lat="45.836964" lon="9.183207"><time>2024-05-04T07:16:54.000Z</time><ele>1236</ele></trkpt><trkpt lat="45.836962" lon="9.183195"><time>2024-05-04T07:16:55.000Z</time><ele>1236.2</ele></trkpt><trkpt lat="45.836964" lon="9.183183"><time>2024-05-04T07:16:56.000Z</time><ele>1236.4</ele></trkpt><trkpt lat="45.836967" lon="9.183172"><time>2024-05-04T07:16:57.000Z</time><ele>1236.4</ele></trkpt><trkpt lat="45.836971" lon="9.183158"><time>2024-05-04T07:16:58.000Z</time><ele>1236.6</ele></trkpt><trkpt lat="45.836973" lon="9.183144"><time>2024-05-04T07:16:59.000Z</time><ele>1236.8</ele></trkpt><trkpt lat="45.836975" lon="9.183134"><time>2024-05-04T07:17:00.000Z</time><ele>1236.8</ele></trkpt><trkpt lat="45.83698" lon="9.183125"><time>2024-05-04T07:17:01.000Z</time><ele>1237.2</ele></trkpt><trkpt lat="45.836979" lon="9.183114"><time>2024-05-04T07:17:02.000Z</time><ele>1237.4</ele></trkpt><trkpt lat="45.836981" lon="9.183103"><time>2024-05-04T07:17:03.000Z</time><ele>1237.6</ele></trkpt><trkpt lat="45.836982" lon="9.183092"><time>2024-05-04T07:17:04.000Z</time><ele>1237.8</ele></trkpt><trkpt lat="45.836988" lon="9.18308"><time>2024-05-04T07:17:05.000Z</time><ele>1237.8</ele></trkpt><trkpt lat="45.836992" lon="9.183069"><time>2024-05-04T07:17:06.000Z</time><ele>1237.8</ele></trkpt><trkpt lat="45.836995" lon="9.183057"><time>2024-05-04T07:17:07.000Z</time><ele>1238</ele></trkpt><trkpt lat="45.836999" lon="9.183043"><time>2024-05-04T07:17:08.000Z</time><ele>1238</ele></trkpt><trkpt lat="45.837005" lon="9.183031"><time>2024-05-04T07:17:09.000Z</time><ele>1238.2</ele></trkpt><trkpt lat="45.837011" lon="9.183018"><time>2024-05-04T07:17:10.000Z</time><ele>1238.2</ele></trkpt><trkpt lat="45.837016" lon="9.183007"><time>2024-05-04T07:17:11.000Z</time><ele>1238.4</ele></trkpt><trkpt lat="45.837019" lon="9.182996"><time>2024-05-04T07:17:12.000Z</time><ele>1238.4</ele></trkpt><trkpt lat="45.837022" lon="9.182986"><time>2024-05-04T07:17:13.000Z</time><ele>1238.6</ele></trkpt><trkpt lat="45.837026" lon="9.182975"><time>2024-05-04T07:17:14.000Z</time><ele>1239</ele></trkpt><trkpt lat="45.837028" lon="9.182963"><time>2024-05-04T07:17:15.000Z</time><ele>1239</ele></trkpt><trkpt lat="45.837027" lon="9.182951"><time>2024-05-04T07:17:16.000Z</time><ele>1239.2</ele></trkpt><trkpt lat="45.837029" lon="9.182939"><time>2024-05-04T07:17:17.000Z</time><ele>1239.4</ele></trkpt><trkpt lat="45.837034" lon="9.182927"><time>2024-05-04T07:17:18.000Z</time><ele>1239.6</ele></trkpt><trkpt lat="45.837036" lon="9.182916"><time>2024-05-04T07:17:19.000Z</time><ele>1239.6</ele></trkpt><trkpt lat="45.837039" lon="9.182904"><time>2024-05-04T07:17:20.000Z</time><ele>1239.8</ele></trkpt><trkpt lat="45.837036" lon="9.18289"><time>2024-05-04T07:17:21.000Z</time><ele>1240</ele></trkpt><trkpt lat="45.837037" lon="9.182877"><time>2024-05-04T07:17:22.000Z</time><ele>1240</ele></trkpt><trkpt lat="45.837039" lon="9.182862"><time>2024-05-04T07:17:23.000Z</time><ele>1240.2</ele></trkpt><trkpt lat="45.837045" lon="9.182849"><time>2024-05-04T07:17:24.000Z</time><ele>1240.4</ele></trkpt><trkpt lat="45.837049" lon="9.182835"><time>2024-05-04T07:17:25.000Z</time><ele>1240.4</ele></trkpt><trkpt lat="45.837052" lon="9.182821"><time>2024-05-04T07:17:26.000Z</time><ele>1240.6</ele></trkpt><trkpt lat="45.837056" lon="9.18281"><time>2024-05-04T07:17:27.000Z</time><ele>1240.8</ele></trkpt><trkpt lat="45.83706" lon="9.182799"><time>2024-05-04T07:17:28.000Z</time><ele>1241</ele></trkpt><trkpt lat="45.837064" lon="9.182793"><time>2024-05-04T07:17:29.000Z</time><ele>1241.2</ele></trkpt><trkpt lat="45.837068" lon="9.182784"><time>2024-05-04T07:17:30.000Z</time><ele>1241.4</ele></trkpt><trkpt lat="45.83707" lon="9.182774"><time>2024-05-04T07:17:31.000Z</time><ele>1241.6</ele></trkpt><trkpt lat="45.83707" lon="9.182764"><time>2024-05-04T07:17:32.000Z</time><ele>1241.8</ele></trkpt><trkpt lat="45.837073" lon="9.182754"><time>2024-05-04T07:17:33.000Z</time><ele>1241.8</ele></trkpt><trkpt lat="45.837078" lon="9.182743"><time>2024-05-04T07:17:34.000Z</time><ele>1242</ele></trkpt><trkpt lat="45.837079" lon="9.182733"><time>2024-05-04T07:17:35.000Z</time><ele>1242.2</ele></trkpt><trkpt lat="45.837082" lon="9.18272"><time>2024-05-04T07:17:36.000Z</time><ele>1242.4</ele></trkpt><trkpt lat="45.837087" lon="9.182707"><time>2024-05-04T07:17:37.000Z</time><ele>1242.6</ele></trkpt><trkpt lat="45.837089" lon="9.182693"><time>2024-05-04T07:17:38.000Z</time><ele>1242.6</ele></trkpt><trkpt lat="45.837092" lon="9.182682"><time>2024-05-04T07:17:39.000Z</time><ele>1242.8</ele></trkpt><trkpt lat="45.837088" lon="9.182672"><time>2024-05-04T07:17:40.000Z</time><ele>1242.8</ele></trkpt><trkpt lat="45.837085" lon="9.182662"><time>2024-05-04T07:17:41.000Z</time><ele>1243.2</ele></trkpt><trkpt lat="45.837086" lon="9.182655"><time>2024-05-04T07:17:42.000Z</time><ele>1243.2</ele></trkpt><trkpt lat="45.837089" lon="9.182647"><time>2024-05-04T07:17:43.000Z</time><ele>1243.4</ele></trkpt><trkpt lat="45.837094" lon="9.182638"><time>2024-05-04T07:17:44.000Z</time><ele>1243.6</ele></trkpt><trkpt lat="45.8371" lon="9.182625"><time>2024-05-04T07:17:45.000Z</time><ele>1243.6</ele></trkpt><trkpt lat="45.837108" lon="9.182615"><time>2024-05-04T07:17:46.000Z</time><ele>1243.6</ele></trkpt><trkpt lat="45.837113" lon="9.182606"><time>2024-05-04T07:17:47.000Z</time><ele>1243.8</ele></trkpt><trkpt lat="45.837115" lon="9.182597"><time>2024-05-04T07:17:48.000Z</time><ele>1243.8</ele></trkpt><trkpt lat="45.83712" lon="9.182587"><time>2024-05-04T07:17:49.000Z</time><ele>1243.8</ele></trkpt><trkpt lat="45.837123" lon="9.182574"><time>2024-05-04T07:17:50.000Z</time><ele>1244</ele></trkpt><trkpt lat="45.837127" lon="9.182565"><time>2024-05-04T07:17:51.000Z</time><ele>1244.2</ele></trkpt><trkpt lat="45.837131" lon="9.182555"><time>2024-05-04T07:17:52.000Z</time><ele>1244.4</ele></trkpt><trkpt lat="45.837137" lon="9.182543"><time>2024-05-04T07:17:53.000Z</time><ele>1244.6</ele></trkpt><trkpt lat="45.837142" lon="9.182533"><time>2024-05-04T07:17:54.000Z</time><ele>1244.8</ele></trkpt><trkpt lat="45.837145" lon="9.182522"><time>2024-05-04T07:17:55.000Z</time><ele>1244.8</ele></trkpt><trkpt lat="45.837145" lon="9.182513"><time>2024-05-04T07:17:56.000Z</time><ele>1245</ele></trkpt><trkpt lat="45.837149" lon="9.182502"><time>2024-05-04T07:17:57.000Z</time><ele>1245.2</ele></trkpt><trkpt lat="45.837156" lon="9.182492"><time>2024-05-04T07:17:58.000Z</time><ele>1245.2</ele></trkpt><trkpt lat="45.83716" lon="9.182482"><time>2024-05-04T07:17:59.000Z</time><ele>1245.4</ele></trkpt><trkpt lat="45.837164" lon="9.182471"><time>2024-05-04T07:18:00.000Z</time><ele>1245.6</ele></trkpt><trkpt lat="45.837168" lon="9.182461"><time>2024-05-04T07:18:01.000Z</time><ele>1245.8</ele></trkpt><trkpt lat="45.837173" lon="9.182452"><time>2024-05-04T07:18:02.000Z</time><ele>1246</ele></trkpt><trkpt lat="45.837177" lon="9.182443"><time>2024-05-04T07:18:03.000Z</time><ele>1246.2</ele></trkpt><trkpt lat="45.837177" lon="9.182434"><time>2024-05-04T07:18:04.000Z</time><ele>1246.4</ele></trkpt><trkpt lat="45.837182" lon="9.182424"><time>2024-05-04T07:18:05.000Z</time><ele>1246.6</ele></trkpt><trkpt lat="45.837184" lon="9.182415"><time>2024-05-04T07:18:06.000Z</time><ele>1246.8</ele></trkpt><trkpt lat="45.837185" lon="9.182407"><time>2024-05-04T07:18:07.000Z</time><ele>1247</ele></trkpt><trkpt lat="45.837187" lon="9.182396"><time>2024-05-04T07:18:08.000Z</time><ele>1247</ele></trkpt><trkpt lat="45.837189" lon="9.182384"><time>2024-05-04T07:18:09.000Z</time><ele>1247.2</ele></trkpt><trkpt lat="45.837193" lon="9.182371"><time>2024-05-04T07:18:10.000Z</time><ele>1247.4</ele></trkpt><trkpt lat="45.837191" lon="9.182362"><time>2024-05-04T07:18:11.000Z</time><ele>1247.6</ele></trkpt><trkpt lat="45.837191" lon="9.182352"><time>2024-05-04T07:18:12.000Z</time><ele>1247.8</ele></trkpt><trkpt lat="45.837193" lon="9.182342"><time>2024-05-04T07:18:13.000Z</time><ele>1247.8</ele></trkpt><trkpt lat="45.837198" lon="9.182331"><time>2024-05-04T07:18:14.000Z</time><ele>1248</ele></trkpt><trkpt lat="45.837201" lon="9.18232"><time>2024-05-04T07:18:15.000Z</time><ele>1248</ele></trkpt><trkpt lat="45.837204" lon="9.18231"><time>2024-05-04T07:18:16.000Z</time><ele>1248.2</ele></trkpt><trkpt lat="45.837208" lon="9.182299"><time>2024-05-04T07:18:17.000Z</time><ele>1248.2</ele></trkpt><trkpt lat="45.837211" lon="9.182288"><time>2024-05-04T07:18:18.000Z</time><ele>1248.4</ele></trkpt><trkpt lat="45.837213" lon="9.182276"><time>2024-05-04T07:18:19.000Z</time><ele>1248.6</ele></trkpt><trkpt lat="45.837214" lon="9.182266"><time>2024-05-04T07:18:20.000Z</time><ele>1248.6</ele></trkpt><trkpt lat="45.837216" lon="9.182256"><time>2024-05-04T07:18:21.000Z</time><ele>1248.8</ele></trkpt><trkpt lat="45.837219" lon="9.182243"><time>2024-05-04T07:18:22.000Z</time><ele>1248.8</ele></trkpt><trkpt lat="45.83722" lon="9.182233"><time>2024-05-04T07:18:23.000Z</time><ele>1249</ele></trkpt><trkpt lat="45.837223" lon="9.182222"><time>2024-05-04T07:18:24.000Z</time><ele>1249.2</ele></trkpt><trkpt lat="45.837224" lon="9.18221"><time>2024-05-04T07:18:25.000Z</time><ele>1249.6</ele></trkpt><trkpt lat="45.837224" lon="9.182199"><time>2024-05-04T07:18:26.000Z</time><ele>1249.8</ele></trkpt><trkpt lat="45.837226" lon="9.182189"><time>2024-05-04T07:18:27.000Z</time><ele>1250</ele></trkpt><trkpt lat="45.83723" lon="9.182178"><time>2024-05-04T07:18:28.000Z</time><ele>1250.2</ele></trkpt><trkpt lat="45.837231" lon="9.182169"><time>2024-05-04T07:18:29.000Z</time><ele>1250.2</ele></trkpt><trkpt lat="45.837232" lon="9.182161"><time>2024-05-04T07:18:30.000Z</time><ele>1250.4</ele></trkpt><trkpt lat="45.837232" lon="9.182151"><time>2024-05-04T07:18:31.000Z</time><ele>1250.4</ele></trkpt><trkpt lat="45.837229" lon="9.18214"><time>2024-05-04T07:18:32.000Z</time><ele>1250.6</ele></trkpt><trkpt lat="45.837228" lon="9.18213"><time>2024-05-04T07:18:33.000Z</time><ele>1250.6</ele></trkpt><trkpt lat="45.837231" lon="9.182121"><time>2024-05-04T07:18:34.000Z</time><ele>1250.8</ele></trkpt><trkpt lat="45.83723" lon="9.182109"><time>2024-05-04T07:18:35.000Z</time><ele>1250.8</ele></trkpt><trkpt lat="45.837229" lon="9.182096"><time>2024-05-04T07:18:36.000Z</time><ele>1251.2</ele></trkpt><trkpt lat="45.83723" lon="9.182086"><time>2024-05-04T07:18:37.000Z</time><ele>1251.4</ele></trkpt><trkpt lat="45.837231" lon="9.182074"><time>2024-05-04T07:18:38.000Z</time><ele>1251.4</ele></trkpt><trkpt lat="45.837231" lon="9.182062"><time>2024-05-04T07:18:39.000Z</time><ele>1251.6</ele></trkpt><trkpt lat="45.837233" lon="9.182046"><time>2024-05-04T07:18:40.000Z</time><ele>1251.6</ele></trkpt><trkpt lat="45.837236" lon="9.182033"><time>2024-05-04T07:18:41.000Z</time><ele>1251.8</ele></trkpt><trkpt lat="45.837238" lon="9.182023"><time>2024-05-04T07:18:42.000Z</time><ele>1252.2</ele></trkpt><trkpt lat="45.837238" lon="9.182014"><time>2024-05-04T07:18:43.000Z</time><ele>1252.4</ele></trkpt><trkpt lat="45.837238" lon="9.182003"><time>2024-05-04T07:18:44.000Z</time><ele>1252.4</ele></trkpt><trkpt lat="45.837239" lon="9.18199"><time>2024-05-04T07:18:45.000Z</time><ele>1252.6</ele></trkpt><trkpt lat="45.837239" lon="9.181982"><time>2024-05-04T07:18:46.000Z</time><ele>1252.8</ele></trkpt><trkpt lat="45.837242" lon="9.181968"><time>2024-05-04T07:18:47.000Z</time><ele>1252.8</ele></trkpt><trkpt lat="45.837242" lon="9.181954"><time>2024-05-04T07:18:48.000Z</time><ele>1252.8</ele></trkpt><trkpt lat="45.837241" lon="9.181941"><time>2024-05-04T07:18:49.000Z</time><ele>1253</ele></trkpt><trkpt lat="45.837237" lon="9.181928"><time>2024-05-04T07:18:50.000Z</time><ele>1253</ele></trkpt><trkpt lat="45.837237" lon="9.181917"><time>2024-05-04T07:18:51.000Z</time><ele>1253</ele></trkpt><trkpt lat="45.837236" lon="9.181906"><time>2024-05-04T07:18:52.000Z</time><ele>1253.2</ele></trkpt><trkpt lat="45.837235" lon="9.181895"><time>2024-05-04T07:18:53.000Z</time><ele>1253.2</ele></trkpt><trkpt lat="45.837237" lon="9.181884"><time>2024-05-04T07:18:54.000Z</time><ele>1253.4</ele></trkpt><trkpt lat="45.837236" lon="9.181873"><time>2024-05-04T07:18:55.000Z</time><ele>1253.6</ele></trkpt><trkpt lat="45.837235" lon="9.181862"><time>2024-05-04T07:18:56.000Z</time><ele>1253.6</ele></trkpt><trkpt lat="45.837236" lon="9.181851"><time>2024-05-04T07:18:57.000Z</time><ele>1253.8</ele></trkpt><trkpt lat="45.837236" lon="9.181838"><time>2024-05-04T07:18:58.000Z</time><ele>1254</ele></trkpt><trkpt lat="45.837237" lon="9.181825"><time>2024-05-04T07:18:59.000Z</time><ele>1254.2</ele></trkpt><trkpt lat="45.837238" lon="9.181813"><time>2024-05-04T07:19:00.000Z</time><ele>1254.2</ele></trkpt><trkpt lat="45.837239" lon="9.181802"><time>2024-05-04T07:19:01.000Z</time><ele>1254.4</ele></trkpt><trkpt lat="45.837241" lon="9.18179"><time>2024-05-04T07:19:02.000Z</time><ele>1254.6</ele></trkpt><trkpt lat="45.837242" lon="9.181778"><time>2024-05-04T07:19:03.000Z</time><ele>1254.8</ele></trkpt><trkpt lat="45.837242" lon="9.181768"><time>2024-05-04T07:19:04.000Z</time><ele>1254.8</ele></trkpt><trkpt lat="45.837243" lon="9.181757"><time>2024-05-04T07:19:05.000Z</time><ele>1255</ele></trkpt><trkpt lat="45.837245" lon="9.181748"><time>2024-05-04T07:19:06.000Z</time><ele>1255.2</ele></trkpt><trkpt lat="45.837248" lon="9.181739"><time>2024-05-04T07:19:07.000Z</time><ele>1255.4</ele></trkpt><trkpt lat="45.837249" lon="9.181727"><time>2024-05-04T07:19:08.000Z</time><ele>1255.4</ele></trkpt><trkpt lat="45.837249" lon="9.181715"><time>2024-05-04T07:19:09.000Z</time><ele>1255.6</ele></trkpt><trkpt lat="45.837249" lon="9.181704"><time>2024-05-04T07:19:10.000Z</time><ele>1255.8</ele></trkpt><trkpt lat="45.837251" lon="9.181693"><time>2024-05-04T07:19:11.000Z</time><ele>1256</ele></trkpt><trkpt lat="45.837252" lon="9.181686"><time>2024-05-04T07:19:12.000Z</time><ele>1256.2</ele></trkpt><trkpt lat="45.837254" lon="9.181679"><time>2024-05-04T07:19:13.000Z</time><ele>1256.4</ele></trkpt><trkpt lat="45.837256" lon="9.181673"><time>2024-05-04T07:19:14.000Z</time><ele>1256.6</ele></trkpt><trkpt lat="45.837258" lon="9.181667"><time>2024-05-04T07:19:15.000Z</time><ele>1256.8</ele></trkpt><trkpt lat="45.837259" lon="9.181659"><time>2024-05-04T07:19:16.000Z</time><ele>1257</ele></trkpt><trkpt lat="45.837263" lon="9.181653"><time>2024-05-04T07:19:17.000Z</time><ele>1257</ele></trkpt><trkpt lat="45.837266" lon="9.181649"><time>2024-05-04T07:19:18.000Z</time><ele>1257.2</ele></trkpt><trkpt lat="45.83727" lon="9.181646"><time>2024-05-04T07:19:19.000Z</time><ele>1257.2</ele></trkpt><trkpt lat="45.837271" lon="9.181642"><time>2024-05-04T07:19:20.000Z</time><ele>1257.4</ele></trkpt><trkpt lat="45.837274" lon="9.181638"><time>2024-05-04T07:19:21.000Z</time><ele>1257.4</ele></trkpt><trkpt lat="45.837276" lon="9.181637"><time>2024-05-04T07:19:22.000Z</time><ele>1257.4</ele></trkpt><trkpt lat="45.837276" lon="9.181636"><time>2024-05-04T07:19:23.000Z</time><ele>1257.6</ele></trkpt><trkpt lat="45.837275" lon="9.181637"><time>2024-05-04T07:19:24.000Z</time><ele>1257.6</ele></trkpt><trkpt lat="45.837274" lon="9.181637"><time>2024-05-04T07:19:25.000Z</time><ele>1257.6</ele></trkpt><trkpt lat="45.837274" lon="9.181637"><time>2024-05-04T07:19:26.000Z</time><ele>1257.6</ele></trkpt><trkpt lat="45.837275" lon="9.181638"><time>2024-05-04T07:19:27.000Z</time><ele>1257.6</ele></trkpt><trkpt lat="45.837276" lon="9.18164"><time>2024-05-04T07:19:28.000Z</time><ele>1257.6</ele></trkpt><trkpt lat="45.837276" lon="9.18164"><time>2024-05-04T07:19:29.000Z</time><ele>1257.4</ele></trkpt><trkpt lat="45.837276" lon="9.18164"><time>2024-05-04T07:19:30.000Z</time><ele>1257.4</ele></trkpt><trkpt lat="45.837275" lon="9.18164"><time>2024-05-04T07:19:31.000Z</time><ele>1257.4</ele></trkpt><trkpt lat="45.837279" lon="9.181639"><time>2024-05-04T07:19:32.000Z</time><ele>1257.4</ele></trkpt><trkpt lat="45.837283" lon="9.181636"><time>2024-05-04T07:19:33.000Z</time><ele>1257.4</ele></trkpt><trkpt lat="45.837284" lon="9.181634"><time>2024-05-04T07:19:34.000Z</time><ele>1257.4</ele></trkpt><trkpt lat="45.837284" lon="9.18163"><time>2024-05-04T07:19:35.000Z</time><ele>1257.4</ele></trkpt><trkpt lat="45.837286" lon="9.181627"><time>2024-05-04T07:19:36.000Z</time><ele>1257.4</ele></trkpt><trkpt lat="45.837286" lon="9.181624"><time>2024-05-04T07:19:37.000Z</time><ele>1257.4</ele></trkpt><trkpt lat="45.837287" lon="9.18162"><time>2024-05-04T07:19:38.000Z</time><ele>1257.6</ele></trkpt><trkpt lat="45.837287" lon="9.181619"><time>2024-05-04T07:19:39.000Z</time><ele>1257.6</ele></trkpt><trkpt lat="45.837288" lon="9.181617"><time>2024-05-04T07:19:40.000Z</time><ele>1257.6</ele></trkpt><trkpt lat="45.837291" lon="9.181615"><time>2024-05-04T07:19:41.000Z</time><ele>1257.4</ele></trkpt><trkpt lat="45.837292" lon="9.181616"><time>2024-05-04T07:19:42.000Z</time><ele>1257.4</ele></trkpt><trkpt lat="45.837292" lon="9.181616"><time>2024-05-04T07:19:43.000Z</time><ele>1257.4</ele></trkpt><trkpt lat="45.837292" lon="9.181616"><time>2024-05-04T07:19:44.000Z</time><ele>1257.4</ele></trkpt><trkpt lat="45.837292" lon="9.181616"><time>2024-05-04T07:19:45.000Z</time><ele>1257.4</ele></trkpt><trkpt lat="45.837292" lon="9.181616"><time>2024-05-04T07:19:46.000Z</time><ele>1257.4</ele></trkpt><trkpt lat="45.837292" lon="9.181616"><time>2024-05-04T07:19:47.000Z</time><ele>1257.4</ele></trkpt><trkpt lat="45.837292" lon="9.181616"><time>2024-05-04T07:19:48.000Z</time><ele>1257.4</ele></trkpt><trkpt lat="45.837292" lon="9.181616"><time>2024-05-04T07:19:49.000Z</time><ele>1257.4</ele></trkpt><trkpt lat="45.837292" lon="9.181616"><time>2024-05-04T07:19:50.000Z</time><ele>1257.6</ele></trkpt><trkpt lat="45.837292" lon="9.181616"><time>2024-05-04T07:19:51.000Z</time><ele>1257.6</ele></trkpt><trkpt lat="45.837292" lon="9.181616"><time>2024-05-04T07:19:52.000Z</time><ele>1257.6</ele></trkpt><trkpt lat="45.837292" lon="9.181617"><time>2024-05-04T07:19:53.000Z</time><ele>1257.6</ele></trkpt><trkpt lat="45.837292" lon="9.181618"><time>2024-05-04T07:19:54.000Z</time><ele>1257.6</ele></trkpt><trkpt lat="45.837292" lon="9.181618"><time>2024-05-04T07:19:55.000Z</time><ele>1257.4</ele></trkpt><trkpt lat="45.837292" lon="9.181618"><time>2024-05-04T07:19:56.000Z</time><ele>1257.4</ele></trkpt><trkpt lat="45.837292" lon="9.181618"><time>2024-05-04T07:19:57.000Z</time><ele>1257.4</ele></trkpt><trkpt lat="45.837292" lon="9.181618"><time>2024-05-04T07:19:58.000Z</time><ele>1257.2</ele></trkpt><trkpt lat="45.837292" lon="9.181618"><time>2024-05-04T07:19:59.000Z</time><ele>1257.2</ele></trkpt><trkpt lat="45.837292" lon="9.181618"><time>2024-05-04T07:20:00.000Z</time><ele>1257.2</ele></trkpt><trkpt lat="45.837291" lon="9.181618"><time>2024-05-04T07:20:01.000Z</time><ele>1257.2</ele></trkpt><trkpt lat="45.83729" lon="9.181618"><time>2024-05-04T07:20:02.000Z</time><ele>1257.2</ele></trkpt><trkpt lat="45.837289" lon="9.181618"><time>2024-05-04T07:20:03.000Z</time><ele>1257.2</ele></trkpt><trkpt lat="45.837289" lon="9.181618"><time>2024-05-04T07:20:04.000Z</time><ele>1257.2</ele></trkpt><trkpt lat="45.83729" lon="9.181618"><time>2024-05-04T07:20:05.000Z</time><ele>1257.2</ele></trkpt><trkpt lat="45.83729" lon="9.181617"><time>2024-05-04T07:20:06.000Z</time><ele>1257.2</ele></trkpt><trkpt lat="45.837291" lon="9.181617"><time>2024-05-04T07:20:07.000Z</time><ele>1257.2</ele></trkpt><trkpt lat="45.837291" lon="9.181617"><time>2024-05-04T07:20:08.000Z</time><ele>1257.2</ele></trkpt><trkpt lat="45.837292" lon="9.181616"><time>2024-05-04T07:20:09.000Z</time><ele>1257.2</ele></trkpt><trkpt lat="45.837292" lon="9.181616"><time>2024-05-04T07:20:10.000Z</time><ele>1257.2</ele></trkpt><trkpt lat="45.837292" lon="9.181616"><time>2024-05-04T07:20:11.000Z</time><ele>1257.4</ele></trkpt><trkpt lat="45.837292" lon="9.181616"><time>2024-05-04T07:20:12.000Z</time><ele>1257.4</ele></trkpt><trkpt lat="45.837293" lon="9.181615"><time>2024-05-04T07:20:13.000Z</time><ele>1257.4</ele></trkpt><trkpt lat="45.837293" lon="9.181612"><time>2024-05-04T07:20:14.000Z</time><ele>1257.4</ele></trkpt><trkpt lat="45.837293" lon="9.181611"><time>2024-05-04T07:20:15.000Z</time><ele>1257.4</ele></trkpt><trkpt lat="45.837293" lon="9.18161"><time>2024-05-04T07:20:16.000Z</time><ele>1257.4</ele></trkpt><trkpt lat="45.837293" lon="9.18161"><time>2024-05-04T07:20:17.000Z</time><ele>1257.4</ele></trkpt><trkpt lat="45.837293" lon="9.18161"><time>2024-05-04T07:20:18.000Z</time><ele>1257.2</ele></trkpt><trkpt lat="45.837293" lon="9.181609"><time>2024-05-04T07:20:19.000Z</time><ele>1257.2</ele></trkpt><trkpt lat="45.837292" lon="9.181608"><time>2024-05-04T07:20:20.000Z</time><ele>1257</ele></trkpt><trkpt lat="45.837291" lon="9.181607"><time>2024-05-04T07:20:21.000Z</time><ele>1257</ele></trkpt><trkpt lat="45.837291" lon="9.181607"><time>2024-05-04T07:20:22.000Z</time><ele>1257</ele></trkpt><trkpt lat="45.83729" lon="9.181607"><time>2024-05-04T07:20:23.000Z</time><ele>1257</ele></trkpt><trkpt lat="45.83729" lon="9.181606"><time>2024-05-04T07:20:24.000Z</time><ele>1257.2</ele></trkpt><trkpt lat="45.83729" lon="9.181605"><time>2024-05-04T07:20:25.000Z</time><ele>1257.2</ele></trkpt><trkpt lat="45.83729" lon="9.181605"><time>2024-05-04T07:20:26.000Z</time><ele>1257.4</ele></trkpt><trkpt lat="45.83729" lon="9.181604"><time>2024-05-04T07:20:27.000Z</time><ele>1257.4</ele></trkpt><trkpt lat="45.83729" lon="9.181601"><time>2024-05-04T07:20:28.000Z</time><ele>1257.4</ele></trkpt><trkpt lat="45.837287" lon="9.181589"><time>2024-05-04T07:20:29.000Z</time><ele>1257.4</ele></trkpt><trkpt lat="45.837277" lon="9.181564"><time>2024-05-04T07:20:30.000Z</time><ele>1257.6</ele></trkpt><trkpt lat="45.837272" lon="9.181542"><time>2024-05-04T07:20:31.000Z</time><ele>1257.6</ele></trkpt><trkpt lat="45.837265" lon="9.181518"><time>2024-05-04T07:20:32.000Z</time><ele>1257.6</ele></trkpt><trkpt lat="45.837257" lon="9.181493"><time>2024-05-04T07:20:33.000Z</time><ele>1257.8</ele></trkpt><trkpt lat="45.837252" lon="9.181464"><time>2024-05-04T07:20:34.000Z</time><ele>1257.8</ele></trkpt><trkpt lat="45.837245" lon="9.181435"><time>2024-05-04T07:20:35.000Z</time><ele>1258.2</ele></trkpt><trkpt lat="45.837239" lon="9.181409"><time>2024-05-04T07:20:36.000Z</time><ele>1258.4</ele></trkpt><trkpt lat="45.837236" lon="9.181381"><time>2024-05-04T07:20:37.000Z</time><ele>1258.6</ele></trkpt><trkpt lat="45.837234" lon="9.181356"><time>2024-05-04T07:20:38.000Z</time><ele>1258.8</ele></trkpt><trkpt lat="45.837234" lon="9.181346"><time>2024-05-04T07:20:39.000Z</time><ele>1259</ele></trkpt><trkpt lat="45.837235" lon="9.181333"><time>2024-05-04T07:20:40.000Z</time><ele>1259</ele></trkpt><trkpt lat="45.837234" lon="9.181317"><time>2024-05-04T07:20:41.000Z</time><ele>1259.2</ele></trkpt><trkpt lat="45.837234" lon="9.181303"><time>2024-05-04T07:20:42.000Z</time><ele>1259.2</ele></trkpt><trkpt lat="45.837235" lon="9.181291"><time>2024-05-04T07:20:43.000Z</time><ele>1259.2</ele></trkpt><trkpt lat="45.837237" lon="9.181279"><time>2024-05-04T07:20:44.000Z</time><ele>1259.6</ele></trkpt><trkpt lat="45.837235" lon="9.181265"><time>2024-05-04T07:20:45.000Z</time><ele>1259.6</ele></trkpt><trkpt lat="45.837231" lon="9.181253"><time>2024-05-04T07:20:46.000Z</time><ele>1259.8</ele></trkpt><trkpt lat="45.837228" lon="9.181242"><time>2024-05-04T07:20:47.000Z</time><ele>1259.8</ele></trkpt><trkpt lat="45.837226" lon="9.181233"><time>2024-05-04T07:20:48.000Z</time><ele>1260</ele></trkpt><trkpt lat="45.837222" lon="9.181223"><time>2024-05-04T07:20:49.000Z</time><ele>1260</ele></trkpt><trkpt lat="45.837213" lon="9.181211"><time>2024-05-04T07:20:50.000Z</time><ele>1260.4</ele></trkpt><trkpt lat="45.837211" lon="9.181196"><time>2024-05-04T07:20:51.000Z</time><ele>1260.4</ele></trkpt><trkpt lat="45.837209" lon="9.181182"><time>2024-05-04T07:20:52.000Z</time><ele>1260.6</ele></trkpt><trkpt lat="45.837209" lon="9.181166"><time>2024-05-04T07:20:53.000Z</time><ele>1260.6</ele></trkpt><trkpt lat="45.837212" lon="9.181152"><time>2024-05-04T07:20:54.000Z</time><ele>1260.8</ele></trkpt><trkpt lat="45.837213" lon="9.181138"><time>2024-05-04T07:20:55.000Z</time><ele>1260.8</ele></trkpt><trkpt lat="45.837212" lon="9.181128"><time>2024-05-04T07:20:56.000Z</time><ele>1261</ele></trkpt><trkpt lat="45.837214" lon="9.181117"><time>2024-05-04T07:20:57.000Z</time><ele>1261</ele></trkpt><trkpt lat="45.837217" lon="9.181106"><time>2024-05-04T07:20:58.000Z</time><ele>1261.2</ele></trkpt><trkpt lat="45.837214" lon="9.181095"><time>2024-05-04T07:20:59.000Z</time><ele>1261.4</ele></trkpt><trkpt lat="45.837207" lon="9.181087"><time>2024-05-04T07:21:00.000Z</time><ele>1261.6</ele></trkpt><trkpt lat="45.837204" lon="9.181081"><time>2024-05-04T07:21:01.000Z</time><ele>1261.8</ele></trkpt><trkpt lat="45.837202" lon="9.181073"><time>2024-05-04T07:21:02.000Z</time><ele>1261.8</ele></trkpt><trkpt lat="45.837191" lon="9.181073"><time>2024-05-04T07:21:03.000Z</time><ele>1262.2</ele></trkpt><trkpt lat="45.837187" lon="9.181069"><time>2024-05-04T07:21:04.000Z</time><ele>1262.4</ele></trkpt><trkpt lat="45.837183" lon="9.181066"><time>2024-05-04T07:21:05.000Z</time><ele>1262.6</ele></trkpt><trkpt lat="45.837178" lon="9.181063"><time>2024-05-04T07:21:06.000Z</time><ele>1262.8</ele></trkpt><trkpt lat="45.837168" lon="9.181058"><time>2024-05-04T07:21:07.000Z</time><ele>1262.8</ele></trkpt><trkpt lat="45.837168" lon="9.181056"><time>2024-05-04T07:21:08.000Z</time><ele>1263</ele></trkpt><trkpt lat="45.837169" lon="9.181053"><time>2024-05-04T07:21:09.000Z</time><ele>1263.2</ele></trkpt><trkpt lat="45.83717" lon="9.181049"><time>2024-05-04T07:21:10.000Z</time><ele>1263.2</ele></trkpt><trkpt lat="45.83717" lon="9.181044"><time>2024-05-04T07:21:11.000Z</time><ele>1263.4</ele></trkpt><trkpt lat="45.837169" lon="9.181043"><time>2024-05-04T07:21:12.000Z</time><ele>1263.4</ele></trkpt><trkpt lat="45.837169" lon="9.181042"><time>2024-05-04T07:21:13.000Z</time><ele>1263.6</ele></trkpt><trkpt lat="45.83717" lon="9.181042"><time>2024-05-04T07:21:14.000Z</time><ele>1263.6</ele></trkpt><trkpt lat="45.837172" lon="9.181042"><time>2024-05-04T07:21:15.000Z</time><ele>1263.6</ele></trkpt><trkpt lat="45.837173" lon="9.181043"><time>2024-05-04T07:21:16.000Z</time><ele>1263.6</ele></trkpt><trkpt lat="45.837172" lon="9.181042"><time>2024-05-04T07:21:17.000Z</time><ele>1263.6</ele></trkpt><trkpt lat="45.837171" lon="9.18104"><time>2024-05-04T07:21:18.000Z</time><ele>1263.8</ele></trkpt><trkpt lat="45.837173" lon="9.181038"><time>2024-05-04T07:21:19.000Z</time><ele>1263.8</ele></trkpt><trkpt lat="45.837174" lon="9.181035"><time>2024-05-04T07:21:20.000Z</time><ele>1263.6</ele></trkpt><trkpt lat="45.837174" lon="9.181031"><time>2024-05-04T07:21:21.000Z</time><ele>1263.6</ele></trkpt><trkpt lat="45.837177" lon="9.181023"><time>2024-05-04T07:21:22.000Z</time><ele>1263.6</ele></trkpt><trkpt lat="45.837179" lon="9.181019"><time>2024-05-04T07:21:23.000Z</time><ele>1263.6</ele></trkpt><trkpt lat="45.837178" lon="9.181015"><time>2024-05-04T07:21:24.000Z</time><ele>1263.6</ele></trkpt><trkpt lat="45.837182" lon="9.181008"><time>2024-05-04T07:21:25.000Z</time><ele>1263.8</ele></trkpt><trkpt lat="45.837182" lon="9.181004"><time>2024-05-04T07:21:26.000Z</time><ele>1264.2</ele></trkpt><trkpt lat="45.83718" lon="9.180997"><time>2024-05-04T07:21:27.000Z</time><ele>1264.4</ele></trkpt><trkpt lat="45.837182" lon="9.180992"><time>2024-05-04T07:21:28.000Z</time><ele>1264.6</ele></trkpt><trkpt lat="45.837183" lon="9.180983"><time>2024-05-04T07:21:29.000Z</time><ele>1264.8</ele></trkpt><trkpt lat="45.837182" lon="9.180976"><time>2024-05-04T07:21:30.000Z</time><ele>1265</ele></trkpt><trkpt lat="45.837181" lon="9.18097"><time>2024-05-04T07:21:31.000Z</time><ele>1265.2</ele></trkpt><trkpt lat="45.837184" lon="9.180963"><time>2024-05-04T07:21:32.000Z</time><ele>1265.4</ele></trkpt><trkpt lat="45.837191" lon="9.18096"><time>2024-05-04T07:21:33.000Z</time><ele>1265.6</ele></trkpt><trkpt lat="45.837191" lon="9.180955"><time>2024-05-04T07:21:34.000Z</time><ele>1265.8</ele></trkpt><trkpt lat="45.837189" lon="9.180952"><time>2024-05-04T07:21:35.000Z</time><ele>1266</ele></trkpt><trkpt lat="45.837186" lon="9.180943"><time>2024-05-04T07:21:36.000Z</time><ele>1266.4</ele></trkpt><trkpt lat="45.837184" lon="9.180937"><time>2024-05-04T07:21:37.000Z</time><ele>1266.6</ele></trkpt><trkpt lat="45.837184" lon="9.180932"><time>2024-05-04T07:21:38.000Z</time><ele>1266.8</ele></trkpt><trkpt lat="45.837181" lon="9.18092"><time>2024-05-04T07:21:39.000Z</time><ele>1267.2</ele></trkpt><trkpt lat="45.837184" lon="9.180915"><time>2024-05-04T07:21:40.000Z</time><ele>1267.4</ele></trkpt><trkpt lat="45.837184" lon="9.180907"><time>2024-05-04T07:21:41.000Z</time><ele>1267.6</ele></trkpt><trkpt lat="45.837185" lon="9.180897"><time>2024-05-04T07:21:42.000Z</time><ele>1267.8</ele></trkpt><trkpt lat="45.837185" lon="9.180885"><time>2024-05-04T07:21:43.000Z</time><ele>1268</ele></trkpt><trkpt lat="45.837185" lon="9.180878"><time>2024-05-04T07:21:44.000Z</time><ele>1268.2</ele></trkpt><trkpt lat="45.83718" lon="9.180868"><time>2024-05-04T07:21:45.000Z</time><ele>1268.6</ele></trkpt><trkpt lat="45.83718" lon="9.18086"><time>2024-05-04T07:21:46.000Z</time><ele>1268.8</ele></trkpt><trkpt lat="45.837185" lon="9.180853"><time>2024-05-04T07:21:47.000Z</time><ele>1269</ele></trkpt><trkpt lat="45.837185" lon="9.180847"><time>2024-05-04T07:21:48.000Z</time><ele>1269</ele></trkpt><trkpt lat="45.837183" lon="9.180839"><time>2024-05-04T07:21:49.000Z</time><ele>1269.2</ele></trkpt><trkpt lat="45.837185" lon="9.180835"><time>2024-05-04T07:21:50.000Z</time><ele>1269.2</ele></trkpt><trkpt lat="45.837186" lon="9.180824"><time>2024-05-04T07:21:51.000Z</time><ele>1269.4</ele></trkpt><trkpt lat="45.837187" lon="9.180813"><time>2024-05-04T07:21:52.000Z</time><ele>1269.6</ele></trkpt><trkpt lat="45.83719" lon="9.180803"><time>2024-05-04T07:21:53.000Z</time><ele>1269.8</ele></trkpt><trkpt lat="45.83719" lon="9.180797"><time>2024-05-04T07:21:54.000Z</time><ele>1270</ele></trkpt><trkpt lat="45.837179" lon="9.180789"><time>2024-05-04T07:21:55.000Z</time><ele>1270.2</ele></trkpt><trkpt lat="45.837174" lon="9.180786"><time>2024-05-04T07:21:56.000Z</time><ele>1270.4</ele></trkpt><trkpt lat="45.837171" lon="9.180784"><time>2024-05-04T07:21:57.000Z</time><ele>1270.6</ele></trkpt><trkpt lat="45.837168" lon="9.180784"><time>2024-05-04T07:21:58.000Z</time><ele>1270.8</ele></trkpt><trkpt lat="45.837165" lon="9.180784"><time>2024-05-04T07:21:59.000Z</time><ele>1271</ele></trkpt><trkpt lat="45.837165" lon="9.180784"><time>2024-05-04T07:22:00.000Z</time><ele>1271</ele></trkpt><trkpt lat="45.837164" lon="9.180782"><time>2024-05-04T07:22:01.000Z</time><ele>1271</ele></trkpt><trkpt lat="45.837163" lon="9.180782"><time>2024-05-04T07:22:02.000Z</time><ele>1271</ele></trkpt><trkpt lat="45.837163" lon="9.18078"><time>2024-05-04T07:22:03.000Z</time><ele>1271</ele></trkpt><trkpt lat="45.837162" lon="9.180779"><time>2024-05-04T07:22:04.000Z</time><ele>1271</ele></trkpt><trkpt lat="45.83716" lon="9.180779"><time>2024-05-04T07:22:05.000Z</time><ele>1271</ele></trkpt><trkpt lat="45.837162" lon="9.180778"><time>2024-05-04T07:22:06.000Z</time><ele>1271</ele></trkpt><trkpt lat="45.837164" lon="9.180778"><time>2024-05-04T07:22:07.000Z</time><ele>1271</ele></trkpt><trkpt lat="45.837165" lon="9.180776"><time>2024-05-04T07:22:08.000Z</time><ele>1271</ele></trkpt><trkpt lat="45.837166" lon="9.180777"><time>2024-05-04T07:22:09.000Z</time><ele>1270.8</ele></trkpt><trkpt lat="45.837168" lon="9.180778"><time>2024-05-04T07:22:10.000Z</time><ele>1270.8</ele></trkpt><trkpt lat="45.837169" lon="9.180777"><time>2024-05-04T07:22:11.000Z</time><ele>1270.8</ele></trkpt><trkpt lat="45.837167" lon="9.180777"><time>2024-05-04T07:22:12.000Z</time><ele>1270.6</ele></trkpt><trkpt lat="45.837164" lon="9.180777"><time>2024-05-04T07:22:13.000Z</time><ele>1270.6</ele></trkpt><trkpt lat="45.837164" lon="9.180775"><time>2024-05-04T07:22:14.000Z</time><ele>1270.6</ele></trkpt><trkpt lat="45.837162" lon="9.180775"><time>2024-05-04T07:22:15.000Z</time><ele>1270.8</ele></trkpt><trkpt lat="45.83716" lon="9.180776"><time>2024-05-04T07:22:16.000Z</time><ele>1270.8</ele></trkpt><trkpt lat="45.837158" lon="9.180776"><time>2024-05-04T07:22:17.000Z</time><ele>1270.8</ele></trkpt><trkpt lat="45.837158" lon="9.180776"><time>2024-05-04T07:22:18.000Z</time><ele>1270.8</ele></trkpt><trkpt lat="45.837158" lon="9.180776"><time>2024-05-04T07:22:19.000Z</time><ele>1270.8</ele></trkpt><trkpt lat="45.837158" lon="9.180776"><time>2024-05-04T07:22:20.000Z</time><ele>1270.8</ele></trkpt><trkpt lat="45.837158" lon="9.180776"><time>2024-05-04T07:22:21.000Z</time><ele>1270.8</ele></trkpt><trkpt lat="45.837158" lon="9.180776"><time>2024-05-04T07:22:22.000Z</time><ele>1270.8</ele></trkpt><trkpt lat="45.837158" lon="9.180776"><time>2024-05-04T07:22:23.000Z</time><ele>1271</ele></trkpt><trkpt lat="45.837158" lon="9.180776"><time>2024-05-04T07:22:24.000Z</time><ele>1271</ele></trkpt><trkpt lat="45.837158" lon="9.180776"><time>2024-05-04T07:22:25.000Z</time><ele>1271</ele></trkpt><trkpt lat="45.837158" lon="9.180776"><time>2024-05-04T07:22:26.000Z</time><ele>1271</ele></trkpt><trkpt lat="45.837158" lon="9.180776"><time>2024-05-04T07:22:27.000Z</time><ele>1271.2</ele></trkpt><trkpt lat="45.837158" lon="9.180776"><time>2024-05-04T07:22:28.000Z</time><ele>1271.2</ele></trkpt><trkpt lat="45.837158" lon="9.180776"><time>2024-05-04T07:22:29.000Z</time><ele>1271.2</ele></trkpt><trkpt lat="45.837158" lon="9.180776"><time>2024-05-04T07:22:30.000Z</time><ele>1271.4</ele></trkpt><trkpt lat="45.837158" lon="9.180776"><time>2024-05-04T07:22:31.000Z</time><ele>1271.6</ele></trkpt><trkpt lat="45.837158" lon="9.180775"><time>2024-05-04T07:22:32.000Z</time><ele>1271.6</ele></trkpt><trkpt lat="45.837159" lon="9.180775"><time>2024-05-04T07:22:33.000Z</time><ele>1271.8</ele></trkpt><trkpt lat="45.837159" lon="9.180773"><time>2024-05-04T07:22:34.000Z</time><ele>1271.8</ele></trkpt><trkpt lat="45.83716" lon="9.180771"><time>2024-05-04T07:22:35.000Z</time><ele>1271.8</ele></trkpt><trkpt lat="45.83716" lon="9.180767"><time>2024-05-04T07:22:36.000Z</time><ele>1271.8</ele></trkpt><trkpt lat="45.83716" lon="9.180762"><time>2024-05-04T07:22:37.000Z</time><ele>1272</ele></trkpt><trkpt lat="45.837164" lon="9.180749"><time>2024-05-04T07:22:38.000Z</time><ele>1272</ele></trkpt><trkpt lat="45.837172" lon="9.180723"><time>2024-05-04T07:22:39.000Z</time><ele>1272.2</ele></trkpt><trkpt lat="45.837177" lon="9.180696"><time>2024-05-04T07:22:40.000Z</time><ele>1272.2</ele></trkpt><trkpt lat="45.83718" lon="9.180675"><time>2024-05-04T07:22:41.000Z</time><ele>1272.4</ele></trkpt><trkpt lat="45.837184" lon="9.180648"><time>2024-05-04T07:22:42.000Z</time><ele>1272.6</ele></trkpt><trkpt lat="45.83719" lon="9.180622"><time>2024-05-04T07:22:43.000Z</time><ele>1272.8</ele></trkpt><trkpt lat="45.837195" lon="9.180598"><time>2024-05-04T07:22:44.000Z</time><ele>1272.8</ele></trkpt><trkpt lat="45.837201" lon="9.180583"><time>2024-05-04T07:22:45.000Z</time><ele>1273</ele></trkpt><trkpt lat="45.837207" lon="9.180566"><time>2024-05-04T07:22:46.000Z</time><ele>1273</ele></trkpt><trkpt lat="45.83721" lon="9.180542"><time>2024-05-04T07:22:47.000Z</time><ele>1273.2</ele></trkpt><trkpt lat="45.837213" lon="9.18053"><time>2024-05-04T07:22:48.000Z</time><ele>1273.2</ele></trkpt><trkpt lat="45.837218" lon="9.180517"><time>2024-05-04T07:22:49.000Z</time><ele>1273.2</ele></trkpt><trkpt lat="45.837215" lon="9.180507"><time>2024-05-04T07:22:50.000Z</time><ele>1273.4</ele></trkpt><trkpt lat="45.837214" lon="9.180503"><time>2024-05-04T07:22:51.000Z</time><ele>1273.4</ele></trkpt><trkpt lat="45.83722" lon="9.1805"><time>2024-05-04T07:22:52.000Z</time><ele>1273.8</ele></trkpt><trkpt lat="45.837227" lon="9.180495"><time>2024-05-04T07:22:53.000Z</time><ele>1273.8</ele></trkpt><trkpt lat="45.83723" lon="9.180487"><time>2024-05-04T07:22:54.000Z</time><ele>1274</ele></trkpt><trkpt lat="45.837229" lon="9.180474"><time>2024-05-04T07:22:55.000Z</time><ele>1274</ele></trkpt><trkpt lat="45.837218" lon="9.180464"><time>2024-05-04T07:22:56.000Z</time><ele>1274.2</ele></trkpt><trkpt lat="45.837213" lon="9.180462"><time>2024-05-04T07:22:57.000Z</time><ele>1274.4</ele></trkpt><trkpt lat="45.837211" lon="9.180457"><time>2024-05-04T07:22:58.000Z</time><ele>1274.6</ele></trkpt><trkpt lat="45.837212" lon="9.180449"><time>2024-05-04T07:22:59.000Z</time><ele>1274.8</ele></trkpt><trkpt lat="45.837213" lon="9.180442"><time>2024-05-04T07:23:00.000Z</time><ele>1275</ele></trkpt><trkpt lat="45.837219" lon="9.180434"><time>2024-05-04T07:23:01.000Z</time><ele>1275.2</ele></trkpt><trkpt lat="45.837224" lon="9.180426"><time>2024-05-04T07:23:02.000Z</time><ele>1275.4</ele></trkpt><trkpt lat="45.837229" lon="9.180415"><time>2024-05-04T07:23:03.000Z</time><ele>1275.4</ele></trkpt><trkpt lat="45.837232" lon="9.18041"><time>2024-05-04T07:23:04.000Z</time><ele>1275.6</ele></trkpt><trkpt lat="45.83724" lon="9.180403"><time>2024-05-04T07:23:05.000Z</time><ele>1275.8</ele></trkpt><trkpt lat="45.837242" lon="9.180398"><time>2024-05-04T07:23:06.000Z</time><ele>1276</ele></trkpt><trkpt lat="45.837241" lon="9.180394"><time>2024-05-04T07:23:07.000Z</time><ele>1276.2</ele></trkpt><trkpt lat="45.83724" lon="9.180389"><time>2024-05-04T07:23:08.000Z</time><ele>1276.4</ele></trkpt><trkpt lat="45.837239" lon="9.180389"><time>2024-05-04T07:23:09.000Z</time><ele>1276.4</ele></trkpt><trkpt lat="45.837245" lon="9.180387"><time>2024-05-04T07:23:10.000Z</time><ele>1276.6</ele></trkpt><trkpt lat="45.837247" lon="9.180387"><time>2024-05-04T07:23:11.000Z</time><ele>1276.8</ele></trkpt><trkpt lat="45.837247" lon="9.180385"><time>2024-05-04T07:23:12.000Z</time><ele>1277</ele></trkpt><trkpt lat="45.837261" lon="9.180373"><time>2024-05-04T07:23:13.000Z</time><ele>1277</ele></trkpt><trkpt lat="45.837272" lon="9.180366"><time>2024-05-04T07:23:14.000Z</time><ele>1277.2</ele></trkpt><trkpt lat="45.837283" lon="9.180362"><time>2024-05-04T07:23:15.000Z</time><ele>1277.2</ele></trkpt><trkpt lat="45.837287" lon="9.180358"><time>2024-05-04T07:23:16.000Z</time><ele>1277.2</ele></trkpt><trkpt lat="45.837291" lon="9.180351"><time>2024-05-04T07:23:17.000Z</time><ele>1277.4</ele></trkpt><trkpt lat="45.837292" lon="9.180344"><time>2024-05-04T07:23:18.000Z</time><ele>1277.6</ele></trkpt><trkpt lat="45.837296" lon="9.180337"><time>2024-05-04T07:23:19.000Z</time><ele>1277.8</ele></trkpt><trkpt lat="45.8373" lon="9.180329"><time>2024-05-04T07:23:20.000Z</time><ele>1278</ele></trkpt><trkpt lat="45.837302" lon="9.180326"><time>2024-05-04T07:23:21.000Z</time><ele>1278.2</ele></trkpt><trkpt lat="45.837298" lon="9.18032"><time>2024-05-04T07:23:22.000Z</time><ele>1278.4</ele></trkpt><trkpt lat="45.837295" lon="9.180316"><time>2024-05-04T07:23:23.000Z</time><ele>1278.6</ele></trkpt><trkpt lat="45.837294" lon="9.180308"><time>2024-05-04T07:23:24.000Z</time><ele>1278.8</ele></trkpt><trkpt lat="45.837292" lon="9.180304"><time>2024-05-04T07:23:25.000Z</time><ele>1279.2</ele></trkpt><trkpt lat="45.837291" lon="9.1803"><time>2024-05-04T07:23:26.000Z</time><ele>1279.4</ele></trkpt><trkpt lat="45.83729" lon="9.180295"><time>2024-05-04T07:23:27.000Z</time><ele>1279.6</ele></trkpt><trkpt lat="45.837296" lon="9.180282"><time>2024-05-04T07:23:28.000Z</time><ele>1279.8</ele></trkpt><trkpt lat="45.837294" lon="9.180272"><time>2024-05-04T07:23:29.000Z</time><ele>1279.8</ele></trkpt><trkpt lat="45.83729" lon="9.180265"><time>2024-05-04T07:23:30.000Z</time><ele>1280</ele></trkpt><trkpt lat="45.837289" lon="9.180256"><time>2024-05-04T07:23:31.000Z</time><ele>1280.2</ele></trkpt><trkpt lat="45.837292" lon="9.180244"><time>2024-05-04T07:23:32.000Z</time><ele>1280.6</ele></trkpt><trkpt lat="45.837292" lon="9.180233"><time>2024-05-04T07:23:33.000Z</time><ele>1280.6</ele></trkpt><trkpt lat="45.837292" lon="9.180224"><time>2024-05-04T07:23:34.000Z</time><ele>1280.8</ele></trkpt><trkpt lat="45.837291" lon="9.180214"><time>2024-05-04T07:23:35.000Z</time><ele>1281</ele></trkpt><trkpt lat="45.83729" lon="9.180205"><time>2024-05-04T07:23:36.000Z</time><ele>1281.2</ele></trkpt><trkpt lat="45.837287" lon="9.180194"><time>2024-05-04T07:23:37.000Z</time><ele>1281.4</ele></trkpt><trkpt lat="45.837287" lon="9.180183"><time>2024-05-04T07:23:38.000Z</time><ele>1281.6</ele></trkpt><trkpt lat="45.837286" lon="9.180171"><time>2024-05-04T07:23:39.000Z</time><ele>1281.8</ele></trkpt><trkpt lat="45.837284" lon="9.180158"><time>2024-05-04T07:23:40.000Z</time><ele>1282</ele></trkpt><trkpt lat="45.837282" lon="9.180147"><time>2024-05-04T07:23:41.000Z</time><ele>1282.2</ele></trkpt><trkpt lat="45.837282" lon="9.180135"><time>2024-05-04T07:23:42.000Z</time><ele>1282.2</ele></trkpt><trkpt lat="45.837282" lon="9.180128"><time>2024-05-04T07:23:43.000Z</time><ele>1282.2</ele></trkpt><trkpt lat="45.837283" lon="9.180117"><time>2024-05-04T07:23:44.000Z</time><ele>1282.4</ele></trkpt><trkpt lat="45.837291" lon="9.180104"><time>2024-05-04T07:23:45.000Z</time><ele>1282.6</ele></trkpt><trkpt lat="45.837297" lon="9.180091"><time>2024-05-04T07:23:46.000Z</time><ele>1282.6</ele></trkpt><trkpt lat="45.837301" lon="9.180079"><time>2024-05-04T07:23:47.000Z</time><ele>1282.6</ele></trkpt><trkpt lat="45.837304" lon="9.180066"><time>2024-05-04T07:23:48.000Z</time><ele>1282.4</ele></trkpt><trkpt lat="45.837303" lon="9.180055"><time>2024-05-04T07:23:49.000Z</time><ele>1282.4</ele></trkpt><trkpt lat="45.837301" lon="9.180043"><time>2024-05-04T07:23:50.000Z</time><ele>1282.2</ele></trkpt><trkpt lat="45.837297" lon="9.18002"><time>2024-05-04T07:23:51.000Z</time><ele>1282.2</ele></trkpt><trkpt lat="45.837293" lon="9.179996"><time>2024-05-04T07:23:52.000Z</time><ele>1282</ele></trkpt><trkpt lat="45.837284" lon="9.179987"><time>2024-05-04T07:23:53.000Z</time><ele>1282</ele></trkpt><trkpt lat="45.837276" lon="9.179979"><time>2024-05-04T07:23:54.000Z</time><ele>1281.8</ele></trkpt><trkpt lat="45.837275" lon="9.17997"><time>2024-05-04T07:23:55.000Z</time><ele>1281.6</ele></trkpt><trkpt lat="45.837277" lon="9.179956"><time>2024-05-04T07:23:56.000Z</time><ele>1281.6</ele></trkpt><trkpt lat="45.837278" lon="9.179942"><time>2024-05-04T07:23:57.000Z</time><ele>1281.6</ele></trkpt><trkpt lat="45.837273" lon="9.179931"><time>2024-05-04T07:23:58.000Z</time><ele>1281.4</ele></trkpt><trkpt lat="45.837268" lon="9.179919"><time>2024-05-04T07:23:59.000Z</time><ele>1281.2</ele></trkpt><trkpt lat="45.837262" lon="9.179909"><time>2024-05-04T07:24:00.000Z</time><ele>1281</ele></trkpt><trkpt lat="45.837258" lon="9.179899"><time>2024-05-04T07:24:01.000Z</time><ele>1281</ele></trkpt><trkpt lat="45.837253" lon="9.179889"><time>2024-05-04T07:24:02.000Z</time><ele>1281</ele></trkpt><trkpt lat="45.837252" lon="9.179875"><time>2024-05-04T07:24:03.000Z</time><ele>1280.8</ele></trkpt><trkpt lat="45.837254" lon="9.179861"><time>2024-05-04T07:24:04.000Z</time><ele>1280.8</ele></trkpt><trkpt lat="45.837253" lon="9.179847"><time>2024-05-04T07:24:05.000Z</time><ele>1280.8</ele></trkpt><trkpt lat="45.837255" lon="9.179831"><time>2024-05-04T07:24:06.000Z</time><ele>1280.8</ele></trkpt><trkpt lat="45.837247" lon="9.179817"><time>2024-05-04T07:24:07.000Z</time><ele>1281</ele></trkpt><trkpt lat="45.837239" lon="9.179805"><time>2024-05-04T07:24:08.000Z</time><ele>1281</ele></trkpt><trkpt lat="45.837234" lon="9.179791"><time>2024-05-04T07:24:09.000Z</time><ele>1281.2</ele></trkpt><trkpt lat="45.837234" lon="9.179772"><time>2024-05-04T07:24:10.000Z</time><ele>1281.4</ele></trkpt><trkpt lat="45.837231" lon="9.179761"><time>2024-05-04T07:24:11.000Z</time><ele>1281.4</ele></trkpt><trkpt lat="45.837224" lon="9.17975"><time>2024-05-04T07:24:12.000Z</time><ele>1281.6</ele></trkpt><trkpt lat="45.83722" lon="9.17974"><time>2024-05-04T07:24:13.000Z</time><ele>1281.6</ele></trkpt><trkpt lat="45.837219" lon="9.179729"><time>2024-05-04T07:24:14.000Z</time><ele>1281.8</ele></trkpt><trkpt lat="45.837222" lon="9.179716"><time>2024-05-04T07:24:15.000Z</time><ele>1281.8</ele></trkpt><trkpt lat="45.837222" lon="9.179702"><time>2024-05-04T07:24:16.000Z</time><ele>1281.8</ele></trkpt><trkpt lat="45.837224" lon="9.179688"><time>2024-05-04T07:24:17.000Z</time><ele>1282</ele></trkpt><trkpt lat="45.837225" lon="9.179673"><time>2024-05-04T07:24:18.000Z</time><ele>1282</ele></trkpt><trkpt lat="45.837221" lon="9.179656"><time>2024-05-04T07:24:19.000Z</time><ele>1282</ele></trkpt><trkpt lat="45.83722" lon="9.179649"><time>2024-05-04T07:24:20.000Z</time><ele>1282</ele></trkpt><trkpt lat="45.837222" lon="9.179644"><time>2024-05-04T07:24:21.000Z</time><ele>1282.2</ele></trkpt><trkpt lat="45.837223" lon="9.17964"><time>2024-05-04T07:24:22.000Z</time><ele>1282.2</ele></trkpt><trkpt lat="45.837223" lon="9.179638"><time>2024-05-04T07:24:23.000Z</time><ele>1282.4</ele></trkpt><trkpt lat="45.837224" lon="9.179637"><time>2024-05-04T07:24:24.000Z</time><ele>1282.4</ele></trkpt><trkpt lat="45.837225" lon="9.179637"><time>2024-05-04T07:24:25.000Z</time><ele>1282.4</ele></trkpt><trkpt lat="45.837226" lon="9.179635"><time>2024-05-04T07:24:26.000Z</time><ele>1282.4</ele></trkpt><trkpt lat="45.837227" lon="9.179627"><time>2024-05-04T07:24:27.000Z</time><ele>1282.6</ele></trkpt><trkpt lat="45.837225" lon="9.179615"><time>2024-05-04T07:24:28.000Z</time><ele>1282.6</ele></trkpt><trkpt lat="45.837218" lon="9.179608"><time>2024-05-04T07:24:29.000Z</time><ele>1282.6</ele></trkpt><trkpt lat="45.837211" lon="9.179597"><time>2024-05-04T07:24:30.000Z</time><ele>1282.6</ele></trkpt><trkpt lat="45.837206" lon="9.179589"><time>2024-05-04T07:24:31.000Z</time><ele>1282.6</ele></trkpt><trkpt lat="45.837203" lon="9.179587"><time>2024-05-04T07:24:32.000Z</time><ele>1282.6</ele></trkpt><trkpt lat="45.837197" lon="9.179587"><time>2024-05-04T07:24:33.000Z</time><ele>1282.6</ele></trkpt><trkpt lat="45.837192" lon="9.179588"><time>2024-05-04T07:24:34.000Z</time><ele>1282.8</ele></trkpt><trkpt lat="45.837182" lon="9.179595"><time>2024-05-04T07:24:35.000Z</time><ele>1282.8</ele></trkpt><trkpt lat="45.837174" lon="9.1796"><time>2024-05-04T07:24:36.000Z</time><ele>1282.8</ele></trkpt><trkpt lat="45.837172" lon="9.179602"><time>2024-05-04T07:24:37.000Z</time><ele>1282.8</ele></trkpt><trkpt lat="45.837171" lon="9.179602"><time>2024-05-04T07:24:38.000Z</time><ele>1282.8</ele></trkpt><trkpt lat="45.837172" lon="9.179601"><time>2024-05-04T07:24:39.000Z</time><ele>1282.8</ele></trkpt><trkpt lat="45.837171" lon="9.1796"><time>2024-05-04T07:24:40.000Z</time><ele>1282.8</ele></trkpt><trkpt lat="45.837171" lon="9.179599"><time>2024-05-04T07:24:41.000Z</time><ele>1282.8</ele></trkpt><trkpt lat="45.837171" lon="9.1796"><time>2024-05-04T07:24:42.000Z</time><ele>1282.8</ele></trkpt><trkpt lat="45.83717" lon="9.179601"><time>2024-05-04T07:24:43.000Z</time><ele>1282.8</ele></trkpt><trkpt lat="45.83717" lon="9.179603"><time>2024-05-04T07:24:44.000Z</time><ele>1282.8</ele></trkpt><trkpt lat="45.83717" lon="9.179604"><time>2024-05-04T07:24:45.000Z</time><ele>1282.6</ele></trkpt><trkpt lat="45.83717" lon="9.179604"><time>2024-05-04T07:24:46.000Z</time><ele>1282.6</ele></trkpt><trkpt lat="45.83717" lon="9.179604"><time>2024-05-04T07:24:47.000Z</time><ele>1282.6</ele></trkpt><trkpt lat="45.83717" lon="9.179604"><time>2024-05-04T07:24:48.000Z</time><ele>1282.6</ele></trkpt><trkpt lat="45.83717" lon="9.179604"><time>2024-05-04T07:24:49.000Z</time><ele>1282.4</ele></trkpt><trkpt lat="45.83717" lon="9.179604"><time>2024-05-04T07:24:50.000Z</time><ele>1282.4</ele></trkpt><trkpt lat="45.83717" lon="9.179604"><time>2024-05-04T07:24:51.000Z</time><ele>1282.4</ele></trkpt><trkpt lat="45.83717" lon="9.179604"><time>2024-05-04T07:24:52.000Z</time><ele>1282.4</ele></trkpt><trkpt lat="45.83717" lon="9.179604"><time>2024-05-04T07:24:53.000Z</time><ele>1282.6</ele></trkpt><trkpt lat="45.83717" lon="9.179604"><time>2024-05-04T07:24:54.000Z</time><ele>1282.6</ele></trkpt><trkpt lat="45.83717" lon="9.179604"><time>2024-05-04T07:24:55.000Z</time><ele>1282.6</ele></trkpt><trkpt lat="45.837167" lon="9.179598"><time>2024-05-04T07:24:56.000Z</time><ele>1282.6</ele></trkpt><trkpt lat="45.83716" lon="9.179581"><time>2024-05-04T07:24:57.000Z</time><ele>1282.6</ele></trkpt><trkpt lat="45.837156" lon="9.179564"><time>2024-05-04T07:24:58.000Z</time><ele>1282.6</ele></trkpt><trkpt lat="45.837154" lon="9.17955"><time>2024-05-04T07:24:59.000Z</time><ele>1282.6</ele></trkpt><trkpt lat="45.837153" lon="9.179537"><time>2024-05-04T07:25:00.000Z</time><ele>1282.8</ele></trkpt><trkpt lat="45.837152" lon="9.17953"><time>2024-05-04T07:25:01.000Z</time><ele>1282.8</ele></trkpt><trkpt lat="45.837151" lon="9.179522"><time>2024-05-04T07:25:02.000Z</time><ele>1283</ele></trkpt><trkpt lat="45.837148" lon="9.179517"><time>2024-05-04T07:25:03.000Z</time><ele>1283.2</ele></trkpt><trkpt lat="45.837146" lon="9.179512"><time>2024-05-04T07:25:04.000Z</time><ele>1283.2</ele></trkpt><trkpt lat="45.837145" lon="9.179506"><time>2024-05-04T07:25:05.000Z</time><ele>1283.2</ele></trkpt><trkpt lat="45.837146" lon="9.179505"><time>2024-05-04T07:25:06.000Z</time><ele>1283.4</ele></trkpt><trkpt lat="45.837147" lon="9.179503"><time>2024-05-04T07:25:07.000Z</time><ele>1283.4</ele></trkpt><trkpt lat="45.83715" lon="9.179502"><time>2024-05-04T07:25:08.000Z</time><ele>1283.4</ele></trkpt><trkpt lat="45.837153" lon="9.179504"><time>2024-05-04T07:25:09.000Z</time><ele>1283.4</ele></trkpt><trkpt lat="45.837156" lon="9.179504"><time>2024-05-04T07:25:10.000Z</time><ele>1283.4</ele></trkpt><trkpt lat="45.837161" lon="9.1795"><time>2024-05-04T07:25:11.000Z</time><ele>1283.6</ele></trkpt><trkpt lat="45.837164" lon="9.179495"><time>2024-05-04T07:25:12.000Z</time><ele>1283.6</ele></trkpt><trkpt lat="45.837164" lon="9.179493"><time>2024-05-04T07:25:13.000Z</time><ele>1283.8</ele></trkpt><trkpt lat="45.837164" lon="9.179492"><time>2024-05-04T07:25:14.000Z</time><ele>1284.2</ele></trkpt><trkpt lat="45.837164" lon="9.179492"><time>2024-05-04T07:25:15.000Z</time><ele>1284.4</ele></trkpt><trkpt lat="45.837164" lon="9.179492"><time>2024-05-04T07:25:16.000Z</time><ele>1284.4</ele></trkpt><trkpt lat="45.837164" lon="9.179492"><time>2024-05-04T07:25:17.000Z</time><ele>1284.6</ele></trkpt><trkpt lat="45.837164" lon="9.179492"><time>2024-05-04T07:25:18.000Z</time><ele>1284.6</ele></trkpt><trkpt lat="45.837164" lon="9.179492"><time>2024-05-04T07:25:19.000Z</time><ele>1284.6</ele></trkpt><trkpt lat="45.837164" lon="9.179492"><time>2024-05-04T07:25:20.000Z</time><ele>1284.6</ele></trkpt><trkpt lat="45.837164" lon="9.179492"><time>2024-05-04T07:25:21.000Z</time><ele>1284.6</ele></trkpt><trkpt lat="45.837164" lon="9.179493"><time>2024-05-04T07:25:22.000Z</time><ele>1284.4</ele></trkpt><trkpt lat="45.837164" lon="9.179493"><time>2024-05-04T07:25:23.000Z</time><ele>1284.4</ele></trkpt><trkpt lat="45.837164" lon="9.179493"><time>2024-05-04T07:25:24.000Z</time><ele>1284.2</ele></trkpt><trkpt lat="45.837164" lon="9.179493"><time>2024-05-04T07:25:25.000Z</time><ele>1284.2</ele></trkpt><trkpt lat="45.837164" lon="9.179493"><time>2024-05-04T07:25:26.000Z</time><ele>1284.2</ele></trkpt><trkpt lat="45.837164" lon="9.179493"><time>2024-05-04T07:25:27.000Z</time><ele>1284.2</ele></trkpt><trkpt lat="45.837164" lon="9.179493"><time>2024-05-04T07:25:28.000Z</time><ele>1284.2</ele></trkpt><trkpt lat="45.837164" lon="9.179493"><time>2024-05-04T07:25:29.000Z</time><ele>1284.2</ele></trkpt><trkpt lat="45.837164" lon="9.179493"><time>2024-05-04T07:25:30.000Z</time><ele>1284.4</ele></trkpt><trkpt lat="45.837164" lon="9.179493"><time>2024-05-04T07:25:31.000Z</time><ele>1284.4</ele></trkpt><trkpt lat="45.837164" lon="9.179493"><time>2024-05-04T07:25:32.000Z</time><ele>1284.6</ele></trkpt><trkpt lat="45.837164" lon="9.179493"><time>2024-05-04T07:25:33.000Z</time><ele>1284.6</ele></trkpt><trkpt lat="45.837164" lon="9.179493"><time>2024-05-04T07:25:34.000Z</time><ele>1284.8</ele></trkpt><trkpt lat="45.837164" lon="9.179493"><time>2024-05-04T07:25:35.000Z</time><ele>1284.8</ele></trkpt><trkpt lat="45.837164" lon="9.179493"><time>2024-05-04T07:25:36.000Z</time><ele>1284.8</ele></trkpt><trkpt lat="45.837164" lon="9.179493"><time>2024-05-04T07:25:37.000Z</time><ele>1284.4</ele></trkpt><trkpt lat="45.837164" lon="9.179492"><time>2024-05-04T07:25:38.000Z</time><ele>1284.4</ele></trkpt><trkpt lat="45.837164" lon="9.179488"><time>2024-05-04T07:25:39.000Z</time><ele>1284.2</ele></trkpt><trkpt lat="45.837164" lon="9.179482"><time>2024-05-04T07:25:40.000Z</time><ele>1284</ele></trkpt><trkpt lat="45.837164" lon="9.179475"><time>2024-05-04T07:25:41.000Z</time><ele>1284</ele></trkpt><trkpt lat="45.837164" lon="9.179467"><time>2024-05-04T07:25:42.000Z</time><ele>1284</ele></trkpt><trkpt lat="45.837164" lon="9.17946"><time>2024-05-04T07:25:43.000Z</time><ele>1283.8</ele></trkpt><trkpt lat="45.837164" lon="9.179454"><time>2024-05-04T07:25:44.000Z</time><ele>1283.8</ele></trkpt><trkpt lat="45.837164" lon="9.179448"><time>2024-05-04T07:25:45.000Z</time><ele>1283.8</ele></trkpt><trkpt lat="45.837164" lon="9.179442"><time>2024-05-04T07:25:46.000Z</time><ele>1283.8</ele></trkpt><trkpt lat="45.837164" lon="9.179434"><time>2024-05-04T07:25:47.000Z</time><ele>1284</ele></trkpt><trkpt lat="45.837163" lon="9.179429"><time>2024-05-04T07:25:48.000Z</time><ele>1284</ele></trkpt><trkpt lat="45.837161" lon="9.179424"><time>2024-05-04T07:25:49.000Z</time><ele>1284</ele></trkpt><trkpt lat="45.837157" lon="9.179417"><time>2024-05-04T07:25:50.000Z</time><ele>1284</ele></trkpt><trkpt lat="45.837152" lon="9.179411"><time>2024-05-04T07:25:51.000Z</time><ele>1284</ele></trkpt><trkpt lat="45.837148" lon="9.179404"><time>2024-05-04T07:25:52.000Z</time><ele>1284</ele></trkpt><trkpt lat="45.837147" lon="9.179398"><time>2024-05-04T07:25:53.000Z</time><ele>1284</ele></trkpt><trkpt lat="45.837146" lon="9.179393"><time>2024-05-04T07:25:54.000Z</time><ele>1284</ele></trkpt><trkpt lat="45.837146" lon="9.179391"><time>2024-05-04T07:25:55.000Z</time><ele>1284</ele></trkpt><trkpt lat="45.837146" lon="9.17939"><time>2024-05-04T07:25:56.000Z</time><ele>1284</ele></trkpt><trkpt lat="45.837146" lon="9.179389"><time>2024-05-04T07:25:57.000Z</time><ele>1284</ele></trkpt><trkpt lat="45.837145" lon="9.179388"><time>2024-05-04T07:25:58.000Z</time><ele>1284</ele></trkpt><trkpt lat="45.837145" lon="9.179387"><time>2024-05-04T07:25:59.000Z</time><ele>1284</ele></trkpt><trkpt lat="45.837145" lon="9.179385"><time>2024-05-04T07:26:00.000Z</time><ele>1283.8</ele></trkpt><trkpt lat="45.837145" lon="9.179384"><time>2024-05-04T07:26:01.000Z</time><ele>1283.8</ele></trkpt><trkpt lat="45.837144" lon="9.179384"><time>2024-05-04T07:26:02.000Z</time><ele>1283.8</ele></trkpt><trkpt lat="45.837144" lon="9.179381"><time>2024-05-04T07:26:03.000Z</time><ele>1283.8</ele></trkpt><trkpt lat="45.837143" lon="9.179378"><time>2024-05-04T07:26:04.000Z</time><ele>1283.8</ele></trkpt><trkpt lat="45.837142" lon="9.179376"><time>2024-05-04T07:26:05.000Z</time><ele>1284</ele></trkpt><trkpt lat="45.837141" lon="9.179375"><time>2024-05-04T07:26:06.000Z</time><ele>1284</ele></trkpt><trkpt lat="45.837141" lon="9.179373"><time>2024-05-04T07:26:07.000Z</time><ele>1284</ele></trkpt><trkpt lat="45.837141" lon="9.179373"><time>2024-05-04T07:26:08.000Z</time><ele>1284.4</ele></trkpt><trkpt lat="45.837141" lon="9.179372"><time>2024-05-04T07:26:09.000Z</time><ele>1284.8</ele></trkpt><trkpt lat="45.837141" lon="9.179371"><time>2024-05-04T07:26:10.000Z</time><ele>1285</ele></trkpt><trkpt lat="45.837141" lon="9.179367"><time>2024-05-04T07:26:11.000Z</time><ele>1285.2</ele></trkpt><trkpt lat="45.837141" lon="9.179363"><time>2024-05-04T07:26:12.000Z</time><ele>1285.2</ele></trkpt><trkpt lat="45.837141" lon="9.179356"><time>2024-05-04T07:26:13.000Z</time><ele>1285.4</ele></trkpt><trkpt lat="45.837141" lon="9.179348"><time>2024-05-04T07:26:14.000Z</time><ele>1285.4</ele></trkpt><trkpt lat="45.837141" lon="9.179346"><time>2024-05-04T07:26:15.000Z</time><ele>1285.4</ele></trkpt><trkpt lat="45.837141" lon="9.179345"><time>2024-05-04T07:26:16.000Z</time><ele>1285.4</ele></trkpt><trkpt lat="45.837141" lon="9.179345"><time>2024-05-04T07:26:17.000Z</time><ele>1285.4</ele></trkpt><trkpt lat="45.837141" lon="9.179345"><time>2024-05-04T07:26:18.000Z</time><ele>1285.4</ele></trkpt><trkpt lat="45.837141" lon="9.179345"><time>2024-05-04T07:26:19.000Z</time><ele>1285.2</ele></trkpt><trkpt lat="45.837142" lon="9.179345"><time>2024-05-04T07:26:20.000Z</time><ele>1285.2</ele></trkpt><trkpt lat="45.837145" lon="9.179345"><time>2024-05-04T07:26:21.000Z</time><ele>1285</ele></trkpt><trkpt lat="45.837149" lon="9.179345"><time>2024-05-04T07:26:22.000Z</time><ele>1285</ele></trkpt><trkpt lat="45.837153" lon="9.179345"><time>2024-05-04T07:26:23.000Z</time><ele>1285</ele></trkpt><trkpt lat="45.837159" lon="9.179345"><time>2024-05-04T07:26:24.000Z</time><ele>1285</ele></trkpt><trkpt lat="45.837164" lon="9.179345"><time>2024-05-04T07:26:25.000Z</time><ele>1285</ele></trkpt><trkpt lat="45.837168" lon="9.179345"><time>2024-05-04T07:26:26.000Z</time><ele>1285</ele></trkpt><trkpt lat="45.837173" lon="9.179345"><time>2024-05-04T07:26:27.000Z</time><ele>1285.2</ele></trkpt><trkpt lat="45.837178" lon="9.179345"><time>2024-05-04T07:26:28.000Z</time><ele>1285.4</ele></trkpt><trkpt lat="45.837181" lon="9.179347"><time>2024-05-04T07:26:29.000Z</time><ele>1285.4</ele></trkpt><trkpt lat="45.837184" lon="9.179349"><time>2024-05-04T07:26:30.000Z</time><ele>1285.4</ele></trkpt><trkpt lat="45.837186" lon="9.179353"><time>2024-05-04T07:26:31.000Z</time><ele>1285.4</ele></trkpt><trkpt lat="45.837187" lon="9.179356"><time>2024-05-04T07:26:32.000Z</time><ele>1285.4</ele></trkpt><trkpt lat="45.837187" lon="9.179358"><time>2024-05-04T07:26:33.000Z</time><ele>1285.2</ele></trkpt><trkpt lat="45.837187" lon="9.179362"><time>2024-05-04T07:26:34.000Z</time><ele>1285.2</ele></trkpt><trkpt lat="45.837187" lon="9.179367"><time>2024-05-04T07:26:35.000Z</time><ele>1285.2</ele></trkpt><trkpt lat="45.837187" lon="9.179368"><time>2024-05-04T07:26:36.000Z</time><ele>1285.2</ele></trkpt><trkpt lat="45.837187" lon="9.179369"><time>2024-05-04T07:26:37.000Z</time><ele>1285.2</ele></trkpt><trkpt lat="45.837187" lon="9.179369"><time>2024-05-04T07:26:38.000Z</time><ele>1285.2</ele></trkpt><trkpt lat="45.837187" lon="9.17937"><time>2024-05-04T07:26:39.000Z</time><ele>1285.2</ele></trkpt><trkpt lat="45.837187" lon="9.17937"><time>2024-05-04T07:26:40.000Z</time><ele>1285.2</ele></trkpt><trkpt lat="45.837187" lon="9.17937"><time>2024-05-04T07:26:41.000Z</time><ele>1285.2</ele></trkpt><trkpt lat="45.837187" lon="9.17937"><time>2024-05-04T07:26:42.000Z</time><ele>1285.4</ele></trkpt><trkpt lat="45.837187" lon="9.17937"><time>2024-05-04T07:26:43.000Z</time><ele>1285.4</ele></trkpt><trkpt lat="45.837187" lon="9.17937"><time>2024-05-04T07:26:44.000Z</time><ele>1285.4</ele></trkpt><trkpt lat="45.837187" lon="9.17937"><time>2024-05-04T07:26:45.000Z</time><ele>1285.4</ele></trkpt><trkpt lat="45.837187" lon="9.17937"><time>2024-05-04T07:26:46.000Z</time><ele>1285.2</ele></trkpt><trkpt lat="45.837187" lon="9.17937"><time>2024-05-04T07:26:47.000Z</time><ele>1285.2</ele></trkpt><trkpt lat="45.837187" lon="9.17937"><time>2024-05-04T07:26:48.000Z</time><ele>1285</ele></trkpt><trkpt lat="45.837185" lon="9.17937"><time>2024-05-04T07:26:49.000Z</time><ele>1285</ele></trkpt><trkpt lat="45.837182" lon="9.179369"><time>2024-05-04T07:26:50.000Z</time><ele>1284.8</ele></trkpt><trkpt lat="45.837179" lon="9.179367"><time>2024-05-04T07:26:51.000Z</time><ele>1285</ele></trkpt><trkpt lat="45.837176" lon="9.179365"><time>2024-05-04T07:26:52.000Z</time><ele>1285</ele></trkpt><trkpt lat="45.837174" lon="9.179364"><time>2024-05-04T07:26:53.000Z</time><ele>1284.8</ele></trkpt><trkpt lat="45.837173" lon="9.179363"><time>2024-05-04T07:26:54.000Z</time><ele>1285</ele></trkpt><trkpt lat="45.837173" lon="9.179363"><time>2024-05-04T07:26:55.000Z</time><ele>1285</ele></trkpt><trkpt lat="45.837173" lon="9.179362"><time>2024-05-04T07:26:56.000Z</time><ele>1285</ele></trkpt><trkpt lat="45.837173" lon="9.179362"><time>2024-05-04T07:26:57.000Z</time><ele>1285</ele></trkpt><trkpt lat="45.837173" lon="9.179362"><time>2024-05-04T07:26:58.000Z</time><ele>1285</ele></trkpt><trkpt lat="45.837173" lon="9.179362"><time>2024-05-04T07:26:59.000Z</time><ele>1285</ele></trkpt><trkpt lat="45.837173" lon="9.179362"><time>2024-05-04T07:27:00.000Z</time><ele>1285</ele></trkpt><trkpt lat="45.837173" lon="9.179362"><time>2024-05-04T07:27:01.000Z</time><ele>1285</ele></trkpt><trkpt lat="45.837173" lon="9.179362"><time>2024-05-04T07:27:02.000Z</time><ele>1285</ele></trkpt><trkpt lat="45.837173" lon="9.179362"><time>2024-05-04T07:27:03.000Z</time><ele>1285</ele></trkpt><trkpt lat="45.837173" lon="9.179362"><time>2024-05-04T07:27:04.000Z</time><ele>1285</ele></trkpt><trkpt lat="45.837173" lon="9.179362"><time>2024-05-04T07:27:05.000Z</time><ele>1285</ele></trkpt><trkpt lat="45.837172" lon="9.179362"><time>2024-05-04T07:27:06.000Z</time><ele>1285</ele></trkpt><trkpt lat="45.837172" lon="9.179362"><time>2024-05-04T07:27:07.000Z</time><ele>1285</ele></trkpt><trkpt lat="45.837172" lon="9.179362"><time>2024-05-04T07:27:08.000Z</time><ele>1284.8</ele></trkpt><trkpt lat="45.837172" lon="9.179362"><time>2024-05-04T07:27:09.000Z</time><ele>1284.8</ele></trkpt><trkpt lat="45.837172" lon="9.179363"><time>2024-05-04T07:27:10.000Z</time><ele>1284.8</ele></trkpt><trkpt lat="45.837173" lon="9.179363"><time>2024-05-04T07:27:11.000Z</time><ele>1284.8</ele></trkpt><trkpt lat="45.837173" lon="9.179363"><time>2024-05-04T07:27:12.000Z</time><ele>1284.8</ele></trkpt><trkpt lat="45.837173" lon="9.179363"><time>2024-05-04T07:27:13.000Z</time><ele>1284.8</ele></trkpt><trkpt lat="45.837173" lon="9.179363"><time>2024-05-04T07:27:14.000Z</time><ele>1284.8</ele></trkpt><trkpt lat="45.837174" lon="9.179363"><time>2024-05-04T07:27:15.000Z</time><ele>1284.8</ele></trkpt><trkpt lat="45.837174" lon="9.179363"><time>2024-05-04T07:27:16.000Z</time><ele>1284.8</ele></trkpt><trkpt lat="45.837175" lon="9.179363"><time>2024-05-04T07:27:17.000Z</time><ele>1284.8</ele></trkpt><trkpt lat="45.837175" lon="9.179363"><time>2024-05-04T07:27:18.000Z</time><ele>1284.8</ele></trkpt><trkpt lat="45.837175" lon="9.179363"><time>2024-05-04T07:27:19.000Z</time><ele>1284.8</ele></trkpt><trkpt lat="45.837175" lon="9.179363"><time>2024-05-04T07:27:20.000Z</time><ele>1284.8</ele></trkpt><trkpt lat="45.837176" lon="9.179363"><time>2024-05-04T07:27:21.000Z</time><ele>1284.8</ele></trkpt><trkpt lat="45.837176" lon="9.179363"><time>2024-05-04T07:27:22.000Z</time><ele>1284.8</ele></trkpt><trkpt lat="45.837176" lon="9.179363"><time>2024-05-04T07:27:23.000Z</time><ele>1284.8</ele></trkpt><trkpt lat="45.837176" lon="9.179363"><time>2024-05-04T07:27:24.000Z</time><ele>1284.8</ele></trkpt><trkpt lat="45.837176" lon="9.179362"><time>2024-05-04T07:27:25.000Z</time><ele>1284.8</ele></trkpt><trkpt lat="45.837176" lon="9.179362"><time>2024-05-04T07:27:26.000Z</time><ele>1284.8</ele></trkpt><trkpt lat="45.837176" lon="9.179362"><time>2024-05-04T07:27:27.000Z</time><ele>1284.8</ele></trkpt><trkpt lat="45.837176" lon="9.179362"><time>2024-05-04T07:27:28.000Z</time><ele>1284.8</ele></trkpt><trkpt lat="45.837177" lon="9.179362"><time>2024-05-04T07:27:29.000Z</time><ele>1284.8</ele></trkpt><trkpt lat="45.837177" lon="9.179361"><time>2024-05-04T07:27:30.000Z</time><ele>1284.8</ele></trkpt><trkpt lat="45.837177" lon="9.179361"><time>2024-05-04T07:27:31.000Z</time><ele>1284.8</ele></trkpt><trkpt lat="45.837178" lon="9.179361"><time>2024-05-04T07:27:32.000Z</time><ele>1284.8</ele></trkpt><trkpt lat="45.837178" lon="9.17936"><time>2024-05-04T07:27:33.000Z</time><ele>1284.8</ele></trkpt><trkpt lat="45.837178" lon="9.17936"><time>2024-05-04T07:27:34.000Z</time><ele>1284.8</ele></trkpt><trkpt lat="45.837179" lon="9.179359"><time>2024-05-04T07:27:35.000Z</time><ele>1284.8</ele></trkpt><trkpt lat="45.837179" lon="9.179359"><time>2024-05-04T07:27:36.000Z</time><ele>1284.8</ele></trkpt><trkpt lat="45.83718" lon="9.179358"><time>2024-05-04T07:27:37.000Z</time><ele>1284.8</ele></trkpt><trkpt lat="45.83718" lon="9.179358"><time>2024-05-04T07:27:38.000Z</time><ele>1284.8</ele></trkpt><trkpt lat="45.837181" lon="9.179358"><time>2024-05-04T07:27:39.000Z</time><ele>1284.8</ele></trkpt><trkpt lat="45.837181" lon="9.179358"><time>2024-05-04T07:27:40.000Z</time><ele>1284.8</ele></trkpt><trkpt lat="45.837181" lon="9.179358"><time>2024-05-04T07:27:41.000Z</time><ele>1284.8</ele></trkpt><trkpt lat="45.837182" lon="9.179357"><time>2024-05-04T07:27:42.000Z</time><ele>1284.8</ele></trkpt><trkpt lat="45.837182" lon="9.179357"><time>2024-05-04T07:27:43.000Z</time><ele>1284.8</ele></trkpt><trkpt lat="45.837182" lon="9.179357"><time>2024-05-04T07:27:44.000Z</time><ele>1284.8</ele></trkpt><trkpt lat="45.837182" lon="9.179357"><time>2024-05-04T07:27:45.000Z</time><ele>1284.8</ele></trkpt><trkpt lat="45.837183" lon="9.179357"><time>2024-05-04T07:27:46.000Z</time><ele>1284.8</ele></trkpt><trkpt lat="45.837183" lon="9.179357"><time>2024-05-04T07:27:47.000Z</time><ele>1284.8</ele></trkpt><trkpt lat="45.837183" lon="9.179356"><time>2024-05-04T07:27:48.000Z</time><ele>1284.8</ele></trkpt><trkpt lat="45.837184" lon="9.179356"><time>2024-05-04T07:27:49.000Z</time><ele>1284.8</ele></trkpt><trkpt lat="45.837184" lon="9.179356"><time>2024-05-04T07:27:50.000Z</time><ele>1284.8</ele></trkpt><trkpt lat="45.837185" lon="9.179356"><time>2024-05-04T07:27:51.000Z</time><ele>1284.8</ele></trkpt><trkpt lat="45.837185" lon="9.179355"><time>2024-05-04T07:27:52.000Z</time><ele>1284.8</ele></trkpt><trkpt lat="45.837185" lon="9.179355"><time>2024-05-04T07:27:53.000Z</time><ele>1284.8</ele></trkpt><trkpt lat="45.837185" lon="9.179355"><time>2024-05-04T07:27:54.000Z</time><ele>1284.8</ele></trkpt><trkpt lat="45.837185" lon="9.179355"><time>2024-05-04T07:27:55.000Z</time><ele>1285</ele></trkpt><trkpt lat="45.837186" lon="9.179355"><time>2024-05-04T07:27:56.000Z</time><ele>1285</ele></trkpt><trkpt lat="45.837186" lon="9.179355"><time>2024-05-04T07:27:57.000Z</time><ele>1285</ele></trkpt><trkpt lat="45.837186" lon="9.179355"><time>2024-05-04T07:27:58.000Z</time><ele>1285</ele></trkpt><trkpt lat="45.837186" lon="9.179355"><time>2024-05-04T07:27:59.000Z</time><ele>1285</ele></trkpt><trkpt lat="45.837186" lon="9.179354"><time>2024-05-04T07:28:00.000Z</time><ele>1285</ele></trkpt><trkpt lat="45.837186" lon="9.179354"><time>2024-05-04T07:28:01.000Z</time><ele>1285</ele></trkpt><trkpt lat="45.837186" lon="9.179354"><time>2024-05-04T07:28:02.000Z</time><ele>1285</ele></trkpt><trkpt lat="45.837186" lon="9.179354"><time>2024-05-04T07:28:03.000Z</time><ele>1285</ele></trkpt><trkpt lat="45.837186" lon="9.179354"><time>2024-05-04T07:28:04.000Z</time><ele>1285</ele></trkpt><trkpt lat="45.837186" lon="9.179353"><time>2024-05-04T07:28:05.000Z</time><ele>1285</ele></trkpt><trkpt lat="45.837186" lon="9.179353"><time>2024-05-04T07:28:06.000Z</time><ele>1285</ele></trkpt><trkpt lat="45.837186" lon="9.179353"><time>2024-05-04T07:28:07.000Z</time><ele>1285</ele></trkpt><trkpt lat="45.837186" lon="9.179353"><time>2024-05-04T07:28:08.000Z</time><ele>1285</ele></trkpt><trkpt lat="45.837186" lon="9.179352"><time>2024-05-04T07:28:09.000Z</time><ele>1285</ele></trkpt><trkpt lat="45.837186" lon="9.179352"><time>2024-05-04T07:28:10.000Z</time><ele>1285</ele></trkpt><trkpt lat="45.837186" lon="9.179352"><time>2024-05-04T07:28:11.000Z</time><ele>1285</ele></trkpt><trkpt lat="45.837186" lon="9.179352"><time>2024-05-04T07:28:12.000Z</time><ele>1285</ele></trkpt><trkpt lat="45.837186" lon="9.179352"><time>2024-05-04T07:28:13.000Z</time><ele>1285</ele></trkpt><trkpt lat="45.837185" lon="9.179352"><time>2024-05-04T07:28:14.000Z</time><ele>1285</ele></trkpt><trkpt lat="45.837185" lon="9.179352"><time>2024-05-04T07:28:15.000Z</time><ele>1285</ele></trkpt><trkpt lat="45.837185" lon="9.179352"><time>2024-05-04T07:28:16.000Z</time><ele>1285</ele></trkpt><trkpt lat="45.837184" lon="9.179352"><time>2024-05-04T07:28:17.000Z</time><ele>1285</ele></trkpt><trkpt lat="45.837184" lon="9.179352"><time>2024-05-04T07:28:18.000Z</time><ele>1285</ele></trkpt><trkpt lat="45.837184" lon="9.179352"><time>2024-05-04T07:28:19.000Z</time><ele>1285</ele></trkpt><trkpt lat="45.837183" lon="9.179351"><time>2024-05-04T07:28:20.000Z</time><ele>1285</ele></trkpt><trkpt lat="45.837183" lon="9.179351"><time>2024-05-04T07:28:21.000Z</time><ele>1285</ele></trkpt><trkpt lat="45.837183" lon="9.179351"><time>2024-05-04T07:28:22.000Z</time><ele>1285</ele></trkpt><trkpt lat="45.837182" lon="9.179351"><time>2024-05-04T07:28:23.000Z</time><ele>1285</ele></trkpt><trkpt lat="45.837181" lon="9.179351"><time>2024-05-04T07:28:24.000Z</time><ele>1285</ele></trkpt><trkpt lat="45.837181" lon="9.179351"><time>2024-05-04T07:28:25.000Z</time><ele>1285</ele></trkpt><trkpt lat="45.83718" lon="9.179351"><time>2024-05-04T07:28:26.000Z</time><ele>1285</ele></trkpt><trkpt lat="45.83718" lon="9.179351"><time>2024-05-04T07:28:27.000Z</time><ele>1285</ele></trkpt><trkpt lat="45.83718" lon="9.179351"><time>2024-05-04T07:28:28.000Z</time><ele>1285</ele></trkpt><trkpt lat="45.837179" lon="9.179351"><time>2024-05-04T07:28:29.000Z</time><ele>1285</ele></trkpt><trkpt lat="45.837179" lon="9.179351"><time>2024-05-04T07:28:30.000Z</time><ele>1285</ele></trkpt><trkpt lat="45.837179" lon="9.179351"><time>2024-05-04T07:28:31.000Z</time><ele>1285</ele></trkpt><trkpt lat="45.837178" lon="9.179351"><time>2024-05-04T07:28:32.000Z</time><ele>1285</ele></trkpt><trkpt lat="45.837178" lon="9.179351"><time>2024-05-04T07:28:33.000Z</time><ele>1285</ele></trkpt><trkpt lat="45.837178" lon="9.179351"><time>2024-05-04T07:28:34.000Z</time><ele>1285</ele></trkpt><trkpt lat="45.837178" lon="9.179351"><time>2024-05-04T07:28:35.000Z</time><ele>1285</ele></trkpt><trkpt lat="45.837178" lon="9.179351"><time>2024-05-04T07:28:36.000Z</time><ele>1285</ele></trkpt><trkpt lat="45.837178" lon="9.179351"><time>2024-05-04T07:28:37.000Z</time><ele>1285</ele></trkpt><trkpt lat="45.837178" lon="9.179351"><time>2024-05-04T07:28:38.000Z</time><ele>1285</ele></trkpt><trkpt lat="45.837178" lon="9.179351"><time>2024-05-04T07:28:39.000Z</time><ele>1285</ele></trkpt><trkpt lat="45.837178" lon="9.179351"><time>2024-05-04T07:28:40.000Z</time><ele>1285</ele></trkpt><trkpt lat="45.837178" lon="9.179351"><time>2024-05-04T07:28:41.000Z</time><ele>1285</ele></trkpt><trkpt lat="45.837179" lon="9.179351"><time>2024-05-04T07:28:42.000Z</time><ele>1285</ele></trkpt><trkpt lat="45.837179" lon="9.179351"><time>2024-05-04T07:28:43.000Z</time><ele>1285</ele></trkpt><trkpt lat="45.837179" lon="9.179351"><time>2024-05-04T07:28:44.000Z</time><ele>1285</ele></trkpt><trkpt lat="45.837179" lon="9.179351"><time>2024-05-04T07:28:45.000Z</time><ele>1285</ele></trkpt><trkpt lat="45.837179" lon="9.179351"><time>2024-05-04T07:28:46.000Z</time><ele>1285</ele></trkpt><trkpt lat="45.837179" lon="9.179351"><time>2024-05-04T07:28:47.000Z</time><ele>1285</ele></trkpt><trkpt lat="45.837179" lon="9.179351"><time>2024-05-04T07:28:48.000Z</time><ele>1285</ele></trkpt><trkpt lat="45.837179" lon="9.179351"><time>2024-05-04T07:28:49.000Z</time><ele>1285</ele></trkpt><trkpt lat="45.837179" lon="9.179351"><time>2024-05-04T07:28:50.000Z</time><ele>1285</ele></trkpt><trkpt lat="45.837179" lon="9.179351"><time>2024-05-04T07:28:51.000Z</time><ele>1285</ele></trkpt><trkpt lat="45.837179" lon="9.179351"><time>2024-05-04T07:28:52.000Z</time><ele>1285</ele></trkpt><trkpt lat="45.837179" lon="9.179351"><time>2024-05-04T07:28:53.000Z</time><ele>1285</ele></trkpt><trkpt lat="45.837179" lon="9.179351"><time>2024-05-04T07:28:54.000Z</time><ele>1285</ele></trkpt><trkpt lat="45.837179" lon="9.179351"><time>2024-05-04T07:28:55.000Z</time><ele>1285</ele></trkpt><trkpt lat="45.837179" lon="9.179351"><time>2024-05-04T07:28:56.000Z</time><ele>1285</ele></trkpt><trkpt lat="45.837178" lon="9.179351"><time>2024-05-04T07:28:57.000Z</time><ele>1285</ele></trkpt><trkpt lat="45.837178" lon="9.17935"><time>2024-05-04T07:28:58.000Z</time><ele>1285</ele></trkpt><trkpt lat="45.837178" lon="9.17935"><time>2024-05-04T07:28:59.000Z</time><ele>1285</ele></trkpt><trkpt lat="45.837179" lon="9.17935"><time>2024-05-04T07:29:00.000Z</time><ele>1285</ele></trkpt><trkpt lat="45.837179" lon="9.17935"><time>2024-05-04T07:29:01.000Z</time><ele>1285</ele></trkpt><trkpt lat="45.837179" lon="9.17935"><time>2024-05-04T07:29:02.000Z</time><ele>1285</ele></trkpt><trkpt lat="45.837179" lon="9.17935"><time>2024-05-04T07:29:03.000Z</time><ele>1285</ele></trkpt><trkpt lat="45.837179" lon="9.17935"><time>2024-05-04T07:29:04.000Z</time><ele>1285</ele></trkpt><trkpt lat="45.837179" lon="9.17935"><time>2024-05-04T07:29:05.000Z</time><ele>1285</ele></trkpt><trkpt lat="45.837179" lon="9.17935"><time>2024-05-04T07:29:06.000Z</time><ele>1285</ele></trkpt><trkpt lat="45.837179" lon="9.17935"><time>2024-05-04T07:29:07.000Z</time><ele>1285</ele></trkpt><trkpt lat="45.837179" lon="9.17935"><time>2024-05-04T07:29:08.000Z</time><ele>1285</ele></trkpt><trkpt lat="45.837179" lon="9.17935"><time>2024-05-04T07:29:09.000Z</time><ele>1285</ele></trkpt><trkpt lat="45.837179" lon="9.17935"><time>2024-05-04T07:29:10.000Z</time><ele>1285</ele></trkpt><trkpt lat="45.837179" lon="9.17935"><time>2024-05-04T07:29:11.000Z</time><ele>1285</ele></trkpt><trkpt lat="45.837179" lon="9.17935"><time>2024-05-04T07:29:12.000Z</time><ele>1285</ele></trkpt><trkpt lat="45.837179" lon="9.17935"><time>2024-05-04T07:29:13.000Z</time><ele>1285</ele></trkpt><trkpt lat="45.837179" lon="9.17935"><time>2024-05-04T07:29:14.000Z</time><ele>1285</ele></trkpt><trkpt lat="45.837179" lon="9.17935"><time>2024-05-04T07:29:15.000Z</time><ele>1285</ele></trkpt><trkpt lat="45.837179" lon="9.17935"><time>2024-05-04T07:29:16.000Z</time><ele>1285</ele></trkpt><trkpt lat="45.837179" lon="9.17935"><time>2024-05-04T07:29:17.000Z</time><ele>1285</ele></trkpt><trkpt lat="45.837179" lon="9.17935"><time>2024-05-04T07:29:18.000Z</time><ele>1285</ele></trkpt><trkpt lat="45.837179" lon="9.17935"><time>2024-05-04T07:29:19.000Z</time><ele>1285</ele></trkpt><trkpt lat="45.837179" lon="9.17935"><time>2024-05-04T07:29:20.000Z</time><ele>1285</ele></trkpt><trkpt lat="45.837179" lon="9.17935"><time>2024-05-04T07:29:21.000Z</time><ele>1285</ele></trkpt><trkpt lat="45.837179" lon="9.179351"><time>2024-05-04T07:29:22.000Z</time><ele>1285</ele></trkpt><trkpt lat="45.837179" lon="9.179351"><time>2024-05-04T07:29:23.000Z</time><ele>1285</ele></trkpt><trkpt lat="45.837179" lon="9.179351"><time>2024-05-04T07:29:24.000Z</time><ele>1285</ele></trkpt><trkpt lat="45.837179" lon="9.179351"><time>2024-05-04T07:29:25.000Z</time><ele>1285</ele></trkpt><trkpt lat="45.837179" lon="9.179351"><time>2024-05-04T07:29:26.000Z</time><ele>1285</ele></trkpt><trkpt lat="45.837179" lon="9.179351"><time>2024-05-04T07:29:27.000Z</time><ele>1285</ele></trkpt><trkpt lat="45.837179" lon="9.179351"><time>2024-05-04T07:29:28.000Z</time><ele>1285</ele></trkpt><trkpt lat="45.837179" lon="9.179351"><time>2024-05-04T07:29:29.000Z</time><ele>1285</ele></trkpt><trkpt lat="45.837179" lon="9.179351"><time>2024-05-04T07:29:30.000Z</time><ele>1285</ele></trkpt><trkpt lat="45.837179" lon="9.179351"><time>2024-05-04T07:29:31.000Z</time><ele>1285</ele></trkpt><trkpt lat="45.837179" lon="9.179351"><time>2024-05-04T07:29:32.000Z</time><ele>1285</ele></trkpt><trkpt lat="45.837179" lon="9.179351"><time>2024-05-04T07:29:33.000Z</time><ele>1285</ele></trkpt><trkpt lat="45.837179" lon="9.179351"><time>2024-05-04T07:29:34.000Z</time><ele>1285</ele></trkpt><trkpt lat="45.837179" lon="9.179351"><time>2024-05-04T07:29:35.000Z</time><ele>1285</ele></trkpt><trkpt lat="45.837179" lon="9.179351"><time>2024-05-04T07:29:36.000Z</time><ele>1285</ele></trkpt><trkpt lat="45.837179" lon="9.179351"><time>2024-05-04T07:29:37.000Z</time><ele>1285</ele></trkpt><trkpt lat="45.837179" lon="9.179351"><time>2024-05-04T07:29:38.000Z</time><ele>1285</ele></trkpt><trkpt lat="45.837179" lon="9.179351"><time>2024-05-04T07:29:39.000Z</time><ele>1285</ele></trkpt><trkpt lat="45.837179" lon="9.179351"><time>2024-05-04T07:29:40.000Z</time><ele>1285</ele></trkpt><trkpt lat="45.837179" lon="9.179351"><time>2024-05-04T07:29:41.000Z</time><ele>1285</ele></trkpt><trkpt lat="45.837179" lon="9.179351"><time>2024-05-04T07:29:42.000Z</time><ele>1285</ele></trkpt><trkpt lat="45.837179" lon="9.179351"><time>2024-05-04T07:29:43.000Z</time><ele>1285</ele></trkpt><trkpt lat="45.837179" lon="9.179351"><time>2024-05-04T07:29:44.000Z</time><ele>1285</ele></trkpt><trkpt lat="45.837179" lon="9.179351"><time>2024-05-04T07:29:45.000Z</time><ele>1285</ele></trkpt><trkpt lat="45.837179" lon="9.179351"><time>2024-05-04T07:29:46.000Z</time><ele>1285</ele></trkpt><trkpt lat="45.837179" lon="9.179351"><time>2024-05-04T07:29:47.000Z</time><ele>1285</ele></trkpt><trkpt lat="45.837179" lon="9.179351"><time>2024-05-04T07:29:48.000Z</time><ele>1285</ele></trkpt><trkpt lat="45.837179" lon="9.179351"><time>2024-05-04T07:29:49.000Z</time><ele>1285</ele></trkpt><trkpt lat="45.837179" lon="9.179351"><time>2024-05-04T07:29:50.000Z</time><ele>1285</ele></trkpt><trkpt lat="45.83718" lon="9.179351"><time>2024-05-04T07:29:51.000Z</time><ele>1285</ele></trkpt><trkpt lat="45.83718" lon="9.179351"><time>2024-05-04T07:29:52.000Z</time><ele>1285</ele></trkpt><trkpt lat="45.83718" lon="9.179351"><time>2024-05-04T07:29:53.000Z</time><ele>1285</ele></trkpt><trkpt lat="45.837181" lon="9.179351"><time>2024-05-04T07:29:54.000Z</time><ele>1285</ele></trkpt><trkpt lat="45.837181" lon="9.179351"><time>2024-05-04T07:29:55.000Z</time><ele>1285</ele></trkpt><trkpt lat="45.837181" lon="9.179351"><time>2024-05-04T07:29:56.000Z</time><ele>1285</ele></trkpt><trkpt lat="45.837181" lon="9.179351"><time>2024-05-04T07:29:57.000Z</time><ele>1285</ele></trkpt><trkpt lat="45.837181" lon="9.179352"><time>2024-05-04T07:29:58.000Z</time><ele>1285</ele></trkpt><trkpt lat="45.837182" lon="9.179352"><time>2024-05-04T07:29:59.000Z</time><ele>1285</ele></trkpt><trkpt lat="45.837182" lon="9.179352"><time>2024-05-04T07:30:00.000Z</time><ele>1285</ele></trkpt><trkpt lat="45.837182" lon="9.179352"><time>2024-05-04T07:30:01.000Z</time><ele>1285</ele></trkpt><trkpt lat="45.837182" lon="9.179352"><time>2024-05-04T07:30:02.000Z</time><ele>1285</ele></trkpt><trkpt lat="45.837182" lon="9.179352"><time>2024-05-04T07:30:03.000Z</time><ele>1285</ele></trkpt><trkpt lat="45.837183" lon="9.179352"><time>2024-05-04T07:30:04.000Z</time><ele>1285</ele></trkpt><trkpt lat="45.837183" lon="9.179352"><time>2024-05-04T07:30:05.000Z</time><ele>1285</ele></trkpt><trkpt lat="45.837183" lon="9.179353"><time>2024-05-04T07:30:06.000Z</time><ele>1285</ele></trkpt><trkpt lat="45.837183" lon="9.179353"><time>2024-05-04T07:30:07.000Z</time><ele>1285</ele></trkpt><trkpt lat="45.837183" lon="9.179353"><time>2024-05-04T07:30:08.000Z</time><ele>1285</ele></trkpt><trkpt lat="45.837184" lon="9.179353"><time>2024-05-04T07:30:09.000Z</time><ele>1285</ele></trkpt><trkpt lat="45.837183" lon="9.179353"><time>2024-05-04T07:30:10.000Z</time><ele>1285</ele></trkpt><trkpt lat="45.837183" lon="9.179353"><time>2024-05-04T07:30:11.000Z</time><ele>1285</ele></trkpt><trkpt lat="45.837183" lon="9.179353"><time>2024-05-04T07:30:12.000Z</time><ele>1285</ele></trkpt><trkpt lat="45.837182" lon="9.179353"><time>2024-05-04T07:30:13.000Z</time><ele>1285</ele></trkpt><trkpt lat="45.837182" lon="9.179353"><time>2024-05-04T07:30:14.000Z</time><ele>1285</ele></trkpt><trkpt lat="45.837181" lon="9.179353"><time>2024-05-04T07:30:15.000Z</time><ele>1285</ele></trkpt><trkpt lat="45.83718" lon="9.179353"><time>2024-05-04T07:30:16.000Z</time><ele>1285</ele></trkpt><trkpt lat="45.837179" lon="9.179353"><time>2024-05-04T07:30:17.000Z</time><ele>1285</ele></trkpt><trkpt lat="45.837179" lon="9.179353"><time>2024-05-04T07:30:18.000Z</time><ele>1285</ele></trkpt><trkpt lat="45.837179" lon="9.179353"><time>2024-05-04T07:30:19.000Z</time><ele>1285</ele></trkpt><trkpt lat="45.837179" lon="9.179353"><time>2024-05-04T07:30:20.000Z</time><ele>1285</ele></trkpt><trkpt lat="45.837179" lon="9.179353"><time>2024-05-04T07:30:21.000Z</time><ele>1285</ele></trkpt><trkpt lat="45.837179" lon="9.179353"><time>2024-05-04T07:30:22.000Z</time><ele>1285</ele></trkpt><trkpt lat="45.837179" lon="9.179353"><time>2024-05-04T07:30:23.000Z</time><ele>1285</ele></trkpt><trkpt lat="45.837179" lon="9.179353"><time>2024-05-04T07:30:24.000Z</time><ele>1285</ele></trkpt><trkpt lat="45.837179" lon="9.179353"><time>2024-05-04T07:30:25.000Z</time><ele>1285</ele></trkpt><trkpt lat="45.837179" lon="9.179353"><time>2024-05-04T07:30:26.000Z</time><ele>1285</ele></trkpt><trkpt lat="45.837179" lon="9.179353"><time>2024-05-04T07:30:27.000Z</time><ele>1285</ele></trkpt><trkpt lat="45.837179" lon="9.179353"><time>2024-05-04T07:30:28.000Z</time><ele>1285</ele></trkpt><trkpt lat="45.837179" lon="9.179353"><time>2024-05-04T07:30:29.000Z</time><ele>1285</ele></trkpt><trkpt lat="45.837179" lon="9.179353"><time>2024-05-04T07:30:30.000Z</time><ele>1285</ele></trkpt><trkpt lat="45.837178" lon="9.179353"><time>2024-05-04T07:30:31.000Z</time><ele>1285</ele></trkpt><trkpt lat="45.837178" lon="9.179353"><time>2024-05-04T07:30:32.000Z</time><ele>1285</ele></trkpt><trkpt lat="45.837178" lon="9.179354"><time>2024-05-04T07:30:33.000Z</time><ele>1285</ele></trkpt><trkpt lat="45.837178" lon="9.179354"><time>2024-05-04T07:30:34.000Z</time><ele>1285</ele></trkpt><trkpt lat="45.837178" lon="9.179354"><time>2024-05-04T07:30:35.000Z</time><ele>1285</ele></trkpt><trkpt lat="45.837178" lon="9.179354"><time>2024-05-04T07:30:36.000Z</time><ele>1285</ele></trkpt><trkpt lat="45.837178" lon="9.179354"><time>2024-05-04T07:30:37.000Z</time><ele>1285</ele></trkpt><trkpt lat="45.837178" lon="9.179354"><time>2024-05-04T07:30:38.000Z</time><ele>1285</ele></trkpt><trkpt lat="45.837177" lon="9.179354"><time>2024-05-04T07:30:39.000Z</time><ele>1285</ele></trkpt><trkpt lat="45.837177" lon="9.179354"><time>2024-05-04T07:30:40.000Z</time><ele>1285</ele></trkpt><trkpt lat="45.837177" lon="9.179354"><time>2024-05-04T07:30:41.000Z</time><ele>1285</ele></trkpt><trkpt lat="45.837177" lon="9.179354"><time>2024-05-04T07:30:42.000Z</time><ele>1285</ele></trkpt><trkpt lat="45.837177" lon="9.179354"><time>2024-05-04T07:30:43.000Z</time><ele>1285</ele></trkpt><trkpt lat="45.837177" lon="9.179354"><time>2024-05-04T07:30:44.000Z</time><ele>1285</ele></trkpt><trkpt lat="45.837177" lon="9.179354"><time>2024-05-04T07:30:45.000Z</time><ele>1285</ele></trkpt><trkpt lat="45.837177" lon="9.179354"><time>2024-05-04T07:30:46.000Z</time><ele>1285</ele></trkpt><trkpt lat="45.837177" lon="9.179354"><time>2024-05-04T07:30:47.000Z</time><ele>1285</ele></trkpt><trkpt lat="45.837177" lon="9.179354"><time>2024-05-04T07:30:48.000Z</time><ele>1285</ele></trkpt><trkpt lat="45.837177" lon="9.179354"><time>2024-05-04T07:30:49.000Z</time><ele>1285</ele></trkpt><trkpt lat="45.837177" lon="9.179354"><time>2024-05-04T07:30:50.000Z</time><ele>1285</ele></trkpt><trkpt lat="45.837177" lon="9.179354"><time>2024-05-04T07:30:51.000Z</time><ele>1285</ele></trkpt><trkpt lat="45.837177" lon="9.179354"><time>2024-05-04T07:30:52.000Z</time><ele>1285</ele></trkpt><trkpt lat="45.837177" lon="9.179354"><time>2024-05-04T07:30:53.000Z</time><ele>1285</ele></trkpt><trkpt lat="45.837177" lon="9.179354"><time>2024-05-04T07:30:54.000Z</time><ele>1285</ele></trkpt><trkpt lat="45.837177" lon="9.179354"><time>2024-05-04T07:30:55.000Z</time><ele>1285</ele></trkpt><trkpt lat="45.837177" lon="9.179354"><time>2024-05-04T07:30:56.000Z</time><ele>1285</ele></trkpt><trkpt lat="45.837177" lon="9.179354"><time>2024-05-04T07:30:57.000Z</time><ele>1285</ele></trkpt><trkpt lat="45.837177" lon="9.179354"><time>2024-05-04T07:30:58.000Z</time><ele>1285</ele></trkpt><trkpt lat="45.837177" lon="9.179354"><time>2024-05-04T07:30:59.000Z</time><ele>1285</ele></trkpt><trkpt lat="45.837177" lon="9.179354"><time>2024-05-04T07:31:00.000Z</time><ele>1285</ele></trkpt><trkpt lat="45.837177" lon="9.179354"><time>2024-05-04T07:31:01.000Z</time><ele>1285</ele></trkpt><trkpt lat="45.837177" lon="9.179354"><time>2024-05-04T07:31:02.000Z</time><ele>1285</ele></trkpt><trkpt lat="45.837177" lon="9.179354"><time>2024-05-04T07:31:03.000Z</time><ele>1285</ele></trkpt><trkpt lat="45.837177" lon="9.179354"><time>2024-05-04T07:31:04.000Z</time><ele>1285</ele></trkpt><trkpt lat="45.837177" lon="9.179354"><time>2024-05-04T07:31:05.000Z</time><ele>1285</ele></trkpt><trkpt lat="45.837177" lon="9.179354"><time>2024-05-04T07:31:06.000Z</time><ele>1285</ele></trkpt><trkpt lat="45.837177" lon="9.179354"><time>2024-05-04T07:31:07.000Z</time><ele>1285</ele></trkpt><trkpt lat="45.837177" lon="9.179354"><time>2024-05-04T07:31:08.000Z</time><ele>1285</ele></trkpt><trkpt lat="45.837177" lon="9.179354"><time>2024-05-04T07:31:09.000Z</time><ele>1285</ele></trkpt><trkpt lat="45.837178" lon="9.179354"><time>2024-05-04T07:31:10.000Z</time><ele>1285</ele></trkpt><trkpt lat="45.837178" lon="9.179354"><time>2024-05-04T07:31:11.000Z</time><ele>1285</ele></trkpt><trkpt lat="45.837178" lon="9.179354"><time>2024-05-04T07:31:12.000Z</time><ele>1285</ele></trkpt><trkpt lat="45.837178" lon="9.179354"><time>2024-05-04T07:31:13.000Z</time><ele>1285</ele></trkpt><trkpt lat="45.837177" lon="9.179354"><time>2024-05-04T07:31:14.000Z</time><ele>1285</ele></trkpt><trkpt lat="45.837177" lon="9.179354"><time>2024-05-04T07:31:15.000Z</time><ele>1285</ele></trkpt><trkpt lat="45.837177" lon="9.179354"><time>2024-05-04T07:31:16.000Z</time><ele>1285</ele></trkpt><trkpt lat="45.837177" lon="9.179354"><time>2024-05-04T07:31:17.000Z</time><ele>1285</ele></trkpt><trkpt lat="45.837177" lon="9.179354"><time>2024-05-04T07:31:18.000Z</time><ele>1285</ele></trkpt><trkpt lat="45.837177" lon="9.179354"><time>2024-05-04T07:31:19.000Z</time><ele>1285</ele></trkpt><trkpt lat="45.837177" lon="9.179354"><time>2024-05-04T07:31:20.000Z</time><ele>1285</ele></trkpt><trkpt lat="45.837177" lon="9.179354"><time>2024-05-04T07:31:21.000Z</time><ele>1285</ele></trkpt><trkpt lat="45.837177" lon="9.179354"><time>2024-05-04T07:31:22.000Z</time><ele>1285</ele></trkpt><trkpt lat="45.837177" lon="9.179354"><time>2024-05-04T07:31:23.000Z</time><ele>1285</ele></trkpt><trkpt lat="45.837177" lon="9.179354"><time>2024-05-04T07:31:24.000Z</time><ele>1285</ele></trkpt><trkpt lat="45.837177" lon="9.179354"><time>2024-05-04T07:31:25.000Z</time><ele>1285</ele></trkpt><trkpt lat="45.837177" lon="9.179354"><time>2024-05-04T07:31:26.000Z</time><ele>1285</ele></trkpt><trkpt lat="45.837177" lon="9.179354"><time>2024-05-04T07:31:27.000Z</time><ele>1285</ele></trkpt><trkpt lat="45.837177" lon="9.179354"><time>2024-05-04T07:31:28.000Z</time><ele>1285</ele></trkpt><trkpt lat="45.837177" lon="9.179354"><time>2024-05-04T07:31:29.000Z</time><ele>1285</ele></trkpt><trkpt lat="45.837177" lon="9.179355"><time>2024-05-04T07:31:30.000Z</time><ele>1285</ele></trkpt><trkpt lat="45.837177" lon="9.179355"><time>2024-05-04T07:31:31.000Z</time><ele>1285</ele></trkpt><trkpt lat="45.837177" lon="9.179355"><time>2024-05-04T07:31:32.000Z</time><ele>1285</ele></trkpt><trkpt lat="45.837177" lon="9.179355"><time>2024-05-04T07:31:33.000Z</time><ele>1285</ele></trkpt><trkpt lat="45.837177" lon="9.179355"><time>2024-05-04T07:31:34.000Z</time><ele>1285</ele></trkpt><trkpt lat="45.837177" lon="9.179355"><time>2024-05-04T07:31:35.000Z</time><ele>1285</ele></trkpt><trkpt lat="45.837177" lon="9.179355"><time>2024-05-04T07:31:36.000Z</time><ele>1285</ele></trkpt><trkpt lat="45.837177" lon="9.179355"><time>2024-05-04T07:31:37.000Z</time><ele>1285</ele></trkpt><trkpt lat="45.837177" lon="9.179355"><time>2024-05-04T07:31:38.000Z</time><ele>1285</ele></trkpt><trkpt lat="45.837177" lon="9.179355"><time>2024-05-04T07:31:39.000Z</time><ele>1285</ele></trkpt><trkpt lat="45.837177" lon="9.179355"><time>2024-05-04T07:31:40.000Z</time><ele>1285</ele></trkpt><trkpt lat="45.837177" lon="9.179355"><time>2024-05-04T07:31:41.000Z</time><ele>1285</ele></trkpt><trkpt lat="45.837177" lon="9.179355"><time>2024-05-04T07:31:42.000Z</time><ele>1285</ele></trkpt><trkpt lat="45.837177" lon="9.179355"><time>2024-05-04T07:31:43.000Z</time><ele>1285</ele></trkpt><trkpt lat="45.837177" lon="9.179355"><time>2024-05-04T07:31:44.000Z</time><ele>1285</ele></trkpt><trkpt lat="45.837177" lon="9.179355"><time>2024-05-04T07:31:45.000Z</time><ele>1285</ele></trkpt><trkpt lat="45.837177" lon="9.179355"><time>2024-05-04T07:31:46.000Z</time><ele>1285</ele></trkpt><trkpt lat="45.837177" lon="9.179354"><time>2024-05-04T07:31:47.000Z</time><ele>1285</ele></trkpt><trkpt lat="45.837177" lon="9.179354"><time>2024-05-04T07:31:48.000Z</time><ele>1285</ele></trkpt><trkpt lat="45.837177" lon="9.179354"><time>2024-05-04T07:31:49.000Z</time><ele>1285</ele></trkpt><trkpt lat="45.837177" lon="9.179354"><time>2024-05-04T07:31:50.000Z</time><ele>1285</ele></trkpt><trkpt lat="45.837177" lon="9.179354"><time>2024-05-04T07:31:51.000Z</time><ele>1285</ele></trkpt><trkpt lat="45.837177" lon="9.179354"><time>2024-05-04T07:31:52.000Z</time><ele>1285</ele></trkpt><trkpt lat="45.837177" lon="9.179354"><time>2024-05-04T07:31:53.000Z</time><ele>1285</ele></trkpt><trkpt lat="45.837177" lon="9.179355"><time>2024-05-04T07:31:54.000Z</time><ele>1285</ele></trkpt><trkpt lat="45.837177" lon="9.179355"><time>2024-05-04T07:31:55.000Z</time><ele>1285</ele></trkpt><trkpt lat="45.837176" lon="9.179355"><time>2024-05-04T07:31:56.000Z</time><ele>1285</ele></trkpt><trkpt lat="45.837176" lon="9.179355"><time>2024-05-04T07:31:57.000Z</time><ele>1285</ele></trkpt><trkpt lat="45.837176" lon="9.179355"><time>2024-05-04T07:31:58.000Z</time><ele>1285</ele></trkpt><trkpt lat="45.837176" lon="9.179355"><time>2024-05-04T07:31:59.000Z</time><ele>1285</ele></trkpt><trkpt lat="45.837176" lon="9.179355"><time>2024-05-04T07:32:00.000Z</time><ele>1285</ele></trkpt><trkpt lat="45.837176" lon="9.179355"><time>2024-05-04T07:32:01.000Z</time><ele>1285</ele></trkpt><trkpt lat="45.837176" lon="9.179355"><time>2024-05-04T07:32:02.000Z</time><ele>1285</ele></trkpt><trkpt lat="45.837176" lon="9.179355"><time>2024-05-04T07:32:03.000Z</time><ele>1285</ele></trkpt><trkpt lat="45.837176" lon="9.179355"><time>2024-05-04T07:32:04.000Z</time><ele>1285</ele></trkpt><trkpt lat="45.837176" lon="9.179355"><time>2024-05-04T07:32:05.000Z</time><ele>1285</ele></trkpt><trkpt lat="45.837176" lon="9.179355"><time>2024-05-04T07:32:06.000Z</time><ele>1285</ele></trkpt><trkpt lat="45.837176" lon="9.179355"><time>2024-05-04T07:32:07.000Z</time><ele>1285</ele></trkpt><trkpt lat="45.837176" lon="9.179355"><time>2024-05-04T07:32:08.000Z</time><ele>1285</ele></trkpt><trkpt lat="45.837176" lon="9.179355"><time>2024-05-04T07:32:09.000Z</time><ele>1285</ele></trkpt><trkpt lat="45.837176" lon="9.179355"><time>2024-05-04T07:32:10.000Z</time><ele>1285</ele></trkpt><trkpt lat="45.837176" lon="9.179355"><time>2024-05-04T07:32:11.000Z</time><ele>1285</ele></trkpt><trkpt lat="45.837176" lon="9.179354"><time>2024-05-04T07:32:12.000Z</time><ele>1285</ele></trkpt><trkpt lat="45.837176" lon="9.179354"><time>2024-05-04T07:32:13.000Z</time><ele>1285</ele></trkpt><trkpt lat="45.837175" lon="9.179354"><time>2024-05-04T07:32:14.000Z</time><ele>1285</ele></trkpt><trkpt lat="45.837175" lon="9.179354"><time>2024-05-04T07:32:15.000Z</time><ele>1285</ele></trkpt><trkpt lat="45.837175" lon="9.179354"><time>2024-05-04T07:32:16.000Z</time><ele>1285</ele></trkpt><trkpt lat="45.837175" lon="9.179354"><time>2024-05-04T07:32:17.000Z</time><ele>1285</ele></trkpt><trkpt lat="45.837175" lon="9.179354"><time>2024-05-04T07:32:18.000Z</time><ele>1285</ele></trkpt><trkpt lat="45.837175" lon="9.179354"><time>2024-05-04T07:32:19.000Z</time><ele>1285</ele></trkpt><trkpt lat="45.837175" lon="9.179354"><time>2024-05-04T07:32:20.000Z</time><ele>1285</ele></trkpt><trkpt lat="45.837175" lon="9.179354"><time>2024-05-04T07:32:21.000Z</time><ele>1285</ele></trkpt><trkpt lat="45.837175" lon="9.179354"><time>2024-05-04T07:32:22.000Z</time><ele>1285</ele></trkpt><trkpt lat="45.837175" lon="9.179354"><time>2024-05-04T07:32:23.000Z</time><ele>1285</ele></trkpt><trkpt lat="45.837175" lon="9.179354"><time>2024-05-04T07:32:24.000Z</time><ele>1285</ele></trkpt><trkpt lat="45.837175" lon="9.179354"><time>2024-05-04T07:32:25.000Z</time><ele>1285</ele></trkpt><trkpt lat="45.837175" lon="9.179354"><time>2024-05-04T07:32:26.000Z</time><ele>1285</ele></trkpt><trkpt lat="45.837175" lon="9.179354"><time>2024-05-04T07:32:27.000Z</time><ele>1285</ele></trkpt><trkpt lat="45.837175" lon="9.179354"><time>2024-05-04T07:32:28.000Z</time><ele>1285</ele></trkpt><trkpt lat="45.837175" lon="9.179354"><time>2024-05-04T07:32:29.000Z</time><ele>1285</ele></trkpt><trkpt lat="45.837175" lon="9.179353"><time>2024-05-04T07:32:30.000Z</time><ele>1285</ele></trkpt><trkpt lat="45.837175" lon="9.179353"><time>2024-05-04T07:32:31.000Z</time><ele>1285</ele></trkpt><trkpt lat="45.837175" lon="9.179353"><time>2024-05-04T07:32:32.000Z</time><ele>1285</ele></trkpt><trkpt lat="45.837175" lon="9.179353"><time>2024-05-04T07:32:33.000Z</time><ele>1285</ele></trkpt><trkpt lat="45.837175" lon="9.179353"><time>2024-05-04T07:32:34.000Z</time><ele>1285</ele></trkpt><trkpt lat="45.837175" lon="9.179353"><time>2024-05-04T07:32:35.000Z</time><ele>1285</ele></trkpt><trkpt lat="45.837175" lon="9.179353"><time>2024-05-04T07:32:36.000Z</time><ele>1285</ele></trkpt><trkpt lat="45.837175" lon="9.179353"><time>2024-05-04T07:32:37.000Z</time><ele>1285</ele></trkpt><trkpt lat="45.837175" lon="9.179353"><time>2024-05-04T07:32:38.000Z</time><ele>1285</ele></trkpt><trkpt lat="45.837175" lon="9.179353"><time>2024-05-04T07:32:39.000Z</time><ele>1285</ele></trkpt><trkpt lat="45.837175" lon="9.179353"><time>2024-05-04T07:32:40.000Z</time><ele>1285</ele></trkpt><trkpt lat="45.837175" lon="9.179353"><time>2024-05-04T07:32:41.000Z</time><ele>1285</ele></trkpt><trkpt lat="45.837175" lon="9.179353"><time>2024-05-04T07:32:42.000Z</time><ele>1285</ele></trkpt><trkpt lat="45.837175" lon="9.179353"><time>2024-05-04T07:32:43.000Z</time><ele>1285</ele></trkpt><trkpt lat="45.837175" lon="9.179353"><time>2024-05-04T07:32:44.000Z</time><ele>1285</ele></trkpt><trkpt lat="45.837175" lon="9.179353"><time>2024-05-04T07:32:45.000Z</time><ele>1285</ele></trkpt><trkpt lat="45.837175" lon="9.179353"><time>2024-05-04T07:32:46.000Z</time><ele>1285</ele></trkpt><trkpt lat="45.837175" lon="9.179353"><time>2024-05-04T07:32:47.000Z</time><ele>1285</ele></trkpt><trkpt lat="45.837175" lon="9.179353"><time>2024-05-04T07:32:48.000Z</time><ele>1285</ele></trkpt><trkpt lat="45.837175" lon="9.179353"><time>2024-05-04T07:32:49.000Z</time><ele>1285</ele></trkpt><trkpt lat="45.837175" lon="9.179353"><time>2024-05-04T07:32:50.000Z</time><ele>1285</ele></trkpt><trkpt lat="45.837175" lon="9.179353"><time>2024-05-04T07:32:51.000Z</time><ele>1285</ele></trkpt><trkpt lat="45.837175" lon="9.179353"><time>2024-05-04T07:32:52.000Z</time><ele>1285</ele></trkpt><trkpt lat="45.837175" lon="9.179353"><time>2024-05-04T07:32:53.000Z</time><ele>1285</ele></trkpt><trkpt lat="45.837175" lon="9.179353"><time>2024-05-04T07:32:54.000Z</time><ele>1285</ele></trkpt><trkpt lat="45.837175" lon="9.179353"><time>2024-05-04T07:32:55.000Z</time><ele>1285</ele></trkpt><trkpt lat="45.837175" lon="9.179353"><time>2024-05-04T07:32:56.000Z</time><ele>1285</ele></trkpt><trkpt lat="45.837175" lon="9.179353"><time>2024-05-04T07:32:57.000Z</time><ele>1285</ele></trkpt><trkpt lat="45.837175" lon="9.179353"><time>2024-05-04T07:32:58.000Z</time><ele>1285</ele></trkpt><trkpt lat="45.837175" lon="9.179354"><time>2024-05-04T07:32:59.000Z</time><ele>1285</ele></trkpt><trkpt lat="45.837175" lon="9.179354"><time>2024-05-04T07:33:00.000Z</time><ele>1285</ele></trkpt><trkpt lat="45.837175" lon="9.179354"><time>2024-05-04T07:33:01.000Z</time><ele>1285</ele></trkpt><trkpt lat="45.837175" lon="9.179354"><time>2024-05-04T07:33:02.000Z</time><ele>1285</ele></trkpt><trkpt lat="45.837175" lon="9.179354"><time>2024-05-04T07:33:03.000Z</time><ele>1285</ele></trkpt><trkpt lat="45.837175" lon="9.179354"><time>2024-05-04T07:33:04.000Z</time><ele>1285</ele></trkpt><trkpt lat="45.837174" lon="9.179354"><time>2024-05-04T07:33:05.000Z</time><ele>1285</ele></trkpt><trkpt lat="45.837174" lon="9.179354"><time>2024-05-04T07:33:06.000Z</time><ele>1285</ele></trkpt><trkpt lat="45.837174" lon="9.179354"><time>2024-05-04T07:33:07.000Z</time><ele>1285</ele></trkpt><trkpt lat="45.837174" lon="9.179354"><time>2024-05-04T07:33:08.000Z</time><ele>1285</ele></trkpt><trkpt lat="45.837174" lon="9.179354"><time>2024-05-04T07:33:09.000Z</time><ele>1285</ele></trkpt><trkpt lat="45.837174" lon="9.179354"><time>2024-05-04T07:33:10.000Z</time><ele>1285</ele></trkpt><trkpt lat="45.837174" lon="9.179354"><time>2024-05-04T07:33:11.000Z</time><ele>1285</ele></trkpt><trkpt lat="45.837174" lon="9.179354"><time>2024-05-04T07:33:12.000Z</time><ele>1285</ele></trkpt><trkpt lat="45.837174" lon="9.179354"><time>2024-05-04T07:33:13.000Z</time><ele>1285</ele></trkpt><trkpt lat="45.837174" lon="9.179354"><time>2024-05-04T07:33:14.000Z</time><ele>1285</ele></trkpt><trkpt lat="45.837175" lon="9.179353"><time>2024-05-04T07:33:15.000Z</time><ele>1285</ele></trkpt><trkpt lat="45.837175" lon="9.179353"><time>2024-05-04T07:33:16.000Z</time><ele>1285</ele></trkpt><trkpt lat="45.837175" lon="9.179353"><time>2024-05-04T07:33:17.000Z</time><ele>1285</ele></trkpt><trkpt lat="45.837174" lon="9.179353"><time>2024-05-04T07:33:18.000Z</time><ele>1285</ele></trkpt><trkpt lat="45.837174" lon="9.179353"><time>2024-05-04T07:33:19.000Z</time><ele>1285</ele></trkpt><trkpt lat="45.837174" lon="9.179354"><time>2024-05-04T07:33:20.000Z</time><ele>1285</ele></trkpt><trkpt lat="45.837174" lon="9.179354"><time>2024-05-04T07:33:21.000Z</time><ele>1285</ele></trkpt><trkpt lat="45.837174" lon="9.179354"><time>2024-05-04T07:33:22.000Z</time><ele>1285</ele></trkpt><trkpt lat="45.837174" lon="9.179354"><time>2024-05-04T07:33:23.000Z</time><ele>1285</ele></trkpt><trkpt lat="45.837174" lon="9.179354"><time>2024-05-04T07:33:24.000Z</time><ele>1285</ele></trkpt><trkpt lat="45.837174" lon="9.179354"><time>2024-05-04T07:33:25.000Z</time><ele>1285</ele></trkpt><trkpt lat="45.837174" lon="9.179354"><time>2024-05-04T07:33:26.000Z</time><ele>1285</ele></trkpt><trkpt lat="45.837175" lon="9.179354"><time>2024-05-04T07:33:27.000Z</time><ele>1285</ele></trkpt><trkpt lat="45.837175" lon="9.179354"><time>2024-05-04T07:33:28.000Z</time><ele>1285</ele></trkpt><trkpt lat="45.837175" lon="9.179353"><time>2024-05-04T07:33:29.000Z</time><ele>1285</ele></trkpt><trkpt lat="45.837175" lon="9.179353"><time>2024-05-04T07:33:30.000Z</time><ele>1285</ele></trkpt><trkpt lat="45.837175" lon="9.179354"><time>2024-05-04T07:33:31.000Z</time><ele>1285</ele></trkpt><trkpt lat="45.837175" lon="9.179354"><time>2024-05-04T07:33:32.000Z</time><ele>1285</ele></trkpt><trkpt lat="45.837175" lon="9.179354"><time>2024-05-04T07:33:33.000Z</time><ele>1285</ele></trkpt><trkpt lat="45.837174" lon="9.179354"><time>2024-05-04T07:33:34.000Z</time><ele>1285</ele></trkpt><trkpt lat="45.837174" lon="9.179354"><time>2024-05-04T07:33:35.000Z</time><ele>1285</ele></trkpt><trkpt lat="45.837174" lon="9.179354"><time>2024-05-04T07:33:36.000Z</time><ele>1285</ele></trkpt><trkpt lat="45.837174" lon="9.179354"><time>2024-05-04T07:33:37.000Z</time><ele>1285</ele></trkpt><trkpt lat="45.837175" lon="9.179354"><time>2024-05-04T07:33:38.000Z</time><ele>1285</ele></trkpt><trkpt lat="45.837175" lon="9.179354"><time>2024-05-04T07:33:39.000Z</time><ele>1285</ele></trkpt><trkpt lat="45.837175" lon="9.179354"><time>2024-05-04T07:33:40.000Z</time><ele>1285</ele></trkpt><trkpt lat="45.837175" lon="9.179354"><time>2024-05-04T07:33:41.000Z</time><ele>1285</ele></trkpt><trkpt lat="45.837175" lon="9.179354"><time>2024-05-04T07:33:42.000Z</time><ele>1285</ele></trkpt><trkpt lat="45.837175" lon="9.179354"><time>2024-05-04T07:33:43.000Z</time><ele>1285</ele></trkpt><trkpt lat="45.837175" lon="9.179353"><time>2024-05-04T07:33:44.000Z</time><ele>1285</ele></trkpt><trkpt lat="45.837175" lon="9.179353"><time>2024-05-04T07:33:45.000Z</time><ele>1285</ele></trkpt><trkpt lat="45.837174" lon="9.179353"><time>2024-05-04T07:33:46.000Z</time><ele>1285</ele></trkpt><trkpt lat="45.837174" lon="9.179353"><time>2024-05-04T07:33:47.000Z</time><ele>1285</ele></trkpt><trkpt lat="45.837175" lon="9.179353"><time>2024-05-04T07:33:48.000Z</time><ele>1285</ele></trkpt><trkpt lat="45.837174" lon="9.179353"><time>2024-05-04T07:33:49.000Z</time><ele>1285</ele></trkpt><trkpt lat="45.837175" lon="9.179353"><time>2024-05-04T07:33:50.000Z</time><ele>1285</ele></trkpt><trkpt lat="45.837175" lon="9.179353"><time>2024-05-04T07:33:51.000Z</time><ele>1285</ele></trkpt><trkpt lat="45.837175" lon="9.179353"><time>2024-05-04T07:33:52.000Z</time><ele>1285</ele></trkpt><trkpt lat="45.837175" lon="9.179353"><time>2024-05-04T07:33:53.000Z</time><ele>1285</ele></trkpt><trkpt lat="45.837175" lon="9.179353"><time>2024-05-04T07:33:54.000Z</time><ele>1285</ele></trkpt><trkpt lat="45.837175" lon="9.179353"><time>2024-05-04T07:33:55.000Z</time><ele>1285</ele></trkpt><trkpt lat="45.837175" lon="9.179353"><time>2024-05-04T07:33:56.000Z</time><ele>1285</ele></trkpt><trkpt lat="45.837175" lon="9.179353"><time>2024-05-04T07:33:57.000Z</time><ele>1285</ele></trkpt><trkpt lat="45.837175" lon="9.179353"><time>2024-05-04T07:33:58.000Z</time><ele>1285</ele></trkpt><trkpt lat="45.837174" lon="9.179353"><time>2024-05-04T07:33:59.000Z</time><ele>1285</ele></trkpt><trkpt lat="45.837175" lon="9.179353"><time>2024-05-04T07:34:00.000Z</time><ele>1285</ele></trkpt><trkpt lat="45.837174" lon="9.179353"><time>2024-05-04T07:34:01.000Z</time><ele>1285</ele></trkpt><trkpt lat="45.837175" lon="9.179353"><time>2024-05-04T07:34:02.000Z</time><ele>1285</ele></trkpt><trkpt lat="45.837175" lon="9.179353"><time>2024-05-04T07:34:03.000Z</time><ele>1285</ele></trkpt><trkpt lat="45.837175" lon="9.179352"><time>2024-05-04T07:34:04.000Z</time><ele>1285</ele></trkpt><trkpt lat="45.837175" lon="9.179352"><time>2024-05-04T07:34:05.000Z</time><ele>1285</ele></trkpt><trkpt lat="45.837175" lon="9.179352"><time>2024-05-04T07:34:06.000Z</time><ele>1285</ele></trkpt><trkpt lat="45.837175" lon="9.179353"><time>2024-05-04T07:34:07.000Z</time><ele>1285</ele></trkpt><trkpt lat="45.837175" lon="9.179352"><time>2024-05-04T07:34:08.000Z</time><ele>1285</ele></trkpt><trkpt lat="45.837175" lon="9.179352"><time>2024-05-04T07:34:09.000Z</time><ele>1285</ele></trkpt><trkpt lat="45.837175" lon="9.179352"><time>2024-05-04T07:34:10.000Z</time><ele>1285</ele></trkpt><trkpt lat="45.837175" lon="9.179352"><time>2024-05-04T07:34:11.000Z</time><ele>1285</ele></trkpt><trkpt lat="45.837174" lon="9.179352"><time>2024-05-04T07:34:12.000Z</time><ele>1285</ele></trkpt><trkpt lat="45.837174" lon="9.179352"><time>2024-05-04T07:34:13.000Z</time><ele>1285</ele></trkpt><trkpt lat="45.837174" lon="9.179352"><time>2024-05-04T07:34:14.000Z</time><ele>1285</ele></trkpt><trkpt lat="45.837174" lon="9.179352"><time>2024-05-04T07:34:15.000Z</time><ele>1285</ele></trkpt><trkpt lat="45.837174" lon="9.179352"><time>2024-05-04T07:34:16.000Z</time><ele>1285</ele></trkpt><trkpt lat="45.837174" lon="9.179352"><time>2024-05-04T07:34:17.000Z</time><ele>1285</ele></trkpt><trkpt lat="45.837174" lon="9.179352"><time>2024-05-04T07:34:18.000Z</time><ele>1285</ele></trkpt><trkpt lat="45.837174" lon="9.179352"><time>2024-05-04T07:34:19.000Z</time><ele>1285</ele></trkpt><trkpt lat="45.837174" lon="9.179352"><time>2024-05-04T07:34:20.000Z</time><ele>1285</ele></trkpt><trkpt lat="45.837174" lon="9.179352"><time>2024-05-04T07:34:21.000Z</time><ele>1285</ele></trkpt><trkpt lat="45.837174" lon="9.179352"><time>2024-05-04T07:34:22.000Z</time><ele>1285</ele></trkpt><trkpt lat="45.837174" lon="9.179352"><time>2024-05-04T07:34:23.000Z</time><ele>1285</ele></trkpt><trkpt lat="45.837174" lon="9.179352"><time>2024-05-04T07:34:24.000Z</time><ele>1285</ele></trkpt><trkpt lat="45.837174" lon="9.179352"><time>2024-05-04T07:34:25.000Z</time><ele>1285</ele></trkpt><trkpt lat="45.837174" lon="9.179352"><time>2024-05-04T07:34:26.000Z</time><ele>1285</ele></trkpt><trkpt lat="45.837174" lon="9.179353"><time>2024-05-04T07:34:27.000Z</time><ele>1285</ele></trkpt><trkpt lat="45.837174" lon="9.179353"><time>2024-05-04T07:34:28.000Z</time><ele>1285</ele></trkpt><trkpt lat="45.837174" lon="9.179353"><time>2024-05-04T07:34:29.000Z</time><ele>1285</ele></trkpt><trkpt lat="45.837174" lon="9.179353"><time>2024-05-04T07:34:30.000Z</time><ele>1285</ele></trkpt><trkpt lat="45.837174" lon="9.179353"><time>2024-05-04T07:34:31.000Z</time><ele>1285</ele></trkpt><trkpt lat="45.837175" lon="9.179353"><time>2024-05-04T07:34:32.000Z</time><ele>1285</ele></trkpt><trkpt lat="45.837175" lon="9.179353"><time>2024-05-04T07:34:33.000Z</time><ele>1285</ele></trkpt><trkpt lat="45.837175" lon="9.179353"><time>2024-05-04T07:34:34.000Z</time><ele>1285</ele></trkpt><trkpt lat="45.837175" lon="9.179353"><time>2024-05-04T07:34:35.000Z</time><ele>1285</ele></trkpt><trkpt lat="45.837175" lon="9.179353"><time>2024-05-04T07:34:36.000Z</time><ele>1285</ele></trkpt><trkpt lat="45.837175" lon="9.179353"><time>2024-05-04T07:34:37.000Z</time><ele>1285</ele></trkpt><trkpt lat="45.837175" lon="9.179353"><time>2024-05-04T07:34:38.000Z</time><ele>1285</ele></trkpt><trkpt lat="45.837175" lon="9.179353"><time>2024-05-04T07:34:39.000Z</time><ele>1285</ele></trkpt><trkpt lat="45.837175" lon="9.179353"><time>2024-05-04T07:34:40.000Z</time><ele>1285</ele></trkpt><trkpt lat="45.837175" lon="9.179353"><time>2024-05-04T07:34:41.000Z</time><ele>1285</ele></trkpt><trkpt lat="45.837175" lon="9.179353"><time>2024-05-04T07:34:42.000Z</time><ele>1285</ele></trkpt><trkpt lat="45.837175" lon="9.179353"><time>2024-05-04T07:34:43.000Z</time><ele>1285</ele></trkpt><trkpt lat="45.837175" lon="9.179353"><time>2024-05-04T07:34:44.000Z</time><ele>1285</ele></trkpt><trkpt lat="45.837175" lon="9.179353"><time>2024-05-04T07:34:45.000Z</time><ele>1285</ele></trkpt><trkpt lat="45.837175" lon="9.179353"><time>2024-05-04T07:34:46.000Z</time><ele>1285</ele></trkpt><trkpt lat="45.837175" lon="9.179353"><time>2024-05-04T07:34:47.000Z</time><ele>1285</ele></trkpt><trkpt lat="45.837175" lon="9.179353"><time>2024-05-04T07:34:48.000Z</time><ele>1285</ele></trkpt><trkpt lat="45.837175" lon="9.179353"><time>2024-05-04T07:34:49.000Z</time><ele>1285</ele></trkpt><trkpt lat="45.837175" lon="9.179353"><time>2024-05-04T07:34:50.000Z</time><ele>1285</ele></trkpt><trkpt lat="45.837175" lon="9.179353"><time>2024-05-04T07:34:51.000Z</time><ele>1285</ele></trkpt><trkpt lat="45.837175" lon="9.179353"><time>2024-05-04T07:34:52.000Z</time><ele>1285</ele></trkpt><trkpt lat="45.837175" lon="9.179353"><time>2024-05-04T07:34:53.000Z</time><ele>1285</ele></trkpt><trkpt lat="45.837175" lon="9.179353"><time>2024-05-04T07:34:54.000Z</time><ele>1285</ele></trkpt><trkpt lat="45.837175" lon="9.179353"><time>2024-05-04T07:34:55.000Z</time><ele>1285</ele></trkpt><trkpt lat="45.837175" lon="9.179353"><time>2024-05-04T07:34:56.000Z</time><ele>1285</ele></trkpt><trkpt lat="45.837175" lon="9.179354"><time>2024-05-04T07:34:57.000Z</time><ele>1285</ele></trkpt><trkpt lat="45.837175" lon="9.179354"><time>2024-05-04T07:34:58.000Z</time><ele>1285</ele></trkpt><trkpt lat="45.837175" lon="9.179354"><time>2024-05-04T07:34:59.000Z</time><ele>1285</ele></trkpt><trkpt lat="45.837175" lon="9.179354"><time>2024-05-04T07:35:00.000Z</time><ele>1285</ele></trkpt><trkpt lat="45.837175" lon="9.179354"><time>2024-05-04T07:35:01.000Z</time><ele>1285</ele></trkpt><trkpt lat="45.837175" lon="9.179354"><time>2024-05-04T07:35:02.000Z</time><ele>1285</ele></trkpt><trkpt lat="45.837175" lon="9.179354"><time>2024-05-04T07:35:03.000Z</time><ele>1285</ele></trkpt><trkpt lat="45.837175" lon="9.179354"><time>2024-05-04T07:35:04.000Z</time><ele>1285</ele></trkpt><trkpt lat="45.837175" lon="9.179354"><time>2024-05-04T07:35:05.000Z</time><ele>1285</ele></trkpt><trkpt lat="45.837175" lon="9.179354"><time>2024-05-04T07:35:06.000Z</time><ele>1285</ele></trkpt><trkpt lat="45.837175" lon="9.179354"><time>2024-05-04T07:35:07.000Z</time><ele>1285</ele></trkpt><trkpt lat="45.837175" lon="9.179354"><time>2024-05-04T07:35:08.000Z</time><ele>1285</ele></trkpt><trkpt lat="45.837175" lon="9.179354"><time>2024-05-04T07:35:09.000Z</time><ele>1285</ele></trkpt><trkpt lat="45.837175" lon="9.179354"><time>2024-05-04T07:35:10.000Z</time><ele>1285</ele></trkpt><trkpt lat="45.837175" lon="9.179354"><time>2024-05-04T07:35:11.000Z</time><ele>1285</ele></trkpt><trkpt lat="45.837175" lon="9.179354"><time>2024-05-04T07:35:12.000Z</time><ele>1285</ele></trkpt><trkpt lat="45.837175" lon="9.179353"><time>2024-05-04T07:35:13.000Z</time><ele>1285</ele></trkpt><trkpt lat="45.837175" lon="9.179353"><time>2024-05-04T07:35:14.000Z</time><ele>1285</ele></trkpt><trkpt lat="45.837175" lon="9.179353"><time>2024-05-04T07:35:15.000Z</time><ele>1285</ele></trkpt><trkpt lat="45.837175" lon="9.179353"><time>2024-05-04T07:35:16.000Z</time><ele>1285</ele></trkpt><trkpt lat="45.837175" lon="9.179353"><time>2024-05-04T07:35:17.000Z</time><ele>1285</ele></trkpt><trkpt lat="45.837175" lon="9.179353"><time>2024-05-04T07:35:18.000Z</time><ele>1285</ele></trkpt><trkpt lat="45.837175" lon="9.179353"><time>2024-05-04T07:35:19.000Z</time><ele>1285</ele></trkpt><trkpt lat="45.837175" lon="9.179353"><time>2024-05-04T07:35:20.000Z</time><ele>1285</ele></trkpt><trkpt lat="45.837175" lon="9.179353"><time>2024-05-04T07:35:21.000Z</time><ele>1285</ele></trkpt><trkpt lat="45.837175" lon="9.179353"><time>2024-05-04T07:35:22.000Z</time><ele>1285</ele></trkpt><trkpt lat="45.837175" lon="9.179353"><time>2024-05-04T07:35:23.000Z</time><ele>1285</ele></trkpt><trkpt lat="45.837175" lon="9.179353"><time>2024-05-04T07:35:24.000Z</time><ele>1285</ele></trkpt><trkpt lat="45.837175" lon="9.179353"><time>2024-05-04T07:35:25.000Z</time><ele>1285</ele></trkpt><trkpt lat="45.837175" lon="9.179353"><time>2024-05-04T07:35:26.000Z</time><ele>1285</ele></trkpt><trkpt lat="45.837175" lon="9.179353"><time>2024-05-04T07:35:27.000Z</time><ele>1285</ele></trkpt><trkpt lat="45.837175" lon="9.179353"><time>2024-05-04T07:35:28.000Z</time><ele>1285</ele></trkpt><trkpt lat="45.837175" lon="9.179353"><time>2024-05-04T07:35:29.000Z</time><ele>1285</ele></trkpt><trkpt lat="45.837175" lon="9.179354"><time>2024-05-04T07:35:30.000Z</time><ele>1285</ele></trkpt><trkpt lat="45.837175" lon="9.179354"><time>2024-05-04T07:35:31.000Z</time><ele>1285</ele></trkpt><trkpt lat="45.837175" lon="9.179354"><time>2024-05-04T07:35:32.000Z</time><ele>1285</ele></trkpt><trkpt lat="45.837175" lon="9.179354"><time>2024-05-04T07:35:33.000Z</time><ele>1285</ele></trkpt><trkpt lat="45.837175" lon="9.179354"><time>2024-05-04T07:35:34.000Z</time><ele>1285</ele></trkpt><trkpt lat="45.837175" lon="9.179354"><time>2024-05-04T07:35:35.000Z</time><ele>1285</ele></trkpt><trkpt lat="45.837176" lon="9.179365"><time>2024-05-04T07:35:36.000Z</time><ele>1285</ele></trkpt><trkpt lat="45.837171" lon="9.179385"><time>2024-05-04T07:35:37.000Z</time><ele>1285</ele></trkpt><trkpt lat="45.837169" lon="9.179408"><time>2024-05-04T07:35:38.000Z</time><ele>1285</ele></trkpt><trkpt lat="45.837169" lon="9.179427"><time>2024-05-04T07:35:39.000Z</time><ele>1285</ele></trkpt><trkpt lat="45.83717" lon="9.179444"><time>2024-05-04T07:35:40.000Z</time><ele>1285</ele></trkpt><trkpt lat="45.837172" lon="9.17946"><time>2024-05-04T07:35:41.000Z</time><ele>1285</ele></trkpt><trkpt lat="45.837173" lon="9.179478"><time>2024-05-04T07:35:42.000Z</time><ele>1285</ele></trkpt><trkpt lat="45.837173" lon="9.179502"><time>2024-05-04T07:35:43.000Z</time><ele>1285</ele></trkpt><trkpt lat="45.837174" lon="9.179517"><time>2024-05-04T07:35:44.000Z</time><ele>1285</ele></trkpt><trkpt lat="45.837175" lon="9.17953"><time>2024-05-04T07:35:45.000Z</time><ele>1285</ele></trkpt><trkpt lat="45.837175" lon="9.17953"><time>2024-05-04T07:35:46.000Z</time><ele>1285</ele></trkpt><trkpt lat="45.837176" lon="9.179528"><time>2024-05-04T07:35:47.000Z</time><ele>1285</ele></trkpt><trkpt lat="45.837178" lon="9.179527"><time>2024-05-04T07:35:48.000Z</time><ele>1285</ele></trkpt><trkpt lat="45.837179" lon="9.179528"><time>2024-05-04T07:35:49.000Z</time><ele>1285</ele></trkpt><trkpt lat="45.83718" lon="9.179527"><time>2024-05-04T07:35:50.000Z</time><ele>1285</ele></trkpt><trkpt lat="45.83718" lon="9.179522"><time>2024-05-04T07:35:51.000Z</time><ele>1285</ele></trkpt><trkpt lat="45.83718" lon="9.179519"><time>2024-05-04T07:35:52.000Z</time><ele>1285</ele></trkpt><trkpt lat="45.837179" lon="9.179517"><time>2024-05-04T07:35:53.000Z</time><ele>1285</ele></trkpt><trkpt lat="45.837182" lon="9.179515"><time>2024-05-04T07:35:54.000Z</time><ele>1285</ele></trkpt><trkpt lat="45.837184" lon="9.179512"><time>2024-05-04T07:35:55.000Z</time><ele>1285</ele></trkpt><trkpt lat="45.837185" lon="9.179515"><time>2024-05-04T07:35:56.000Z</time><ele>1285</ele></trkpt><trkpt lat="45.837182" lon="9.17952"><time>2024-05-04T07:35:57.000Z</time><ele>1285</ele></trkpt><trkpt lat="45.837181" lon="9.179523"><time>2024-05-04T07:35:58.000Z</time><ele>1285</ele></trkpt><trkpt lat="45.837181" lon="9.179527"><time>2024-05-04T07:35:59.000Z</time><ele>1285</ele></trkpt><trkpt lat="45.837182" lon="9.179534"><time>2024-05-04T07:36:00.000Z</time><ele>1285</ele></trkpt><trkpt lat="45.837183" lon="9.179541"><time>2024-05-04T07:36:01.000Z</time><ele>1285</ele></trkpt><trkpt lat="45.837187" lon="9.179545"><time>2024-05-04T07:36:02.000Z</time><ele>1285</ele></trkpt><trkpt lat="45.83719" lon="9.179551"><time>2024-05-04T07:36:03.000Z</time><ele>1285</ele></trkpt><trkpt lat="45.837191" lon="9.179561"><time>2024-05-04T07:36:04.000Z</time><ele>1285</ele></trkpt><trkpt lat="45.837191" lon="9.179572"><time>2024-05-04T07:36:05.000Z</time><ele>1285</ele></trkpt><trkpt lat="45.837191" lon="9.179582"><time>2024-05-04T07:36:06.000Z</time><ele>1285</ele></trkpt><trkpt lat="45.837192" lon="9.179594"><time>2024-05-04T07:36:07.000Z</time><ele>1285</ele></trkpt><trkpt lat="45.837193" lon="9.179603"><time>2024-05-04T07:36:08.000Z</time><ele>1285</ele></trkpt><trkpt lat="45.837195" lon="9.179614"><time>2024-05-04T07:36:09.000Z</time><ele>1285</ele></trkpt><trkpt lat="45.837197" lon="9.179626"><time>2024-05-04T07:36:10.000Z</time><ele>1285</ele></trkpt><trkpt lat="45.837196" lon="9.179641"><time>2024-05-04T07:36:11.000Z</time><ele>1285</ele></trkpt><trkpt lat="45.837196" lon="9.179651"><time>2024-05-04T07:36:12.000Z</time><ele>1285</ele></trkpt><trkpt lat="45.837196" lon="9.179664"><time>2024-05-04T07:36:13.000Z</time><ele>1285</ele></trkpt><trkpt lat="45.837196" lon="9.179679"><time>2024-05-04T07:36:14.000Z</time><ele>1285</ele></trkpt><trkpt lat="45.837195" lon="9.179693"><time>2024-05-04T07:36:15.000Z</time><ele>1285</ele></trkpt><trkpt lat="45.837198" lon="9.179707"><time>2024-05-04T07:36:16.000Z</time><ele>1285</ele></trkpt><trkpt lat="45.8372" lon="9.179722"><time>2024-05-04T07:36:17.000Z</time><ele>1285</ele></trkpt><trkpt lat="45.837203" lon="9.179732"><time>2024-05-04T07:36:18.000Z</time><ele>1285</ele></trkpt><trkpt lat="45.837204" lon="9.179742"><time>2024-05-04T07:36:19.000Z</time><ele>1285</ele></trkpt><trkpt lat="45.837202" lon="9.179751"><time>2024-05-04T07:36:20.000Z</time><ele>1285</ele></trkpt><trkpt lat="45.837194" lon="9.179764"><time>2024-05-04T07:36:21.000Z</time><ele>1285</ele></trkpt><trkpt lat="45.837192" lon="9.17978"><time>2024-05-04T07:36:22.000Z</time><ele>1285</ele></trkpt><trkpt lat="45.837195" lon="9.179793"><time>2024-05-04T07:36:23.000Z</time><ele>1285</ele></trkpt><trkpt lat="45.837199" lon="9.179808"><time>2024-05-04T07:36:24.000Z</time><ele>1285</ele></trkpt><trkpt lat="45.837197" lon="9.179823"><time>2024-05-04T07:36:25.000Z</time><ele>1285</ele></trkpt><trkpt lat="45.837196" lon="9.179836"><time>2024-05-04T07:36:26.000Z</time><ele>1285</ele></trkpt><trkpt lat="45.837198" lon="9.179844"><time>2024-05-04T07:36:27.000Z</time><ele>1285</ele></trkpt><trkpt lat="45.837206" lon="9.179847"><time>2024-05-04T07:36:28.000Z</time><ele>1285</ele></trkpt><trkpt lat="45.83721" lon="9.179847"><time>2024-05-04T07:36:29.000Z</time><ele>1285</ele></trkpt><trkpt lat="45.837211" lon="9.179846"><time>2024-05-04T07:36:30.000Z</time><ele>1285</ele></trkpt><trkpt lat="45.837211" lon="9.179844"><time>2024-05-04T07:36:31.000Z</time><ele>1285</ele></trkpt><trkpt lat="45.837212" lon="9.179844"><time>2024-05-04T07:36:32.000Z</time><ele>1285</ele></trkpt><trkpt lat="45.837209" lon="9.179845"><time>2024-05-04T07:36:33.000Z</time><ele>1285</ele></trkpt><trkpt lat="45.837202" lon="9.179842"><time>2024-05-04T07:36:34.000Z</time><ele>1285</ele></trkpt><trkpt lat="45.837198" lon="9.179847"><time>2024-05-04T07:36:35.000Z</time><ele>1285</ele></trkpt><trkpt lat="45.8372" lon="9.179853"><time>2024-05-04T07:36:36.000Z</time><ele>1285</ele></trkpt><trkpt lat="45.837201" lon="9.179857"><time>2024-05-04T07:36:37.000Z</time><ele>1285</ele></trkpt><trkpt lat="45.837202" lon="9.179861"><time>2024-05-04T07:36:38.000Z</time><ele>1285</ele></trkpt><trkpt lat="45.837207" lon="9.179868"><time>2024-05-04T07:36:39.000Z</time><ele>1285</ele></trkpt><trkpt lat="45.837209" lon="9.179876"><time>2024-05-04T07:36:40.000Z</time><ele>1285</ele></trkpt><trkpt lat="45.837211" lon="9.179886"><time>2024-05-04T07:36:41.000Z</time><ele>1285</ele></trkpt><trkpt lat="45.837208" lon="9.179902"><time>2024-05-04T07:36:42.000Z</time><ele>1285</ele></trkpt><trkpt lat="45.837207" lon="9.179914"><time>2024-05-04T07:36:43.000Z</time><ele>1285</ele></trkpt><trkpt lat="45.837207" lon="9.179929"><time>2024-05-04T07:36:44.000Z</time><ele>1285</ele></trkpt><trkpt lat="45.837206" lon="9.179941"><time>2024-05-04T07:36:45.000Z</time><ele>1285</ele></trkpt><trkpt lat="45.837208" lon="9.179951"><time>2024-05-04T07:36:46.000Z</time><ele>1285</ele></trkpt><trkpt lat="45.837209" lon="9.179958"><time>2024-05-04T07:36:47.000Z</time><ele>1285</ele></trkpt><trkpt lat="45.837207" lon="9.179974"><time>2024-05-04T07:36:48.000Z</time><ele>1285</ele></trkpt><trkpt lat="45.837204" lon="9.179987"><time>2024-05-04T07:36:49.000Z</time><ele>1285</ele></trkpt><trkpt lat="45.8372" lon="9.179998"><time>2024-05-04T07:36:50.000Z</time><ele>1285</ele></trkpt><trkpt lat="45.837201" lon="9.180002"><time>2024-05-04T07:36:51.000Z</time><ele>1285</ele></trkpt><trkpt lat="45.837198" lon="9.180007"><time>2024-05-04T07:36:52.000Z</time><ele>1285</ele></trkpt><trkpt lat="45.837196" lon="9.180017"><time>2024-05-04T07:36:53.000Z</time><ele>1285</ele></trkpt><trkpt lat="45.837195" lon="9.180022"><time>2024-05-04T07:36:54.000Z</time><ele>1285</ele></trkpt><trkpt lat="45.837194" lon="9.180035"><time>2024-05-04T07:36:55.000Z</time><ele>1285</ele></trkpt><trkpt lat="45.837195" lon="9.180039"><time>2024-05-04T07:36:56.000Z</time><ele>1285</ele></trkpt><trkpt lat="45.837197" lon="9.180047"><time>2024-05-04T07:36:57.000Z</time><ele>1285</ele></trkpt><trkpt lat="45.837196" lon="9.180052"><time>2024-05-04T07:36:58.000Z</time><ele>1285</ele></trkpt><trkpt lat="45.837195" lon="9.18006"><time>2024-05-04T07:36:59.000Z</time><ele>1285</ele></trkpt><trkpt lat="45.837195" lon="9.180071"><time>2024-05-04T07:37:00.000Z</time><ele>1285</ele></trkpt><trkpt lat="45.837192" lon="9.180085"><time>2024-05-04T07:37:01.000Z</time><ele>1285</ele></trkpt><trkpt lat="45.837188" lon="9.180099"><time>2024-05-04T07:37:02.000Z</time><ele>1285</ele></trkpt><trkpt lat="45.837187" lon="9.18011"><time>2024-05-04T07:37:03.000Z</time><ele>1285</ele></trkpt><trkpt lat="45.837188" lon="9.180115"><time>2024-05-04T07:37:04.000Z</time><ele>1279.4</ele></trkpt><trkpt lat="45.837195" lon="9.180131"><time>2024-05-04T07:37:05.000Z</time><ele>1279.4</ele></trkpt><trkpt lat="45.837201" lon="9.180147"><time>2024-05-04T07:37:06.000Z</time><ele>1279.4</ele></trkpt><trkpt lat="45.837201" lon="9.180161"><time>2024-05-04T07:37:07.000Z</time><ele>1279.4</ele></trkpt><trkpt lat="45.837199" lon="9.180174"><time>2024-05-04T07:37:08.000Z</time><ele>1279.4</ele></trkpt><trkpt lat="45.837194" lon="9.180187"><time>2024-05-04T07:37:09.000Z</time><ele>1279.4</ele></trkpt><trkpt lat="45.837193" lon="9.180197"><time>2024-05-04T07:37:10.000Z</time><ele>1279.2</ele></trkpt><trkpt lat="45.837188" lon="9.180205"><time>2024-05-04T07:37:11.000Z</time><ele>1279</ele></trkpt><trkpt lat="45.837188" lon="9.180213"><time>2024-05-04T07:37:12.000Z</time><ele>1279</ele></trkpt><trkpt lat="45.837191" lon="9.180221"><time>2024-05-04T07:37:13.000Z</time><ele>1278.8</ele></trkpt><trkpt lat="45.837195" lon="9.180231"><time>2024-05-04T07:37:14.000Z</time><ele>1278.8</ele></trkpt><trkpt lat="45.837197" lon="9.180238"><time>2024-05-04T07:37:15.000Z</time><ele>1278.6</ele></trkpt><trkpt lat="45.837195" lon="9.180248"><time>2024-05-04T07:37:16.000Z</time><ele>1278.4</ele></trkpt><trkpt lat="45.837199" lon="9.180253"><time>2024-05-04T07:37:17.000Z</time><ele>1278.2</ele></trkpt><trkpt lat="45.8372" lon="9.180259"><time>2024-05-04T07:37:18.000Z</time><ele>1278.2</ele></trkpt><trkpt lat="45.837208" lon="9.180265"><time>2024-05-04T07:37:19.000Z</time><ele>1278</ele></trkpt><trkpt lat="45.837212" lon="9.180267"><time>2024-05-04T07:37:20.000Z</time><ele>1277.8</ele></trkpt><trkpt lat="45.837214" lon="9.180271"><time>2024-05-04T07:37:21.000Z</time><ele>1277.8</ele></trkpt><trkpt lat="45.837216" lon="9.180283"><time>2024-05-04T07:37:22.000Z</time><ele>1277.6</ele></trkpt><trkpt lat="45.837217" lon="9.180297"><time>2024-05-04T07:37:23.000Z</time><ele>1277.4</ele></trkpt><trkpt lat="45.837218" lon="9.180305"><time>2024-05-04T07:37:24.000Z</time><ele>1277.2</ele></trkpt><trkpt lat="45.837218" lon="9.180312"><time>2024-05-04T07:37:25.000Z</time><ele>1277</ele></trkpt><trkpt lat="45.837218" lon="9.180318"><time>2024-05-04T07:37:26.000Z</time><ele>1277</ele></trkpt><trkpt lat="45.83722" lon="9.180327"><time>2024-05-04T07:37:27.000Z</time><ele>1276.8</ele></trkpt><trkpt lat="45.837224" lon="9.180339"><time>2024-05-04T07:37:28.000Z</time><ele>1276.6</ele></trkpt><trkpt lat="45.837228" lon="9.180345"><time>2024-05-04T07:37:29.000Z</time><ele>1276.2</ele></trkpt><trkpt lat="45.837229" lon="9.180349"><time>2024-05-04T07:37:30.000Z</time><ele>1276.2</ele></trkpt><trkpt lat="45.83723" lon="9.180353"><time>2024-05-04T07:37:31.000Z</time><ele>1276</ele></trkpt><trkpt lat="45.837234" lon="9.180362"><time>2024-05-04T07:37:32.000Z</time><ele>1275.8</ele></trkpt><trkpt lat="45.837237" lon="9.18037"><time>2024-05-04T07:37:33.000Z</time><ele>1275.8</ele></trkpt><trkpt lat="45.837241" lon="9.180382"><time>2024-05-04T07:37:34.000Z</time><ele>1275.6</ele></trkpt><trkpt lat="45.837244" lon="9.180395"><time>2024-05-04T07:37:35.000Z</time><ele>1275.6</ele></trkpt><trkpt lat="45.837247" lon="9.180405"><time>2024-05-04T07:37:36.000Z</time><ele>1275.6</ele></trkpt><trkpt lat="45.837248" lon="9.180413"><time>2024-05-04T07:37:37.000Z</time><ele>1275.6</ele></trkpt><trkpt lat="45.837242" lon="9.180423"><time>2024-05-04T07:37:38.000Z</time><ele>1275.4</ele></trkpt><trkpt lat="45.837239" lon="9.180433"><time>2024-05-04T07:37:39.000Z</time><ele>1275.4</ele></trkpt><trkpt lat="45.837241" lon="9.180444"><time>2024-05-04T07:37:40.000Z</time><ele>1275.4</ele></trkpt><trkpt lat="45.837238" lon="9.180455"><time>2024-05-04T07:37:41.000Z</time><ele>1275.2</ele></trkpt><trkpt lat="45.837238" lon="9.180464"><time>2024-05-04T07:37:42.000Z</time><ele>1275</ele></trkpt><trkpt lat="45.837231" lon="9.180482"><time>2024-05-04T07:37:43.000Z</time><ele>1274.8</ele></trkpt><trkpt lat="45.837233" lon="9.180494"><time>2024-05-04T07:37:44.000Z</time><ele>1273.8</ele></trkpt><trkpt lat="45.837235" lon="9.180513"><time>2024-05-04T07:37:45.000Z</time><ele>1273.8</ele></trkpt><trkpt lat="45.83724" lon="9.180525"><time>2024-05-04T07:37:46.000Z</time><ele>1273.8</ele></trkpt><trkpt lat="45.837245" lon="9.180536"><time>2024-05-04T07:37:47.000Z</time><ele>1273.8</ele></trkpt><trkpt lat="45.83725" lon="9.180551"><time>2024-05-04T07:37:48.000Z</time><ele>1271.4</ele></trkpt><trkpt lat="45.837252" lon="9.180576"><time>2024-05-04T07:37:49.000Z</time><ele>1270</ele></trkpt><trkpt lat="45.837264" lon="9.180603"><time>2024-05-04T07:37:50.000Z</time><ele>1269.2</ele></trkpt><trkpt lat="45.837266" lon="9.180612"><time>2024-05-04T07:37:51.000Z</time><ele>1268.8</ele></trkpt><trkpt lat="45.837275" lon="9.180628"><time>2024-05-04T07:37:52.000Z</time><ele>1268.4</ele></trkpt><trkpt lat="45.837267" lon="9.180643"><time>2024-05-04T07:37:53.000Z</time><ele>1268.2</ele></trkpt><trkpt lat="45.837266" lon="9.18065"><time>2024-05-04T07:37:54.000Z</time><ele>1268.2</ele></trkpt><trkpt lat="45.837267" lon="9.180657"><time>2024-05-04T07:37:55.000Z</time><ele>1268</ele></trkpt><trkpt lat="45.837255" lon="9.180662"><time>2024-05-04T07:37:56.000Z</time><ele>1268</ele></trkpt><trkpt lat="45.837235" lon="9.180676"><time>2024-05-04T07:37:57.000Z</time><ele>1268</ele></trkpt><trkpt lat="45.837231" lon="9.180694"><time>2024-05-04T07:37:58.000Z</time><ele>1268</ele></trkpt><trkpt lat="45.837235" lon="9.180707"><time>2024-05-04T07:37:59.000Z</time><ele>1267.8</ele></trkpt><trkpt lat="45.837239" lon="9.180721"><time>2024-05-04T07:38:00.000Z</time><ele>1267.6</ele></trkpt><trkpt lat="45.837241" lon="9.180726"><time>2024-05-04T07:38:01.000Z</time><ele>1267.6</ele></trkpt><trkpt lat="45.837241" lon="9.180731"><time>2024-05-04T07:38:02.000Z</time><ele>1267.4</ele></trkpt><trkpt lat="45.837189" lon="9.180724"><time>2024-05-04T07:38:03.000Z</time><ele>1267.2</ele></trkpt><trkpt lat="45.837179" lon="9.180721"><time>2024-05-04T07:38:04.000Z</time><ele>1267</ele></trkpt><trkpt lat="45.837173" lon="9.180735"><time>2024-05-04T07:38:05.000Z</time><ele>1267</ele></trkpt><trkpt lat="45.83717" lon="9.180742"><time>2024-05-04T07:38:06.000Z</time><ele>1267</ele></trkpt><trkpt lat="45.837168" lon="9.180746"><time>2024-05-04T07:38:07.000Z</time><ele>1267</ele></trkpt><trkpt lat="45.837166" lon="9.180749"><time>2024-05-04T07:38:08.000Z</time><ele>1267</ele></trkpt><trkpt lat="45.837165" lon="9.180754"><time>2024-05-04T07:38:09.000Z</time><ele>1266.8</ele></trkpt><trkpt lat="45.837165" lon="9.180756"><time>2024-05-04T07:38:10.000Z</time><ele>1266.8</ele></trkpt><trkpt lat="45.837165" lon="9.180756"><time>2024-05-04T07:38:11.000Z</time><ele>1266.8</ele></trkpt><trkpt lat="45.837166" lon="9.180756"><time>2024-05-04T07:38:12.000Z</time><ele>1266.8</ele></trkpt><trkpt lat="45.837166" lon="9.180757"><time>2024-05-04T07:38:13.000Z</time><ele>1266.8</ele></trkpt><trkpt lat="45.837163" lon="9.180754"><time>2024-05-04T07:38:14.000Z</time><ele>1266.8</ele></trkpt><trkpt lat="45.837162" lon="9.180755"><time>2024-05-04T07:38:15.000Z</time><ele>1266.8</ele></trkpt><trkpt lat="45.837157" lon="9.180758"><time>2024-05-04T07:38:16.000Z</time><ele>1266.8</ele></trkpt><trkpt lat="45.83716" lon="9.180764"><time>2024-05-04T07:38:17.000Z</time><ele>1266.8</ele></trkpt><trkpt lat="45.837163" lon="9.180762"><time>2024-05-04T07:38:18.000Z</time><ele>1266.8</ele></trkpt><trkpt lat="45.837169" lon="9.18076"><time>2024-05-04T07:38:19.000Z</time><ele>1266.8</ele></trkpt><trkpt lat="45.837171" lon="9.180756"><time>2024-05-04T07:38:20.000Z</time><ele>1266.6</ele></trkpt><trkpt lat="45.837171" lon="9.180754"><time>2024-05-04T07:38:21.000Z</time><ele>1266.6</ele></trkpt><trkpt lat="45.837169" lon="9.180752"><time>2024-05-04T07:38:22.000Z</time><ele>1266.6</ele></trkpt><trkpt lat="45.837169" lon="9.180748"><time>2024-05-04T07:38:23.000Z</time><ele>1266.8</ele></trkpt><trkpt lat="45.83717" lon="9.180745"><time>2024-05-04T07:38:24.000Z</time><ele>1266.8</ele></trkpt><trkpt lat="45.837168" lon="9.180742"><time>2024-05-04T07:38:25.000Z</time><ele>1266.8</ele></trkpt><trkpt lat="45.837168" lon="9.180739"><time>2024-05-04T07:38:26.000Z</time><ele>1267</ele></trkpt><trkpt lat="45.837167" lon="9.18074"><time>2024-05-04T07:38:27.000Z</time><ele>1267</ele></trkpt><trkpt lat="45.837167" lon="9.18074"><time>2024-05-04T07:38:28.000Z</time><ele>1267</ele></trkpt><trkpt lat="45.837167" lon="9.18074"><time>2024-05-04T07:38:29.000Z</time><ele>1266.8</ele></trkpt><trkpt lat="45.837167" lon="9.18074"><time>2024-05-04T07:38:30.000Z</time><ele>1266.8</ele></trkpt><trkpt lat="45.837167" lon="9.18074"><time>2024-05-04T07:38:31.000Z</time><ele>1266.8</ele></trkpt><trkpt lat="45.837167" lon="9.18074"><time>2024-05-04T07:38:32.000Z</time><ele>1266.8</ele></trkpt><trkpt lat="45.837167" lon="9.18074"><time>2024-05-04T07:38:33.000Z</time><ele>1266.6</ele></trkpt><trkpt lat="45.837167" lon="9.18074"><time>2024-05-04T07:38:34.000Z</time><ele>1266.6</ele></trkpt><trkpt lat="45.837168" lon="9.18074"><time>2024-05-04T07:38:35.000Z</time><ele>1266.6</ele></trkpt><trkpt lat="45.837168" lon="9.180742"><time>2024-05-04T07:38:36.000Z</time><ele>1266.4</ele></trkpt><trkpt lat="45.837169" lon="9.180745"><time>2024-05-04T07:38:37.000Z</time><ele>1266.2</ele></trkpt><trkpt lat="45.837169" lon="9.180748"><time>2024-05-04T07:38:38.000Z</time><ele>1266</ele></trkpt><trkpt lat="45.837169" lon="9.18075"><time>2024-05-04T07:38:39.000Z</time><ele>1265.8</ele></trkpt><trkpt lat="45.83717" lon="9.180752"><time>2024-05-04T07:38:40.000Z</time><ele>1265.8</ele></trkpt><trkpt lat="45.837171" lon="9.180754"><time>2024-05-04T07:38:41.000Z</time><ele>1265.6</ele></trkpt><trkpt lat="45.837171" lon="9.180756"><time>2024-05-04T07:38:42.000Z</time><ele>1265.6</ele></trkpt><trkpt lat="45.837173" lon="9.18076"><time>2024-05-04T07:38:43.000Z</time><ele>1265.4</ele></trkpt><trkpt lat="45.837178" lon="9.18076"><time>2024-05-04T07:38:44.000Z</time><ele>1265.4</ele></trkpt><trkpt lat="45.837183" lon="9.180769"><time>2024-05-04T07:38:45.000Z</time><ele>1265.2</ele></trkpt><trkpt lat="45.837186" lon="9.180776"><time>2024-05-04T07:38:46.000Z</time><ele>1265</ele></trkpt><trkpt lat="45.837186" lon="9.180785"><time>2024-05-04T07:38:47.000Z</time><ele>1265</ele></trkpt><trkpt lat="45.837187" lon="9.18079"><time>2024-05-04T07:38:48.000Z</time><ele>1264.8</ele></trkpt><trkpt lat="45.837187" lon="9.180798"><time>2024-05-04T07:38:49.000Z</time><ele>1264.6</ele></trkpt><trkpt lat="45.837187" lon="9.180807"><time>2024-05-04T07:38:50.000Z</time><ele>1264.4</ele></trkpt><trkpt lat="45.837193" lon="9.180822"><time>2024-05-04T07:38:51.000Z</time><ele>1264.4</ele></trkpt><trkpt lat="45.837198" lon="9.180852"><time>2024-05-04T07:38:52.000Z</time><ele>1264.2</ele></trkpt><trkpt lat="45.837204" lon="9.180877"><time>2024-05-04T07:38:53.000Z</time><ele>1264</ele></trkpt><trkpt lat="45.837214" lon="9.180906"><time>2024-05-04T07:38:54.000Z</time><ele>1264</ele></trkpt><trkpt lat="45.837223" lon="9.180933"><time>2024-05-04T07:38:55.000Z</time><ele>1263.8</ele></trkpt><trkpt lat="45.837228" lon="9.180959"><time>2024-05-04T07:38:56.000Z</time><ele>1263.6</ele></trkpt><trkpt lat="45.837231" lon="9.180989"><time>2024-05-04T07:38:57.000Z</time><ele>1263.4</ele></trkpt><trkpt lat="45.83724" lon="9.181011"><time>2024-05-04T07:38:58.000Z</time><ele>1263.2</ele></trkpt><trkpt lat="45.837246" lon="9.181035"><time>2024-05-04T07:38:59.000Z</time><ele>1262.8</ele></trkpt><trkpt lat="45.837248" lon="9.181064"><time>2024-05-04T07:39:00.000Z</time><ele>1262.6</ele></trkpt><trkpt lat="45.837251" lon="9.181077"><time>2024-05-04T07:39:01.000Z</time><ele>1262.6</ele></trkpt><trkpt lat="45.837251" lon="9.181093"><time>2024-05-04T07:39:02.000Z</time><ele>1262.4</ele></trkpt><trkpt lat="45.837254" lon="9.181109"><time>2024-05-04T07:39:03.000Z</time><ele>1262.4</ele></trkpt><trkpt lat="45.837257" lon="9.181124"><time>2024-05-04T07:39:04.000Z</time><ele>1262.2</ele></trkpt><trkpt lat="45.837257" lon="9.181138"><time>2024-05-04T07:39:05.000Z</time><ele>1262</ele></trkpt><trkpt lat="45.837267" lon="9.181151"><time>2024-05-04T07:39:06.000Z</time><ele>1262</ele></trkpt><trkpt lat="45.83727" lon="9.181168"><time>2024-05-04T07:39:07.000Z</time><ele>1261.6</ele></trkpt><trkpt lat="45.837271" lon="9.181175"><time>2024-05-04T07:39:08.000Z</time><ele>1261.4</ele></trkpt><trkpt lat="45.837272" lon="9.18118"><time>2024-05-04T07:39:09.000Z</time><ele>1261.2</ele></trkpt><trkpt lat="45.83727" lon="9.181191"><time>2024-05-04T07:39:10.000Z</time><ele>1261.2</ele></trkpt><trkpt lat="45.837269" lon="9.1812"><time>2024-05-04T07:39:11.000Z</time><ele>1261</ele></trkpt><trkpt lat="45.83727" lon="9.181213"><time>2024-05-04T07:39:12.000Z</time><ele>1261</ele></trkpt><trkpt lat="45.837272" lon="9.181227"><time>2024-05-04T07:39:13.000Z</time><ele>1261</ele></trkpt><trkpt lat="45.837276" lon="9.181243"><time>2024-05-04T07:39:14.000Z</time><ele>1260.8</ele></trkpt><trkpt lat="45.837283" lon="9.181257"><time>2024-05-04T07:39:15.000Z</time><ele>1260.8</ele></trkpt><trkpt lat="45.837289" lon="9.181272"><time>2024-05-04T07:39:16.000Z</time><ele>1260.8</ele></trkpt><trkpt lat="45.837296" lon="9.181284"><time>2024-05-04T07:39:17.000Z</time><ele>1260.4</ele></trkpt><trkpt lat="45.837299" lon="9.181296"><time>2024-05-04T07:39:18.000Z</time><ele>1260.2</ele></trkpt><trkpt lat="45.837302" lon="9.181304"><time>2024-05-04T07:39:19.000Z</time><ele>1260</ele></trkpt><trkpt lat="45.837303" lon="9.181312"><time>2024-05-04T07:39:20.000Z</time><ele>1259.8</ele></trkpt><trkpt lat="45.837305" lon="9.181318"><time>2024-05-04T07:39:21.000Z</time><ele>1259.6</ele></trkpt><trkpt lat="45.837308" lon="9.181328"><time>2024-05-04T07:39:22.000Z</time><ele>1259.4</ele></trkpt><trkpt lat="45.837311" lon="9.181336"><time>2024-05-04T07:39:23.000Z</time><ele>1259.4</ele></trkpt><trkpt lat="45.837317" lon="9.181342"><time>2024-05-04T07:39:24.000Z</time><ele>1259.4</ele></trkpt><trkpt lat="45.83732" lon="9.181348"><time>2024-05-04T07:39:25.000Z</time><ele>1259.2</ele></trkpt><trkpt lat="45.837321" lon="9.181351"><time>2024-05-04T07:39:26.000Z</time><ele>1259.2</ele></trkpt><trkpt lat="45.837322" lon="9.181352"><time>2024-05-04T07:39:27.000Z</time><ele>1259.2</ele></trkpt><trkpt lat="45.837323" lon="9.181352"><time>2024-05-04T07:39:28.000Z</time><ele>1259.2</ele></trkpt><trkpt lat="45.837324" lon="9.181352"><time>2024-05-04T07:39:29.000Z</time><ele>1259.2</ele></trkpt><trkpt lat="45.837323" lon="9.181356"><time>2024-05-04T07:39:30.000Z</time><ele>1259.2</ele></trkpt><trkpt lat="45.837324" lon="9.181365"><time>2024-05-04T07:39:31.000Z</time><ele>1259.2</ele></trkpt><trkpt lat="45.837324" lon="9.181375"><time>2024-05-04T07:39:32.000Z</time><ele>1259.2</ele></trkpt><trkpt lat="45.837326" lon="9.181389"><time>2024-05-04T07:39:33.000Z</time><ele>1259.2</ele></trkpt><trkpt lat="45.837328" lon="9.181409"><time>2024-05-04T07:39:34.000Z</time><ele>1259</ele></trkpt><trkpt lat="45.837329" lon="9.181424"><time>2024-05-04T07:39:35.000Z</time><ele>1258.8</ele></trkpt><trkpt lat="45.837332" lon="9.181439"><time>2024-05-04T07:39:36.000Z</time><ele>1258.4</ele></trkpt><trkpt lat="45.837333" lon="9.181459"><time>2024-05-04T07:39:37.000Z</time><ele>1258.2</ele></trkpt><trkpt lat="45.837334" lon="9.181473"><time>2024-05-04T07:39:38.000Z</time><ele>1258.2</ele></trkpt><trkpt lat="45.837337" lon="9.181494"><time>2024-05-04T07:39:39.000Z</time><ele>1258.2</ele></trkpt><trkpt lat="45.837343" lon="9.181514"><time>2024-05-04T07:39:40.000Z</time><ele>1258</ele></trkpt><trkpt lat="45.83735" lon="9.181524"><time>2024-05-04T07:39:41.000Z</time><ele>1257.8</ele></trkpt><trkpt lat="45.837353" lon="9.181533"><time>2024-05-04T07:39:42.000Z</time><ele>1257.8</ele></trkpt><trkpt lat="45.837361" lon="9.181547"><time>2024-05-04T07:39:43.000Z</time><ele>1257.6</ele></trkpt><trkpt lat="45.837364" lon="9.181563"><time>2024-05-04T07:39:44.000Z</time><ele>1257.6</ele></trkpt><trkpt lat="45.837367" lon="9.181579"><time>2024-05-04T07:39:45.000Z</time><ele>1257.6</ele></trkpt><trkpt lat="45.837367" lon="9.181591"><time>2024-05-04T07:39:46.000Z</time><ele>1257.8</ele></trkpt><trkpt lat="45.83737" lon="9.181606"><time>2024-05-04T07:39:47.000Z</time><ele>1258</ele></trkpt><trkpt lat="45.837374" lon="9.181622"><time>2024-05-04T07:39:48.000Z</time><ele>1258.2</ele></trkpt><trkpt lat="45.837377" lon="9.181637"><time>2024-05-04T07:39:49.000Z</time><ele>1258.2</ele></trkpt><trkpt lat="45.837382" lon="9.181654"><time>2024-05-04T07:39:50.000Z</time><ele>1258.4</ele></trkpt><trkpt lat="45.837387" lon="9.181666"><time>2024-05-04T07:39:51.000Z</time><ele>1258.4</ele></trkpt><trkpt lat="45.837394" lon="9.181682"><time>2024-05-04T07:39:52.000Z</time><ele>1258.6</ele></trkpt><trkpt lat="45.837398" lon="9.181698"><time>2024-05-04T07:39:53.000Z</time><ele>1258.6</ele></trkpt><trkpt lat="45.837401" lon="9.181712"><time>2024-05-04T07:39:54.000Z</time><ele>1259</ele></trkpt><trkpt lat="45.837404" lon="9.181727"><time>2024-05-04T07:39:55.000Z</time><ele>1259.4</ele></trkpt><trkpt lat="45.837407" lon="9.181741"><time>2024-05-04T07:39:56.000Z</time><ele>1259.6</ele></trkpt><trkpt lat="45.837411" lon="9.181749"><time>2024-05-04T07:39:57.000Z</time><ele>1259.6</ele></trkpt><trkpt lat="45.83742" lon="9.18176"><time>2024-05-04T07:39:58.000Z</time><ele>1259.8</ele></trkpt><trkpt lat="45.837424" lon="9.181769"><time>2024-05-04T07:39:59.000Z</time><ele>1260</ele></trkpt><trkpt lat="45.837431" lon="9.18178"><time>2024-05-04T07:40:00.000Z</time><ele>1260.2</ele></trkpt><trkpt lat="45.837434" lon="9.181795"><time>2024-05-04T07:40:01.000Z</time><ele>1260.4</ele></trkpt><trkpt lat="45.837437" lon="9.181806"><time>2024-05-04T07:40:02.000Z</time><ele>1260.4</ele></trkpt><trkpt lat="45.837442" lon="9.181822"><time>2024-05-04T07:40:03.000Z</time><ele>1260.8</ele></trkpt><trkpt lat="45.837448" lon="9.181839"><time>2024-05-04T07:40:04.000Z</time><ele>1261</ele></trkpt><trkpt lat="45.837453" lon="9.181853"><time>2024-05-04T07:40:05.000Z</time><ele>1261.2</ele></trkpt><trkpt lat="45.837461" lon="9.181866"><time>2024-05-04T07:40:06.000Z</time><ele>1261.2</ele></trkpt><trkpt lat="45.837467" lon="9.181881"><time>2024-05-04T07:40:07.000Z</time><ele>1261.4</ele></trkpt><trkpt lat="45.837474" lon="9.181895"><time>2024-05-04T07:40:08.000Z</time><ele>1261.4</ele></trkpt><trkpt lat="45.83748" lon="9.181908"><time>2024-05-04T07:40:09.000Z</time><ele>1261.4</ele></trkpt><trkpt lat="45.837485" lon="9.181918"><time>2024-05-04T07:40:10.000Z</time><ele>1261.6</ele></trkpt><trkpt lat="45.837491" lon="9.181931"><time>2024-05-04T07:40:11.000Z</time><ele>1261.8</ele></trkpt><trkpt lat="45.837496" lon="9.181945"><time>2024-05-04T07:40:12.000Z</time><ele>1261.8</ele></trkpt><trkpt lat="45.837504" lon="9.181959"><time>2024-05-04T07:40:13.000Z</time><ele>1262</ele></trkpt><trkpt lat="45.837513" lon="9.18197"><time>2024-05-04T07:40:14.000Z</time><ele>1262.2</ele></trkpt><trkpt lat="45.837521" lon="9.18198"><time>2024-05-04T07:40:15.000Z</time><ele>1262.4</ele></trkpt><trkpt lat="45.837525" lon="9.181992"><time>2024-05-04T07:40:16.000Z</time><ele>1262.4</ele></trkpt><trkpt lat="45.837532" lon="9.182005"><time>2024-05-04T07:40:17.000Z</time><ele>1262.6</ele></trkpt><trkpt lat="45.837538" lon="9.182017"><time>2024-05-04T07:40:18.000Z</time><ele>1262.6</ele></trkpt><trkpt lat="45.837544" lon="9.182029"><time>2024-05-04T07:40:19.000Z</time><ele>1262.8</ele></trkpt><trkpt lat="45.837551" lon="9.18204"><time>2024-05-04T07:40:20.000Z</time><ele>1262.8</ele></trkpt><trkpt lat="45.83756" lon="9.18205"><time>2024-05-04T07:40:21.000Z</time><ele>1262.8</ele></trkpt><trkpt lat="45.837568" lon="9.182056"><time>2024-05-04T07:40:22.000Z</time><ele>1262.8</ele></trkpt><trkpt lat="45.837571" lon="9.182063"><time>2024-05-04T07:40:23.000Z</time><ele>1263</ele></trkpt><trkpt lat="45.837574" lon="9.182067"><time>2024-05-04T07:40:24.000Z</time><ele>1263.4</ele></trkpt><trkpt lat="45.837578" lon="9.182073"><time>2024-05-04T07:40:25.000Z</time><ele>1263.6</ele></trkpt><trkpt lat="45.837583" lon="9.182087"><time>2024-05-04T07:40:26.000Z</time><ele>1263.8</ele></trkpt><trkpt lat="45.837588" lon="9.182101"><time>2024-05-04T07:40:27.000Z</time><ele>1264</ele></trkpt><trkpt lat="45.837593" lon="9.182114"><time>2024-05-04T07:40:28.000Z</time><ele>1264.2</ele></trkpt><trkpt lat="45.837597" lon="9.182127"><time>2024-05-04T07:40:29.000Z</time><ele>1264.4</ele></trkpt><trkpt lat="45.837601" lon="9.182139"><time>2024-05-04T07:40:30.000Z</time><ele>1264.4</ele></trkpt><trkpt lat="45.837606" lon="9.182149"><time>2024-05-04T07:40:31.000Z</time><ele>1264.6</ele></trkpt><trkpt lat="45.837609" lon="9.182161"><time>2024-05-04T07:40:32.000Z</time><ele>1264.6</ele></trkpt><trkpt lat="45.837612" lon="9.182172"><time>2024-05-04T07:40:33.000Z</time><ele>1264.8</ele></trkpt><trkpt lat="45.837617" lon="9.182184"><time>2024-05-04T07:40:34.000Z</time><ele>1265</ele></trkpt><trkpt lat="45.837622" lon="9.182195"><time>2024-05-04T07:40:35.000Z</time><ele>1265.2</ele></trkpt><trkpt lat="45.837624" lon="9.182206"><time>2024-05-04T07:40:36.000Z</time><ele>1265.2</ele></trkpt><trkpt lat="45.837626" lon="9.18222"><time>2024-05-04T07:40:37.000Z</time><ele>1265.4</ele></trkpt><trkpt lat="45.83763" lon="9.182235"><time>2024-05-04T07:40:38.000Z</time><ele>1265.6</ele></trkpt><trkpt lat="45.837633" lon="9.18225"><time>2024-05-04T07:40:39.000Z</time><ele>1265.8</ele></trkpt><trkpt lat="45.83764" lon="9.182263"><time>2024-05-04T07:40:40.000Z</time><ele>1265.8</ele></trkpt><trkpt lat="45.837645" lon="9.182277"><time>2024-05-04T07:40:41.000Z</time><ele>1266.2</ele></trkpt><trkpt lat="45.837649" lon="9.182291"><time>2024-05-04T07:40:42.000Z</time><ele>1266.4</ele></trkpt><trkpt lat="45.837651" lon="9.182303"><time>2024-05-04T07:40:43.000Z</time><ele>1266.6</ele></trkpt><trkpt lat="45.837654" lon="9.182316"><time>2024-05-04T07:40:44.000Z</time><ele>1266.8</ele></trkpt><trkpt lat="45.837657" lon="9.182325"><time>2024-05-04T07:40:45.000Z</time><ele>1266.8</ele></trkpt><trkpt lat="45.837658" lon="9.182336"><time>2024-05-04T07:40:46.000Z</time><ele>1267</ele></trkpt><trkpt lat="45.837661" lon="9.182348"><time>2024-05-04T07:40:47.000Z</time><ele>1267.2</ele></trkpt><trkpt lat="45.837663" lon="9.18236"><time>2024-05-04T07:40:48.000Z</time><ele>1267.4</ele></trkpt><trkpt lat="45.837665" lon="9.182371"><time>2024-05-04T07:40:49.000Z</time><ele>1267.6</ele></trkpt><trkpt lat="45.837668" lon="9.18238"><time>2024-05-04T07:40:50.000Z</time><ele>1267.8</ele></trkpt><trkpt lat="45.837669" lon="9.182389"><time>2024-05-04T07:40:51.000Z</time><ele>1268</ele></trkpt><trkpt lat="45.837669" lon="9.182399"><time>2024-05-04T07:40:52.000Z</time><ele>1268</ele></trkpt><trkpt lat="45.837669" lon="9.18241"><time>2024-05-04T07:40:53.000Z</time><ele>1268.2</ele></trkpt><trkpt lat="45.837671" lon="9.182421"><time>2024-05-04T07:40:54.000Z</time><ele>1268.4</ele></trkpt><trkpt lat="45.83767" lon="9.182435"><time>2024-05-04T07:40:55.000Z</time><ele>1268.6</ele></trkpt><trkpt lat="45.837669" lon="9.18245"><time>2024-05-04T07:40:56.000Z</time><ele>1268.8</ele></trkpt><trkpt lat="45.837671" lon="9.18246"><time>2024-05-04T07:40:57.000Z</time><ele>1269</ele></trkpt><trkpt lat="45.837672" lon="9.182472"><time>2024-05-04T07:40:58.000Z</time><ele>1269.2</ele></trkpt><trkpt lat="45.83767" lon="9.182483"><time>2024-05-04T07:40:59.000Z</time><ele>1269.2</ele></trkpt><trkpt lat="45.837668" lon="9.182497"><time>2024-05-04T07:41:00.000Z</time><ele>1269.4</ele></trkpt><trkpt lat="45.837665" lon="9.18251"><time>2024-05-04T07:41:01.000Z</time><ele>1269.6</ele></trkpt><trkpt lat="45.837662" lon="9.182524"><time>2024-05-04T07:41:02.000Z</time><ele>1269.6</ele></trkpt><trkpt lat="45.83766" lon="9.182539"><time>2024-05-04T07:41:03.000Z</time><ele>1269.8</ele></trkpt><trkpt lat="45.83766" lon="9.182551"><time>2024-05-04T07:41:04.000Z</time><ele>1269.8</ele></trkpt><trkpt lat="45.83766" lon="9.182565"><time>2024-05-04T07:41:05.000Z</time><ele>1270</ele></trkpt><trkpt lat="45.837659" lon="9.18258"><time>2024-05-04T07:41:06.000Z</time><ele>1270.2</ele></trkpt><trkpt lat="45.837659" lon="9.182597"><time>2024-05-04T07:41:07.000Z</time><ele>1270.4</ele></trkpt><trkpt lat="45.837659" lon="9.182611"><time>2024-05-04T07:41:08.000Z</time><ele>1270.6</ele></trkpt><trkpt lat="45.837657" lon="9.182626"><time>2024-05-04T07:41:09.000Z</time><ele>1270.6</ele></trkpt><trkpt lat="45.837659" lon="9.182642"><time>2024-05-04T07:41:10.000Z</time><ele>1270.8</ele></trkpt><trkpt lat="45.837658" lon="9.182656"><time>2024-05-04T07:41:11.000Z</time><ele>1270.8</ele></trkpt><trkpt lat="45.837658" lon="9.182666"><time>2024-05-04T07:41:12.000Z</time><ele>1270.8</ele></trkpt><trkpt lat="45.83766" lon="9.182677"><time>2024-05-04T07:41:13.000Z</time><ele>1271</ele></trkpt><trkpt lat="45.837662" lon="9.18269"><time>2024-05-04T07:41:14.000Z</time><ele>1271</ele></trkpt><trkpt lat="45.837664" lon="9.182702"><time>2024-05-04T07:41:15.000Z</time><ele>1271</ele></trkpt><trkpt lat="45.837665" lon="9.182714"><time>2024-05-04T07:41:16.000Z</time><ele>1271.2</ele></trkpt><trkpt lat="45.837666" lon="9.182726"><time>2024-05-04T07:41:17.000Z</time><ele>1271.2</ele></trkpt><trkpt lat="45.837665" lon="9.182737"><time>2024-05-04T07:41:18.000Z</time><ele>1271.4</ele></trkpt><trkpt lat="45.837664" lon="9.182749"><time>2024-05-04T07:41:19.000Z</time><ele>1271.4</ele></trkpt><trkpt lat="45.837669" lon="9.182756"><time>2024-05-04T07:41:20.000Z</time><ele>1271.4</ele></trkpt><trkpt lat="45.837672" lon="9.182763"><time>2024-05-04T07:41:21.000Z</time><ele>1271.4</ele></trkpt><trkpt lat="45.837677" lon="9.182768"><time>2024-05-04T07:41:22.000Z</time><ele>1271.4</ele></trkpt><trkpt lat="45.837685" lon="9.182771"><time>2024-05-04T07:41:23.000Z</time><ele>1271.4</ele></trkpt><trkpt lat="45.837688" lon="9.182776"><time>2024-05-04T07:41:24.000Z</time><ele>1271.6</ele></trkpt><trkpt lat="45.837689" lon="9.18278"><time>2024-05-04T07:41:25.000Z</time><ele>1271.6</ele></trkpt><trkpt lat="45.837691" lon="9.182782"><time>2024-05-04T07:41:26.000Z</time><ele>1271.6</ele></trkpt><trkpt lat="45.837691" lon="9.182783"><time>2024-05-04T07:41:27.000Z</time><ele>1271.8</ele></trkpt><trkpt lat="45.83769" lon="9.182786"><time>2024-05-04T07:41:28.000Z</time><ele>1271.8</ele></trkpt><trkpt lat="45.837684" lon="9.182786"><time>2024-05-04T07:41:29.000Z</time><ele>1271.8</ele></trkpt><trkpt lat="45.837677" lon="9.18278"><time>2024-05-04T07:41:30.000Z</time><ele>1271.8</ele></trkpt><trkpt lat="45.837672" lon="9.182778"><time>2024-05-04T07:41:31.000Z</time><ele>1271.8</ele></trkpt><trkpt lat="45.837669" lon="9.182777"><time>2024-05-04T07:41:32.000Z</time><ele>1271.8</ele></trkpt><trkpt lat="45.837668" lon="9.182778"><time>2024-05-04T07:41:33.000Z</time><ele>1272</ele></trkpt><trkpt lat="45.837668" lon="9.182779"><time>2024-05-04T07:41:34.000Z</time><ele>1272</ele></trkpt><trkpt lat="45.837668" lon="9.182779"><time>2024-05-04T07:41:35.000Z</time><ele>1272.2</ele></trkpt><trkpt lat="45.837668" lon="9.182779"><time>2024-05-04T07:41:36.000Z</time><ele>1272.2</ele></trkpt><trkpt lat="45.837668" lon="9.182779"><time>2024-05-04T07:41:37.000Z</time><ele>1272.4</ele></trkpt><trkpt lat="45.837668" lon="9.182779"><time>2024-05-04T07:41:38.000Z</time><ele>1272.2</ele></trkpt><trkpt lat="45.837668" lon="9.182779"><time>2024-05-04T07:41:39.000Z</time><ele>1272.2</ele></trkpt><trkpt lat="45.837668" lon="9.182779"><time>2024-05-04T07:41:40.000Z</time><ele>1272.2</ele></trkpt><trkpt lat="45.837668" lon="9.182779"><time>2024-05-04T07:41:41.000Z</time><ele>1272</ele></trkpt><trkpt lat="45.837668" lon="9.182779"><time>2024-05-04T07:41:42.000Z</time><ele>1272</ele></trkpt><trkpt lat="45.837669" lon="9.182779"><time>2024-05-04T07:41:43.000Z</time><ele>1272</ele></trkpt><trkpt lat="45.837669" lon="9.182779"><time>2024-05-04T07:41:44.000Z</time><ele>1272</ele></trkpt><trkpt lat="45.837671" lon="9.182779"><time>2024-05-04T07:41:45.000Z</time><ele>1272</ele></trkpt><trkpt lat="45.837672" lon="9.182779"><time>2024-05-04T07:41:46.000Z</time><ele>1272</ele></trkpt><trkpt lat="45.837672" lon="9.18278"><time>2024-05-04T07:41:47.000Z</time><ele>1272</ele></trkpt><trkpt lat="45.837673" lon="9.18278"><time>2024-05-04T07:41:48.000Z</time><ele>1271.8</ele></trkpt><trkpt lat="45.837673" lon="9.18278"><time>2024-05-04T07:41:49.000Z</time><ele>1271.8</ele></trkpt><trkpt lat="45.837673" lon="9.182781"><time>2024-05-04T07:41:50.000Z</time><ele>1271.8</ele></trkpt><trkpt lat="45.837674" lon="9.182781"><time>2024-05-04T07:41:51.000Z</time><ele>1271.8</ele></trkpt><trkpt lat="45.837675" lon="9.182781"><time>2024-05-04T07:41:52.000Z</time><ele>1271.8</ele></trkpt><trkpt lat="45.837676" lon="9.182782"><time>2024-05-04T07:41:53.000Z</time><ele>1272</ele></trkpt><trkpt lat="45.837677" lon="9.182783"><time>2024-05-04T07:41:54.000Z</time><ele>1272</ele></trkpt><trkpt lat="45.837677" lon="9.182784"><time>2024-05-04T07:41:55.000Z</time><ele>1272</ele></trkpt><trkpt lat="45.837677" lon="9.182785"><time>2024-05-04T07:41:56.000Z</time><ele>1272</ele></trkpt><trkpt lat="45.837677" lon="9.182786"><time>2024-05-04T07:41:57.000Z</time><ele>1272</ele></trkpt><trkpt lat="45.837677" lon="9.182788"><time>2024-05-04T07:41:58.000Z</time><ele>1272.2</ele></trkpt><trkpt lat="45.837677" lon="9.182796"><time>2024-05-04T07:41:59.000Z</time><ele>1272.2</ele></trkpt><trkpt lat="45.837679" lon="9.182806"><time>2024-05-04T07:42:00.000Z</time><ele>1272.4</ele></trkpt><trkpt lat="45.837681" lon="9.182817"><time>2024-05-04T07:42:01.000Z</time><ele>1272.4</ele></trkpt><trkpt lat="45.837685" lon="9.182827"><time>2024-05-04T07:42:02.000Z</time><ele>1272.6</ele></trkpt><trkpt lat="45.837689" lon="9.182832"><time>2024-05-04T07:42:03.000Z</time><ele>1272.6</ele></trkpt><trkpt lat="45.837692" lon="9.182837"><time>2024-05-04T07:42:04.000Z</time><ele>1272.6</ele></trkpt><trkpt lat="45.837693" lon="9.182838"><time>2024-05-04T07:42:05.000Z</time><ele>1272.6</ele></trkpt><trkpt lat="45.837693" lon="9.182839"><time>2024-05-04T07:42:06.000Z</time><ele>1272.4</ele></trkpt><trkpt lat="45.837693" lon="9.182839"><time>2024-05-04T07:42:07.000Z</time><ele>1272.4</ele></trkpt><trkpt lat="45.837693" lon="9.182839"><time>2024-05-04T07:42:08.000Z</time><ele>1272.2</ele></trkpt><trkpt lat="45.837693" lon="9.182839"><time>2024-05-04T07:42:09.000Z</time><ele>1272.2</ele></trkpt><trkpt lat="45.837694" lon="9.182839"><time>2024-05-04T07:42:10.000Z</time><ele>1272</ele></trkpt><trkpt lat="45.837694" lon="9.18284"><time>2024-05-04T07:42:11.000Z</time><ele>1272</ele></trkpt><trkpt lat="45.837694" lon="9.182842"><time>2024-05-04T07:42:12.000Z</time><ele>1271.8</ele></trkpt><trkpt lat="45.837694" lon="9.182843"><time>2024-05-04T07:42:13.000Z</time><ele>1271.8</ele></trkpt><trkpt lat="45.837695" lon="9.182843"><time>2024-05-04T07:42:14.000Z</time><ele>1271.6</ele></trkpt><trkpt lat="45.837695" lon="9.182843"><time>2024-05-04T07:42:15.000Z</time><ele>1271.6</ele></trkpt><trkpt lat="45.837695" lon="9.182843"><time>2024-05-04T07:42:16.000Z</time><ele>1271.4</ele></trkpt><trkpt lat="45.837695" lon="9.182843"><time>2024-05-04T07:42:17.000Z</time><ele>1271.2</ele></trkpt><trkpt lat="45.837695" lon="9.182845"><time>2024-05-04T07:42:18.000Z</time><ele>1271</ele></trkpt><trkpt lat="45.837696" lon="9.182846"><time>2024-05-04T07:42:19.000Z</time><ele>1270.8</ele></trkpt><trkpt lat="45.837697" lon="9.182847"><time>2024-05-04T07:42:20.000Z</time><ele>1270.6</ele></trkpt><trkpt lat="45.8377" lon="9.18285"><time>2024-05-04T07:42:21.000Z</time><ele>1270.6</ele></trkpt><trkpt lat="45.837704" lon="9.182852"><time>2024-05-04T07:42:22.000Z</time><ele>1270.4</ele></trkpt><trkpt lat="45.837707" lon="9.182854"><time>2024-05-04T07:42:23.000Z</time><ele>1270.2</ele></trkpt><trkpt lat="45.837711" lon="9.182858"><time>2024-05-04T07:42:24.000Z</time><ele>1270.2</ele></trkpt><trkpt lat="45.837716" lon="9.182861"><time>2024-05-04T07:42:25.000Z</time><ele>1270</ele></trkpt><trkpt lat="45.837721" lon="9.182864"><time>2024-05-04T07:42:26.000Z</time><ele>1270</ele></trkpt><trkpt lat="45.837726" lon="9.182869"><time>2024-05-04T07:42:27.000Z</time><ele>1270</ele></trkpt><trkpt lat="45.837729" lon="9.182874"><time>2024-05-04T07:42:28.000Z</time><ele>1269.6</ele></trkpt><trkpt lat="45.837731" lon="9.182881"><time>2024-05-04T07:42:29.000Z</time><ele>1269.2</ele></trkpt><trkpt lat="45.837735" lon="9.182886"><time>2024-05-04T07:42:30.000Z</time><ele>1269.2</ele></trkpt><trkpt lat="45.837738" lon="9.182889"><time>2024-05-04T07:42:31.000Z</time><ele>1269</ele></trkpt><trkpt lat="45.837742" lon="9.182891"><time>2024-05-04T07:42:32.000Z</time><ele>1268.8</ele></trkpt><trkpt lat="45.837746" lon="9.182892"><time>2024-05-04T07:42:33.000Z</time><ele>1268.4</ele></trkpt><trkpt lat="45.837749" lon="9.182893"><time>2024-05-04T07:42:34.000Z</time><ele>1268</ele></trkpt><trkpt lat="45.837751" lon="9.182893"><time>2024-05-04T07:42:35.000Z</time><ele>1267.8</ele></trkpt><trkpt lat="45.837754" lon="9.182894"><time>2024-05-04T07:42:36.000Z</time><ele>1267.8</ele></trkpt><trkpt lat="45.837758" lon="9.182895"><time>2024-05-04T07:42:37.000Z</time><ele>1267.4</ele></trkpt><trkpt lat="45.837764" lon="9.182897"><time>2024-05-04T07:42:38.000Z</time><ele>1267.2</ele></trkpt><trkpt lat="45.837772" lon="9.182898"><time>2024-05-04T07:42:39.000Z</time><ele>1267</ele></trkpt><trkpt lat="45.837778" lon="9.182899"><time>2024-05-04T07:42:40.000Z</time><ele>1267</ele></trkpt><trkpt lat="45.837781" lon="9.182901"><time>2024-05-04T07:42:41.000Z</time><ele>1266.8</ele></trkpt><trkpt lat="45.837784" lon="9.182906"><time>2024-05-04T07:42:42.000Z</time><ele>1266.6</ele></trkpt><trkpt lat="45.837788" lon="9.182911"><time>2024-05-04T07:42:43.000Z</time><ele>1266.2</ele></trkpt><trkpt lat="45.83779" lon="9.182917"><time>2024-05-04T07:42:44.000Z</time><ele>1266</ele></trkpt><trkpt lat="45.837794" lon="9.182923"><time>2024-05-04T07:42:45.000Z</time><ele>1265.6</ele></trkpt><trkpt lat="45.837801" lon="9.182929"><time>2024-05-04T07:42:46.000Z</time><ele>1265.4</ele></trkpt><trkpt lat="45.837805" lon="9.182933"><time>2024-05-04T07:42:47.000Z</time><ele>1265.4</ele></trkpt><trkpt lat="45.837813" lon="9.182934"><time>2024-05-04T07:42:48.000Z</time><ele>1265.2</ele></trkpt><trkpt lat="45.837821" lon="9.182935"><time>2024-05-04T07:42:49.000Z</time><ele>1265</ele></trkpt><trkpt lat="45.837831" lon="9.18294"><time>2024-05-04T07:42:50.000Z</time><ele>1264.6</ele></trkpt><trkpt lat="45.837842" lon="9.182947"><time>2024-05-04T07:42:51.000Z</time><ele>1264.2</ele></trkpt><trkpt lat="45.837853" lon="9.182953"><time>2024-05-04T07:42:52.000Z</time><ele>1264</ele></trkpt><trkpt lat="45.837864" lon="9.182959"><time>2024-05-04T07:42:53.000Z</time><ele>1263.8</ele></trkpt><trkpt lat="45.837876" lon="9.182966"><time>2024-05-04T07:42:54.000Z</time><ele>1263.6</ele></trkpt><trkpt lat="45.837887" lon="9.182974"><time>2024-05-04T07:42:55.000Z</time><ele>1263.4</ele></trkpt><trkpt lat="45.837897" lon="9.182982"><time>2024-05-04T07:42:56.000Z</time><ele>1263.4</ele></trkpt><trkpt lat="45.837908" lon="9.182991"><time>2024-05-04T07:42:57.000Z</time><ele>1263.4</ele></trkpt><trkpt lat="45.837918" lon="9.183"><time>2024-05-04T07:42:58.000Z</time><ele>1263.2</ele></trkpt><trkpt lat="45.837929" lon="9.183009"><time>2024-05-04T07:42:59.000Z</time><ele>1262.8</ele></trkpt><trkpt lat="45.837931" lon="9.183013"><time>2024-05-04T07:43:00.000Z</time><ele>1262.6</ele></trkpt><trkpt lat="45.837933" lon="9.18302"><time>2024-05-04T07:43:01.000Z</time><ele>1262.6</ele></trkpt><trkpt lat="45.837934" lon="9.183024"><time>2024-05-04T07:43:02.000Z</time><ele>1262.4</ele></trkpt><trkpt lat="45.837941" lon="9.183026"><time>2024-05-04T07:43:03.000Z</time><ele>1262.4</ele></trkpt><trkpt lat="45.837951" lon="9.183026"><time>2024-05-04T07:43:04.000Z</time><ele>1262.2</ele></trkpt><trkpt lat="45.837959" lon="9.183027"><time>2024-05-04T07:43:05.000Z</time><ele>1261.6</ele></trkpt><trkpt lat="45.83796" lon="9.183026"><time>2024-05-04T07:43:06.000Z</time><ele>1261.2</ele></trkpt><trkpt lat="45.837961" lon="9.183027"><time>2024-05-04T07:43:07.000Z</time><ele>1260.8</ele></trkpt><trkpt lat="45.837962" lon="9.183025"><time>2024-05-04T07:43:08.000Z</time><ele>1260.6</ele></trkpt><trkpt lat="45.837966" lon="9.183027"><time>2024-05-04T07:43:09.000Z</time><ele>1260.4</ele></trkpt><trkpt lat="45.83797" lon="9.183028"><time>2024-05-04T07:43:10.000Z</time><ele>1260.4</ele></trkpt><trkpt lat="45.837974" lon="9.183029"><time>2024-05-04T07:43:11.000Z</time><ele>1260.2</ele></trkpt><trkpt lat="45.837978" lon="9.183033"><time>2024-05-04T07:43:12.000Z</time><ele>1260</ele></trkpt><trkpt lat="45.837982" lon="9.183036"><time>2024-05-04T07:43:13.000Z</time><ele>1259.8</ele></trkpt><trkpt lat="45.837986" lon="9.183042"><time>2024-05-04T07:43:14.000Z</time><ele>1259.6</ele></trkpt><trkpt lat="45.837991" lon="9.18305"><time>2024-05-04T07:43:15.000Z</time><ele>1259.4</ele></trkpt><trkpt lat="45.837994" lon="9.183058"><time>2024-05-04T07:43:16.000Z</time><ele>1259.2</ele></trkpt><trkpt lat="45.837998" lon="9.183067"><time>2024-05-04T07:43:17.000Z</time><ele>1259</ele></trkpt><trkpt lat="45.838004" lon="9.183077"><time>2024-05-04T07:43:18.000Z</time><ele>1259</ele></trkpt><trkpt lat="45.83801" lon="9.183082"><time>2024-05-04T07:43:19.000Z</time><ele>1258.6</ele></trkpt><trkpt lat="45.838015" lon="9.183083"><time>2024-05-04T07:43:20.000Z</time><ele>1258.4</ele></trkpt><trkpt lat="45.838019" lon="9.183086"><time>2024-05-04T07:43:21.000Z</time><ele>1258.2</ele></trkpt><trkpt lat="45.838023" lon="9.183089"><time>2024-05-04T07:43:22.000Z</time><ele>1258</ele></trkpt><trkpt lat="45.838028" lon="9.183098"><time>2024-05-04T07:43:23.000Z</time><ele>1257.8</ele></trkpt><trkpt lat="45.83803" lon="9.183106"><time>2024-05-04T07:43:24.000Z</time><ele>1257.6</ele></trkpt><trkpt lat="45.838035" lon="9.183111"><time>2024-05-04T07:43:25.000Z</time><ele>1257.4</ele></trkpt><trkpt lat="45.838037" lon="9.183114"><time>2024-05-04T07:43:26.000Z</time><ele>1257.4</ele></trkpt><trkpt lat="45.838038" lon="9.183116"><time>2024-05-04T07:43:27.000Z</time><ele>1257.2</ele></trkpt><trkpt lat="45.838038" lon="9.183118"><time>2024-05-04T07:43:28.000Z</time><ele>1256.8</ele></trkpt><trkpt lat="45.838037" lon="9.183118"><time>2024-05-04T07:43:29.000Z</time><ele>1256.4</ele></trkpt><trkpt lat="45.838038" lon="9.183117"><time>2024-05-04T07:43:30.000Z</time><ele>1256.2</ele></trkpt><trkpt lat="45.83804" lon="9.183117"><time>2024-05-04T07:43:31.000Z</time><ele>1256</ele></trkpt><trkpt lat="45.83804" lon="9.183115"><time>2024-05-04T07:43:32.000Z</time><ele>1256</ele></trkpt><trkpt lat="45.838041" lon="9.183113"><time>2024-05-04T07:43:33.000Z</time><ele>1256</ele></trkpt><trkpt lat="45.838042" lon="9.183112"><time>2024-05-04T07:43:34.000Z</time><ele>1256</ele></trkpt><trkpt lat="45.838041" lon="9.183111"><time>2024-05-04T07:43:35.000Z</time><ele>1256</ele></trkpt><trkpt lat="45.838041" lon="9.183111"><time>2024-05-04T07:43:36.000Z</time><ele>1256.2</ele></trkpt><trkpt lat="45.838041" lon="9.183111"><time>2024-05-04T07:43:37.000Z</time><ele>1256.2</ele></trkpt><trkpt lat="45.838041" lon="9.183111"><time>2024-05-04T07:43:38.000Z</time><ele>1256</ele></trkpt><trkpt lat="45.838041" lon="9.183111"><time>2024-05-04T07:43:39.000Z</time><ele>1256</ele></trkpt><trkpt lat="45.838041" lon="9.183111"><time>2024-05-04T07:43:40.000Z</time><ele>1256</ele></trkpt><trkpt lat="45.838041" lon="9.183111"><time>2024-05-04T07:43:41.000Z</time><ele>1256</ele></trkpt><trkpt lat="45.838041" lon="9.183111"><time>2024-05-04T07:43:42.000Z</time><ele>1256</ele></trkpt><trkpt lat="45.838041" lon="9.183111"><time>2024-05-04T07:43:43.000Z</time><ele>1256</ele></trkpt><trkpt lat="45.838041" lon="9.183112"><time>2024-05-04T07:43:44.000Z</time><ele>1255.8</ele></trkpt><trkpt lat="45.838041" lon="9.183112"><time>2024-05-04T07:43:45.000Z</time><ele>1255.8</ele></trkpt><trkpt lat="45.838041" lon="9.183112"><time>2024-05-04T07:43:46.000Z</time><ele>1255.8</ele></trkpt><trkpt lat="45.838041" lon="9.183113"><time>2024-05-04T07:43:47.000Z</time><ele>1255.8</ele></trkpt><trkpt lat="45.838041" lon="9.183113"><time>2024-05-04T07:43:48.000Z</time><ele>1255.8</ele></trkpt><trkpt lat="45.838041" lon="9.183114"><time>2024-05-04T07:43:49.000Z</time><ele>1255.6</ele></trkpt><trkpt lat="45.838041" lon="9.183114"><time>2024-05-04T07:43:50.000Z</time><ele>1255.4</ele></trkpt><trkpt lat="45.838041" lon="9.183115"><time>2024-05-04T07:43:51.000Z</time><ele>1255.2</ele></trkpt><trkpt lat="45.838041" lon="9.183115"><time>2024-05-04T07:43:52.000Z</time><ele>1255</ele></trkpt><trkpt lat="45.838041" lon="9.183116"><time>2024-05-04T07:43:53.000Z</time><ele>1254.8</ele></trkpt><trkpt lat="45.838041" lon="9.183117"><time>2024-05-04T07:43:54.000Z</time><ele>1254.6</ele></trkpt><trkpt lat="45.838041" lon="9.183117"><time>2024-05-04T07:43:55.000Z</time><ele>1254.4</ele></trkpt><trkpt lat="45.838042" lon="9.183118"><time>2024-05-04T07:43:56.000Z</time><ele>1254.2</ele></trkpt><trkpt lat="45.838042" lon="9.183118"><time>2024-05-04T07:43:57.000Z</time><ele>1254</ele></trkpt><trkpt lat="45.838044" lon="9.183118"><time>2024-05-04T07:43:58.000Z</time><ele>1254</ele></trkpt><trkpt lat="45.838045" lon="9.18312"><time>2024-05-04T07:43:59.000Z</time><ele>1253.8</ele></trkpt><trkpt lat="45.838046" lon="9.183125"><time>2024-05-04T07:44:00.000Z</time><ele>1253.4</ele></trkpt><trkpt lat="45.83805" lon="9.183129"><time>2024-05-04T07:44:01.000Z</time><ele>1253.2</ele></trkpt><trkpt lat="45.838053" lon="9.183132"><time>2024-05-04T07:44:02.000Z</time><ele>1253</ele></trkpt><trkpt lat="45.838056" lon="9.183133"><time>2024-05-04T07:44:03.000Z</time><ele>1252.6</ele></trkpt><trkpt lat="45.838056" lon="9.183134"><time>2024-05-04T07:44:04.000Z</time><ele>1252.4</ele></trkpt><trkpt lat="45.838058" lon="9.183136"><time>2024-05-04T07:44:05.000Z</time><ele>1252.2</ele></trkpt><trkpt lat="45.838061" lon="9.18314"><time>2024-05-04T07:44:06.000Z</time><ele>1252</ele></trkpt><trkpt lat="45.838062" lon="9.183149"><time>2024-05-04T07:44:07.000Z</time><ele>1252</ele></trkpt><trkpt lat="45.838065" lon="9.183154"><time>2024-05-04T07:44:08.000Z</time><ele>1251.8</ele></trkpt><trkpt lat="45.838069" lon="9.183155"><time>2024-05-04T07:44:09.000Z</time><ele>1251.6</ele></trkpt><trkpt lat="45.838075" lon="9.183156"><time>2024-05-04T07:44:10.000Z</time><ele>1251.2</ele></trkpt><trkpt lat="45.83808" lon="9.183158"><time>2024-05-04T07:44:11.000Z</time><ele>1251</ele></trkpt><trkpt lat="45.838084" lon="9.183159"><time>2024-05-04T07:44:12.000Z</time><ele>1250.6</ele></trkpt><trkpt lat="45.838088" lon="9.183163"><time>2024-05-04T07:44:13.000Z</time><ele>1250.4</ele></trkpt><trkpt lat="45.838094" lon="9.183166"><time>2024-05-04T07:44:14.000Z</time><ele>1250.2</ele></trkpt><trkpt lat="45.838098" lon="9.183168"><time>2024-05-04T07:44:15.000Z</time><ele>1249.8</ele></trkpt><trkpt lat="45.838103" lon="9.183171"><time>2024-05-04T07:44:16.000Z</time><ele>1249.6</ele></trkpt><trkpt lat="45.838107" lon="9.183173"><time>2024-05-04T07:44:17.000Z</time><ele>1249.2</ele></trkpt><trkpt lat="45.838109" lon="9.183174"><time>2024-05-04T07:44:18.000Z</time><ele>1249</ele></trkpt><trkpt lat="45.838112" lon="9.183179"><time>2024-05-04T07:44:19.000Z</time><ele>1248.8</ele></trkpt><trkpt lat="45.838114" lon="9.183188"><time>2024-05-04T07:44:20.000Z</time><ele>1248.6</ele></trkpt><trkpt lat="45.838116" lon="9.183196"><time>2024-05-04T07:44:21.000Z</time><ele>1248.6</ele></trkpt><trkpt lat="45.838121" lon="9.183206"><time>2024-05-04T07:44:22.000Z</time><ele>1248.4</ele></trkpt><trkpt lat="45.838124" lon="9.18321"><time>2024-05-04T07:44:23.000Z</time><ele>1248.2</ele></trkpt><trkpt lat="45.838127" lon="9.183212"><time>2024-05-04T07:44:24.000Z</time><ele>1248</ele></trkpt><trkpt lat="45.83813" lon="9.183216"><time>2024-05-04T07:44:25.000Z</time><ele>1247.8</ele></trkpt><trkpt lat="45.838131" lon="9.183222"><time>2024-05-04T07:44:26.000Z</time><ele>1247.4</ele></trkpt><trkpt lat="45.838133" lon="9.183227"><time>2024-05-04T07:44:27.000Z</time><ele>1247.2</ele></trkpt><trkpt lat="45.838137" lon="9.183232"><time>2024-05-04T07:44:28.000Z</time><ele>1247.2</ele></trkpt><trkpt lat="45.838139" lon="9.183235"><time>2024-05-04T07:44:29.000Z</time><ele>1247</ele></trkpt><trkpt lat="45.83814" lon="9.183238"><time>2024-05-04T07:44:30.000Z</time><ele>1246.8</ele></trkpt><trkpt lat="45.838143" lon="9.183241"><time>2024-05-04T07:44:31.000Z</time><ele>1246.6</ele></trkpt><trkpt lat="45.838145" lon="9.183243"><time>2024-05-04T07:44:32.000Z</time><ele>1246.4</ele></trkpt><trkpt lat="45.838152" lon="9.183247"><time>2024-05-04T07:44:33.000Z</time><ele>1246.4</ele></trkpt><trkpt lat="45.838165" lon="9.183252"><time>2024-05-04T07:44:34.000Z</time><ele>1246</ele></trkpt><trkpt lat="45.838177" lon="9.183256"><time>2024-05-04T07:44:35.000Z</time><ele>1245.6</ele></trkpt><trkpt lat="45.83819" lon="9.183259"><time>2024-05-04T07:44:36.000Z</time><ele>1245.2</ele></trkpt><trkpt lat="45.838202" lon="9.18326"><time>2024-05-04T07:44:37.000Z</time><ele>1245</ele></trkpt><trkpt lat="45.838212" lon="9.183263"><time>2024-05-04T07:44:38.000Z</time><ele>1244.8</ele></trkpt><trkpt lat="45.838222" lon="9.183266"><time>2024-05-04T07:44:39.000Z</time><ele>1244.6</ele></trkpt><trkpt lat="45.83823" lon="9.183274"><time>2024-05-04T07:44:40.000Z</time><ele>1244.6</ele></trkpt><trkpt lat="45.838235" lon="9.183284"><time>2024-05-04T07:44:41.000Z</time><ele>1244.4</ele></trkpt><trkpt lat="45.838242" lon="9.183292"><time>2024-05-04T07:44:42.000Z</time><ele>1244.2</ele></trkpt><trkpt lat="45.838247" lon="9.183297"><time>2024-05-04T07:44:43.000Z</time><ele>1244.2</ele></trkpt><trkpt lat="45.838254" lon="9.1833"><time>2024-05-04T07:44:44.000Z</time><ele>1244</ele></trkpt><trkpt lat="45.83826" lon="9.183302"><time>2024-05-04T07:44:45.000Z</time><ele>1243.8</ele></trkpt><trkpt lat="45.838263" lon="9.183303"><time>2024-05-04T07:44:46.000Z</time><ele>1243.6</ele></trkpt><trkpt lat="45.838267" lon="9.183304"><time>2024-05-04T07:44:47.000Z</time><ele>1243.4</ele></trkpt><trkpt lat="45.838274" lon="9.183307"><time>2024-05-04T07:44:48.000Z</time><ele>1243</ele></trkpt><trkpt lat="45.838281" lon="9.183306"><time>2024-05-04T07:44:49.000Z</time><ele>1242.8</ele></trkpt><trkpt lat="45.838284" lon="9.183302"><time>2024-05-04T07:44:50.000Z</time><ele>1242.6</ele></trkpt><trkpt lat="45.83829" lon="9.183301"><time>2024-05-04T07:44:51.000Z</time><ele>1242.4</ele></trkpt><trkpt lat="45.838296" lon="9.183302"><time>2024-05-04T07:44:52.000Z</time><ele>1242</ele></trkpt><trkpt lat="45.838298" lon="9.183303"><time>2024-05-04T07:44:53.000Z</time><ele>1241.8</ele></trkpt><trkpt lat="45.838298" lon="9.183306"><time>2024-05-04T07:44:54.000Z</time><ele>1241.6</ele></trkpt><trkpt lat="45.8383" lon="9.18331"><time>2024-05-04T07:44:55.000Z</time><ele>1241.4</ele></trkpt><trkpt lat="45.838301" lon="9.183315"><time>2024-05-04T07:44:56.000Z</time><ele>1241.2</ele></trkpt><trkpt lat="45.838303" lon="9.183319"><time>2024-05-04T07:44:57.000Z</time><ele>1241</ele></trkpt><trkpt lat="45.838305" lon="9.183322"><time>2024-05-04T07:44:58.000Z</time><ele>1241</ele></trkpt><trkpt lat="45.838307" lon="9.183324"><time>2024-05-04T07:44:59.000Z</time><ele>1240.4</ele></trkpt><trkpt lat="45.838307" lon="9.183326"><time>2024-05-04T07:45:00.000Z</time><ele>1240.2</ele></trkpt><trkpt lat="45.838308" lon="9.183326"><time>2024-05-04T07:45:01.000Z</time><ele>1240.2</ele></trkpt><trkpt lat="45.838309" lon="9.183326"><time>2024-05-04T07:45:02.000Z</time><ele>1240</ele></trkpt><trkpt lat="45.838309" lon="9.183326"><time>2024-05-04T07:45:03.000Z</time><ele>1240</ele></trkpt><trkpt lat="45.838311" lon="9.183326"><time>2024-05-04T07:45:04.000Z</time><ele>1240</ele></trkpt><trkpt lat="45.838313" lon="9.183326"><time>2024-05-04T07:45:05.000Z</time><ele>1240</ele></trkpt><trkpt lat="45.838315" lon="9.183328"><time>2024-05-04T07:45:06.000Z</time><ele>1240</ele></trkpt><trkpt lat="45.838315" lon="9.183328"><time>2024-05-04T07:45:07.000Z</time><ele>1240</ele></trkpt><trkpt lat="45.838315" lon="9.183331"><time>2024-05-04T07:45:08.000Z</time><ele>1240</ele></trkpt><trkpt lat="45.838317" lon="9.183335"><time>2024-05-04T07:45:09.000Z</time><ele>1240</ele></trkpt><trkpt lat="45.838321" lon="9.183339"><time>2024-05-04T07:45:10.000Z</time><ele>1240</ele></trkpt><trkpt lat="45.838327" lon="9.183341"><time>2024-05-04T07:45:11.000Z</time><ele>1240</ele></trkpt><trkpt lat="45.83834" lon="9.183346"><time>2024-05-04T07:45:12.000Z</time><ele>1240</ele></trkpt><trkpt lat="45.838348" lon="9.183347"><time>2024-05-04T07:45:13.000Z</time><ele>1240</ele></trkpt><trkpt lat="45.838355" lon="9.183346"><time>2024-05-04T07:45:14.000Z</time><ele>1239.8</ele></trkpt><trkpt lat="45.838362" lon="9.183347"><time>2024-05-04T07:45:15.000Z</time><ele>1239.6</ele></trkpt><trkpt lat="45.838367" lon="9.183345"><time>2024-05-04T07:45:16.000Z</time><ele>1239.4</ele></trkpt><trkpt lat="45.838373" lon="9.183346"><time>2024-05-04T07:45:17.000Z</time><ele>1239.4</ele></trkpt><trkpt lat="45.838377" lon="9.183344"><time>2024-05-04T07:45:18.000Z</time><ele>1239.2</ele></trkpt><trkpt lat="45.838382" lon="9.183341"><time>2024-05-04T07:45:19.000Z</time><ele>1239.2</ele></trkpt><trkpt lat="45.838386" lon="9.18334"><time>2024-05-04T07:45:20.000Z</time><ele>1239</ele></trkpt><trkpt lat="45.838391" lon="9.18334"><time>2024-05-04T07:45:21.000Z</time><ele>1238.6</ele></trkpt><trkpt lat="45.838395" lon="9.183339"><time>2024-05-04T07:45:22.000Z</time><ele>1238.4</ele></trkpt><trkpt lat="45.838398" lon="9.183339"><time>2024-05-04T07:45:23.000Z</time><ele>1238.4</ele></trkpt><trkpt lat="45.838405" lon="9.183339"><time>2024-05-04T07:45:24.000Z</time><ele>1238.2</ele></trkpt><trkpt lat="45.838415" lon="9.183341"><time>2024-05-04T07:45:25.000Z</time><ele>1238</ele></trkpt><trkpt lat="45.838425" lon="9.183344"><time>2024-05-04T07:45:26.000Z</time><ele>1237.8</ele></trkpt><trkpt lat="45.838429" lon="9.183348"><time>2024-05-04T07:45:27.000Z</time><ele>1237.4</ele></trkpt><trkpt lat="45.838435" lon="9.183356"><time>2024-05-04T07:45:28.000Z</time><ele>1237.2</ele></trkpt><trkpt lat="45.838439" lon="9.18336"><time>2024-05-04T07:45:29.000Z</time><ele>1237</ele></trkpt><trkpt lat="45.838442" lon="9.18336"><time>2024-05-04T07:45:30.000Z</time><ele>1236.8</ele></trkpt><trkpt lat="45.838445" lon="9.183356"><time>2024-05-04T07:45:31.000Z</time><ele>1236.6</ele></trkpt><trkpt lat="45.838446" lon="9.183354"><time>2024-05-04T07:45:32.000Z</time><ele>1236.2</ele></trkpt><trkpt lat="45.838447" lon="9.183352"><time>2024-05-04T07:45:33.000Z</time><ele>1235.8</ele></trkpt><trkpt lat="45.83845" lon="9.18335"><time>2024-05-04T07:45:34.000Z</time><ele>1235.6</ele></trkpt><trkpt lat="45.838453" lon="9.183349"><time>2024-05-04T07:45:35.000Z</time><ele>1235.6</ele></trkpt><trkpt lat="45.838456" lon="9.183352"><time>2024-05-04T07:45:36.000Z</time><ele>1235.4</ele></trkpt><trkpt lat="45.83846" lon="9.183355"><time>2024-05-04T07:45:37.000Z</time><ele>1235</ele></trkpt><trkpt lat="45.838469" lon="9.183365"><time>2024-05-04T07:45:38.000Z</time><ele>1234.8</ele></trkpt><trkpt lat="45.838476" lon="9.183368"><time>2024-05-04T07:45:39.000Z</time><ele>1234.8</ele></trkpt><trkpt lat="45.838488" lon="9.183372"><time>2024-05-04T07:45:40.000Z</time><ele>1234.6</ele></trkpt><trkpt lat="45.838494" lon="9.183374"><time>2024-05-04T07:45:41.000Z</time><ele>1234.6</ele></trkpt><trkpt lat="45.8385" lon="9.183378"><time>2024-05-04T07:45:42.000Z</time><ele>1234.4</ele></trkpt><trkpt lat="45.838501" lon="9.183391"><time>2024-05-04T07:45:43.000Z</time><ele>1234.2</ele></trkpt><trkpt lat="45.838502" lon="9.183399"><time>2024-05-04T07:45:44.000Z</time><ele>1234</ele></trkpt><trkpt lat="45.838504" lon="9.183403"><time>2024-05-04T07:45:45.000Z</time><ele>1233.4</ele></trkpt><trkpt lat="45.838503" lon="9.183402"><time>2024-05-04T07:45:46.000Z</time><ele>1233</ele></trkpt><trkpt lat="45.838505" lon="9.183405"><time>2024-05-04T07:45:47.000Z</time><ele>1232.8</ele></trkpt><trkpt lat="45.838509" lon="9.183407"><time>2024-05-04T07:45:48.000Z</time><ele>1232.6</ele></trkpt><trkpt lat="45.838513" lon="9.18341"><time>2024-05-04T07:45:49.000Z</time><ele>1232.4</ele></trkpt><trkpt lat="45.838515" lon="9.18341"><time>2024-05-04T07:45:50.000Z</time><ele>1232.2</ele></trkpt><trkpt lat="45.838515" lon="9.18341"><time>2024-05-04T07:45:51.000Z</time><ele>1232</ele></trkpt><trkpt lat="45.838516" lon="9.183412"><time>2024-05-04T07:45:52.000Z</time><ele>1231.8</ele></trkpt><trkpt lat="45.838519" lon="9.183416"><time>2024-05-04T07:45:53.000Z</time><ele>1231.8</ele></trkpt><trkpt lat="45.838523" lon="9.183425"><time>2024-05-04T07:45:54.000Z</time><ele>1231.6</ele></trkpt><trkpt lat="45.838526" lon="9.183432"><time>2024-05-04T07:45:55.000Z</time><ele>1231.4</ele></trkpt><trkpt lat="45.838528" lon="9.183437"><time>2024-05-04T07:45:56.000Z</time><ele>1231.2</ele></trkpt><trkpt lat="45.838528" lon="9.183435"><time>2024-05-04T07:45:57.000Z</time><ele>1230.8</ele></trkpt><trkpt lat="45.838533" lon="9.183437"><time>2024-05-04T07:45:58.000Z</time><ele>1230.6</ele></trkpt><trkpt lat="45.838535" lon="9.183436"><time>2024-05-04T07:45:59.000Z</time><ele>1230.6</ele></trkpt><trkpt lat="45.838536" lon="9.183437"><time>2024-05-04T07:46:00.000Z</time><ele>1230.4</ele></trkpt><trkpt lat="45.838541" lon="9.183444"><time>2024-05-04T07:46:01.000Z</time><ele>1230.2</ele></trkpt><trkpt lat="45.838548" lon="9.183447"><time>2024-05-04T07:46:02.000Z</time><ele>1230.2</ele></trkpt><trkpt lat="45.83855" lon="9.183447"><time>2024-05-04T07:46:03.000Z</time><ele>1229.8</ele></trkpt><trkpt lat="45.83855" lon="9.183447"><time>2024-05-04T07:46:04.000Z</time><ele>1229.6</ele></trkpt><trkpt lat="45.838552" lon="9.183454"><time>2024-05-04T07:46:05.000Z</time><ele>1229.2</ele></trkpt><trkpt lat="45.838558" lon="9.18346"><time>2024-05-04T07:46:06.000Z</time><ele>1229</ele></trkpt><trkpt lat="45.838564" lon="9.183464"><time>2024-05-04T07:46:07.000Z</time><ele>1228.8</ele></trkpt><trkpt lat="45.838568" lon="9.183468"><time>2024-05-04T07:46:08.000Z</time><ele>1228.6</ele></trkpt><trkpt lat="45.838576" lon="9.183472"><time>2024-05-04T07:46:09.000Z</time><ele>1228.6</ele></trkpt><trkpt lat="45.838581" lon="9.183477"><time>2024-05-04T07:46:10.000Z</time><ele>1228.4</ele></trkpt><trkpt lat="45.838583" lon="9.183483"><time>2024-05-04T07:46:11.000Z</time><ele>1228.2</ele></trkpt><trkpt lat="45.838584" lon="9.183489"><time>2024-05-04T07:46:12.000Z</time><ele>1227.8</ele></trkpt><trkpt lat="45.838586" lon="9.183494"><time>2024-05-04T07:46:13.000Z</time><ele>1227.6</ele></trkpt><trkpt lat="45.83859" lon="9.183495"><time>2024-05-04T07:46:14.000Z</time><ele>1227.4</ele></trkpt><trkpt lat="45.838589" lon="9.183494"><time>2024-05-04T07:46:15.000Z</time><ele>1227.2</ele></trkpt><trkpt lat="45.838588" lon="9.183491"><time>2024-05-04T07:46:16.000Z</time><ele>1227</ele></trkpt><trkpt lat="45.838587" lon="9.183488"><time>2024-05-04T07:46:17.000Z</time><ele>1226.8</ele></trkpt><trkpt lat="45.838588" lon="9.183486"><time>2024-05-04T07:46:18.000Z</time><ele>1226.6</ele></trkpt><trkpt lat="45.838588" lon="9.183488"><time>2024-05-04T07:46:19.000Z</time><ele>1226.6</ele></trkpt><trkpt lat="45.838588" lon="9.183491"><time>2024-05-04T07:46:20.000Z</time><ele>1226.4</ele></trkpt><trkpt lat="45.838591" lon="9.183492"><time>2024-05-04T07:46:21.000Z</time><ele>1226.2</ele></trkpt><trkpt lat="45.838598" lon="9.183492"><time>2024-05-04T07:46:22.000Z</time><ele>1226.2</ele></trkpt><trkpt lat="45.838603" lon="9.183493"><time>2024-05-04T07:46:23.000Z</time><ele>1226</ele></trkpt><trkpt lat="45.838612" lon="9.183494"><time>2024-05-04T07:46:24.000Z</time><ele>1225.8</ele></trkpt><trkpt lat="45.838622" lon="9.183496"><time>2024-05-04T07:46:25.000Z</time><ele>1225.4</ele></trkpt><trkpt lat="45.838632" lon="9.183498"><time>2024-05-04T07:46:26.000Z</time><ele>1225.2</ele></trkpt><trkpt lat="45.838635" lon="9.183496"><time>2024-05-04T07:46:27.000Z</time><ele>1225</ele></trkpt><trkpt lat="45.838643" lon="9.183496"><time>2024-05-04T07:46:28.000Z</time><ele>1224.8</ele></trkpt><trkpt lat="45.838647" lon="9.18349"><time>2024-05-04T07:46:29.000Z</time><ele>1224.4</ele></trkpt><trkpt lat="45.838651" lon="9.183488"><time>2024-05-04T07:46:30.000Z</time><ele>1224.2</ele></trkpt><trkpt lat="45.838652" lon="9.183489"><time>2024-05-04T07:46:31.000Z</time><ele>1224.2</ele></trkpt><trkpt lat="45.838651" lon="9.183487"><time>2024-05-04T07:46:32.000Z</time><ele>1224</ele></trkpt><trkpt lat="45.838653" lon="9.183486"><time>2024-05-04T07:46:33.000Z</time><ele>1223.8</ele></trkpt><trkpt lat="45.838655" lon="9.183486"><time>2024-05-04T07:46:34.000Z</time><ele>1223.6</ele></trkpt><trkpt lat="45.838659" lon="9.183486"><time>2024-05-04T07:46:35.000Z</time><ele>1223.4</ele></trkpt><trkpt lat="45.838662" lon="9.183488"><time>2024-05-04T07:46:36.000Z</time><ele>1223.2</ele></trkpt><trkpt lat="45.838666" lon="9.183492"><time>2024-05-04T07:46:37.000Z</time><ele>1223.2</ele></trkpt><trkpt lat="45.838668" lon="9.183493"><time>2024-05-04T07:46:38.000Z</time><ele>1223</ele></trkpt><trkpt lat="45.838665" lon="9.183491"><time>2024-05-04T07:46:39.000Z</time><ele>1223</ele></trkpt><trkpt lat="45.838665" lon="9.18349"><time>2024-05-04T07:46:40.000Z</time><ele>1222.8</ele></trkpt><trkpt lat="45.838668" lon="9.183489"><time>2024-05-04T07:46:41.000Z</time><ele>1222.4</ele></trkpt><trkpt lat="45.838675" lon="9.183491"><time>2024-05-04T07:46:42.000Z</time><ele>1222</ele></trkpt><trkpt lat="45.838679" lon="9.183488"><time>2024-05-04T07:46:43.000Z</time><ele>1221.8</ele></trkpt><trkpt lat="45.838677" lon="9.183485"><time>2024-05-04T07:46:44.000Z</time><ele>1221.6</ele></trkpt><trkpt lat="45.838673" lon="9.183484"><time>2024-05-04T07:46:45.000Z</time><ele>1221.4</ele></trkpt><trkpt lat="45.838674" lon="9.183481"><time>2024-05-04T07:46:46.000Z</time><ele>1221.2</ele></trkpt><trkpt lat="45.838671" lon="9.183478"><time>2024-05-04T07:46:47.000Z</time><ele>1221</ele></trkpt><trkpt lat="45.83867" lon="9.183474"><time>2024-05-04T07:46:48.000Z</time><ele>1221</ele></trkpt><trkpt lat="45.838671" lon="9.183472"><time>2024-05-04T07:46:49.000Z</time><ele>1220.8</ele></trkpt><trkpt lat="45.838673" lon="9.183469"><time>2024-05-04T07:46:50.000Z</time><ele>1220.8</ele></trkpt><trkpt lat="45.838673" lon="9.183467"><time>2024-05-04T07:46:51.000Z</time><ele>1220.6</ele></trkpt><trkpt lat="45.838677" lon="9.183465"><time>2024-05-04T07:46:52.000Z</time><ele>1220.6</ele></trkpt><trkpt lat="45.838678" lon="9.183464"><time>2024-05-04T07:46:53.000Z</time><ele>1220.4</ele></trkpt><trkpt lat="45.838677" lon="9.183462"><time>2024-05-04T07:46:54.000Z</time><ele>1220</ele></trkpt><trkpt lat="45.838683" lon="9.183464"><time>2024-05-04T07:46:55.000Z</time><ele>1220</ele></trkpt><trkpt lat="45.838688" lon="9.183466"><time>2024-05-04T07:46:56.000Z</time><ele>1219.8</ele></trkpt><trkpt lat="45.838693" lon="9.183466"><time>2024-05-04T07:46:57.000Z</time><ele>1219.6</ele></trkpt><trkpt lat="45.838698" lon="9.183467"><time>2024-05-04T07:46:58.000Z</time><ele>1219.4</ele></trkpt><trkpt lat="45.8387" lon="9.183468"><time>2024-05-04T07:46:59.000Z</time><ele>1219.2</ele></trkpt><trkpt lat="45.838703" lon="9.183469"><time>2024-05-04T07:47:00.000Z</time><ele>1219</ele></trkpt><trkpt lat="45.838706" lon="9.183472"><time>2024-05-04T07:47:01.000Z</time><ele>1219</ele></trkpt><trkpt lat="45.838711" lon="9.183475"><time>2024-05-04T07:47:02.000Z</time><ele>1218.8</ele></trkpt><trkpt lat="45.838714" lon="9.183478"><time>2024-05-04T07:47:03.000Z</time><ele>1218.6</ele></trkpt><trkpt lat="45.838716" lon="9.183476"><time>2024-05-04T07:47:04.000Z</time><ele>1218.6</ele></trkpt><trkpt lat="45.838723" lon="9.183475"><time>2024-05-04T07:47:05.000Z</time><ele>1218.2</ele></trkpt><trkpt lat="45.838726" lon="9.183474"><time>2024-05-04T07:47:06.000Z</time><ele>1218</ele></trkpt><trkpt lat="45.838726" lon="9.183474"><time>2024-05-04T07:47:07.000Z</time><ele>1217.8</ele></trkpt><trkpt lat="45.838728" lon="9.183472"><time>2024-05-04T07:47:08.000Z</time><ele>1217.6</ele></trkpt><trkpt lat="45.838731" lon="9.183475"><time>2024-05-04T07:47:09.000Z</time><ele>1217.4</ele></trkpt><trkpt lat="45.838736" lon="9.183474"><time>2024-05-04T07:47:10.000Z</time><ele>1217.2</ele></trkpt><trkpt lat="45.838738" lon="9.183471"><time>2024-05-04T07:47:11.000Z</time><ele>1217</ele></trkpt><trkpt lat="45.838735" lon="9.183469"><time>2024-05-04T07:47:12.000Z</time><ele>1216.8</ele></trkpt><trkpt lat="45.838735" lon="9.183469"><time>2024-05-04T07:47:13.000Z</time><ele>1216.6</ele></trkpt><trkpt lat="45.838734" lon="9.183469"><time>2024-05-04T07:47:14.000Z</time><ele>1216.4</ele></trkpt><trkpt lat="45.838733" lon="9.183466"><time>2024-05-04T07:47:15.000Z</time><ele>1216</ele></trkpt><trkpt lat="45.838733" lon="9.183467"><time>2024-05-04T07:47:16.000Z</time><ele>1215.8</ele></trkpt><trkpt lat="45.838736" lon="9.183461"><time>2024-05-04T07:47:17.000Z</time><ele>1215.6</ele></trkpt><trkpt lat="45.838746" lon="9.183456"><time>2024-05-04T07:47:18.000Z</time><ele>1215.4</ele></trkpt><trkpt lat="45.838753" lon="9.183453"><time>2024-05-04T07:47:19.000Z</time><ele>1215.2</ele></trkpt><trkpt lat="45.838753" lon="9.183454"><time>2024-05-04T07:47:20.000Z</time><ele>1215</ele></trkpt><trkpt lat="45.838739" lon="9.183452"><time>2024-05-04T07:47:21.000Z</time><ele>1214.8</ele></trkpt><trkpt lat="45.838733" lon="9.183451"><time>2024-05-04T07:47:22.000Z</time><ele>1214.4</ele></trkpt><trkpt lat="45.838741" lon="9.183456"><time>2024-05-04T07:47:23.000Z</time><ele>1214.2</ele></trkpt><trkpt lat="45.838741" lon="9.183456"><time>2024-05-04T07:47:24.000Z</time><ele>1214.2</ele></trkpt><trkpt lat="45.838741" lon="9.183456"><time>2024-05-04T07:47:25.000Z</time><ele>1214</ele></trkpt><trkpt lat="45.838741" lon="9.183456"><time>2024-05-04T07:47:26.000Z</time><ele>1214</ele></trkpt><trkpt lat="45.838741" lon="9.183456"><time>2024-05-04T07:47:27.000Z</time><ele>1213.8</ele></trkpt><trkpt lat="45.838741" lon="9.183456"><time>2024-05-04T07:47:28.000Z</time><ele>1213.8</ele></trkpt><trkpt lat="45.838741" lon="9.183456"><time>2024-05-04T07:47:29.000Z</time><ele>1213.8</ele></trkpt><trkpt lat="45.838741" lon="9.183456"><time>2024-05-04T07:47:30.000Z</time><ele>1214</ele></trkpt><trkpt lat="45.838741" lon="9.183456"><time>2024-05-04T07:47:31.000Z</time><ele>1214</ele></trkpt><trkpt lat="45.838741" lon="9.183456"><time>2024-05-04T07:47:32.000Z</time><ele>1214.2</ele></trkpt><trkpt lat="45.838741" lon="9.183456"><time>2024-05-04T07:47:33.000Z</time><ele>1214.2</ele></trkpt><trkpt lat="45.838741" lon="9.183456"><time>2024-05-04T07:47:34.000Z</time><ele>1214.2</ele></trkpt><trkpt lat="45.838741" lon="9.183456"><time>2024-05-04T07:47:35.000Z</time><ele>1214.2</ele></trkpt><trkpt lat="45.838741" lon="9.183456"><time>2024-05-04T07:47:36.000Z</time><ele>1214</ele></trkpt><trkpt lat="45.838741" lon="9.183456"><time>2024-05-04T07:47:37.000Z</time><ele>1214</ele></trkpt><trkpt lat="45.838741" lon="9.183456"><time>2024-05-04T07:47:38.000Z</time><ele>1214</ele></trkpt><trkpt lat="45.838741" lon="9.183456"><time>2024-05-04T07:47:39.000Z</time><ele>1214</ele></trkpt><trkpt lat="45.838741" lon="9.183456"><time>2024-05-04T07:47:40.000Z</time><ele>1213.8</ele></trkpt><trkpt lat="45.838741" lon="9.183456"><time>2024-05-04T07:47:41.000Z</time><ele>1213.8</ele></trkpt><trkpt lat="45.838741" lon="9.183456"><time>2024-05-04T07:47:42.000Z</time><ele>1213.8</ele></trkpt><trkpt lat="45.838742" lon="9.183456"><time>2024-05-04T07:47:43.000Z</time><ele>1213.8</ele></trkpt><trkpt lat="45.838743" lon="9.183456"><time>2024-05-04T07:47:44.000Z</time><ele>1214</ele></trkpt><trkpt lat="45.838744" lon="9.183456"><time>2024-05-04T07:47:45.000Z</time><ele>1214</ele></trkpt><trkpt lat="45.838744" lon="9.183456"><time>2024-05-04T07:47:46.000Z</time><ele>1214</ele></trkpt><trkpt lat="45.838749" lon="9.183457"><time>2024-05-04T07:47:47.000Z</time><ele>1214</ele></trkpt><trkpt lat="45.838754" lon="9.183454"><time>2024-05-04T07:47:48.000Z</time><ele>1213.8</ele></trkpt><trkpt lat="45.83876" lon="9.18345"><time>2024-05-04T07:47:49.000Z</time><ele>1213.6</ele></trkpt><trkpt lat="45.83877" lon="9.183444"><time>2024-05-04T07:47:50.000Z</time><ele>1213.4</ele></trkpt><trkpt lat="45.838785" lon="9.183441"><time>2024-05-04T07:47:51.000Z</time><ele>1213.2</ele></trkpt><trkpt lat="45.838796" lon="9.183442"><time>2024-05-04T07:47:52.000Z</time><ele>1213</ele></trkpt><trkpt lat="45.838805" lon="9.183436"><time>2024-05-04T07:47:53.000Z</time><ele>1212.8</ele></trkpt><trkpt lat="45.838806" lon="9.183427"><time>2024-05-04T07:47:54.000Z</time><ele>1212.6</ele></trkpt><trkpt lat="45.838812" lon="9.183423"><time>2024-05-04T07:47:55.000Z</time><ele>1212.4</ele></trkpt><trkpt lat="45.838817" lon="9.183421"><time>2024-05-04T07:47:56.000Z</time><ele>1212.2</ele></trkpt><trkpt lat="45.838822" lon="9.183427"><time>2024-05-04T07:47:57.000Z</time><ele>1212</ele></trkpt><trkpt lat="45.838831" lon="9.183436"><time>2024-05-04T07:47:58.000Z</time><ele>1212</ele></trkpt><trkpt lat="45.838845" lon="9.183452"><time>2024-05-04T07:47:59.000Z</time><ele>1211.8</ele></trkpt><trkpt lat="45.838858" lon="9.183465"><time>2024-05-04T07:48:00.000Z</time><ele>1211.6</ele></trkpt><trkpt lat="45.838868" lon="9.183473"><time>2024-05-04T07:48:01.000Z</time><ele>1211.4</ele></trkpt><trkpt lat="45.838879" lon="9.183478"><time>2024-05-04T07:48:02.000Z</time><ele>1211.2</ele></trkpt><trkpt lat="45.838886" lon="9.183477"><time>2024-05-04T07:48:03.000Z</time><ele>1211</ele></trkpt><trkpt lat="45.838893" lon="9.183482"><time>2024-05-04T07:48:04.000Z</time><ele>1211</ele></trkpt><trkpt lat="45.838907" lon="9.183493"><time>2024-05-04T07:48:05.000Z</time><ele>1210.8</ele></trkpt><trkpt lat="45.838917" lon="9.1835"><time>2024-05-04T07:48:06.000Z</time><ele>1210.6</ele></trkpt><trkpt lat="45.838924" lon="9.183502"><time>2024-05-04T07:48:07.000Z</time><ele>1210.4</ele></trkpt><trkpt lat="45.838925" lon="9.183506"><time>2024-05-04T07:48:08.000Z</time><ele>1210.4</ele></trkpt><trkpt lat="45.838924" lon="9.183508"><time>2024-05-04T07:48:09.000Z</time><ele>1210</ele></trkpt><trkpt lat="45.838934" lon="9.183514"><time>2024-05-04T07:48:10.000Z</time><ele>1210</ele></trkpt><trkpt lat="45.838944" lon="9.183524"><time>2024-05-04T07:48:11.000Z</time><ele>1209.8</ele></trkpt><trkpt lat="45.83895" lon="9.183536"><time>2024-05-04T07:48:12.000Z</time><ele>1209.6</ele></trkpt><trkpt lat="45.838959" lon="9.183545"><time>2024-05-04T07:48:13.000Z</time><ele>1209.4</ele></trkpt><trkpt lat="45.838967" lon="9.183555"><time>2024-05-04T07:48:14.000Z</time><ele>1209.2</ele></trkpt><trkpt lat="45.838971" lon="9.183558"><time>2024-05-04T07:48:15.000Z</time><ele>1209.2</ele></trkpt><trkpt lat="45.838978" lon="9.183563"><time>2024-05-04T07:48:16.000Z</time><ele>1209.2</ele></trkpt><trkpt lat="45.838981" lon="9.18357"><time>2024-05-04T07:48:17.000Z</time><ele>1208.8</ele></trkpt><trkpt lat="45.838987" lon="9.183576"><time>2024-05-04T07:48:18.000Z</time><ele>1208.4</ele></trkpt><trkpt lat="45.838993" lon="9.183582"><time>2024-05-04T07:48:19.000Z</time><ele>1208.2</ele></trkpt><trkpt lat="45.839" lon="9.183587"><time>2024-05-04T07:48:20.000Z</time><ele>1208.2</ele></trkpt><trkpt lat="45.839006" lon="9.183591"><time>2024-05-04T07:48:21.000Z</time><ele>1208</ele></trkpt><trkpt lat="45.839007" lon="9.183596"><time>2024-05-04T07:48:22.000Z</time><ele>1207.6</ele></trkpt><trkpt lat="45.839006" lon="9.183607"><time>2024-05-04T07:48:23.000Z</time><ele>1207.6</ele></trkpt><trkpt lat="45.839004" lon="9.183619"><time>2024-05-04T07:48:24.000Z</time><ele>1207.4</ele></trkpt><trkpt lat="45.839005" lon="9.183627"><time>2024-05-04T07:48:25.000Z</time><ele>1207.4</ele></trkpt><trkpt lat="45.83901" lon="9.183634"><time>2024-05-04T07:48:26.000Z</time><ele>1207.2</ele></trkpt><trkpt lat="45.839013" lon="9.183637"><time>2024-05-04T07:48:27.000Z</time><ele>1207</ele></trkpt><trkpt lat="45.839017" lon="9.183641"><time>2024-05-04T07:48:28.000Z</time><ele>1207</ele></trkpt><trkpt lat="45.83902" lon="9.183644"><time>2024-05-04T07:48:29.000Z</time><ele>1206.8</ele></trkpt><trkpt lat="45.839025" lon="9.183646"><time>2024-05-04T07:48:30.000Z</time><ele>1206.8</ele></trkpt><trkpt lat="45.839027" lon="9.183648"><time>2024-05-04T07:48:31.000Z</time><ele>1206.6</ele></trkpt><trkpt lat="45.839028" lon="9.183649"><time>2024-05-04T07:48:32.000Z</time><ele>1206.2</ele></trkpt><trkpt lat="45.839025" lon="9.183664"><time>2024-05-04T07:48:33.000Z</time><ele>1206</ele></trkpt><trkpt lat="45.83903" lon="9.183665"><time>2024-05-04T07:48:34.000Z</time><ele>1205.8</ele></trkpt><trkpt lat="45.839026" lon="9.183669"><time>2024-05-04T07:48:35.000Z</time><ele>1205.6</ele></trkpt><trkpt lat="45.839027" lon="9.183668"><time>2024-05-04T07:48:36.000Z</time><ele>1205.4</ele></trkpt><trkpt lat="45.839025" lon="9.183668"><time>2024-05-04T07:48:37.000Z</time><ele>1205.2</ele></trkpt><trkpt lat="45.839021" lon="9.183674"><time>2024-05-04T07:48:38.000Z</time><ele>1205.2</ele></trkpt><trkpt lat="45.83902" lon="9.183692"><time>2024-05-04T07:48:39.000Z</time><ele>1205.2</ele></trkpt><trkpt lat="45.839025" lon="9.183694"><time>2024-05-04T07:48:40.000Z</time><ele>1205.2</ele></trkpt><trkpt lat="45.839028" lon="9.183694"><time>2024-05-04T07:48:41.000Z</time><ele>1205.2</ele></trkpt><trkpt lat="45.839032" lon="9.183691"><time>2024-05-04T07:48:42.000Z</time><ele>1205.2</ele></trkpt><trkpt lat="45.839032" lon="9.183691"><time>2024-05-04T07:48:43.000Z</time><ele>1205.2</ele></trkpt><trkpt lat="45.839025" lon="9.183689"><time>2024-05-04T07:48:44.000Z</time><ele>1205.2</ele></trkpt><trkpt lat="45.839023" lon="9.183688"><time>2024-05-04T07:48:45.000Z</time><ele>1205.2</ele></trkpt><trkpt lat="45.839024" lon="9.183686"><time>2024-05-04T07:48:46.000Z</time><ele>1205.2</ele></trkpt><trkpt lat="45.839024" lon="9.183685"><time>2024-05-04T07:48:47.000Z</time><ele>1205.2</ele></trkpt><trkpt lat="45.839024" lon="9.183685"><time>2024-05-04T07:48:48.000Z</time><ele>1205.2</ele></trkpt><trkpt lat="45.839024" lon="9.183685"><time>2024-05-04T07:48:49.000Z</time><ele>1205</ele></trkpt><trkpt lat="45.839024" lon="9.183685"><time>2024-05-04T07:48:50.000Z</time><ele>1205</ele></trkpt><trkpt lat="45.839024" lon="9.183685"><time>2024-05-04T07:48:51.000Z</time><ele>1205</ele></trkpt><trkpt lat="45.839024" lon="9.183685"><time>2024-05-04T07:48:52.000Z</time><ele>1205</ele></trkpt><trkpt lat="45.839024" lon="9.183685"><time>2024-05-04T07:48:53.000Z</time><ele>1205</ele></trkpt><trkpt lat="45.839024" lon="9.183685"><time>2024-05-04T07:48:54.000Z</time><ele>1205</ele></trkpt><trkpt lat="45.839024" lon="9.183685"><time>2024-05-04T07:48:55.000Z</time><ele>1205</ele></trkpt><trkpt lat="45.839024" lon="9.183685"><time>2024-05-04T07:48:56.000Z</time><ele>1205</ele></trkpt><trkpt lat="45.839024" lon="9.183685"><time>2024-05-04T07:48:57.000Z</time><ele>1205</ele></trkpt><trkpt lat="45.839025" lon="9.183685"><time>2024-05-04T07:48:58.000Z</time><ele>1205</ele></trkpt><trkpt lat="45.839025" lon="9.183685"><time>2024-05-04T07:48:59.000Z</time><ele>1205</ele></trkpt><trkpt lat="45.839025" lon="9.183685"><time>2024-05-04T07:49:00.000Z</time><ele>1205</ele></trkpt><trkpt lat="45.839026" lon="9.183685"><time>2024-05-04T07:49:01.000Z</time><ele>1205</ele></trkpt><trkpt lat="45.839027" lon="9.183685"><time>2024-05-04T07:49:02.000Z</time><ele>1204.8</ele></trkpt><trkpt lat="45.839028" lon="9.183684"><time>2024-05-04T07:49:03.000Z</time><ele>1204.8</ele></trkpt><trkpt lat="45.83903" lon="9.183684"><time>2024-05-04T07:49:04.000Z</time><ele>1204.8</ele></trkpt><trkpt lat="45.839032" lon="9.183684"><time>2024-05-04T07:49:05.000Z</time><ele>1205</ele></trkpt><trkpt lat="45.839032" lon="9.183684"><time>2024-05-04T07:49:06.000Z</time><ele>1204.8</ele></trkpt><trkpt lat="45.839032" lon="9.183684"><time>2024-05-04T07:49:07.000Z</time><ele>1205</ele></trkpt><trkpt lat="45.839035" lon="9.183684"><time>2024-05-04T07:49:08.000Z</time><ele>1205</ele></trkpt><trkpt lat="45.839039" lon="9.183684"><time>2024-05-04T07:49:09.000Z</time><ele>1205</ele></trkpt><trkpt lat="45.839042" lon="9.183683"><time>2024-05-04T07:49:10.000Z</time><ele>1205</ele></trkpt><trkpt lat="45.839044" lon="9.183683"><time>2024-05-04T07:49:11.000Z</time><ele>1205</ele></trkpt><trkpt lat="45.839045" lon="9.183683"><time>2024-05-04T07:49:12.000Z</time><ele>1205</ele></trkpt><trkpt lat="45.839048" lon="9.183683"><time>2024-05-04T07:49:13.000Z</time><ele>1205</ele></trkpt><trkpt lat="45.83905" lon="9.183683"><time>2024-05-04T07:49:14.000Z</time><ele>1205</ele></trkpt><trkpt lat="45.839051" lon="9.183683"><time>2024-05-04T07:49:15.000Z</time><ele>1205</ele></trkpt><trkpt lat="45.839051" lon="9.183683"><time>2024-05-04T07:49:16.000Z</time><ele>1205</ele></trkpt><trkpt lat="45.839052" lon="9.183683"><time>2024-05-04T07:49:17.000Z</time><ele>1205</ele></trkpt><trkpt lat="45.839052" lon="9.183683"><time>2024-05-04T07:49:18.000Z</time><ele>1205</ele></trkpt><trkpt lat="45.839053" lon="9.183682"><time>2024-05-04T07:49:19.000Z</time><ele>1205</ele></trkpt><trkpt lat="45.839058" lon="9.183682"><time>2024-05-04T07:49:20.000Z</time><ele>1205</ele></trkpt><trkpt lat="45.839061" lon="9.183682"><time>2024-05-04T07:49:21.000Z</time><ele>1205.2</ele></trkpt><trkpt lat="45.839062" lon="9.183681"><time>2024-05-04T07:49:22.000Z</time><ele>1205</ele></trkpt><trkpt lat="45.839063" lon="9.183681"><time>2024-05-04T07:49:23.000Z</time><ele>1205.2</ele></trkpt><trkpt lat="45.839063" lon="9.183681"><time>2024-05-04T07:49:24.000Z</time><ele>1205</ele></trkpt><trkpt lat="45.839063" lon="9.183681"><time>2024-05-04T07:49:25.000Z</time><ele>1205</ele></trkpt><trkpt lat="45.839063" lon="9.18368"><time>2024-05-04T07:49:26.000Z</time><ele>1205</ele></trkpt><trkpt lat="45.839063" lon="9.18368"><time>2024-05-04T07:49:27.000Z</time><ele>1205</ele></trkpt><trkpt lat="45.839064" lon="9.18368"><time>2024-05-04T07:49:28.000Z</time><ele>1205</ele></trkpt><trkpt lat="45.839064" lon="9.18368"><time>2024-05-04T07:49:29.000Z</time><ele>1205</ele></trkpt><trkpt lat="45.839064" lon="9.18368"><time>2024-05-04T07:49:30.000Z</time><ele>1205</ele></trkpt><trkpt lat="45.839064" lon="9.18368"><time>2024-05-04T07:49:31.000Z</time><ele>1205</ele></trkpt><trkpt lat="45.839065" lon="9.18368"><time>2024-05-04T07:49:32.000Z</time><ele>1205</ele></trkpt><trkpt lat="45.839065" lon="9.18368"><time>2024-05-04T07:49:33.000Z</time><ele>1205</ele></trkpt><trkpt lat="45.839066" lon="9.18368"><time>2024-05-04T07:49:34.000Z</time><ele>1205</ele></trkpt><trkpt lat="45.839066" lon="9.18368"><time>2024-05-04T07:49:35.000Z</time><ele>1205</ele></trkpt><trkpt lat="45.839067" lon="9.18368"><time>2024-05-04T07:49:36.000Z</time><ele>1205</ele></trkpt><trkpt lat="45.839067" lon="9.18368"><time>2024-05-04T07:49:37.000Z</time><ele>1205</ele></trkpt><trkpt lat="45.839067" lon="9.18368"><time>2024-05-04T07:49:38.000Z</time><ele>1205</ele></trkpt><trkpt lat="45.839068" lon="9.18368"><time>2024-05-04T07:49:39.000Z</time><ele>1205</ele></trkpt><trkpt lat="45.839069" lon="9.183683"><time>2024-05-04T07:49:40.000Z</time><ele>1205</ele></trkpt><trkpt lat="45.839077" lon="9.18369"><time>2024-05-04T07:49:41.000Z</time><ele>1205.2</ele></trkpt><trkpt lat="45.83908" lon="9.183694"><time>2024-05-04T07:49:42.000Z</time><ele>1205.2</ele></trkpt><trkpt lat="45.839084" lon="9.183701"><time>2024-05-04T07:49:43.000Z</time><ele>1205.2</ele></trkpt><trkpt lat="45.839086" lon="9.183707"><time>2024-05-04T07:49:44.000Z</time><ele>1205.2</ele></trkpt><trkpt lat="45.839092" lon="9.183708"><time>2024-05-04T07:49:45.000Z</time><ele>1205.2</ele></trkpt><trkpt lat="45.839097" lon="9.183714"><time>2024-05-04T07:49:46.000Z</time><ele>1205.2</ele></trkpt><trkpt lat="45.839102" lon="9.183718"><time>2024-05-04T07:49:47.000Z</time><ele>1205.2</ele></trkpt><trkpt lat="45.839102" lon="9.183718"><time>2024-05-04T07:49:48.000Z</time><ele>1205.2</ele></trkpt><trkpt lat="45.839102" lon="9.183718"><time>2024-05-04T07:49:49.000Z</time><ele>1205.2</ele></trkpt><trkpt lat="45.839102" lon="9.183718"><time>2024-05-04T07:49:50.000Z</time><ele>1205.2</ele></trkpt><trkpt lat="45.839102" lon="9.183718"><time>2024-05-04T07:49:51.000Z</time><ele>1205.2</ele></trkpt><trkpt lat="45.839102" lon="9.183718"><time>2024-05-04T07:49:52.000Z</time><ele>1205.2</ele></trkpt><trkpt lat="45.839102" lon="9.183718"><time>2024-05-04T07:49:53.000Z</time><ele>1205.2</ele></trkpt><trkpt lat="45.839102" lon="9.183718"><time>2024-05-04T07:49:54.000Z</time><ele>1205.2</ele></trkpt><trkpt lat="45.839102" lon="9.183718"><time>2024-05-04T07:49:55.000Z</time><ele>1205.2</ele></trkpt><trkpt lat="45.839102" lon="9.183718"><time>2024-05-04T07:49:56.000Z</time><ele>1205.2</ele></trkpt><trkpt lat="45.839102" lon="9.183718"><time>2024-05-04T07:49:57.000Z</time><ele>1205.2</ele></trkpt><trkpt lat="45.839102" lon="9.183718"><time>2024-05-04T07:49:58.000Z</time><ele>1205.2</ele></trkpt><trkpt lat="45.839106" lon="9.183717"><time>2024-05-04T07:49:59.000Z</time><ele>1205.2</ele></trkpt><trkpt lat="45.839111" lon="9.183713"><time>2024-05-04T07:50:00.000Z</time><ele>1205.2</ele></trkpt><trkpt lat="45.839123" lon="9.183714"><time>2024-05-04T07:50:01.000Z</time><ele>1205.2</ele></trkpt><trkpt lat="45.839132" lon="9.183714"><time>2024-05-04T07:50:02.000Z</time><ele>1205.2</ele></trkpt><trkpt lat="45.839143" lon="9.183711"><time>2024-05-04T07:50:03.000Z</time><ele>1205.2</ele></trkpt><trkpt lat="45.839157" lon="9.183708"><time>2024-05-04T07:50:04.000Z</time><ele>1205.2</ele></trkpt><trkpt lat="45.839173" lon="9.183706"><time>2024-05-04T07:50:05.000Z</time><ele>1205.2</ele></trkpt><trkpt lat="45.839184" lon="9.183707"><time>2024-05-04T07:50:06.000Z</time><ele>1205.2</ele></trkpt><trkpt lat="45.839192" lon="9.183707"><time>2024-05-04T07:50:07.000Z</time><ele>1205.2</ele></trkpt><trkpt lat="45.839197" lon="9.183706"><time>2024-05-04T07:50:08.000Z</time><ele>1205.2</ele></trkpt><trkpt lat="45.839202" lon="9.183711"><time>2024-05-04T07:50:09.000Z</time><ele>1205.2</ele></trkpt><trkpt lat="45.839206" lon="9.183715"><time>2024-05-04T07:50:10.000Z</time><ele>1205.2</ele></trkpt><trkpt lat="45.83921" lon="9.183722"><time>2024-05-04T07:50:11.000Z</time><ele>1205.2</ele></trkpt><trkpt lat="45.839213" lon="9.183728"><time>2024-05-04T07:50:12.000Z</time><ele>1205.2</ele></trkpt><trkpt lat="45.839218" lon="9.183728"><time>2024-05-04T07:50:13.000Z</time><ele>1205.2</ele></trkpt><trkpt lat="45.839222" lon="9.183729"><time>2024-05-04T07:50:14.000Z</time><ele>1205.2</ele></trkpt><trkpt lat="45.839223" lon="9.18373"><time>2024-05-04T07:50:15.000Z</time><ele>1205.2</ele></trkpt><trkpt lat="45.839223" lon="9.183732"><time>2024-05-04T07:50:16.000Z</time><ele>1205.2</ele></trkpt><trkpt lat="45.839223" lon="9.183734"><time>2024-05-04T07:50:17.000Z</time><ele>1205.2</ele></trkpt><trkpt lat="45.839221" lon="9.183735"><time>2024-05-04T07:50:18.000Z</time><ele>1205.2</ele></trkpt><trkpt lat="45.839224" lon="9.183738"><time>2024-05-04T07:50:19.000Z</time><ele>1205.2</ele></trkpt><trkpt lat="45.839228" lon="9.183739"><time>2024-05-04T07:50:20.000Z</time><ele>1205.2</ele></trkpt><trkpt lat="45.839224" lon="9.183736"><time>2024-05-04T07:50:21.000Z</time><ele>1205.2</ele></trkpt><trkpt lat="45.839224" lon="9.183736"><time>2024-05-04T07:50:22.000Z</time><ele>1205.2</ele></trkpt><trkpt lat="45.839224" lon="9.183732"><time>2024-05-04T07:50:23.000Z</time><ele>1205.2</ele></trkpt><trkpt lat="45.839228" lon="9.183729"><time>2024-05-04T07:50:24.000Z</time><ele>1205.2</ele></trkpt><trkpt lat="45.839235" lon="9.183724"><time>2024-05-04T07:50:25.000Z</time><ele>1205.2</ele></trkpt><trkpt lat="45.839238" lon="9.183723"><time>2024-05-04T07:50:26.000Z</time><ele>1205.2</ele></trkpt><trkpt lat="45.839236" lon="9.183723"><time>2024-05-04T07:50:27.000Z</time><ele>1205.2</ele></trkpt><trkpt lat="45.839239" lon="9.183723"><time>2024-05-04T07:50:28.000Z</time><ele>1205.2</ele></trkpt><trkpt lat="45.839242" lon="9.183725"><time>2024-05-04T07:50:29.000Z</time><ele>1205.2</ele></trkpt><trkpt lat="45.839244" lon="9.183727"><time>2024-05-04T07:50:30.000Z</time><ele>1205.2</ele></trkpt><trkpt lat="45.839242" lon="9.183727"><time>2024-05-04T07:50:31.000Z</time><ele>1205.2</ele></trkpt><trkpt lat="45.839245" lon="9.18373"><time>2024-05-04T07:50:32.000Z</time><ele>1205.2</ele></trkpt><trkpt lat="45.839244" lon="9.183731"><time>2024-05-04T07:50:33.000Z</time><ele>1205.2</ele></trkpt><trkpt lat="45.839243" lon="9.183732"><time>2024-05-04T07:50:34.000Z</time><ele>1205.2</ele></trkpt><trkpt lat="45.839244" lon="9.183731"><time>2024-05-04T07:50:35.000Z</time><ele>1205.2</ele></trkpt><trkpt lat="45.839244" lon="9.183729"><time>2024-05-04T07:50:36.000Z</time><ele>1205.2</ele></trkpt><trkpt lat="45.839246" lon="9.183729"><time>2024-05-04T07:50:37.000Z</time><ele>1205.2</ele></trkpt><trkpt lat="45.839248" lon="9.18373"><time>2024-05-04T07:50:38.000Z</time><ele>1205.2</ele></trkpt><trkpt lat="45.839251" lon="9.183733"><time>2024-05-04T07:50:39.000Z</time><ele>1205.2</ele></trkpt><trkpt lat="45.839257" lon="9.183738"><time>2024-05-04T07:50:40.000Z</time><ele>1205.2</ele></trkpt><trkpt lat="45.839259" lon="9.183744"><time>2024-05-04T07:50:41.000Z</time><ele>1205.2</ele></trkpt><trkpt lat="45.839262" lon="9.183752"><time>2024-05-04T07:50:42.000Z</time><ele>1205.2</ele></trkpt><trkpt lat="45.839266" lon="9.183759"><time>2024-05-04T07:50:43.000Z</time><ele>1205.2</ele></trkpt><trkpt lat="45.839267" lon="9.183768"><time>2024-05-04T07:50:44.000Z</time><ele>1205.2</ele></trkpt><trkpt lat="45.839274" lon="9.183773"><time>2024-05-04T07:50:45.000Z</time><ele>1205.2</ele></trkpt><trkpt lat="45.839279" lon="9.183778"><time>2024-05-04T07:50:46.000Z</time><ele>1205.2</ele></trkpt><trkpt lat="45.839293" lon="9.183782"><time>2024-05-04T07:50:47.000Z</time><ele>1201.6</ele></trkpt><trkpt lat="45.839299" lon="9.183784"><time>2024-05-04T07:50:48.000Z</time><ele>1199.8</ele></trkpt><trkpt lat="45.839307" lon="9.183798"><time>2024-05-04T07:50:49.000Z</time><ele>1198.6</ele></trkpt><trkpt lat="45.839316" lon="9.183804"><time>2024-05-04T07:50:50.000Z</time><ele>1198</ele></trkpt><trkpt lat="45.839322" lon="9.183804"><time>2024-05-04T07:50:51.000Z</time><ele>1197.6</ele></trkpt><trkpt lat="45.839326" lon="9.183802"><time>2024-05-04T07:50:52.000Z</time><ele>1197.2</ele></trkpt><trkpt lat="45.839332" lon="9.183804"><time>2024-05-04T07:50:53.000Z</time><ele>1197</ele></trkpt><trkpt lat="45.839343" lon="9.183806"><time>2024-05-04T07:50:54.000Z</time><ele>1196.8</ele></trkpt><trkpt lat="45.839347" lon="9.183803"><time>2024-05-04T07:50:55.000Z</time><ele>1196.6</ele></trkpt><trkpt lat="45.839355" lon="9.183808"><time>2024-05-04T07:50:56.000Z</time><ele>1196.2</ele></trkpt><trkpt lat="45.839368" lon="9.183812"><time>2024-05-04T07:50:57.000Z</time><ele>1196.2</ele></trkpt><trkpt lat="45.839377" lon="9.183814"><time>2024-05-04T07:50:58.000Z</time><ele>1196</ele></trkpt><trkpt lat="45.839384" lon="9.183816"><time>2024-05-04T07:50:59.000Z</time><ele>1195.6</ele></trkpt><trkpt lat="45.839393" lon="9.183818"><time>2024-05-04T07:51:00.000Z</time><ele>1195.2</ele></trkpt><trkpt lat="45.839403" lon="9.18382"><time>2024-05-04T07:51:01.000Z</time><ele>1194.8</ele></trkpt><trkpt lat="45.839409" lon="9.183825"><time>2024-05-04T07:51:02.000Z</time><ele>1194.6</ele></trkpt><trkpt lat="45.839411" lon="9.183829"><time>2024-05-04T07:51:03.000Z</time><ele>1194.4</ele></trkpt><trkpt lat="45.839413" lon="9.183837"><time>2024-05-04T07:51:04.000Z</time><ele>1194.2</ele></trkpt><trkpt lat="45.839418" lon="9.183841"><time>2024-05-04T07:51:05.000Z</time><ele>1193.8</ele></trkpt><trkpt lat="45.839423" lon="9.183844"><time>2024-05-04T07:51:06.000Z</time><ele>1193.6</ele></trkpt><trkpt lat="45.839426" lon="9.183847"><time>2024-05-04T07:51:07.000Z</time><ele>1193.4</ele></trkpt><trkpt lat="45.839429" lon="9.183852"><time>2024-05-04T07:51:08.000Z</time><ele>1193.4</ele></trkpt><trkpt lat="45.839431" lon="9.183854"><time>2024-05-04T07:51:09.000Z</time><ele>1193.2</ele></trkpt><trkpt lat="45.839435" lon="9.183852"><time>2024-05-04T07:51:10.000Z</time><ele>1193.2</ele></trkpt><trkpt lat="45.839443" lon="9.183853"><time>2024-05-04T07:51:11.000Z</time><ele>1192.8</ele></trkpt><trkpt lat="45.839449" lon="9.183853"><time>2024-05-04T07:51:12.000Z</time><ele>1192.4</ele></trkpt><trkpt lat="45.839453" lon="9.183856"><time>2024-05-04T07:51:13.000Z</time><ele>1192.2</ele></trkpt><trkpt lat="45.839459" lon="9.18386"><time>2024-05-04T07:51:14.000Z</time><ele>1192</ele></trkpt><trkpt lat="45.839459" lon="9.183864"><time>2024-05-04T07:51:15.000Z</time><ele>1191.8</ele></trkpt><trkpt lat="45.839464" lon="9.183871"><time>2024-05-04T07:51:16.000Z</time><ele>1191.6</ele></trkpt><trkpt lat="45.839471" lon="9.183878"><time>2024-05-04T07:51:17.000Z</time><ele>1191.4</ele></trkpt><trkpt lat="45.839478" lon="9.183882"><time>2024-05-04T07:51:18.000Z</time><ele>1191</ele></trkpt><trkpt lat="45.839484" lon="9.183882"><time>2024-05-04T07:51:19.000Z</time><ele>1190.6</ele></trkpt><trkpt lat="45.839489" lon="9.183879"><time>2024-05-04T07:51:20.000Z</time><ele>1190.6</ele></trkpt><trkpt lat="45.839493" lon="9.183873"><time>2024-05-04T07:51:21.000Z</time><ele>1190.4</ele></trkpt><trkpt lat="45.839494" lon="9.18387"><time>2024-05-04T07:51:22.000Z</time><ele>1190.4</ele></trkpt><trkpt lat="45.839493" lon="9.183868"><time>2024-05-04T07:51:23.000Z</time><ele>1190</ele></trkpt><trkpt lat="45.839496" lon="9.183862"><time>2024-05-04T07:51:24.000Z</time><ele>1189.8</ele></trkpt><trkpt lat="45.839501" lon="9.183858"><time>2024-05-04T07:51:25.000Z</time><ele>1189.6</ele></trkpt><trkpt lat="45.839504" lon="9.183855"><time>2024-05-04T07:51:26.000Z</time><ele>1189.4</ele></trkpt><trkpt lat="45.839504" lon="9.183856"><time>2024-05-04T07:51:27.000Z</time><ele>1189.2</ele></trkpt><trkpt lat="45.839505" lon="9.183855"><time>2024-05-04T07:51:28.000Z</time><ele>1189</ele></trkpt><trkpt lat="45.839509" lon="9.18386"><time>2024-05-04T07:51:29.000Z</time><ele>1188.8</ele></trkpt><trkpt lat="45.839509" lon="9.183859"><time>2024-05-04T07:51:30.000Z</time><ele>1188.6</ele></trkpt><trkpt lat="45.839511" lon="9.183856"><time>2024-05-04T07:51:31.000Z</time><ele>1188.4</ele></trkpt><trkpt lat="45.839513" lon="9.183854"><time>2024-05-04T07:51:32.000Z</time><ele>1188.2</ele></trkpt><trkpt lat="45.839512" lon="9.183852"><time>2024-05-04T07:51:33.000Z</time><ele>1188.2</ele></trkpt><trkpt lat="45.839509" lon="9.183852"><time>2024-05-04T07:51:34.000Z</time><ele>1187.8</ele></trkpt><trkpt lat="45.839508" lon="9.183858"><time>2024-05-04T07:51:35.000Z</time><ele>1187.6</ele></trkpt><trkpt lat="45.83951" lon="9.183862"><time>2024-05-04T07:51:36.000Z</time><ele>1187.6</ele></trkpt><trkpt lat="45.839519" lon="9.183873"><time>2024-05-04T07:51:37.000Z</time><ele>1187.2</ele></trkpt><trkpt lat="45.839526" lon="9.18388"><time>2024-05-04T07:51:38.000Z</time><ele>1187.2</ele></trkpt><trkpt lat="45.839529" lon="9.18389"><time>2024-05-04T07:51:39.000Z</time><ele>1187</ele></trkpt><trkpt lat="45.839534" lon="9.183896"><time>2024-05-04T07:51:40.000Z</time><ele>1186.8</ele></trkpt><trkpt lat="45.83954" lon="9.183908"><time>2024-05-04T07:51:41.000Z</time><ele>1186.6</ele></trkpt><trkpt lat="45.839538" lon="9.183919"><time>2024-05-04T07:51:42.000Z</time><ele>1186.4</ele></trkpt><trkpt lat="45.839535" lon="9.183928"><time>2024-05-04T07:51:43.000Z</time><ele>1186.4</ele></trkpt><trkpt lat="45.839532" lon="9.183941"><time>2024-05-04T07:51:44.000Z</time><ele>1186.2</ele></trkpt><trkpt lat="45.839535" lon="9.183952"><time>2024-05-04T07:51:45.000Z</time><ele>1186.2</ele></trkpt><trkpt lat="45.83954" lon="9.183966"><time>2024-05-04T07:51:46.000Z</time><ele>1186</ele></trkpt><trkpt lat="45.839546" lon="9.183975"><time>2024-05-04T07:51:47.000Z</time><ele>1186</ele></trkpt><trkpt lat="45.839553" lon="9.183979"><time>2024-05-04T07:51:48.000Z</time><ele>1185.6</ele></trkpt><trkpt lat="45.839555" lon="9.183981"><time>2024-05-04T07:51:49.000Z</time><ele>1185.4</ele></trkpt><trkpt lat="45.839555" lon="9.183984"><time>2024-05-04T07:51:50.000Z</time><ele>1185.2</ele></trkpt><trkpt lat="45.839556" lon="9.183987"><time>2024-05-04T07:51:51.000Z</time><ele>1185</ele></trkpt><trkpt lat="45.839563" lon="9.183998"><time>2024-05-04T07:51:52.000Z</time><ele>1184.8</ele></trkpt><trkpt lat="45.839553" lon="9.184002"><time>2024-05-04T07:51:53.000Z</time><ele>1184.8</ele></trkpt><trkpt lat="45.839548" lon="9.184005"><time>2024-05-04T07:51:54.000Z</time><ele>1184.4</ele></trkpt><trkpt lat="45.839547" lon="9.18401"><time>2024-05-04T07:51:55.000Z</time><ele>1184.4</ele></trkpt><trkpt lat="45.83955" lon="9.184015"><time>2024-05-04T07:51:56.000Z</time><ele>1184.2</ele></trkpt><trkpt lat="45.83955" lon="9.184028"><time>2024-05-04T07:51:57.000Z</time><ele>1184</ele></trkpt><trkpt lat="45.839556" lon="9.184041"><time>2024-05-04T07:51:58.000Z</time><ele>1183.8</ele></trkpt><trkpt lat="45.839566" lon="9.184052"><time>2024-05-04T07:51:59.000Z</time><ele>1183.4</ele></trkpt><trkpt lat="45.83957" lon="9.184057"><time>2024-05-04T07:52:00.000Z</time><ele>1183</ele></trkpt><trkpt lat="45.839571" lon="9.184064"><time>2024-05-04T07:52:01.000Z</time><ele>1182.6</ele></trkpt><trkpt lat="45.839574" lon="9.184063"><time>2024-05-04T07:52:02.000Z</time><ele>1182.6</ele></trkpt><trkpt lat="45.83958" lon="9.184069"><time>2024-05-04T07:52:03.000Z</time><ele>1182.2</ele></trkpt><trkpt lat="45.839592" lon="9.184078"><time>2024-05-04T07:52:04.000Z</time><ele>1182</ele></trkpt><trkpt lat="45.839611" lon="9.184089"><time>2024-05-04T07:52:05.000Z</time><ele>1181.8</ele></trkpt><trkpt lat="45.839625" lon="9.184096"><time>2024-05-04T07:52:06.000Z</time><ele>1181.6</ele></trkpt><trkpt lat="45.839634" lon="9.184103"><time>2024-05-04T07:52:07.000Z</time><ele>1181.4</ele></trkpt><trkpt lat="45.839639" lon="9.184111"><time>2024-05-04T07:52:08.000Z</time><ele>1181.2</ele></trkpt><trkpt lat="45.839643" lon="9.184115"><time>2024-05-04T07:52:09.000Z</time><ele>1181</ele></trkpt><trkpt lat="45.839649" lon="9.184119"><time>2024-05-04T07:52:10.000Z</time><ele>1181</ele></trkpt><trkpt lat="45.839652" lon="9.184118"><time>2024-05-04T07:52:11.000Z</time><ele>1180.6</ele></trkpt><trkpt lat="45.839653" lon="9.184122"><time>2024-05-04T07:52:12.000Z</time><ele>1180.6</ele></trkpt><trkpt lat="45.839651" lon="9.184124"><time>2024-05-04T07:52:13.000Z</time><ele>1180.4</ele></trkpt><trkpt lat="45.839645" lon="9.184126"><time>2024-05-04T07:52:14.000Z</time><ele>1180.4</ele></trkpt><trkpt lat="45.839646" lon="9.184131"><time>2024-05-04T07:52:15.000Z</time><ele>1180</ele></trkpt><trkpt lat="45.839643" lon="9.184135"><time>2024-05-04T07:52:16.000Z</time><ele>1180</ele></trkpt><trkpt lat="45.839655" lon="9.184144"><time>2024-05-04T07:52:17.000Z</time><ele>1179.8</ele></trkpt><trkpt lat="45.839658" lon="9.184148"><time>2024-05-04T07:52:18.000Z</time><ele>1179.6</ele></trkpt><trkpt lat="45.839653" lon="9.18415"><time>2024-05-04T07:52:19.000Z</time><ele>1179.4</ele></trkpt><trkpt lat="45.839653" lon="9.184153"><time>2024-05-04T07:52:20.000Z</time><ele>1179.2</ele></trkpt><trkpt lat="45.839654" lon="9.184157"><time>2024-05-04T07:52:21.000Z</time><ele>1179</ele></trkpt><trkpt lat="45.839653" lon="9.184158"><time>2024-05-04T07:52:22.000Z</time><ele>1178.6</ele></trkpt><trkpt lat="45.839657" lon="9.184159"><time>2024-05-04T07:52:23.000Z</time><ele>1178.4</ele></trkpt><trkpt lat="45.839671" lon="9.184162"><time>2024-05-04T07:52:24.000Z</time><ele>1178.4</ele></trkpt><trkpt lat="45.839685" lon="9.184168"><time>2024-05-04T07:52:25.000Z</time><ele>1178.2</ele></trkpt><trkpt lat="45.839708" lon="9.184183"><time>2024-05-04T07:52:26.000Z</time><ele>1178.2</ele></trkpt><trkpt lat="45.839721" lon="9.184189"><time>2024-05-04T07:52:27.000Z</time><ele>1178</ele></trkpt><trkpt lat="45.839739" lon="9.184202"><time>2024-05-04T07:52:28.000Z</time><ele>1178</ele></trkpt><trkpt lat="45.839758" lon="9.184216"><time>2024-05-04T07:52:29.000Z</time><ele>1177.8</ele></trkpt><trkpt lat="45.839771" lon="9.18423"><time>2024-05-04T07:52:30.000Z</time><ele>1177.6</ele></trkpt><trkpt lat="45.839771" lon="9.184233"><time>2024-05-04T07:52:31.000Z</time><ele>1177.4</ele></trkpt><trkpt lat="45.83978" lon="9.184245"><time>2024-05-04T07:52:32.000Z</time><ele>1177.2</ele></trkpt><trkpt lat="45.839783" lon="9.184245"><time>2024-05-04T07:52:33.000Z</time><ele>1177.2</ele></trkpt><trkpt lat="45.83978" lon="9.184256"><time>2024-05-04T07:52:34.000Z</time><ele>1176.8</ele></trkpt><trkpt lat="45.839783" lon="9.184277"><time>2024-05-04T07:52:35.000Z</time><ele>1176.8</ele></trkpt><trkpt lat="45.839784" lon="9.18429"><time>2024-05-04T07:52:36.000Z</time><ele>1176.6</ele></trkpt><trkpt lat="45.839781" lon="9.184303"><time>2024-05-04T07:52:37.000Z</time><ele>1176.4</ele></trkpt><trkpt lat="45.839784" lon="9.184309"><time>2024-05-04T07:52:38.000Z</time><ele>1176.4</ele></trkpt><trkpt lat="45.839791" lon="9.184313"><time>2024-05-04T07:52:39.000Z</time><ele>1176.2</ele></trkpt><trkpt lat="45.839806" lon="9.184319"><time>2024-05-04T07:52:40.000Z</time><ele>1176</ele></trkpt><trkpt lat="45.839831" lon="9.184333"><time>2024-05-04T07:52:41.000Z</time><ele>1175.8</ele></trkpt><trkpt lat="45.839845" lon="9.184335"><time>2024-05-04T07:52:42.000Z</time><ele>1175.8</ele></trkpt><trkpt lat="45.839849" lon="9.184346"><time>2024-05-04T07:52:43.000Z</time><ele>1175.6</ele></trkpt><trkpt lat="45.839859" lon="9.184352"><time>2024-05-04T07:52:44.000Z</time><ele>1175.6</ele></trkpt><trkpt lat="45.839879" lon="9.184363"><time>2024-05-04T07:52:45.000Z</time><ele>1175.4</ele></trkpt><trkpt lat="45.839889" lon="9.184371"><time>2024-05-04T07:52:46.000Z</time><ele>1175.2</ele></trkpt><trkpt lat="45.839903" lon="9.184374"><time>2024-05-04T07:52:47.000Z</time><ele>1175</ele></trkpt><trkpt lat="45.839913" lon="9.184374"><time>2024-05-04T07:52:48.000Z</time><ele>1175</ele></trkpt><trkpt lat="45.83992" lon="9.184376"><time>2024-05-04T07:52:49.000Z</time><ele>1175</ele></trkpt><trkpt lat="45.839928" lon="9.184384"><time>2024-05-04T07:52:50.000Z</time><ele>1174.8</ele></trkpt><trkpt lat="45.839932" lon="9.184387"><time>2024-05-04T07:52:51.000Z</time><ele>1174.8</ele></trkpt><trkpt lat="45.839937" lon="9.184385"><time>2024-05-04T07:52:52.000Z</time><ele>1175</ele></trkpt><trkpt lat="45.839939" lon="9.184382"><time>2024-05-04T07:52:53.000Z</time><ele>1175</ele></trkpt><trkpt lat="45.83994" lon="9.184379"><time>2024-05-04T07:52:54.000Z</time><ele>1175</ele></trkpt><trkpt lat="45.83994" lon="9.18438"><time>2024-05-04T07:52:55.000Z</time><ele>1175</ele></trkpt><trkpt lat="45.839944" lon="9.184382"><time>2024-05-04T07:52:56.000Z</time><ele>1175</ele></trkpt><trkpt lat="45.839949" lon="9.184387"><time>2024-05-04T07:52:57.000Z</time><ele>1175</ele></trkpt><trkpt lat="45.839956" lon="9.184394"><time>2024-05-04T07:52:58.000Z</time><ele>1175</ele></trkpt><trkpt lat="45.839961" lon="9.184403"><time>2024-05-04T07:52:59.000Z</time><ele>1175</ele></trkpt><trkpt lat="45.839973" lon="9.184416"><time>2024-05-04T07:53:00.000Z</time><ele>1174.8</ele></trkpt><trkpt lat="45.839988" lon="9.184432"><time>2024-05-04T07:53:01.000Z</time><ele>1174.4</ele></trkpt><trkpt lat="45.839996" lon="9.184441"><time>2024-05-04T07:53:02.000Z</time><ele>1174.2</ele></trkpt><trkpt lat="45.840009" lon="9.184444"><time>2024-05-04T07:53:03.000Z</time><ele>1174</ele></trkpt><trkpt lat="45.840018" lon="9.184447"><time>2024-05-04T07:53:04.000Z</time><ele>1174</ele></trkpt><trkpt lat="45.84002" lon="9.184446"><time>2024-05-04T07:53:05.000Z</time><ele>1173.6</ele></trkpt><trkpt lat="45.840022" lon="9.184444"><time>2024-05-04T07:53:06.000Z</time><ele>1173.4</ele></trkpt><trkpt lat="45.840025" lon="9.184442"><time>2024-05-04T07:53:07.000Z</time><ele>1173.2</ele></trkpt><trkpt lat="45.840032" lon="9.184433"><time>2024-05-04T07:53:08.000Z</time><ele>1173.2</ele></trkpt><trkpt lat="45.840033" lon="9.184432"><time>2024-05-04T07:53:09.000Z</time><ele>1173.2</ele></trkpt><trkpt lat="45.840034" lon="9.184429"><time>2024-05-04T07:53:10.000Z</time><ele>1173.2</ele></trkpt><trkpt lat="45.840034" lon="9.184427"><time>2024-05-04T07:53:11.000Z</time><ele>1173.2</ele></trkpt><trkpt lat="45.840036" lon="9.184427"><time>2024-05-04T07:53:12.000Z</time><ele>1173.2</ele></trkpt><trkpt lat="45.840037" lon="9.184427"><time>2024-05-04T07:53:13.000Z</time><ele>1173.2</ele></trkpt><trkpt lat="45.840036" lon="9.184429"><time>2024-05-04T07:53:14.000Z</time><ele>1173.4</ele></trkpt><trkpt lat="45.840036" lon="9.184432"><time>2024-05-04T07:53:15.000Z</time><ele>1173.4</ele></trkpt><trkpt lat="45.840038" lon="9.184435"><time>2024-05-04T07:53:16.000Z</time><ele>1173.4</ele></trkpt><trkpt lat="45.84004" lon="9.184439"><time>2024-05-04T07:53:17.000Z</time><ele>1173.2</ele></trkpt><trkpt lat="45.840043" lon="9.18445"><time>2024-05-04T07:53:18.000Z</time><ele>1173.2</ele></trkpt><trkpt lat="45.840056" lon="9.184453"><time>2024-05-04T07:53:19.000Z</time><ele>1173.2</ele></trkpt><trkpt lat="45.840067" lon="9.184465"><time>2024-05-04T07:53:20.000Z</time><ele>1173</ele></trkpt><trkpt lat="45.84007" lon="9.18447"><time>2024-05-04T07:53:21.000Z</time><ele>1172.8</ele></trkpt><trkpt lat="45.840075" lon="9.184472"><time>2024-05-04T07:53:22.000Z</time><ele>1172.6</ele></trkpt><trkpt lat="45.840079" lon="9.184473"><time>2024-05-04T07:53:23.000Z</time><ele>1172.6</ele></trkpt><trkpt lat="45.840084" lon="9.184474"><time>2024-05-04T07:53:24.000Z</time><ele>1172.4</ele></trkpt><trkpt lat="45.840093" lon="9.184477"><time>2024-05-04T07:53:25.000Z</time><ele>1172.2</ele></trkpt><trkpt lat="45.840102" lon="9.184479"><time>2024-05-04T07:53:26.000Z</time><ele>1172.2</ele></trkpt><trkpt lat="45.840108" lon="9.184485"><time>2024-05-04T07:53:27.000Z</time><ele>1171.8</ele></trkpt><trkpt lat="45.840111" lon="9.184491"><time>2024-05-04T07:53:28.000Z</time><ele>1171.6</ele></trkpt><trkpt lat="45.840115" lon="9.1845"><time>2024-05-04T07:53:29.000Z</time><ele>1171.6</ele></trkpt><trkpt lat="45.840119" lon="9.184514"><time>2024-05-04T07:53:30.000Z</time><ele>1171.2</ele></trkpt><trkpt lat="45.840123" lon="9.184522"><time>2024-05-04T07:53:31.000Z</time><ele>1171</ele></trkpt><trkpt lat="45.840127" lon="9.184521"><time>2024-05-04T07:53:32.000Z</time><ele>1170.8</ele></trkpt><trkpt lat="45.840137" lon="9.184527"><time>2024-05-04T07:53:33.000Z</time><ele>1170.8</ele></trkpt><trkpt lat="45.840141" lon="9.184531"><time>2024-05-04T07:53:34.000Z</time><ele>1170.6</ele></trkpt><trkpt lat="45.840141" lon="9.184534"><time>2024-05-04T07:53:35.000Z</time><ele>1170.4</ele></trkpt><trkpt lat="45.840146" lon="9.184548"><time>2024-05-04T07:53:36.000Z</time><ele>1170.2</ele></trkpt><trkpt lat="45.840153" lon="9.184558"><time>2024-05-04T07:53:37.000Z</time><ele>1170</ele></trkpt><trkpt lat="45.840157" lon="9.184567"><time>2024-05-04T07:53:38.000Z</time><ele>1169.8</ele></trkpt><trkpt lat="45.840161" lon="9.18457"><time>2024-05-04T07:53:39.000Z</time><ele>1169.6</ele></trkpt><trkpt lat="45.84016" lon="9.184571"><time>2024-05-04T07:53:40.000Z</time><ele>1169.4</ele></trkpt><trkpt lat="45.840161" lon="9.184573"><time>2024-05-04T07:53:41.000Z</time><ele>1169.2</ele></trkpt><trkpt lat="45.840187" lon="9.18459"><time>2024-05-04T07:53:42.000Z</time><ele>1169</ele></trkpt><trkpt lat="45.840211" lon="9.184607"><time>2024-05-04T07:53:43.000Z</time><ele>1169</ele></trkpt><trkpt lat="45.840233" lon="9.18462"><time>2024-05-04T07:53:44.000Z</time><ele>1168.8</ele></trkpt><trkpt lat="45.840247" lon="9.184631"><time>2024-05-04T07:53:45.000Z</time><ele>1168.8</ele></trkpt><trkpt lat="45.840259" lon="9.184653"><time>2024-05-04T07:53:46.000Z</time><ele>1168.8</ele></trkpt><trkpt lat="45.840278" lon="9.184668"><time>2024-05-04T07:53:47.000Z</time><ele>1168.8</ele></trkpt><trkpt lat="45.840294" lon="9.184676"><time>2024-05-04T07:53:48.000Z</time><ele>1169</ele></trkpt><trkpt lat="45.840309" lon="9.184685"><time>2024-05-04T07:53:49.000Z</time><ele>1168.8</ele></trkpt><trkpt lat="45.84032" lon="9.184689"><time>2024-05-04T07:53:50.000Z</time><ele>1168.8</ele></trkpt><trkpt lat="45.840333" lon="9.184699"><time>2024-05-04T07:53:51.000Z</time><ele>1168.8</ele></trkpt><trkpt lat="45.840343" lon="9.184703"><time>2024-05-04T07:53:52.000Z</time><ele>1169</ele></trkpt><trkpt lat="45.84035" lon="9.184703"><time>2024-05-04T07:53:53.000Z</time><ele>1169</ele></trkpt><trkpt lat="45.84036" lon="9.184709"><time>2024-05-04T07:53:54.000Z</time><ele>1169</ele></trkpt><trkpt lat="45.840368" lon="9.184716"><time>2024-05-04T07:53:55.000Z</time><ele>1169</ele></trkpt><trkpt lat="45.840372" lon="9.184721"><time>2024-05-04T07:53:56.000Z</time><ele>1169</ele></trkpt><trkpt lat="45.840377" lon="9.184731"><time>2024-05-04T07:53:57.000Z</time><ele>1169</ele></trkpt><trkpt lat="45.840382" lon="9.184745"><time>2024-05-04T07:53:58.000Z</time><ele>1169</ele></trkpt><trkpt lat="45.840388" lon="9.184758"><time>2024-05-04T07:53:59.000Z</time><ele>1169</ele></trkpt><trkpt lat="45.840398" lon="9.18477"><time>2024-05-04T07:54:00.000Z</time><ele>1169.2</ele></trkpt><trkpt lat="45.840403" lon="9.184785"><time>2024-05-04T07:54:01.000Z</time><ele>1169</ele></trkpt><trkpt lat="45.840408" lon="9.184796"><time>2024-05-04T07:54:02.000Z</time><ele>1169</ele></trkpt><trkpt lat="45.840413" lon="9.184806"><time>2024-05-04T07:54:03.000Z</time><ele>1168.8</ele></trkpt><trkpt lat="45.840418" lon="9.184817"><time>2024-05-04T07:54:04.000Z</time><ele>1168.8</ele></trkpt><trkpt lat="45.840424" lon="9.184826"><time>2024-05-04T07:54:05.000Z</time><ele>1168.6</ele></trkpt><trkpt lat="45.840429" lon="9.184835"><time>2024-05-04T07:54:06.000Z</time><ele>1168.6</ele></trkpt><trkpt lat="45.840436" lon="9.184845"><time>2024-05-04T07:54:07.000Z</time><ele>1168.4</ele></trkpt><trkpt lat="45.840438" lon="9.184855"><time>2024-05-04T07:54:08.000Z</time><ele>1168.2</ele></trkpt><trkpt lat="45.840442" lon="9.184869"><time>2024-05-04T07:54:09.000Z</time><ele>1168</ele></trkpt><trkpt lat="45.840443" lon="9.184882"><time>2024-05-04T07:54:10.000Z</time><ele>1168</ele></trkpt><trkpt lat="45.840449" lon="9.184889"><time>2024-05-04T07:54:11.000Z</time><ele>1167.8</ele></trkpt><trkpt lat="45.840457" lon="9.184901"><time>2024-05-04T07:54:12.000Z</time><ele>1167.8</ele></trkpt><trkpt lat="45.840464" lon="9.184908"><time>2024-05-04T07:54:13.000Z</time><ele>1167.8</ele></trkpt><trkpt lat="45.840475" lon="9.184918"><time>2024-05-04T07:54:14.000Z</time><ele>1167.8</ele></trkpt><trkpt lat="45.840491" lon="9.184929"><time>2024-05-04T07:54:15.000Z</time><ele>1167.8</ele></trkpt><trkpt lat="45.840507" lon="9.184936"><time>2024-05-04T07:54:16.000Z</time><ele>1168</ele></trkpt><trkpt lat="45.840521" lon="9.184943"><time>2024-05-04T07:54:17.000Z</time><ele>1168</ele></trkpt><trkpt lat="45.840534" lon="9.184955"><time>2024-05-04T07:54:18.000Z</time><ele>1168.2</ele></trkpt><trkpt lat="45.840544" lon="9.184956"><time>2024-05-04T07:54:19.000Z</time><ele>1168.4</ele></trkpt><trkpt lat="45.84055" lon="9.184951"><time>2024-05-04T07:54:20.000Z</time><ele>1168.6</ele></trkpt><trkpt lat="45.84056" lon="9.184955"><time>2024-05-04T07:54:21.000Z</time><ele>1168.8</ele></trkpt><trkpt lat="45.840574" lon="9.184965"><time>2024-05-04T07:54:22.000Z</time><ele>1169</ele></trkpt><trkpt lat="45.840577" lon="9.18497"><time>2024-05-04T07:54:23.000Z</time><ele>1169</ele></trkpt><trkpt lat="45.840585" lon="9.184976"><time>2024-05-04T07:54:24.000Z</time><ele>1169.2</ele></trkpt><trkpt lat="45.840596" lon="9.184987"><time>2024-05-04T07:54:25.000Z</time><ele>1169.2</ele></trkpt><trkpt lat="45.840604" lon="9.185003"><time>2024-05-04T07:54:26.000Z</time><ele>1169.4</ele></trkpt><trkpt lat="45.840611" lon="9.18502"><time>2024-05-04T07:54:27.000Z</time><ele>1169.4</ele></trkpt><trkpt lat="45.840614" lon="9.185044"><time>2024-05-04T07:54:28.000Z</time><ele>1169.2</ele></trkpt><trkpt lat="45.840618" lon="9.185065"><time>2024-05-04T07:54:29.000Z</time><ele>1169.2</ele></trkpt><trkpt lat="45.840618" lon="9.185066"><time>2024-05-04T07:54:30.000Z</time><ele>1169.2</ele></trkpt><trkpt lat="45.840621" lon="9.185073"><time>2024-05-04T07:54:31.000Z</time><ele>1169</ele></trkpt><trkpt lat="45.840624" lon="9.185088"><time>2024-05-04T07:54:32.000Z</time><ele>1169</ele></trkpt><trkpt lat="45.840637" lon="9.185105"><time>2024-05-04T07:54:33.000Z</time><ele>1168.8</ele></trkpt><trkpt lat="45.840644" lon="9.185114"><time>2024-05-04T07:54:34.000Z</time><ele>1168.8</ele></trkpt><trkpt lat="45.840656" lon="9.185126"><time>2024-05-04T07:54:35.000Z</time><ele>1168.8</ele></trkpt><trkpt lat="45.840664" lon="9.185129"><time>2024-05-04T07:54:36.000Z</time><ele>1168.6</ele></trkpt><trkpt lat="45.840668" lon="9.185132"><time>2024-05-04T07:54:37.000Z</time><ele>1168.6</ele></trkpt><trkpt lat="45.840672" lon="9.185137"><time>2024-05-04T07:54:38.000Z</time><ele>1168.6</ele></trkpt><trkpt lat="45.840677" lon="9.185144"><time>2024-05-04T07:54:39.000Z</time><ele>1168.4</ele></trkpt><trkpt lat="45.840679" lon="9.18515"><time>2024-05-04T07:54:40.000Z</time><ele>1168.4</ele></trkpt><trkpt lat="45.840679" lon="9.185155"><time>2024-05-04T07:54:41.000Z</time><ele>1168.4</ele></trkpt><trkpt lat="45.840686" lon="9.18516"><time>2024-05-04T07:54:42.000Z</time><ele>1168</ele></trkpt><trkpt lat="45.840696" lon="9.185175"><time>2024-05-04T07:54:43.000Z</time><ele>1167.8</ele></trkpt><trkpt lat="45.840704" lon="9.185186"><time>2024-05-04T07:54:44.000Z</time><ele>1167.6</ele></trkpt><trkpt lat="45.840708" lon="9.185198"><time>2024-05-04T07:54:45.000Z</time><ele>1167.4</ele></trkpt><trkpt lat="45.84072" lon="9.185206"><time>2024-05-04T07:54:46.000Z</time><ele>1167.2</ele></trkpt><trkpt lat="45.840731" lon="9.185217"><time>2024-05-04T07:54:47.000Z</time><ele>1167.2</ele></trkpt><trkpt lat="45.840742" lon="9.185228"><time>2024-05-04T07:54:48.000Z</time><ele>1166.6</ele></trkpt><trkpt lat="45.840753" lon="9.185236"><time>2024-05-04T07:54:49.000Z</time><ele>1166.4</ele></trkpt><trkpt lat="45.840764" lon="9.185238"><time>2024-05-04T07:54:50.000Z</time><ele>1166</ele></trkpt><trkpt lat="45.840775" lon="9.185239"><time>2024-05-04T07:54:51.000Z</time><ele>1165.8</ele></trkpt><trkpt lat="45.840785" lon="9.18524"><time>2024-05-04T07:54:52.000Z</time><ele>1165.6</ele></trkpt><trkpt lat="45.840794" lon="9.185246"><time>2024-05-04T07:54:53.000Z</time><ele>1165.2</ele></trkpt><trkpt lat="45.840803" lon="9.185253"><time>2024-05-04T07:54:54.000Z</time><ele>1165</ele></trkpt><trkpt lat="45.840811" lon="9.185258"><time>2024-05-04T07:54:55.000Z</time><ele>1164.8</ele></trkpt><trkpt lat="45.840818" lon="9.185266"><time>2024-05-04T07:54:56.000Z</time><ele>1164.4</ele></trkpt><trkpt lat="45.840824" lon="9.18527"><time>2024-05-04T07:54:57.000Z</time><ele>1164.2</ele></trkpt><trkpt lat="45.840834" lon="9.185276"><time>2024-05-04T07:54:58.000Z</time><ele>1164</ele></trkpt><trkpt lat="45.840846" lon="9.185286"><time>2024-05-04T07:54:59.000Z</time><ele>1163.8</ele></trkpt><trkpt lat="45.840859" lon="9.185292"><time>2024-05-04T07:55:00.000Z</time><ele>1163.6</ele></trkpt><trkpt lat="45.84087" lon="9.185303"><time>2024-05-04T07:55:01.000Z</time><ele>1163.4</ele></trkpt><trkpt lat="45.84088" lon="9.185315"><time>2024-05-04T07:55:02.000Z</time><ele>1163.4</ele></trkpt><trkpt lat="45.840888" lon="9.185329"><time>2024-05-04T07:55:03.000Z</time><ele>1163.2</ele></trkpt><trkpt lat="45.840892" lon="9.185339"><time>2024-05-04T07:55:04.000Z</time><ele>1163</ele></trkpt><trkpt lat="45.840896" lon="9.18535"><time>2024-05-04T07:55:05.000Z</time><ele>1163</ele></trkpt><trkpt lat="45.840902" lon="9.185356"><time>2024-05-04T07:55:06.000Z</time><ele>1162.6</ele></trkpt><trkpt lat="45.840908" lon="9.185368"><time>2024-05-04T07:55:07.000Z</time><ele>1162.4</ele></trkpt><trkpt lat="45.840918" lon="9.185378"><time>2024-05-04T07:55:08.000Z</time><ele>1162.2</ele></trkpt><trkpt lat="45.840922" lon="9.185386"><time>2024-05-04T07:55:09.000Z</time><ele>1162.2</ele></trkpt><trkpt lat="45.840925" lon="9.185394"><time>2024-05-04T07:55:10.000Z</time><ele>1162</ele></trkpt><trkpt lat="45.840931" lon="9.185399"><time>2024-05-04T07:55:11.000Z</time><ele>1161.8</ele></trkpt><trkpt lat="45.84094" lon="9.185407"><time>2024-05-04T07:55:12.000Z</time><ele>1161.8</ele></trkpt><trkpt lat="45.840949" lon="9.185423"><time>2024-05-04T07:55:13.000Z</time><ele>1161.6</ele></trkpt><trkpt lat="45.840951" lon="9.185428"><time>2024-05-04T07:55:14.000Z</time><ele>1161.6</ele></trkpt><trkpt lat="45.840952" lon="9.18543"><time>2024-05-04T07:55:15.000Z</time><ele>1161.6</ele></trkpt><trkpt lat="45.840956" lon="9.185439"><time>2024-05-04T07:55:16.000Z</time><ele>1161.4</ele></trkpt><trkpt lat="45.840961" lon="9.185453"><time>2024-05-04T07:55:17.000Z</time><ele>1161.4</ele></trkpt><trkpt lat="45.840966" lon="9.185468"><time>2024-05-04T07:55:18.000Z</time><ele>1161.2</ele></trkpt><trkpt lat="45.840977" lon="9.185484"><time>2024-05-04T07:55:19.000Z</time><ele>1161.2</ele></trkpt><trkpt lat="45.840981" lon="9.185517"><time>2024-05-04T07:55:20.000Z</time><ele>1161</ele></trkpt><trkpt lat="45.840984" lon="9.185545"><time>2024-05-04T07:55:21.000Z</time><ele>1161</ele></trkpt><trkpt lat="45.840984" lon="9.185563"><time>2024-05-04T07:55:22.000Z</time><ele>1160.8</ele></trkpt><trkpt lat="45.840985" lon="9.185576"><time>2024-05-04T07:55:23.000Z</time><ele>1160.8</ele></trkpt><trkpt lat="45.840984" lon="9.18558"><time>2024-05-04T07:55:24.000Z</time><ele>1160.6</ele></trkpt><trkpt lat="45.840988" lon="9.185585"><time>2024-05-04T07:55:25.000Z</time><ele>1160.4</ele></trkpt><trkpt lat="45.840988" lon="9.185588"><time>2024-05-04T07:55:26.000Z</time><ele>1160.4</ele></trkpt><trkpt lat="45.840994" lon="9.185597"><time>2024-05-04T07:55:27.000Z</time><ele>1160.2</ele></trkpt><trkpt lat="45.841008" lon="9.185612"><time>2024-05-04T07:55:28.000Z</time><ele>1160.2</ele></trkpt><trkpt lat="45.841016" lon="9.185619"><time>2024-05-04T07:55:29.000Z</time><ele>1160</ele></trkpt><trkpt lat="45.84102" lon="9.185619"><time>2024-05-04T07:55:30.000Z</time><ele>1159.8</ele></trkpt><trkpt lat="45.841032" lon="9.185635"><time>2024-05-04T07:55:31.000Z</time><ele>1159.6</ele></trkpt><trkpt lat="45.841045" lon="9.185646"><time>2024-05-04T07:55:32.000Z</time><ele>1159.6</ele></trkpt><trkpt lat="45.841054" lon="9.185652"><time>2024-05-04T07:55:33.000Z</time><ele>1159.4</ele></trkpt><trkpt lat="45.841063" lon="9.185657"><time>2024-05-04T07:55:34.000Z</time><ele>1159.4</ele></trkpt><trkpt lat="45.841069" lon="9.185664"><time>2024-05-04T07:55:35.000Z</time><ele>1159.4</ele></trkpt><trkpt lat="45.841076" lon="9.185677"><time>2024-05-04T07:55:36.000Z</time><ele>1159.2</ele></trkpt><trkpt lat="45.841078" lon="9.185684"><time>2024-05-04T07:55:37.000Z</time><ele>1159</ele></trkpt><trkpt lat="45.841081" lon="9.185688"><time>2024-05-04T07:55:38.000Z</time><ele>1159</ele></trkpt><trkpt lat="45.841087" lon="9.185701"><time>2024-05-04T07:55:39.000Z</time><ele>1158.8</ele></trkpt><trkpt lat="45.841099" lon="9.185718"><time>2024-05-04T07:55:40.000Z</time><ele>1158.8</ele></trkpt><trkpt lat="45.841106" lon="9.18573"><time>2024-05-04T07:55:41.000Z</time><ele>1158.6</ele></trkpt><trkpt lat="45.841112" lon="9.185747"><time>2024-05-04T07:55:42.000Z</time><ele>1158.6</ele></trkpt><trkpt lat="45.841115" lon="9.185764"><time>2024-05-04T07:55:43.000Z</time><ele>1158.4</ele></trkpt><trkpt lat="45.841121" lon="9.185784"><time>2024-05-04T07:55:44.000Z</time><ele>1158.4</ele></trkpt><trkpt lat="45.841126" lon="9.185799"><time>2024-05-04T07:55:45.000Z</time><ele>1158.4</ele></trkpt><trkpt lat="45.841131" lon="9.185815"><time>2024-05-04T07:55:46.000Z</time><ele>1158.2</ele></trkpt><trkpt lat="45.841133" lon="9.18583"><time>2024-05-04T07:55:47.000Z</time><ele>1158.4</ele></trkpt><trkpt lat="45.841132" lon="9.185842"><time>2024-05-04T07:55:48.000Z</time><ele>1158.4</ele></trkpt><trkpt lat="45.841133" lon="9.185853"><time>2024-05-04T07:55:49.000Z</time><ele>1158.4</ele></trkpt><trkpt lat="45.841138" lon="9.185869"><time>2024-05-04T07:55:50.000Z</time><ele>1158.6</ele></trkpt><trkpt lat="45.841145" lon="9.18589"><time>2024-05-04T07:55:51.000Z</time><ele>1158.6</ele></trkpt><trkpt lat="45.841152" lon="9.185907"><time>2024-05-04T07:55:52.000Z</time><ele>1158.6</ele></trkpt><trkpt lat="45.841157" lon="9.185921"><time>2024-05-04T07:55:53.000Z</time><ele>1158.6</ele></trkpt><trkpt lat="45.841162" lon="9.185933"><time>2024-05-04T07:55:54.000Z</time><ele>1158.6</ele></trkpt><trkpt lat="45.84117" lon="9.185945"><time>2024-05-04T07:55:55.000Z</time><ele>1158.6</ele></trkpt><trkpt lat="45.841179" lon="9.185954"><time>2024-05-04T07:55:56.000Z</time><ele>1158.6</ele></trkpt><trkpt lat="45.841191" lon="9.18597"><time>2024-05-04T07:55:57.000Z</time><ele>1158.6</ele></trkpt><trkpt lat="45.8412" lon="9.185979"><time>2024-05-04T07:55:58.000Z</time><ele>1158.8</ele></trkpt><trkpt lat="45.841217" lon="9.186"><time>2024-05-04T07:55:59.000Z</time><ele>1158.8</ele></trkpt><trkpt lat="45.841234" lon="9.186015"><time>2024-05-04T07:56:00.000Z</time><ele>1158.8</ele></trkpt><trkpt lat="45.841248" lon="9.186027"><time>2024-05-04T07:56:01.000Z</time><ele>1158.8</ele></trkpt><trkpt lat="45.84126" lon="9.18604"><time>2024-05-04T07:56:02.000Z</time><ele>1159</ele></trkpt><trkpt lat="45.841269" lon="9.186052"><time>2024-05-04T07:56:03.000Z</time><ele>1158.8</ele></trkpt><trkpt lat="45.841278" lon="9.186069"><time>2024-05-04T07:56:04.000Z</time><ele>1158.6</ele></trkpt><trkpt lat="45.841283" lon="9.186085"><time>2024-05-04T07:56:05.000Z</time><ele>1158.6</ele></trkpt><trkpt lat="45.841291" lon="9.186098"><time>2024-05-04T07:56:06.000Z</time><ele>1158.4</ele></trkpt><trkpt lat="45.841304" lon="9.186114"><time>2024-05-04T07:56:07.000Z</time><ele>1158.4</ele></trkpt><trkpt lat="45.841313" lon="9.186123"><time>2024-05-04T07:56:08.000Z</time><ele>1158.4</ele></trkpt><trkpt lat="45.841319" lon="9.186129"><time>2024-05-04T07:56:09.000Z</time><ele>1158.4</ele></trkpt><trkpt lat="45.841325" lon="9.186141"><time>2024-05-04T07:56:10.000Z</time><ele>1158.2</ele></trkpt><trkpt lat="45.841329" lon="9.186155"><time>2024-05-04T07:56:11.000Z</time><ele>1158</ele></trkpt><trkpt lat="45.84133" lon="9.186178"><time>2024-05-04T07:56:12.000Z</time><ele>1158</ele></trkpt><trkpt lat="45.841336" lon="9.186196"><time>2024-05-04T07:56:13.000Z</time><ele>1158</ele></trkpt><trkpt lat="45.841343" lon="9.186215"><time>2024-05-04T07:56:14.000Z</time><ele>1158</ele></trkpt><trkpt lat="45.84135" lon="9.186233"><time>2024-05-04T07:56:15.000Z</time><ele>1157.8</ele></trkpt><trkpt lat="45.841359" lon="9.186249"><time>2024-05-04T07:56:16.000Z</time><ele>1157.8</ele></trkpt><trkpt lat="45.841369" lon="9.186256"><time>2024-05-04T07:56:17.000Z</time><ele>1157.8</ele></trkpt><trkpt lat="45.841378" lon="9.18626"><time>2024-05-04T07:56:18.000Z</time><ele>1157.8</ele></trkpt><trkpt lat="45.841385" lon="9.186264"><time>2024-05-04T07:56:19.000Z</time><ele>1157.8</ele></trkpt><trkpt lat="45.841393" lon="9.186267"><time>2024-05-04T07:56:20.000Z</time><ele>1157.6</ele></trkpt><trkpt lat="45.8414" lon="9.186269"><time>2024-05-04T07:56:21.000Z</time><ele>1157.6</ele></trkpt><trkpt lat="45.841407" lon="9.186277"><time>2024-05-04T07:56:22.000Z</time><ele>1157.6</ele></trkpt><trkpt lat="45.841412" lon="9.186282"><time>2024-05-04T07:56:23.000Z</time><ele>1157.6</ele></trkpt><trkpt lat="45.84142" lon="9.186288"><time>2024-05-04T07:56:24.000Z</time><ele>1157.6</ele></trkpt><trkpt lat="45.841428" lon="9.186302"><time>2024-05-04T07:56:25.000Z</time><ele>1157.6</ele></trkpt><trkpt lat="45.841433" lon="9.186315"><time>2024-05-04T07:56:26.000Z</time><ele>1157.8</ele></trkpt><trkpt lat="45.84144" lon="9.18632"><time>2024-05-04T07:56:27.000Z</time><ele>1157.8</ele></trkpt><trkpt lat="45.841447" lon="9.186318"><time>2024-05-04T07:56:28.000Z</time><ele>1157.8</ele></trkpt><trkpt lat="45.841454" lon="9.186317"><time>2024-05-04T07:56:29.000Z</time><ele>1157.8</ele></trkpt><trkpt lat="45.841457" lon="9.186318"><time>2024-05-04T07:56:30.000Z</time><ele>1157.8</ele></trkpt><trkpt lat="45.841464" lon="9.186323"><time>2024-05-04T07:56:31.000Z</time><ele>1157.8</ele></trkpt><trkpt lat="45.841473" lon="9.18633"><time>2024-05-04T07:56:32.000Z</time><ele>1157.8</ele></trkpt><trkpt lat="45.841478" lon="9.186334"><time>2024-05-04T07:56:33.000Z</time><ele>1157.8</ele></trkpt><trkpt lat="45.841485" lon="9.186347"><time>2024-05-04T07:56:34.000Z</time><ele>1157.6</ele></trkpt><trkpt lat="45.841488" lon="9.186361"><time>2024-05-04T07:56:35.000Z</time><ele>1157.8</ele></trkpt><trkpt lat="45.841487" lon="9.186371"><time>2024-05-04T07:56:36.000Z</time><ele>1157.8</ele></trkpt><trkpt lat="45.841486" lon="9.18638"><time>2024-05-04T07:56:37.000Z</time><ele>1158</ele></trkpt><trkpt lat="45.841488" lon="9.18639"><time>2024-05-04T07:56:38.000Z</time><ele>1158.2</ele></trkpt><trkpt lat="45.841497" lon="9.186417"><time>2024-05-04T07:56:39.000Z</time><ele>1158.2</ele></trkpt><trkpt lat="45.841512" lon="9.186442"><time>2024-05-04T07:56:40.000Z</time><ele>1158.4</ele></trkpt><trkpt lat="45.84152" lon="9.186454"><time>2024-05-04T07:56:41.000Z</time><ele>1158.4</ele></trkpt><trkpt lat="45.841523" lon="9.186471"><time>2024-05-04T07:56:42.000Z</time><ele>1158.6</ele></trkpt><trkpt lat="45.841523" lon="9.186489"><time>2024-05-04T07:56:43.000Z</time><ele>1158.8</ele></trkpt><trkpt lat="45.841525" lon="9.186509"><time>2024-05-04T07:56:44.000Z</time><ele>1158.8</ele></trkpt><trkpt lat="45.84153" lon="9.186524"><time>2024-05-04T07:56:45.000Z</time><ele>1159</ele></trkpt><trkpt lat="45.841538" lon="9.186536"><time>2024-05-04T07:56:46.000Z</time><ele>1159</ele></trkpt><trkpt lat="45.841548" lon="9.186546"><time>2024-05-04T07:56:47.000Z</time><ele>1159</ele></trkpt><trkpt lat="45.841552" lon="9.186551"><time>2024-05-04T07:56:48.000Z</time><ele>1159</ele></trkpt><trkpt lat="45.841559" lon="9.186558"><time>2024-05-04T07:56:49.000Z</time><ele>1159.2</ele></trkpt><trkpt lat="45.841567" lon="9.186567"><time>2024-05-04T07:56:50.000Z</time><ele>1159.4</ele></trkpt><trkpt lat="45.841573" lon="9.186581"><time>2024-05-04T07:56:51.000Z</time><ele>1159.6</ele></trkpt><trkpt lat="45.841581" lon="9.186606"><time>2024-05-04T07:56:52.000Z</time><ele>1159.8</ele></trkpt><trkpt lat="45.841588" lon="9.186618"><time>2024-05-04T07:56:53.000Z</time><ele>1159.8</ele></trkpt><trkpt lat="45.841598" lon="9.186636"><time>2024-05-04T07:56:54.000Z</time><ele>1160</ele></trkpt><trkpt lat="45.841611" lon="9.186656"><time>2024-05-04T07:56:55.000Z</time><ele>1160</ele></trkpt><trkpt lat="45.841621" lon="9.186677"><time>2024-05-04T07:56:56.000Z</time><ele>1160</ele></trkpt><trkpt lat="45.84163" lon="9.186702"><time>2024-05-04T07:56:57.000Z</time><ele>1160.2</ele></trkpt><trkpt lat="45.841639" lon="9.18672"><time>2024-05-04T07:56:58.000Z</time><ele>1160.2</ele></trkpt><trkpt lat="45.84165" lon="9.18673"><time>2024-05-04T07:56:59.000Z</time><ele>1160.2</ele></trkpt><trkpt lat="45.841657" lon="9.186739"><time>2024-05-04T07:57:00.000Z</time><ele>1160.2</ele></trkpt><trkpt lat="45.841664" lon="9.186747"><time>2024-05-04T07:57:01.000Z</time><ele>1160.4</ele></trkpt><trkpt lat="45.841673" lon="9.186755"><time>2024-05-04T07:57:02.000Z</time><ele>1160.4</ele></trkpt><trkpt lat="45.84168" lon="9.186762"><time>2024-05-04T07:57:03.000Z</time><ele>1160.6</ele></trkpt><trkpt lat="45.841689" lon="9.186768"><time>2024-05-04T07:57:04.000Z</time><ele>1160.8</ele></trkpt><trkpt lat="45.841698" lon="9.186772"><time>2024-05-04T07:57:05.000Z</time><ele>1161.2</ele></trkpt><trkpt lat="45.841706" lon="9.186781"><time>2024-05-04T07:57:06.000Z</time><ele>1161.4</ele></trkpt><trkpt lat="45.84171" lon="9.186791"><time>2024-05-04T07:57:07.000Z</time><ele>1161.6</ele></trkpt><trkpt lat="45.841714" lon="9.186801"><time>2024-05-04T07:57:08.000Z</time><ele>1161.8</ele></trkpt><trkpt lat="45.841716" lon="9.186803"><time>2024-05-04T07:57:09.000Z</time><ele>1162</ele></trkpt><trkpt lat="45.841719" lon="9.186812"><time>2024-05-04T07:57:10.000Z</time><ele>1162.2</ele></trkpt><trkpt lat="45.841723" lon="9.186827"><time>2024-05-04T07:57:11.000Z</time><ele>1162.2</ele></trkpt><trkpt lat="45.841728" lon="9.186847"><time>2024-05-04T07:57:12.000Z</time><ele>1162.4</ele></trkpt><trkpt lat="45.841736" lon="9.186865"><time>2024-05-04T07:57:13.000Z</time><ele>1162.4</ele></trkpt><trkpt lat="45.841745" lon="9.186876"><time>2024-05-04T07:57:14.000Z</time><ele>1162.4</ele></trkpt><trkpt lat="45.841753" lon="9.186886"><time>2024-05-04T07:57:15.000Z</time><ele>1162.4</ele></trkpt><trkpt lat="45.841759" lon="9.186895"><time>2024-05-04T07:57:16.000Z</time><ele>1162.6</ele></trkpt><trkpt lat="45.841763" lon="9.186906"><time>2024-05-04T07:57:17.000Z</time><ele>1162.6</ele></trkpt><trkpt lat="45.841767" lon="9.186921"><time>2024-05-04T07:57:18.000Z</time><ele>1162.8</ele></trkpt><trkpt lat="45.84177" lon="9.186935"><time>2024-05-04T07:57:19.000Z</time><ele>1162.8</ele></trkpt><trkpt lat="45.841775" lon="9.186946"><time>2024-05-04T07:57:20.000Z</time><ele>1162.8</ele></trkpt><trkpt lat="45.841784" lon="9.186955"><time>2024-05-04T07:57:21.000Z</time><ele>1163</ele></trkpt><trkpt lat="45.841794" lon="9.186969"><time>2024-05-04T07:57:22.000Z</time><ele>1163</ele></trkpt><trkpt lat="45.841802" lon="9.18698"><time>2024-05-04T07:57:23.000Z</time><ele>1163.2</ele></trkpt><trkpt lat="45.841809" lon="9.186994"><time>2024-05-04T07:57:24.000Z</time><ele>1163.2</ele></trkpt><trkpt lat="45.841815" lon="9.187007"><time>2024-05-04T07:57:25.000Z</time><ele>1163.4</ele></trkpt><trkpt lat="45.841826" lon="9.187019"><time>2024-05-04T07:57:26.000Z</time><ele>1163.4</ele></trkpt><trkpt lat="45.841836" lon="9.187032"><time>2024-05-04T07:57:27.000Z</time><ele>1163.4</ele></trkpt><trkpt lat="45.841845" lon="9.187045"><time>2024-05-04T07:57:28.000Z</time><ele>1163.6</ele></trkpt><trkpt lat="45.841853" lon="9.187061"><time>2024-05-04T07:57:29.000Z</time><ele>1163.8</ele></trkpt><trkpt lat="45.841863" lon="9.187076"><time>2024-05-04T07:57:30.000Z</time><ele>1163.8</ele></trkpt><trkpt lat="45.841873" lon="9.187084"><time>2024-05-04T07:57:31.000Z</time><ele>1164</ele></trkpt><trkpt lat="45.841884" lon="9.187092"><time>2024-05-04T07:57:32.000Z</time><ele>1164.2</ele></trkpt><trkpt lat="45.841893" lon="9.187102"><time>2024-05-04T07:57:33.000Z</time><ele>1164.4</ele></trkpt><trkpt lat="45.841899" lon="9.187112"><time>2024-05-04T07:57:34.000Z</time><ele>1164.4</ele></trkpt><trkpt lat="45.841906" lon="9.187122"><time>2024-05-04T07:57:35.000Z</time><ele>1164.6</ele></trkpt><trkpt lat="45.841908" lon="9.187132"><time>2024-05-04T07:57:36.000Z</time><ele>1164.6</ele></trkpt><trkpt lat="45.841909" lon="9.187147"><time>2024-05-04T07:57:37.000Z</time><ele>1164.6</ele></trkpt><trkpt lat="45.841908" lon="9.187163"><time>2024-05-04T07:57:38.000Z</time><ele>1164.8</ele></trkpt><trkpt lat="45.841911" lon="9.187172"><time>2024-05-04T07:57:39.000Z</time><ele>1164.8</ele></trkpt><trkpt lat="45.841917" lon="9.187181"><time>2024-05-04T07:57:40.000Z</time><ele>1165</ele></trkpt><trkpt lat="45.841925" lon="9.187184"><time>2024-05-04T07:57:41.000Z</time><ele>1165.2</ele></trkpt><trkpt lat="45.841929" lon="9.187186"><time>2024-05-04T07:57:42.000Z</time><ele>1165.2</ele></trkpt><trkpt lat="45.841932" lon="9.187194"><time>2024-05-04T07:57:43.000Z</time><ele>1165.6</ele></trkpt><trkpt lat="45.841936" lon="9.187198"><time>2024-05-04T07:57:44.000Z</time><ele>1165.8</ele></trkpt><trkpt lat="45.841942" lon="9.187204"><time>2024-05-04T07:57:45.000Z</time><ele>1165.8</ele></trkpt><trkpt lat="45.841949" lon="9.187211"><time>2024-05-04T07:57:46.000Z</time><ele>1166</ele></trkpt><trkpt lat="45.841955" lon="9.187213"><time>2024-05-04T07:57:47.000Z</time><ele>1166</ele></trkpt><trkpt lat="45.841961" lon="9.187225"><time>2024-05-04T07:57:48.000Z</time><ele>1166.2</ele></trkpt><trkpt lat="45.841968" lon="9.187237"><time>2024-05-04T07:57:49.000Z</time><ele>1166.2</ele></trkpt><trkpt lat="45.841971" lon="9.187246"><time>2024-05-04T07:57:50.000Z</time><ele>1166.4</ele></trkpt><trkpt lat="45.841973" lon="9.187258"><time>2024-05-04T07:57:51.000Z</time><ele>1166.4</ele></trkpt><trkpt lat="45.841975" lon="9.187264"><time>2024-05-04T07:57:52.000Z</time><ele>1166.4</ele></trkpt><trkpt lat="45.841977" lon="9.187267"><time>2024-05-04T07:57:53.000Z</time><ele>1166.6</ele></trkpt><trkpt lat="45.841983" lon="9.187274"><time>2024-05-04T07:57:54.000Z</time><ele>1166.6</ele></trkpt><trkpt lat="45.84199" lon="9.187287"><time>2024-05-04T07:57:55.000Z</time><ele>1166.6</ele></trkpt><trkpt lat="45.841997" lon="9.187299"><time>2024-05-04T07:57:56.000Z</time><ele>1166.8</ele></trkpt><trkpt lat="45.842005" lon="9.18731"><time>2024-05-04T07:57:57.000Z</time><ele>1166.8</ele></trkpt><trkpt lat="45.842009" lon="9.187325"><time>2024-05-04T07:57:58.000Z</time><ele>1166.8</ele></trkpt><trkpt lat="45.842013" lon="9.187339"><time>2024-05-04T07:57:59.000Z</time><ele>1167</ele></trkpt><trkpt lat="45.842019" lon="9.187348"><time>2024-05-04T07:58:00.000Z</time><ele>1167.2</ele></trkpt><trkpt lat="45.842028" lon="9.187354"><time>2024-05-04T07:58:01.000Z</time><ele>1167.4</ele></trkpt><trkpt lat="45.842039" lon="9.187366"><time>2024-05-04T07:58:02.000Z</time><ele>1167.4</ele></trkpt><trkpt lat="45.842048" lon="9.187373"><time>2024-05-04T07:58:03.000Z</time><ele>1167.4</ele></trkpt><trkpt lat="45.842055" lon="9.187379"><time>2024-05-04T07:58:04.000Z</time><ele>1167.6</ele></trkpt><trkpt lat="45.842059" lon="9.187379"><time>2024-05-04T07:58:05.000Z</time><ele>1167.6</ele></trkpt><trkpt lat="45.842066" lon="9.187383"><time>2024-05-04T07:58:06.000Z</time><ele>1167.6</ele></trkpt><trkpt lat="45.842073" lon="9.187392"><time>2024-05-04T07:58:07.000Z</time><ele>1167.8</ele></trkpt><trkpt lat="45.842074" lon="9.187398"><time>2024-05-04T07:58:08.000Z</time><ele>1167.8</ele></trkpt><trkpt lat="45.842075" lon="9.187408"><time>2024-05-04T07:58:09.000Z</time><ele>1168</ele></trkpt><trkpt lat="45.842074" lon="9.187421"><time>2024-05-04T07:58:10.000Z</time><ele>1168</ele></trkpt><trkpt lat="45.842075" lon="9.187431"><time>2024-05-04T07:58:11.000Z</time><ele>1168</ele></trkpt><trkpt lat="45.842074" lon="9.187437"><time>2024-05-04T07:58:12.000Z</time><ele>1168.2</ele></trkpt><trkpt lat="45.842075" lon="9.187446"><time>2024-05-04T07:58:13.000Z</time><ele>1168.4</ele></trkpt><trkpt lat="45.842078" lon="9.187456"><time>2024-05-04T07:58:14.000Z</time><ele>1168.4</ele></trkpt><trkpt lat="45.842083" lon="9.187468"><time>2024-05-04T07:58:15.000Z</time><ele>1168.6</ele></trkpt><trkpt lat="45.842091" lon="9.187482"><time>2024-05-04T07:58:16.000Z</time><ele>1168.8</ele></trkpt><trkpt lat="45.8421" lon="9.187491"><time>2024-05-04T07:58:17.000Z</time><ele>1168.8</ele></trkpt><trkpt lat="45.842108" lon="9.187502"><time>2024-05-04T07:58:18.000Z</time><ele>1169</ele></trkpt><trkpt lat="45.842114" lon="9.187512"><time>2024-05-04T07:58:19.000Z</time><ele>1169.2</ele></trkpt><trkpt lat="45.842123" lon="9.187525"><time>2024-05-04T07:58:20.000Z</time><ele>1169.2</ele></trkpt><trkpt lat="45.842131" lon="9.187538"><time>2024-05-04T07:58:21.000Z</time><ele>1169.4</ele></trkpt><trkpt lat="45.842138" lon="9.187553"><time>2024-05-04T07:58:22.000Z</time><ele>1169.4</ele></trkpt><trkpt lat="45.842143" lon="9.187564"><time>2024-05-04T07:58:23.000Z</time><ele>1169.4</ele></trkpt><trkpt lat="45.842147" lon="9.187577"><time>2024-05-04T07:58:24.000Z</time><ele>1169.4</ele></trkpt><trkpt lat="45.842152" lon="9.187586"><time>2024-05-04T07:58:25.000Z</time><ele>1169.6</ele></trkpt><trkpt lat="45.842157" lon="9.187593"><time>2024-05-04T07:58:26.000Z</time><ele>1169.6</ele></trkpt><trkpt lat="45.842161" lon="9.187603"><time>2024-05-04T07:58:27.000Z</time><ele>1169.6</ele></trkpt><trkpt lat="45.842166" lon="9.187616"><time>2024-05-04T07:58:28.000Z</time><ele>1169.8</ele></trkpt><trkpt lat="45.842172" lon="9.187629"><time>2024-05-04T07:58:29.000Z</time><ele>1170</ele></trkpt><trkpt lat="45.842181" lon="9.187642"><time>2024-05-04T07:58:30.000Z</time><ele>1170.2</ele></trkpt><trkpt lat="45.842189" lon="9.187651"><time>2024-05-04T07:58:31.000Z</time><ele>1170.2</ele></trkpt><trkpt lat="45.842195" lon="9.187659"><time>2024-05-04T07:58:32.000Z</time><ele>1170.2</ele></trkpt><trkpt lat="45.842206" lon="9.187669"><time>2024-05-04T07:58:33.000Z</time><ele>1170.2</ele></trkpt><trkpt lat="45.842215" lon="9.187677"><time>2024-05-04T07:58:34.000Z</time><ele>1170.2</ele></trkpt><trkpt lat="45.842221" lon="9.187677"><time>2024-05-04T07:58:35.000Z</time><ele>1170.2</ele></trkpt><trkpt lat="45.842223" lon="9.187674"><time>2024-05-04T07:58:36.000Z</time><ele>1170.2</ele></trkpt><trkpt lat="45.842225" lon="9.187671"><time>2024-05-04T07:58:37.000Z</time><ele>1170.4</ele></trkpt><trkpt lat="45.842231" lon="9.18767"><time>2024-05-04T07:58:38.000Z</time><ele>1170.4</ele></trkpt><trkpt lat="45.842239" lon="9.187672"><time>2024-05-04T07:58:39.000Z</time><ele>1170.4</ele></trkpt><trkpt lat="45.842242" lon="9.187673"><time>2024-05-04T07:58:40.000Z</time><ele>1170.4</ele></trkpt><trkpt lat="45.842245" lon="9.187676"><time>2024-05-04T07:58:41.000Z</time><ele>1170.4</ele></trkpt><trkpt lat="45.842247" lon="9.187679"><time>2024-05-04T07:58:42.000Z</time><ele>1170.4</ele></trkpt><trkpt lat="45.842252" lon="9.187685"><time>2024-05-04T07:58:43.000Z</time><ele>1170.4</ele></trkpt><trkpt lat="45.842253" lon="9.187686"><time>2024-05-04T07:58:44.000Z</time><ele>1170.6</ele></trkpt><trkpt lat="45.842248" lon="9.187691"><time>2024-05-04T07:58:45.000Z</time><ele>1170.6</ele></trkpt><trkpt lat="45.842246" lon="9.187689"><time>2024-05-04T07:58:46.000Z</time><ele>1170.6</ele></trkpt><trkpt lat="45.842248" lon="9.187696"><time>2024-05-04T07:58:47.000Z</time><ele>1170.8</ele></trkpt><trkpt lat="45.842249" lon="9.187698"><time>2024-05-04T07:58:48.000Z</time><ele>1170.8</ele></trkpt><trkpt lat="45.842249" lon="9.1877"><time>2024-05-04T07:58:49.000Z</time><ele>1170.8</ele></trkpt><trkpt lat="45.842248" lon="9.187702"><time>2024-05-04T07:58:50.000Z</time><ele>1170.8</ele></trkpt><trkpt lat="45.842247" lon="9.187705"><time>2024-05-04T07:58:51.000Z</time><ele>1170.8</ele></trkpt><trkpt lat="45.842253" lon="9.187718"><time>2024-05-04T07:58:52.000Z</time><ele>1170.8</ele></trkpt><trkpt lat="45.842259" lon="9.187735"><time>2024-05-04T07:58:53.000Z</time><ele>1170.8</ele></trkpt><trkpt lat="45.842265" lon="9.187757"><time>2024-05-04T07:58:54.000Z</time><ele>1170.8</ele></trkpt><trkpt lat="45.84227" lon="9.187771"><time>2024-05-04T07:58:55.000Z</time><ele>1171</ele></trkpt><trkpt lat="45.842273" lon="9.187776"><time>2024-05-04T07:58:56.000Z</time><ele>1171</ele></trkpt><trkpt lat="45.842277" lon="9.187792"><time>2024-05-04T07:58:57.000Z</time><ele>1171.2</ele></trkpt><trkpt lat="45.842282" lon="9.187806"><time>2024-05-04T07:58:58.000Z</time><ele>1171.4</ele></trkpt><trkpt lat="45.842285" lon="9.187821"><time>2024-05-04T07:58:59.000Z</time><ele>1171.6</ele></trkpt><trkpt lat="45.842291" lon="9.187837"><time>2024-05-04T07:59:00.000Z</time><ele>1171.6</ele></trkpt><trkpt lat="45.842298" lon="9.187854"><time>2024-05-04T07:59:01.000Z</time><ele>1171.8</ele></trkpt><trkpt lat="45.842304" lon="9.187868"><time>2024-05-04T07:59:02.000Z</time><ele>1172</ele></trkpt><trkpt lat="45.842313" lon="9.187886"><time>2024-05-04T07:59:03.000Z</time><ele>1172.2</ele></trkpt><trkpt lat="45.842321" lon="9.187902"><time>2024-05-04T07:59:04.000Z</time><ele>1172.2</ele></trkpt><trkpt lat="45.842331" lon="9.187909"><time>2024-05-04T07:59:05.000Z</time><ele>1172.4</ele></trkpt><trkpt lat="45.84234" lon="9.187919"><time>2024-05-04T07:59:06.000Z</time><ele>1172.6</ele></trkpt><trkpt lat="45.842347" lon="9.187928"><time>2024-05-04T07:59:07.000Z</time><ele>1172.6</ele></trkpt><trkpt lat="45.842355" lon="9.187939"><time>2024-05-04T07:59:08.000Z</time><ele>1172.8</ele></trkpt><trkpt lat="45.842363" lon="9.18795"><time>2024-05-04T07:59:09.000Z</time><ele>1173</ele></trkpt><trkpt lat="45.84237" lon="9.187965"><time>2024-05-04T07:59:10.000Z</time><ele>1173.2</ele></trkpt><trkpt lat="45.842376" lon="9.187978"><time>2024-05-04T07:59:11.000Z</time><ele>1173.4</ele></trkpt><trkpt lat="45.842382" lon="9.187994"><time>2024-05-04T07:59:12.000Z</time><ele>1173.4</ele></trkpt><trkpt lat="45.842391" lon="9.188007"><time>2024-05-04T07:59:13.000Z</time><ele>1173.6</ele></trkpt><trkpt lat="45.8424" lon="9.188018"><time>2024-05-04T07:59:14.000Z</time><ele>1173.8</ele></trkpt><trkpt lat="45.84241" lon="9.188027"><time>2024-05-04T07:59:15.000Z</time><ele>1173.8</ele></trkpt><trkpt lat="45.842419" lon="9.188033"><time>2024-05-04T07:59:16.000Z</time><ele>1173.8</ele></trkpt><trkpt lat="45.842428" lon="9.188039"><time>2024-05-04T07:59:17.000Z</time><ele>1174</ele></trkpt><trkpt lat="45.842436" lon="9.188046"><time>2024-05-04T07:59:18.000Z</time><ele>1174.2</ele></trkpt><trkpt lat="45.842449" lon="9.188055"><time>2024-05-04T07:59:19.000Z</time><ele>1174.4</ele></trkpt><trkpt lat="45.842459" lon="9.188064"><time>2024-05-04T07:59:20.000Z</time><ele>1174.6</ele></trkpt><trkpt lat="45.842469" lon="9.188071"><time>2024-05-04T07:59:21.000Z</time><ele>1174.8</ele></trkpt><trkpt lat="45.842477" lon="9.188077"><time>2024-05-04T07:59:22.000Z</time><ele>1175</ele></trkpt><trkpt lat="45.842486" lon="9.188086"><time>2024-05-04T07:59:23.000Z</time><ele>1175</ele></trkpt><trkpt lat="45.842497" lon="9.188092"><time>2024-05-04T07:59:24.000Z</time><ele>1175.2</ele></trkpt><trkpt lat="45.842505" lon="9.188098"><time>2024-05-04T07:59:25.000Z</time><ele>1175.6</ele></trkpt><trkpt lat="45.842511" lon="9.188108"><time>2024-05-04T07:59:26.000Z</time><ele>1175.8</ele></trkpt><trkpt lat="45.842517" lon="9.18812"><time>2024-05-04T07:59:27.000Z</time><ele>1175.8</ele></trkpt><trkpt lat="45.842521" lon="9.18813"><time>2024-05-04T07:59:28.000Z</time><ele>1176</ele></trkpt><trkpt lat="45.842526" lon="9.188145"><time>2024-05-04T07:59:29.000Z</time><ele>1176.2</ele></trkpt><trkpt lat="45.84253" lon="9.188154"><time>2024-05-04T07:59:30.000Z</time><ele>1176.4</ele></trkpt><trkpt lat="45.842532" lon="9.188164"><time>2024-05-04T07:59:31.000Z</time><ele>1176.6</ele></trkpt><trkpt lat="45.842532" lon="9.188175"><time>2024-05-04T07:59:32.000Z</time><ele>1176.8</ele></trkpt><trkpt lat="45.842534" lon="9.188186"><time>2024-05-04T07:59:33.000Z</time><ele>1176.8</ele></trkpt><trkpt lat="45.842536" lon="9.188196"><time>2024-05-04T07:59:34.000Z</time><ele>1176.8</ele></trkpt><trkpt lat="45.842541" lon="9.188214"><time>2024-05-04T07:59:35.000Z</time><ele>1177</ele></trkpt><trkpt lat="45.842548" lon="9.188229"><time>2024-05-04T07:59:36.000Z</time><ele>1177</ele></trkpt><trkpt lat="45.842551" lon="9.188237"><time>2024-05-04T07:59:37.000Z</time><ele>1177</ele></trkpt><trkpt lat="45.842555" lon="9.188254"><time>2024-05-04T07:59:38.000Z</time><ele>1177</ele></trkpt><trkpt lat="45.842559" lon="9.188269"><time>2024-05-04T07:59:39.000Z</time><ele>1177</ele></trkpt><trkpt lat="45.842563" lon="9.188284"><time>2024-05-04T07:59:40.000Z</time><ele>1177</ele></trkpt><trkpt lat="45.842568" lon="9.188295"><time>2024-05-04T07:59:41.000Z</time><ele>1176.8</ele></trkpt><trkpt lat="45.842574" lon="9.188309"><time>2024-05-04T07:59:42.000Z</time><ele>1176.8</ele></trkpt><trkpt lat="45.842582" lon="9.188321"><time>2024-05-04T07:59:43.000Z</time><ele>1176.8</ele></trkpt><trkpt lat="45.84259" lon="9.18833"><time>2024-05-04T07:59:44.000Z</time><ele>1176.6</ele></trkpt><trkpt lat="45.842598" lon="9.188336"><time>2024-05-04T07:59:45.000Z</time><ele>1176.6</ele></trkpt><trkpt lat="45.842604" lon="9.188348"><time>2024-05-04T07:59:46.000Z</time><ele>1176.4</ele></trkpt><trkpt lat="45.842608" lon="9.188362"><time>2024-05-04T07:59:47.000Z</time><ele>1176.4</ele></trkpt><trkpt lat="45.842613" lon="9.188374"><time>2024-05-04T07:59:48.000Z</time><ele>1176.4</ele></trkpt><trkpt lat="45.84262" lon="9.188384"><time>2024-05-04T07:59:49.000Z</time><ele>1176.4</ele></trkpt><trkpt lat="45.842626" lon="9.188393"><time>2024-05-04T07:59:50.000Z</time><ele>1176.2</ele></trkpt><trkpt lat="45.842632" lon="9.188402"><time>2024-05-04T07:59:51.000Z</time><ele>1176.2</ele></trkpt><trkpt lat="45.84264" lon="9.188413"><time>2024-05-04T07:59:52.000Z</time><ele>1176.2</ele></trkpt><trkpt lat="45.842649" lon="9.188425"><time>2024-05-04T07:59:53.000Z</time><ele>1176.2</ele></trkpt><trkpt lat="45.842655" lon="9.188436"><time>2024-05-04T07:59:54.000Z</time><ele>1176.2</ele></trkpt><trkpt lat="45.84266" lon="9.18845"><time>2024-05-04T07:59:55.000Z</time><ele>1176.2</ele></trkpt><trkpt lat="45.842665" lon="9.18847"><time>2024-05-04T07:59:56.000Z</time><ele>1176</ele></trkpt><trkpt lat="45.842669" lon="9.188488"><time>2024-05-04T07:59:57.000Z</time><ele>1176</ele></trkpt><trkpt lat="45.842675" lon="9.188505"><time>2024-05-04T07:59:58.000Z</time><ele>1176</ele></trkpt><trkpt lat="45.842685" lon="9.18852"><time>2024-05-04T07:59:59.000Z</time><ele>1176</ele></trkpt><trkpt lat="45.842693" lon="9.188533"><time>2024-05-04T08:00:00.000Z</time><ele>1176</ele></trkpt><trkpt lat="45.842701" lon="9.188544"><time>2024-05-04T08:00:01.000Z</time><ele>1176</ele></trkpt><trkpt lat="45.842705" lon="9.188556"><time>2024-05-04T08:00:02.000Z</time><ele>1176</ele></trkpt><trkpt lat="45.842709" lon="9.188573"><time>2024-05-04T08:00:03.000Z</time><ele>1175.8</ele></trkpt><trkpt lat="45.842715" lon="9.188588"><time>2024-05-04T08:00:04.000Z</time><ele>1175.8</ele></trkpt><trkpt lat="45.842724" lon="9.188603"><time>2024-05-04T08:00:05.000Z</time><ele>1175.8</ele></trkpt><trkpt lat="45.842731" lon="9.188614"><time>2024-05-04T08:00:06.000Z</time><ele>1175.8</ele></trkpt><trkpt lat="45.842735" lon="9.188626"><time>2024-05-04T08:00:07.000Z</time><ele>1175.8</ele></trkpt><trkpt lat="45.842738" lon="9.188638"><time>2024-05-04T08:00:08.000Z</time><ele>1175.8</ele></trkpt><trkpt lat="45.842742" lon="9.188649"><time>2024-05-04T08:00:09.000Z</time><ele>1175.8</ele></trkpt><trkpt lat="45.842744" lon="9.188656"><time>2024-05-04T08:00:10.000Z</time><ele>1175.8</ele></trkpt><trkpt lat="45.842746" lon="9.18867"><time>2024-05-04T08:00:11.000Z</time><ele>1175.8</ele></trkpt><trkpt lat="45.84275" lon="9.188686"><time>2024-05-04T08:00:12.000Z</time><ele>1175.8</ele></trkpt><trkpt lat="45.842754" lon="9.188708"><time>2024-05-04T08:00:13.000Z</time><ele>1175.8</ele></trkpt><trkpt lat="45.842758" lon="9.188729"><time>2024-05-04T08:00:14.000Z</time><ele>1175.8</ele></trkpt><trkpt lat="45.842765" lon="9.188752"><time>2024-05-04T08:00:15.000Z</time><ele>1175.8</ele></trkpt><trkpt lat="45.842771" lon="9.188776"><time>2024-05-04T08:00:16.000Z</time><ele>1175.6</ele></trkpt><trkpt lat="45.842778" lon="9.188799"><time>2024-05-04T08:00:17.000Z</time><ele>1175.6</ele></trkpt><trkpt lat="45.842781" lon="9.188813"><time>2024-05-04T08:00:18.000Z</time><ele>1175.4</ele></trkpt><trkpt lat="45.842786" lon="9.188829"><time>2024-05-04T08:00:19.000Z</time><ele>1175.4</ele></trkpt><trkpt lat="45.842788" lon="9.188832"><time>2024-05-04T08:00:20.000Z</time><ele>1175.4</ele></trkpt><trkpt lat="45.842789" lon="9.188836"><time>2024-05-04T08:00:21.000Z</time><ele>1175.6</ele></trkpt><trkpt lat="45.842789" lon="9.188841"><time>2024-05-04T08:00:22.000Z</time><ele>1175.6</ele></trkpt><trkpt lat="45.842789" lon="9.188846"><time>2024-05-04T08:00:23.000Z</time><ele>1175.6</ele></trkpt><trkpt lat="45.842789" lon="9.188844"><time>2024-05-04T08:00:24.000Z</time><ele>1175.6</ele></trkpt><trkpt lat="45.842787" lon="9.188844"><time>2024-05-04T08:00:25.000Z</time><ele>1175.4</ele></trkpt><trkpt lat="45.842786" lon="9.188844"><time>2024-05-04T08:00:26.000Z</time><ele>1175.4</ele></trkpt><trkpt lat="45.842788" lon="9.188842"><time>2024-05-04T08:00:27.000Z</time><ele>1175.2</ele></trkpt><trkpt lat="45.84279" lon="9.188842"><time>2024-05-04T08:00:28.000Z</time><ele>1175.2</ele></trkpt><trkpt lat="45.842791" lon="9.188843"><time>2024-05-04T08:00:29.000Z</time><ele>1175.2</ele></trkpt><trkpt lat="45.842792" lon="9.188847"><time>2024-05-04T08:00:30.000Z</time><ele>1175.2</ele></trkpt><trkpt lat="45.842792" lon="9.18885"><time>2024-05-04T08:00:31.000Z</time><ele>1175.2</ele></trkpt><trkpt lat="45.8428" lon="9.188864"><time>2024-05-04T08:00:32.000Z</time><ele>1175</ele></trkpt><trkpt lat="45.842809" lon="9.188887"><time>2024-05-04T08:00:33.000Z</time><ele>1175</ele></trkpt><trkpt lat="45.842814" lon="9.188902"><time>2024-05-04T08:00:34.000Z</time><ele>1175</ele></trkpt><trkpt lat="45.842819" lon="9.188917"><time>2024-05-04T08:00:35.000Z</time><ele>1175</ele></trkpt><trkpt lat="45.842822" lon="9.188934"><time>2024-05-04T08:00:36.000Z</time><ele>1174.8</ele></trkpt><trkpt lat="45.842825" lon="9.188954"><time>2024-05-04T08:00:37.000Z</time><ele>1174.6</ele></trkpt><trkpt lat="45.842827" lon="9.188978"><time>2024-05-04T08:00:38.000Z</time><ele>1174.6</ele></trkpt><trkpt lat="45.842827" lon="9.189001"><time>2024-05-04T08:00:39.000Z</time><ele>1174.2</ele></trkpt><trkpt lat="45.842826" lon="9.189017"><time>2024-05-04T08:00:40.000Z</time><ele>1174.2</ele></trkpt><trkpt lat="45.842824" lon="9.189033"><time>2024-05-04T08:00:41.000Z</time><ele>1173.8</ele></trkpt><trkpt lat="45.842825" lon="9.189052"><time>2024-05-04T08:00:42.000Z</time><ele>1173.6</ele></trkpt><trkpt lat="45.842826" lon="9.189069"><time>2024-05-04T08:00:43.000Z</time><ele>1173.4</ele></trkpt><trkpt lat="45.842828" lon="9.189085"><time>2024-05-04T08:00:44.000Z</time><ele>1173.2</ele></trkpt><trkpt lat="45.842829" lon="9.1891"><time>2024-05-04T08:00:45.000Z</time><ele>1173</ele></trkpt><trkpt lat="45.842829" lon="9.189117"><time>2024-05-04T08:00:46.000Z</time><ele>1172.6</ele></trkpt><trkpt lat="45.842829" lon="9.189131"><time>2024-05-04T08:00:47.000Z</time><ele>1172.4</ele></trkpt><trkpt lat="45.842831" lon="9.189141"><time>2024-05-04T08:00:48.000Z</time><ele>1172.2</ele></trkpt><trkpt lat="45.842836" lon="9.18915"><time>2024-05-04T08:00:49.000Z</time><ele>1172</ele></trkpt><trkpt lat="45.842842" lon="9.18916"><time>2024-05-04T08:00:50.000Z</time><ele>1171.8</ele></trkpt><trkpt lat="45.842845" lon="9.189167"><time>2024-05-04T08:00:51.000Z</time><ele>1171.6</ele></trkpt><trkpt lat="45.842846" lon="9.189178"><time>2024-05-04T08:00:52.000Z</time><ele>1171.4</ele></trkpt><trkpt lat="45.842848" lon="9.189185"><time>2024-05-04T08:00:53.000Z</time><ele>1171.2</ele></trkpt><trkpt lat="45.842851" lon="9.189193"><time>2024-05-04T08:00:54.000Z</time><ele>1170.8</ele></trkpt><trkpt lat="45.842852" lon="9.189207"><time>2024-05-04T08:00:55.000Z</time><ele>1170.6</ele></trkpt><trkpt lat="45.842854" lon="9.189221"><time>2024-05-04T08:00:56.000Z</time><ele>1170.4</ele></trkpt><trkpt lat="45.842852" lon="9.189238"><time>2024-05-04T08:00:57.000Z</time><ele>1170.2</ele></trkpt><trkpt lat="45.84285" lon="9.189253"><time>2024-05-04T08:00:58.000Z</time><ele>1169.8</ele></trkpt><trkpt lat="45.84285" lon="9.189275"><time>2024-05-04T08:00:59.000Z</time><ele>1169.4</ele></trkpt><trkpt lat="45.84285" lon="9.189286"><time>2024-05-04T08:01:00.000Z</time><ele>1169.2</ele></trkpt><trkpt lat="45.842848" lon="9.189299"><time>2024-05-04T08:01:01.000Z</time><ele>1169</ele></trkpt><trkpt lat="45.842844" lon="9.189307"><time>2024-05-04T08:01:02.000Z</time><ele>1168.6</ele></trkpt><trkpt lat="45.842843" lon="9.189321"><time>2024-05-04T08:01:03.000Z</time><ele>1168.4</ele></trkpt><trkpt lat="45.842846" lon="9.189336"><time>2024-05-04T08:01:04.000Z</time><ele>1168.2</ele></trkpt><trkpt lat="45.842849" lon="9.189348"><time>2024-05-04T08:01:05.000Z</time><ele>1168</ele></trkpt><trkpt lat="45.842848" lon="9.189363"><time>2024-05-04T08:01:06.000Z</time><ele>1167.8</ele></trkpt><trkpt lat="45.84285" lon="9.189376"><time>2024-05-04T08:01:07.000Z</time><ele>1167.6</ele></trkpt><trkpt lat="45.842853" lon="9.189387"><time>2024-05-04T08:01:08.000Z</time><ele>1167.4</ele></trkpt><trkpt lat="45.842855" lon="9.189397"><time>2024-05-04T08:01:09.000Z</time><ele>1167.4</ele></trkpt><trkpt lat="45.842858" lon="9.189411"><time>2024-05-04T08:01:10.000Z</time><ele>1167</ele></trkpt><trkpt lat="45.842861" lon="9.189425"><time>2024-05-04T08:01:11.000Z</time><ele>1166.8</ele></trkpt><trkpt lat="45.842864" lon="9.189439"><time>2024-05-04T08:01:12.000Z</time><ele>1166.4</ele></trkpt><trkpt lat="45.842868" lon="9.189455"><time>2024-05-04T08:01:13.000Z</time><ele>1166.2</ele></trkpt><trkpt lat="45.842871" lon="9.189472"><time>2024-05-04T08:01:14.000Z</time><ele>1166</ele></trkpt><trkpt lat="45.842874" lon="9.189485"><time>2024-05-04T08:01:15.000Z</time><ele>1166</ele></trkpt><trkpt lat="45.842876" lon="9.189501"><time>2024-05-04T08:01:16.000Z</time><ele>1165.8</ele></trkpt><trkpt lat="45.84288" lon="9.189517"><time>2024-05-04T08:01:17.000Z</time><ele>1165.6</ele></trkpt><trkpt lat="45.842886" lon="9.189533"><time>2024-05-04T08:01:18.000Z</time><ele>1165.4</ele></trkpt><trkpt lat="45.842893" lon="9.189548"><time>2024-05-04T08:01:19.000Z</time><ele>1165.4</ele></trkpt><trkpt lat="45.8429" lon="9.189562"><time>2024-05-04T08:01:20.000Z</time><ele>1165.2</ele></trkpt><trkpt lat="45.842906" lon="9.189576"><time>2024-05-04T08:01:21.000Z</time><ele>1165</ele></trkpt><trkpt lat="45.842909" lon="9.189591"><time>2024-05-04T08:01:22.000Z</time><ele>1164.8</ele></trkpt><trkpt lat="45.842913" lon="9.189607"><time>2024-05-04T08:01:23.000Z</time><ele>1164.6</ele></trkpt><trkpt lat="45.842917" lon="9.189628"><time>2024-05-04T08:01:24.000Z</time><ele>1164.6</ele></trkpt><trkpt lat="45.84292" lon="9.189643"><time>2024-05-04T08:01:25.000Z</time><ele>1164.4</ele></trkpt><trkpt lat="45.842922" lon="9.189658"><time>2024-05-04T08:01:26.000Z</time><ele>1164.4</ele></trkpt><trkpt lat="45.842924" lon="9.189674"><time>2024-05-04T08:01:27.000Z</time><ele>1164.4</ele></trkpt><trkpt lat="45.842923" lon="9.189687"><time>2024-05-04T08:01:28.000Z</time><ele>1164.2</ele></trkpt><trkpt lat="45.842923" lon="9.189697"><time>2024-05-04T08:01:29.000Z</time><ele>1164</ele></trkpt><trkpt lat="45.842925" lon="9.189709"><time>2024-05-04T08:01:30.000Z</time><ele>1163.8</ele></trkpt><trkpt lat="45.842926" lon="9.189725"><time>2024-05-04T08:01:31.000Z</time><ele>1163.4</ele></trkpt><trkpt lat="45.842926" lon="9.189739"><time>2024-05-04T08:01:32.000Z</time><ele>1163.2</ele></trkpt><trkpt lat="45.842928" lon="9.189752"><time>2024-05-04T08:01:33.000Z</time><ele>1163</ele></trkpt><trkpt lat="45.84293" lon="9.189762"><time>2024-05-04T08:01:34.000Z</time><ele>1162.8</ele></trkpt><trkpt lat="45.84293" lon="9.189776"><time>2024-05-04T08:01:35.000Z</time><ele>1162.6</ele></trkpt><trkpt lat="45.842933" lon="9.189787"><time>2024-05-04T08:01:36.000Z</time><ele>1162.6</ele></trkpt><trkpt lat="45.84293" lon="9.189791"><time>2024-05-04T08:01:37.000Z</time><ele>1162.4</ele></trkpt><trkpt lat="45.842929" lon="9.189793"><time>2024-05-04T08:01:38.000Z</time><ele>1162.4</ele></trkpt><trkpt lat="45.842928" lon="9.189798"><time>2024-05-04T08:01:39.000Z</time><ele>1162.2</ele></trkpt><trkpt lat="45.842928" lon="9.189809"><time>2024-05-04T08:01:40.000Z</time><ele>1162.2</ele></trkpt><trkpt lat="45.842934" lon="9.189823"><time>2024-05-04T08:01:41.000Z</time><ele>1162.2</ele></trkpt><trkpt lat="45.842943" lon="9.189845"><time>2024-05-04T08:01:42.000Z</time><ele>1162</ele></trkpt><trkpt lat="45.842948" lon="9.189864"><time>2024-05-04T08:01:43.000Z</time><ele>1161.8</ele></trkpt><trkpt lat="45.84295" lon="9.189884"><time>2024-05-04T08:01:44.000Z</time><ele>1161.4</ele></trkpt><trkpt lat="45.842953" lon="9.189893"><time>2024-05-04T08:01:45.000Z</time><ele>1161.4</ele></trkpt><trkpt lat="45.842954" lon="9.18991"><time>2024-05-04T08:01:46.000Z</time><ele>1161.2</ele></trkpt><trkpt lat="45.842953" lon="9.189932"><time>2024-05-04T08:01:47.000Z</time><ele>1161.2</ele></trkpt><trkpt lat="45.842956" lon="9.189951"><time>2024-05-04T08:01:48.000Z</time><ele>1161</ele></trkpt><trkpt lat="45.84296" lon="9.189966"><time>2024-05-04T08:01:49.000Z</time><ele>1161</ele></trkpt><trkpt lat="45.842962" lon="9.189981"><time>2024-05-04T08:01:50.000Z</time><ele>1161</ele></trkpt><trkpt lat="45.842966" lon="9.189991"><time>2024-05-04T08:01:51.000Z</time><ele>1160.8</ele></trkpt><trkpt lat="45.842968" lon="9.190006"><time>2024-05-04T08:01:52.000Z</time><ele>1160.8</ele></trkpt><trkpt lat="45.842971" lon="9.190018"><time>2024-05-04T08:01:53.000Z</time><ele>1160.8</ele></trkpt><trkpt lat="45.842975" lon="9.190032"><time>2024-05-04T08:01:54.000Z</time><ele>1160.6</ele></trkpt><trkpt lat="45.84298" lon="9.190047"><time>2024-05-04T08:01:55.000Z</time><ele>1160.6</ele></trkpt><trkpt lat="45.842986" lon="9.190059"><time>2024-05-04T08:01:56.000Z</time><ele>1160.4</ele></trkpt><trkpt lat="45.842991" lon="9.190067"><time>2024-05-04T08:01:57.000Z</time><ele>1160.2</ele></trkpt><trkpt lat="45.842999" lon="9.190073"><time>2024-05-04T08:01:58.000Z</time><ele>1160</ele></trkpt><trkpt lat="45.843005" lon="9.190085"><time>2024-05-04T08:01:59.000Z</time><ele>1159.8</ele></trkpt><trkpt lat="45.84301" lon="9.190095"><time>2024-05-04T08:02:00.000Z</time><ele>1159.6</ele></trkpt><trkpt lat="45.843016" lon="9.190105"><time>2024-05-04T08:02:01.000Z</time><ele>1159.4</ele></trkpt><trkpt lat="45.84302" lon="9.190114"><time>2024-05-04T08:02:02.000Z</time><ele>1159.2</ele></trkpt><trkpt lat="45.843025" lon="9.190122"><time>2024-05-04T08:02:03.000Z</time><ele>1159</ele></trkpt><trkpt lat="45.843029" lon="9.190127"><time>2024-05-04T08:02:04.000Z</time><ele>1159</ele></trkpt><trkpt lat="45.843037" lon="9.190133"><time>2024-05-04T08:02:05.000Z</time><ele>1158.8</ele></trkpt><trkpt lat="45.843042" lon="9.190139"><time>2024-05-04T08:02:06.000Z</time><ele>1158.4</ele></trkpt><trkpt lat="45.843045" lon="9.190147"><time>2024-05-04T08:02:07.000Z</time><ele>1158.2</ele></trkpt><trkpt lat="45.84305" lon="9.190156"><time>2024-05-04T08:02:08.000Z</time><ele>1158</ele></trkpt><trkpt lat="45.843053" lon="9.190163"><time>2024-05-04T08:02:09.000Z</time><ele>1157.8</ele></trkpt><trkpt lat="45.843058" lon="9.190169"><time>2024-05-04T08:02:10.000Z</time><ele>1157.6</ele></trkpt><trkpt lat="45.843064" lon="9.190178"><time>2024-05-04T08:02:11.000Z</time><ele>1157.4</ele></trkpt><trkpt lat="45.84307" lon="9.19019"><time>2024-05-04T08:02:12.000Z</time><ele>1157.2</ele></trkpt><trkpt lat="45.84307" lon="9.1902"><time>2024-05-04T08:02:13.000Z</time><ele>1156.6</ele></trkpt><trkpt lat="45.843067" lon="9.190208"><time>2024-05-04T08:02:14.000Z</time><ele>1156.2</ele></trkpt><trkpt lat="45.843064" lon="9.190217"><time>2024-05-04T08:02:15.000Z</time><ele>1156</ele></trkpt><trkpt lat="45.843064" lon="9.190225"><time>2024-05-04T08:02:16.000Z</time><ele>1155.8</ele></trkpt><trkpt lat="45.843066" lon="9.190232"><time>2024-05-04T08:02:17.000Z</time><ele>1155.4</ele></trkpt><trkpt lat="45.843071" lon="9.190239"><time>2024-05-04T08:02:18.000Z</time><ele>1155</ele></trkpt><trkpt lat="45.843076" lon="9.190245"><time>2024-05-04T08:02:19.000Z</time><ele>1155</ele></trkpt><trkpt lat="45.843085" lon="9.190258"><time>2024-05-04T08:02:20.000Z</time><ele>1154.8</ele></trkpt><trkpt lat="45.843088" lon="9.190271"><time>2024-05-04T08:02:21.000Z</time><ele>1154.6</ele></trkpt><trkpt lat="45.843101" lon="9.190277"><time>2024-05-04T08:02:22.000Z</time><ele>1154.4</ele></trkpt><trkpt lat="45.843115" lon="9.190289"><time>2024-05-04T08:02:23.000Z</time><ele>1154</ele></trkpt><trkpt lat="45.843122" lon="9.190301"><time>2024-05-04T08:02:24.000Z</time><ele>1153.8</ele></trkpt><trkpt lat="45.843131" lon="9.190311"><time>2024-05-04T08:02:25.000Z</time><ele>1153.4</ele></trkpt><trkpt lat="45.84314" lon="9.190319"><time>2024-05-04T08:02:26.000Z</time><ele>1153.2</ele></trkpt><trkpt lat="45.843147" lon="9.190333"><time>2024-05-04T08:02:27.000Z</time><ele>1153</ele></trkpt><trkpt lat="45.843149" lon="9.190338"><time>2024-05-04T08:02:28.000Z</time><ele>1152.8</ele></trkpt><trkpt lat="45.843155" lon="9.190345"><time>2024-05-04T08:02:29.000Z</time><ele>1152.6</ele></trkpt><trkpt lat="45.843166" lon="9.190348"><time>2024-05-04T08:02:30.000Z</time><ele>1152.4</ele></trkpt><trkpt lat="45.843173" lon="9.190351"><time>2024-05-04T08:02:31.000Z</time><ele>1152.2</ele></trkpt><trkpt lat="45.843172" lon="9.190358"><time>2024-05-04T08:02:32.000Z</time><ele>1151.8</ele></trkpt><trkpt lat="45.843167" lon="9.190367"><time>2024-05-04T08:02:33.000Z</time><ele>1151.6</ele></trkpt><trkpt lat="45.843163" lon="9.190374"><time>2024-05-04T08:02:34.000Z</time><ele>1151.4</ele></trkpt><trkpt lat="45.843162" lon="9.190378"><time>2024-05-04T08:02:35.000Z</time><ele>1151.2</ele></trkpt><trkpt lat="45.843162" lon="9.190381"><time>2024-05-04T08:02:36.000Z</time><ele>1151</ele></trkpt><trkpt lat="45.843153" lon="9.190386"><time>2024-05-04T08:02:37.000Z</time><ele>1150.8</ele></trkpt><trkpt lat="45.843149" lon="9.190395"><time>2024-05-04T08:02:38.000Z</time><ele>1150.4</ele></trkpt><trkpt lat="45.843147" lon="9.190402"><time>2024-05-04T08:02:39.000Z</time><ele>1150.2</ele></trkpt><trkpt lat="45.843147" lon="9.190404"><time>2024-05-04T08:02:40.000Z</time><ele>1150</ele></trkpt><trkpt lat="45.843147" lon="9.190406"><time>2024-05-04T08:02:41.000Z</time><ele>1149.8</ele></trkpt><trkpt lat="45.843155" lon="9.190414"><time>2024-05-04T08:02:42.000Z</time><ele>1149.4</ele></trkpt><trkpt lat="45.84316" lon="9.190419"><time>2024-05-04T08:02:43.000Z</time><ele>1149.2</ele></trkpt><trkpt lat="45.843163" lon="9.190423"><time>2024-05-04T08:02:44.000Z</time><ele>1149.2</ele></trkpt><trkpt lat="45.843167" lon="9.190434"><time>2024-05-04T08:02:45.000Z</time><ele>1148.8</ele></trkpt><trkpt lat="45.843168" lon="9.190444"><time>2024-05-04T08:02:46.000Z</time><ele>1148.6</ele></trkpt><trkpt lat="45.843176" lon="9.190461"><time>2024-05-04T08:02:47.000Z</time><ele>1148.4</ele></trkpt><trkpt lat="45.843184" lon="9.190476"><time>2024-05-04T08:02:48.000Z</time><ele>1148.2</ele></trkpt><trkpt lat="45.843183" lon="9.190489"><time>2024-05-04T08:02:49.000Z</time><ele>1148</ele></trkpt><trkpt lat="45.843185" lon="9.190501"><time>2024-05-04T08:02:50.000Z</time><ele>1147.8</ele></trkpt><trkpt lat="45.843186" lon="9.190516"><time>2024-05-04T08:02:51.000Z</time><ele>1147.8</ele></trkpt><trkpt lat="45.84319" lon="9.190528"><time>2024-05-04T08:02:52.000Z</time><ele>1147.6</ele></trkpt><trkpt lat="45.843198" lon="9.190536"><time>2024-05-04T08:02:53.000Z</time><ele>1147.6</ele></trkpt><trkpt lat="45.8432" lon="9.190537"><time>2024-05-04T08:02:54.000Z</time><ele>1147.4</ele></trkpt><trkpt lat="45.843201" lon="9.190545"><time>2024-05-04T08:02:55.000Z</time><ele>1147.2</ele></trkpt><trkpt lat="45.843205" lon="9.190554"><time>2024-05-04T08:02:56.000Z</time><ele>1146.8</ele></trkpt><trkpt lat="45.843206" lon="9.190566"><time>2024-05-04T08:02:57.000Z</time><ele>1146.6</ele></trkpt><trkpt lat="45.8432" lon="9.190577"><time>2024-05-04T08:02:58.000Z</time><ele>1146.4</ele></trkpt><trkpt lat="45.843199" lon="9.19058"><time>2024-05-04T08:02:59.000Z</time><ele>1146.4</ele></trkpt><trkpt lat="45.843205" lon="9.190579"><time>2024-05-04T08:03:00.000Z</time><ele>1145.8</ele></trkpt><trkpt lat="45.84321" lon="9.190581"><time>2024-05-04T08:03:01.000Z</time><ele>1145.6</ele></trkpt><trkpt lat="45.843215" lon="9.190588"><time>2024-05-04T08:03:02.000Z</time><ele>1145.4</ele></trkpt><trkpt lat="45.843217" lon="9.190596"><time>2024-05-04T08:03:03.000Z</time><ele>1145.2</ele></trkpt><trkpt lat="45.843222" lon="9.190604"><time>2024-05-04T08:03:04.000Z</time><ele>1145</ele></trkpt><trkpt lat="45.843226" lon="9.190612"><time>2024-05-04T08:03:05.000Z</time><ele>1144.8</ele></trkpt><trkpt lat="45.843229" lon="9.190621"><time>2024-05-04T08:03:06.000Z</time><ele>1144.4</ele></trkpt><trkpt lat="45.843227" lon="9.19063"><time>2024-05-04T08:03:07.000Z</time><ele>1144</ele></trkpt><trkpt lat="45.843225" lon="9.190633"><time>2024-05-04T08:03:08.000Z</time><ele>1144</ele></trkpt><trkpt lat="45.843226" lon="9.190642"><time>2024-05-04T08:03:09.000Z</time><ele>1143.6</ele></trkpt><trkpt lat="45.843227" lon="9.190644"><time>2024-05-04T08:03:10.000Z</time><ele>1143.4</ele></trkpt><trkpt lat="45.843237" lon="9.190654"><time>2024-05-04T08:03:11.000Z</time><ele>1143.2</ele></trkpt><trkpt lat="45.843239" lon="9.190657"><time>2024-05-04T08:03:12.000Z</time><ele>1142.8</ele></trkpt><trkpt lat="45.843239" lon="9.190665"><time>2024-05-04T08:03:13.000Z</time><ele>1142.6</ele></trkpt><trkpt lat="45.843235" lon="9.190674"><time>2024-05-04T08:03:14.000Z</time><ele>1142.4</ele></trkpt><trkpt lat="45.843235" lon="9.190682"><time>2024-05-04T08:03:15.000Z</time><ele>1142</ele></trkpt><trkpt lat="45.843244" lon="9.190694"><time>2024-05-04T08:03:16.000Z</time><ele>1141.8</ele></trkpt><trkpt lat="45.843251" lon="9.190705"><time>2024-05-04T08:03:17.000Z</time><ele>1141.6</ele></trkpt><trkpt lat="45.84326" lon="9.190718"><time>2024-05-04T08:03:18.000Z</time><ele>1141.4</ele></trkpt><trkpt lat="45.843268" lon="9.190732"><time>2024-05-04T08:03:19.000Z</time><ele>1141.4</ele></trkpt><trkpt lat="45.843276" lon="9.190748"><time>2024-05-04T08:03:20.000Z</time><ele>1141.2</ele></trkpt><trkpt lat="45.843282" lon="9.190765"><time>2024-05-04T08:03:21.000Z</time><ele>1141</ele></trkpt><trkpt lat="45.843292" lon="9.19078"><time>2024-05-04T08:03:22.000Z</time><ele>1140.8</ele></trkpt><trkpt lat="45.8433" lon="9.190794"><time>2024-05-04T08:03:23.000Z</time><ele>1140.6</ele></trkpt><trkpt lat="45.843311" lon="9.190807"><time>2024-05-04T08:03:24.000Z</time><ele>1140.2</ele></trkpt><trkpt lat="45.84332" lon="9.190822"><time>2024-05-04T08:03:25.000Z</time><ele>1140</ele></trkpt><trkpt lat="45.843328" lon="9.190834"><time>2024-05-04T08:03:26.000Z</time><ele>1140</ele></trkpt><trkpt lat="45.843333" lon="9.190845"><time>2024-05-04T08:03:27.000Z</time><ele>1139.8</ele></trkpt><trkpt lat="45.84334" lon="9.190858"><time>2024-05-04T08:03:28.000Z</time><ele>1139.6</ele></trkpt><trkpt lat="45.843351" lon="9.190865"><time>2024-05-04T08:03:29.000Z</time><ele>1139.4</ele></trkpt><trkpt lat="45.843361" lon="9.190875"><time>2024-05-04T08:03:30.000Z</time><ele>1139.2</ele></trkpt><trkpt lat="45.843369" lon="9.190886"><time>2024-05-04T08:03:31.000Z</time><ele>1139</ele></trkpt><trkpt lat="45.843373" lon="9.190898"><time>2024-05-04T08:03:32.000Z</time><ele>1138.6</ele></trkpt><trkpt lat="45.843377" lon="9.190903"><time>2024-05-04T08:03:33.000Z</time><ele>1138.4</ele></trkpt><trkpt lat="45.843379" lon="9.190904"><time>2024-05-04T08:03:34.000Z</time><ele>1138.4</ele></trkpt><trkpt lat="45.84338" lon="9.190904"><time>2024-05-04T08:03:35.000Z</time><ele>1138.2</ele></trkpt><trkpt lat="45.843382" lon="9.190903"><time>2024-05-04T08:03:36.000Z</time><ele>1138.2</ele></trkpt><trkpt lat="45.843387" lon="9.190904"><time>2024-05-04T08:03:37.000Z</time><ele>1138.2</ele></trkpt><trkpt lat="45.84339" lon="9.190906"><time>2024-05-04T08:03:38.000Z</time><ele>1138.2</ele></trkpt><trkpt lat="45.843395" lon="9.190909"><time>2024-05-04T08:03:39.000Z</time><ele>1138.2</ele></trkpt><trkpt lat="45.843399" lon="9.190913"><time>2024-05-04T08:03:40.000Z</time><ele>1138.2</ele></trkpt><trkpt lat="45.843403" lon="9.190919"><time>2024-05-04T08:03:41.000Z</time><ele>1138.2</ele></trkpt><trkpt lat="45.84341" lon="9.190929"><time>2024-05-04T08:03:42.000Z</time><ele>1138.2</ele></trkpt><trkpt lat="45.843417" lon="9.190951"><time>2024-05-04T08:03:43.000Z</time><ele>1138</ele></trkpt><trkpt lat="45.843424" lon="9.190974"><time>2024-05-04T08:03:44.000Z</time><ele>1138</ele></trkpt><trkpt lat="45.843429" lon="9.190985"><time>2024-05-04T08:03:45.000Z</time><ele>1137.8</ele></trkpt><trkpt lat="45.843432" lon="9.190988"><time>2024-05-04T08:03:46.000Z</time><ele>1137.8</ele></trkpt><trkpt lat="45.843437" lon="9.190996"><time>2024-05-04T08:03:47.000Z</time><ele>1137.8</ele></trkpt><trkpt lat="45.843444" lon="9.191006"><time>2024-05-04T08:03:48.000Z</time><ele>1137.6</ele></trkpt><trkpt lat="45.843447" lon="9.191015"><time>2024-05-04T08:03:49.000Z</time><ele>1137.6</ele></trkpt><trkpt lat="45.843449" lon="9.191024"><time>2024-05-04T08:03:50.000Z</time><ele>1137.6</ele></trkpt><trkpt lat="45.843454" lon="9.191038"><time>2024-05-04T08:03:51.000Z</time><ele>1137.4</ele></trkpt><trkpt lat="45.843461" lon="9.191047"><time>2024-05-04T08:03:52.000Z</time><ele>1137.4</ele></trkpt><trkpt lat="45.843466" lon="9.191056"><time>2024-05-04T08:03:53.000Z</time><ele>1137.2</ele></trkpt><trkpt lat="45.84347" lon="9.191068"><time>2024-05-04T08:03:54.000Z</time><ele>1137.2</ele></trkpt><trkpt lat="45.843475" lon="9.191075"><time>2024-05-04T08:03:55.000Z</time><ele>1137.2</ele></trkpt><trkpt lat="45.843482" lon="9.191084"><time>2024-05-04T08:03:56.000Z</time><ele>1137.2</ele></trkpt><trkpt lat="45.843489" lon="9.191095"><time>2024-05-04T08:03:57.000Z</time><ele>1137.2</ele></trkpt><trkpt lat="45.843496" lon="9.191105"><time>2024-05-04T08:03:58.000Z</time><ele>1137</ele></trkpt><trkpt lat="45.843501" lon="9.191112"><time>2024-05-04T08:03:59.000Z</time><ele>1136.8</ele></trkpt><trkpt lat="45.843506" lon="9.191119"><time>2024-05-04T08:04:00.000Z</time><ele>1136.6</ele></trkpt><trkpt lat="45.843513" lon="9.191128"><time>2024-05-04T08:04:01.000Z</time><ele>1136.4</ele></trkpt><trkpt lat="45.843517" lon="9.191136"><time>2024-05-04T08:04:02.000Z</time><ele>1136.2</ele></trkpt><trkpt lat="45.843522" lon="9.191144"><time>2024-05-04T08:04:03.000Z</time><ele>1136.2</ele></trkpt><trkpt lat="45.843525" lon="9.191149"><time>2024-05-04T08:04:04.000Z</time><ele>1136</ele></trkpt><trkpt lat="45.843531" lon="9.191157"><time>2024-05-04T08:04:05.000Z</time><ele>1135.8</ele></trkpt><trkpt lat="45.843534" lon="9.191162"><time>2024-05-04T08:04:06.000Z</time><ele>1135.6</ele></trkpt><trkpt lat="45.843539" lon="9.191167"><time>2024-05-04T08:04:07.000Z</time><ele>1135.2</ele></trkpt><trkpt lat="45.843547" lon="9.191169"><time>2024-05-04T08:04:08.000Z</time><ele>1135</ele></trkpt><trkpt lat="45.84355" lon="9.191171"><time>2024-05-04T08:04:09.000Z</time><ele>1134.6</ele></trkpt><trkpt lat="45.843553" lon="9.191175"><time>2024-05-04T08:04:10.000Z</time><ele>1134.4</ele></trkpt><trkpt lat="45.84356" lon="9.19118"><time>2024-05-04T08:04:11.000Z</time><ele>1134.4</ele></trkpt><trkpt lat="45.843563" lon="9.191182"><time>2024-05-04T08:04:12.000Z</time><ele>1134.2</ele></trkpt><trkpt lat="45.843564" lon="9.191183"><time>2024-05-04T08:04:13.000Z</time><ele>1134</ele></trkpt><trkpt lat="45.843568" lon="9.191187"><time>2024-05-04T08:04:14.000Z</time><ele>1133.8</ele></trkpt><trkpt lat="45.843574" lon="9.19119"><time>2024-05-04T08:04:15.000Z</time><ele>1133.6</ele></trkpt><trkpt lat="45.843583" lon="9.191194"><time>2024-05-04T08:04:16.000Z</time><ele>1133.4</ele></trkpt><trkpt lat="45.843588" lon="9.191201"><time>2024-05-04T08:04:17.000Z</time><ele>1133.2</ele></trkpt><trkpt lat="45.843592" lon="9.191206"><time>2024-05-04T08:04:18.000Z</time><ele>1133</ele></trkpt><trkpt lat="45.843597" lon="9.191211"><time>2024-05-04T08:04:19.000Z</time><ele>1132.6</ele></trkpt><trkpt lat="45.843605" lon="9.191216"><time>2024-05-04T08:04:20.000Z</time><ele>1132.4</ele></trkpt><trkpt lat="45.843609" lon="9.191218"><time>2024-05-04T08:04:21.000Z</time><ele>1132.2</ele></trkpt><trkpt lat="45.843609" lon="9.19122"><time>2024-05-04T08:04:22.000Z</time><ele>1132</ele></trkpt><trkpt lat="45.84361" lon="9.191226"><time>2024-05-04T08:04:23.000Z</time><ele>1132</ele></trkpt><trkpt lat="45.84361" lon="9.191238"><time>2024-05-04T08:04:24.000Z</time><ele>1131.8</ele></trkpt><trkpt lat="45.843614" lon="9.191251"><time>2024-05-04T08:04:25.000Z</time><ele>1131.8</ele></trkpt><trkpt lat="45.843618" lon="9.191261"><time>2024-05-04T08:04:26.000Z</time><ele>1131.6</ele></trkpt><trkpt lat="45.843622" lon="9.19127"><time>2024-05-04T08:04:27.000Z</time><ele>1131.4</ele></trkpt><trkpt lat="45.843626" lon="9.191277"><time>2024-05-04T08:04:28.000Z</time><ele>1131.2</ele></trkpt><trkpt lat="45.843633" lon="9.191287"><time>2024-05-04T08:04:29.000Z</time><ele>1131</ele></trkpt><trkpt lat="45.843633" lon="9.1913"><time>2024-05-04T08:04:30.000Z</time><ele>1130.8</ele></trkpt><trkpt lat="45.843635" lon="9.191312"><time>2024-05-04T08:04:31.000Z</time><ele>1130.6</ele></trkpt><trkpt lat="45.843637" lon="9.191323"><time>2024-05-04T08:04:32.000Z</time><ele>1130.4</ele></trkpt><trkpt lat="45.843641" lon="9.19133"><time>2024-05-04T08:04:33.000Z</time><ele>1130.2</ele></trkpt><trkpt lat="45.843641" lon="9.191332"><time>2024-05-04T08:04:34.000Z</time><ele>1130</ele></trkpt><trkpt lat="45.84364" lon="9.191337"><time>2024-05-04T08:04:35.000Z</time><ele>1129.8</ele></trkpt><trkpt lat="45.843645" lon="9.191345"><time>2024-05-04T08:04:36.000Z</time><ele>1129.6</ele></trkpt><trkpt lat="45.84365" lon="9.191358"><time>2024-05-04T08:04:37.000Z</time><ele>1129.6</ele></trkpt><trkpt lat="45.843652" lon="9.191367"><time>2024-05-04T08:04:38.000Z</time><ele>1129.2</ele></trkpt><trkpt lat="45.843655" lon="9.191374"><time>2024-05-04T08:04:39.000Z</time><ele>1129</ele></trkpt><trkpt lat="45.843661" lon="9.191382"><time>2024-05-04T08:04:40.000Z</time><ele>1128.8</ele></trkpt><trkpt lat="45.843664" lon="9.191394"><time>2024-05-04T08:04:41.000Z</time><ele>1128.4</ele></trkpt><trkpt lat="45.843667" lon="9.191407"><time>2024-05-04T08:04:42.000Z</time><ele>1128.2</ele></trkpt><trkpt lat="45.843671" lon="9.191419"><time>2024-05-04T08:04:43.000Z</time><ele>1128</ele></trkpt><trkpt lat="45.843677" lon="9.191427"><time>2024-05-04T08:04:44.000Z</time><ele>1127.8</ele></trkpt><trkpt lat="45.843685" lon="9.191435"><time>2024-05-04T08:04:45.000Z</time><ele>1127.6</ele></trkpt><trkpt lat="45.843691" lon="9.191443"><time>2024-05-04T08:04:46.000Z</time><ele>1127.4</ele></trkpt><trkpt lat="45.843697" lon="9.191448"><time>2024-05-04T08:04:47.000Z</time><ele>1127.2</ele></trkpt><trkpt lat="45.843704" lon="9.191462"><time>2024-05-04T08:04:48.000Z</time><ele>1127</ele></trkpt><trkpt lat="45.843707" lon="9.191477"><time>2024-05-04T08:04:49.000Z</time><ele>1127</ele></trkpt><trkpt lat="45.84371" lon="9.191487"><time>2024-05-04T08:04:50.000Z</time><ele>1126.8</ele></trkpt><trkpt lat="45.843712" lon="9.191498"><time>2024-05-04T08:04:51.000Z</time><ele>1126.6</ele></trkpt><trkpt lat="45.843718" lon="9.191511"><time>2024-05-04T08:04:52.000Z</time><ele>1126.6</ele></trkpt><trkpt lat="45.843721" lon="9.191522"><time>2024-05-04T08:04:53.000Z</time><ele>1126.4</ele></trkpt><trkpt lat="45.843724" lon="9.191531"><time>2024-05-04T08:04:54.000Z</time><ele>1126.2</ele></trkpt><trkpt lat="45.843726" lon="9.191541"><time>2024-05-04T08:04:55.000Z</time><ele>1125.8</ele></trkpt><trkpt lat="45.843731" lon="9.191548"><time>2024-05-04T08:04:56.000Z</time><ele>1125.8</ele></trkpt><trkpt lat="45.843733" lon="9.191558"><time>2024-05-04T08:04:57.000Z</time><ele>1125.6</ele></trkpt><trkpt lat="45.843734" lon="9.191582"><time>2024-05-04T08:04:58.000Z</time><ele>1125.4</ele></trkpt><trkpt lat="45.843736" lon="9.19161"><time>2024-05-04T08:04:59.000Z</time><ele>1125.2</ele></trkpt><trkpt lat="45.843739" lon="9.191629"><time>2024-05-04T08:05:00.000Z</time><ele>1125</ele></trkpt><trkpt lat="45.843741" lon="9.191642"><time>2024-05-04T08:05:01.000Z</time><ele>1125</ele></trkpt><trkpt lat="45.843743" lon="9.191653"><time>2024-05-04T08:05:02.000Z</time><ele>1124.8</ele></trkpt><trkpt lat="45.843747" lon="9.191663"><time>2024-05-04T08:05:03.000Z</time><ele>1124.4</ele></trkpt><trkpt lat="45.843755" lon="9.191672"><time>2024-05-04T08:05:04.000Z</time><ele>1124.2</ele></trkpt><trkpt lat="45.843761" lon="9.191678"><time>2024-05-04T08:05:05.000Z</time><ele>1124</ele></trkpt><trkpt lat="45.843764" lon="9.191685"><time>2024-05-04T08:05:06.000Z</time><ele>1123.8</ele></trkpt><trkpt lat="45.843766" lon="9.191696"><time>2024-05-04T08:05:07.000Z</time><ele>1123.6</ele></trkpt><trkpt lat="45.843769" lon="9.191713"><time>2024-05-04T08:05:08.000Z</time><ele>1123.4</ele></trkpt><trkpt lat="45.843771" lon="9.19173"><time>2024-05-04T08:05:09.000Z</time><ele>1123.4</ele></trkpt><trkpt lat="45.84377" lon="9.191749"><time>2024-05-04T08:05:10.000Z</time><ele>1123</ele></trkpt><trkpt lat="45.84377" lon="9.191765"><time>2024-05-04T08:05:11.000Z</time><ele>1122.8</ele></trkpt><trkpt lat="45.843769" lon="9.19178"><time>2024-05-04T08:05:12.000Z</time><ele>1122.8</ele></trkpt><trkpt lat="45.843774" lon="9.191792"><time>2024-05-04T08:05:13.000Z</time><ele>1122.8</ele></trkpt><trkpt lat="45.843781" lon="9.191802"><time>2024-05-04T08:05:14.000Z</time><ele>1122.6</ele></trkpt><trkpt lat="45.843786" lon="9.191814"><time>2024-05-04T08:05:15.000Z</time><ele>1122.6</ele></trkpt><trkpt lat="45.843793" lon="9.191836"><time>2024-05-04T08:05:16.000Z</time><ele>1122.4</ele></trkpt><trkpt lat="45.843804" lon="9.19185"><time>2024-05-04T08:05:17.000Z</time><ele>1122.4</ele></trkpt><trkpt lat="45.843809" lon="9.191865"><time>2024-05-04T08:05:18.000Z</time><ele>1122.2</ele></trkpt><trkpt lat="45.843814" lon="9.191879"><time>2024-05-04T08:05:19.000Z</time><ele>1122.2</ele></trkpt><trkpt lat="45.843819" lon="9.191891"><time>2024-05-04T08:05:20.000Z</time><ele>1122.2</ele></trkpt><trkpt lat="45.843827" lon="9.191904"><time>2024-05-04T08:05:21.000Z</time><ele>1122.2</ele></trkpt><trkpt lat="45.843834" lon="9.191918"><time>2024-05-04T08:05:22.000Z</time><ele>1122.2</ele></trkpt><trkpt lat="45.843842" lon="9.191931"><time>2024-05-04T08:05:23.000Z</time><ele>1122</ele></trkpt><trkpt lat="45.843849" lon="9.191946"><time>2024-05-04T08:05:24.000Z</time><ele>1122</ele></trkpt><trkpt lat="45.843857" lon="9.191966"><time>2024-05-04T08:05:25.000Z</time><ele>1122</ele></trkpt><trkpt lat="45.843861" lon="9.191978"><time>2024-05-04T08:05:26.000Z</time><ele>1122</ele></trkpt><trkpt lat="45.843865" lon="9.19199"><time>2024-05-04T08:05:27.000Z</time><ele>1122</ele></trkpt><trkpt lat="45.843869" lon="9.192003"><time>2024-05-04T08:05:28.000Z</time><ele>1122</ele></trkpt><trkpt lat="45.843874" lon="9.192018"><time>2024-05-04T08:05:29.000Z</time><ele>1122</ele></trkpt><trkpt lat="45.84388" lon="9.192033"><time>2024-05-04T08:05:30.000Z</time><ele>1122</ele></trkpt><trkpt lat="45.843885" lon="9.192048"><time>2024-05-04T08:05:31.000Z</time><ele>1122.2</ele></trkpt><trkpt lat="45.843891" lon="9.19206"><time>2024-05-04T08:05:32.000Z</time><ele>1122.2</ele></trkpt><trkpt lat="45.843899" lon="9.192072"><time>2024-05-04T08:05:33.000Z</time><ele>1122.2</ele></trkpt><trkpt lat="45.843905" lon="9.192087"><time>2024-05-04T08:05:34.000Z</time><ele>1122.2</ele></trkpt><trkpt lat="45.843911" lon="9.192105"><time>2024-05-04T08:05:35.000Z</time><ele>1122.2</ele></trkpt><trkpt lat="45.843919" lon="9.192119"><time>2024-05-04T08:05:36.000Z</time><ele>1122.2</ele></trkpt><trkpt lat="45.843929" lon="9.192131"><time>2024-05-04T08:05:37.000Z</time><ele>1122.2</ele></trkpt><trkpt lat="45.843939" lon="9.192144"><time>2024-05-04T08:05:38.000Z</time><ele>1122.2</ele></trkpt><trkpt lat="45.843946" lon="9.192158"><time>2024-05-04T08:05:39.000Z</time><ele>1122.2</ele></trkpt><trkpt lat="45.843953" lon="9.192173"><time>2024-05-04T08:05:40.000Z</time><ele>1122.2</ele></trkpt><trkpt lat="45.843957" lon="9.192185"><time>2024-05-04T08:05:41.000Z</time><ele>1122.2</ele></trkpt><trkpt lat="45.843961" lon="9.192197"><time>2024-05-04T08:05:42.000Z</time><ele>1122.2</ele></trkpt><trkpt lat="45.843967" lon="9.192205"><time>2024-05-04T08:05:43.000Z</time><ele>1122</ele></trkpt><trkpt lat="45.843972" lon="9.192213"><time>2024-05-04T08:05:44.000Z</time><ele>1121.8</ele></trkpt><trkpt lat="45.843979" lon="9.192219"><time>2024-05-04T08:05:45.000Z</time><ele>1121.8</ele></trkpt><trkpt lat="45.843983" lon="9.192226"><time>2024-05-04T08:05:46.000Z</time><ele>1121.6</ele></trkpt><trkpt lat="45.843987" lon="9.192238"><time>2024-05-04T08:05:47.000Z</time><ele>1121.6</ele></trkpt><trkpt lat="45.843992" lon="9.192253"><time>2024-05-04T08:05:48.000Z</time><ele>1121.4</ele></trkpt><trkpt lat="45.843997" lon="9.192266"><time>2024-05-04T08:05:49.000Z</time><ele>1121.4</ele></trkpt><trkpt lat="45.844004" lon="9.192281"><time>2024-05-04T08:05:50.000Z</time><ele>1121.2</ele></trkpt><trkpt lat="45.844009" lon="9.192295"><time>2024-05-04T08:05:51.000Z</time><ele>1121</ele></trkpt><trkpt lat="45.844013" lon="9.192306"><time>2024-05-04T08:05:52.000Z</time><ele>1121</ele></trkpt><trkpt lat="45.844016" lon="9.192311"><time>2024-05-04T08:05:53.000Z</time><ele>1120.8</ele></trkpt><trkpt lat="45.84402" lon="9.192318"><time>2024-05-04T08:05:54.000Z</time><ele>1120.8</ele></trkpt><trkpt lat="45.844024" lon="9.192325"><time>2024-05-04T08:05:55.000Z</time><ele>1120.6</ele></trkpt><trkpt lat="45.844029" lon="9.192333"><time>2024-05-04T08:05:56.000Z</time><ele>1120.4</ele></trkpt><trkpt lat="45.844034" lon="9.192341"><time>2024-05-04T08:05:57.000Z</time><ele>1120.2</ele></trkpt><trkpt lat="45.844036" lon="9.192348"><time>2024-05-04T08:05:58.000Z</time><ele>1120</ele></trkpt><trkpt lat="45.844037" lon="9.192353"><time>2024-05-04T08:05:59.000Z</time><ele>1119.8</ele></trkpt><trkpt lat="45.84404" lon="9.192359"><time>2024-05-04T08:06:00.000Z</time><ele>1119.6</ele></trkpt><trkpt lat="45.844045" lon="9.192366"><time>2024-05-04T08:06:01.000Z</time><ele>1119.4</ele></trkpt><trkpt lat="45.844048" lon="9.192373"><time>2024-05-04T08:06:02.000Z</time><ele>1119.2</ele></trkpt><trkpt lat="45.844057" lon="9.192377"><time>2024-05-04T08:06:03.000Z</time><ele>1119</ele></trkpt><trkpt lat="45.844063" lon="9.192383"><time>2024-05-04T08:06:04.000Z</time><ele>1119</ele></trkpt><trkpt lat="45.844066" lon="9.192388"><time>2024-05-04T08:06:05.000Z</time><ele>1118.8</ele></trkpt><trkpt lat="45.844068" lon="9.19239"><time>2024-05-04T08:06:06.000Z</time><ele>1118.6</ele></trkpt><trkpt lat="45.844069" lon="9.192391"><time>2024-05-04T08:06:07.000Z</time><ele>1118.4</ele></trkpt><trkpt lat="45.844072" lon="9.192391"><time>2024-05-04T08:06:08.000Z</time><ele>1118.2</ele></trkpt><trkpt lat="45.844072" lon="9.19239"><time>2024-05-04T08:06:09.000Z</time><ele>1118.2</ele></trkpt><trkpt lat="45.844073" lon="9.19239"><time>2024-05-04T08:06:10.000Z</time><ele>1118.2</ele></trkpt><trkpt lat="45.844073" lon="9.192391"><time>2024-05-04T08:06:11.000Z</time><ele>1118</ele></trkpt><trkpt lat="45.844073" lon="9.192393"><time>2024-05-04T08:06:12.000Z</time><ele>1118</ele></trkpt><trkpt lat="45.844073" lon="9.192393"><time>2024-05-04T08:06:13.000Z</time><ele>1118</ele></trkpt><trkpt lat="45.844072" lon="9.192396"><time>2024-05-04T08:06:14.000Z</time><ele>1118</ele></trkpt><trkpt lat="45.84407" lon="9.192398"><time>2024-05-04T08:06:15.000Z</time><ele>1118</ele></trkpt><trkpt lat="45.844068" lon="9.192398"><time>2024-05-04T08:06:16.000Z</time><ele>1118</ele></trkpt><trkpt lat="45.844068" lon="9.192399"><time>2024-05-04T08:06:17.000Z</time><ele>1118</ele></trkpt><trkpt lat="45.84407" lon="9.192401"><time>2024-05-04T08:06:18.000Z</time><ele>1118</ele></trkpt><trkpt lat="45.844071" lon="9.192402"><time>2024-05-04T08:06:19.000Z</time><ele>1118</ele></trkpt><trkpt lat="45.844074" lon="9.192402"><time>2024-05-04T08:06:20.000Z</time><ele>1118</ele></trkpt><trkpt lat="45.844082" lon="9.1924"><time>2024-05-04T08:06:21.000Z</time><ele>1118</ele></trkpt><trkpt lat="45.844085" lon="9.192397"><time>2024-05-04T08:06:22.000Z</time><ele>1118</ele></trkpt><trkpt lat="45.844086" lon="9.192393"><time>2024-05-04T08:06:23.000Z</time><ele>1117.8</ele></trkpt><trkpt lat="45.844085" lon="9.192391"><time>2024-05-04T08:06:24.000Z</time><ele>1117.8</ele></trkpt><trkpt lat="45.844085" lon="9.192391"><time>2024-05-04T08:06:25.000Z</time><ele>1117.8</ele></trkpt><trkpt lat="45.844084" lon="9.192393"><time>2024-05-04T08:06:26.000Z</time><ele>1117.8</ele></trkpt><trkpt lat="45.844084" lon="9.192393"><time>2024-05-04T08:06:27.000Z</time><ele>1117.8</ele></trkpt><trkpt lat="45.844084" lon="9.192393"><time>2024-05-04T08:06:28.000Z</time><ele>1117.8</ele></trkpt><trkpt lat="45.844084" lon="9.192393"><time>2024-05-04T08:06:29.000Z</time><ele>1117.8</ele></trkpt><trkpt lat="45.844084" lon="9.192393"><time>2024-05-04T08:06:30.000Z</time><ele>1117.8</ele></trkpt><trkpt lat="45.844084" lon="9.192393"><time>2024-05-04T08:06:31.000Z</time><ele>1117.8</ele></trkpt><trkpt lat="45.844084" lon="9.192393"><time>2024-05-04T08:06:32.000Z</time><ele>1117.8</ele></trkpt><trkpt lat="45.844084" lon="9.192393"><time>2024-05-04T08:06:33.000Z</time><ele>1117.8</ele></trkpt><trkpt lat="45.844084" lon="9.192393"><time>2024-05-04T08:06:34.000Z</time><ele>1117.8</ele></trkpt><trkpt lat="45.844084" lon="9.192393"><time>2024-05-04T08:06:35.000Z</time><ele>1117.8</ele></trkpt><trkpt lat="45.844084" lon="9.192393"><time>2024-05-04T08:06:36.000Z</time><ele>1117.8</ele></trkpt><trkpt lat="45.844084" lon="9.192393"><time>2024-05-04T08:06:37.000Z</time><ele>1117.8</ele></trkpt><trkpt lat="45.844084" lon="9.192393"><time>2024-05-04T08:06:38.000Z</time><ele>1117.8</ele></trkpt><trkpt lat="45.844084" lon="9.192393"><time>2024-05-04T08:06:39.000Z</time><ele>1118</ele></trkpt><trkpt lat="45.844084" lon="9.192393"><time>2024-05-04T08:06:40.000Z</time><ele>1118</ele></trkpt><trkpt lat="45.844084" lon="9.192393"><time>2024-05-04T08:06:41.000Z</time><ele>1118</ele></trkpt><trkpt lat="45.844084" lon="9.192393"><time>2024-05-04T08:06:42.000Z</time><ele>1118.2</ele></trkpt><trkpt lat="45.844085" lon="9.192393"><time>2024-05-04T08:06:43.000Z</time><ele>1118.2</ele></trkpt><trkpt lat="45.844085" lon="9.192393"><time>2024-05-04T08:06:44.000Z</time><ele>1118.4</ele></trkpt><trkpt lat="45.844085" lon="9.192393"><time>2024-05-04T08:06:45.000Z</time><ele>1118.4</ele></trkpt><trkpt lat="45.844086" lon="9.192393"><time>2024-05-04T08:06:46.000Z</time><ele>1118.4</ele></trkpt><trkpt lat="45.844087" lon="9.192393"><time>2024-05-04T08:06:47.000Z</time><ele>1118.4</ele></trkpt><trkpt lat="45.844092" lon="9.192393"><time>2024-05-04T08:06:48.000Z</time><ele>1118.2</ele></trkpt><trkpt lat="45.844093" lon="9.192393"><time>2024-05-04T08:06:49.000Z</time><ele>1118</ele></trkpt><trkpt lat="45.844093" lon="9.192393"><time>2024-05-04T08:06:50.000Z</time><ele>1117.8</ele></trkpt><trkpt lat="45.844094" lon="9.192393"><time>2024-05-04T08:06:51.000Z</time><ele>1117.6</ele></trkpt><trkpt lat="45.844094" lon="9.192393"><time>2024-05-04T08:06:52.000Z</time><ele>1117.6</ele></trkpt><trkpt lat="45.844094" lon="9.192393"><time>2024-05-04T08:06:53.000Z</time><ele>1117.4</ele></trkpt><trkpt lat="45.844095" lon="9.192393"><time>2024-05-04T08:06:54.000Z</time><ele>1117.4</ele></trkpt><trkpt lat="45.844095" lon="9.192393"><time>2024-05-04T08:06:55.000Z</time><ele>1117.2</ele></trkpt><trkpt lat="45.844095" lon="9.192394"><time>2024-05-04T08:06:56.000Z</time><ele>1117.2</ele></trkpt><trkpt lat="45.844096" lon="9.192394"><time>2024-05-04T08:06:57.000Z</time><ele>1117.2</ele></trkpt><trkpt lat="45.844096" lon="9.192394"><time>2024-05-04T08:06:58.000Z</time><ele>1117.2</ele></trkpt><trkpt lat="45.844096" lon="9.192394"><time>2024-05-04T08:06:59.000Z</time><ele>1117.2</ele></trkpt><trkpt lat="45.844097" lon="9.192394"><time>2024-05-04T08:07:00.000Z</time><ele>1117.2</ele></trkpt><trkpt lat="45.844097" lon="9.192394"><time>2024-05-04T08:07:01.000Z</time><ele>1117.2</ele></trkpt><trkpt lat="45.844103" lon="9.192396"><time>2024-05-04T08:07:02.000Z</time><ele>1117.2</ele></trkpt><trkpt lat="45.844111" lon="9.192398"><time>2024-05-04T08:07:03.000Z</time><ele>1117.2</ele></trkpt><trkpt lat="45.844116" lon="9.1924"><time>2024-05-04T08:07:04.000Z</time><ele>1117.2</ele></trkpt><trkpt lat="45.844121" lon="9.192401"><time>2024-05-04T08:07:05.000Z</time><ele>1117.2</ele></trkpt><trkpt lat="45.844125" lon="9.192401"><time>2024-05-04T08:07:06.000Z</time><ele>1117.2</ele></trkpt><trkpt lat="45.844128" lon="9.192401"><time>2024-05-04T08:07:07.000Z</time><ele>1117.2</ele></trkpt><trkpt lat="45.844129" lon="9.192401"><time>2024-05-04T08:07:08.000Z</time><ele>1117.2</ele></trkpt><trkpt lat="45.844129" lon="9.192402"><time>2024-05-04T08:07:09.000Z</time><ele>1117.2</ele></trkpt><trkpt lat="45.84413" lon="9.192402"><time>2024-05-04T08:07:10.000Z</time><ele>1117.2</ele></trkpt><trkpt lat="45.844131" lon="9.192403"><time>2024-05-04T08:07:11.000Z</time><ele>1117.2</ele></trkpt><trkpt lat="45.844136" lon="9.192403"><time>2024-05-04T08:07:12.000Z</time><ele>1117</ele></trkpt><trkpt lat="45.84414" lon="9.192404"><time>2024-05-04T08:07:13.000Z</time><ele>1117</ele></trkpt><trkpt lat="45.844141" lon="9.192404"><time>2024-05-04T08:07:14.000Z</time><ele>1117</ele></trkpt><trkpt lat="45.844142" lon="9.192404"><time>2024-05-04T08:07:15.000Z</time><ele>1117</ele></trkpt><trkpt lat="45.844142" lon="9.192405"><time>2024-05-04T08:07:16.000Z</time><ele>1117</ele></trkpt><trkpt lat="45.844143" lon="9.192405"><time>2024-05-04T08:07:17.000Z</time><ele>1117</ele></trkpt><trkpt lat="45.844143" lon="9.192405"><time>2024-05-04T08:07:18.000Z</time><ele>1117</ele></trkpt><trkpt lat="45.844144" lon="9.192405"><time>2024-05-04T08:07:19.000Z</time><ele>1117.2</ele></trkpt><trkpt lat="45.844145" lon="9.192406"><time>2024-05-04T08:07:20.000Z</time><ele>1117.2</ele></trkpt><trkpt lat="45.844145" lon="9.192406"><time>2024-05-04T08:07:21.000Z</time><ele>1117.2</ele></trkpt><trkpt lat="45.844146" lon="9.192406"><time>2024-05-04T08:07:22.000Z</time><ele>1117.2</ele></trkpt><trkpt lat="45.844146" lon="9.192408"><time>2024-05-04T08:07:23.000Z</time><ele>1117.2</ele></trkpt><trkpt lat="45.844148" lon="9.192409"><time>2024-05-04T08:07:24.000Z</time><ele>1117.2</ele></trkpt><trkpt lat="45.844149" lon="9.19241"><time>2024-05-04T08:07:25.000Z</time><ele>1117.2</ele></trkpt><trkpt lat="45.844153" lon="9.19241"><time>2024-05-04T08:07:26.000Z</time><ele>1117.2</ele></trkpt><trkpt lat="45.844154" lon="9.192411"><time>2024-05-04T08:07:27.000Z</time><ele>1117.2</ele></trkpt><trkpt lat="45.844155" lon="9.192411"><time>2024-05-04T08:07:28.000Z</time><ele>1117.2</ele></trkpt><trkpt lat="45.844157" lon="9.192413"><time>2024-05-04T08:07:29.000Z</time><ele>1117.2</ele></trkpt><trkpt lat="45.844159" lon="9.192415"><time>2024-05-04T08:07:30.000Z</time><ele>1117.2</ele></trkpt><trkpt lat="45.84416" lon="9.192422"><time>2024-05-04T08:07:31.000Z</time><ele>1117.2</ele></trkpt><trkpt lat="45.844161" lon="9.192425"><time>2024-05-04T08:07:32.000Z</time><ele>1117.2</ele></trkpt><trkpt lat="45.844163" lon="9.192427"><time>2024-05-04T08:07:33.000Z</time><ele>1117.2</ele></trkpt><trkpt lat="45.844164" lon="9.192427"><time>2024-05-04T08:07:34.000Z</time><ele>1117.2</ele></trkpt><trkpt lat="45.844164" lon="9.192428"><time>2024-05-04T08:07:35.000Z</time><ele>1117.2</ele></trkpt><trkpt lat="45.844164" lon="9.192428"><time>2024-05-04T08:07:36.000Z</time><ele>1117.2</ele></trkpt><trkpt lat="45.844165" lon="9.192428"><time>2024-05-04T08:07:37.000Z</time><ele>1117.2</ele></trkpt><trkpt lat="45.844165" lon="9.192428"><time>2024-05-04T08:07:38.000Z</time><ele>1117.2</ele></trkpt><trkpt lat="45.844165" lon="9.192428"><time>2024-05-04T08:07:39.000Z</time><ele>1117.2</ele></trkpt><trkpt lat="45.844165" lon="9.192428"><time>2024-05-04T08:07:40.000Z</time><ele>1117.2</ele></trkpt><trkpt lat="45.844165" lon="9.192428"><time>2024-05-04T08:07:41.000Z</time><ele>1117.2</ele></trkpt><trkpt lat="45.844165" lon="9.192428"><time>2024-05-04T08:07:42.000Z</time><ele>1117.2</ele></trkpt><trkpt lat="45.844165" lon="9.192428"><time>2024-05-04T08:07:43.000Z</time><ele>1117.2</ele></trkpt><trkpt lat="45.844165" lon="9.192428"><time>2024-05-04T08:07:44.000Z</time><ele>1117.2</ele></trkpt><trkpt lat="45.844165" lon="9.192428"><time>2024-05-04T08:07:45.000Z</time><ele>1117.2</ele></trkpt><trkpt lat="45.844165" lon="9.192428"><time>2024-05-04T08:07:46.000Z</time><ele>1117.2</ele></trkpt><trkpt lat="45.844165" lon="9.192428"><time>2024-05-04T08:07:47.000Z</time><ele>1117.2</ele></trkpt><trkpt lat="45.844165" lon="9.192429"><time>2024-05-04T08:07:48.000Z</time><ele>1117.2</ele></trkpt><trkpt lat="45.844165" lon="9.192429"><time>2024-05-04T08:07:49.000Z</time><ele>1117.2</ele></trkpt><trkpt lat="45.844165" lon="9.192429"><time>2024-05-04T08:07:50.000Z</time><ele>1117.2</ele></trkpt><trkpt lat="45.844165" lon="9.192429"><time>2024-05-04T08:07:51.000Z</time><ele>1117.2</ele></trkpt><trkpt lat="45.844164" lon="9.192429"><time>2024-05-04T08:07:52.000Z</time><ele>1117.2</ele></trkpt><trkpt lat="45.844163" lon="9.192429"><time>2024-05-04T08:07:53.000Z</time><ele>1117.2</ele></trkpt><trkpt lat="45.844162" lon="9.192429"><time>2024-05-04T08:07:54.000Z</time><ele>1117.2</ele></trkpt><trkpt lat="45.844162" lon="9.192429"><time>2024-05-04T08:07:55.000Z</time><ele>1117.2</ele></trkpt><trkpt lat="45.844161" lon="9.192429"><time>2024-05-04T08:07:56.000Z</time><ele>1117.2</ele></trkpt><trkpt lat="45.844161" lon="9.192429"><time>2024-05-04T08:07:57.000Z</time><ele>1117.2</ele></trkpt><trkpt lat="45.844161" lon="9.192429"><time>2024-05-04T08:07:58.000Z</time><ele>1117.2</ele></trkpt><trkpt lat="45.844161" lon="9.192429"><time>2024-05-04T08:07:59.000Z</time><ele>1117.2</ele></trkpt><trkpt lat="45.844161" lon="9.192429"><time>2024-05-04T08:08:00.000Z</time><ele>1117.2</ele></trkpt><trkpt lat="45.844161" lon="9.192429"><time>2024-05-04T08:08:01.000Z</time><ele>1117.2</ele></trkpt><trkpt lat="45.844161" lon="9.192429"><time>2024-05-04T08:08:02.000Z</time><ele>1117.2</ele></trkpt><trkpt lat="45.84416" lon="9.192429"><time>2024-05-04T08:08:03.000Z</time><ele>1117.2</ele></trkpt><trkpt lat="45.84416" lon="9.19243"><time>2024-05-04T08:08:04.000Z</time><ele>1117.2</ele></trkpt><trkpt lat="45.84416" lon="9.19243"><time>2024-05-04T08:08:05.000Z</time><ele>1117.2</ele></trkpt><trkpt lat="45.84416" lon="9.192431"><time>2024-05-04T08:08:06.000Z</time><ele>1117.2</ele></trkpt><trkpt lat="45.84416" lon="9.192431"><time>2024-05-04T08:08:07.000Z</time><ele>1117.2</ele></trkpt><trkpt lat="45.84416" lon="9.192431"><time>2024-05-04T08:08:08.000Z</time><ele>1117.2</ele></trkpt><trkpt lat="45.84416" lon="9.192432"><time>2024-05-04T08:08:09.000Z</time><ele>1117.2</ele></trkpt><trkpt lat="45.84416" lon="9.192432"><time>2024-05-04T08:08:10.000Z</time><ele>1117.2</ele></trkpt><trkpt lat="45.84416" lon="9.192432"><time>2024-05-04T08:08:11.000Z</time><ele>1117.2</ele></trkpt><trkpt lat="45.84416" lon="9.192432"><time>2024-05-04T08:08:12.000Z</time><ele>1117.2</ele></trkpt><trkpt lat="45.84416" lon="9.192433"><time>2024-05-04T08:08:13.000Z</time><ele>1117.2</ele></trkpt><trkpt lat="45.84416" lon="9.192434"><time>2024-05-04T08:08:14.000Z</time><ele>1117.2</ele></trkpt><trkpt lat="45.84416" lon="9.192435"><time>2024-05-04T08:08:15.000Z</time><ele>1117.2</ele></trkpt><trkpt lat="45.84416" lon="9.192437"><time>2024-05-04T08:08:16.000Z</time><ele>1117.2</ele></trkpt><trkpt lat="45.844161" lon="9.192447"><time>2024-05-04T08:08:17.000Z</time><ele>1117.2</ele></trkpt><trkpt lat="45.844165" lon="9.192467"><time>2024-05-04T08:08:18.000Z</time><ele>1117.2</ele></trkpt><trkpt lat="45.844168" lon="9.192486"><time>2024-05-04T08:08:19.000Z</time><ele>1117.2</ele></trkpt><trkpt lat="45.844171" lon="9.192506"><time>2024-05-04T08:08:20.000Z</time><ele>1117.2</ele></trkpt><trkpt lat="45.844176" lon="9.19253"><time>2024-05-04T08:08:21.000Z</time><ele>1117.2</ele></trkpt><trkpt lat="45.84418" lon="9.192549"><time>2024-05-04T08:08:22.000Z</time><ele>1117.2</ele></trkpt><trkpt lat="45.844184" lon="9.19257"><time>2024-05-04T08:08:23.000Z</time><ele>1117.2</ele></trkpt><trkpt lat="45.844188" lon="9.192592"><time>2024-05-04T08:08:24.000Z</time><ele>1117.2</ele></trkpt><trkpt lat="45.844195" lon="9.192613"><time>2024-05-04T08:08:25.000Z</time><ele>1117.2</ele></trkpt><trkpt lat="45.844201" lon="9.192634"><time>2024-05-04T08:08:26.000Z</time><ele>1117.2</ele></trkpt><trkpt lat="45.844204" lon="9.192645"><time>2024-05-04T08:08:27.000Z</time><ele>1117.2</ele></trkpt><trkpt lat="45.844207" lon="9.192656"><time>2024-05-04T08:08:28.000Z</time><ele>1118</ele></trkpt><trkpt lat="45.84421" lon="9.192668"><time>2024-05-04T08:08:29.000Z</time><ele>1118.6</ele></trkpt><trkpt lat="45.844212" lon="9.192678"><time>2024-05-04T08:08:30.000Z</time><ele>1119</ele></trkpt><trkpt lat="45.844213" lon="9.192684"><time>2024-05-04T08:08:31.000Z</time><ele>1119.2</ele></trkpt><trkpt lat="45.844217" lon="9.192697"><time>2024-05-04T08:08:32.000Z</time><ele>1119.4</ele></trkpt><trkpt lat="45.844218" lon="9.192702"><time>2024-05-04T08:08:33.000Z</time><ele>1119.6</ele></trkpt><trkpt lat="45.84422" lon="9.19271"><time>2024-05-04T08:08:34.000Z</time><ele>1119.8</ele></trkpt><trkpt lat="45.844224" lon="9.192719"><time>2024-05-04T08:08:35.000Z</time><ele>1119.8</ele></trkpt><trkpt lat="45.844227" lon="9.192727"><time>2024-05-04T08:08:36.000Z</time><ele>1120</ele></trkpt><trkpt lat="45.84423" lon="9.192735"><time>2024-05-04T08:08:37.000Z</time><ele>1120.2</ele></trkpt><trkpt lat="45.844234" lon="9.192747"><time>2024-05-04T08:08:38.000Z</time><ele>1120.4</ele></trkpt><trkpt lat="45.844238" lon="9.192759"><time>2024-05-04T08:08:39.000Z</time><ele>1120.6</ele></trkpt><trkpt lat="45.844243" lon="9.192769"><time>2024-05-04T08:08:40.000Z</time><ele>1120.6</ele></trkpt><trkpt lat="45.844247" lon="9.192782"><time>2024-05-04T08:08:41.000Z</time><ele>1120.8</ele></trkpt><trkpt lat="45.844252" lon="9.192793"><time>2024-05-04T08:08:42.000Z</time><ele>1120.8</ele></trkpt><trkpt lat="45.844258" lon="9.192804"><time>2024-05-04T08:08:43.000Z</time><ele>1121</ele></trkpt><trkpt lat="45.844264" lon="9.19282"><time>2024-05-04T08:08:44.000Z</time><ele>1121.2</ele></trkpt><trkpt lat="45.84427" lon="9.192832"><time>2024-05-04T08:08:45.000Z</time><ele>1121.4</ele></trkpt><trkpt lat="45.844276" lon="9.192843"><time>2024-05-04T08:08:46.000Z</time><ele>1121.4</ele></trkpt><trkpt lat="45.84428" lon="9.192854"><time>2024-05-04T08:08:47.000Z</time><ele>1121.6</ele></trkpt><trkpt lat="45.844285" lon="9.192863"><time>2024-05-04T08:08:48.000Z</time><ele>1121.8</ele></trkpt><trkpt lat="45.844292" lon="9.192873"><time>2024-05-04T08:08:49.000Z</time><ele>1121.8</ele></trkpt><trkpt lat="45.844297" lon="9.192884"><time>2024-05-04T08:08:50.000Z</time><ele>1122</ele></trkpt><trkpt lat="45.844302" lon="9.192898"><time>2024-05-04T08:08:51.000Z</time><ele>1122</ele></trkpt><trkpt lat="45.844305" lon="9.192911"><time>2024-05-04T08:08:52.000Z</time><ele>1122</ele></trkpt><trkpt lat="45.84431" lon="9.192928"><time>2024-05-04T08:08:53.000Z</time><ele>1122</ele></trkpt><trkpt lat="45.844315" lon="9.192943"><time>2024-05-04T08:08:54.000Z</time><ele>1122</ele></trkpt><trkpt lat="45.844321" lon="9.192956"><time>2024-05-04T08:08:55.000Z</time><ele>1122</ele></trkpt><trkpt lat="45.844328" lon="9.192968"><time>2024-05-04T08:08:56.000Z</time><ele>1122.2</ele></trkpt><trkpt lat="45.844337" lon="9.192983"><time>2024-05-04T08:08:57.000Z</time><ele>1122.2</ele></trkpt><trkpt lat="45.844345" lon="9.192996"><time>2024-05-04T08:08:58.000Z</time><ele>1122.4</ele></trkpt><trkpt lat="45.844351" lon="9.193007"><time>2024-05-04T08:08:59.000Z</time><ele>1122.4</ele></trkpt><trkpt lat="45.844359" lon="9.193017"><time>2024-05-04T08:09:00.000Z</time><ele>1122.4</ele></trkpt><trkpt lat="45.844366" lon="9.193027"><time>2024-05-04T08:09:01.000Z</time><ele>1122.4</ele></trkpt><trkpt lat="45.844373" lon="9.193042"><time>2024-05-04T08:09:02.000Z</time><ele>1122.4</ele></trkpt><trkpt lat="45.844381" lon="9.193056"><time>2024-05-04T08:09:03.000Z</time><ele>1122.4</ele></trkpt><trkpt lat="45.844391" lon="9.193071"><time>2024-05-04T08:09:04.000Z</time><ele>1122.4</ele></trkpt><trkpt lat="45.844401" lon="9.19308"><time>2024-05-04T08:09:05.000Z</time><ele>1122.2</ele></trkpt><trkpt lat="45.844411" lon="9.193087"><time>2024-05-04T08:09:06.000Z</time><ele>1122.2</ele></trkpt><trkpt lat="45.844422" lon="9.19309"><time>2024-05-04T08:09:07.000Z</time><ele>1122.2</ele></trkpt><trkpt lat="45.844433" lon="9.193094"><time>2024-05-04T08:09:08.000Z</time><ele>1122.2</ele></trkpt><trkpt lat="45.844443" lon="9.193101"><time>2024-05-04T08:09:09.000Z</time><ele>1122.2</ele></trkpt><trkpt lat="45.844455" lon="9.193113"><time>2024-05-04T08:09:10.000Z</time><ele>1122</ele></trkpt><trkpt lat="45.844466" lon="9.19312"><time>2024-05-04T08:09:11.000Z</time><ele>1122</ele></trkpt><trkpt lat="45.844475" lon="9.193128"><time>2024-05-04T08:09:12.000Z</time><ele>1121.8</ele></trkpt><trkpt lat="45.844483" lon="9.193141"><time>2024-05-04T08:09:13.000Z</time><ele>1121.8</ele></trkpt><trkpt lat="45.844486" lon="9.193157"><time>2024-05-04T08:09:14.000Z</time><ele>1121.6</ele></trkpt><trkpt lat="45.844489" lon="9.193174"><time>2024-05-04T08:09:15.000Z</time><ele>1121.6</ele></trkpt><trkpt lat="45.844496" lon="9.193187"><time>2024-05-04T08:09:16.000Z</time><ele>1121.6</ele></trkpt><trkpt lat="45.844503" lon="9.1932"><time>2024-05-04T08:09:17.000Z</time><ele>1121.4</ele></trkpt><trkpt lat="45.844508" lon="9.193211"><time>2024-05-04T08:09:18.000Z</time><ele>1121.2</ele></trkpt><trkpt lat="45.844514" lon="9.193227"><time>2024-05-04T08:09:19.000Z</time><ele>1121.2</ele></trkpt><trkpt lat="45.844522" lon="9.193242"><time>2024-05-04T08:09:20.000Z</time><ele>1121</ele></trkpt><trkpt lat="45.844531" lon="9.193255"><time>2024-05-04T08:09:21.000Z</time><ele>1121</ele></trkpt><trkpt lat="45.844537" lon="9.193265"><time>2024-05-04T08:09:22.000Z</time><ele>1121</ele></trkpt><trkpt lat="45.844544" lon="9.193273"><time>2024-05-04T08:09:23.000Z</time><ele>1121.2</ele></trkpt><trkpt lat="45.844553" lon="9.193283"><time>2024-05-04T08:09:24.000Z</time><ele>1121.2</ele></trkpt><trkpt lat="45.844561" lon="9.193293"><time>2024-05-04T08:09:25.000Z</time><ele>1121.2</ele></trkpt><trkpt lat="45.84457" lon="9.193298"><time>2024-05-04T08:09:26.000Z</time><ele>1121.4</ele></trkpt><trkpt lat="45.84458" lon="9.193308"><time>2024-05-04T08:09:27.000Z</time><ele>1121.6</ele></trkpt><trkpt lat="45.844591" lon="9.19332"><time>2024-05-04T08:09:28.000Z</time><ele>1121.6</ele></trkpt><trkpt lat="45.844601" lon="9.193329"><time>2024-05-04T08:09:29.000Z</time><ele>1121.6</ele></trkpt><trkpt lat="45.84461" lon="9.193341"><time>2024-05-04T08:09:30.000Z</time><ele>1121.6</ele></trkpt><trkpt lat="45.844617" lon="9.193348"><time>2024-05-04T08:09:31.000Z</time><ele>1121.6</ele></trkpt><trkpt lat="45.844626" lon="9.193357"><time>2024-05-04T08:09:32.000Z</time><ele>1121.8</ele></trkpt><trkpt lat="45.844631" lon="9.193368"><time>2024-05-04T08:09:33.000Z</time><ele>1121.8</ele></trkpt><trkpt lat="45.844635" lon="9.193381"><time>2024-05-04T08:09:34.000Z</time><ele>1121.8</ele></trkpt><trkpt lat="45.844641" lon="9.193392"><time>2024-05-04T08:09:35.000Z</time><ele>1121.8</ele></trkpt><trkpt lat="45.844648" lon="9.193402"><time>2024-05-04T08:09:36.000Z</time><ele>1122</ele></trkpt><trkpt lat="45.844658" lon="9.193415"><time>2024-05-04T08:09:37.000Z</time><ele>1122.2</ele></trkpt><trkpt lat="45.844671" lon="9.19343"><time>2024-05-04T08:09:38.000Z</time><ele>1122.4</ele></trkpt><trkpt lat="45.844681" lon="9.193448"><time>2024-05-04T08:09:39.000Z</time><ele>1122.6</ele></trkpt><trkpt lat="45.844685" lon="9.193459"><time>2024-05-04T08:09:40.000Z</time><ele>1122.8</ele></trkpt><trkpt lat="45.844691" lon="9.193469"><time>2024-05-04T08:09:41.000Z</time><ele>1123</ele></trkpt><trkpt lat="45.844691" lon="9.193476"><time>2024-05-04T08:09:42.000Z</time><ele>1123.2</ele></trkpt><trkpt lat="45.844696" lon="9.193483"><time>2024-05-04T08:09:43.000Z</time><ele>1123.4</ele></trkpt><trkpt lat="45.844702" lon="9.193492"><time>2024-05-04T08:09:44.000Z</time><ele>1123.6</ele></trkpt><trkpt lat="45.844701" lon="9.193506"><time>2024-05-04T08:09:45.000Z</time><ele>1123.8</ele></trkpt><trkpt lat="45.844698" lon="9.193512"><time>2024-05-04T08:09:46.000Z</time><ele>1124</ele></trkpt><trkpt lat="45.844696" lon="9.193514"><time>2024-05-04T08:09:47.000Z</time><ele>1124.2</ele></trkpt><trkpt lat="45.844696" lon="9.193526"><time>2024-05-04T08:09:48.000Z</time><ele>1124.4</ele></trkpt><trkpt lat="45.844701" lon="9.193537"><time>2024-05-04T08:09:49.000Z</time><ele>1124.6</ele></trkpt><trkpt lat="45.844699" lon="9.193543"><time>2024-05-04T08:09:50.000Z</time><ele>1124.8</ele></trkpt><trkpt lat="45.844697" lon="9.193551"><time>2024-05-04T08:09:51.000Z</time><ele>1125.2</ele></trkpt><trkpt lat="45.844698" lon="9.193556"><time>2024-05-04T08:09:52.000Z</time><ele>1125.6</ele></trkpt><trkpt lat="45.8447" lon="9.193565"><time>2024-05-04T08:09:53.000Z</time><ele>1125.8</ele></trkpt><trkpt lat="45.844704" lon="9.19357"><time>2024-05-04T08:09:54.000Z</time><ele>1126</ele></trkpt><trkpt lat="45.844707" lon="9.193576"><time>2024-05-04T08:09:55.000Z</time><ele>1126.2</ele></trkpt><trkpt lat="45.844709" lon="9.193583"><time>2024-05-04T08:09:56.000Z</time><ele>1126.4</ele></trkpt><trkpt lat="45.844711" lon="9.19359"><time>2024-05-04T08:09:57.000Z</time><ele>1126.8</ele></trkpt><trkpt lat="45.844714" lon="9.193598"><time>2024-05-04T08:09:58.000Z</time><ele>1127</ele></trkpt><trkpt lat="45.84472" lon="9.193611"><time>2024-05-04T08:09:59.000Z</time><ele>1127.2</ele></trkpt><trkpt lat="45.844722" lon="9.193621"><time>2024-05-04T08:10:00.000Z</time><ele>1127.8</ele></trkpt><trkpt lat="45.844722" lon="9.193629"><time>2024-05-04T08:10:01.000Z</time><ele>1128</ele></trkpt><trkpt lat="45.844726" lon="9.193641"><time>2024-05-04T08:10:02.000Z</time><ele>1128.2</ele></trkpt><trkpt lat="45.844734" lon="9.19365"><time>2024-05-04T08:10:03.000Z</time><ele>1128.4</ele></trkpt><trkpt lat="45.844743" lon="9.193656"><time>2024-05-04T08:10:04.000Z</time><ele>1128.8</ele></trkpt><trkpt lat="45.844751" lon="9.193659"><time>2024-05-04T08:10:05.000Z</time><ele>1128.8</ele></trkpt><trkpt lat="45.844758" lon="9.19366"><time>2024-05-04T08:10:06.000Z</time><ele>1129.2</ele></trkpt><trkpt lat="45.844761" lon="9.19366"><time>2024-05-04T08:10:07.000Z</time><ele>1129.6</ele></trkpt><trkpt lat="45.844763" lon="9.193661"><time>2024-05-04T08:10:08.000Z</time><ele>1129.8</ele></trkpt><trkpt lat="45.844766" lon="9.193665"><time>2024-05-04T08:10:09.000Z</time><ele>1130</ele></trkpt><trkpt lat="45.84477" lon="9.193666"><time>2024-05-04T08:10:10.000Z</time><ele>1130.2</ele></trkpt><trkpt lat="45.844772" lon="9.193668"><time>2024-05-04T08:10:11.000Z</time><ele>1130.4</ele></trkpt><trkpt lat="45.844773" lon="9.193672"><time>2024-05-04T08:10:12.000Z</time><ele>1130.6</ele></trkpt><trkpt lat="45.844773" lon="9.193679"><time>2024-05-04T08:10:13.000Z</time><ele>1130.8</ele></trkpt><trkpt lat="45.844778" lon="9.193686"><time>2024-05-04T08:10:14.000Z</time><ele>1131</ele></trkpt><trkpt lat="45.844784" lon="9.193692"><time>2024-05-04T08:10:15.000Z</time><ele>1131</ele></trkpt><trkpt lat="45.844789" lon="9.193694"><time>2024-05-04T08:10:16.000Z</time><ele>1131</ele></trkpt><trkpt lat="45.844791" lon="9.193693"><time>2024-05-04T08:10:17.000Z</time><ele>1131.2</ele></trkpt><trkpt lat="45.844792" lon="9.193695"><time>2024-05-04T08:10:18.000Z</time><ele>1131.2</ele></trkpt><trkpt lat="45.844785" lon="9.193695"><time>2024-05-04T08:10:19.000Z</time><ele>1131.4</ele></trkpt><trkpt lat="45.844779" lon="9.193694"><time>2024-05-04T08:10:20.000Z</time><ele>1131.4</ele></trkpt><trkpt lat="45.844778" lon="9.193692"><time>2024-05-04T08:10:21.000Z</time><ele>1131.4</ele></trkpt><trkpt lat="45.844779" lon="9.193691"><time>2024-05-04T08:10:22.000Z</time><ele>1131.4</ele></trkpt><trkpt lat="45.844779" lon="9.193691"><time>2024-05-04T08:10:23.000Z</time><ele>1131.6</ele></trkpt><trkpt lat="45.844779" lon="9.193691"><time>2024-05-04T08:10:24.000Z</time><ele>1131.6</ele></trkpt><trkpt lat="45.844779" lon="9.193691"><time>2024-05-04T08:10:25.000Z</time><ele>1131.6</ele></trkpt><trkpt lat="45.844779" lon="9.193691"><time>2024-05-04T08:10:26.000Z</time><ele>1131.6</ele></trkpt><trkpt lat="45.844779" lon="9.193691"><time>2024-05-04T08:10:27.000Z</time><ele>1131.6</ele></trkpt><trkpt lat="45.844779" lon="9.193691"><time>2024-05-04T08:10:28.000Z</time><ele>1131.6</ele></trkpt><trkpt lat="45.844779" lon="9.193691"><time>2024-05-04T08:10:29.000Z</time><ele>1131.8</ele></trkpt><trkpt lat="45.844779" lon="9.193691"><time>2024-05-04T08:10:30.000Z</time><ele>1131.8</ele></trkpt><trkpt lat="45.844779" lon="9.193691"><time>2024-05-04T08:10:31.000Z</time><ele>1131.8</ele></trkpt><trkpt lat="45.844779" lon="9.193691"><time>2024-05-04T08:10:32.000Z</time><ele>1131.8</ele></trkpt><trkpt lat="45.844779" lon="9.193691"><time>2024-05-04T08:10:33.000Z</time><ele>1131.6</ele></trkpt><trkpt lat="45.844779" lon="9.193691"><time>2024-05-04T08:10:34.000Z</time><ele>1131.6</ele></trkpt><trkpt lat="45.844779" lon="9.193691"><time>2024-05-04T08:10:35.000Z</time><ele>1131.4</ele></trkpt><trkpt lat="45.844779" lon="9.193691"><time>2024-05-04T08:10:36.000Z</time><ele>1131.4</ele></trkpt><trkpt lat="45.844778" lon="9.193691"><time>2024-05-04T08:10:37.000Z</time><ele>1131.4</ele></trkpt><trkpt lat="45.844778" lon="9.193691"><time>2024-05-04T08:10:38.000Z</time><ele>1131.2</ele></trkpt><trkpt lat="45.844778" lon="9.193691"><time>2024-05-04T08:10:39.000Z</time><ele>1131.2</ele></trkpt><trkpt lat="45.844775" lon="9.193691"><time>2024-05-04T08:10:40.000Z</time><ele>1131.2</ele></trkpt><trkpt lat="45.844775" lon="9.193691"><time>2024-05-04T08:10:41.000Z</time><ele>1131.2</ele></trkpt><trkpt lat="45.844775" lon="9.19369"><time>2024-05-04T08:10:42.000Z</time><ele>1131.2</ele></trkpt><trkpt lat="45.844774" lon="9.193689"><time>2024-05-04T08:10:43.000Z</time><ele>1131.2</ele></trkpt><trkpt lat="45.844774" lon="9.193689"><time>2024-05-04T08:10:44.000Z</time><ele>1131.2</ele></trkpt><trkpt lat="45.844774" lon="9.193688"><time>2024-05-04T08:10:45.000Z</time><ele>1131.2</ele></trkpt><trkpt lat="45.844773" lon="9.193688"><time>2024-05-04T08:10:46.000Z</time><ele>1131.2</ele></trkpt><trkpt lat="45.844773" lon="9.193687"><time>2024-05-04T08:10:47.000Z</time><ele>1131.2</ele></trkpt><trkpt lat="45.844773" lon="9.193687"><time>2024-05-04T08:10:48.000Z</time><ele>1131</ele></trkpt><trkpt lat="45.844773" lon="9.193687"><time>2024-05-04T08:10:49.000Z</time><ele>1131</ele></trkpt><trkpt lat="45.844773" lon="9.193687"><time>2024-05-04T08:10:50.000Z</time><ele>1131</ele></trkpt><trkpt lat="45.844773" lon="9.193687"><time>2024-05-04T08:10:51.000Z</time><ele>1131</ele></trkpt><trkpt lat="45.844773" lon="9.193687"><time>2024-05-04T08:10:52.000Z</time><ele>1131</ele></trkpt><trkpt lat="45.844773" lon="9.193687"><time>2024-05-04T08:10:53.000Z</time><ele>1131</ele></trkpt><trkpt lat="45.844773" lon="9.193687"><time>2024-05-04T08:10:54.000Z</time><ele>1131</ele></trkpt><trkpt lat="45.844773" lon="9.193687"><time>2024-05-04T08:10:55.000Z</time><ele>1131</ele></trkpt><trkpt lat="45.844773" lon="9.193687"><time>2024-05-04T08:10:56.000Z</time><ele>1131</ele></trkpt><trkpt lat="45.844773" lon="9.193687"><time>2024-05-04T08:10:57.000Z</time><ele>1131</ele></trkpt><trkpt lat="45.844773" lon="9.193687"><time>2024-05-04T08:10:58.000Z</time><ele>1131</ele></trkpt><trkpt lat="45.844773" lon="9.193687"><time>2024-05-04T08:10:59.000Z</time><ele>1131</ele></trkpt><trkpt lat="45.844773" lon="9.193687"><time>2024-05-04T08:11:00.000Z</time><ele>1131</ele></trkpt><trkpt lat="45.844774" lon="9.193687"><time>2024-05-04T08:11:01.000Z</time><ele>1131</ele></trkpt><trkpt lat="45.844774" lon="9.193687"><time>2024-05-04T08:11:02.000Z</time><ele>1131</ele></trkpt><trkpt lat="45.844777" lon="9.193688"><time>2024-05-04T08:11:03.000Z</time><ele>1131</ele></trkpt><trkpt lat="45.844779" lon="9.193688"><time>2024-05-04T08:11:04.000Z</time><ele>1131.2</ele></trkpt><trkpt lat="45.84478" lon="9.193689"><time>2024-05-04T08:11:05.000Z</time><ele>1131.2</ele></trkpt><trkpt lat="45.844782" lon="9.193689"><time>2024-05-04T08:11:06.000Z</time><ele>1131.2</ele></trkpt><trkpt lat="45.844782" lon="9.193691"><time>2024-05-04T08:11:07.000Z</time><ele>1131.2</ele></trkpt><trkpt lat="45.844783" lon="9.193692"><time>2024-05-04T08:11:08.000Z</time><ele>1131.2</ele></trkpt><trkpt lat="45.844785" lon="9.193694"><time>2024-05-04T08:11:09.000Z</time><ele>1131.2</ele></trkpt><trkpt lat="45.844785" lon="9.193694"><time>2024-05-04T08:11:10.000Z</time><ele>1131.2</ele></trkpt><trkpt lat="45.844785" lon="9.193695"><time>2024-05-04T08:11:11.000Z</time><ele>1131.2</ele></trkpt><trkpt lat="45.844786" lon="9.193695"><time>2024-05-04T08:11:12.000Z</time><ele>1131.2</ele></trkpt><trkpt lat="45.844786" lon="9.193695"><time>2024-05-04T08:11:13.000Z</time><ele>1131.4</ele></trkpt><trkpt lat="45.844786" lon="9.193695"><time>2024-05-04T08:11:14.000Z</time><ele>1131.4</ele></trkpt><trkpt lat="45.844786" lon="9.193695"><time>2024-05-04T08:11:15.000Z</time><ele>1131.4</ele></trkpt><trkpt lat="45.844786" lon="9.193695"><time>2024-05-04T08:11:16.000Z</time><ele>1131.4</ele></trkpt><trkpt lat="45.844786" lon="9.193695"><time>2024-05-04T08:11:17.000Z</time><ele>1131.4</ele></trkpt><trkpt lat="45.844786" lon="9.193695"><time>2024-05-04T08:11:18.000Z</time><ele>1131.4</ele></trkpt><trkpt lat="45.844786" lon="9.193695"><time>2024-05-04T08:11:19.000Z</time><ele>1131.4</ele></trkpt><trkpt lat="45.844786" lon="9.193695"><time>2024-05-04T08:11:20.000Z</time><ele>1131.4</ele></trkpt><trkpt lat="45.844786" lon="9.193695"><time>2024-05-04T08:11:21.000Z</time><ele>1131.4</ele></trkpt><trkpt lat="45.844787" lon="9.193695"><time>2024-05-04T08:11:22.000Z</time><ele>1131.4</ele></trkpt><trkpt lat="45.844787" lon="9.193695"><time>2024-05-04T08:11:23.000Z</time><ele>1131.4</ele></trkpt><trkpt lat="45.844787" lon="9.193695"><time>2024-05-04T08:11:24.000Z</time><ele>1131.4</ele></trkpt><trkpt lat="45.844787" lon="9.193695"><time>2024-05-04T08:11:25.000Z</time><ele>1131.6</ele></trkpt><trkpt lat="45.844788" lon="9.193695"><time>2024-05-04T08:11:26.000Z</time><ele>1131.6</ele></trkpt><trkpt lat="45.844788" lon="9.193695"><time>2024-05-04T08:11:27.000Z</time><ele>1131.8</ele></trkpt><trkpt lat="45.844789" lon="9.193694"><time>2024-05-04T08:11:28.000Z</time><ele>1131.8</ele></trkpt><trkpt lat="45.84479" lon="9.193691"><time>2024-05-04T08:11:29.000Z</time><ele>1131.8</ele></trkpt><trkpt lat="45.844791" lon="9.193685"><time>2024-05-04T08:11:30.000Z</time><ele>1131.8</ele></trkpt><trkpt lat="45.844793" lon="9.19368"><time>2024-05-04T08:11:31.000Z</time><ele>1131.8</ele></trkpt><trkpt lat="45.844795" lon="9.193674"><time>2024-05-04T08:11:32.000Z</time><ele>1131.8</ele></trkpt><trkpt lat="45.844797" lon="9.193669"><time>2024-05-04T08:11:33.000Z</time><ele>1131.8</ele></trkpt><trkpt lat="45.844798" lon="9.193665"><time>2024-05-04T08:11:34.000Z</time><ele>1131.8</ele></trkpt><trkpt lat="45.844801" lon="9.193661"><time>2024-05-04T08:11:35.000Z</time><ele>1131</ele></trkpt><trkpt lat="45.844805" lon="9.193658"><time>2024-05-04T08:11:36.000Z</time><ele>1131</ele></trkpt><trkpt lat="45.844808" lon="9.193657"><time>2024-05-04T08:11:37.000Z</time><ele>1131</ele></trkpt><trkpt lat="45.844812" lon="9.193655"><time>2024-05-04T08:11:38.000Z</time><ele>1131</ele></trkpt><trkpt lat="45.844814" lon="9.193654"><time>2024-05-04T08:11:39.000Z</time><ele>1131</ele></trkpt><trkpt lat="45.844816" lon="9.193653"><time>2024-05-04T08:11:40.000Z</time><ele>1131</ele></trkpt><trkpt lat="45.844819" lon="9.193651"><time>2024-05-04T08:11:41.000Z</time><ele>1131</ele></trkpt><trkpt lat="45.844823" lon="9.193651"><time>2024-05-04T08:11:42.000Z</time><ele>1131</ele></trkpt><trkpt lat="45.844827" lon="9.19365"><time>2024-05-04T08:11:43.000Z</time><ele>1131</ele></trkpt><trkpt lat="45.844835" lon="9.19365"><time>2024-05-04T08:11:44.000Z</time><ele>1131</ele></trkpt><trkpt lat="45.844842" lon="9.193649"><time>2024-05-04T08:11:45.000Z</time><ele>1131</ele></trkpt><trkpt lat="45.844848" lon="9.193646"><time>2024-05-04T08:11:46.000Z</time><ele>1131</ele></trkpt><trkpt lat="45.844859" lon="9.193644"><time>2024-05-04T08:11:47.000Z</time><ele>1131</ele></trkpt><trkpt lat="45.844878" lon="9.19364"><time>2024-05-04T08:11:48.000Z</time><ele>1131</ele></trkpt><trkpt lat="45.844896" lon="9.193636"><time>2024-05-04T08:11:49.000Z</time><ele>1131</ele></trkpt><trkpt lat="45.844913" lon="9.19363"><time>2024-05-04T08:11:50.000Z</time><ele>1131</ele></trkpt><trkpt lat="45.84493" lon="9.193621"><time>2024-05-04T08:11:51.000Z</time><ele>1131</ele></trkpt><trkpt lat="45.844944" lon="9.193615"><time>2024-05-04T08:11:52.000Z</time><ele>1131</ele></trkpt><trkpt lat="45.844958" lon="9.19361"><time>2024-05-04T08:11:53.000Z</time><ele>1131</ele></trkpt><trkpt lat="45.844974" lon="9.193605"><time>2024-05-04T08:11:54.000Z</time><ele>1131</ele></trkpt><trkpt lat="45.844989" lon="9.193601"><time>2024-05-04T08:11:55.000Z</time><ele>1131</ele></trkpt><trkpt lat="45.845003" lon="9.193594"><time>2024-05-04T08:11:56.000Z</time><ele>1131</ele></trkpt><trkpt lat="45.845007" lon="9.193592"><time>2024-05-04T08:11:57.000Z</time><ele>1131</ele></trkpt><trkpt lat="45.845018" lon="9.193594"><time>2024-05-04T08:11:58.000Z</time><ele>1131</ele></trkpt><trkpt lat="45.845022" lon="9.193594"><time>2024-05-04T08:11:59.000Z</time><ele>1131</ele></trkpt><trkpt lat="45.845027" lon="9.193598"><time>2024-05-04T08:12:00.000Z</time><ele>1131</ele></trkpt><trkpt lat="45.84503" lon="9.193599"><time>2024-05-04T08:12:01.000Z</time><ele>1131</ele></trkpt><trkpt lat="45.845032" lon="9.193596"><time>2024-05-04T08:12:02.000Z</time><ele>1131</ele></trkpt><trkpt lat="45.845032" lon="9.19359"><time>2024-05-04T08:12:03.000Z</time><ele>1131</ele></trkpt><trkpt lat="45.845036" lon="9.19359"><time>2024-05-04T08:12:04.000Z</time><ele>1131</ele></trkpt><trkpt lat="45.84504" lon="9.193587"><time>2024-05-04T08:12:05.000Z</time><ele>1131</ele></trkpt><trkpt lat="45.845046" lon="9.193582"><time>2024-05-04T08:12:06.000Z</time><ele>1131</ele></trkpt><trkpt lat="45.845052" lon="9.193577"><time>2024-05-04T08:12:07.000Z</time><ele>1131</ele></trkpt><trkpt lat="45.845058" lon="9.193572"><time>2024-05-04T08:12:08.000Z</time><ele>1131</ele></trkpt><trkpt lat="45.845062" lon="9.193568"><time>2024-05-04T08:12:09.000Z</time><ele>1131</ele></trkpt><trkpt lat="45.845076" lon="9.193567"><time>2024-05-04T08:12:10.000Z</time><ele>1131</ele></trkpt><trkpt lat="45.845082" lon="9.193565"><time>2024-05-04T08:12:11.000Z</time><ele>1131</ele></trkpt><trkpt lat="45.845085" lon="9.193562"><time>2024-05-04T08:12:12.000Z</time><ele>1131</ele></trkpt><trkpt lat="45.845086" lon="9.193557"><time>2024-05-04T08:12:13.000Z</time><ele>1131</ele></trkpt><trkpt lat="45.84509" lon="9.193555"><time>2024-05-04T08:12:14.000Z</time><ele>1131</ele></trkpt><trkpt lat="45.845094" lon="9.193553"><time>2024-05-04T08:12:15.000Z</time><ele>1131</ele></trkpt><trkpt lat="45.845102" lon="9.193552"><time>2024-05-04T08:12:16.000Z</time><ele>1131</ele></trkpt><trkpt lat="45.845107" lon="9.19355"><time>2024-05-04T08:12:17.000Z</time><ele>1131</ele></trkpt><trkpt lat="45.845109" lon="9.193549"><time>2024-05-04T08:12:18.000Z</time><ele>1131</ele></trkpt><trkpt lat="45.845109" lon="9.193546"><time>2024-05-04T08:12:19.000Z</time><ele>1131</ele></trkpt><trkpt lat="45.845112" lon="9.193545"><time>2024-05-04T08:12:20.000Z</time><ele>1131</ele></trkpt><trkpt lat="45.845114" lon="9.193546"><time>2024-05-04T08:12:21.000Z</time><ele>1131</ele></trkpt><trkpt lat="45.845117" lon="9.193544"><time>2024-05-04T08:12:22.000Z</time><ele>1131</ele></trkpt><trkpt lat="45.845126" lon="9.193548"><time>2024-05-04T08:12:23.000Z</time><ele>1131</ele></trkpt><trkpt lat="45.845135" lon="9.193549"><time>2024-05-04T08:12:24.000Z</time><ele>1131</ele></trkpt><trkpt lat="45.845139" lon="9.193546"><time>2024-05-04T08:12:25.000Z</time><ele>1131</ele></trkpt><trkpt lat="45.845139" lon="9.193541"><time>2024-05-04T08:12:26.000Z</time><ele>1131</ele></trkpt><trkpt lat="45.845141" lon="9.193536"><time>2024-05-04T08:12:27.000Z</time><ele>1131</ele></trkpt><trkpt lat="45.845142" lon="9.193532"><time>2024-05-04T08:12:28.000Z</time><ele>1131</ele></trkpt><trkpt lat="45.845144" lon="9.193526"><time>2024-05-04T08:12:29.000Z</time><ele>1131</ele></trkpt><trkpt lat="45.845146" lon="9.193522"><time>2024-05-04T08:12:30.000Z</time><ele>1131</ele></trkpt><trkpt lat="45.845149" lon="9.193519"><time>2024-05-04T08:12:31.000Z</time><ele>1131</ele></trkpt><trkpt lat="45.845147" lon="9.193514"><time>2024-05-04T08:12:32.000Z</time><ele>1131</ele></trkpt><trkpt lat="45.845147" lon="9.19351"><time>2024-05-04T08:12:33.000Z</time><ele>1131</ele></trkpt><trkpt lat="45.845146" lon="9.193507"><time>2024-05-04T08:12:34.000Z</time><ele>1131</ele></trkpt><trkpt lat="45.845146" lon="9.193503"><time>2024-05-04T08:12:35.000Z</time><ele>1131</ele></trkpt><trkpt lat="45.845149" lon="9.193496"><time>2024-05-04T08:12:36.000Z</time><ele>1115.8</ele></trkpt><trkpt lat="45.845151" lon="9.193491"><time>2024-05-04T08:12:37.000Z</time><ele>1115.8</ele></trkpt><trkpt lat="45.845151" lon="9.193487"><time>2024-05-04T08:12:38.000Z</time><ele>1115.8</ele></trkpt><trkpt lat="45.84515" lon="9.193483"><time>2024-05-04T08:12:39.000Z</time><ele>1115.8</ele></trkpt><trkpt lat="45.845151" lon="9.193479"><time>2024-05-04T08:12:40.000Z</time><ele>1115.8</ele></trkpt><trkpt lat="45.845154" lon="9.193478"><time>2024-05-04T08:12:41.000Z</time><ele>1115.6</ele></trkpt><trkpt lat="45.84516" lon="9.193477"><time>2024-05-04T08:12:42.000Z</time><ele>1115.4</ele></trkpt><trkpt lat="45.845162" lon="9.193476"><time>2024-05-04T08:12:43.000Z</time><ele>1115.2</ele></trkpt><trkpt lat="45.845159" lon="9.193476"><time>2024-05-04T08:12:44.000Z</time><ele>1115</ele></trkpt><trkpt lat="45.845157" lon="9.193479"><time>2024-05-04T08:12:45.000Z</time><ele>1114.8</ele></trkpt><trkpt lat="45.845164" lon="9.193481"><time>2024-05-04T08:12:46.000Z</time><ele>1114.6</ele></trkpt><trkpt lat="45.845166" lon="9.193477"><time>2024-05-04T08:12:47.000Z</time><ele>1114.4</ele></trkpt><trkpt lat="45.845163" lon="9.193466"><time>2024-05-04T08:12:48.000Z</time><ele>1114.2</ele></trkpt><trkpt lat="45.845162" lon="9.193463"><time>2024-05-04T08:12:49.000Z</time><ele>1113.8</ele></trkpt><trkpt lat="45.845162" lon="9.193463"><time>2024-05-04T08:12:50.000Z</time><ele>1113.6</ele></trkpt><trkpt lat="45.845164" lon="9.193465"><time>2024-05-04T08:12:51.000Z</time><ele>1113.4</ele></trkpt><trkpt lat="45.84517" lon="9.19347"><time>2024-05-04T08:12:52.000Z</time><ele>1113.2</ele></trkpt><trkpt lat="45.845174" lon="9.193471"><time>2024-05-04T08:12:53.000Z</time><ele>1113</ele></trkpt><trkpt lat="45.845181" lon="9.193479"><time>2024-05-04T08:12:54.000Z</time><ele>1113</ele></trkpt><trkpt lat="45.845184" lon="9.193479"><time>2024-05-04T08:12:55.000Z</time><ele>1112.6</ele></trkpt><trkpt lat="45.845192" lon="9.19348"><time>2024-05-04T08:12:56.000Z</time><ele>1112.2</ele></trkpt><trkpt lat="45.8452" lon="9.19348"><time>2024-05-04T08:12:57.000Z</time><ele>1111.8</ele></trkpt><trkpt lat="45.845204" lon="9.193481"><time>2024-05-04T08:12:58.000Z</time><ele>1111.4</ele></trkpt><trkpt lat="45.845216" lon="9.193479"><time>2024-05-04T08:12:59.000Z</time><ele>1111.2</ele></trkpt><trkpt lat="45.845219" lon="9.19348"><time>2024-05-04T08:13:00.000Z</time><ele>1111</ele></trkpt><trkpt lat="45.84523" lon="9.193478"><time>2024-05-04T08:13:01.000Z</time><ele>1110.8</ele></trkpt><trkpt lat="45.845233" lon="9.193478"><time>2024-05-04T08:13:02.000Z</time><ele>1110.6</ele></trkpt><trkpt lat="45.845247" lon="9.193485"><time>2024-05-04T08:13:03.000Z</time><ele>1110.2</ele></trkpt><trkpt lat="45.845258" lon="9.193489"><time>2024-05-04T08:13:04.000Z</time><ele>1110</ele></trkpt><trkpt lat="45.845262" lon="9.193489"><time>2024-05-04T08:13:05.000Z</time><ele>1109.8</ele></trkpt><trkpt lat="45.845268" lon="9.193485"><time>2024-05-04T08:13:06.000Z</time><ele>1109.6</ele></trkpt><trkpt lat="45.845275" lon="9.19348"><time>2024-05-04T08:13:07.000Z</time><ele>1109.2</ele></trkpt><trkpt lat="45.845283" lon="9.193475"><time>2024-05-04T08:13:08.000Z</time><ele>1109</ele></trkpt><trkpt lat="45.845296" lon="9.193467"><time>2024-05-04T08:13:09.000Z</time><ele>1108.8</ele></trkpt><trkpt lat="45.845303" lon="9.19346"><time>2024-05-04T08:13:10.000Z</time><ele>1108.4</ele></trkpt><trkpt lat="45.845309" lon="9.193455"><time>2024-05-04T08:13:11.000Z</time><ele>1108.2</ele></trkpt><trkpt lat="45.845312" lon="9.193445"><time>2024-05-04T08:13:12.000Z</time><ele>1108.2</ele></trkpt><trkpt lat="45.845319" lon="9.193439"><time>2024-05-04T08:13:13.000Z</time><ele>1107.8</ele></trkpt><trkpt lat="45.84533" lon="9.193433"><time>2024-05-04T08:13:14.000Z</time><ele>1107.6</ele></trkpt><trkpt lat="45.845331" lon="9.193428"><time>2024-05-04T08:13:15.000Z</time><ele>1107.4</ele></trkpt><trkpt lat="45.845332" lon="9.193424"><time>2024-05-04T08:13:16.000Z</time><ele>1107.4</ele></trkpt><trkpt lat="45.845334" lon="9.19342"><time>2024-05-04T08:13:17.000Z</time><ele>1107.2</ele></trkpt><trkpt lat="45.845334" lon="9.19342"><time>2024-05-04T08:13:18.000Z</time><ele>1107</ele></trkpt><trkpt lat="45.845325" lon="9.19341"><time>2024-05-04T08:13:19.000Z</time><ele>1106.6</ele></trkpt><trkpt lat="45.845322" lon="9.193403"><time>2024-05-04T08:13:20.000Z</time><ele>1106.4</ele></trkpt><trkpt lat="45.845325" lon="9.1934"><time>2024-05-04T08:13:21.000Z</time><ele>1106.2</ele></trkpt><trkpt lat="45.845334" lon="9.193395"><time>2024-05-04T08:13:22.000Z</time><ele>1106</ele></trkpt><trkpt lat="45.845344" lon="9.193389"><time>2024-05-04T08:13:23.000Z</time><ele>1105.6</ele></trkpt><trkpt lat="45.845358" lon="9.193385"><time>2024-05-04T08:13:24.000Z</time><ele>1105.2</ele></trkpt><trkpt lat="45.845372" lon="9.193386"><time>2024-05-04T08:13:25.000Z</time><ele>1105</ele></trkpt><trkpt lat="45.845376" lon="9.193387"><time>2024-05-04T08:13:26.000Z</time><ele>1104.8</ele></trkpt><trkpt lat="45.845384" lon="9.193387"><time>2024-05-04T08:13:27.000Z</time><ele>1104.6</ele></trkpt><trkpt lat="45.8454" lon="9.193394"><time>2024-05-04T08:13:28.000Z</time><ele>1104.2</ele></trkpt><trkpt lat="45.845409" lon="9.193393"><time>2024-05-04T08:13:29.000Z</time><ele>1104</ele></trkpt><trkpt lat="45.84543" lon="9.193399"><time>2024-05-04T08:13:30.000Z</time><ele>1103.8</ele></trkpt><trkpt lat="45.845452" lon="9.193415"><time>2024-05-04T08:13:31.000Z</time><ele>1103.6</ele></trkpt><trkpt lat="45.845467" lon="9.193421"><time>2024-05-04T08:13:32.000Z</time><ele>1103.4</ele></trkpt><trkpt lat="45.845477" lon="9.193422"><time>2024-05-04T08:13:33.000Z</time><ele>1103</ele></trkpt><trkpt lat="45.845487" lon="9.193419"><time>2024-05-04T08:13:34.000Z</time><ele>1103</ele></trkpt><trkpt lat="45.845501" lon="9.193419"><time>2024-05-04T08:13:35.000Z</time><ele>1102.6</ele></trkpt><trkpt lat="45.845504" lon="9.193419"><time>2024-05-04T08:13:36.000Z</time><ele>1102.6</ele></trkpt><trkpt lat="45.845504" lon="9.19342"><time>2024-05-04T08:13:37.000Z</time><ele>1102.2</ele></trkpt><trkpt lat="45.845503" lon="9.193419"><time>2024-05-04T08:13:38.000Z</time><ele>1102</ele></trkpt><trkpt lat="45.845503" lon="9.193419"><time>2024-05-04T08:13:39.000Z</time><ele>1102</ele></trkpt><trkpt lat="45.845503" lon="9.193417"><time>2024-05-04T08:13:40.000Z</time><ele>1101.6</ele></trkpt><trkpt lat="45.845514" lon="9.193416"><time>2024-05-04T08:13:41.000Z</time><ele>1101.2</ele></trkpt><trkpt lat="45.845514" lon="9.193414"><time>2024-05-04T08:13:42.000Z</time><ele>1100.8</ele></trkpt><trkpt lat="45.845518" lon="9.19341"><time>2024-05-04T08:13:43.000Z</time><ele>1100.6</ele></trkpt><trkpt lat="45.845517" lon="9.193409"><time>2024-05-04T08:13:44.000Z</time><ele>1100.4</ele></trkpt><trkpt lat="45.845517" lon="9.193411"><time>2024-05-04T08:13:45.000Z</time><ele>1100.4</ele></trkpt><trkpt lat="45.845525" lon="9.19342"><time>2024-05-04T08:13:46.000Z</time><ele>1100.2</ele></trkpt><trkpt lat="45.84554" lon="9.19343"><time>2024-05-04T08:13:47.000Z</time><ele>1100</ele></trkpt><trkpt lat="45.845555" lon="9.19344"><time>2024-05-04T08:13:48.000Z</time><ele>1099.6</ele></trkpt><trkpt lat="45.845557" lon="9.193444"><time>2024-05-04T08:13:49.000Z</time><ele>1099.2</ele></trkpt><trkpt lat="45.845567" lon="9.193451"><time>2024-05-04T08:13:50.000Z</time><ele>1099</ele></trkpt><trkpt lat="45.845574" lon="9.193451"><time>2024-05-04T08:13:51.000Z</time><ele>1098.6</ele></trkpt><trkpt lat="45.845582" lon="9.193451"><time>2024-05-04T08:13:52.000Z</time><ele>1098.4</ele></trkpt><trkpt lat="45.845583" lon="9.193453"><time>2024-05-04T08:13:53.000Z</time><ele>1098.2</ele></trkpt><trkpt lat="45.845583" lon="9.193454"><time>2024-05-04T08:13:54.000Z</time><ele>1098</ele></trkpt><trkpt lat="45.845583" lon="9.193453"><time>2024-05-04T08:13:55.000Z</time><ele>1097.6</ele></trkpt><trkpt lat="45.845581" lon="9.193453"><time>2024-05-04T08:13:56.000Z</time><ele>1097.4</ele></trkpt><trkpt lat="45.845582" lon="9.193453"><time>2024-05-04T08:13:57.000Z</time><ele>1097.2</ele></trkpt><trkpt lat="45.845588" lon="9.193457"><time>2024-05-04T08:13:58.000Z</time><ele>1097.2</ele></trkpt><trkpt lat="45.845593" lon="9.19346"><time>2024-05-04T08:13:59.000Z</time><ele>1097</ele></trkpt><trkpt lat="45.845599" lon="9.193463"><time>2024-05-04T08:14:00.000Z</time><ele>1096.8</ele></trkpt><trkpt lat="45.845608" lon="9.193469"><time>2024-05-04T08:14:01.000Z</time><ele>1096.4</ele></trkpt><trkpt lat="45.845612" lon="9.193469"><time>2024-05-04T08:14:02.000Z</time><ele>1096.2</ele></trkpt><trkpt lat="45.845616" lon="9.19347"><time>2024-05-04T08:14:03.000Z</time><ele>1095.8</ele></trkpt><trkpt lat="45.84562" lon="9.193468"><time>2024-05-04T08:14:04.000Z</time><ele>1095.4</ele></trkpt><trkpt lat="45.845623" lon="9.193464"><time>2024-05-04T08:14:05.000Z</time><ele>1095.2</ele></trkpt><trkpt lat="45.845625" lon="9.193462"><time>2024-05-04T08:14:06.000Z</time><ele>1094.8</ele></trkpt><trkpt lat="45.845626" lon="9.19346"><time>2024-05-04T08:14:07.000Z</time><ele>1094.8</ele></trkpt><trkpt lat="45.845625" lon="9.193458"><time>2024-05-04T08:14:08.000Z</time><ele>1094.4</ele></trkpt><trkpt lat="45.84563" lon="9.193458"><time>2024-05-04T08:14:09.000Z</time><ele>1094.2</ele></trkpt><trkpt lat="45.845636" lon="9.193458"><time>2024-05-04T08:14:10.000Z</time><ele>1094</ele></trkpt><trkpt lat="45.845639" lon="9.193457"><time>2024-05-04T08:14:11.000Z</time><ele>1093.6</ele></trkpt><trkpt lat="45.845641" lon="9.193453"><time>2024-05-04T08:14:12.000Z</time><ele>1093.4</ele></trkpt><trkpt lat="45.845642" lon="9.193451"><time>2024-05-04T08:14:13.000Z</time><ele>1093.2</ele></trkpt><trkpt lat="45.845647" lon="9.19345"><time>2024-05-04T08:14:14.000Z</time><ele>1092.8</ele></trkpt><trkpt lat="45.845658" lon="9.193453"><time>2024-05-04T08:14:15.000Z</time><ele>1092.8</ele></trkpt><trkpt lat="45.845673" lon="9.193455"><time>2024-05-04T08:14:16.000Z</time><ele>1092.4</ele></trkpt><trkpt lat="45.845689" lon="9.193455"><time>2024-05-04T08:14:17.000Z</time><ele>1092.2</ele></trkpt><trkpt lat="45.845701" lon="9.193454"><time>2024-05-04T08:14:18.000Z</time><ele>1092</ele></trkpt><trkpt lat="45.845711" lon="9.193454"><time>2024-05-04T08:14:19.000Z</time><ele>1091.6</ele></trkpt><trkpt lat="45.845718" lon="9.193451"><time>2024-05-04T08:14:20.000Z</time><ele>1091.4</ele></trkpt><trkpt lat="45.845722" lon="9.193449"><time>2024-05-04T08:14:21.000Z</time><ele>1091</ele></trkpt><trkpt lat="45.845723" lon="9.193446"><time>2024-05-04T08:14:22.000Z</time><ele>1090.6</ele></trkpt><trkpt lat="45.845726" lon="9.193442"><time>2024-05-04T08:14:23.000Z</time><ele>1090.4</ele></trkpt><trkpt lat="45.845733" lon="9.193437"><time>2024-05-04T08:14:24.000Z</time><ele>1090.2</ele></trkpt><trkpt lat="45.845739" lon="9.193434"><time>2024-05-04T08:14:25.000Z</time><ele>1090</ele></trkpt><trkpt lat="45.845743" lon="9.19343"><time>2024-05-04T08:14:26.000Z</time><ele>1089.6</ele></trkpt><trkpt lat="45.845747" lon="9.193429"><time>2024-05-04T08:14:27.000Z</time><ele>1089.4</ele></trkpt><trkpt lat="45.84575" lon="9.19343"><time>2024-05-04T08:14:28.000Z</time><ele>1089</ele></trkpt><trkpt lat="45.845758" lon="9.193435"><time>2024-05-04T08:14:29.000Z</time><ele>1088.8</ele></trkpt><trkpt lat="45.845765" lon="9.193442"><time>2024-05-04T08:14:30.000Z</time><ele>1088.6</ele></trkpt><trkpt lat="45.845777" lon="9.193449"><time>2024-05-04T08:14:31.000Z</time><ele>1088.4</ele></trkpt><trkpt lat="45.845789" lon="9.193455"><time>2024-05-04T08:14:32.000Z</time><ele>1088</ele></trkpt><trkpt lat="45.845806" lon="9.193457"><time>2024-05-04T08:14:33.000Z</time><ele>1087.8</ele></trkpt><trkpt lat="45.84581" lon="9.193459"><time>2024-05-04T08:14:34.000Z</time><ele>1087.4</ele></trkpt><trkpt lat="45.845813" lon="9.19346"><time>2024-05-04T08:14:35.000Z</time><ele>1087.2</ele></trkpt><trkpt lat="45.845821" lon="9.193461"><time>2024-05-04T08:14:36.000Z</time><ele>1087</ele></trkpt><trkpt lat="45.845828" lon="9.193463"><time>2024-05-04T08:14:37.000Z</time><ele>1086.8</ele></trkpt><trkpt lat="45.845835" lon="9.193464"><time>2024-05-04T08:14:38.000Z</time><ele>1086.4</ele></trkpt><trkpt lat="45.845846" lon="9.193466"><time>2024-05-04T08:14:39.000Z</time><ele>1086.2</ele></trkpt><trkpt lat="45.845862" lon="9.193468"><time>2024-05-04T08:14:40.000Z</time><ele>1086</ele></trkpt><trkpt lat="45.845876" lon="9.19347"><time>2024-05-04T08:14:41.000Z</time><ele>1085.8</ele></trkpt><trkpt lat="45.845886" lon="9.193471"><time>2024-05-04T08:14:42.000Z</time><ele>1085.6</ele></trkpt><trkpt lat="45.845899" lon="9.193469"><time>2024-05-04T08:14:43.000Z</time><ele>1085.2</ele></trkpt><trkpt lat="45.845905" lon="9.193467"><time>2024-05-04T08:14:44.000Z</time><ele>1084.8</ele></trkpt><trkpt lat="45.845906" lon="9.193463"><time>2024-05-04T08:14:45.000Z</time><ele>1084.6</ele></trkpt><trkpt lat="45.845911" lon="9.193458"><time>2024-05-04T08:14:46.000Z</time><ele>1084.2</ele></trkpt><trkpt lat="45.845919" lon="9.193452"><time>2024-05-04T08:14:47.000Z</time><ele>1084</ele></trkpt><trkpt lat="45.845932" lon="9.193447"><time>2024-05-04T08:14:48.000Z</time><ele>1083.8</ele></trkpt><trkpt lat="45.845943" lon="9.193447"><time>2024-05-04T08:14:49.000Z</time><ele>1083.6</ele></trkpt><trkpt lat="45.845946" lon="9.193448"><time>2024-05-04T08:14:50.000Z</time><ele>1083.4</ele></trkpt><trkpt lat="45.84595" lon="9.193451"><time>2024-05-04T08:14:51.000Z</time><ele>1083.2</ele></trkpt><trkpt lat="45.845952" lon="9.19345"><time>2024-05-04T08:14:52.000Z</time><ele>1083</ele></trkpt><trkpt lat="45.84596" lon="9.193448"><time>2024-05-04T08:14:53.000Z</time><ele>1082.8</ele></trkpt><trkpt lat="45.845964" lon="9.193447"><time>2024-05-04T08:14:54.000Z</time><ele>1082.6</ele></trkpt><trkpt lat="45.845975" lon="9.193449"><time>2024-05-04T08:14:55.000Z</time><ele>1082.6</ele></trkpt><trkpt lat="45.845989" lon="9.193448"><time>2024-05-04T08:14:56.000Z</time><ele>1082.2</ele></trkpt><trkpt lat="45.846001" lon="9.193444"><time>2024-05-04T08:14:57.000Z</time><ele>1082</ele></trkpt><trkpt lat="45.846002" lon="9.193441"><time>2024-05-04T08:14:58.000Z</time><ele>1081.4</ele></trkpt><trkpt lat="45.846014" lon="9.193444"><time>2024-05-04T08:14:59.000Z</time><ele>1081.2</ele></trkpt><trkpt lat="45.846024" lon="9.193446"><time>2024-05-04T08:15:00.000Z</time><ele>1080.8</ele></trkpt><trkpt lat="45.846034" lon="9.193453"><time>2024-05-04T08:15:01.000Z</time><ele>1080.4</ele></trkpt><trkpt lat="45.846048" lon="9.193457"><time>2024-05-04T08:15:02.000Z</time><ele>1080.2</ele></trkpt><trkpt lat="45.84605" lon="9.193457"><time>2024-05-04T08:15:03.000Z</time><ele>1080</ele></trkpt><trkpt lat="45.846049" lon="9.193453"><time>2024-05-04T08:15:04.000Z</time><ele>1079.8</ele></trkpt><trkpt lat="45.846048" lon="9.193452"><time>2024-05-04T08:15:05.000Z</time><ele>1079.8</ele></trkpt><trkpt lat="45.846047" lon="9.193453"><time>2024-05-04T08:15:06.000Z</time><ele>1079.6</ele></trkpt><trkpt lat="45.846047" lon="9.193454"><time>2024-05-04T08:15:07.000Z</time><ele>1079.6</ele></trkpt><trkpt lat="45.846048" lon="9.193453"><time>2024-05-04T08:15:08.000Z</time><ele>1079.6</ele></trkpt><trkpt lat="45.846047" lon="9.193451"><time>2024-05-04T08:15:09.000Z</time><ele>1079.6</ele></trkpt><trkpt lat="45.846041" lon="9.19345"><time>2024-05-04T08:15:10.000Z</time><ele>1079.6</ele></trkpt><trkpt lat="45.846044" lon="9.193453"><time>2024-05-04T08:15:11.000Z</time><ele>1079.6</ele></trkpt><trkpt lat="45.846047" lon="9.193452"><time>2024-05-04T08:15:12.000Z</time><ele>1079.6</ele></trkpt><trkpt lat="45.84605" lon="9.193452"><time>2024-05-04T08:15:13.000Z</time><ele>1079.4</ele></trkpt><trkpt lat="45.846051" lon="9.193453"><time>2024-05-04T08:15:14.000Z</time><ele>1079.4</ele></trkpt><trkpt lat="45.846053" lon="9.193452"><time>2024-05-04T08:15:15.000Z</time><ele>1079.4</ele></trkpt><trkpt lat="45.84605" lon="9.193449"><time>2024-05-04T08:15:16.000Z</time><ele>1079.2</ele></trkpt><trkpt lat="45.84605" lon="9.193449"><time>2024-05-04T08:15:17.000Z</time><ele>1079</ele></trkpt><trkpt lat="45.846049" lon="9.193448"><time>2024-05-04T08:15:18.000Z</time><ele>1078.8</ele></trkpt><trkpt lat="45.84605" lon="9.193447"><time>2024-05-04T08:15:19.000Z</time><ele>1078.6</ele></trkpt><trkpt lat="45.846056" lon="9.193449"><time>2024-05-04T08:15:20.000Z</time><ele>1078.6</ele></trkpt><trkpt lat="45.846066" lon="9.193453"><time>2024-05-04T08:15:21.000Z</time><ele>1078.4</ele></trkpt><trkpt lat="45.846083" lon="9.193454"><time>2024-05-04T08:15:22.000Z</time><ele>1078.2</ele></trkpt><trkpt lat="45.846097" lon="9.193455"><time>2024-05-04T08:15:23.000Z</time><ele>1078.2</ele></trkpt><trkpt lat="45.846103" lon="9.193456"><time>2024-05-04T08:15:24.000Z</time><ele>1078.2</ele></trkpt><trkpt lat="45.846115" lon="9.193462"><time>2024-05-04T08:15:25.000Z</time><ele>1078.2</ele></trkpt><trkpt lat="45.846125" lon="9.193465"><time>2024-05-04T08:15:26.000Z</time><ele>1078</ele></trkpt><trkpt lat="45.84613" lon="9.193466"><time>2024-05-04T08:15:27.000Z</time><ele>1077.8</ele></trkpt><trkpt lat="45.846135" lon="9.193465"><time>2024-05-04T08:15:28.000Z</time><ele>1077.8</ele></trkpt><trkpt lat="45.846135" lon="9.193466"><time>2024-05-04T08:15:29.000Z</time><ele>1077.6</ele></trkpt><trkpt lat="45.846134" lon="9.193467"><time>2024-05-04T08:15:30.000Z</time><ele>1077.6</ele></trkpt><trkpt lat="45.846133" lon="9.193468"><time>2024-05-04T08:15:31.000Z</time><ele>1077.6</ele></trkpt><trkpt lat="45.846133" lon="9.193468"><time>2024-05-04T08:15:32.000Z</time><ele>1077.6</ele></trkpt><trkpt lat="45.846131" lon="9.193466"><time>2024-05-04T08:15:33.000Z</time><ele>1077.6</ele></trkpt><trkpt lat="45.846131" lon="9.193461"><time>2024-05-04T08:15:34.000Z</time><ele>1077.6</ele></trkpt><trkpt lat="45.846143" lon="9.193456"><time>2024-05-04T08:15:35.000Z</time><ele>1077.6</ele></trkpt><trkpt lat="45.846154" lon="9.19345"><time>2024-05-04T08:15:36.000Z</time><ele>1077.6</ele></trkpt><trkpt lat="45.846169" lon="9.193444"><time>2024-05-04T08:15:37.000Z</time><ele>1077.4</ele></trkpt><trkpt lat="45.846181" lon="9.19344"><time>2024-05-04T08:15:38.000Z</time><ele>1077.2</ele></trkpt><trkpt lat="45.846197" lon="9.193436"><time>2024-05-04T08:15:39.000Z</time><ele>1077.2</ele></trkpt><trkpt lat="45.846211" lon="9.193434"><time>2024-05-04T08:15:40.000Z</time><ele>1077.2</ele></trkpt><trkpt lat="45.846221" lon="9.193432"><time>2024-05-04T08:15:41.000Z</time><ele>1077.2</ele></trkpt><trkpt lat="45.846229" lon="9.19343"><time>2024-05-04T08:15:42.000Z</time><ele>1077.2</ele></trkpt><trkpt lat="45.846241" lon="9.193428"><time>2024-05-04T08:15:43.000Z</time><ele>1077.2</ele></trkpt><trkpt lat="45.846255" lon="9.193426"><time>2024-05-04T08:15:44.000Z</time><ele>1077.2</ele></trkpt><trkpt lat="45.846272" lon="9.193428"><time>2024-05-04T08:15:45.000Z</time><ele>1077.2</ele></trkpt><trkpt lat="45.846288" lon="9.193434"><time>2024-05-04T08:15:46.000Z</time><ele>1077.2</ele></trkpt><trkpt lat="45.846304" lon="9.193433"><time>2024-05-04T08:15:47.000Z</time><ele>1077.2</ele></trkpt><trkpt lat="45.846316" lon="9.193425"><time>2024-05-04T08:15:48.000Z</time><ele>1077.2</ele></trkpt><trkpt lat="45.846323" lon="9.193413"><time>2024-05-04T08:15:49.000Z</time><ele>1077.2</ele></trkpt><trkpt lat="45.846324" lon="9.193399"><time>2024-05-04T08:15:50.000Z</time><ele>1077.2</ele></trkpt><trkpt lat="45.846329" lon="9.193386"><time>2024-05-04T08:15:51.000Z</time><ele>1077.2</ele></trkpt><trkpt lat="45.846334" lon="9.193383"><time>2024-05-04T08:15:52.000Z</time><ele>1077.2</ele></trkpt><trkpt lat="45.846347" lon="9.193389"><time>2024-05-04T08:15:53.000Z</time><ele>1077.2</ele></trkpt><trkpt lat="45.846358" lon="9.193392"><time>2024-05-04T08:15:54.000Z</time><ele>1077.2</ele></trkpt><trkpt lat="45.846364" lon="9.193382"><time>2024-05-04T08:15:55.000Z</time><ele>1077.2</ele></trkpt><trkpt lat="45.846375" lon="9.193381"><time>2024-05-04T08:15:56.000Z</time><ele>1077.2</ele></trkpt><trkpt lat="45.846386" lon="9.193382"><time>2024-05-04T08:15:57.000Z</time><ele>1077.2</ele></trkpt><trkpt lat="45.846402" lon="9.193385"><time>2024-05-04T08:15:58.000Z</time><ele>1077.2</ele></trkpt><trkpt lat="45.846417" lon="9.193377"><time>2024-05-04T08:15:59.000Z</time><ele>1077.2</ele></trkpt><trkpt lat="45.84644" lon="9.19337"><time>2024-05-04T08:16:00.000Z</time><ele>1077.2</ele></trkpt><trkpt lat="45.846457" lon="9.193372"><time>2024-05-04T08:16:01.000Z</time><ele>1077.2</ele></trkpt><trkpt lat="45.846466" lon="9.193358"><time>2024-05-04T08:16:02.000Z</time><ele>1077.2</ele></trkpt><trkpt lat="45.846478" lon="9.193351"><time>2024-05-04T08:16:03.000Z</time><ele>1077.2</ele></trkpt><trkpt lat="45.846488" lon="9.193347"><time>2024-05-04T08:16:04.000Z</time><ele>1077</ele></trkpt><trkpt lat="45.846505" lon="9.193341"><time>2024-05-04T08:16:05.000Z</time><ele>1077</ele></trkpt><trkpt lat="45.846521" lon="9.193327"><time>2024-05-04T08:16:06.000Z</time><ele>1077</ele></trkpt><trkpt lat="45.846538" lon="9.193314"><time>2024-05-04T08:16:07.000Z</time><ele>1077</ele></trkpt><trkpt lat="45.846552" lon="9.193304"><time>2024-05-04T08:16:08.000Z</time><ele>1077</ele></trkpt><trkpt lat="45.846565" lon="9.193299"><time>2024-05-04T08:16:09.000Z</time><ele>1076.8</ele></trkpt><trkpt lat="45.846574" lon="9.19329"><time>2024-05-04T08:16:10.000Z</time><ele>1076.8</ele></trkpt><trkpt lat="45.846587" lon="9.193279"><time>2024-05-04T08:16:11.000Z</time><ele>1076.8</ele></trkpt><trkpt lat="45.8466" lon="9.19327"><time>2024-05-04T08:16:12.000Z</time><ele>1076.8</ele></trkpt><trkpt lat="45.846615" lon="9.19326"><time>2024-05-04T08:16:13.000Z</time><ele>1076.6</ele></trkpt><trkpt lat="45.84663" lon="9.193248"><time>2024-05-04T08:16:14.000Z</time><ele>1076.6</ele></trkpt><trkpt lat="45.846645" lon="9.193238"><time>2024-05-04T08:16:15.000Z</time><ele>1076.6</ele></trkpt><trkpt lat="45.846652" lon="9.19323"><time>2024-05-04T08:16:16.000Z</time><ele>1076.4</ele></trkpt><trkpt lat="45.846657" lon="9.19322"><time>2024-05-04T08:16:17.000Z</time><ele>1076.4</ele></trkpt><trkpt lat="45.846669" lon="9.193215"><time>2024-05-04T08:16:18.000Z</time><ele>1076.2</ele></trkpt><trkpt lat="45.846678" lon="9.193206"><time>2024-05-04T08:16:19.000Z</time><ele>1076.2</ele></trkpt><trkpt lat="45.846688" lon="9.193198"><time>2024-05-04T08:16:20.000Z</time><ele>1076</ele></trkpt><trkpt lat="45.846698" lon="9.193195"><time>2024-05-04T08:16:21.000Z</time><ele>1076</ele></trkpt><trkpt lat="45.846709" lon="9.193189"><time>2024-05-04T08:16:22.000Z</time><ele>1076</ele></trkpt><trkpt lat="45.84672" lon="9.193189"><time>2024-05-04T08:16:23.000Z</time><ele>1075.8</ele></trkpt><trkpt lat="45.846734" lon="9.193189"><time>2024-05-04T08:16:24.000Z</time><ele>1075.8</ele></trkpt><trkpt lat="45.846744" lon="9.193184"><time>2024-05-04T08:16:25.000Z</time><ele>1075.8</ele></trkpt><trkpt lat="45.84675" lon="9.193176"><time>2024-05-04T08:16:26.000Z</time><ele>1075.8</ele></trkpt><trkpt lat="45.846758" lon="9.193165"><time>2024-05-04T08:16:27.000Z</time><ele>1075.6</ele></trkpt><trkpt lat="45.84677" lon="9.193156"><time>2024-05-04T08:16:28.000Z</time><ele>1075.6</ele></trkpt><trkpt lat="45.846787" lon="9.193147"><time>2024-05-04T08:16:29.000Z</time><ele>1075.6</ele></trkpt><trkpt lat="45.846805" lon="9.193144"><time>2024-05-04T08:16:30.000Z</time><ele>1075.4</ele></trkpt><trkpt lat="45.846824" lon="9.193141"><time>2024-05-04T08:16:31.000Z</time><ele>1075.2</ele></trkpt><trkpt lat="45.846843" lon="9.193139"><time>2024-05-04T08:16:32.000Z</time><ele>1075.2</ele></trkpt><trkpt lat="45.846851" lon="9.193132"><time>2024-05-04T08:16:33.000Z</time><ele>1075.2</ele></trkpt><trkpt lat="45.846864" lon="9.193126"><time>2024-05-04T08:16:34.000Z</time><ele>1075</ele></trkpt><trkpt lat="45.846874" lon="9.193119"><time>2024-05-04T08:16:35.000Z</time><ele>1075</ele></trkpt><trkpt lat="45.846885" lon="9.19311"><time>2024-05-04T08:16:36.000Z</time><ele>1074.8</ele></trkpt><trkpt lat="45.8469" lon="9.193108"><time>2024-05-04T08:16:37.000Z</time><ele>1074.8</ele></trkpt><trkpt lat="45.846916" lon="9.193106"><time>2024-05-04T08:16:38.000Z</time><ele>1074.6</ele></trkpt><trkpt lat="45.846931" lon="9.193101"><time>2024-05-04T08:16:39.000Z</time><ele>1074.6</ele></trkpt><trkpt lat="45.846942" lon="9.193097"><time>2024-05-04T08:16:40.000Z</time><ele>1074.4</ele></trkpt><trkpt lat="45.846951" lon="9.193091"><time>2024-05-04T08:16:41.000Z</time><ele>1074.4</ele></trkpt><trkpt lat="45.846962" lon="9.193087"><time>2024-05-04T08:16:42.000Z</time><ele>1074.4</ele></trkpt><trkpt lat="45.846976" lon="9.193087"><time>2024-05-04T08:16:43.000Z</time><ele>1074.2</ele></trkpt><trkpt lat="45.846987" lon="9.193088"><time>2024-05-04T08:16:44.000Z</time><ele>1074.2</ele></trkpt><trkpt lat="45.846998" lon="9.193091"><time>2024-05-04T08:16:45.000Z</time><ele>1074.2</ele></trkpt><trkpt lat="45.847021" lon="9.193094"><time>2024-05-04T08:16:46.000Z</time><ele>1074</ele></trkpt><trkpt lat="45.847039" lon="9.193099"><time>2024-05-04T08:16:47.000Z</time><ele>1074</ele></trkpt><trkpt lat="45.84706" lon="9.193103"><time>2024-05-04T08:16:48.000Z</time><ele>1074</ele></trkpt><trkpt lat="45.847079" lon="9.193107"><time>2024-05-04T08:16:49.000Z</time><ele>1074</ele></trkpt><trkpt lat="45.847092" lon="9.193108"><time>2024-05-04T08:16:50.000Z</time><ele>1074</ele></trkpt><trkpt lat="45.847103" lon="9.193099"><time>2024-05-04T08:16:51.000Z</time><ele>1074</ele></trkpt><trkpt lat="45.847115" lon="9.193092"><time>2024-05-04T08:16:52.000Z</time><ele>1074</ele></trkpt><trkpt lat="45.847137" lon="9.193092"><time>2024-05-04T08:16:53.000Z</time><ele>1073.8</ele></trkpt><trkpt lat="45.847157" lon="9.193093"><time>2024-05-04T08:16:54.000Z</time><ele>1073.8</ele></trkpt><trkpt lat="45.847165" lon="9.193089"><time>2024-05-04T08:16:55.000Z</time><ele>1073.8</ele></trkpt><trkpt lat="45.847176" lon="9.193087"><time>2024-05-04T08:16:56.000Z</time><ele>1073.8</ele></trkpt><trkpt lat="45.847188" lon="9.19308"><time>2024-05-04T08:16:57.000Z</time><ele>1073.8</ele></trkpt><trkpt lat="45.847205" lon="9.193071"><time>2024-05-04T08:16:58.000Z</time><ele>1073.8</ele></trkpt><trkpt lat="45.847221" lon="9.193063"><time>2024-05-04T08:16:59.000Z</time><ele>1073.8</ele></trkpt><trkpt lat="45.847236" lon="9.193055"><time>2024-05-04T08:17:00.000Z</time><ele>1073.8</ele></trkpt><trkpt lat="45.84725" lon="9.19305"><time>2024-05-04T08:17:01.000Z</time><ele>1073.8</ele></trkpt><trkpt lat="45.84726" lon="9.193046"><time>2024-05-04T08:17:02.000Z</time><ele>1073.8</ele></trkpt><trkpt lat="45.847269" lon="9.193043"><time>2024-05-04T08:17:03.000Z</time><ele>1074</ele></trkpt><trkpt lat="45.847281" lon="9.193039"><time>2024-05-04T08:17:04.000Z</time><ele>1074</ele></trkpt><trkpt lat="45.847296" lon="9.193032"><time>2024-05-04T08:17:05.000Z</time><ele>1074</ele></trkpt><trkpt lat="45.847311" lon="9.193026"><time>2024-05-04T08:17:06.000Z</time><ele>1074</ele></trkpt><trkpt lat="45.847323" lon="9.193022"><time>2024-05-04T08:17:07.000Z</time><ele>1074</ele></trkpt><trkpt lat="45.847338" lon="9.193016"><time>2024-05-04T08:17:08.000Z</time><ele>1074.2</ele></trkpt><trkpt lat="45.847352" lon="9.19301"><time>2024-05-04T08:17:09.000Z</time><ele>1074.2</ele></trkpt><trkpt lat="45.847366" lon="9.193003"><time>2024-05-04T08:17:10.000Z</time><ele>1074.2</ele></trkpt><trkpt lat="45.847379" lon="9.192995"><time>2024-05-04T08:17:11.000Z</time><ele>1074.4</ele></trkpt><trkpt lat="45.847393" lon="9.192987"><time>2024-05-04T08:17:12.000Z</time><ele>1074.4</ele></trkpt><trkpt lat="45.847398" lon="9.192983"><time>2024-05-04T08:17:13.000Z</time><ele>1074.4</ele></trkpt><trkpt lat="45.847419" lon="9.192985"><time>2024-05-04T08:17:14.000Z</time><ele>1074.4</ele></trkpt><trkpt lat="45.847431" lon="9.192981"><time>2024-05-04T08:17:15.000Z</time><ele>1074.4</ele></trkpt><trkpt lat="45.847435" lon="9.192976"><time>2024-05-04T08:17:16.000Z</time><ele>1074.4</ele></trkpt><trkpt lat="45.847442" lon="9.192962"><time>2024-05-04T08:17:17.000Z</time><ele>1074.6</ele></trkpt><trkpt lat="45.847447" lon="9.192953"><time>2024-05-04T08:17:18.000Z</time><ele>1074.6</ele></trkpt><trkpt lat="45.847451" lon="9.192944"><time>2024-05-04T08:17:19.000Z</time><ele>1074.8</ele></trkpt><trkpt lat="45.847454" lon="9.192935"><time>2024-05-04T08:17:20.000Z</time><ele>1075</ele></trkpt><trkpt lat="45.84746" lon="9.19292"><time>2024-05-04T08:17:21.000Z</time><ele>1075</ele></trkpt><trkpt lat="45.847473" lon="9.192911"><time>2024-05-04T08:17:22.000Z</time><ele>1075.2</ele></trkpt><trkpt lat="45.847493" lon="9.192904"><time>2024-05-04T08:17:23.000Z</time><ele>1075.2</ele></trkpt><trkpt lat="45.847505" lon="9.192899"><time>2024-05-04T08:17:24.000Z</time><ele>1075.4</ele></trkpt><trkpt lat="45.847524" lon="9.192895"><time>2024-05-04T08:17:25.000Z</time><ele>1075.4</ele></trkpt><trkpt lat="45.847543" lon="9.192887"><time>2024-05-04T08:17:26.000Z</time><ele>1075.4</ele></trkpt><trkpt lat="45.847559" lon="9.19288"><time>2024-05-04T08:17:27.000Z</time><ele>1075.4</ele></trkpt><trkpt lat="45.847578" lon="9.192871"><time>2024-05-04T08:17:28.000Z</time><ele>1075.4</ele></trkpt><trkpt lat="45.847592" lon="9.192863"><time>2024-05-04T08:17:29.000Z</time><ele>1075.6</ele></trkpt><trkpt lat="45.847601" lon="9.192845"><time>2024-05-04T08:17:30.000Z</time><ele>1075.6</ele></trkpt><trkpt lat="45.847618" lon="9.192825"><time>2024-05-04T08:17:31.000Z</time><ele>1075.6</ele></trkpt><trkpt lat="45.847629" lon="9.192799"><time>2024-05-04T08:17:32.000Z</time><ele>1075.6</ele></trkpt><trkpt lat="45.847644" lon="9.192791"><time>2024-05-04T08:17:33.000Z</time><ele>1075.6</ele></trkpt><trkpt lat="45.847662" lon="9.192789"><time>2024-05-04T08:17:34.000Z</time><ele>1075.6</ele></trkpt><trkpt lat="45.847678" lon="9.192782"><time>2024-05-04T08:17:35.000Z</time><ele>1075.6</ele></trkpt><trkpt lat="45.84769" lon="9.192766"><time>2024-05-04T08:17:36.000Z</time><ele>1075.6</ele></trkpt><trkpt lat="45.847698" lon="9.192748"><time>2024-05-04T08:17:37.000Z</time><ele>1075.8</ele></trkpt><trkpt lat="45.847716" lon="9.192733"><time>2024-05-04T08:17:38.000Z</time><ele>1075.8</ele></trkpt><trkpt lat="45.847739" lon="9.192723"><time>2024-05-04T08:17:39.000Z</time><ele>1076</ele></trkpt><trkpt lat="45.84775" lon="9.192712"><time>2024-05-04T08:17:40.000Z</time><ele>1076</ele></trkpt><trkpt lat="45.847771" lon="9.192703"><time>2024-05-04T08:17:41.000Z</time><ele>1076</ele></trkpt><trkpt lat="45.847783" lon="9.192686"><time>2024-05-04T08:17:42.000Z</time><ele>1076</ele></trkpt><trkpt lat="45.847796" lon="9.192668"><time>2024-05-04T08:17:43.000Z</time><ele>1076.2</ele></trkpt><trkpt lat="45.847805" lon="9.192653"><time>2024-05-04T08:17:44.000Z</time><ele>1076.2</ele></trkpt><trkpt lat="45.847815" lon="9.192638"><time>2024-05-04T08:17:45.000Z</time><ele>1076.2</ele></trkpt><trkpt lat="45.847835" lon="9.192632"><time>2024-05-04T08:17:46.000Z</time><ele>1076.2</ele></trkpt><trkpt lat="45.847848" lon="9.192628"><time>2024-05-04T08:17:47.000Z</time><ele>1076.4</ele></trkpt><trkpt lat="45.847858" lon="9.19263"><time>2024-05-04T08:17:48.000Z</time><ele>1076.4</ele></trkpt><trkpt lat="45.847858" lon="9.192627"><time>2024-05-04T08:17:49.000Z</time><ele>1076.4</ele></trkpt><trkpt lat="45.847863" lon="9.192619"><time>2024-05-04T08:17:50.000Z</time><ele>1076.4</ele></trkpt><trkpt lat="45.847865" lon="9.192619"><time>2024-05-04T08:17:51.000Z</time><ele>1076.4</ele></trkpt><trkpt lat="45.847875" lon="9.192619"><time>2024-05-04T08:17:52.000Z</time><ele>1076.4</ele></trkpt><trkpt lat="45.847887" lon="9.192616"><time>2024-05-04T08:17:53.000Z</time><ele>1076.4</ele></trkpt><trkpt lat="45.847902" lon="9.19262"><time>2024-05-04T08:17:54.000Z</time><ele>1076.4</ele></trkpt><trkpt lat="45.847908" lon="9.192622"><time>2024-05-04T08:17:55.000Z</time><ele>1076.4</ele></trkpt><trkpt lat="45.847915" lon="9.192617"><time>2024-05-04T08:17:56.000Z</time><ele>1076.4</ele></trkpt><trkpt lat="45.847925" lon="9.192617"><time>2024-05-04T08:17:57.000Z</time><ele>1076.4</ele></trkpt><trkpt lat="45.847936" lon="9.192621"><time>2024-05-04T08:17:58.000Z</time><ele>1076.2</ele></trkpt><trkpt lat="45.847945" lon="9.192626"><time>2024-05-04T08:17:59.000Z</time><ele>1076.2</ele></trkpt><trkpt lat="45.847955" lon="9.192629"><time>2024-05-04T08:18:00.000Z</time><ele>1076.2</ele></trkpt><trkpt lat="45.84796" lon="9.19263"><time>2024-05-04T08:18:01.000Z</time><ele>1076</ele></trkpt><trkpt lat="45.847962" lon="9.192635"><time>2024-05-04T08:18:02.000Z</time><ele>1076</ele></trkpt><trkpt lat="45.847965" lon="9.192641"><time>2024-05-04T08:18:03.000Z</time><ele>1076</ele></trkpt><trkpt lat="45.84797" lon="9.192646"><time>2024-05-04T08:18:04.000Z</time><ele>1075.8</ele></trkpt><trkpt lat="45.847982" lon="9.192653"><time>2024-05-04T08:18:05.000Z</time><ele>1075.8</ele></trkpt><trkpt lat="45.847992" lon="9.192658"><time>2024-05-04T08:18:06.000Z</time><ele>1075.6</ele></trkpt><trkpt lat="45.848003" lon="9.192662"><time>2024-05-04T08:18:07.000Z</time><ele>1075.4</ele></trkpt><trkpt lat="45.848021" lon="9.192664"><time>2024-05-04T08:18:08.000Z</time><ele>1075.4</ele></trkpt><trkpt lat="45.848035" lon="9.192672"><time>2024-05-04T08:18:09.000Z</time><ele>1075.2</ele></trkpt><trkpt lat="45.848053" lon="9.192691"><time>2024-05-04T08:18:10.000Z</time><ele>1075.2</ele></trkpt><trkpt lat="45.848066" lon="9.192696"><time>2024-05-04T08:18:11.000Z</time><ele>1075.2</ele></trkpt><trkpt lat="45.848078" lon="9.192701"><time>2024-05-04T08:18:12.000Z</time><ele>1075.2</ele></trkpt><trkpt lat="45.848089" lon="9.192708"><time>2024-05-04T08:18:13.000Z</time><ele>1075.2</ele></trkpt><trkpt lat="45.848098" lon="9.19272"><time>2024-05-04T08:18:14.000Z</time><ele>1075.2</ele></trkpt><trkpt lat="45.848114" lon="9.192729"><time>2024-05-04T08:18:15.000Z</time><ele>1075.2</ele></trkpt><trkpt lat="45.84812" lon="9.192738"><time>2024-05-04T08:18:16.000Z</time><ele>1075.2</ele></trkpt><trkpt lat="45.848132" lon="9.192752"><time>2024-05-04T08:18:17.000Z</time><ele>1075.2</ele></trkpt><trkpt lat="45.848144" lon="9.192767"><time>2024-05-04T08:18:18.000Z</time><ele>1075.2</ele></trkpt><trkpt lat="45.848159" lon="9.192782"><time>2024-05-04T08:18:19.000Z</time><ele>1075.2</ele></trkpt><trkpt lat="45.84817" lon="9.192796"><time>2024-05-04T08:18:20.000Z</time><ele>1075.2</ele></trkpt><trkpt lat="45.848184" lon="9.192807"><time>2024-05-04T08:18:21.000Z</time><ele>1075.2</ele></trkpt><trkpt lat="45.848201" lon="9.192817"><time>2024-05-04T08:18:22.000Z</time><ele>1075.2</ele></trkpt><trkpt lat="45.848215" lon="9.192824"><time>2024-05-04T08:18:23.000Z</time><ele>1075.2</ele></trkpt><trkpt lat="45.848231" lon="9.192833"><time>2024-05-04T08:18:24.000Z</time><ele>1075.2</ele></trkpt><trkpt lat="45.848247" lon="9.192839"><time>2024-05-04T08:18:25.000Z</time><ele>1075.2</ele></trkpt><trkpt lat="45.848262" lon="9.192837"><time>2024-05-04T08:18:26.000Z</time><ele>1075.2</ele></trkpt><trkpt lat="45.848276" lon="9.192843"><time>2024-05-04T08:18:27.000Z</time><ele>1075.2</ele></trkpt><trkpt lat="45.848288" lon="9.192852"><time>2024-05-04T08:18:28.000Z</time><ele>1075.2</ele></trkpt><trkpt lat="45.848301" lon="9.192863"><time>2024-05-04T08:18:29.000Z</time><ele>1075.2</ele></trkpt><trkpt lat="45.848311" lon="9.192868"><time>2024-05-04T08:18:30.000Z</time><ele>1075.4</ele></trkpt><trkpt lat="45.848314" lon="9.192868"><time>2024-05-04T08:18:31.000Z</time><ele>1075.4</ele></trkpt><trkpt lat="45.848323" lon="9.192875"><time>2024-05-04T08:18:32.000Z</time><ele>1075.4</ele></trkpt><trkpt lat="45.848335" lon="9.192892"><time>2024-05-04T08:18:33.000Z</time><ele>1075.4</ele></trkpt><trkpt lat="45.848349" lon="9.192898"><time>2024-05-04T08:18:34.000Z</time><ele>1075.4</ele></trkpt><trkpt lat="45.848371" lon="9.192909"><time>2024-05-04T08:18:35.000Z</time><ele>1075.4</ele></trkpt><trkpt lat="45.848389" lon="9.192913"><time>2024-05-04T08:18:36.000Z</time><ele>1075.6</ele></trkpt><trkpt lat="45.848394" lon="9.192916"><time>2024-05-04T08:18:37.000Z</time><ele>1075.6</ele></trkpt><trkpt lat="45.848407" lon="9.192914"><time>2024-05-04T08:18:38.000Z</time><ele>1075.6</ele></trkpt><trkpt lat="45.848418" lon="9.192914"><time>2024-05-04T08:18:39.000Z</time><ele>1075.6</ele></trkpt><trkpt lat="45.848439" lon="9.192917"><time>2024-05-04T08:18:40.000Z</time><ele>1075.6</ele></trkpt><trkpt lat="45.848445" lon="9.192915"><time>2024-05-04T08:18:41.000Z</time><ele>1075.6</ele></trkpt><trkpt lat="45.848455" lon="9.19292"><time>2024-05-04T08:18:42.000Z</time><ele>1075.6</ele></trkpt><trkpt lat="45.848474" lon="9.192926"><time>2024-05-04T08:18:43.000Z</time><ele>1075.6</ele></trkpt><trkpt lat="45.848486" lon="9.192927"><time>2024-05-04T08:18:44.000Z</time><ele>1075.6</ele></trkpt><trkpt lat="45.848495" lon="9.192922"><time>2024-05-04T08:18:45.000Z</time><ele>1075.6</ele></trkpt><trkpt lat="45.848505" lon="9.192916"><time>2024-05-04T08:18:46.000Z</time><ele>1075.8</ele></trkpt><trkpt lat="45.84851" lon="9.192907"><time>2024-05-04T08:18:47.000Z</time><ele>1075.8</ele></trkpt><trkpt lat="45.84852" lon="9.192893"><time>2024-05-04T08:18:48.000Z</time><ele>1075.8</ele></trkpt><trkpt lat="45.848533" lon="9.192884"><time>2024-05-04T08:18:49.000Z</time><ele>1076</ele></trkpt><trkpt lat="45.848549" lon="9.192879"><time>2024-05-04T08:18:50.000Z</time><ele>1076</ele></trkpt><trkpt lat="45.848561" lon="9.192874"><time>2024-05-04T08:18:51.000Z</time><ele>1076</ele></trkpt><trkpt lat="45.84857" lon="9.192874"><time>2024-05-04T08:18:52.000Z</time><ele>1076.2</ele></trkpt><trkpt lat="45.848581" lon="9.192873"><time>2024-05-04T08:18:53.000Z</time><ele>1076.2</ele></trkpt><trkpt lat="45.848593" lon="9.19287"><time>2024-05-04T08:18:54.000Z</time><ele>1076.2</ele></trkpt><trkpt lat="45.848606" lon="9.192868"><time>2024-05-04T08:18:55.000Z</time><ele>1076.4</ele></trkpt><trkpt lat="45.848618" lon="9.192871"><time>2024-05-04T08:18:56.000Z</time><ele>1076.4</ele></trkpt><trkpt lat="45.848632" lon="9.192872"><time>2024-05-04T08:18:57.000Z</time><ele>1076.6</ele></trkpt><trkpt lat="45.848645" lon="9.192866"><time>2024-05-04T08:18:58.000Z</time><ele>1076.6</ele></trkpt><trkpt lat="45.848655" lon="9.192866"><time>2024-05-04T08:18:59.000Z</time><ele>1076.8</ele></trkpt><trkpt lat="45.848666" lon="9.192862"><time>2024-05-04T08:19:00.000Z</time><ele>1076.8</ele></trkpt><trkpt lat="45.848676" lon="9.19286"><time>2024-05-04T08:19:01.000Z</time><ele>1077</ele></trkpt><trkpt lat="45.848684" lon="9.192856"><time>2024-05-04T08:19:02.000Z</time><ele>1077</ele></trkpt><trkpt lat="45.848694" lon="9.192844"><time>2024-05-04T08:19:03.000Z</time><ele>1077.2</ele></trkpt><trkpt lat="45.848709" lon="9.192832"><time>2024-05-04T08:19:04.000Z</time><ele>1077.2</ele></trkpt><trkpt lat="45.848719" lon="9.192825"><time>2024-05-04T08:19:05.000Z</time><ele>1077.4</ele></trkpt><trkpt lat="45.848727" lon="9.192819"><time>2024-05-04T08:19:06.000Z</time><ele>1077.6</ele></trkpt><trkpt lat="45.848737" lon="9.192813"><time>2024-05-04T08:19:07.000Z</time><ele>1077.6</ele></trkpt><trkpt lat="45.848742" lon="9.192806"><time>2024-05-04T08:19:08.000Z</time><ele>1077.8</ele></trkpt><trkpt lat="45.848751" lon="9.192805"><time>2024-05-04T08:19:09.000Z</time><ele>1078</ele></trkpt><trkpt lat="45.848768" lon="9.192807"><time>2024-05-04T08:19:10.000Z</time><ele>1078.2</ele></trkpt><trkpt lat="45.848785" lon="9.192805"><time>2024-05-04T08:19:11.000Z</time><ele>1078.2</ele></trkpt><trkpt lat="45.848793" lon="9.192799"><time>2024-05-04T08:19:12.000Z</time><ele>1078.4</ele></trkpt><trkpt lat="45.848799" lon="9.19279"><time>2024-05-04T08:19:13.000Z</time><ele>1078.4</ele></trkpt><trkpt lat="45.848809" lon="9.192784"><time>2024-05-04T08:19:14.000Z</time><ele>1078.6</ele></trkpt><trkpt lat="45.848816" lon="9.19278"><time>2024-05-04T08:19:15.000Z</time><ele>1078.6</ele></trkpt><trkpt lat="45.848828" lon="9.192774"><time>2024-05-04T08:19:16.000Z</time><ele>1078.6</ele></trkpt><trkpt lat="45.848839" lon="9.192768"><time>2024-05-04T08:19:17.000Z</time><ele>1078.8</ele></trkpt><trkpt lat="45.848852" lon="9.192766"><time>2024-05-04T08:19:18.000Z</time><ele>1078.8</ele></trkpt><trkpt lat="45.848863" lon="9.192761"><time>2024-05-04T08:19:19.000Z</time><ele>1079</ele></trkpt><trkpt lat="45.848873" lon="9.192757"><time>2024-05-04T08:19:20.000Z</time><ele>1079</ele></trkpt><trkpt lat="45.848887" lon="9.192756"><time>2024-05-04T08:19:21.000Z</time><ele>1079</ele></trkpt><trkpt lat="45.848899" lon="9.192759"><time>2024-05-04T08:19:22.000Z</time><ele>1079.2</ele></trkpt><trkpt lat="45.848908" lon="9.192762"><time>2024-05-04T08:19:23.000Z</time><ele>1079.2</ele></trkpt><trkpt lat="45.84892" lon="9.192764"><time>2024-05-04T08:19:24.000Z</time><ele>1079.4</ele></trkpt><trkpt lat="45.848933" lon="9.192765"><time>2024-05-04T08:19:25.000Z</time><ele>1079.8</ele></trkpt><trkpt lat="45.848943" lon="9.192766"><time>2024-05-04T08:19:26.000Z</time><ele>1079.8</ele></trkpt><trkpt lat="45.848952" lon="9.192768"><time>2024-05-04T08:19:27.000Z</time><ele>1080</ele></trkpt><trkpt lat="45.848964" lon="9.192767"><time>2024-05-04T08:19:28.000Z</time><ele>1080</ele></trkpt><trkpt lat="45.848975" lon="9.192767"><time>2024-05-04T08:19:29.000Z</time><ele>1080.2</ele></trkpt><trkpt lat="45.848982" lon="9.192769"><time>2024-05-04T08:19:30.000Z</time><ele>1080.6</ele></trkpt><trkpt lat="45.848989" lon="9.192769"><time>2024-05-04T08:19:31.000Z</time><ele>1080.8</ele></trkpt><trkpt lat="45.849" lon="9.192771"><time>2024-05-04T08:19:32.000Z</time><ele>1081</ele></trkpt><trkpt lat="45.849011" lon="9.192777"><time>2024-05-04T08:19:33.000Z</time><ele>1081.2</ele></trkpt><trkpt lat="45.849019" lon="9.192781"><time>2024-05-04T08:19:34.000Z</time><ele>1081.4</ele></trkpt><trkpt lat="45.849025" lon="9.192783"><time>2024-05-04T08:19:35.000Z</time><ele>1081.4</ele></trkpt><trkpt lat="45.849037" lon="9.192779"><time>2024-05-04T08:19:36.000Z</time><ele>1081.6</ele></trkpt><trkpt lat="45.849052" lon="9.192778"><time>2024-05-04T08:19:37.000Z</time><ele>1081.8</ele></trkpt><trkpt lat="45.849065" lon="9.19278"><time>2024-05-04T08:19:38.000Z</time><ele>1081.8</ele></trkpt><trkpt lat="45.849077" lon="9.192787"><time>2024-05-04T08:19:39.000Z</time><ele>1082</ele></trkpt><trkpt lat="45.849088" lon="9.192794"><time>2024-05-04T08:19:40.000Z</time><ele>1082.2</ele></trkpt><trkpt lat="45.849097" lon="9.192798"><time>2024-05-04T08:19:41.000Z</time><ele>1082.4</ele></trkpt><trkpt lat="45.849107" lon="9.192798"><time>2024-05-04T08:19:42.000Z</time><ele>1082.6</ele></trkpt><trkpt lat="45.849119" lon="9.192795"><time>2024-05-04T08:19:43.000Z</time><ele>1082.8</ele></trkpt><trkpt lat="45.849133" lon="9.192788"><time>2024-05-04T08:19:44.000Z</time><ele>1083</ele></trkpt><trkpt lat="45.849145" lon="9.192784"><time>2024-05-04T08:19:45.000Z</time><ele>1083.2</ele></trkpt><trkpt lat="45.849157" lon="9.192782"><time>2024-05-04T08:19:46.000Z</time><ele>1083.4</ele></trkpt><trkpt lat="45.84917" lon="9.192781"><time>2024-05-04T08:19:47.000Z</time><ele>1083.6</ele></trkpt><trkpt lat="45.849178" lon="9.19278"><time>2024-05-04T08:19:48.000Z</time><ele>1083.6</ele></trkpt><trkpt lat="45.849185" lon="9.19278"><time>2024-05-04T08:19:49.000Z</time><ele>1083.8</ele></trkpt><trkpt lat="45.849193" lon="9.192784"><time>2024-05-04T08:19:50.000Z</time><ele>1083.8</ele></trkpt><trkpt lat="45.849205" lon="9.192793"><time>2024-05-04T08:19:51.000Z</time><ele>1084</ele></trkpt><trkpt lat="45.849217" lon="9.192795"><time>2024-05-04T08:19:52.000Z</time><ele>1084.2</ele></trkpt><trkpt lat="45.849227" lon="9.192794"><time>2024-05-04T08:19:53.000Z</time><ele>1084.4</ele></trkpt><trkpt lat="45.849235" lon="9.192792"><time>2024-05-04T08:19:54.000Z</time><ele>1084.6</ele></trkpt><trkpt lat="45.849245" lon="9.192792"><time>2024-05-04T08:19:55.000Z</time><ele>1084.8</ele></trkpt><trkpt lat="45.849252" lon="9.192792"><time>2024-05-04T08:19:56.000Z</time><ele>1085</ele></trkpt><trkpt lat="45.849256" lon="9.192792"><time>2024-05-04T08:19:57.000Z</time><ele>1085.2</ele></trkpt><trkpt lat="45.849256" lon="9.192789"><time>2024-05-04T08:19:58.000Z</time><ele>1085.2</ele></trkpt><trkpt lat="45.849255" lon="9.192788"><time>2024-05-04T08:19:59.000Z</time><ele>1085.4</ele></trkpt><trkpt lat="45.849259" lon="9.192784"><time>2024-05-04T08:20:00.000Z</time><ele>1085.4</ele></trkpt><trkpt lat="45.849268" lon="9.192776"><time>2024-05-04T08:20:01.000Z</time><ele>1085.4</ele></trkpt><trkpt lat="45.849267" lon="9.192774"><time>2024-05-04T08:20:02.000Z</time><ele>1085.4</ele></trkpt><trkpt lat="45.849266" lon="9.192771"><time>2024-05-04T08:20:03.000Z</time><ele>1085.4</ele></trkpt><trkpt lat="45.849274" lon="9.19277"><time>2024-05-04T08:20:04.000Z</time><ele>1085.4</ele></trkpt><trkpt lat="45.849277" lon="9.192766"><time>2024-05-04T08:20:05.000Z</time><ele>1085.4</ele></trkpt><trkpt lat="45.849277" lon="9.192762"><time>2024-05-04T08:20:06.000Z</time><ele>1085.4</ele></trkpt><trkpt lat="45.849279" lon="9.192758"><time>2024-05-04T08:20:07.000Z</time><ele>1085.4</ele></trkpt><trkpt lat="45.849282" lon="9.192752"><time>2024-05-04T08:20:08.000Z</time><ele>1085.4</ele></trkpt><trkpt lat="45.849287" lon="9.19275"><time>2024-05-04T08:20:09.000Z</time><ele>1085.4</ele></trkpt><trkpt lat="45.849291" lon="9.192748"><time>2024-05-04T08:20:10.000Z</time><ele>1085.2</ele></trkpt><trkpt lat="45.849291" lon="9.192747"><time>2024-05-04T08:20:11.000Z</time><ele>1085.2</ele></trkpt><trkpt lat="45.849296" lon="9.192744"><time>2024-05-04T08:20:12.000Z</time><ele>1085.2</ele></trkpt><trkpt lat="45.849303" lon="9.192747"><time>2024-05-04T08:20:13.000Z</time><ele>1085.2</ele></trkpt><trkpt lat="45.849309" lon="9.192751"><time>2024-05-04T08:20:14.000Z</time><ele>1085.4</ele></trkpt><trkpt lat="45.849311" lon="9.192752"><time>2024-05-04T08:20:15.000Z</time><ele>1085.6</ele></trkpt><trkpt lat="45.849313" lon="9.192753"><time>2024-05-04T08:20:16.000Z</time><ele>1085.6</ele></trkpt><trkpt lat="45.849317" lon="9.192755"><time>2024-05-04T08:20:17.000Z</time><ele>1085.8</ele></trkpt><trkpt lat="45.849319" lon="9.192757"><time>2024-05-04T08:20:18.000Z</time><ele>1085.8</ele></trkpt><trkpt lat="45.84932" lon="9.192758"><time>2024-05-04T08:20:19.000Z</time><ele>1085.8</ele></trkpt><trkpt lat="45.849319" lon="9.192758"><time>2024-05-04T08:20:20.000Z</time><ele>1085.8</ele></trkpt><trkpt lat="45.849317" lon="9.192758"><time>2024-05-04T08:20:21.000Z</time><ele>1085.8</ele></trkpt><trkpt lat="45.849314" lon="9.192756"><time>2024-05-04T08:20:22.000Z</time><ele>1085.8</ele></trkpt><trkpt lat="45.849313" lon="9.192757"><time>2024-05-04T08:20:23.000Z</time><ele>1086</ele></trkpt><trkpt lat="45.849313" lon="9.192759"><time>2024-05-04T08:20:24.000Z</time><ele>1086</ele></trkpt><trkpt lat="45.849314" lon="9.192761"><time>2024-05-04T08:20:25.000Z</time><ele>1085.8</ele></trkpt><trkpt lat="45.849315" lon="9.192761"><time>2024-05-04T08:20:26.000Z</time><ele>1085.8</ele></trkpt><trkpt lat="45.849315" lon="9.192761"><time>2024-05-04T08:20:27.000Z</time><ele>1085.8</ele></trkpt><trkpt lat="45.849315" lon="9.192761"><time>2024-05-04T08:20:28.000Z</time><ele>1085.6</ele></trkpt><trkpt lat="45.849315" lon="9.192761"><time>2024-05-04T08:20:29.000Z</time><ele>1085.6</ele></trkpt><trkpt lat="45.849315" lon="9.192761"><time>2024-05-04T08:20:30.000Z</time><ele>1085.6</ele></trkpt><trkpt lat="45.849315" lon="9.192761"><time>2024-05-04T08:20:31.000Z</time><ele>1085.6</ele></trkpt><trkpt lat="45.849315" lon="9.192761"><time>2024-05-04T08:20:32.000Z</time><ele>1085.6</ele></trkpt><trkpt lat="45.849315" lon="9.192761"><time>2024-05-04T08:20:33.000Z</time><ele>1085.6</ele></trkpt><trkpt lat="45.849315" lon="9.192761"><time>2024-05-04T08:20:34.000Z</time><ele>1085.6</ele></trkpt><trkpt lat="45.849315" lon="9.192761"><time>2024-05-04T08:20:35.000Z</time><ele>1085.6</ele></trkpt><trkpt lat="45.849315" lon="9.192761"><time>2024-05-04T08:20:36.000Z</time><ele>1085.8</ele></trkpt><trkpt lat="45.849315" lon="9.192761"><time>2024-05-04T08:20:37.000Z</time><ele>1086</ele></trkpt><trkpt lat="45.849315" lon="9.19276"><time>2024-05-04T08:20:38.000Z</time><ele>1086</ele></trkpt><trkpt lat="45.849315" lon="9.19276"><time>2024-05-04T08:20:39.000Z</time><ele>1086</ele></trkpt><trkpt lat="45.849315" lon="9.19276"><time>2024-05-04T08:20:40.000Z</time><ele>1086</ele></trkpt><trkpt lat="45.849317" lon="9.19276"><time>2024-05-04T08:20:41.000Z</time><ele>1085.8</ele></trkpt><trkpt lat="45.849317" lon="9.19276"><time>2024-05-04T08:20:42.000Z</time><ele>1085.8</ele></trkpt><trkpt lat="45.849318" lon="9.19276"><time>2024-05-04T08:20:43.000Z</time><ele>1085.6</ele></trkpt><trkpt lat="45.849321" lon="9.192763"><time>2024-05-04T08:20:44.000Z</time><ele>1085.6</ele></trkpt><trkpt lat="45.849336" lon="9.19277"><time>2024-05-04T08:20:45.000Z</time><ele>1085.6</ele></trkpt><trkpt lat="45.849352" lon="9.192777"><time>2024-05-04T08:20:46.000Z</time><ele>1085.4</ele></trkpt><trkpt lat="45.84937" lon="9.19278"><time>2024-05-04T08:20:47.000Z</time><ele>1085.4</ele></trkpt><trkpt lat="45.849387" lon="9.19278"><time>2024-05-04T08:20:48.000Z</time><ele>1085.4</ele></trkpt><trkpt lat="45.849403" lon="9.192783"><time>2024-05-04T08:20:49.000Z</time><ele>1085.6</ele></trkpt><trkpt lat="45.84942" lon="9.192789"><time>2024-05-04T08:20:50.000Z</time><ele>1085.6</ele></trkpt><trkpt lat="45.849441" lon="9.192795"><time>2024-05-04T08:20:51.000Z</time><ele>1085.6</ele></trkpt><trkpt lat="45.849459" lon="9.192801"><time>2024-05-04T08:20:52.000Z</time><ele>1085.6</ele></trkpt><trkpt lat="45.849474" lon="9.192805"><time>2024-05-04T08:20:53.000Z</time><ele>1085.6</ele></trkpt><trkpt lat="45.849484" lon="9.192816"><time>2024-05-04T08:20:54.000Z</time><ele>1085.8</ele></trkpt><trkpt lat="45.849491" lon="9.192826"><time>2024-05-04T08:20:55.000Z</time><ele>1085.8</ele></trkpt><trkpt lat="45.849497" lon="9.19283"><time>2024-05-04T08:20:56.000Z</time><ele>1086</ele></trkpt><trkpt lat="45.849503" lon="9.192832"><time>2024-05-04T08:20:57.000Z</time><ele>1086</ele></trkpt><trkpt lat="45.849511" lon="9.19284"><time>2024-05-04T08:20:58.000Z</time><ele>1086.2</ele></trkpt><trkpt lat="45.849518" lon="9.192856"><time>2024-05-04T08:20:59.000Z</time><ele>1086.2</ele></trkpt><trkpt lat="45.849523" lon="9.192877"><time>2024-05-04T08:21:00.000Z</time><ele>1086.2</ele></trkpt><trkpt lat="45.849531" lon="9.19289"><time>2024-05-04T08:21:01.000Z</time><ele>1086.2</ele></trkpt><trkpt lat="45.849537" lon="9.192915"><time>2024-05-04T08:21:02.000Z</time><ele>1086.2</ele></trkpt><trkpt lat="45.849542" lon="9.192933"><time>2024-05-04T08:21:03.000Z</time><ele>1086.2</ele></trkpt><trkpt lat="45.849544" lon="9.192945"><time>2024-05-04T08:21:04.000Z</time><ele>1086.2</ele></trkpt><trkpt lat="45.849546" lon="9.192952"><time>2024-05-04T08:21:05.000Z</time><ele>1086.2</ele></trkpt><trkpt lat="45.84955" lon="9.192961"><time>2024-05-04T08:21:06.000Z</time><ele>1086.2</ele></trkpt><trkpt lat="45.849562" lon="9.192968"><time>2024-05-04T08:21:07.000Z</time><ele>1086.4</ele></trkpt><trkpt lat="45.84957" lon="9.192974"><time>2024-05-04T08:21:08.000Z</time><ele>1086.4</ele></trkpt><trkpt lat="45.849578" lon="9.192979"><time>2024-05-04T08:21:09.000Z</time><ele>1086.4</ele></trkpt><trkpt lat="45.849588" lon="9.192985"><time>2024-05-04T08:21:10.000Z</time><ele>1086.4</ele></trkpt><trkpt lat="45.8496" lon="9.19299"><time>2024-05-04T08:21:11.000Z</time><ele>1086.4</ele></trkpt><trkpt lat="45.849612" lon="9.193"><time>2024-05-04T08:21:12.000Z</time><ele>1086.4</ele></trkpt><trkpt lat="45.849625" lon="9.193012"><time>2024-05-04T08:21:13.000Z</time><ele>1086.4</ele></trkpt><trkpt lat="45.849632" lon="9.193026"><time>2024-05-04T08:21:14.000Z</time><ele>1086.4</ele></trkpt><trkpt lat="45.849632" lon="9.193031"><time>2024-05-04T08:21:15.000Z</time><ele>1086.4</ele></trkpt><trkpt lat="45.849639" lon="9.193038"><time>2024-05-04T08:21:16.000Z</time><ele>1086.4</ele></trkpt><trkpt lat="45.849655" lon="9.193049"><time>2024-05-04T08:21:17.000Z</time><ele>1086.2</ele></trkpt><trkpt lat="45.849669" lon="9.193055"><time>2024-05-04T08:21:18.000Z</time><ele>1086.2</ele></trkpt><trkpt lat="45.84968" lon="9.193066"><time>2024-05-04T08:21:19.000Z</time><ele>1086.2</ele></trkpt><trkpt lat="45.849693" lon="9.193078"><time>2024-05-04T08:21:20.000Z</time><ele>1086.2</ele></trkpt><trkpt lat="45.84971" lon="9.193095"><time>2024-05-04T08:21:21.000Z</time><ele>1086.4</ele></trkpt><trkpt lat="45.849722" lon="9.193102"><time>2024-05-04T08:21:22.000Z</time><ele>1086.4</ele></trkpt><trkpt lat="45.849735" lon="9.193109"><time>2024-05-04T08:21:23.000Z</time><ele>1086.4</ele></trkpt><trkpt lat="45.84975" lon="9.193126"><time>2024-05-04T08:21:24.000Z</time><ele>1086.4</ele></trkpt><trkpt lat="45.849765" lon="9.193138"><time>2024-05-04T08:21:25.000Z</time><ele>1086.6</ele></trkpt><trkpt lat="45.849776" lon="9.193154"><time>2024-05-04T08:21:26.000Z</time><ele>1086.6</ele></trkpt><trkpt lat="45.849786" lon="9.193166"><time>2024-05-04T08:21:27.000Z</time><ele>1086.6</ele></trkpt><trkpt lat="45.849796" lon="9.193178"><time>2024-05-04T08:21:28.000Z</time><ele>1086.6</ele></trkpt><trkpt lat="45.849804" lon="9.193193"><time>2024-05-04T08:21:29.000Z</time><ele>1086.6</ele></trkpt><trkpt lat="45.849817" lon="9.193207"><time>2024-05-04T08:21:30.000Z</time><ele>1086.6</ele></trkpt><trkpt lat="45.849831" lon="9.193221"><time>2024-05-04T08:21:31.000Z</time><ele>1086.6</ele></trkpt><trkpt lat="45.849845" lon="9.193232"><time>2024-05-04T08:21:32.000Z</time><ele>1086.4</ele></trkpt><trkpt lat="45.849856" lon="9.193244"><time>2024-05-04T08:21:33.000Z</time><ele>1086.4</ele></trkpt><trkpt lat="45.849855" lon="9.193258"><time>2024-05-04T08:21:34.000Z</time><ele>1086.4</ele></trkpt><trkpt lat="45.849854" lon="9.193275"><time>2024-05-04T08:21:35.000Z</time><ele>1086.4</ele></trkpt><trkpt lat="45.849855" lon="9.193291"><time>2024-05-04T08:21:36.000Z</time><ele>1086.4</ele></trkpt><trkpt lat="45.849865" lon="9.19332"><time>2024-05-04T08:21:37.000Z</time><ele>1086.4</ele></trkpt><trkpt lat="45.849879" lon="9.193341"><time>2024-05-04T08:21:38.000Z</time><ele>1086.4</ele></trkpt><trkpt lat="45.849887" lon="9.193353"><time>2024-05-04T08:21:39.000Z</time><ele>1086.4</ele></trkpt><trkpt lat="45.849888" lon="9.193356"><time>2024-05-04T08:21:40.000Z</time><ele>1086.6</ele></trkpt><trkpt lat="45.849897" lon="9.193366"><time>2024-05-04T08:21:41.000Z</time><ele>1086.6</ele></trkpt><trkpt lat="45.849903" lon="9.19338"><time>2024-05-04T08:21:42.000Z</time><ele>1086.6</ele></trkpt><trkpt lat="45.849906" lon="9.193395"><time>2024-05-04T08:21:43.000Z</time><ele>1086.8</ele></trkpt><trkpt lat="45.849914" lon="9.193414"><time>2024-05-04T08:21:44.000Z</time><ele>1086.8</ele></trkpt><trkpt lat="45.84992" lon="9.193439"><time>2024-05-04T08:21:45.000Z</time><ele>1086.8</ele></trkpt><trkpt lat="45.849924" lon="9.19346"><time>2024-05-04T08:21:46.000Z</time><ele>1086.8</ele></trkpt><trkpt lat="45.84993" lon="9.19348"><time>2024-05-04T08:21:47.000Z</time><ele>1086.8</ele></trkpt><trkpt lat="45.849933" lon="9.193499"><time>2024-05-04T08:21:48.000Z</time><ele>1087</ele></trkpt><trkpt lat="45.849938" lon="9.193518"><time>2024-05-04T08:21:49.000Z</time><ele>1086.8</ele></trkpt><trkpt lat="45.849942" lon="9.193535"><time>2024-05-04T08:21:50.000Z</time><ele>1086.8</ele></trkpt><trkpt lat="45.84995" lon="9.19355"><time>2024-05-04T08:21:51.000Z</time><ele>1087</ele></trkpt><trkpt lat="45.849956" lon="9.193561"><time>2024-05-04T08:21:52.000Z</time><ele>1087</ele></trkpt><trkpt lat="45.849955" lon="9.193573"><time>2024-05-04T08:21:53.000Z</time><ele>1087</ele></trkpt><trkpt lat="45.849958" lon="9.193584"><time>2024-05-04T08:21:54.000Z</time><ele>1087</ele></trkpt><trkpt lat="45.849963" lon="9.193596"><time>2024-05-04T08:21:55.000Z</time><ele>1087</ele></trkpt><trkpt lat="45.849969" lon="9.193609"><time>2024-05-04T08:21:56.000Z</time><ele>1087</ele></trkpt><trkpt lat="45.849974" lon="9.193617"><time>2024-05-04T08:21:57.000Z</time><ele>1087.2</ele></trkpt><trkpt lat="45.849979" lon="9.193623"><time>2024-05-04T08:21:58.000Z</time><ele>1087.2</ele></trkpt><trkpt lat="45.849985" lon="9.193637"><time>2024-05-04T08:21:59.000Z</time><ele>1087.2</ele></trkpt><trkpt lat="45.849991" lon="9.193647"><time>2024-05-04T08:22:00.000Z</time><ele>1087.2</ele></trkpt><trkpt lat="45.849998" lon="9.193653"><time>2024-05-04T08:22:01.000Z</time><ele>1087.2</ele></trkpt><trkpt lat="45.850003" lon="9.193662"><time>2024-05-04T08:22:02.000Z</time><ele>1087.2</ele></trkpt><trkpt lat="45.850009" lon="9.193669"><time>2024-05-04T08:22:03.000Z</time><ele>1087.2</ele></trkpt><trkpt lat="45.850018" lon="9.193678"><time>2024-05-04T08:22:04.000Z</time><ele>1087.2</ele></trkpt><trkpt lat="45.850024" lon="9.193691"><time>2024-05-04T08:22:05.000Z</time><ele>1087.2</ele></trkpt><trkpt lat="45.850035" lon="9.1937"><time>2024-05-04T08:22:06.000Z</time><ele>1087.2</ele></trkpt><trkpt lat="45.850048" lon="9.193709"><time>2024-05-04T08:22:07.000Z</time><ele>1087.2</ele></trkpt><trkpt lat="45.85006" lon="9.193717"><time>2024-05-04T08:22:08.000Z</time><ele>1087</ele></trkpt><trkpt lat="45.850078" lon="9.193739"><time>2024-05-04T08:22:09.000Z</time><ele>1087.2</ele></trkpt><trkpt lat="45.850091" lon="9.19376"><time>2024-05-04T08:22:10.000Z</time><ele>1087.2</ele></trkpt><trkpt lat="45.850103" lon="9.193774"><time>2024-05-04T08:22:11.000Z</time><ele>1087.2</ele></trkpt><trkpt lat="45.85011" lon="9.193786"><time>2024-05-04T08:22:12.000Z</time><ele>1087.2</ele></trkpt><trkpt lat="45.850117" lon="9.193804"><time>2024-05-04T08:22:13.000Z</time><ele>1087</ele></trkpt><trkpt lat="45.850125" lon="9.19382"><time>2024-05-04T08:22:14.000Z</time><ele>1087</ele></trkpt><trkpt lat="45.850135" lon="9.193827"><time>2024-05-04T08:22:15.000Z</time><ele>1087</ele></trkpt><trkpt lat="45.850141" lon="9.193836"><time>2024-05-04T08:22:16.000Z</time><ele>1087</ele></trkpt><trkpt lat="45.850146" lon="9.193857"><time>2024-05-04T08:22:17.000Z</time><ele>1087</ele></trkpt><trkpt lat="45.850153" lon="9.193877"><time>2024-05-04T08:22:18.000Z</time><ele>1087.2</ele></trkpt><trkpt lat="45.850154" lon="9.193905"><time>2024-05-04T08:22:19.000Z</time><ele>1087.2</ele></trkpt><trkpt lat="45.850155" lon="9.193913"><time>2024-05-04T08:22:20.000Z</time><ele>1087.2</ele></trkpt><trkpt lat="45.850157" lon="9.193932"><time>2024-05-04T08:22:21.000Z</time><ele>1087.4</ele></trkpt><trkpt lat="45.850165" lon="9.193942"><time>2024-05-04T08:22:22.000Z</time><ele>1087.4</ele></trkpt><trkpt lat="45.850175" lon="9.193956"><time>2024-05-04T08:22:23.000Z</time><ele>1087.4</ele></trkpt><trkpt lat="45.850185" lon="9.193969"><time>2024-05-04T08:22:24.000Z</time><ele>1087.4</ele></trkpt><trkpt lat="45.8502" lon="9.193988"><time>2024-05-04T08:22:25.000Z</time><ele>1087.4</ele></trkpt><trkpt lat="45.850216" lon="9.19401"><time>2024-05-04T08:22:26.000Z</time><ele>1087.4</ele></trkpt><trkpt lat="45.850226" lon="9.194019"><time>2024-05-04T08:22:27.000Z</time><ele>1087.4</ele></trkpt><trkpt lat="45.850235" lon="9.194023"><time>2024-05-04T08:22:28.000Z</time><ele>1087.4</ele></trkpt><trkpt lat="45.850244" lon="9.194033"><time>2024-05-04T08:22:29.000Z</time><ele>1087.4</ele></trkpt><trkpt lat="45.850252" lon="9.194039"><time>2024-05-04T08:22:30.000Z</time><ele>1087.4</ele></trkpt><trkpt lat="45.850266" lon="9.194048"><time>2024-05-04T08:22:31.000Z</time><ele>1087.4</ele></trkpt><trkpt lat="45.850277" lon="9.194055"><time>2024-05-04T08:22:32.000Z</time><ele>1087.4</ele></trkpt><trkpt lat="45.85029" lon="9.194069"><time>2024-05-04T08:22:33.000Z</time><ele>1087.4</ele></trkpt><trkpt lat="45.850306" lon="9.194081"><time>2024-05-04T08:22:34.000Z</time><ele>1087.4</ele></trkpt><trkpt lat="45.85032" lon="9.194091"><time>2024-05-04T08:22:35.000Z</time><ele>1087.6</ele></trkpt><trkpt lat="45.850331" lon="9.194108"><time>2024-05-04T08:22:36.000Z</time><ele>1087.6</ele></trkpt><trkpt lat="45.850342" lon="9.194117"><time>2024-05-04T08:22:37.000Z</time><ele>1087.6</ele></trkpt><trkpt lat="45.85035" lon="9.194123"><time>2024-05-04T08:22:38.000Z</time><ele>1087.6</ele></trkpt><trkpt lat="45.85036" lon="9.194131"><time>2024-05-04T08:22:39.000Z</time><ele>1087.6</ele></trkpt><trkpt lat="45.850369" lon="9.194139"><time>2024-05-04T08:22:40.000Z</time><ele>1087.8</ele></trkpt><trkpt lat="45.850376" lon="9.194145"><time>2024-05-04T08:22:41.000Z</time><ele>1087.8</ele></trkpt><trkpt lat="45.850386" lon="9.19415"><time>2024-05-04T08:22:42.000Z</time><ele>1087.8</ele></trkpt><trkpt lat="45.850397" lon="9.194152"><time>2024-05-04T08:22:43.000Z</time><ele>1088</ele></trkpt><trkpt lat="45.850408" lon="9.194157"><time>2024-05-04T08:22:44.000Z</time><ele>1088</ele></trkpt><trkpt lat="45.850417" lon="9.194167"><time>2024-05-04T08:22:45.000Z</time><ele>1088.2</ele></trkpt><trkpt lat="45.850429" lon="9.19418"><time>2024-05-04T08:22:46.000Z</time><ele>1088.2</ele></trkpt><trkpt lat="45.85044" lon="9.194193"><time>2024-05-04T08:22:47.000Z</time><ele>1088.4</ele></trkpt><trkpt lat="45.850449" lon="9.194208"><time>2024-05-04T08:22:48.000Z</time><ele>1088.6</ele></trkpt><trkpt lat="45.850457" lon="9.194227"><time>2024-05-04T08:22:49.000Z</time><ele>1088.6</ele></trkpt><trkpt lat="45.850464" lon="9.194239"><time>2024-05-04T08:22:50.000Z</time><ele>1088.8</ele></trkpt><trkpt lat="45.850466" lon="9.194244"><time>2024-05-04T08:22:51.000Z</time><ele>1089</ele></trkpt><trkpt lat="45.850467" lon="9.194262"><time>2024-05-04T08:22:52.000Z</time><ele>1089.2</ele></trkpt><trkpt lat="45.850472" lon="9.194274"><time>2024-05-04T08:22:53.000Z</time><ele>1089.4</ele></trkpt><trkpt lat="45.85048" lon="9.194284"><time>2024-05-04T08:22:54.000Z</time><ele>1089.6</ele></trkpt><trkpt lat="45.850486" lon="9.194293"><time>2024-05-04T08:22:55.000Z</time><ele>1089.6</ele></trkpt><trkpt lat="45.850492" lon="9.194298"><time>2024-05-04T08:22:56.000Z</time><ele>1089.8</ele></trkpt><trkpt lat="45.850502" lon="9.194305"><time>2024-05-04T08:22:57.000Z</time><ele>1090</ele></trkpt><trkpt lat="45.850516" lon="9.194315"><time>2024-05-04T08:22:58.000Z</time><ele>1090.2</ele></trkpt><trkpt lat="45.850527" lon="9.194324"><time>2024-05-04T08:22:59.000Z</time><ele>1090.4</ele></trkpt><trkpt lat="45.850534" lon="9.194336"><time>2024-05-04T08:23:00.000Z</time><ele>1090.6</ele></trkpt><trkpt lat="45.85054" lon="9.194354"><time>2024-05-04T08:23:01.000Z</time><ele>1090.6</ele></trkpt><trkpt lat="45.850547" lon="9.194368"><time>2024-05-04T08:23:02.000Z</time><ele>1090.8</ele></trkpt><trkpt lat="45.850553" lon="9.194384"><time>2024-05-04T08:23:03.000Z</time><ele>1091</ele></trkpt><trkpt lat="45.850559" lon="9.194392"><time>2024-05-04T08:23:04.000Z</time><ele>1091.2</ele></trkpt><trkpt lat="45.850568" lon="9.194399"><time>2024-05-04T08:23:05.000Z</time><ele>1091.2</ele></trkpt><trkpt lat="45.850574" lon="9.194399"><time>2024-05-04T08:23:06.000Z</time><ele>1091.4</ele></trkpt><trkpt lat="45.850577" lon="9.194399"><time>2024-05-04T08:23:07.000Z</time><ele>1091.6</ele></trkpt><trkpt lat="45.850579" lon="9.194403"><time>2024-05-04T08:23:08.000Z</time><ele>1091.6</ele></trkpt><trkpt lat="45.85058" lon="9.194406"><time>2024-05-04T08:23:09.000Z</time><ele>1091.6</ele></trkpt><trkpt lat="45.850581" lon="9.194404"><time>2024-05-04T08:23:10.000Z</time><ele>1091.6</ele></trkpt><trkpt lat="45.850581" lon="9.194404"><time>2024-05-04T08:23:11.000Z</time><ele>1091.8</ele></trkpt><trkpt lat="45.85058" lon="9.194404"><time>2024-05-04T08:23:12.000Z</time><ele>1091.8</ele></trkpt><trkpt lat="45.850581" lon="9.194404"><time>2024-05-04T08:23:13.000Z</time><ele>1091.8</ele></trkpt><trkpt lat="45.850582" lon="9.194405"><time>2024-05-04T08:23:14.000Z</time><ele>1091.8</ele></trkpt><trkpt lat="45.850583" lon="9.194406"><time>2024-05-04T08:23:15.000Z</time><ele>1091.8</ele></trkpt><trkpt lat="45.850581" lon="9.194405"><time>2024-05-04T08:23:16.000Z</time><ele>1091.8</ele></trkpt><trkpt lat="45.850585" lon="9.194401"><time>2024-05-04T08:23:17.000Z</time><ele>1092</ele></trkpt><trkpt lat="45.850591" lon="9.194399"><time>2024-05-04T08:23:18.000Z</time><ele>1092</ele></trkpt><trkpt lat="45.850596" lon="9.194397"><time>2024-05-04T08:23:19.000Z</time><ele>1092</ele></trkpt><trkpt lat="45.850603" lon="9.194402"><time>2024-05-04T08:23:20.000Z</time><ele>1092.2</ele></trkpt><trkpt lat="45.85061" lon="9.194406"><time>2024-05-04T08:23:21.000Z</time><ele>1092.2</ele></trkpt><trkpt lat="45.850619" lon="9.194406"><time>2024-05-04T08:23:22.000Z</time><ele>1092.2</ele></trkpt><trkpt lat="45.850627" lon="9.194403"><time>2024-05-04T08:23:23.000Z</time><ele>1092.2</ele></trkpt><trkpt lat="45.850631" lon="9.194399"><time>2024-05-04T08:23:24.000Z</time><ele>1092.4</ele></trkpt><trkpt lat="45.850634" lon="9.194395"><time>2024-05-04T08:23:25.000Z</time><ele>1092.6</ele></trkpt><trkpt lat="45.85064" lon="9.19439"><time>2024-05-04T08:23:26.000Z</time><ele>1093</ele></trkpt><trkpt lat="45.850647" lon="9.194381"><time>2024-05-04T08:23:27.000Z</time><ele>1093</ele></trkpt><trkpt lat="45.85065" lon="9.194374"><time>2024-05-04T08:23:28.000Z</time><ele>1093.2</ele></trkpt><trkpt lat="45.850653" lon="9.194371"><time>2024-05-04T08:23:29.000Z</time><ele>1093.4</ele></trkpt><trkpt lat="45.850661" lon="9.194365"><time>2024-05-04T08:23:30.000Z</time><ele>1093.6</ele></trkpt><trkpt lat="45.85067" lon="9.194364"><time>2024-05-04T08:23:31.000Z</time><ele>1093.8</ele></trkpt><trkpt lat="45.850677" lon="9.194369"><time>2024-05-04T08:23:32.000Z</time><ele>1094</ele></trkpt><trkpt lat="45.85068" lon="9.194365"><time>2024-05-04T08:23:33.000Z</time><ele>1094.2</ele></trkpt><trkpt lat="45.850686" lon="9.194358"><time>2024-05-04T08:23:34.000Z</time><ele>1094.4</ele></trkpt><trkpt lat="45.850691" lon="9.194346"><time>2024-05-04T08:23:35.000Z</time><ele>1094.8</ele></trkpt><trkpt lat="45.850697" lon="9.194336"><time>2024-05-04T08:23:36.000Z</time><ele>1095</ele></trkpt><trkpt lat="45.850702" lon="9.194327"><time>2024-05-04T08:23:37.000Z</time><ele>1095.2</ele></trkpt><trkpt lat="45.850709" lon="9.194314"><time>2024-05-04T08:23:38.000Z</time><ele>1095.2</ele></trkpt><trkpt lat="45.850713" lon="9.194303"><time>2024-05-04T08:23:39.000Z</time><ele>1095.4</ele></trkpt><trkpt lat="45.850716" lon="9.194294"><time>2024-05-04T08:23:40.000Z</time><ele>1095.6</ele></trkpt><trkpt lat="45.85072" lon="9.194289"><time>2024-05-04T08:23:41.000Z</time><ele>1095.6</ele></trkpt><trkpt lat="45.850727" lon="9.194284"><time>2024-05-04T08:23:42.000Z</time><ele>1096</ele></trkpt><trkpt lat="45.850733" lon="9.194276"><time>2024-05-04T08:23:43.000Z</time><ele>1096.2</ele></trkpt><trkpt lat="45.850737" lon="9.194271"><time>2024-05-04T08:23:44.000Z</time><ele>1096.4</ele></trkpt><trkpt lat="45.85074" lon="9.194275"><time>2024-05-04T08:23:45.000Z</time><ele>1096.6</ele></trkpt><trkpt lat="45.850745" lon="9.19428"><time>2024-05-04T08:23:46.000Z</time><ele>1096.8</ele></trkpt><trkpt lat="45.85075" lon="9.194284"><time>2024-05-04T08:23:47.000Z</time><ele>1096.8</ele></trkpt><trkpt lat="45.850757" lon="9.194281"><time>2024-05-04T08:23:48.000Z</time><ele>1097</ele></trkpt><trkpt lat="45.850768" lon="9.194275"><time>2024-05-04T08:23:49.000Z</time><ele>1097.2</ele></trkpt><trkpt lat="45.850778" lon="9.194267"><time>2024-05-04T08:23:50.000Z</time><ele>1097.4</ele></trkpt><trkpt lat="45.850778" lon="9.194261"><time>2024-05-04T08:23:51.000Z</time><ele>1097.6</ele></trkpt><trkpt lat="45.850779" lon="9.194258"><time>2024-05-04T08:23:52.000Z</time><ele>1097.8</ele></trkpt><trkpt lat="45.850789" lon="9.194251"><time>2024-05-04T08:23:53.000Z</time><ele>1098</ele></trkpt><trkpt lat="45.850798" lon="9.194251"><time>2024-05-04T08:23:54.000Z</time><ele>1098.4</ele></trkpt><trkpt lat="45.850809" lon="9.19425"><time>2024-05-04T08:23:55.000Z</time><ele>1098.6</ele></trkpt><trkpt lat="45.850818" lon="9.194247"><time>2024-05-04T08:23:56.000Z</time><ele>1099</ele></trkpt><trkpt lat="45.850828" lon="9.194243"><time>2024-05-04T08:23:57.000Z</time><ele>1099.2</ele></trkpt><trkpt lat="45.850836" lon="9.194236"><time>2024-05-04T08:23:58.000Z</time><ele>1099.4</ele></trkpt><trkpt lat="45.850839" lon="9.194232"><time>2024-05-04T08:23:59.000Z</time><ele>1099.6</ele></trkpt><trkpt lat="45.850843" lon="9.194226"><time>2024-05-04T08:24:00.000Z</time><ele>1099.8</ele></trkpt><trkpt lat="45.85085" lon="9.194216"><time>2024-05-04T08:24:01.000Z</time><ele>1100</ele></trkpt><trkpt lat="45.850859" lon="9.194202"><time>2024-05-04T08:24:02.000Z</time><ele>1100.2</ele></trkpt><trkpt lat="45.850871" lon="9.194191"><time>2024-05-04T08:24:03.000Z</time><ele>1100.4</ele></trkpt><trkpt lat="45.850874" lon="9.194186"><time>2024-05-04T08:24:04.000Z</time><ele>1100.6</ele></trkpt><trkpt lat="45.850875" lon="9.194179"><time>2024-05-04T08:24:05.000Z</time><ele>1100.8</ele></trkpt><trkpt lat="45.850878" lon="9.19417"><time>2024-05-04T08:24:06.000Z</time><ele>1101</ele></trkpt><trkpt lat="45.850886" lon="9.194158"><time>2024-05-04T08:24:07.000Z</time><ele>1101.2</ele></trkpt><trkpt lat="45.850893" lon="9.194146"><time>2024-05-04T08:24:08.000Z</time><ele>1101.4</ele></trkpt><trkpt lat="45.850899" lon="9.194134"><time>2024-05-04T08:24:09.000Z</time><ele>1101.6</ele></trkpt><trkpt lat="45.850904" lon="9.19413"><time>2024-05-04T08:24:10.000Z</time><ele>1101.8</ele></trkpt><trkpt lat="45.850909" lon="9.194122"><time>2024-05-04T08:24:11.000Z</time><ele>1102</ele></trkpt><trkpt lat="45.850917" lon="9.194112"><time>2024-05-04T08:24:12.000Z</time><ele>1102</ele></trkpt><trkpt lat="45.850923" lon="9.194105"><time>2024-05-04T08:24:13.000Z</time><ele>1102.2</ele></trkpt><trkpt lat="45.85093" lon="9.194098"><time>2024-05-04T08:24:14.000Z</time><ele>1102.4</ele></trkpt><trkpt lat="45.850939" lon="9.194088"><time>2024-05-04T08:24:15.000Z</time><ele>1102.8</ele></trkpt><trkpt lat="45.850947" lon="9.194079"><time>2024-05-04T08:24:16.000Z</time><ele>1103</ele></trkpt><trkpt lat="45.850957" lon="9.194074"><time>2024-05-04T08:24:17.000Z</time><ele>1103.2</ele></trkpt><trkpt lat="45.850967" lon="9.194071"><time>2024-05-04T08:24:18.000Z</time><ele>1103.4</ele></trkpt><trkpt lat="45.850973" lon="9.194065"><time>2024-05-04T08:24:19.000Z</time><ele>1103.4</ele></trkpt><trkpt lat="45.850975" lon="9.194051"><time>2024-05-04T08:24:20.000Z</time><ele>1103.8</ele></trkpt><trkpt lat="45.850979" lon="9.194034"><time>2024-05-04T08:24:21.000Z</time><ele>1104.2</ele></trkpt><trkpt lat="45.850984" lon="9.194025"><time>2024-05-04T08:24:22.000Z</time><ele>1104.4</ele></trkpt><trkpt lat="45.85099" lon="9.194016"><time>2024-05-04T08:24:23.000Z</time><ele>1104.6</ele></trkpt><trkpt lat="45.850997" lon="9.194006"><time>2024-05-04T08:24:24.000Z</time><ele>1104.8</ele></trkpt><trkpt lat="45.851006" lon="9.194001"><time>2024-05-04T08:24:25.000Z</time><ele>1104.8</ele></trkpt><trkpt lat="45.851011" lon="9.193993"><time>2024-05-04T08:24:26.000Z</time><ele>1105.2</ele></trkpt><trkpt lat="45.851015" lon="9.193986"><time>2024-05-04T08:24:27.000Z</time><ele>1105.4</ele></trkpt><trkpt lat="45.851022" lon="9.193982"><time>2024-05-04T08:24:28.000Z</time><ele>1105.6</ele></trkpt><trkpt lat="45.851027" lon="9.193979"><time>2024-05-04T08:24:29.000Z</time><ele>1105.8</ele></trkpt><trkpt lat="45.851029" lon="9.193978"><time>2024-05-04T08:24:30.000Z</time><ele>1106</ele></trkpt><trkpt lat="45.851028" lon="9.193969"><time>2024-05-04T08:24:31.000Z</time><ele>1106.4</ele></trkpt><trkpt lat="45.851033" lon="9.193966"><time>2024-05-04T08:24:32.000Z</time><ele>1106.4</ele></trkpt><trkpt lat="45.851039" lon="9.19396"><time>2024-05-04T08:24:33.000Z</time><ele>1106.6</ele></trkpt><trkpt lat="45.851049" lon="9.193953"><time>2024-05-04T08:24:34.000Z</time><ele>1107</ele></trkpt><trkpt lat="45.851054" lon="9.193947"><time>2024-05-04T08:24:35.000Z</time><ele>1107.2</ele></trkpt><trkpt lat="45.851058" lon="9.193941"><time>2024-05-04T08:24:36.000Z</time><ele>1107.2</ele></trkpt><trkpt lat="45.851062" lon="9.193934"><time>2024-05-04T08:24:37.000Z</time><ele>1107.4</ele></trkpt><trkpt lat="45.851063" lon="9.193924"><time>2024-05-04T08:24:38.000Z</time><ele>1107.6</ele></trkpt><trkpt lat="45.851065" lon="9.193919"><time>2024-05-04T08:24:39.000Z</time><ele>1107.8</ele></trkpt><trkpt lat="45.85107" lon="9.193915"><time>2024-05-04T08:24:40.000Z</time><ele>1108</ele></trkpt><trkpt lat="45.851071" lon="9.193911"><time>2024-05-04T08:24:41.000Z</time><ele>1108.2</ele></trkpt><trkpt lat="45.851076" lon="9.193907"><time>2024-05-04T08:24:42.000Z</time><ele>1108.4</ele></trkpt><trkpt lat="45.851082" lon="9.193899"><time>2024-05-04T08:24:43.000Z</time><ele>1108.6</ele></trkpt><trkpt lat="45.851083" lon="9.193895"><time>2024-05-04T08:24:44.000Z</time><ele>1109</ele></trkpt><trkpt lat="45.851092" lon="9.193893"><time>2024-05-04T08:24:45.000Z</time><ele>1109</ele></trkpt><trkpt lat="45.851099" lon="9.19389"><time>2024-05-04T08:24:46.000Z</time><ele>1109.2</ele></trkpt><trkpt lat="45.851109" lon="9.193889"><time>2024-05-04T08:24:47.000Z</time><ele>1109.4</ele></trkpt><trkpt lat="45.851118" lon="9.193894"><time>2024-05-04T08:24:48.000Z</time><ele>1109.6</ele></trkpt><trkpt lat="45.851124" lon="9.193895"><time>2024-05-04T08:24:49.000Z</time><ele>1109.8</ele></trkpt><trkpt lat="45.851129" lon="9.193893"><time>2024-05-04T08:24:50.000Z</time><ele>1110</ele></trkpt><trkpt lat="45.851135" lon="9.193883"><time>2024-05-04T08:24:51.000Z</time><ele>1110.2</ele></trkpt><trkpt lat="45.851148" lon="9.193879"><time>2024-05-04T08:24:52.000Z</time><ele>1110.4</ele></trkpt><trkpt lat="45.851157" lon="9.193878"><time>2024-05-04T08:24:53.000Z</time><ele>1110.6</ele></trkpt><trkpt lat="45.85117" lon="9.193872"><time>2024-05-04T08:24:54.000Z</time><ele>1110.8</ele></trkpt><trkpt lat="45.85118" lon="9.193865"><time>2024-05-04T08:24:55.000Z</time><ele>1110.8</ele></trkpt><trkpt lat="45.851185" lon="9.19386"><time>2024-05-04T08:24:56.000Z</time><ele>1111</ele></trkpt><trkpt lat="45.851195" lon="9.193863"><time>2024-05-04T08:24:57.000Z</time><ele>1111.2</ele></trkpt><trkpt lat="45.8512" lon="9.19386"><time>2024-05-04T08:24:58.000Z</time><ele>1111.2</ele></trkpt><trkpt lat="45.851207" lon="9.193852"><time>2024-05-04T08:24:59.000Z</time><ele>1111.4</ele></trkpt><trkpt lat="45.851211" lon="9.19384"><time>2024-05-04T08:25:00.000Z</time><ele>1111.6</ele></trkpt><trkpt lat="45.85122" lon="9.193832"><time>2024-05-04T08:25:01.000Z</time><ele>1111.6</ele></trkpt><trkpt lat="45.85123" lon="9.193828"><time>2024-05-04T08:25:02.000Z</time><ele>1111.6</ele></trkpt><trkpt lat="45.851243" lon="9.193817"><time>2024-05-04T08:25:03.000Z</time><ele>1111.8</ele></trkpt><trkpt lat="45.851255" lon="9.193813"><time>2024-05-04T08:25:04.000Z</time><ele>1111.8</ele></trkpt><trkpt lat="45.851271" lon="9.193807"><time>2024-05-04T08:25:05.000Z</time><ele>1112</ele></trkpt><trkpt lat="45.851279" lon="9.193805"><time>2024-05-04T08:25:06.000Z</time><ele>1112</ele></trkpt><trkpt lat="45.851285" lon="9.193801"><time>2024-05-04T08:25:07.000Z</time><ele>1112</ele></trkpt><trkpt lat="45.851293" lon="9.193798"><time>2024-05-04T08:25:08.000Z</time><ele>1112.2</ele></trkpt><trkpt lat="45.851303" lon="9.193794"><time>2024-05-04T08:25:09.000Z</time><ele>1112.2</ele></trkpt><trkpt lat="45.851309" lon="9.193794"><time>2024-05-04T08:25:10.000Z</time><ele>1112.4</ele></trkpt><trkpt lat="45.851315" lon="9.193798"><time>2024-05-04T08:25:11.000Z</time><ele>1112.4</ele></trkpt><trkpt lat="45.851322" lon="9.193806"><time>2024-05-04T08:25:12.000Z</time><ele>1112.4</ele></trkpt><trkpt lat="45.851332" lon="9.193813"><time>2024-05-04T08:25:13.000Z</time><ele>1112.6</ele></trkpt><trkpt lat="45.851343" lon="9.193822"><time>2024-05-04T08:25:14.000Z</time><ele>1112.6</ele></trkpt><trkpt lat="45.85135" lon="9.19383"><time>2024-05-04T08:25:15.000Z</time><ele>1112.8</ele></trkpt><trkpt lat="45.851358" lon="9.193834"><time>2024-05-04T08:25:16.000Z</time><ele>1112.8</ele></trkpt><trkpt lat="45.851365" lon="9.193843"><time>2024-05-04T08:25:17.000Z</time><ele>1113</ele></trkpt><trkpt lat="45.851371" lon="9.193848"><time>2024-05-04T08:25:18.000Z</time><ele>1113.2</ele></trkpt><trkpt lat="45.851379" lon="9.193846"><time>2024-05-04T08:25:19.000Z</time><ele>1113.2</ele></trkpt><trkpt lat="45.851389" lon="9.193846"><time>2024-05-04T08:25:20.000Z</time><ele>1113.4</ele></trkpt><trkpt lat="45.851398" lon="9.193847"><time>2024-05-04T08:25:21.000Z</time><ele>1113.4</ele></trkpt><trkpt lat="45.851411" lon="9.193851"><time>2024-05-04T08:25:22.000Z</time><ele>1113.4</ele></trkpt><trkpt lat="45.851423" lon="9.193855"><time>2024-05-04T08:25:23.000Z</time><ele>1113.4</ele></trkpt><trkpt lat="45.85143" lon="9.193858"><time>2024-05-04T08:25:24.000Z</time><ele>1113.6</ele></trkpt><trkpt lat="45.851442" lon="9.193855"><time>2024-05-04T08:25:25.000Z</time><ele>1113.6</ele></trkpt><trkpt lat="45.851454" lon="9.19385"><time>2024-05-04T08:25:26.000Z</time><ele>1113.6</ele></trkpt><trkpt lat="45.851467" lon="9.193847"><time>2024-05-04T08:25:27.000Z</time><ele>1113.8</ele></trkpt><trkpt lat="45.851477" lon="9.193846"><time>2024-05-04T08:25:28.000Z</time><ele>1114</ele></trkpt><trkpt lat="45.851488" lon="9.193848"><time>2024-05-04T08:25:29.000Z</time><ele>1114.2</ele></trkpt><trkpt lat="45.851497" lon="9.193856"><time>2024-05-04T08:25:30.000Z</time><ele>1114.2</ele></trkpt><trkpt lat="45.851506" lon="9.193862"><time>2024-05-04T08:25:31.000Z</time><ele>1114.4</ele></trkpt><trkpt lat="45.851515" lon="9.193863"><time>2024-05-04T08:25:32.000Z</time><ele>1114.4</ele></trkpt><trkpt lat="45.851521" lon="9.193868"><time>2024-05-04T08:25:33.000Z</time><ele>1114.6</ele></trkpt><trkpt lat="45.851527" lon="9.193874"><time>2024-05-04T08:25:34.000Z</time><ele>1114.6</ele></trkpt><trkpt lat="45.851533" lon="9.193877"><time>2024-05-04T08:25:35.000Z</time><ele>1114.8</ele></trkpt><trkpt lat="45.851542" lon="9.193877"><time>2024-05-04T08:25:36.000Z</time><ele>1114.8</ele></trkpt><trkpt lat="45.851548" lon="9.193874"><time>2024-05-04T08:25:37.000Z</time><ele>1115</ele></trkpt><trkpt lat="45.851557" lon="9.193874"><time>2024-05-04T08:25:38.000Z</time><ele>1115.2</ele></trkpt><trkpt lat="45.851567" lon="9.193875"><time>2024-05-04T08:25:39.000Z</time><ele>1115.2</ele></trkpt><trkpt lat="45.851576" lon="9.193875"><time>2024-05-04T08:25:40.000Z</time><ele>1115.4</ele></trkpt><trkpt lat="45.851586" lon="9.193881"><time>2024-05-04T08:25:41.000Z</time><ele>1115.6</ele></trkpt><trkpt lat="45.851591" lon="9.193886"><time>2024-05-04T08:25:42.000Z</time><ele>1115.6</ele></trkpt><trkpt lat="45.851598" lon="9.193892"><time>2024-05-04T08:25:43.000Z</time><ele>1115.6</ele></trkpt><trkpt lat="45.851606" lon="9.193896"><time>2024-05-04T08:25:44.000Z</time><ele>1115.6</ele></trkpt><trkpt lat="45.851615" lon="9.193901"><time>2024-05-04T08:25:45.000Z</time><ele>1115.8</ele></trkpt><trkpt lat="45.851628" lon="9.193905"><time>2024-05-04T08:25:46.000Z</time><ele>1115.8</ele></trkpt><trkpt lat="45.851641" lon="9.193906"><time>2024-05-04T08:25:47.000Z</time><ele>1116</ele></trkpt><trkpt lat="45.851653" lon="9.19391"><time>2024-05-04T08:25:48.000Z</time><ele>1116</ele></trkpt><trkpt lat="45.851664" lon="9.193914"><time>2024-05-04T08:25:49.000Z</time><ele>1116</ele></trkpt><trkpt lat="45.851674" lon="9.193919"><time>2024-05-04T08:25:50.000Z</time><ele>1116.2</ele></trkpt><trkpt lat="45.85168" lon="9.193924"><time>2024-05-04T08:25:51.000Z</time><ele>1116.2</ele></trkpt><trkpt lat="45.851686" lon="9.19393"><time>2024-05-04T08:25:52.000Z</time><ele>1116.2</ele></trkpt><trkpt lat="45.851693" lon="9.193936"><time>2024-05-04T08:25:53.000Z</time><ele>1116.2</ele></trkpt><trkpt lat="45.851705" lon="9.193941"><time>2024-05-04T08:25:54.000Z</time><ele>1116.2</ele></trkpt><trkpt lat="45.851716" lon="9.193944"><time>2024-05-04T08:25:55.000Z</time><ele>1116.4</ele></trkpt><trkpt lat="45.851727" lon="9.193949"><time>2024-05-04T08:25:56.000Z</time><ele>1116.4</ele></trkpt><trkpt lat="45.851739" lon="9.193956"><time>2024-05-04T08:25:57.000Z</time><ele>1116.6</ele></trkpt><trkpt lat="45.851753" lon="9.193959"><time>2024-05-04T08:25:58.000Z</time><ele>1116.6</ele></trkpt><trkpt lat="45.851767" lon="9.193962"><time>2024-05-04T08:25:59.000Z</time><ele>1116.6</ele></trkpt><trkpt lat="45.851779" lon="9.193966"><time>2024-05-04T08:26:00.000Z</time><ele>1116.6</ele></trkpt><trkpt lat="45.851791" lon="9.193968"><time>2024-05-04T08:26:01.000Z</time><ele>1116.8</ele></trkpt><trkpt lat="45.851805" lon="9.193965"><time>2024-05-04T08:26:02.000Z</time><ele>1116.8</ele></trkpt><trkpt lat="45.851817" lon="9.19396"><time>2024-05-04T08:26:03.000Z</time><ele>1117</ele></trkpt><trkpt lat="45.851831" lon="9.193955"><time>2024-05-04T08:26:04.000Z</time><ele>1117</ele></trkpt><trkpt lat="45.851846" lon="9.19395"><time>2024-05-04T08:26:05.000Z</time><ele>1117.2</ele></trkpt><trkpt lat="45.851862" lon="9.193939"><time>2024-05-04T08:26:06.000Z</time><ele>1117.2</ele></trkpt><trkpt lat="45.851872" lon="9.193925"><time>2024-05-04T08:26:07.000Z</time><ele>1117.4</ele></trkpt><trkpt lat="45.851884" lon="9.193913"><time>2024-05-04T08:26:08.000Z</time><ele>1117.8</ele></trkpt><trkpt lat="45.851898" lon="9.193901"><time>2024-05-04T08:26:09.000Z</time><ele>1118</ele></trkpt><trkpt lat="45.851913" lon="9.193889"><time>2024-05-04T08:26:10.000Z</time><ele>1118</ele></trkpt><trkpt lat="45.851924" lon="9.193881"><time>2024-05-04T08:26:11.000Z</time><ele>1118</ele></trkpt><trkpt lat="45.851941" lon="9.193878"><time>2024-05-04T08:26:12.000Z</time><ele>1118.2</ele></trkpt><trkpt lat="45.851956" lon="9.193877"><time>2024-05-04T08:26:13.000Z</time><ele>1118.4</ele></trkpt><trkpt lat="45.851972" lon="9.193872"><time>2024-05-04T08:26:14.000Z</time><ele>1118.4</ele></trkpt><trkpt lat="45.851986" lon="9.193863"><time>2024-05-04T08:26:15.000Z</time><ele>1118.4</ele></trkpt><trkpt lat="45.852" lon="9.193842"><time>2024-05-04T08:26:16.000Z</time><ele>1118.4</ele></trkpt><trkpt lat="45.852011" lon="9.193822"><time>2024-05-04T08:26:17.000Z</time><ele>1118.4</ele></trkpt><trkpt lat="45.852019" lon="9.193806"><time>2024-05-04T08:26:18.000Z</time><ele>1118.4</ele></trkpt><trkpt lat="45.852026" lon="9.193792"><time>2024-05-04T08:26:19.000Z</time><ele>1118.4</ele></trkpt><trkpt lat="45.852032" lon="9.193781"><time>2024-05-04T08:26:20.000Z</time><ele>1118.4</ele></trkpt><trkpt lat="45.85203" lon="9.193779"><time>2024-05-04T08:26:21.000Z</time><ele>1118.4</ele></trkpt><trkpt lat="45.852034" lon="9.193775"><time>2024-05-04T08:26:22.000Z</time><ele>1118.4</ele></trkpt><trkpt lat="45.852039" lon="9.193768"><time>2024-05-04T08:26:23.000Z</time><ele>1118.4</ele></trkpt><trkpt lat="45.852046" lon="9.193762"><time>2024-05-04T08:26:24.000Z</time><ele>1118.4</ele></trkpt><trkpt lat="45.852054" lon="9.193754"><time>2024-05-04T08:26:25.000Z</time><ele>1118.4</ele></trkpt><trkpt lat="45.852063" lon="9.193753"><time>2024-05-04T08:26:26.000Z</time><ele>1118.4</ele></trkpt><trkpt lat="45.852073" lon="9.193754"><time>2024-05-04T08:26:27.000Z</time><ele>1118.2</ele></trkpt><trkpt lat="45.852086" lon="9.193765"><time>2024-05-04T08:26:28.000Z</time><ele>1118.2</ele></trkpt><trkpt lat="45.852097" lon="9.193772"><time>2024-05-04T08:26:29.000Z</time><ele>1118.2</ele></trkpt><trkpt lat="45.852111" lon="9.193774"><time>2024-05-04T08:26:30.000Z</time><ele>1118.2</ele></trkpt><trkpt lat="45.852124" lon="9.193774"><time>2024-05-04T08:26:31.000Z</time><ele>1118.2</ele></trkpt><trkpt lat="45.852127" lon="9.193772"><time>2024-05-04T08:26:32.000Z</time><ele>1118.2</ele></trkpt><trkpt lat="45.852136" lon="9.193771"><time>2024-05-04T08:26:33.000Z</time><ele>1118.4</ele></trkpt><trkpt lat="45.852144" lon="9.193773"><time>2024-05-04T08:26:34.000Z</time><ele>1118.4</ele></trkpt><trkpt lat="45.852156" lon="9.193769"><time>2024-05-04T08:26:35.000Z</time><ele>1118.4</ele></trkpt><trkpt lat="45.852165" lon="9.193771"><time>2024-05-04T08:26:36.000Z</time><ele>1118.4</ele></trkpt><trkpt lat="45.852176" lon="9.193772"><time>2024-05-04T08:26:37.000Z</time><ele>1118.4</ele></trkpt><trkpt lat="45.852187" lon="9.193767"><time>2024-05-04T08:26:38.000Z</time><ele>1118.4</ele></trkpt><trkpt lat="45.852194" lon="9.193756"><time>2024-05-04T08:26:39.000Z</time><ele>1118.4</ele></trkpt><trkpt lat="45.852204" lon="9.193744"><time>2024-05-04T08:26:40.000Z</time><ele>1118.4</ele></trkpt><trkpt lat="45.852215" lon="9.193739"><time>2024-05-04T08:26:41.000Z</time><ele>1118.6</ele></trkpt><trkpt lat="45.852229" lon="9.19374"><time>2024-05-04T08:26:42.000Z</time><ele>1118.6</ele></trkpt><trkpt lat="45.852249" lon="9.193744"><time>2024-05-04T08:26:43.000Z</time><ele>1118.8</ele></trkpt><trkpt lat="45.85226" lon="9.193748"><time>2024-05-04T08:26:44.000Z</time><ele>1118.8</ele></trkpt><trkpt lat="45.85227" lon="9.193748"><time>2024-05-04T08:26:45.000Z</time><ele>1119</ele></trkpt><trkpt lat="45.852282" lon="9.193747"><time>2024-05-04T08:26:46.000Z</time><ele>1119</ele></trkpt><trkpt lat="45.852293" lon="9.193753"><time>2024-05-04T08:26:47.000Z</time><ele>1119.2</ele></trkpt><trkpt lat="45.852302" lon="9.19376"><time>2024-05-04T08:26:48.000Z</time><ele>1119.4</ele></trkpt><trkpt lat="45.85231" lon="9.193767"><time>2024-05-04T08:26:49.000Z</time><ele>1119.4</ele></trkpt><trkpt lat="45.85232" lon="9.193771"><time>2024-05-04T08:26:50.000Z</time><ele>1119.6</ele></trkpt><trkpt lat="45.852329" lon="9.193773"><time>2024-05-04T08:26:51.000Z</time><ele>1119.8</ele></trkpt><trkpt lat="45.852339" lon="9.193772"><time>2024-05-04T08:26:52.000Z</time><ele>1120</ele></trkpt><trkpt lat="45.852349" lon="9.193769"><time>2024-05-04T08:26:53.000Z</time><ele>1120.4</ele></trkpt><trkpt lat="45.852357" lon="9.193769"><time>2024-05-04T08:26:54.000Z</time><ele>1120.4</ele></trkpt><trkpt lat="45.852361" lon="9.193772"><time>2024-05-04T08:26:55.000Z</time><ele>1120.8</ele></trkpt><trkpt lat="45.852361" lon="9.193775"><time>2024-05-04T08:26:56.000Z</time><ele>1120.8</ele></trkpt><trkpt lat="45.852362" lon="9.193777"><time>2024-05-04T08:26:57.000Z</time><ele>1121</ele></trkpt><trkpt lat="45.852364" lon="9.193778"><time>2024-05-04T08:26:58.000Z</time><ele>1121.2</ele></trkpt><trkpt lat="45.852367" lon="9.193779"><time>2024-05-04T08:26:59.000Z</time><ele>1121.6</ele></trkpt><trkpt lat="45.85239" lon="9.193763"><time>2024-05-04T08:27:00.000Z</time><ele>1121.8</ele></trkpt><trkpt lat="45.852401" lon="9.193764"><time>2024-05-04T08:27:01.000Z</time><ele>1122</ele></trkpt><trkpt lat="45.852409" lon="9.193767"><time>2024-05-04T08:27:02.000Z</time><ele>1122.2</ele></trkpt><trkpt lat="45.852418" lon="9.19377"><time>2024-05-04T08:27:03.000Z</time><ele>1122.2</ele></trkpt><trkpt lat="45.852424" lon="9.193774"><time>2024-05-04T08:27:04.000Z</time><ele>1122.4</ele></trkpt><trkpt lat="45.852428" lon="9.193778"><time>2024-05-04T08:27:05.000Z</time><ele>1122.4</ele></trkpt><trkpt lat="45.852433" lon="9.193781"><time>2024-05-04T08:27:06.000Z</time><ele>1122.6</ele></trkpt><trkpt lat="45.85244" lon="9.193783"><time>2024-05-04T08:27:07.000Z</time><ele>1122.8</ele></trkpt><trkpt lat="45.85245" lon="9.193785"><time>2024-05-04T08:27:08.000Z</time><ele>1123</ele></trkpt><trkpt lat="45.85246" lon="9.193788"><time>2024-05-04T08:27:09.000Z</time><ele>1123.4</ele></trkpt><trkpt lat="45.852469" lon="9.193792"><time>2024-05-04T08:27:10.000Z</time><ele>1123.6</ele></trkpt><trkpt lat="45.852479" lon="9.193794"><time>2024-05-04T08:27:11.000Z</time><ele>1123.8</ele></trkpt><trkpt lat="45.852487" lon="9.193797"><time>2024-05-04T08:27:12.000Z</time><ele>1124</ele></trkpt><trkpt lat="45.852494" lon="9.1938"><time>2024-05-04T08:27:13.000Z</time><ele>1124.2</ele></trkpt><trkpt lat="45.852503" lon="9.193801"><time>2024-05-04T08:27:14.000Z</time><ele>1124.4</ele></trkpt><trkpt lat="45.85251" lon="9.193802"><time>2024-05-04T08:27:15.000Z</time><ele>1124.6</ele></trkpt><trkpt lat="45.85252" lon="9.193806"><time>2024-05-04T08:27:16.000Z</time><ele>1124.6</ele></trkpt><trkpt lat="45.85253" lon="9.193809"><time>2024-05-04T08:27:17.000Z</time><ele>1124.8</ele></trkpt><trkpt lat="45.852541" lon="9.193812"><time>2024-05-04T08:27:18.000Z</time><ele>1125</ele></trkpt><trkpt lat="45.852551" lon="9.193814"><time>2024-05-04T08:27:19.000Z</time><ele>1125</ele></trkpt><trkpt lat="45.85256" lon="9.193814"><time>2024-05-04T08:27:20.000Z</time><ele>1125.2</ele></trkpt><trkpt lat="45.852571" lon="9.193813"><time>2024-05-04T08:27:21.000Z</time><ele>1125.4</ele></trkpt><trkpt lat="45.852581" lon="9.193808"><time>2024-05-04T08:27:22.000Z</time><ele>1125.4</ele></trkpt><trkpt lat="45.852592" lon="9.193797"><time>2024-05-04T08:27:23.000Z</time><ele>1125.6</ele></trkpt><trkpt lat="45.852603" lon="9.193782"><time>2024-05-04T08:27:24.000Z</time><ele>1125.8</ele></trkpt><trkpt lat="45.852611" lon="9.193769"><time>2024-05-04T08:27:25.000Z</time><ele>1125.8</ele></trkpt><trkpt lat="45.852621" lon="9.193756"><time>2024-05-04T08:27:26.000Z</time><ele>1126</ele></trkpt><trkpt lat="45.852636" lon="9.193748"><time>2024-05-04T08:27:27.000Z</time><ele>1126</ele></trkpt><trkpt lat="45.852648" lon="9.193735"><time>2024-05-04T08:27:28.000Z</time><ele>1126</ele></trkpt><trkpt lat="45.852655" lon="9.193722"><time>2024-05-04T08:27:29.000Z</time><ele>1126.2</ele></trkpt><trkpt lat="45.852661" lon="9.193709"><time>2024-05-04T08:27:30.000Z</time><ele>1126.2</ele></trkpt><trkpt lat="45.852668" lon="9.193696"><time>2024-05-04T08:27:31.000Z</time><ele>1126.4</ele></trkpt><trkpt lat="45.852678" lon="9.193683"><time>2024-05-04T08:27:32.000Z</time><ele>1126.4</ele></trkpt><trkpt lat="45.852685" lon="9.193673"><time>2024-05-04T08:27:33.000Z</time><ele>1126.6</ele></trkpt><trkpt lat="45.852687" lon="9.193667"><time>2024-05-04T08:27:34.000Z</time><ele>1126.8</ele></trkpt><trkpt lat="45.852697" lon="9.193662"><time>2024-05-04T08:27:35.000Z</time><ele>1126.8</ele></trkpt><trkpt lat="45.852705" lon="9.193651"><time>2024-05-04T08:27:36.000Z</time><ele>1126.8</ele></trkpt><trkpt lat="45.852717" lon="9.193636"><time>2024-05-04T08:27:37.000Z</time><ele>1127.2</ele></trkpt><trkpt lat="45.85273" lon="9.193624"><time>2024-05-04T08:27:38.000Z</time><ele>1127.4</ele></trkpt><trkpt lat="45.852741" lon="9.193607"><time>2024-05-04T08:27:39.000Z</time><ele>1127.4</ele></trkpt><trkpt lat="45.852746" lon="9.193598"><time>2024-05-04T08:27:40.000Z</time><ele>1127.6</ele></trkpt><trkpt lat="45.852755" lon="9.193589"><time>2024-05-04T08:27:41.000Z</time><ele>1127.8</ele></trkpt><trkpt lat="45.852765" lon="9.193584"><time>2024-05-04T08:27:42.000Z</time><ele>1127.8</ele></trkpt><trkpt lat="45.852778" lon="9.193582"><time>2024-05-04T08:27:43.000Z</time><ele>1127.8</ele></trkpt><trkpt lat="45.85279" lon="9.193582"><time>2024-05-04T08:27:44.000Z</time><ele>1128</ele></trkpt><trkpt lat="45.852798" lon="9.193576"><time>2024-05-04T08:27:45.000Z</time><ele>1128.2</ele></trkpt><trkpt lat="45.852807" lon="9.193564"><time>2024-05-04T08:27:46.000Z</time><ele>1128.2</ele></trkpt><trkpt lat="45.852814" lon="9.193551"><time>2024-05-04T08:27:47.000Z</time><ele>1128.4</ele></trkpt><trkpt lat="45.852818" lon="9.193544"><time>2024-05-04T08:27:48.000Z</time><ele>1128.6</ele></trkpt><trkpt lat="45.852824" lon="9.19354"><time>2024-05-04T08:27:49.000Z</time><ele>1128.8</ele></trkpt><trkpt lat="45.852831" lon="9.193536"><time>2024-05-04T08:27:50.000Z</time><ele>1129</ele></trkpt><trkpt lat="45.852838" lon="9.193524"><time>2024-05-04T08:27:51.000Z</time><ele>1129</ele></trkpt><trkpt lat="45.852846" lon="9.193511"><time>2024-05-04T08:27:52.000Z</time><ele>1129.2</ele></trkpt><trkpt lat="45.852854" lon="9.193499"><time>2024-05-04T08:27:53.000Z</time><ele>1129.4</ele></trkpt><trkpt lat="45.852865" lon="9.193491"><time>2024-05-04T08:27:54.000Z</time><ele>1129.6</ele></trkpt><trkpt lat="45.852879" lon="9.193482"><time>2024-05-04T08:27:55.000Z</time><ele>1129.8</ele></trkpt><trkpt lat="45.852891" lon="9.193476"><time>2024-05-04T08:27:56.000Z</time><ele>1129.8</ele></trkpt><trkpt lat="45.852905" lon="9.193469"><time>2024-05-04T08:27:57.000Z</time><ele>1130</ele></trkpt><trkpt lat="45.852913" lon="9.193461"><time>2024-05-04T08:27:58.000Z</time><ele>1130</ele></trkpt><trkpt lat="45.852918" lon="9.193455"><time>2024-05-04T08:27:59.000Z</time><ele>1130.2</ele></trkpt><trkpt lat="45.852922" lon="9.193449"><time>2024-05-04T08:28:00.000Z</time><ele>1130.6</ele></trkpt><trkpt lat="45.85293" lon="9.193443"><time>2024-05-04T08:28:01.000Z</time><ele>1130.8</ele></trkpt><trkpt lat="45.852939" lon="9.193434"><time>2024-05-04T08:28:02.000Z</time><ele>1131</ele></trkpt><trkpt lat="45.852947" lon="9.193428"><time>2024-05-04T08:28:03.000Z</time><ele>1131</ele></trkpt><trkpt lat="45.852958" lon="9.193421"><time>2024-05-04T08:28:04.000Z</time><ele>1131.2</ele></trkpt><trkpt lat="45.852965" lon="9.193414"><time>2024-05-04T08:28:05.000Z</time><ele>1131.6</ele></trkpt><trkpt lat="45.852973" lon="9.193408"><time>2024-05-04T08:28:06.000Z</time><ele>1131.8</ele></trkpt><trkpt lat="45.852978" lon="9.193404"><time>2024-05-04T08:28:07.000Z</time><ele>1132</ele></trkpt><trkpt lat="45.852987" lon="9.193393"><time>2024-05-04T08:28:08.000Z</time><ele>1132.4</ele></trkpt><trkpt lat="45.852996" lon="9.193381"><time>2024-05-04T08:28:09.000Z</time><ele>1132.6</ele></trkpt><trkpt lat="45.852999" lon="9.193378"><time>2024-05-04T08:28:10.000Z</time><ele>1133</ele></trkpt><trkpt lat="45.853008" lon="9.193373"><time>2024-05-04T08:28:11.000Z</time><ele>1133.2</ele></trkpt><trkpt lat="45.853009" lon="9.193366"><time>2024-05-04T08:28:12.000Z</time><ele>1133.2</ele></trkpt><trkpt lat="45.853013" lon="9.193354"><time>2024-05-04T08:28:13.000Z</time><ele>1133.4</ele></trkpt><trkpt lat="45.853017" lon="9.193346"><time>2024-05-04T08:28:14.000Z</time><ele>1133.4</ele></trkpt><trkpt lat="45.853022" lon="9.19334"><time>2024-05-04T08:28:15.000Z</time><ele>1133.4</ele></trkpt><trkpt lat="45.853028" lon="9.193331"><time>2024-05-04T08:28:16.000Z</time><ele>1133.6</ele></trkpt><trkpt lat="45.853033" lon="9.193321"><time>2024-05-04T08:28:17.000Z</time><ele>1133.8</ele></trkpt><trkpt lat="45.853037" lon="9.19331"><time>2024-05-04T08:28:18.000Z</time><ele>1134</ele></trkpt><trkpt lat="45.853039" lon="9.193298"><time>2024-05-04T08:28:19.000Z</time><ele>1134</ele></trkpt><trkpt lat="45.853044" lon="9.19328"><time>2024-05-04T08:28:20.000Z</time><ele>1134.2</ele></trkpt><trkpt lat="45.853048" lon="9.193264"><time>2024-05-04T08:28:21.000Z</time><ele>1134.2</ele></trkpt><trkpt lat="45.85305" lon="9.193258"><time>2024-05-04T08:28:22.000Z</time><ele>1134.2</ele></trkpt><trkpt lat="45.853069" lon="9.193255"><time>2024-05-04T08:28:23.000Z</time><ele>1134.4</ele></trkpt><trkpt lat="45.853072" lon="9.193251"><time>2024-05-04T08:28:24.000Z</time><ele>1134.6</ele></trkpt><trkpt lat="45.853071" lon="9.19325"><time>2024-05-04T08:28:25.000Z</time><ele>1134.8</ele></trkpt><trkpt lat="45.853071" lon="9.193252"><time>2024-05-04T08:28:26.000Z</time><ele>1135</ele></trkpt><trkpt lat="45.853071" lon="9.193253"><time>2024-05-04T08:28:27.000Z</time><ele>1135.2</ele></trkpt><trkpt lat="45.853069" lon="9.193252"><time>2024-05-04T08:28:28.000Z</time><ele>1135.2</ele></trkpt><trkpt lat="45.853065" lon="9.193249"><time>2024-05-04T08:28:29.000Z</time><ele>1135.2</ele></trkpt><trkpt lat="45.853061" lon="9.193247"><time>2024-05-04T08:28:30.000Z</time><ele>1135.2</ele></trkpt><trkpt lat="45.853059" lon="9.193247"><time>2024-05-04T08:28:31.000Z</time><ele>1135.2</ele></trkpt><trkpt lat="45.853055" lon="9.193245"><time>2024-05-04T08:28:32.000Z</time><ele>1135</ele></trkpt><trkpt lat="45.853055" lon="9.193242"><time>2024-05-04T08:28:33.000Z</time><ele>1135</ele></trkpt><trkpt lat="45.853055" lon="9.193241"><time>2024-05-04T08:28:34.000Z</time><ele>1135</ele></trkpt><trkpt lat="45.853057" lon="9.193239"><time>2024-05-04T08:28:35.000Z</time><ele>1135</ele></trkpt><trkpt lat="45.853058" lon="9.193238"><time>2024-05-04T08:28:36.000Z</time><ele>1135</ele></trkpt><trkpt lat="45.853063" lon="9.193241"><time>2024-05-04T08:28:37.000Z</time><ele>1135</ele></trkpt><trkpt lat="45.853066" lon="9.193241"><time>2024-05-04T08:28:38.000Z</time><ele>1135</ele></trkpt><trkpt lat="45.853072" lon="9.193235"><time>2024-05-04T08:28:39.000Z</time><ele>1135</ele></trkpt><trkpt lat="45.853075" lon="9.193233"><time>2024-05-04T08:28:40.000Z</time><ele>1135</ele></trkpt><trkpt lat="45.853076" lon="9.193233"><time>2024-05-04T08:28:41.000Z</time><ele>1135</ele></trkpt><trkpt lat="45.853078" lon="9.193232"><time>2024-05-04T08:28:42.000Z</time><ele>1135</ele></trkpt><trkpt lat="45.85308" lon="9.193228"><time>2024-05-04T08:28:43.000Z</time><ele>1135</ele></trkpt><trkpt lat="45.853079" lon="9.193226"><time>2024-05-04T08:28:44.000Z</time><ele>1135</ele></trkpt><trkpt lat="45.853081" lon="9.193224"><time>2024-05-04T08:28:45.000Z</time><ele>1135</ele></trkpt><trkpt lat="45.853079" lon="9.193221"><time>2024-05-04T08:28:46.000Z</time><ele>1135</ele></trkpt><trkpt lat="45.85308" lon="9.193224"><time>2024-05-04T08:28:47.000Z</time><ele>1135</ele></trkpt><trkpt lat="45.853079" lon="9.193227"><time>2024-05-04T08:28:48.000Z</time><ele>1135</ele></trkpt><trkpt lat="45.853076" lon="9.193226"><time>2024-05-04T08:28:49.000Z</time><ele>1135</ele></trkpt><trkpt lat="45.853075" lon="9.193221"><time>2024-05-04T08:28:50.000Z</time><ele>1135</ele></trkpt><trkpt lat="45.853074" lon="9.193213"><time>2024-05-04T08:28:51.000Z</time><ele>1135</ele></trkpt><trkpt lat="45.853074" lon="9.193212"><time>2024-05-04T08:28:52.000Z</time><ele>1135.2</ele></trkpt><trkpt lat="45.853072" lon="9.193209"><time>2024-05-04T08:28:53.000Z</time><ele>1135.2</ele></trkpt><trkpt lat="45.853073" lon="9.193208"><time>2024-05-04T08:28:54.000Z</time><ele>1135.2</ele></trkpt><trkpt lat="45.853081" lon="9.19321"><time>2024-05-04T08:28:55.000Z</time><ele>1135.4</ele></trkpt><trkpt lat="45.853087" lon="9.193206"><time>2024-05-04T08:28:56.000Z</time><ele>1135.4</ele></trkpt><trkpt lat="45.853096" lon="9.193194"><time>2024-05-04T08:28:57.000Z</time><ele>1135.4</ele></trkpt><trkpt lat="45.853101" lon="9.193186"><time>2024-05-04T08:28:58.000Z</time><ele>1135.4</ele></trkpt><trkpt lat="45.853106" lon="9.193181"><time>2024-05-04T08:28:59.000Z</time><ele>1135.4</ele></trkpt><trkpt lat="45.853112" lon="9.193176"><time>2024-05-04T08:29:00.000Z</time><ele>1135.6</ele></trkpt><trkpt lat="45.853117" lon="9.193173"><time>2024-05-04T08:29:01.000Z</time><ele>1135.6</ele></trkpt><trkpt lat="45.853123" lon="9.193174"><time>2024-05-04T08:29:02.000Z</time><ele>1135.6</ele></trkpt><trkpt lat="45.853129" lon="9.193173"><time>2024-05-04T08:29:03.000Z</time><ele>1135.6</ele></trkpt><trkpt lat="45.853134" lon="9.19317"><time>2024-05-04T08:29:04.000Z</time><ele>1135.8</ele></trkpt><trkpt lat="45.85314" lon="9.193172"><time>2024-05-04T08:29:05.000Z</time><ele>1135.8</ele></trkpt><trkpt lat="45.853144" lon="9.193171"><time>2024-05-04T08:29:06.000Z</time><ele>1135.8</ele></trkpt><trkpt lat="45.853147" lon="9.193174"><time>2024-05-04T08:29:07.000Z</time><ele>1135.6</ele></trkpt><trkpt lat="45.853151" lon="9.193184"><time>2024-05-04T08:29:08.000Z</time><ele>1135.6</ele></trkpt><trkpt lat="45.853164" lon="9.193199"><time>2024-05-04T08:29:09.000Z</time><ele>1135.4</ele></trkpt><trkpt lat="45.853169" lon="9.193203"><time>2024-05-04T08:29:10.000Z</time><ele>1135.4</ele></trkpt><trkpt lat="45.853171" lon="9.193208"><time>2024-05-04T08:29:11.000Z</time><ele>1135.4</ele></trkpt><trkpt lat="45.853173" lon="9.193213"><time>2024-05-04T08:29:12.000Z</time><ele>1135.6</ele></trkpt><trkpt lat="45.853173" lon="9.193228"><time>2024-05-04T08:29:13.000Z</time><ele>1135.6</ele></trkpt><trkpt lat="45.853179" lon="9.193237"><time>2024-05-04T08:29:14.000Z</time><ele>1135.6</ele></trkpt><trkpt lat="45.853186" lon="9.193244"><time>2024-05-04T08:29:15.000Z</time><ele>1135.6</ele></trkpt><trkpt lat="45.85319" lon="9.193253"><time>2024-05-04T08:29:16.000Z</time><ele>1135.6</ele></trkpt><trkpt lat="45.853193" lon="9.193256"><time>2024-05-04T08:29:17.000Z</time><ele>1135.6</ele></trkpt><trkpt lat="45.853193" lon="9.193265"><time>2024-05-04T08:29:18.000Z</time><ele>1135.6</ele></trkpt><trkpt lat="45.853194" lon="9.193271"><time>2024-05-04T08:29:19.000Z</time><ele>1135.8</ele></trkpt><trkpt lat="45.853201" lon="9.19327"><time>2024-05-04T08:29:20.000Z</time><ele>1135.8</ele></trkpt><trkpt lat="45.853205" lon="9.193271"><time>2024-05-04T08:29:21.000Z</time><ele>1135.8</ele></trkpt><trkpt lat="45.853217" lon="9.193273"><time>2024-05-04T08:29:22.000Z</time><ele>1135.8</ele></trkpt><trkpt lat="45.853223" lon="9.193275"><time>2024-05-04T08:29:23.000Z</time><ele>1135.8</ele></trkpt><trkpt lat="45.853228" lon="9.193276"><time>2024-05-04T08:29:24.000Z</time><ele>1135.8</ele></trkpt><trkpt lat="45.853233" lon="9.193274"><time>2024-05-04T08:29:25.000Z</time><ele>1135.8</ele></trkpt><trkpt lat="45.853235" lon="9.193274"><time>2024-05-04T08:29:26.000Z</time><ele>1135.8</ele></trkpt><trkpt lat="45.853242" lon="9.193281"><time>2024-05-04T08:29:27.000Z</time><ele>1135.6</ele></trkpt><trkpt lat="45.853255" lon="9.193279"><time>2024-05-04T08:29:28.000Z</time><ele>1135.6</ele></trkpt><trkpt lat="45.853269" lon="9.19328"><time>2024-05-04T08:29:29.000Z</time><ele>1135.6</ele></trkpt><trkpt lat="45.853282" lon="9.193283"><time>2024-05-04T08:29:30.000Z</time><ele>1135.6</ele></trkpt><trkpt lat="45.853292" lon="9.19329"><time>2024-05-04T08:29:31.000Z</time><ele>1135.4</ele></trkpt><trkpt lat="45.853301" lon="9.1933"><time>2024-05-04T08:29:32.000Z</time><ele>1135.4</ele></trkpt><trkpt lat="45.853309" lon="9.19331"><time>2024-05-04T08:29:33.000Z</time><ele>1135.2</ele></trkpt><trkpt lat="45.853316" lon="9.193319"><time>2024-05-04T08:29:34.000Z</time><ele>1135.2</ele></trkpt><trkpt lat="45.853325" lon="9.193326"><time>2024-05-04T08:29:35.000Z</time><ele>1135</ele></trkpt><trkpt lat="45.853337" lon="9.193329"><time>2024-05-04T08:29:36.000Z</time><ele>1135</ele></trkpt><trkpt lat="45.853351" lon="9.193339"><time>2024-05-04T08:29:37.000Z</time><ele>1135</ele></trkpt><trkpt lat="45.853359" lon="9.193351"><time>2024-05-04T08:29:38.000Z</time><ele>1135</ele></trkpt><trkpt lat="45.853363" lon="9.193357"><time>2024-05-04T08:29:39.000Z</time><ele>1135</ele></trkpt><trkpt lat="45.853364" lon="9.193363"><time>2024-05-04T08:29:40.000Z</time><ele>1135</ele></trkpt><trkpt lat="45.853367" lon="9.193376"><time>2024-05-04T08:29:41.000Z</time><ele>1135</ele></trkpt><trkpt lat="45.853372" lon="9.193384"><time>2024-05-04T08:29:42.000Z</time><ele>1135</ele></trkpt><trkpt lat="45.853381" lon="9.193393"><time>2024-05-04T08:29:43.000Z</time><ele>1135</ele></trkpt><trkpt lat="45.853388" lon="9.193405"><time>2024-05-04T08:29:44.000Z</time><ele>1135.2</ele></trkpt><trkpt lat="45.853395" lon="9.193412"><time>2024-05-04T08:29:45.000Z</time><ele>1135.2</ele></trkpt><trkpt lat="45.853399" lon="9.193415"><time>2024-05-04T08:29:46.000Z</time><ele>1135.4</ele></trkpt><trkpt lat="45.853399" lon="9.193429"><time>2024-05-04T08:29:47.000Z</time><ele>1135.6</ele></trkpt><trkpt lat="45.853404" lon="9.19344"><time>2024-05-04T08:29:48.000Z</time><ele>1135.8</ele></trkpt><trkpt lat="45.853414" lon="9.193442"><time>2024-05-04T08:29:49.000Z</time><ele>1135.8</ele></trkpt><trkpt lat="45.853427" lon="9.193443"><time>2024-05-04T08:29:50.000Z</time><ele>1136</ele></trkpt><trkpt lat="45.853438" lon="9.193452"><time>2024-05-04T08:29:51.000Z</time><ele>1136.2</ele></trkpt><trkpt lat="45.853445" lon="9.193454"><time>2024-05-04T08:29:52.000Z</time><ele>1136.2</ele></trkpt><trkpt lat="45.853455" lon="9.193454"><time>2024-05-04T08:29:53.000Z</time><ele>1136.4</ele></trkpt><trkpt lat="45.853466" lon="9.193454"><time>2024-05-04T08:29:54.000Z</time><ele>1136.6</ele></trkpt><trkpt lat="45.85348" lon="9.193448"><time>2024-05-04T08:29:55.000Z</time><ele>1136.8</ele></trkpt><trkpt lat="45.853493" lon="9.193446"><time>2024-05-04T08:29:56.000Z</time><ele>1136.8</ele></trkpt><trkpt lat="45.853508" lon="9.193445"><time>2024-05-04T08:29:57.000Z</time><ele>1137</ele></trkpt><trkpt lat="45.853521" lon="9.193449"><time>2024-05-04T08:29:58.000Z</time><ele>1137.2</ele></trkpt><trkpt lat="45.853532" lon="9.19345"><time>2024-05-04T08:29:59.000Z</time><ele>1137.4</ele></trkpt><trkpt lat="45.853555" lon="9.193452"><time>2024-05-04T08:30:00.000Z</time><ele>1137.4</ele></trkpt><trkpt lat="45.853576" lon="9.193449"><time>2024-05-04T08:30:01.000Z</time><ele>1137.6</ele></trkpt><trkpt lat="45.853593" lon="9.193447"><time>2024-05-04T08:30:02.000Z</time><ele>1137.6</ele></trkpt><trkpt lat="45.853608" lon="9.193438"><time>2024-05-04T08:30:03.000Z</time><ele>1137.6</ele></trkpt><trkpt lat="45.853618" lon="9.193426"><time>2024-05-04T08:30:04.000Z</time><ele>1137.6</ele></trkpt><trkpt lat="45.853629" lon="9.193416"><time>2024-05-04T08:30:05.000Z</time><ele>1137.4</ele></trkpt><trkpt lat="45.85364" lon="9.193412"><time>2024-05-04T08:30:06.000Z</time><ele>1137.4</ele></trkpt><trkpt lat="45.853653" lon="9.193418"><time>2024-05-04T08:30:07.000Z</time><ele>1137.4</ele></trkpt><trkpt lat="45.853667" lon="9.19343"><time>2024-05-04T08:30:08.000Z</time><ele>1137.4</ele></trkpt><trkpt lat="45.853673" lon="9.193434"><time>2024-05-04T08:30:09.000Z</time><ele>1137.2</ele></trkpt><trkpt lat="45.85368" lon="9.193455"><time>2024-05-04T08:30:10.000Z</time><ele>1137.2</ele></trkpt><trkpt lat="45.853685" lon="9.19346"><time>2024-05-04T08:30:11.000Z</time><ele>1137</ele></trkpt><trkpt lat="45.853694" lon="9.193472"><time>2024-05-04T08:30:12.000Z</time><ele>1137</ele></trkpt><trkpt lat="45.853699" lon="9.193486"><time>2024-05-04T08:30:13.000Z</time><ele>1136.8</ele></trkpt><trkpt lat="45.8537" lon="9.193495"><time>2024-05-04T08:30:14.000Z</time><ele>1136.8</ele></trkpt><trkpt lat="45.853699" lon="9.193502"><time>2024-05-04T08:30:15.000Z</time><ele>1136.8</ele></trkpt><trkpt lat="45.853704" lon="9.193504"><time>2024-05-04T08:30:16.000Z</time><ele>1136.8</ele></trkpt><trkpt lat="45.853707" lon="9.193502"><time>2024-05-04T08:30:17.000Z</time><ele>1136.8</ele></trkpt><trkpt lat="45.853717" lon="9.193503"><time>2024-05-04T08:30:18.000Z</time><ele>1136.6</ele></trkpt><trkpt lat="45.853731" lon="9.193508"><time>2024-05-04T08:30:19.000Z</time><ele>1136.4</ele></trkpt><trkpt lat="45.853739" lon="9.193517"><time>2024-05-04T08:30:20.000Z</time><ele>1136.2</ele></trkpt><trkpt lat="45.85375" lon="9.193525"><time>2024-05-04T08:30:21.000Z</time><ele>1136</ele></trkpt><trkpt lat="45.85376" lon="9.193534"><time>2024-05-04T08:30:22.000Z</time><ele>1135.8</ele></trkpt><trkpt lat="45.853766" lon="9.193545"><time>2024-05-04T08:30:23.000Z</time><ele>1135.8</ele></trkpt><trkpt lat="45.853771" lon="9.193557"><time>2024-05-04T08:30:24.000Z</time><ele>1135.8</ele></trkpt><trkpt lat="45.853776" lon="9.193572"><time>2024-05-04T08:30:25.000Z</time><ele>1135.6</ele></trkpt><trkpt lat="45.853784" lon="9.193585"><time>2024-05-04T08:30:26.000Z</time><ele>1135.6</ele></trkpt><trkpt lat="45.853798" lon="9.19359"><time>2024-05-04T08:30:27.000Z</time><ele>1135.4</ele></trkpt><trkpt lat="45.853812" lon="9.193596"><time>2024-05-04T08:30:28.000Z</time><ele>1135.4</ele></trkpt><trkpt lat="45.853822" lon="9.1936"><time>2024-05-04T08:30:29.000Z</time><ele>1135.2</ele></trkpt><trkpt lat="45.853835" lon="9.193603"><time>2024-05-04T08:30:30.000Z</time><ele>1135.2</ele></trkpt><trkpt lat="45.853846" lon="9.193601"><time>2024-05-04T08:30:31.000Z</time><ele>1135.2</ele></trkpt><trkpt lat="45.853854" lon="9.193598"><time>2024-05-04T08:30:32.000Z</time><ele>1135.2</ele></trkpt><trkpt lat="45.853866" lon="9.193599"><time>2024-05-04T08:30:33.000Z</time><ele>1135.2</ele></trkpt><trkpt lat="45.853882" lon="9.193605"><time>2024-05-04T08:30:34.000Z</time><ele>1135.2</ele></trkpt><trkpt lat="45.853895" lon="9.193607"><time>2024-05-04T08:30:35.000Z</time><ele>1135.2</ele></trkpt><trkpt lat="45.853911" lon="9.193606"><time>2024-05-04T08:30:36.000Z</time><ele>1135.2</ele></trkpt><trkpt lat="45.853924" lon="9.193603"><time>2024-05-04T08:30:37.000Z</time><ele>1135.4</ele></trkpt><trkpt lat="45.853934" lon="9.193603"><time>2024-05-04T08:30:38.000Z</time><ele>1135.4</ele></trkpt><trkpt lat="45.853942" lon="9.193604"><time>2024-05-04T08:30:39.000Z</time><ele>1135.6</ele></trkpt><trkpt lat="45.853951" lon="9.193604"><time>2024-05-04T08:30:40.000Z</time><ele>1135.6</ele></trkpt><trkpt lat="45.853968" lon="9.193601"><time>2024-05-04T08:30:41.000Z</time><ele>1135.6</ele></trkpt><trkpt lat="45.853983" lon="9.193598"><time>2024-05-04T08:30:42.000Z</time><ele>1135.6</ele></trkpt><trkpt lat="45.853994" lon="9.193596"><time>2024-05-04T08:30:43.000Z</time><ele>1135.8</ele></trkpt><trkpt lat="45.854005" lon="9.193596"><time>2024-05-04T08:30:44.000Z</time><ele>1135.8</ele></trkpt><trkpt lat="45.854017" lon="9.193595"><time>2024-05-04T08:30:45.000Z</time><ele>1136</ele></trkpt><trkpt lat="45.854023" lon="9.193595"><time>2024-05-04T08:30:46.000Z</time><ele>1136.2</ele></trkpt><trkpt lat="45.854035" lon="9.193597"><time>2024-05-04T08:30:47.000Z</time><ele>1136.4</ele></trkpt><trkpt lat="45.854037" lon="9.193599"><time>2024-05-04T08:30:48.000Z</time><ele>1136.6</ele></trkpt><trkpt lat="45.854044" lon="9.193601"><time>2024-05-04T08:30:49.000Z</time><ele>1136.8</ele></trkpt><trkpt lat="45.854053" lon="9.193606"><time>2024-05-04T08:30:50.000Z</time><ele>1137</ele></trkpt><trkpt lat="45.854062" lon="9.193615"><time>2024-05-04T08:30:51.000Z</time><ele>1137.2</ele></trkpt><trkpt lat="45.854072" lon="9.193617"><time>2024-05-04T08:30:52.000Z</time><ele>1137.4</ele></trkpt><trkpt lat="45.854075" lon="9.193619"><time>2024-05-04T08:30:53.000Z</time><ele>1137.6</ele></trkpt><trkpt lat="45.854084" lon="9.193614"><time>2024-05-04T08:30:54.000Z</time><ele>1138</ele></trkpt><trkpt lat="45.854087" lon="9.193619"><time>2024-05-04T08:30:55.000Z</time><ele>1138.2</ele></trkpt><trkpt lat="45.854091" lon="9.193622"><time>2024-05-04T08:30:56.000Z</time><ele>1138.4</ele></trkpt><trkpt lat="45.854099" lon="9.19363"><time>2024-05-04T08:30:57.000Z</time><ele>1138.6</ele></trkpt><trkpt lat="45.854108" lon="9.193633"><time>2024-05-04T08:30:58.000Z</time><ele>1138.8</ele></trkpt><trkpt lat="45.854111" lon="9.193633"><time>2024-05-04T08:30:59.000Z</time><ele>1139</ele></trkpt><trkpt lat="45.854118" lon="9.193642"><time>2024-05-04T08:31:00.000Z</time><ele>1139.2</ele></trkpt><trkpt lat="45.854123" lon="9.193641"><time>2024-05-04T08:31:01.000Z</time><ele>1139.4</ele></trkpt><trkpt lat="45.85413" lon="9.193641"><time>2024-05-04T08:31:02.000Z</time><ele>1139.8</ele></trkpt><trkpt lat="45.854136" lon="9.193647"><time>2024-05-04T08:31:03.000Z</time><ele>1140</ele></trkpt><trkpt lat="45.854139" lon="9.193648"><time>2024-05-04T08:31:04.000Z</time><ele>1140.2</ele></trkpt><trkpt lat="45.854148" lon="9.193666"><time>2024-05-04T08:31:05.000Z</time><ele>1140.4</ele></trkpt><trkpt lat="45.854163" lon="9.193681"><time>2024-05-04T08:31:06.000Z</time><ele>1140.6</ele></trkpt><trkpt lat="45.854168" lon="9.193695"><time>2024-05-04T08:31:07.000Z</time><ele>1140.8</ele></trkpt><trkpt lat="45.854175" lon="9.193705"><time>2024-05-04T08:31:08.000Z</time><ele>1141</ele></trkpt><trkpt lat="45.854181" lon="9.193718"><time>2024-05-04T08:31:09.000Z</time><ele>1141.2</ele></trkpt><trkpt lat="45.854186" lon="9.193724"><time>2024-05-04T08:31:10.000Z</time><ele>1141.4</ele></trkpt><trkpt lat="45.854193" lon="9.193724"><time>2024-05-04T08:31:11.000Z</time><ele>1141.4</ele></trkpt><trkpt lat="45.854203" lon="9.193721"><time>2024-05-04T08:31:12.000Z</time><ele>1141.6</ele></trkpt><trkpt lat="45.854211" lon="9.19372"><time>2024-05-04T08:31:13.000Z</time><ele>1141.8</ele></trkpt><trkpt lat="45.854219" lon="9.193723"><time>2024-05-04T08:31:14.000Z</time><ele>1142.2</ele></trkpt><trkpt lat="45.854224" lon="9.193729"><time>2024-05-04T08:31:15.000Z</time><ele>1142.2</ele></trkpt><trkpt lat="45.854231" lon="9.193738"><time>2024-05-04T08:31:16.000Z</time><ele>1142.4</ele></trkpt><trkpt lat="45.854239" lon="9.193749"><time>2024-05-04T08:31:17.000Z</time><ele>1142.6</ele></trkpt><trkpt lat="45.854247" lon="9.193757"><time>2024-05-04T08:31:18.000Z</time><ele>1142.8</ele></trkpt><trkpt lat="45.854251" lon="9.193767"><time>2024-05-04T08:31:19.000Z</time><ele>1143</ele></trkpt><trkpt lat="45.854259" lon="9.193778"><time>2024-05-04T08:31:20.000Z</time><ele>1143</ele></trkpt><trkpt lat="45.854265" lon="9.193787"><time>2024-05-04T08:31:21.000Z</time><ele>1143</ele></trkpt><trkpt lat="45.85427" lon="9.193795"><time>2024-05-04T08:31:22.000Z</time><ele>1143.2</ele></trkpt><trkpt lat="45.854277" lon="9.193807"><time>2024-05-04T08:31:23.000Z</time><ele>1143.2</ele></trkpt><trkpt lat="45.854288" lon="9.19382"><time>2024-05-04T08:31:24.000Z</time><ele>1143.2</ele></trkpt><trkpt lat="45.854303" lon="9.193835"><time>2024-05-04T08:31:25.000Z</time><ele>1143.2</ele></trkpt><trkpt lat="45.854319" lon="9.193844"><time>2024-05-04T08:31:26.000Z</time><ele>1143.4</ele></trkpt><trkpt lat="45.854327" lon="9.19386"><time>2024-05-04T08:31:27.000Z</time><ele>1143.6</ele></trkpt><trkpt lat="45.854336" lon="9.193872"><time>2024-05-04T08:31:28.000Z</time><ele>1143.8</ele></trkpt><trkpt lat="45.854348" lon="9.193885"><time>2024-05-04T08:31:29.000Z</time><ele>1143.8</ele></trkpt><trkpt lat="45.854357" lon="9.193902"><time>2024-05-04T08:31:30.000Z</time><ele>1143.8</ele></trkpt><trkpt lat="45.854356" lon="9.193906"><time>2024-05-04T08:31:31.000Z</time><ele>1143.8</ele></trkpt><trkpt lat="45.854361" lon="9.193914"><time>2024-05-04T08:31:32.000Z</time><ele>1144</ele></trkpt><trkpt lat="45.854369" lon="9.193926"><time>2024-05-04T08:31:33.000Z</time><ele>1144</ele></trkpt><trkpt lat="45.854376" lon="9.193939"><time>2024-05-04T08:31:34.000Z</time><ele>1144</ele></trkpt><trkpt lat="45.854387" lon="9.193945"><time>2024-05-04T08:31:35.000Z</time><ele>1144</ele></trkpt><trkpt lat="45.854393" lon="9.193958"><time>2024-05-04T08:31:36.000Z</time><ele>1144</ele></trkpt><trkpt lat="45.854402" lon="9.193965"><time>2024-05-04T08:31:37.000Z</time><ele>1144</ele></trkpt><trkpt lat="45.854413" lon="9.193973"><time>2024-05-04T08:31:38.000Z</time><ele>1144</ele></trkpt><trkpt lat="45.854426" lon="9.19398"><time>2024-05-04T08:31:39.000Z</time><ele>1144</ele></trkpt><trkpt lat="45.85443" lon="9.193984"><time>2024-05-04T08:31:40.000Z</time><ele>1144.2</ele></trkpt><trkpt lat="45.854449" lon="9.193992"><time>2024-05-04T08:31:41.000Z</time><ele>1144.2</ele></trkpt><trkpt lat="45.854459" lon="9.193998"><time>2024-05-04T08:31:42.000Z</time><ele>1144.2</ele></trkpt><trkpt lat="45.854467" lon="9.194002"><time>2024-05-04T08:31:43.000Z</time><ele>1144.4</ele></trkpt><trkpt lat="45.854475" lon="9.194013"><time>2024-05-04T08:31:44.000Z</time><ele>1144.4</ele></trkpt><trkpt lat="45.854484" lon="9.194019"><time>2024-05-04T08:31:45.000Z</time><ele>1144.4</ele></trkpt><trkpt lat="45.854493" lon="9.194022"><time>2024-05-04T08:31:46.000Z</time><ele>1144.6</ele></trkpt><trkpt lat="45.854499" lon="9.194026"><time>2024-05-04T08:31:47.000Z</time><ele>1144.6</ele></trkpt><trkpt lat="45.854506" lon="9.194027"><time>2024-05-04T08:31:48.000Z</time><ele>1144.8</ele></trkpt><trkpt lat="45.854509" lon="9.194035"><time>2024-05-04T08:31:49.000Z</time><ele>1145</ele></trkpt><trkpt lat="45.854515" lon="9.194045"><time>2024-05-04T08:31:50.000Z</time><ele>1145.2</ele></trkpt><trkpt lat="45.854524" lon="9.194054"><time>2024-05-04T08:31:51.000Z</time><ele>1145.4</ele></trkpt><trkpt lat="45.854533" lon="9.19406"><time>2024-05-04T08:31:52.000Z</time><ele>1145.4</ele></trkpt><trkpt lat="45.854542" lon="9.19407"><time>2024-05-04T08:31:53.000Z</time><ele>1145.4</ele></trkpt><trkpt lat="45.85455" lon="9.194086"><time>2024-05-04T08:31:54.000Z</time><ele>1145.6</ele></trkpt><trkpt lat="45.854558" lon="9.194094"><time>2024-05-04T08:31:55.000Z</time><ele>1145.8</ele></trkpt><trkpt lat="45.854572" lon="9.194105"><time>2024-05-04T08:31:56.000Z</time><ele>1145.8</ele></trkpt><trkpt lat="45.854582" lon="9.194108"><time>2024-05-04T08:31:57.000Z</time><ele>1146</ele></trkpt><trkpt lat="45.854593" lon="9.194108"><time>2024-05-04T08:31:58.000Z</time><ele>1146</ele></trkpt><trkpt lat="45.854601" lon="9.194111"><time>2024-05-04T08:31:59.000Z</time><ele>1146.2</ele></trkpt><trkpt lat="45.854606" lon="9.194117"><time>2024-05-04T08:32:00.000Z</time><ele>1146.4</ele></trkpt><trkpt lat="45.854615" lon="9.194131"><time>2024-05-04T08:32:01.000Z</time><ele>1146.4</ele></trkpt><trkpt lat="45.854622" lon="9.19414"><time>2024-05-04T08:32:02.000Z</time><ele>1146.6</ele></trkpt><trkpt lat="45.854633" lon="9.194149"><time>2024-05-04T08:32:03.000Z</time><ele>1146.6</ele></trkpt><trkpt lat="45.854646" lon="9.194152"><time>2024-05-04T08:32:04.000Z</time><ele>1146.6</ele></trkpt><trkpt lat="45.854657" lon="9.194153"><time>2024-05-04T08:32:05.000Z</time><ele>1146.8</ele></trkpt><trkpt lat="45.854663" lon="9.194155"><time>2024-05-04T08:32:06.000Z</time><ele>1147</ele></trkpt><trkpt lat="45.85467" lon="9.194161"><time>2024-05-04T08:32:07.000Z</time><ele>1147</ele></trkpt><trkpt lat="45.854675" lon="9.194171"><time>2024-05-04T08:32:08.000Z</time><ele>1147</ele></trkpt><trkpt lat="45.854684" lon="9.194176"><time>2024-05-04T08:32:09.000Z</time><ele>1147.2</ele></trkpt><trkpt lat="45.854689" lon="9.19418"><time>2024-05-04T08:32:10.000Z</time><ele>1147.2</ele></trkpt><trkpt lat="45.854692" lon="9.194181"><time>2024-05-04T08:32:11.000Z</time><ele>1147.4</ele></trkpt><trkpt lat="45.854698" lon="9.194182"><time>2024-05-04T08:32:12.000Z</time><ele>1147.4</ele></trkpt><trkpt lat="45.854702" lon="9.194183"><time>2024-05-04T08:32:13.000Z</time><ele>1147.6</ele></trkpt><trkpt lat="45.854707" lon="9.194189"><time>2024-05-04T08:32:14.000Z</time><ele>1147.8</ele></trkpt><trkpt lat="45.854712" lon="9.194201"><time>2024-05-04T08:32:15.000Z</time><ele>1147.8</ele></trkpt><trkpt lat="45.854713" lon="9.194215"><time>2024-05-04T08:32:16.000Z</time><ele>1148</ele></trkpt><trkpt lat="45.854714" lon="9.194227"><time>2024-05-04T08:32:17.000Z</time><ele>1148.2</ele></trkpt><trkpt lat="45.854717" lon="9.194243"><time>2024-05-04T08:32:18.000Z</time><ele>1148.2</ele></trkpt><trkpt lat="45.854721" lon="9.194253"><time>2024-05-04T08:32:19.000Z</time><ele>1148.4</ele></trkpt><trkpt lat="45.854729" lon="9.194261"><time>2024-05-04T08:32:20.000Z</time><ele>1148.6</ele></trkpt><trkpt lat="45.854732" lon="9.194269"><time>2024-05-04T08:32:21.000Z</time><ele>1149</ele></trkpt><trkpt lat="45.854734" lon="9.194271"><time>2024-05-04T08:32:22.000Z</time><ele>1149.2</ele></trkpt><trkpt lat="45.854739" lon="9.194276"><time>2024-05-04T08:32:23.000Z</time><ele>1149.2</ele></trkpt><trkpt lat="45.854747" lon="9.194286"><time>2024-05-04T08:32:24.000Z</time><ele>1149.6</ele></trkpt><trkpt lat="45.854753" lon="9.194292"><time>2024-05-04T08:32:25.000Z</time><ele>1149.8</ele></trkpt><trkpt lat="45.854761" lon="9.194303"><time>2024-05-04T08:32:26.000Z</time><ele>1150</ele></trkpt><trkpt lat="45.854769" lon="9.194308"><time>2024-05-04T08:32:27.000Z</time><ele>1150</ele></trkpt><trkpt lat="45.854772" lon="9.194316"><time>2024-05-04T08:32:28.000Z</time><ele>1150.2</ele></trkpt><trkpt lat="45.854774" lon="9.19433"><time>2024-05-04T08:32:29.000Z</time><ele>1150.4</ele></trkpt><trkpt lat="45.854779" lon="9.194342"><time>2024-05-04T08:32:30.000Z</time><ele>1150.6</ele></trkpt><trkpt lat="45.854784" lon="9.194356"><time>2024-05-04T08:32:31.000Z</time><ele>1150.8</ele></trkpt><trkpt lat="45.854789" lon="9.194369"><time>2024-05-04T08:32:32.000Z</time><ele>1151.2</ele></trkpt><trkpt lat="45.854796" lon="9.194372"><time>2024-05-04T08:32:33.000Z</time><ele>1151.4</ele></trkpt><trkpt lat="45.854802" lon="9.194377"><time>2024-05-04T08:32:34.000Z</time><ele>1151.4</ele></trkpt><trkpt lat="45.854811" lon="9.19439"><time>2024-05-04T08:32:35.000Z</time><ele>1151.8</ele></trkpt><trkpt lat="45.854819" lon="9.194396"><time>2024-05-04T08:32:36.000Z</time><ele>1152</ele></trkpt><trkpt lat="45.854823" lon="9.194405"><time>2024-05-04T08:32:37.000Z</time><ele>1152.2</ele></trkpt><trkpt lat="45.854832" lon="9.194411"><time>2024-05-04T08:32:38.000Z</time><ele>1152.4</ele></trkpt><trkpt lat="45.854841" lon="9.194415"><time>2024-05-04T08:32:39.000Z</time><ele>1152.8</ele></trkpt><trkpt lat="45.854851" lon="9.19442"><time>2024-05-04T08:32:40.000Z</time><ele>1153</ele></trkpt><trkpt lat="45.854857" lon="9.19443"><time>2024-05-04T08:32:41.000Z</time><ele>1153.2</ele></trkpt><trkpt lat="45.854865" lon="9.194437"><time>2024-05-04T08:32:42.000Z</time><ele>1153.4</ele></trkpt><trkpt lat="45.854877" lon="9.194437"><time>2024-05-04T08:32:43.000Z</time><ele>1153.6</ele></trkpt><trkpt lat="45.854887" lon="9.194436"><time>2024-05-04T08:32:44.000Z</time><ele>1153.8</ele></trkpt><trkpt lat="45.854897" lon="9.194437"><time>2024-05-04T08:32:45.000Z</time><ele>1154.2</ele></trkpt><trkpt lat="45.854901" lon="9.194441"><time>2024-05-04T08:32:46.000Z</time><ele>1154.2</ele></trkpt><trkpt lat="45.854908" lon="9.194447"><time>2024-05-04T08:32:47.000Z</time><ele>1154.6</ele></trkpt><trkpt lat="45.854914" lon="9.194449"><time>2024-05-04T08:32:48.000Z</time><ele>1154.8</ele></trkpt><trkpt lat="45.854922" lon="9.194457"><time>2024-05-04T08:32:49.000Z</time><ele>1154.8</ele></trkpt><trkpt lat="45.854925" lon="9.194466"><time>2024-05-04T08:32:50.000Z</time><ele>1155.2</ele></trkpt><trkpt lat="45.854925" lon="9.194476"><time>2024-05-04T08:32:51.000Z</time><ele>1155.4</ele></trkpt><trkpt lat="45.854927" lon="9.194486"><time>2024-05-04T08:32:52.000Z</time><ele>1155.6</ele></trkpt><trkpt lat="45.85493" lon="9.194492"><time>2024-05-04T08:32:53.000Z</time><ele>1156</ele></trkpt><trkpt lat="45.854933" lon="9.194495"><time>2024-05-04T08:32:54.000Z</time><ele>1156</ele></trkpt><trkpt lat="45.854938" lon="9.194504"><time>2024-05-04T08:32:55.000Z</time><ele>1156.4</ele></trkpt><trkpt lat="45.854943" lon="9.194512"><time>2024-05-04T08:32:56.000Z</time><ele>1156.4</ele></trkpt><trkpt lat="45.854944" lon="9.194522"><time>2024-05-04T08:32:57.000Z</time><ele>1156.8</ele></trkpt><trkpt lat="45.854949" lon="9.194538"><time>2024-05-04T08:32:58.000Z</time><ele>1157</ele></trkpt><trkpt lat="45.854954" lon="9.194553"><time>2024-05-04T08:32:59.000Z</time><ele>1157</ele></trkpt><trkpt lat="45.854962" lon="9.194568"><time>2024-05-04T08:33:00.000Z</time><ele>1157.2</ele></trkpt><trkpt lat="45.854969" lon="9.194584"><time>2024-05-04T08:33:01.000Z</time><ele>1157.4</ele></trkpt><trkpt lat="45.854976" lon="9.194596"><time>2024-05-04T08:33:02.000Z</time><ele>1157.4</ele></trkpt><trkpt lat="45.854982" lon="9.194607"><time>2024-05-04T08:33:03.000Z</time><ele>1157.4</ele></trkpt><trkpt lat="45.854987" lon="9.194617"><time>2024-05-04T08:33:04.000Z</time><ele>1157.6</ele></trkpt><trkpt lat="45.854993" lon="9.194628"><time>2024-05-04T08:33:05.000Z</time><ele>1157.6</ele></trkpt><trkpt lat="45.855002" lon="9.194639"><time>2024-05-04T08:33:06.000Z</time><ele>1157.8</ele></trkpt><trkpt lat="45.855009" lon="9.19465"><time>2024-05-04T08:33:07.000Z</time><ele>1158</ele></trkpt><trkpt lat="45.855012" lon="9.194656"><time>2024-05-04T08:33:08.000Z</time><ele>1158</ele></trkpt><trkpt lat="45.855018" lon="9.194669"><time>2024-05-04T08:33:09.000Z</time><ele>1158</ele></trkpt><trkpt lat="45.855029" lon="9.194678"><time>2024-05-04T08:33:10.000Z</time><ele>1158.2</ele></trkpt><trkpt lat="45.855039" lon="9.194701"><time>2024-05-04T08:33:11.000Z</time><ele>1158.2</ele></trkpt><trkpt lat="45.855048" lon="9.194721"><time>2024-05-04T08:33:12.000Z</time><ele>1158.2</ele></trkpt><trkpt lat="45.855055" lon="9.194741"><time>2024-05-04T08:33:13.000Z</time><ele>1158.6</ele></trkpt><trkpt lat="45.85506" lon="9.194761"><time>2024-05-04T08:33:14.000Z</time><ele>1158.6</ele></trkpt><trkpt lat="45.855064" lon="9.19477"><time>2024-05-04T08:33:15.000Z</time><ele>1158.6</ele></trkpt><trkpt lat="45.855068" lon="9.194775"><time>2024-05-04T08:33:16.000Z</time><ele>1158.8</ele></trkpt><trkpt lat="45.855073" lon="9.19478"><time>2024-05-04T08:33:17.000Z</time><ele>1158.6</ele></trkpt><trkpt lat="45.855079" lon="9.194792"><time>2024-05-04T08:33:18.000Z</time><ele>1158.6</ele></trkpt><trkpt lat="45.855084" lon="9.194806"><time>2024-05-04T08:33:19.000Z</time><ele>1158.6</ele></trkpt><trkpt lat="45.855088" lon="9.194821"><time>2024-05-04T08:33:20.000Z</time><ele>1158.6</ele></trkpt><trkpt lat="45.855092" lon="9.194834"><time>2024-05-04T08:33:21.000Z</time><ele>1158.4</ele></trkpt><trkpt lat="45.855097" lon="9.194846"><time>2024-05-04T08:33:22.000Z</time><ele>1158.4</ele></trkpt><trkpt lat="45.855103" lon="9.194853"><time>2024-05-04T08:33:23.000Z</time><ele>1158.4</ele></trkpt><trkpt lat="45.855111" lon="9.194862"><time>2024-05-04T08:33:24.000Z</time><ele>1158.4</ele></trkpt><trkpt lat="45.855121" lon="9.194869"><time>2024-05-04T08:33:25.000Z</time><ele>1158.4</ele></trkpt><trkpt lat="45.85513" lon="9.194882"><time>2024-05-04T08:33:26.000Z</time><ele>1158.2</ele></trkpt><trkpt lat="45.855138" lon="9.194899"><time>2024-05-04T08:33:27.000Z</time><ele>1158.2</ele></trkpt><trkpt lat="45.855142" lon="9.194912"><time>2024-05-04T08:33:28.000Z</time><ele>1158.2</ele></trkpt><trkpt lat="45.855148" lon="9.194927"><time>2024-05-04T08:33:29.000Z</time><ele>1158</ele></trkpt><trkpt lat="45.855152" lon="9.194941"><time>2024-05-04T08:33:30.000Z</time><ele>1158</ele></trkpt><trkpt lat="45.855156" lon="9.194948"><time>2024-05-04T08:33:31.000Z</time><ele>1158</ele></trkpt><trkpt lat="45.855158" lon="9.194956"><time>2024-05-04T08:33:32.000Z</time><ele>1157.8</ele></trkpt><trkpt lat="45.855166" lon="9.194966"><time>2024-05-04T08:33:33.000Z</time><ele>1157.4</ele></trkpt><trkpt lat="45.855171" lon="9.194978"><time>2024-05-04T08:33:34.000Z</time><ele>1157.2</ele></trkpt><trkpt lat="45.855177" lon="9.194993"><time>2024-05-04T08:33:35.000Z</time><ele>1157</ele></trkpt><trkpt lat="45.855182" lon="9.195008"><time>2024-05-04T08:33:36.000Z</time><ele>1157</ele></trkpt><trkpt lat="45.855193" lon="9.195024"><time>2024-05-04T08:33:37.000Z</time><ele>1157</ele></trkpt><trkpt lat="45.855204" lon="9.195038"><time>2024-05-04T08:33:38.000Z</time><ele>1157</ele></trkpt><trkpt lat="45.855219" lon="9.195046"><time>2024-05-04T08:33:39.000Z</time><ele>1157</ele></trkpt><trkpt lat="45.855228" lon="9.195053"><time>2024-05-04T08:33:40.000Z</time><ele>1157</ele></trkpt><trkpt lat="45.855238" lon="9.195067"><time>2024-05-04T08:33:41.000Z</time><ele>1156.8</ele></trkpt><trkpt lat="45.855248" lon="9.195086"><time>2024-05-04T08:33:42.000Z</time><ele>1156.8</ele></trkpt><trkpt lat="45.855254" lon="9.195102"><time>2024-05-04T08:33:43.000Z</time><ele>1156.6</ele></trkpt><trkpt lat="45.855257" lon="9.195119"><time>2024-05-04T08:33:44.000Z</time><ele>1156.6</ele></trkpt><trkpt lat="45.85526" lon="9.195136"><time>2024-05-04T08:33:45.000Z</time><ele>1156.6</ele></trkpt><trkpt lat="45.855267" lon="9.195152"><time>2024-05-04T08:33:46.000Z</time><ele>1156.6</ele></trkpt><trkpt lat="45.855278" lon="9.195169"><time>2024-05-04T08:33:47.000Z</time><ele>1156.6</ele></trkpt><trkpt lat="45.855294" lon="9.195186"><time>2024-05-04T08:33:48.000Z</time><ele>1156.6</ele></trkpt><trkpt lat="45.855308" lon="9.195205"><time>2024-05-04T08:33:49.000Z</time><ele>1156.4</ele></trkpt><trkpt lat="45.855317" lon="9.195226"><time>2024-05-04T08:33:50.000Z</time><ele>1156.4</ele></trkpt><trkpt lat="45.85532" lon="9.195231"><time>2024-05-04T08:33:51.000Z</time><ele>1156.2</ele></trkpt><trkpt lat="45.855321" lon="9.195233"><time>2024-05-04T08:33:52.000Z</time><ele>1156.2</ele></trkpt><trkpt lat="45.855322" lon="9.195233"><time>2024-05-04T08:33:53.000Z</time><ele>1156.2</ele></trkpt><trkpt lat="45.855325" lon="9.195233"><time>2024-05-04T08:33:54.000Z</time><ele>1156.4</ele></trkpt><trkpt lat="45.855326" lon="9.195231"><time>2024-05-04T08:33:55.000Z</time><ele>1156.4</ele></trkpt><trkpt lat="45.855324" lon="9.195228"><time>2024-05-04T08:33:56.000Z</time><ele>1156.6</ele></trkpt><trkpt lat="45.855325" lon="9.195229"><time>2024-05-04T08:33:57.000Z</time><ele>1156.6</ele></trkpt><trkpt lat="45.855326" lon="9.195232"><time>2024-05-04T08:33:58.000Z</time><ele>1156.6</ele></trkpt><trkpt lat="45.855329" lon="9.195239"><time>2024-05-04T08:33:59.000Z</time><ele>1156.6</ele></trkpt><trkpt lat="45.855333" lon="9.195251"><time>2024-05-04T08:34:00.000Z</time><ele>1156.6</ele></trkpt><trkpt lat="45.855338" lon="9.195263"><time>2024-05-04T08:34:01.000Z</time><ele>1156.6</ele></trkpt><trkpt lat="45.855341" lon="9.195275"><time>2024-05-04T08:34:02.000Z</time><ele>1156.6</ele></trkpt><trkpt lat="45.855341" lon="9.195291"><time>2024-05-04T08:34:03.000Z</time><ele>1156.6</ele></trkpt><trkpt lat="45.855345" lon="9.195299"><time>2024-05-04T08:34:04.000Z</time><ele>1156.6</ele></trkpt><trkpt lat="45.855355" lon="9.19531"><time>2024-05-04T08:34:05.000Z</time><ele>1156.8</ele></trkpt><trkpt lat="45.855364" lon="9.195317"><time>2024-05-04T08:34:06.000Z</time><ele>1156.8</ele></trkpt><trkpt lat="45.85537" lon="9.195325"><time>2024-05-04T08:34:07.000Z</time><ele>1156.8</ele></trkpt><trkpt lat="45.855376" lon="9.195341"><time>2024-05-04T08:34:08.000Z</time><ele>1156.8</ele></trkpt><trkpt lat="45.855376" lon="9.195359"><time>2024-05-04T08:34:09.000Z</time><ele>1156.8</ele></trkpt><trkpt lat="45.85538" lon="9.195381"><time>2024-05-04T08:34:10.000Z</time><ele>1156.8</ele></trkpt><trkpt lat="45.855387" lon="9.195398"><time>2024-05-04T08:34:11.000Z</time><ele>1156.8</ele></trkpt><trkpt lat="45.855387" lon="9.195409"><time>2024-05-04T08:34:12.000Z</time><ele>1156.8</ele></trkpt><trkpt lat="45.85539" lon="9.195425"><time>2024-05-04T08:34:13.000Z</time><ele>1156.8</ele></trkpt><trkpt lat="45.855398" lon="9.195442"><time>2024-05-04T08:34:14.000Z</time><ele>1156.8</ele></trkpt><trkpt lat="45.855405" lon="9.195456"><time>2024-05-04T08:34:15.000Z</time><ele>1156.8</ele></trkpt><trkpt lat="45.855412" lon="9.195471"><time>2024-05-04T08:34:16.000Z</time><ele>1157</ele></trkpt><trkpt lat="45.855417" lon="9.195488"><time>2024-05-04T08:34:17.000Z</time><ele>1157</ele></trkpt><trkpt lat="45.855418" lon="9.195504"><time>2024-05-04T08:34:18.000Z</time><ele>1157.2</ele></trkpt><trkpt lat="45.855419" lon="9.195516"><time>2024-05-04T08:34:19.000Z</time><ele>1157.2</ele></trkpt><trkpt lat="45.855424" lon="9.195526"><time>2024-05-04T08:34:20.000Z</time><ele>1157.2</ele></trkpt><trkpt lat="45.855427" lon="9.195532"><time>2024-05-04T08:34:21.000Z</time><ele>1157.4</ele></trkpt><trkpt lat="45.855428" lon="9.195543"><time>2024-05-04T08:34:22.000Z</time><ele>1157.6</ele></trkpt><trkpt lat="45.85543" lon="9.195556"><time>2024-05-04T08:34:23.000Z</time><ele>1157.8</ele></trkpt><trkpt lat="45.855432" lon="9.195572"><time>2024-05-04T08:34:24.000Z</time><ele>1157.8</ele></trkpt><trkpt lat="45.855434" lon="9.19559"><time>2024-05-04T08:34:25.000Z</time><ele>1158</ele></trkpt><trkpt lat="45.855439" lon="9.195601"><time>2024-05-04T08:34:26.000Z</time><ele>1158</ele></trkpt><trkpt lat="45.855447" lon="9.195609"><time>2024-05-04T08:34:27.000Z</time><ele>1158.2</ele></trkpt><trkpt lat="45.855454" lon="9.195619"><time>2024-05-04T08:34:28.000Z</time><ele>1158.2</ele></trkpt><trkpt lat="45.855463" lon="9.195633"><time>2024-05-04T08:34:29.000Z</time><ele>1158.4</ele></trkpt><trkpt lat="45.855471" lon="9.195648"><time>2024-05-04T08:34:30.000Z</time><ele>1158.6</ele></trkpt><trkpt lat="45.855475" lon="9.195658"><time>2024-05-04T08:34:31.000Z</time><ele>1158.6</ele></trkpt><trkpt lat="45.855478" lon="9.19567"><time>2024-05-04T08:34:32.000Z</time><ele>1158.6</ele></trkpt><trkpt lat="45.85548" lon="9.19569"><time>2024-05-04T08:34:33.000Z</time><ele>1158.8</ele></trkpt><trkpt lat="45.855487" lon="9.195711"><time>2024-05-04T08:34:34.000Z</time><ele>1158.8</ele></trkpt><trkpt lat="45.8555" lon="9.195725"><time>2024-05-04T08:34:35.000Z</time><ele>1158.8</ele></trkpt><trkpt lat="45.85551" lon="9.19574"><time>2024-05-04T08:34:36.000Z</time><ele>1158.8</ele></trkpt><trkpt lat="45.855521" lon="9.195746"><time>2024-05-04T08:34:37.000Z</time><ele>1158.8</ele></trkpt><trkpt lat="45.855523" lon="9.195758"><time>2024-05-04T08:34:38.000Z</time><ele>1158.8</ele></trkpt><trkpt lat="45.855531" lon="9.19577"><time>2024-05-04T08:34:39.000Z</time><ele>1158.8</ele></trkpt><trkpt lat="45.855544" lon="9.195784"><time>2024-05-04T08:34:40.000Z</time><ele>1159</ele></trkpt><trkpt lat="45.855553" lon="9.195797"><time>2024-05-04T08:34:41.000Z</time><ele>1159</ele></trkpt><trkpt lat="45.855564" lon="9.195809"><time>2024-05-04T08:34:42.000Z</time><ele>1159</ele></trkpt><trkpt lat="45.855569" lon="9.195821"><time>2024-05-04T08:34:43.000Z</time><ele>1159.2</ele></trkpt><trkpt lat="45.855574" lon="9.195837"><time>2024-05-04T08:34:44.000Z</time><ele>1159.2</ele></trkpt><trkpt lat="45.855582" lon="9.195849"><time>2024-05-04T08:34:45.000Z</time><ele>1159.2</ele></trkpt><trkpt lat="45.855589" lon="9.195857"><time>2024-05-04T08:34:46.000Z</time><ele>1159.2</ele></trkpt><trkpt lat="45.85559" lon="9.195862"><time>2024-05-04T08:34:47.000Z</time><ele>1159.2</ele></trkpt><trkpt lat="45.855587" lon="9.195863"><time>2024-05-04T08:34:48.000Z</time><ele>1159.2</ele></trkpt><trkpt lat="45.855585" lon="9.195864"><time>2024-05-04T08:34:49.000Z</time><ele>1159.2</ele></trkpt><trkpt lat="45.855586" lon="9.195863"><time>2024-05-04T08:34:50.000Z</time><ele>1159.2</ele></trkpt><trkpt lat="45.855582" lon="9.195871"><time>2024-05-04T08:34:51.000Z</time><ele>1159.2</ele></trkpt><trkpt lat="45.855582" lon="9.195875"><time>2024-05-04T08:34:52.000Z</time><ele>1159.2</ele></trkpt><trkpt lat="45.855581" lon="9.19588"><time>2024-05-04T08:34:53.000Z</time><ele>1159.2</ele></trkpt><trkpt lat="45.855585" lon="9.195883"><time>2024-05-04T08:34:54.000Z</time><ele>1159.2</ele></trkpt><trkpt lat="45.855591" lon="9.195895"><time>2024-05-04T08:34:55.000Z</time><ele>1159.2</ele></trkpt><trkpt lat="45.855598" lon="9.195906"><time>2024-05-04T08:34:56.000Z</time><ele>1159.2</ele></trkpt><trkpt lat="45.855603" lon="9.195916"><time>2024-05-04T08:34:57.000Z</time><ele>1159.2</ele></trkpt><trkpt lat="45.855608" lon="9.195929"><time>2024-05-04T08:34:58.000Z</time><ele>1159.4</ele></trkpt><trkpt lat="45.855616" lon="9.195945"><time>2024-05-04T08:34:59.000Z</time><ele>1159.4</ele></trkpt><trkpt lat="45.855621" lon="9.195966"><time>2024-05-04T08:35:00.000Z</time><ele>1159.6</ele></trkpt><trkpt lat="45.855628" lon="9.195987"><time>2024-05-04T08:35:01.000Z</time><ele>1159.6</ele></trkpt><trkpt lat="45.855631" lon="9.196009"><time>2024-05-04T08:35:02.000Z</time><ele>1159.6</ele></trkpt><trkpt lat="45.855642" lon="9.196031"><time>2024-05-04T08:35:03.000Z</time><ele>1159.6</ele></trkpt><trkpt lat="45.855654" lon="9.196051"><time>2024-05-04T08:35:04.000Z</time><ele>1159.8</ele></trkpt><trkpt lat="45.855662" lon="9.196066"><time>2024-05-04T08:35:05.000Z</time><ele>1159.8</ele></trkpt><trkpt lat="45.855671" lon="9.196081"><time>2024-05-04T08:35:06.000Z</time><ele>1159.8</ele></trkpt><trkpt lat="45.855679" lon="9.196096"><time>2024-05-04T08:35:07.000Z</time><ele>1159.8</ele></trkpt><trkpt lat="45.855686" lon="9.196102"><time>2024-05-04T08:35:08.000Z</time><ele>1160</ele></trkpt><trkpt lat="45.855691" lon="9.196106"><time>2024-05-04T08:35:09.000Z</time><ele>1160</ele></trkpt><trkpt lat="45.855697" lon="9.196116"><time>2024-05-04T08:35:10.000Z</time><ele>1160</ele></trkpt><trkpt lat="45.8557" lon="9.196127"><time>2024-05-04T08:35:11.000Z</time><ele>1160.2</ele></trkpt><trkpt lat="45.855702" lon="9.196133"><time>2024-05-04T08:35:12.000Z</time><ele>1160.2</ele></trkpt><trkpt lat="45.855708" lon="9.196146"><time>2024-05-04T08:35:13.000Z</time><ele>1160.2</ele></trkpt><trkpt lat="45.855709" lon="9.196161"><time>2024-05-04T08:35:14.000Z</time><ele>1160.4</ele></trkpt><trkpt lat="45.855709" lon="9.196177"><time>2024-05-04T08:35:15.000Z</time><ele>1160.6</ele></trkpt><trkpt lat="45.855711" lon="9.196193"><time>2024-05-04T08:35:16.000Z</time><ele>1160.6</ele></trkpt><trkpt lat="45.855713" lon="9.196209"><time>2024-05-04T08:35:17.000Z</time><ele>1160.8</ele></trkpt><trkpt lat="45.855717" lon="9.196224"><time>2024-05-04T08:35:18.000Z</time><ele>1160.8</ele></trkpt><trkpt lat="45.855727" lon="9.196239"><time>2024-05-04T08:35:19.000Z</time><ele>1160.8</ele></trkpt><trkpt lat="45.855737" lon="9.196252"><time>2024-05-04T08:35:20.000Z</time><ele>1161</ele></trkpt><trkpt lat="45.855757" lon="9.196269"><time>2024-05-04T08:35:21.000Z</time><ele>1161</ele></trkpt><trkpt lat="45.855773" lon="9.19628"><time>2024-05-04T08:35:22.000Z</time><ele>1161.2</ele></trkpt><trkpt lat="45.855786" lon="9.196298"><time>2024-05-04T08:35:23.000Z</time><ele>1161.4</ele></trkpt><trkpt lat="45.855788" lon="9.196315"><time>2024-05-04T08:35:24.000Z</time><ele>1161.4</ele></trkpt><trkpt lat="45.855794" lon="9.196334"><time>2024-05-04T08:35:25.000Z</time><ele>1161.6</ele></trkpt><trkpt lat="45.8558" lon="9.196352"><time>2024-05-04T08:35:26.000Z</time><ele>1161.6</ele></trkpt><trkpt lat="45.855805" lon="9.196362"><time>2024-05-04T08:35:27.000Z</time><ele>1161.8</ele></trkpt><trkpt lat="45.855813" lon="9.196369"><time>2024-05-04T08:35:28.000Z</time><ele>1161.8</ele></trkpt><trkpt lat="45.855819" lon="9.196383"><time>2024-05-04T08:35:29.000Z</time><ele>1161.8</ele></trkpt><trkpt lat="45.855825" lon="9.196401"><time>2024-05-04T08:35:30.000Z</time><ele>1162</ele></trkpt><trkpt lat="45.855833" lon="9.196415"><time>2024-05-04T08:35:31.000Z</time><ele>1162.2</ele></trkpt><trkpt lat="45.85584" lon="9.196428"><time>2024-05-04T08:35:32.000Z</time><ele>1162.2</ele></trkpt><trkpt lat="45.855848" lon="9.196439"><time>2024-05-04T08:35:33.000Z</time><ele>1162.4</ele></trkpt><trkpt lat="45.855848" lon="9.196453"><time>2024-05-04T08:35:34.000Z</time><ele>1162.4</ele></trkpt><trkpt lat="45.855851" lon="9.196462"><time>2024-05-04T08:35:35.000Z</time><ele>1162.4</ele></trkpt><trkpt lat="45.855857" lon="9.196472"><time>2024-05-04T08:35:36.000Z</time><ele>1162.6</ele></trkpt><trkpt lat="45.855862" lon="9.196486"><time>2024-05-04T08:35:37.000Z</time><ele>1162.6</ele></trkpt><trkpt lat="45.855868" lon="9.196498"><time>2024-05-04T08:35:38.000Z</time><ele>1162.6</ele></trkpt><trkpt lat="45.855875" lon="9.196513"><time>2024-05-04T08:35:39.000Z</time><ele>1162.8</ele></trkpt><trkpt lat="45.855881" lon="9.196522"><time>2024-05-04T08:35:40.000Z</time><ele>1163</ele></trkpt><trkpt lat="45.855886" lon="9.196531"><time>2024-05-04T08:35:41.000Z</time><ele>1163.2</ele></trkpt><trkpt lat="45.855888" lon="9.196543"><time>2024-05-04T08:35:42.000Z</time><ele>1163.4</ele></trkpt><trkpt lat="45.855896" lon="9.196556"><time>2024-05-04T08:35:43.000Z</time><ele>1163.4</ele></trkpt><trkpt lat="45.855901" lon="9.196565"><time>2024-05-04T08:35:44.000Z</time><ele>1163.6</ele></trkpt><trkpt lat="45.855907" lon="9.196572"><time>2024-05-04T08:35:45.000Z</time><ele>1163.8</ele></trkpt><trkpt lat="45.855911" lon="9.196577"><time>2024-05-04T08:35:46.000Z</time><ele>1163.8</ele></trkpt><trkpt lat="45.855914" lon="9.196582"><time>2024-05-04T08:35:47.000Z</time><ele>1164</ele></trkpt><trkpt lat="45.855922" lon="9.196588"><time>2024-05-04T08:35:48.000Z</time><ele>1164</ele></trkpt><trkpt lat="45.855931" lon="9.196594"><time>2024-05-04T08:35:49.000Z</time><ele>1164</ele></trkpt><trkpt lat="45.85594" lon="9.196603"><time>2024-05-04T08:35:50.000Z</time><ele>1164.2</ele></trkpt><trkpt lat="45.855947" lon="9.196614"><time>2024-05-04T08:35:51.000Z</time><ele>1164.4</ele></trkpt><trkpt lat="45.855957" lon="9.196623"><time>2024-05-04T08:35:52.000Z</time><ele>1164.4</ele></trkpt><trkpt lat="45.855967" lon="9.19663"><time>2024-05-04T08:35:53.000Z</time><ele>1164.6</ele></trkpt><trkpt lat="45.855976" lon="9.19664"><time>2024-05-04T08:35:54.000Z</time><ele>1164.8</ele></trkpt><trkpt lat="45.85598" lon="9.196651"><time>2024-05-04T08:35:55.000Z</time><ele>1164.8</ele></trkpt><trkpt lat="45.855987" lon="9.196663"><time>2024-05-04T08:35:56.000Z</time><ele>1165</ele></trkpt><trkpt lat="45.85599" lon="9.19667"><time>2024-05-04T08:35:57.000Z</time><ele>1165</ele></trkpt><trkpt lat="45.855995" lon="9.196683"><time>2024-05-04T08:35:58.000Z</time><ele>1165.2</ele></trkpt><trkpt lat="45.856004" lon="9.196696"><time>2024-05-04T08:35:59.000Z</time><ele>1165.2</ele></trkpt><trkpt lat="45.856013" lon="9.196711"><time>2024-05-04T08:36:00.000Z</time><ele>1165.4</ele></trkpt><trkpt lat="45.856019" lon="9.196727"><time>2024-05-04T08:36:01.000Z</time><ele>1165.6</ele></trkpt><trkpt lat="45.856024" lon="9.196742"><time>2024-05-04T08:36:02.000Z</time><ele>1165.6</ele></trkpt><trkpt lat="45.856031" lon="9.19675"><time>2024-05-04T08:36:03.000Z</time><ele>1165.8</ele></trkpt><trkpt lat="45.856036" lon="9.196759"><time>2024-05-04T08:36:04.000Z</time><ele>1165.8</ele></trkpt><trkpt lat="45.856045" lon="9.196767"><time>2024-05-04T08:36:05.000Z</time><ele>1166</ele></trkpt><trkpt lat="45.856058" lon="9.196775"><time>2024-05-04T08:36:06.000Z</time><ele>1166</ele></trkpt><trkpt lat="45.856071" lon="9.196783"><time>2024-05-04T08:36:07.000Z</time><ele>1166</ele></trkpt><trkpt lat="45.856081" lon="9.196791"><time>2024-05-04T08:36:08.000Z</time><ele>1166.2</ele></trkpt><trkpt lat="45.856093" lon="9.196799"><time>2024-05-04T08:36:09.000Z</time><ele>1166.4</ele></trkpt><trkpt lat="45.856103" lon="9.196805"><time>2024-05-04T08:36:10.000Z</time><ele>1166.6</ele></trkpt><trkpt lat="45.856108" lon="9.196813"><time>2024-05-04T08:36:11.000Z</time><ele>1166.6</ele></trkpt><trkpt lat="45.856112" lon="9.19682"><time>2024-05-04T08:36:12.000Z</time><ele>1166.8</ele></trkpt><trkpt lat="45.856118" lon="9.19683"><time>2024-05-04T08:36:13.000Z</time><ele>1167</ele></trkpt><trkpt lat="45.856123" lon="9.196841"><time>2024-05-04T08:36:14.000Z</time><ele>1167</ele></trkpt><trkpt lat="45.85613" lon="9.196847"><time>2024-05-04T08:36:15.000Z</time><ele>1167.2</ele></trkpt><trkpt lat="45.856133" lon="9.19686"><time>2024-05-04T08:36:16.000Z</time><ele>1167.2</ele></trkpt><trkpt lat="45.856139" lon="9.196868"><time>2024-05-04T08:36:17.000Z</time><ele>1167.4</ele></trkpt><trkpt lat="45.856145" lon="9.196868"><time>2024-05-04T08:36:18.000Z</time><ele>1167.4</ele></trkpt><trkpt lat="45.856152" lon="9.196885"><time>2024-05-04T08:36:19.000Z</time><ele>1167.4</ele></trkpt><trkpt lat="45.856157" lon="9.196899"><time>2024-05-04T08:36:20.000Z</time><ele>1167.6</ele></trkpt><trkpt lat="45.856163" lon="9.196916"><time>2024-05-04T08:36:21.000Z</time><ele>1167.6</ele></trkpt><trkpt lat="45.856175" lon="9.196928"><time>2024-05-04T08:36:22.000Z</time><ele>1167.6</ele></trkpt><trkpt lat="45.856184" lon="9.196938"><time>2024-05-04T08:36:23.000Z</time><ele>1167.6</ele></trkpt><trkpt lat="45.856192" lon="9.196949"><time>2024-05-04T08:36:24.000Z</time><ele>1167.8</ele></trkpt><trkpt lat="45.856199" lon="9.196956"><time>2024-05-04T08:36:25.000Z</time><ele>1167.8</ele></trkpt><trkpt lat="45.856209" lon="9.196961"><time>2024-05-04T08:36:26.000Z</time><ele>1167.8</ele></trkpt><trkpt lat="45.856222" lon="9.196966"><time>2024-05-04T08:36:27.000Z</time><ele>1168</ele></trkpt><trkpt lat="45.856231" lon="9.196973"><time>2024-05-04T08:36:28.000Z</time><ele>1168</ele></trkpt><trkpt lat="45.856237" lon="9.196983"><time>2024-05-04T08:36:29.000Z</time><ele>1168.2</ele></trkpt><trkpt lat="45.856239" lon="9.196996"><time>2024-05-04T08:36:30.000Z</time><ele>1168.2</ele></trkpt><trkpt lat="45.85624" lon="9.197008"><time>2024-05-04T08:36:31.000Z</time><ele>1168.4</ele></trkpt><trkpt lat="45.856245" lon="9.197017"><time>2024-05-04T08:36:32.000Z</time><ele>1168.4</ele></trkpt><trkpt lat="45.856256" lon="9.197027"><time>2024-05-04T08:36:33.000Z</time><ele>1168.4</ele></trkpt><trkpt lat="45.856264" lon="9.19704"><time>2024-05-04T08:36:34.000Z</time><ele>1168.4</ele></trkpt><trkpt lat="45.856271" lon="9.19705"><time>2024-05-04T08:36:35.000Z</time><ele>1168.6</ele></trkpt><trkpt lat="45.856277" lon="9.197062"><time>2024-05-04T08:36:36.000Z</time><ele>1168.6</ele></trkpt><trkpt lat="45.856281" lon="9.197066"><time>2024-05-04T08:36:37.000Z</time><ele>1168.8</ele></trkpt><trkpt lat="45.856289" lon="9.197072"><time>2024-05-04T08:36:38.000Z</time><ele>1168.8</ele></trkpt><trkpt lat="45.8563" lon="9.19708"><time>2024-05-04T08:36:39.000Z</time><ele>1168.8</ele></trkpt><trkpt lat="45.856307" lon="9.197084"><time>2024-05-04T08:36:40.000Z</time><ele>1169</ele></trkpt><trkpt lat="45.856316" lon="9.197091"><time>2024-05-04T08:36:41.000Z</time><ele>1169</ele></trkpt><trkpt lat="45.856326" lon="9.197101"><time>2024-05-04T08:36:42.000Z</time><ele>1169.2</ele></trkpt><trkpt lat="45.856337" lon="9.197112"><time>2024-05-04T08:36:43.000Z</time><ele>1169.4</ele></trkpt><trkpt lat="45.856346" lon="9.19712"><time>2024-05-04T08:36:44.000Z</time><ele>1169.4</ele></trkpt><trkpt lat="45.856356" lon="9.197122"><time>2024-05-04T08:36:45.000Z</time><ele>1169.6</ele></trkpt><trkpt lat="45.856369" lon="9.19713"><time>2024-05-04T08:36:46.000Z</time><ele>1169.6</ele></trkpt><trkpt lat="45.856378" lon="9.197141"><time>2024-05-04T08:36:47.000Z</time><ele>1169.6</ele></trkpt><trkpt lat="45.856387" lon="9.197149"><time>2024-05-04T08:36:48.000Z</time><ele>1169.6</ele></trkpt><trkpt lat="45.856396" lon="9.197156"><time>2024-05-04T08:36:49.000Z</time><ele>1169.8</ele></trkpt><trkpt lat="45.856403" lon="9.197162"><time>2024-05-04T08:36:50.000Z</time><ele>1169.8</ele></trkpt><trkpt lat="45.856415" lon="9.197169"><time>2024-05-04T08:36:51.000Z</time><ele>1169.8</ele></trkpt><trkpt lat="45.856424" lon="9.19718"><time>2024-05-04T08:36:52.000Z</time><ele>1169.8</ele></trkpt><trkpt lat="45.856429" lon="9.197189"><time>2024-05-04T08:36:53.000Z</time><ele>1169.8</ele></trkpt><trkpt lat="45.856438" lon="9.197196"><time>2024-05-04T08:36:54.000Z</time><ele>1170</ele></trkpt><trkpt lat="45.856445" lon="9.1972"><time>2024-05-04T08:36:55.000Z</time><ele>1170</ele></trkpt><trkpt lat="45.856449" lon="9.197204"><time>2024-05-04T08:36:56.000Z</time><ele>1170.2</ele></trkpt><trkpt lat="45.856456" lon="9.197207"><time>2024-05-04T08:36:57.000Z</time><ele>1170.4</ele></trkpt><trkpt lat="45.856464" lon="9.197213"><time>2024-05-04T08:36:58.000Z</time><ele>1170.4</ele></trkpt><trkpt lat="45.856474" lon="9.19722"><time>2024-05-04T08:36:59.000Z</time><ele>1170.4</ele></trkpt><trkpt lat="45.856486" lon="9.19723"><time>2024-05-04T08:37:00.000Z</time><ele>1170.6</ele></trkpt><trkpt lat="45.856494" lon="9.197241"><time>2024-05-04T08:37:01.000Z</time><ele>1170.6</ele></trkpt><trkpt lat="45.856501" lon="9.197253"><time>2024-05-04T08:37:02.000Z</time><ele>1170.8</ele></trkpt><trkpt lat="45.856506" lon="9.197261"><time>2024-05-04T08:37:03.000Z</time><ele>1170.8</ele></trkpt><trkpt lat="45.85651" lon="9.197263"><time>2024-05-04T08:37:04.000Z</time><ele>1171</ele></trkpt><trkpt lat="45.856511" lon="9.197263"><time>2024-05-04T08:37:05.000Z</time><ele>1171</ele></trkpt><trkpt lat="45.856513" lon="9.197263"><time>2024-05-04T08:37:06.000Z</time><ele>1171</ele></trkpt><trkpt lat="45.856517" lon="9.197262"><time>2024-05-04T08:37:07.000Z</time><ele>1171.2</ele></trkpt><trkpt lat="45.85652" lon="9.19726"><time>2024-05-04T08:37:08.000Z</time><ele>1171.2</ele></trkpt><trkpt lat="45.856527" lon="9.197258"><time>2024-05-04T08:37:09.000Z</time><ele>1171.4</ele></trkpt><trkpt lat="45.85653" lon="9.197259"><time>2024-05-04T08:37:10.000Z</time><ele>1171.4</ele></trkpt><trkpt lat="45.856532" lon="9.197261"><time>2024-05-04T08:37:11.000Z</time><ele>1171.4</ele></trkpt><trkpt lat="45.856532" lon="9.197264"><time>2024-05-04T08:37:12.000Z</time><ele>1171.4</ele></trkpt><trkpt lat="45.856532" lon="9.197265"><time>2024-05-04T08:37:13.000Z</time><ele>1171.6</ele></trkpt><trkpt lat="45.856532" lon="9.197264"><time>2024-05-04T08:37:14.000Z</time><ele>1171.6</ele></trkpt><trkpt lat="45.856532" lon="9.197263"><time>2024-05-04T08:37:15.000Z</time><ele>1171.6</ele></trkpt><trkpt lat="45.856529" lon="9.197262"><time>2024-05-04T08:37:16.000Z</time><ele>1171.8</ele></trkpt><trkpt lat="45.856527" lon="9.197261"><time>2024-05-04T08:37:17.000Z</time><ele>1171.8</ele></trkpt><trkpt lat="45.856528" lon="9.197262"><time>2024-05-04T08:37:18.000Z</time><ele>1171.8</ele></trkpt><trkpt lat="45.856528" lon="9.197262"><time>2024-05-04T08:37:19.000Z</time><ele>1171.6</ele></trkpt><trkpt lat="45.856528" lon="9.197262"><time>2024-05-04T08:37:20.000Z</time><ele>1171.6</ele></trkpt><trkpt lat="45.856528" lon="9.197262"><time>2024-05-04T08:37:21.000Z</time><ele>1171.6</ele></trkpt><trkpt lat="45.856528" lon="9.197262"><time>2024-05-04T08:37:22.000Z</time><ele>1171.6</ele></trkpt><trkpt lat="45.856528" lon="9.197262"><time>2024-05-04T08:37:23.000Z</time><ele>1171.6</ele></trkpt><trkpt lat="45.856528" lon="9.197262"><time>2024-05-04T08:37:24.000Z</time><ele>1171.6</ele></trkpt><trkpt lat="45.856528" lon="9.197262"><time>2024-05-04T08:37:25.000Z</time><ele>1171.8</ele></trkpt><trkpt lat="45.856528" lon="9.197262"><time>2024-05-04T08:37:26.000Z</time><ele>1171.8</ele></trkpt><trkpt lat="45.856529" lon="9.197262"><time>2024-05-04T08:37:27.000Z</time><ele>1171.8</ele></trkpt><trkpt lat="45.85653" lon="9.197262"><time>2024-05-04T08:37:28.000Z</time><ele>1171.8</ele></trkpt><trkpt lat="45.856531" lon="9.197262"><time>2024-05-04T08:37:29.000Z</time><ele>1171.8</ele></trkpt><trkpt lat="45.856532" lon="9.197263"><time>2024-05-04T08:37:30.000Z</time><ele>1171.8</ele></trkpt><trkpt lat="45.856532" lon="9.197263"><time>2024-05-04T08:37:31.000Z</time><ele>1172</ele></trkpt><trkpt lat="45.856532" lon="9.197264"><time>2024-05-04T08:37:32.000Z</time><ele>1172.2</ele></trkpt><trkpt lat="45.856532" lon="9.197264"><time>2024-05-04T08:37:33.000Z</time><ele>1172.2</ele></trkpt><trkpt lat="45.856535" lon="9.197265"><time>2024-05-04T08:37:34.000Z</time><ele>1172.2</ele></trkpt><trkpt lat="45.85654" lon="9.197265"><time>2024-05-04T08:37:35.000Z</time><ele>1172</ele></trkpt><trkpt lat="45.856544" lon="9.197272"><time>2024-05-04T08:37:36.000Z</time><ele>1171.8</ele></trkpt><trkpt lat="45.856563" lon="9.197288"><time>2024-05-04T08:37:37.000Z</time><ele>1171.8</ele></trkpt><trkpt lat="45.856583" lon="9.197303"><time>2024-05-04T08:37:38.000Z</time><ele>1171.6</ele></trkpt><trkpt lat="45.856601" lon="9.197318"><time>2024-05-04T08:37:39.000Z</time><ele>1171.4</ele></trkpt><trkpt lat="45.856619" lon="9.197339"><time>2024-05-04T08:37:40.000Z</time><ele>1171.2</ele></trkpt><trkpt lat="45.856634" lon="9.197355"><time>2024-05-04T08:37:41.000Z</time><ele>1171.2</ele></trkpt><trkpt lat="45.856646" lon="9.197368"><time>2024-05-04T08:37:42.000Z</time><ele>1171</ele></trkpt><trkpt lat="45.856657" lon="9.197382"><time>2024-05-04T08:37:43.000Z</time><ele>1171</ele></trkpt><trkpt lat="45.856665" lon="9.197397"><time>2024-05-04T08:37:44.000Z</time><ele>1171</ele></trkpt><trkpt lat="45.856673" lon="9.19741"><time>2024-05-04T08:37:45.000Z</time><ele>1171</ele></trkpt><trkpt lat="45.856678" lon="9.197419"><time>2024-05-04T08:37:46.000Z</time><ele>1171</ele></trkpt><trkpt lat="45.856682" lon="9.197432"><time>2024-05-04T08:37:47.000Z</time><ele>1170.8</ele></trkpt><trkpt lat="45.856687" lon="9.197442"><time>2024-05-04T08:37:48.000Z</time><ele>1170.8</ele></trkpt><trkpt lat="45.856694" lon="9.197452"><time>2024-05-04T08:37:49.000Z</time><ele>1170.6</ele></trkpt><trkpt lat="45.8567" lon="9.197462"><time>2024-05-04T08:37:50.000Z</time><ele>1170.6</ele></trkpt><trkpt lat="45.856708" lon="9.197472"><time>2024-05-04T08:37:51.000Z</time><ele>1170.6</ele></trkpt><trkpt lat="45.856713" lon="9.197481"><time>2024-05-04T08:37:52.000Z</time><ele>1170.6</ele></trkpt><trkpt lat="45.856715" lon="9.197486"><time>2024-05-04T08:37:53.000Z</time><ele>1170.6</ele></trkpt><trkpt lat="45.856716" lon="9.197489"><time>2024-05-04T08:37:54.000Z</time><ele>1170.6</ele></trkpt><trkpt lat="45.856714" lon="9.197492"><time>2024-05-04T08:37:55.000Z</time><ele>1170.8</ele></trkpt><trkpt lat="45.856713" lon="9.197494"><time>2024-05-04T08:37:56.000Z</time><ele>1171</ele></trkpt><trkpt lat="45.856712" lon="9.197497"><time>2024-05-04T08:37:57.000Z</time><ele>1171</ele></trkpt><trkpt lat="45.856712" lon="9.197498"><time>2024-05-04T08:37:58.000Z</time><ele>1171</ele></trkpt><trkpt lat="45.856711" lon="9.197498"><time>2024-05-04T08:37:59.000Z</time><ele>1171.2</ele></trkpt><trkpt lat="45.85671" lon="9.197498"><time>2024-05-04T08:38:00.000Z</time><ele>1171.2</ele></trkpt><trkpt lat="45.85671" lon="9.197497"><time>2024-05-04T08:38:01.000Z</time><ele>1171.2</ele></trkpt><trkpt lat="45.85671" lon="9.197499"><time>2024-05-04T08:38:02.000Z</time><ele>1171</ele></trkpt><trkpt lat="45.856727" lon="9.197508"><time>2024-05-04T08:38:03.000Z</time><ele>1170.8</ele></trkpt><trkpt lat="45.856726" lon="9.197511"><time>2024-05-04T08:38:04.000Z</time><ele>1170.8</ele></trkpt><trkpt lat="45.856725" lon="9.197515"><time>2024-05-04T08:38:05.000Z</time><ele>1170.8</ele></trkpt><trkpt lat="45.856727" lon="9.197518"><time>2024-05-04T08:38:06.000Z</time><ele>1170.8</ele></trkpt><trkpt lat="45.856728" lon="9.197522"><time>2024-05-04T08:38:07.000Z</time><ele>1170.6</ele></trkpt><trkpt lat="45.856731" lon="9.19753"><time>2024-05-04T08:38:08.000Z</time><ele>1170.6</ele></trkpt><trkpt lat="45.856734" lon="9.197538"><time>2024-05-04T08:38:09.000Z</time><ele>1170.8</ele></trkpt><trkpt lat="45.856741" lon="9.197545"><time>2024-05-04T08:38:10.000Z</time><ele>1170.6</ele></trkpt><trkpt lat="45.856745" lon="9.197548"><time>2024-05-04T08:38:11.000Z</time><ele>1170.6</ele></trkpt><trkpt lat="45.856746" lon="9.197549"><time>2024-05-04T08:38:12.000Z</time><ele>1170.6</ele></trkpt><trkpt lat="45.856747" lon="9.197549"><time>2024-05-04T08:38:13.000Z</time><ele>1170.6</ele></trkpt><trkpt lat="45.856747" lon="9.197549"><time>2024-05-04T08:38:14.000Z</time><ele>1170.6</ele></trkpt><trkpt lat="45.856747" lon="9.197549"><time>2024-05-04T08:38:15.000Z</time><ele>1170.6</ele></trkpt><trkpt lat="45.856747" lon="9.197549"><time>2024-05-04T08:38:16.000Z</time><ele>1170.6</ele></trkpt><trkpt lat="45.856747" lon="9.197549"><time>2024-05-04T08:38:17.000Z</time><ele>1170.6</ele></trkpt><trkpt lat="45.856747" lon="9.197549"><time>2024-05-04T08:38:18.000Z</time><ele>1170.6</ele></trkpt><trkpt lat="45.856747" lon="9.197549"><time>2024-05-04T08:38:19.000Z</time><ele>1170.6</ele></trkpt><trkpt lat="45.856747" lon="9.197549"><time>2024-05-04T08:38:20.000Z</time><ele>1170.6</ele></trkpt><trkpt lat="45.856747" lon="9.197549"><time>2024-05-04T08:38:21.000Z</time><ele>1170.6</ele></trkpt><trkpt lat="45.856747" lon="9.197549"><time>2024-05-04T08:38:22.000Z</time><ele>1170.6</ele></trkpt><trkpt lat="45.856747" lon="9.197549"><time>2024-05-04T08:38:23.000Z</time><ele>1170.6</ele></trkpt><trkpt lat="45.856747" lon="9.197549"><time>2024-05-04T08:38:24.000Z</time><ele>1170.6</ele></trkpt><trkpt lat="45.856747" lon="9.197549"><time>2024-05-04T08:38:25.000Z</time><ele>1170.6</ele></trkpt><trkpt lat="45.856747" lon="9.197549"><time>2024-05-04T08:38:26.000Z</time><ele>1170.6</ele></trkpt><trkpt lat="45.856747" lon="9.197549"><time>2024-05-04T08:38:27.000Z</time><ele>1170.6</ele></trkpt><trkpt lat="45.856747" lon="9.197549"><time>2024-05-04T08:38:28.000Z</time><ele>1170.6</ele></trkpt><trkpt lat="45.856747" lon="9.197549"><time>2024-05-04T08:38:29.000Z</time><ele>1170.6</ele></trkpt><trkpt lat="45.856747" lon="9.197549"><time>2024-05-04T08:38:30.000Z</time><ele>1170.6</ele></trkpt><trkpt lat="45.856748" lon="9.197549"><time>2024-05-04T08:38:31.000Z</time><ele>1170.6</ele></trkpt><trkpt lat="45.856748" lon="9.197549"><time>2024-05-04T08:38:32.000Z</time><ele>1170.6</ele></trkpt><trkpt lat="45.856749" lon="9.197549"><time>2024-05-04T08:38:33.000Z</time><ele>1170.6</ele></trkpt><trkpt lat="45.856749" lon="9.19755"><time>2024-05-04T08:38:34.000Z</time><ele>1170.6</ele></trkpt><trkpt lat="45.856749" lon="9.19755"><time>2024-05-04T08:38:35.000Z</time><ele>1170.6</ele></trkpt><trkpt lat="45.856749" lon="9.19755"><time>2024-05-04T08:38:36.000Z</time><ele>1170.6</ele></trkpt><trkpt lat="45.856749" lon="9.19755"><time>2024-05-04T08:38:37.000Z</time><ele>1170.6</ele></trkpt><trkpt lat="45.856749" lon="9.19755"><time>2024-05-04T08:38:38.000Z</time><ele>1170.6</ele></trkpt><trkpt lat="45.856749" lon="9.197551"><time>2024-05-04T08:38:39.000Z</time><ele>1170.6</ele></trkpt><trkpt lat="45.85675" lon="9.197551"><time>2024-05-04T08:38:40.000Z</time><ele>1170.6</ele></trkpt><trkpt lat="45.856751" lon="9.197551"><time>2024-05-04T08:38:41.000Z</time><ele>1170.6</ele></trkpt><trkpt lat="45.856751" lon="9.197551"><time>2024-05-04T08:38:42.000Z</time><ele>1170.6</ele></trkpt><trkpt lat="45.856751" lon="9.197551"><time>2024-05-04T08:38:43.000Z</time><ele>1170.4</ele></trkpt><trkpt lat="45.856751" lon="9.197552"><time>2024-05-04T08:38:44.000Z</time><ele>1170.4</ele></trkpt><trkpt lat="45.856753" lon="9.197552"><time>2024-05-04T08:38:45.000Z</time><ele>1170.4</ele></trkpt><trkpt lat="45.856754" lon="9.197552"><time>2024-05-04T08:38:46.000Z</time><ele>1170.4</ele></trkpt><trkpt lat="45.856755" lon="9.197552"><time>2024-05-04T08:38:47.000Z</time><ele>1170.4</ele></trkpt><trkpt lat="45.856755" lon="9.197553"><time>2024-05-04T08:38:48.000Z</time><ele>1170.6</ele></trkpt><trkpt lat="45.856755" lon="9.197553"><time>2024-05-04T08:38:49.000Z</time><ele>1170.8</ele></trkpt><trkpt lat="45.856756" lon="9.197554"><time>2024-05-04T08:38:50.000Z</time><ele>1171</ele></trkpt><trkpt lat="45.856757" lon="9.197554"><time>2024-05-04T08:38:51.000Z</time><ele>1171.2</ele></trkpt><trkpt lat="45.856758" lon="9.197556"><time>2024-05-04T08:38:52.000Z</time><ele>1171.2</ele></trkpt><trkpt lat="45.856759" lon="9.197558"><time>2024-05-04T08:38:53.000Z</time><ele>1171.2</ele></trkpt><trkpt lat="45.85676" lon="9.197558"><time>2024-05-04T08:38:54.000Z</time><ele>1171.2</ele></trkpt><trkpt lat="45.85676" lon="9.197558"><time>2024-05-04T08:38:55.000Z</time><ele>1171.2</ele></trkpt><trkpt lat="45.856761" lon="9.197558"><time>2024-05-04T08:38:56.000Z</time><ele>1171.2</ele></trkpt><trkpt lat="45.856762" lon="9.197558"><time>2024-05-04T08:38:57.000Z</time><ele>1171</ele></trkpt><trkpt lat="45.856762" lon="9.197558"><time>2024-05-04T08:38:58.000Z</time><ele>1171</ele></trkpt><trkpt lat="45.856762" lon="9.197558"><time>2024-05-04T08:38:59.000Z</time><ele>1171</ele></trkpt><trkpt lat="45.856763" lon="9.197558"><time>2024-05-04T08:39:00.000Z</time><ele>1171</ele></trkpt><trkpt lat="45.856768" lon="9.197558"><time>2024-05-04T08:39:01.000Z</time><ele>1170.8</ele></trkpt><trkpt lat="45.856772" lon="9.197558"><time>2024-05-04T08:39:02.000Z</time><ele>1170.6</ele></trkpt><trkpt lat="45.856775" lon="9.197559"><time>2024-05-04T08:39:03.000Z</time><ele>1170.6</ele></trkpt><trkpt lat="45.856777" lon="9.197559"><time>2024-05-04T08:39:04.000Z</time><ele>1170.4</ele></trkpt><trkpt lat="45.856778" lon="9.197559"><time>2024-05-04T08:39:05.000Z</time><ele>1170.4</ele></trkpt><trkpt lat="45.856779" lon="9.197559"><time>2024-05-04T08:39:06.000Z</time><ele>1170.4</ele></trkpt><trkpt lat="45.856779" lon="9.19756"><time>2024-05-04T08:39:07.000Z</time><ele>1170.4</ele></trkpt><trkpt lat="45.85678" lon="9.197561"><time>2024-05-04T08:39:08.000Z</time><ele>1170.4</ele></trkpt><trkpt lat="45.85678" lon="9.197562"><time>2024-05-04T08:39:09.000Z</time><ele>1170.4</ele></trkpt><trkpt lat="45.85678" lon="9.197562"><time>2024-05-04T08:39:10.000Z</time><ele>1170.4</ele></trkpt><trkpt lat="45.856781" lon="9.197562"><time>2024-05-04T08:39:11.000Z</time><ele>1170.4</ele></trkpt><trkpt lat="45.856782" lon="9.197562"><time>2024-05-04T08:39:12.000Z</time><ele>1170.4</ele></trkpt><trkpt lat="45.856782" lon="9.197562"><time>2024-05-04T08:39:13.000Z</time><ele>1170.4</ele></trkpt><trkpt lat="45.856782" lon="9.197562"><time>2024-05-04T08:39:14.000Z</time><ele>1170.2</ele></trkpt><trkpt lat="45.856783" lon="9.197563"><time>2024-05-04T08:39:15.000Z</time><ele>1170.4</ele></trkpt><trkpt lat="45.856783" lon="9.197563"><time>2024-05-04T08:39:16.000Z</time><ele>1170.6</ele></trkpt><trkpt lat="45.856783" lon="9.197566"><time>2024-05-04T08:39:17.000Z</time><ele>1170.8</ele></trkpt><trkpt lat="45.856784" lon="9.197572"><time>2024-05-04T08:39:18.000Z</time><ele>1170.8</ele></trkpt><trkpt lat="45.856784" lon="9.197577"><time>2024-05-04T08:39:19.000Z</time><ele>1170.8</ele></trkpt><trkpt lat="45.856784" lon="9.197579"><time>2024-05-04T08:39:20.000Z</time><ele>1170.8</ele></trkpt><trkpt lat="45.856784" lon="9.19758"><time>2024-05-04T08:39:21.000Z</time><ele>1170.8</ele></trkpt><trkpt lat="45.856784" lon="9.197581"><time>2024-05-04T08:39:22.000Z</time><ele>1170.6</ele></trkpt><trkpt lat="45.856784" lon="9.197581"><time>2024-05-04T08:39:23.000Z</time><ele>1170.4</ele></trkpt><trkpt lat="45.856785" lon="9.197581"><time>2024-05-04T08:39:24.000Z</time><ele>1170.4</ele></trkpt><trkpt lat="45.856785" lon="9.197581"><time>2024-05-04T08:39:25.000Z</time><ele>1170.2</ele></trkpt><trkpt lat="45.856785" lon="9.197581"><time>2024-05-04T08:39:26.000Z</time><ele>1170.2</ele></trkpt><trkpt lat="45.856785" lon="9.197582"><time>2024-05-04T08:39:27.000Z</time><ele>1170.2</ele></trkpt><trkpt lat="45.856785" lon="9.197582"><time>2024-05-04T08:39:28.000Z</time><ele>1170.2</ele></trkpt><trkpt lat="45.856787" lon="9.197591"><time>2024-05-04T08:39:29.000Z</time><ele>1170.2</ele></trkpt><trkpt lat="45.856795" lon="9.197607"><time>2024-05-04T08:39:30.000Z</time><ele>1170.2</ele></trkpt><trkpt lat="45.856801" lon="9.19762"><time>2024-05-04T08:39:31.000Z</time><ele>1170.2</ele></trkpt><trkpt lat="45.856806" lon="9.197638"><time>2024-05-04T08:39:32.000Z</time><ele>1170.2</ele></trkpt><trkpt lat="45.856808" lon="9.197654"><time>2024-05-04T08:39:33.000Z</time><ele>1170.2</ele></trkpt><trkpt lat="45.856814" lon="9.197676"><time>2024-05-04T08:39:34.000Z</time><ele>1170.2</ele></trkpt><trkpt lat="45.856822" lon="9.1977"><time>2024-05-04T08:39:35.000Z</time><ele>1170.2</ele></trkpt><trkpt lat="45.85683" lon="9.19772"><time>2024-05-04T08:39:36.000Z</time><ele>1170.2</ele></trkpt><trkpt lat="45.856836" lon="9.197737"><time>2024-05-04T08:39:37.000Z</time><ele>1170.2</ele></trkpt><trkpt lat="45.856843" lon="9.197753"><time>2024-05-04T08:39:38.000Z</time><ele>1170.2</ele></trkpt><trkpt lat="45.85685" lon="9.197763"><time>2024-05-04T08:39:39.000Z</time><ele>1170.2</ele></trkpt><trkpt lat="45.85686" lon="9.197773"><time>2024-05-04T08:39:40.000Z</time><ele>1170.6</ele></trkpt><trkpt lat="45.856867" lon="9.197779"><time>2024-05-04T08:39:41.000Z</time><ele>1171</ele></trkpt><trkpt lat="45.856869" lon="9.197793"><time>2024-05-04T08:39:42.000Z</time><ele>1171.2</ele></trkpt><trkpt lat="45.856876" lon="9.197807"><time>2024-05-04T08:39:43.000Z</time><ele>1171.4</ele></trkpt><trkpt lat="45.856882" lon="9.197819"><time>2024-05-04T08:39:44.000Z</time><ele>1171.4</ele></trkpt><trkpt lat="45.856887" lon="9.197834"><time>2024-05-04T08:39:45.000Z</time><ele>1171.4</ele></trkpt><trkpt lat="45.856888" lon="9.197846"><time>2024-05-04T08:39:46.000Z</time><ele>1171.4</ele></trkpt><trkpt lat="45.856891" lon="9.197858"><time>2024-05-04T08:39:47.000Z</time><ele>1171.4</ele></trkpt><trkpt lat="45.856892" lon="9.197867"><time>2024-05-04T08:39:48.000Z</time><ele>1171.6</ele></trkpt><trkpt lat="45.856896" lon="9.197879"><time>2024-05-04T08:39:49.000Z</time><ele>1171.6</ele></trkpt><trkpt lat="45.856903" lon="9.197887"><time>2024-05-04T08:39:50.000Z</time><ele>1171.8</ele></trkpt><trkpt lat="45.856908" lon="9.197899"><time>2024-05-04T08:39:51.000Z</time><ele>1171.8</ele></trkpt><trkpt lat="45.856913" lon="9.197913"><time>2024-05-04T08:39:52.000Z</time><ele>1172</ele></trkpt><trkpt lat="45.856914" lon="9.197924"><time>2024-05-04T08:39:53.000Z</time><ele>1172.2</ele></trkpt><trkpt lat="45.856918" lon="9.197938"><time>2024-05-04T08:39:54.000Z</time><ele>1172.2</ele></trkpt><trkpt lat="45.856922" lon="9.197946"><time>2024-05-04T08:39:55.000Z</time><ele>1172.4</ele></trkpt><trkpt lat="45.856926" lon="9.197953"><time>2024-05-04T08:39:56.000Z</time><ele>1172.6</ele></trkpt><trkpt lat="45.856928" lon="9.19796"><time>2024-05-04T08:39:57.000Z</time><ele>1172.6</ele></trkpt><trkpt lat="45.856931" lon="9.197966"><time>2024-05-04T08:39:58.000Z</time><ele>1172.6</ele></trkpt><trkpt lat="45.856933" lon="9.197971"><time>2024-05-04T08:39:59.000Z</time><ele>1172.6</ele></trkpt><trkpt lat="45.856936" lon="9.197976"><time>2024-05-04T08:40:00.000Z</time><ele>1172.6</ele></trkpt><trkpt lat="45.856945" lon="9.197981"><time>2024-05-04T08:40:01.000Z</time><ele>1172.8</ele></trkpt><trkpt lat="45.856952" lon="9.197988"><time>2024-05-04T08:40:02.000Z</time><ele>1173</ele></trkpt><trkpt lat="45.85695" lon="9.197996"><time>2024-05-04T08:40:03.000Z</time><ele>1173.2</ele></trkpt><trkpt lat="45.856953" lon="9.198007"><time>2024-05-04T08:40:04.000Z</time><ele>1173.2</ele></trkpt><trkpt lat="45.85696" lon="9.198026"><time>2024-05-04T08:40:05.000Z</time><ele>1173.4</ele></trkpt><trkpt lat="45.856963" lon="9.198038"><time>2024-05-04T08:40:06.000Z</time><ele>1173.4</ele></trkpt><trkpt lat="45.856971" lon="9.198056"><time>2024-05-04T08:40:07.000Z</time><ele>1173.4</ele></trkpt><trkpt lat="45.856975" lon="9.198067"><time>2024-05-04T08:40:08.000Z</time><ele>1173.4</ele></trkpt><trkpt lat="45.856977" lon="9.19808"><time>2024-05-04T08:40:09.000Z</time><ele>1173.6</ele></trkpt><trkpt lat="45.856978" lon="9.198093"><time>2024-05-04T08:40:10.000Z</time><ele>1173.8</ele></trkpt><trkpt lat="45.856978" lon="9.1981"><time>2024-05-04T08:40:11.000Z</time><ele>1173.8</ele></trkpt><trkpt lat="45.856978" lon="9.198103"><time>2024-05-04T08:40:12.000Z</time><ele>1174</ele></trkpt><trkpt lat="45.856982" lon="9.198109"><time>2024-05-04T08:40:13.000Z</time><ele>1174</ele></trkpt><trkpt lat="45.856982" lon="9.198118"><time>2024-05-04T08:40:14.000Z</time><ele>1174</ele></trkpt><trkpt lat="45.856984" lon="9.198129"><time>2024-05-04T08:40:15.000Z</time><ele>1174</ele></trkpt><trkpt lat="45.85699" lon="9.198139"><time>2024-05-04T08:40:16.000Z</time><ele>1174.4</ele></trkpt><trkpt lat="45.856995" lon="9.198151"><time>2024-05-04T08:40:17.000Z</time><ele>1174.6</ele></trkpt><trkpt lat="45.856997" lon="9.198165"><time>2024-05-04T08:40:18.000Z</time><ele>1174.6</ele></trkpt><trkpt lat="45.857001" lon="9.198175"><time>2024-05-04T08:40:19.000Z</time><ele>1174.6</ele></trkpt><trkpt lat="45.857003" lon="9.198185"><time>2024-05-04T08:40:20.000Z</time><ele>1174.6</ele></trkpt><trkpt lat="45.857006" lon="9.198188"><time>2024-05-04T08:40:21.000Z</time><ele>1174.8</ele></trkpt><trkpt lat="45.857008" lon="9.198191"><time>2024-05-04T08:40:22.000Z</time><ele>1174.8</ele></trkpt><trkpt lat="45.857009" lon="9.198193"><time>2024-05-04T08:40:23.000Z</time><ele>1174.8</ele></trkpt><trkpt lat="45.857016" lon="9.198198"><time>2024-05-04T08:40:24.000Z</time><ele>1175</ele></trkpt><trkpt lat="45.857018" lon="9.198195"><time>2024-05-04T08:40:25.000Z</time><ele>1175</ele></trkpt><trkpt lat="45.857018" lon="9.198194"><time>2024-05-04T08:40:26.000Z</time><ele>1175</ele></trkpt><trkpt lat="45.857017" lon="9.198194"><time>2024-05-04T08:40:27.000Z</time><ele>1175</ele></trkpt><trkpt lat="45.857017" lon="9.198195"><time>2024-05-04T08:40:28.000Z</time><ele>1175</ele></trkpt><trkpt lat="45.857017" lon="9.198195"><time>2024-05-04T08:40:29.000Z</time><ele>1175</ele></trkpt><trkpt lat="45.857016" lon="9.198198"><time>2024-05-04T08:40:30.000Z</time><ele>1175</ele></trkpt><trkpt lat="45.857015" lon="9.1982"><time>2024-05-04T08:40:31.000Z</time><ele>1175</ele></trkpt><trkpt lat="45.857016" lon="9.198199"><time>2024-05-04T08:40:32.000Z</time><ele>1175</ele></trkpt><trkpt lat="45.857021" lon="9.198197"><time>2024-05-04T08:40:33.000Z</time><ele>1175</ele></trkpt><trkpt lat="45.857024" lon="9.198196"><time>2024-05-04T08:40:34.000Z</time><ele>1175</ele></trkpt><trkpt lat="45.857026" lon="9.198193"><time>2024-05-04T08:40:35.000Z</time><ele>1175</ele></trkpt><trkpt lat="45.857025" lon="9.198191"><time>2024-05-04T08:40:36.000Z</time><ele>1175</ele></trkpt><trkpt lat="45.857025" lon="9.198191"><time>2024-05-04T08:40:37.000Z</time><ele>1175</ele></trkpt><trkpt lat="45.857026" lon="9.198194"><time>2024-05-04T08:40:38.000Z</time><ele>1175</ele></trkpt><trkpt lat="45.857024" lon="9.198193"><time>2024-05-04T08:40:39.000Z</time><ele>1175</ele></trkpt><trkpt lat="45.857024" lon="9.198193"><time>2024-05-04T08:40:40.000Z</time><ele>1175.2</ele></trkpt><trkpt lat="45.857024" lon="9.198193"><time>2024-05-04T08:40:41.000Z</time><ele>1175.2</ele></trkpt><trkpt lat="45.857024" lon="9.198193"><time>2024-05-04T08:40:42.000Z</time><ele>1175.2</ele></trkpt><trkpt lat="45.857024" lon="9.198193"><time>2024-05-04T08:40:43.000Z</time><ele>1175.2</ele></trkpt><trkpt lat="45.857024" lon="9.198193"><time>2024-05-04T08:40:44.000Z</time><ele>1175.2</ele></trkpt><trkpt lat="45.857024" lon="9.198193"><time>2024-05-04T08:40:45.000Z</time><ele>1175.2</ele></trkpt><trkpt lat="45.857024" lon="9.198193"><time>2024-05-04T08:40:46.000Z</time><ele>1175</ele></trkpt><trkpt lat="45.857028" lon="9.198197"><time>2024-05-04T08:40:47.000Z</time><ele>1175</ele></trkpt><trkpt lat="45.857038" lon="9.198215"><time>2024-05-04T08:40:48.000Z</time><ele>1174.8</ele></trkpt><trkpt lat="45.857047" lon="9.198229"><time>2024-05-04T08:40:49.000Z</time><ele>1174.8</ele></trkpt><trkpt lat="45.857056" lon="9.198235"><time>2024-05-04T08:40:50.000Z</time><ele>1174.8</ele></trkpt><trkpt lat="45.857062" lon="9.198239"><time>2024-05-04T08:40:51.000Z</time><ele>1175</ele></trkpt><trkpt lat="45.857067" lon="9.198245"><time>2024-05-04T08:40:52.000Z</time><ele>1175.2</ele></trkpt><trkpt lat="45.857075" lon="9.198257"><time>2024-05-04T08:40:53.000Z</time><ele>1175.4</ele></trkpt><trkpt lat="45.857082" lon="9.198278"><time>2024-05-04T08:40:54.000Z</time><ele>1175.6</ele></trkpt><trkpt lat="45.857089" lon="9.198295"><time>2024-05-04T08:40:55.000Z</time><ele>1175.8</ele></trkpt><trkpt lat="45.857092" lon="9.198311"><time>2024-05-04T08:40:56.000Z</time><ele>1176</ele></trkpt><trkpt lat="45.857092" lon="9.198316"><time>2024-05-04T08:40:57.000Z</time><ele>1176.2</ele></trkpt><trkpt lat="45.857093" lon="9.198321"><time>2024-05-04T08:40:58.000Z</time><ele>1176.4</ele></trkpt><trkpt lat="45.857094" lon="9.198325"><time>2024-05-04T08:40:59.000Z</time><ele>1176.6</ele></trkpt><trkpt lat="45.857095" lon="9.19833"><time>2024-05-04T08:41:00.000Z</time><ele>1176.8</ele></trkpt><trkpt lat="45.857099" lon="9.198341"><time>2024-05-04T08:41:01.000Z</time><ele>1177</ele></trkpt><trkpt lat="45.857105" lon="9.198352"><time>2024-05-04T08:41:02.000Z</time><ele>1177.2</ele></trkpt><trkpt lat="45.85711" lon="9.198358"><time>2024-05-04T08:41:03.000Z</time><ele>1177.4</ele></trkpt><trkpt lat="45.857116" lon="9.198361"><time>2024-05-04T08:41:04.000Z</time><ele>1177.4</ele></trkpt><trkpt lat="45.857118" lon="9.198367"><time>2024-05-04T08:41:05.000Z</time><ele>1177.6</ele></trkpt><trkpt lat="45.857125" lon="9.198374"><time>2024-05-04T08:41:06.000Z</time><ele>1177.8</ele></trkpt><trkpt lat="45.857135" lon="9.198381"><time>2024-05-04T08:41:07.000Z</time><ele>1178</ele></trkpt><trkpt lat="45.857143" lon="9.198391"><time>2024-05-04T08:41:08.000Z</time><ele>1178</ele></trkpt><trkpt lat="45.857148" lon="9.198397"><time>2024-05-04T08:41:09.000Z</time><ele>1178.2</ele></trkpt><trkpt lat="45.85715" lon="9.198403"><time>2024-05-04T08:41:10.000Z</time><ele>1178.4</ele></trkpt><trkpt lat="45.857157" lon="9.198417"><time>2024-05-04T08:41:11.000Z</time><ele>1178.6</ele></trkpt><trkpt lat="45.857164" lon="9.198429"><time>2024-05-04T08:41:12.000Z</time><ele>1179</ele></trkpt><trkpt lat="45.857166" lon="9.198431"><time>2024-05-04T08:41:13.000Z</time><ele>1179</ele></trkpt><trkpt lat="45.857169" lon="9.198434"><time>2024-05-04T08:41:14.000Z</time><ele>1179.2</ele></trkpt><trkpt lat="45.857174" lon="9.198437"><time>2024-05-04T08:41:15.000Z</time><ele>1179.4</ele></trkpt><trkpt lat="45.857178" lon="9.198439"><time>2024-05-04T08:41:16.000Z</time><ele>1179.6</ele></trkpt><trkpt lat="45.857181" lon="9.198442"><time>2024-05-04T08:41:17.000Z</time><ele>1179.6</ele></trkpt><trkpt lat="45.857184" lon="9.198445"><time>2024-05-04T08:41:18.000Z</time><ele>1179.8</ele></trkpt><trkpt lat="45.857195" lon="9.19846"><time>2024-05-04T08:41:19.000Z</time><ele>1179.8</ele></trkpt><trkpt lat="45.857208" lon="9.198469"><time>2024-05-04T08:41:20.000Z</time><ele>1180</ele></trkpt><trkpt lat="45.857213" lon="9.19847"><time>2024-05-04T08:41:21.000Z</time><ele>1180.2</ele></trkpt><trkpt lat="45.857216" lon="9.198477"><time>2024-05-04T08:41:22.000Z</time><ele>1180.2</ele></trkpt><trkpt lat="45.857221" lon="9.198488"><time>2024-05-04T08:41:23.000Z</time><ele>1180.4</ele></trkpt><trkpt lat="45.857225" lon="9.198497"><time>2024-05-04T08:41:24.000Z</time><ele>1180.4</ele></trkpt><trkpt lat="45.857226" lon="9.198504"><time>2024-05-04T08:41:25.000Z</time><ele>1180.8</ele></trkpt><trkpt lat="45.857229" lon="9.198511"><time>2024-05-04T08:41:26.000Z</time><ele>1181</ele></trkpt><trkpt lat="45.857232" lon="9.198516"><time>2024-05-04T08:41:27.000Z</time><ele>1181</ele></trkpt><trkpt lat="45.857233" lon="9.198523"><time>2024-05-04T08:41:28.000Z</time><ele>1181.4</ele></trkpt><trkpt lat="45.857233" lon="9.198528"><time>2024-05-04T08:41:29.000Z</time><ele>1181.4</ele></trkpt><trkpt lat="45.857233" lon="9.198532"><time>2024-05-04T08:41:30.000Z</time><ele>1181.6</ele></trkpt><trkpt lat="45.857234" lon="9.198537"><time>2024-05-04T08:41:31.000Z</time><ele>1181.8</ele></trkpt><trkpt lat="45.857234" lon="9.19854"><time>2024-05-04T08:41:32.000Z</time><ele>1182</ele></trkpt><trkpt lat="45.857232" lon="9.198539"><time>2024-05-04T08:41:33.000Z</time><ele>1182.2</ele></trkpt><trkpt lat="45.85723" lon="9.198542"><time>2024-05-04T08:41:34.000Z</time><ele>1182.4</ele></trkpt><trkpt lat="45.85723" lon="9.198547"><time>2024-05-04T08:41:35.000Z</time><ele>1182.6</ele></trkpt><trkpt lat="45.857228" lon="9.198552"><time>2024-05-04T08:41:36.000Z</time><ele>1182.8</ele></trkpt><trkpt lat="45.857227" lon="9.198557"><time>2024-05-04T08:41:37.000Z</time><ele>1183</ele></trkpt><trkpt lat="45.857227" lon="9.198559"><time>2024-05-04T08:41:38.000Z</time><ele>1183.2</ele></trkpt><trkpt lat="45.857227" lon="9.198559"><time>2024-05-04T08:41:39.000Z</time><ele>1183.4</ele></trkpt><trkpt lat="45.857227" lon="9.198559"><time>2024-05-04T08:41:40.000Z</time><ele>1183.4</ele></trkpt><trkpt lat="45.857228" lon="9.198561"><time>2024-05-04T08:41:41.000Z</time><ele>1183.6</ele></trkpt><trkpt lat="45.857233" lon="9.198567"><time>2024-05-04T08:41:42.000Z</time><ele>1183.6</ele></trkpt><trkpt lat="45.857237" lon="9.198577"><time>2024-05-04T08:41:43.000Z</time><ele>1184</ele></trkpt><trkpt lat="45.857244" lon="9.198587"><time>2024-05-04T08:41:44.000Z</time><ele>1184.2</ele></trkpt><trkpt lat="45.857248" lon="9.198597"><time>2024-05-04T08:41:45.000Z</time><ele>1184.4</ele></trkpt><trkpt lat="45.85725" lon="9.198606"><time>2024-05-04T08:41:46.000Z</time><ele>1184.6</ele></trkpt><trkpt lat="45.857251" lon="9.198612"><time>2024-05-04T08:41:47.000Z</time><ele>1185</ele></trkpt><trkpt lat="45.857253" lon="9.19862"><time>2024-05-04T08:41:48.000Z</time><ele>1185.2</ele></trkpt><trkpt lat="45.857257" lon="9.198629"><time>2024-05-04T08:41:49.000Z</time><ele>1185.2</ele></trkpt><trkpt lat="45.857265" lon="9.198639"><time>2024-05-04T08:41:50.000Z</time><ele>1185.4</ele></trkpt><trkpt lat="45.857268" lon="9.19864"><time>2024-05-04T08:41:51.000Z</time><ele>1185.6</ele></trkpt><trkpt lat="45.857271" lon="9.198639"><time>2024-05-04T08:41:52.000Z</time><ele>1185.6</ele></trkpt><trkpt lat="45.857275" lon="9.198643"><time>2024-05-04T08:41:53.000Z</time><ele>1185.8</ele></trkpt><trkpt lat="45.857277" lon="9.198646"><time>2024-05-04T08:41:54.000Z</time><ele>1186.2</ele></trkpt><trkpt lat="45.857279" lon="9.19865"><time>2024-05-04T08:41:55.000Z</time><ele>1186.4</ele></trkpt><trkpt lat="45.857279" lon="9.198653"><time>2024-05-04T08:41:56.000Z</time><ele>1186.6</ele></trkpt><trkpt lat="45.857279" lon="9.198654"><time>2024-05-04T08:41:57.000Z</time><ele>1186.8</ele></trkpt><trkpt lat="45.85728" lon="9.198657"><time>2024-05-04T08:41:58.000Z</time><ele>1187</ele></trkpt><trkpt lat="45.857282" lon="9.198656"><time>2024-05-04T08:41:59.000Z</time><ele>1187</ele></trkpt><trkpt lat="45.857286" lon="9.198656"><time>2024-05-04T08:42:00.000Z</time><ele>1187.2</ele></trkpt><trkpt lat="45.857292" lon="9.198658"><time>2024-05-04T08:42:01.000Z</time><ele>1187.4</ele></trkpt><trkpt lat="45.857298" lon="9.19866"><time>2024-05-04T08:42:02.000Z</time><ele>1187.6</ele></trkpt><trkpt lat="45.857306" lon="9.198658"><time>2024-05-04T08:42:03.000Z</time><ele>1187.8</ele></trkpt><trkpt lat="45.857312" lon="9.198663"><time>2024-05-04T08:42:04.000Z</time><ele>1187.8</ele></trkpt><trkpt lat="45.857315" lon="9.198665"><time>2024-05-04T08:42:05.000Z</time><ele>1187.8</ele></trkpt><trkpt lat="45.857318" lon="9.198663"><time>2024-05-04T08:42:06.000Z</time><ele>1187.8</ele></trkpt><trkpt lat="45.85732" lon="9.198663"><time>2024-05-04T08:42:07.000Z</time><ele>1187.8</ele></trkpt><trkpt lat="45.857323" lon="9.198664"><time>2024-05-04T08:42:08.000Z</time><ele>1188.2</ele></trkpt><trkpt lat="45.857326" lon="9.198663"><time>2024-05-04T08:42:09.000Z</time><ele>1188.4</ele></trkpt><trkpt lat="45.857328" lon="9.198665"><time>2024-05-04T08:42:10.000Z</time><ele>1188.6</ele></trkpt><trkpt lat="45.857333" lon="9.198666"><time>2024-05-04T08:42:11.000Z</time><ele>1188.6</ele></trkpt><trkpt lat="45.857333" lon="9.19867"><time>2024-05-04T08:42:12.000Z</time><ele>1189</ele></trkpt><trkpt lat="45.857336" lon="9.198672"><time>2024-05-04T08:42:13.000Z</time><ele>1189.2</ele></trkpt><trkpt lat="45.857341" lon="9.198672"><time>2024-05-04T08:42:14.000Z</time><ele>1189.4</ele></trkpt><trkpt lat="45.857344" lon="9.198674"><time>2024-05-04T08:42:15.000Z</time><ele>1189.4</ele></trkpt><trkpt lat="45.85735" lon="9.19867"><time>2024-05-04T08:42:16.000Z</time><ele>1189.6</ele></trkpt><trkpt lat="45.857356" lon="9.19867"><time>2024-05-04T08:42:17.000Z</time><ele>1189.8</ele></trkpt><trkpt lat="45.857359" lon="9.19867"><time>2024-05-04T08:42:18.000Z</time><ele>1190</ele></trkpt><trkpt lat="45.857362" lon="9.198673"><time>2024-05-04T08:42:19.000Z</time><ele>1190.2</ele></trkpt><trkpt lat="45.857363" lon="9.198676"><time>2024-05-04T08:42:20.000Z</time><ele>1190.4</ele></trkpt><trkpt lat="45.857365" lon="9.19868"><time>2024-05-04T08:42:21.000Z</time><ele>1190.6</ele></trkpt><trkpt lat="45.857366" lon="9.198686"><time>2024-05-04T08:42:22.000Z</time><ele>1190.8</ele></trkpt><trkpt lat="45.857367" lon="9.198689"><time>2024-05-04T08:42:23.000Z</time><ele>1191</ele></trkpt><trkpt lat="45.857369" lon="9.198691"><time>2024-05-04T08:42:24.000Z</time><ele>1191.2</ele></trkpt><trkpt lat="45.857372" lon="9.198702"><time>2024-05-04T08:42:25.000Z</time><ele>1191.2</ele></trkpt><trkpt lat="45.857371" lon="9.198707"><time>2024-05-04T08:42:26.000Z</time><ele>1191.4</ele></trkpt><trkpt lat="45.857371" lon="9.198712"><time>2024-05-04T08:42:27.000Z</time><ele>1191.6</ele></trkpt><trkpt lat="45.857371" lon="9.198715"><time>2024-05-04T08:42:28.000Z</time><ele>1191.8</ele></trkpt><trkpt lat="45.857373" lon="9.198717"><time>2024-05-04T08:42:29.000Z</time><ele>1192.2</ele></trkpt><trkpt lat="45.857373" lon="9.198721"><time>2024-05-04T08:42:30.000Z</time><ele>1192.4</ele></trkpt><trkpt lat="45.857372" lon="9.198724"><time>2024-05-04T08:42:31.000Z</time><ele>1192.6</ele></trkpt><trkpt lat="45.857378" lon="9.19873"><time>2024-05-04T08:42:32.000Z</time><ele>1192.8</ele></trkpt><trkpt lat="45.857384" lon="9.198734"><time>2024-05-04T08:42:33.000Z</time><ele>1192.8</ele></trkpt><trkpt lat="45.857392" lon="9.198739"><time>2024-05-04T08:42:34.000Z</time><ele>1193</ele></trkpt><trkpt lat="45.857397" lon="9.198744"><time>2024-05-04T08:42:35.000Z</time><ele>1193.2</ele></trkpt><trkpt lat="45.8574" lon="9.198744"><time>2024-05-04T08:42:36.000Z</time><ele>1193.4</ele></trkpt><trkpt lat="45.857402" lon="9.198748"><time>2024-05-04T08:42:37.000Z</time><ele>1193.6</ele></trkpt><trkpt lat="45.857403" lon="9.19875"><time>2024-05-04T08:42:38.000Z</time><ele>1193.6</ele></trkpt><trkpt lat="45.857414" lon="9.19876"><time>2024-05-04T08:42:39.000Z</time><ele>1193.8</ele></trkpt><trkpt lat="45.857423" lon="9.198766"><time>2024-05-04T08:42:40.000Z</time><ele>1193.8</ele></trkpt><trkpt lat="45.857435" lon="9.198768"><time>2024-05-04T08:42:41.000Z</time><ele>1194</ele></trkpt><trkpt lat="45.857446" lon="9.198772"><time>2024-05-04T08:42:42.000Z</time><ele>1194.2</ele></trkpt><trkpt lat="45.857452" lon="9.198772"><time>2024-05-04T08:42:43.000Z</time><ele>1194.4</ele></trkpt><trkpt lat="45.857456" lon="9.198779"><time>2024-05-04T08:42:44.000Z</time><ele>1194.6</ele></trkpt><trkpt lat="45.857459" lon="9.198781"><time>2024-05-04T08:42:45.000Z</time><ele>1194.6</ele></trkpt><trkpt lat="45.85746" lon="9.198786"><time>2024-05-04T08:42:46.000Z</time><ele>1194.8</ele></trkpt><trkpt lat="45.857466" lon="9.198794"><time>2024-05-04T08:42:47.000Z</time><ele>1195</ele></trkpt><trkpt lat="45.85747" lon="9.198796"><time>2024-05-04T08:42:48.000Z</time><ele>1195.2</ele></trkpt><trkpt lat="45.857475" lon="9.198796"><time>2024-05-04T08:42:49.000Z</time><ele>1195.6</ele></trkpt><trkpt lat="45.857477" lon="9.1988"><time>2024-05-04T08:42:50.000Z</time><ele>1195.8</ele></trkpt><trkpt lat="45.857479" lon="9.198803"><time>2024-05-04T08:42:51.000Z</time><ele>1195.8</ele></trkpt><trkpt lat="45.857483" lon="9.198804"><time>2024-05-04T08:42:52.000Z</time><ele>1196</ele></trkpt><trkpt lat="45.857486" lon="9.198804"><time>2024-05-04T08:42:53.000Z</time><ele>1196.2</ele></trkpt><trkpt lat="45.857488" lon="9.19881"><time>2024-05-04T08:42:54.000Z</time><ele>1196.2</ele></trkpt><trkpt lat="45.857494" lon="9.198814"><time>2024-05-04T08:42:55.000Z</time><ele>1196.4</ele></trkpt><trkpt lat="45.857498" lon="9.19882"><time>2024-05-04T08:42:56.000Z</time><ele>1196.6</ele></trkpt><trkpt lat="45.857503" lon="9.198824"><time>2024-05-04T08:42:57.000Z</time><ele>1196.8</ele></trkpt><trkpt lat="45.857505" lon="9.198827"><time>2024-05-04T08:42:58.000Z</time><ele>1196.8</ele></trkpt><trkpt lat="45.857509" lon="9.198829"><time>2024-05-04T08:42:59.000Z</time><ele>1196.8</ele></trkpt><trkpt lat="45.857514" lon="9.198831"><time>2024-05-04T08:43:00.000Z</time><ele>1197</ele></trkpt><trkpt lat="45.85752" lon="9.198827"><time>2024-05-04T08:43:01.000Z</time><ele>1197.2</ele></trkpt><trkpt lat="45.857522" lon="9.198825"><time>2024-05-04T08:43:02.000Z</time><ele>1197.2</ele></trkpt><trkpt lat="45.857527" lon="9.198827"><time>2024-05-04T08:43:03.000Z</time><ele>1197.4</ele></trkpt><trkpt lat="45.85753" lon="9.198831"><time>2024-05-04T08:43:04.000Z</time><ele>1197.6</ele></trkpt><trkpt lat="45.857534" lon="9.198834"><time>2024-05-04T08:43:05.000Z</time><ele>1197.8</ele></trkpt><trkpt lat="45.857537" lon="9.198836"><time>2024-05-04T08:43:06.000Z</time><ele>1197.8</ele></trkpt><trkpt lat="45.857538" lon="9.198838"><time>2024-05-04T08:43:07.000Z</time><ele>1198</ele></trkpt><trkpt lat="45.857538" lon="9.198836"><time>2024-05-04T08:43:08.000Z</time><ele>1198.2</ele></trkpt><trkpt lat="45.857539" lon="9.198836"><time>2024-05-04T08:43:09.000Z</time><ele>1198.2</ele></trkpt><trkpt lat="45.857542" lon="9.198838"><time>2024-05-04T08:43:10.000Z</time><ele>1198.2</ele></trkpt><trkpt lat="45.857544" lon="9.198837"><time>2024-05-04T08:43:11.000Z</time><ele>1198.4</ele></trkpt><trkpt lat="45.857549" lon="9.198841"><time>2024-05-04T08:43:12.000Z</time><ele>1198.4</ele></trkpt><trkpt lat="45.857552" lon="9.198839"><time>2024-05-04T08:43:13.000Z</time><ele>1198.6</ele></trkpt><trkpt lat="45.857554" lon="9.198836"><time>2024-05-04T08:43:14.000Z</time><ele>1199</ele></trkpt><trkpt lat="45.857556" lon="9.198832"><time>2024-05-04T08:43:15.000Z</time><ele>1199.2</ele></trkpt><trkpt lat="45.857559" lon="9.198831"><time>2024-05-04T08:43:16.000Z</time><ele>1199.4</ele></trkpt><trkpt lat="45.857562" lon="9.198835"><time>2024-05-04T08:43:17.000Z</time><ele>1199.6</ele></trkpt><trkpt lat="45.857567" lon="9.198841"><time>2024-05-04T08:43:18.000Z</time><ele>1199.8</ele></trkpt><trkpt lat="45.85757" lon="9.198846"><time>2024-05-04T08:43:19.000Z</time><ele>1199.8</ele></trkpt><trkpt lat="45.857574" lon="9.198853"><time>2024-05-04T08:43:20.000Z</time><ele>1200</ele></trkpt><trkpt lat="45.857578" lon="9.198862"><time>2024-05-04T08:43:21.000Z</time><ele>1200.2</ele></trkpt><trkpt lat="45.857575" lon="9.198866"><time>2024-05-04T08:43:22.000Z</time><ele>1200.2</ele></trkpt><trkpt lat="45.857575" lon="9.198868"><time>2024-05-04T08:43:23.000Z</time><ele>1200.4</ele></trkpt><trkpt lat="45.857573" lon="9.198872"><time>2024-05-04T08:43:24.000Z</time><ele>1200.6</ele></trkpt><trkpt lat="45.85757" lon="9.198879"><time>2024-05-04T08:43:25.000Z</time><ele>1200.8</ele></trkpt><trkpt lat="45.85757" lon="9.198885"><time>2024-05-04T08:43:26.000Z</time><ele>1201</ele></trkpt><trkpt lat="45.857571" lon="9.198891"><time>2024-05-04T08:43:27.000Z</time><ele>1201.2</ele></trkpt><trkpt lat="45.85757" lon="9.198894"><time>2024-05-04T08:43:28.000Z</time><ele>1201.4</ele></trkpt><trkpt lat="45.857568" lon="9.1989"><time>2024-05-04T08:43:29.000Z</time><ele>1201.4</ele></trkpt><trkpt lat="45.857566" lon="9.198904"><time>2024-05-04T08:43:30.000Z</time><ele>1201.6</ele></trkpt><trkpt lat="45.857567" lon="9.198907"><time>2024-05-04T08:43:31.000Z</time><ele>1201.8</ele></trkpt><trkpt lat="45.857564" lon="9.198913"><time>2024-05-04T08:43:32.000Z</time><ele>1202</ele></trkpt><trkpt lat="45.857565" lon="9.198922"><time>2024-05-04T08:43:33.000Z</time><ele>1202.2</ele></trkpt><trkpt lat="45.857567" lon="9.198927"><time>2024-05-04T08:43:34.000Z</time><ele>1202.4</ele></trkpt><trkpt lat="45.85757" lon="9.198935"><time>2024-05-04T08:43:35.000Z</time><ele>1202.4</ele></trkpt><trkpt lat="45.857576" lon="9.198938"><time>2024-05-04T08:43:36.000Z</time><ele>1202.6</ele></trkpt><trkpt lat="45.857579" lon="9.198941"><time>2024-05-04T08:43:37.000Z</time><ele>1202.8</ele></trkpt><trkpt lat="45.85758" lon="9.198943"><time>2024-05-04T08:43:38.000Z</time><ele>1203</ele></trkpt><trkpt lat="45.857579" lon="9.198945"><time>2024-05-04T08:43:39.000Z</time><ele>1203.2</ele></trkpt><trkpt lat="45.857577" lon="9.198948"><time>2024-05-04T08:43:40.000Z</time><ele>1203.2</ele></trkpt><trkpt lat="45.857576" lon="9.198953"><time>2024-05-04T08:43:41.000Z</time><ele>1203.2</ele></trkpt><trkpt lat="45.857579" lon="9.198963"><time>2024-05-04T08:43:42.000Z</time><ele>1203.6</ele></trkpt><trkpt lat="45.857582" lon="9.198971"><time>2024-05-04T08:43:43.000Z</time><ele>1203.8</ele></trkpt><trkpt lat="45.857583" lon="9.198975"><time>2024-05-04T08:43:44.000Z</time><ele>1204</ele></trkpt><trkpt lat="45.857586" lon="9.198975"><time>2024-05-04T08:43:45.000Z</time><ele>1204</ele></trkpt><trkpt lat="45.857591" lon="9.198977"><time>2024-05-04T08:43:46.000Z</time><ele>1204.4</ele></trkpt><trkpt lat="45.857595" lon="9.198977"><time>2024-05-04T08:43:47.000Z</time><ele>1204.6</ele></trkpt><trkpt lat="45.857598" lon="9.198976"><time>2024-05-04T08:43:48.000Z</time><ele>1204.8</ele></trkpt><trkpt lat="45.857603" lon="9.198977"><time>2024-05-04T08:43:49.000Z</time><ele>1204.8</ele></trkpt><trkpt lat="45.857603" lon="9.198977"><time>2024-05-04T08:43:50.000Z</time><ele>1205.4</ele></trkpt><trkpt lat="45.857609" lon="9.198984"><time>2024-05-04T08:43:51.000Z</time><ele>1205.6</ele></trkpt><trkpt lat="45.857612" lon="9.198992"><time>2024-05-04T08:43:52.000Z</time><ele>1205.8</ele></trkpt><trkpt lat="45.857615" lon="9.198997"><time>2024-05-04T08:43:53.000Z</time><ele>1206</ele></trkpt><trkpt lat="45.857619" lon="9.199001"><time>2024-05-04T08:43:54.000Z</time><ele>1206</ele></trkpt><trkpt lat="45.857621" lon="9.199003"><time>2024-05-04T08:43:55.000Z</time><ele>1206</ele></trkpt><trkpt lat="45.857623" lon="9.199005"><time>2024-05-04T08:43:56.000Z</time><ele>1206.2</ele></trkpt><trkpt lat="45.857628" lon="9.199014"><time>2024-05-04T08:43:57.000Z</time><ele>1206.6</ele></trkpt><trkpt lat="45.857634" lon="9.199015"><time>2024-05-04T08:43:58.000Z</time><ele>1206.8</ele></trkpt><trkpt lat="45.85764" lon="9.199015"><time>2024-05-04T08:43:59.000Z</time><ele>1206.8</ele></trkpt><trkpt lat="45.857645" lon="9.199011"><time>2024-05-04T08:44:00.000Z</time><ele>1207</ele></trkpt><trkpt lat="45.85765" lon="9.199015"><time>2024-05-04T08:44:01.000Z</time><ele>1207.2</ele></trkpt><trkpt lat="45.857654" lon="9.199015"><time>2024-05-04T08:44:02.000Z</time><ele>1207.4</ele></trkpt><trkpt lat="45.857652" lon="9.199017"><time>2024-05-04T08:44:03.000Z</time><ele>1207.4</ele></trkpt><trkpt lat="45.857652" lon="9.19902"><time>2024-05-04T08:44:04.000Z</time><ele>1207.6</ele></trkpt><trkpt lat="45.857652" lon="9.199022"><time>2024-05-04T08:44:05.000Z</time><ele>1207.8</ele></trkpt><trkpt lat="45.857654" lon="9.199029"><time>2024-05-04T08:44:06.000Z</time><ele>1207.8</ele></trkpt><trkpt lat="45.857654" lon="9.199033"><time>2024-05-04T08:44:07.000Z</time><ele>1208</ele></trkpt><trkpt lat="45.857656" lon="9.199041"><time>2024-05-04T08:44:08.000Z</time><ele>1208</ele></trkpt><trkpt lat="45.857657" lon="9.199047"><time>2024-05-04T08:44:09.000Z</time><ele>1208.2</ele></trkpt><trkpt lat="45.857657" lon="9.199053"><time>2024-05-04T08:44:10.000Z</time><ele>1208.4</ele></trkpt><trkpt lat="45.857656" lon="9.199061"><time>2024-05-04T08:44:11.000Z</time><ele>1208.4</ele></trkpt><trkpt lat="45.857657" lon="9.199066"><time>2024-05-04T08:44:12.000Z</time><ele>1208.6</ele></trkpt><trkpt lat="45.85766" lon="9.199067"><time>2024-05-04T08:44:13.000Z</time><ele>1208.6</ele></trkpt><trkpt lat="45.857662" lon="9.199068"><time>2024-05-04T08:44:14.000Z</time><ele>1209.2</ele></trkpt><trkpt lat="45.857662" lon="9.199067"><time>2024-05-04T08:44:15.000Z</time><ele>1209.4</ele></trkpt><trkpt lat="45.857663" lon="9.199068"><time>2024-05-04T08:44:16.000Z</time><ele>1209.6</ele></trkpt><trkpt lat="45.857667" lon="9.199067"><time>2024-05-04T08:44:17.000Z</time><ele>1209.8</ele></trkpt><trkpt lat="45.857669" lon="9.19907"><time>2024-05-04T08:44:18.000Z</time><ele>1210</ele></trkpt><trkpt lat="45.857672" lon="9.199074"><time>2024-05-04T08:44:19.000Z</time><ele>1210</ele></trkpt><trkpt lat="45.857673" lon="9.19908"><time>2024-05-04T08:44:20.000Z</time><ele>1210.4</ele></trkpt><trkpt lat="45.857678" lon="9.199087"><time>2024-05-04T08:44:21.000Z</time><ele>1210.6</ele></trkpt><trkpt lat="45.857681" lon="9.199091"><time>2024-05-04T08:44:22.000Z</time><ele>1210.8</ele></trkpt><trkpt lat="45.857682" lon="9.199095"><time>2024-05-04T08:44:23.000Z</time><ele>1211</ele></trkpt><trkpt lat="45.857683" lon="9.199097"><time>2024-05-04T08:44:24.000Z</time><ele>1211.2</ele></trkpt><trkpt lat="45.857682" lon="9.199102"><time>2024-05-04T08:44:25.000Z</time><ele>1211.4</ele></trkpt><trkpt lat="45.857684" lon="9.199109"><time>2024-05-04T08:44:26.000Z</time><ele>1211.4</ele></trkpt><trkpt lat="45.857689" lon="9.199111"><time>2024-05-04T08:44:27.000Z</time><ele>1211.6</ele></trkpt><trkpt lat="45.857692" lon="9.199112"><time>2024-05-04T08:44:28.000Z</time><ele>1211.6</ele></trkpt><trkpt lat="45.857694" lon="9.199113"><time>2024-05-04T08:44:29.000Z</time><ele>1211.8</ele></trkpt><trkpt lat="45.857695" lon="9.199118"><time>2024-05-04T08:44:30.000Z</time><ele>1211.8</ele></trkpt><trkpt lat="45.857693" lon="9.199125"><time>2024-05-04T08:44:31.000Z</time><ele>1212</ele></trkpt><trkpt lat="45.857693" lon="9.199132"><time>2024-05-04T08:44:32.000Z</time><ele>1212</ele></trkpt><trkpt lat="45.857695" lon="9.199137"><time>2024-05-04T08:44:33.000Z</time><ele>1212.2</ele></trkpt><trkpt lat="45.8577" lon="9.199139"><time>2024-05-04T08:44:34.000Z</time><ele>1212.4</ele></trkpt><trkpt lat="45.857702" lon="9.199142"><time>2024-05-04T08:44:35.000Z</time><ele>1212.4</ele></trkpt><trkpt lat="45.857703" lon="9.199147"><time>2024-05-04T08:44:36.000Z</time><ele>1212.6</ele></trkpt><trkpt lat="45.857705" lon="9.199152"><time>2024-05-04T08:44:37.000Z</time><ele>1212.6</ele></trkpt><trkpt lat="45.857712" lon="9.199154"><time>2024-05-04T08:44:38.000Z</time><ele>1212.8</ele></trkpt><trkpt lat="45.857718" lon="9.199155"><time>2024-05-04T08:44:39.000Z</time><ele>1213</ele></trkpt><trkpt lat="45.857724" lon="9.199156"><time>2024-05-04T08:44:40.000Z</time><ele>1213.2</ele></trkpt><trkpt lat="45.85773" lon="9.199158"><time>2024-05-04T08:44:41.000Z</time><ele>1213.2</ele></trkpt><trkpt lat="45.857735" lon="9.19916"><time>2024-05-04T08:44:42.000Z</time><ele>1213.2</ele></trkpt><trkpt lat="45.857738" lon="9.199162"><time>2024-05-04T08:44:43.000Z</time><ele>1213.4</ele></trkpt><trkpt lat="45.857738" lon="9.199164"><time>2024-05-04T08:44:44.000Z</time><ele>1213.8</ele></trkpt><trkpt lat="45.857741" lon="9.199167"><time>2024-05-04T08:44:45.000Z</time><ele>1214.2</ele></trkpt><trkpt lat="45.857744" lon="9.199168"><time>2024-05-04T08:44:46.000Z</time><ele>1214.4</ele></trkpt><trkpt lat="45.857747" lon="9.199167"><time>2024-05-04T08:44:47.000Z</time><ele>1214.4</ele></trkpt><trkpt lat="45.857751" lon="9.199168"><time>2024-05-04T08:44:48.000Z</time><ele>1214.6</ele></trkpt><trkpt lat="45.857751" lon="9.199172"><time>2024-05-04T08:44:49.000Z</time><ele>1214.8</ele></trkpt><trkpt lat="45.857749" lon="9.199173"><time>2024-05-04T08:44:50.000Z</time><ele>1215</ele></trkpt><trkpt lat="45.857747" lon="9.199178"><time>2024-05-04T08:44:51.000Z</time><ele>1215.2</ele></trkpt><trkpt lat="45.857747" lon="9.199183"><time>2024-05-04T08:44:52.000Z</time><ele>1215.4</ele></trkpt><trkpt lat="45.857745" lon="9.199189"><time>2024-05-04T08:44:53.000Z</time><ele>1215.4</ele></trkpt><trkpt lat="45.857745" lon="9.199193"><time>2024-05-04T08:44:54.000Z</time><ele>1215.6</ele></trkpt><trkpt lat="45.857747" lon="9.199195"><time>2024-05-04T08:44:55.000Z</time><ele>1215.6</ele></trkpt><trkpt lat="45.85775" lon="9.199197"><time>2024-05-04T08:44:56.000Z</time><ele>1216</ele></trkpt><trkpt lat="45.857758" lon="9.199205"><time>2024-05-04T08:44:57.000Z</time><ele>1216.2</ele></trkpt><trkpt lat="45.857766" lon="9.199208"><time>2024-05-04T08:44:58.000Z</time><ele>1216.4</ele></trkpt><trkpt lat="45.857768" lon="9.199212"><time>2024-05-04T08:44:59.000Z</time><ele>1216.6</ele></trkpt><trkpt lat="45.857776" lon="9.199219"><time>2024-05-04T08:45:00.000Z</time><ele>1217</ele></trkpt><trkpt lat="45.85778" lon="9.199226"><time>2024-05-04T08:45:01.000Z</time><ele>1217.2</ele></trkpt><trkpt lat="45.857783" lon="9.199226"><time>2024-05-04T08:45:02.000Z</time><ele>1217.2</ele></trkpt><trkpt lat="45.857789" lon="9.19923"><time>2024-05-04T08:45:03.000Z</time><ele>1217.6</ele></trkpt><trkpt lat="45.857795" lon="9.199227"><time>2024-05-04T08:45:04.000Z</time><ele>1217.8</ele></trkpt><trkpt lat="45.857801" lon="9.199225"><time>2024-05-04T08:45:05.000Z</time><ele>1218</ele></trkpt><trkpt lat="45.857801" lon="9.199223"><time>2024-05-04T08:45:06.000Z</time><ele>1218.2</ele></trkpt><trkpt lat="45.857805" lon="9.199224"><time>2024-05-04T08:45:07.000Z</time><ele>1218.4</ele></trkpt><trkpt lat="45.857812" lon="9.199226"><time>2024-05-04T08:45:08.000Z</time><ele>1218.4</ele></trkpt><trkpt lat="45.857816" lon="9.199225"><time>2024-05-04T08:45:09.000Z</time><ele>1218.6</ele></trkpt><trkpt lat="45.85782" lon="9.199227"><time>2024-05-04T08:45:10.000Z</time><ele>1218.8</ele></trkpt><trkpt lat="45.857828" lon="9.19923"><time>2024-05-04T08:45:11.000Z</time><ele>1219</ele></trkpt><trkpt lat="45.85783" lon="9.199233"><time>2024-05-04T08:45:12.000Z</time><ele>1219.2</ele></trkpt><trkpt lat="45.857831" lon="9.199234"><time>2024-05-04T08:45:13.000Z</time><ele>1219.4</ele></trkpt><trkpt lat="45.857834" lon="9.199236"><time>2024-05-04T08:45:14.000Z</time><ele>1219.6</ele></trkpt><trkpt lat="45.85784" lon="9.199235"><time>2024-05-04T08:45:15.000Z</time><ele>1219.8</ele></trkpt><trkpt lat="45.857845" lon="9.199236"><time>2024-05-04T08:45:16.000Z</time><ele>1220</ele></trkpt><trkpt lat="45.857853" lon="9.199235"><time>2024-05-04T08:45:17.000Z</time><ele>1220</ele></trkpt><trkpt lat="45.857858" lon="9.199234"><time>2024-05-04T08:45:18.000Z</time><ele>1220.2</ele></trkpt><trkpt lat="45.857864" lon="9.199233"><time>2024-05-04T08:45:19.000Z</time><ele>1220.6</ele></trkpt><trkpt lat="45.85787" lon="9.199233"><time>2024-05-04T08:45:20.000Z</time><ele>1220.6</ele></trkpt><trkpt lat="45.857875" lon="9.199239"><time>2024-05-04T08:45:21.000Z</time><ele>1220.8</ele></trkpt><trkpt lat="45.857879" lon="9.199242"><time>2024-05-04T08:45:22.000Z</time><ele>1221</ele></trkpt><trkpt lat="45.857881" lon="9.199246"><time>2024-05-04T08:45:23.000Z</time><ele>1221</ele></trkpt><trkpt lat="45.857886" lon="9.199248"><time>2024-05-04T08:45:24.000Z</time><ele>1221.4</ele></trkpt><trkpt lat="45.857892" lon="9.199244"><time>2024-05-04T08:45:25.000Z</time><ele>1221.4</ele></trkpt><trkpt lat="45.857896" lon="9.199244"><time>2024-05-04T08:45:26.000Z</time><ele>1221.6</ele></trkpt><trkpt lat="45.857899" lon="9.199245"><time>2024-05-04T08:45:27.000Z</time><ele>1221.8</ele></trkpt><trkpt lat="45.857901" lon="9.199248"><time>2024-05-04T08:45:28.000Z</time><ele>1222</ele></trkpt><trkpt lat="45.857902" lon="9.199251"><time>2024-05-04T08:45:29.000Z</time><ele>1222</ele></trkpt><trkpt lat="45.857901" lon="9.199255"><time>2024-05-04T08:45:30.000Z</time><ele>1222.2</ele></trkpt><trkpt lat="45.857902" lon="9.199258"><time>2024-05-04T08:45:31.000Z</time><ele>1222.4</ele></trkpt><trkpt lat="45.857904" lon="9.199261"><time>2024-05-04T08:45:32.000Z</time><ele>1222.6</ele></trkpt><trkpt lat="45.857906" lon="9.199264"><time>2024-05-04T08:45:33.000Z</time><ele>1222.6</ele></trkpt><trkpt lat="45.857908" lon="9.199268"><time>2024-05-04T08:45:34.000Z</time><ele>1222.8</ele></trkpt><trkpt lat="45.857909" lon="9.199274"><time>2024-05-04T08:45:35.000Z</time><ele>1223</ele></trkpt><trkpt lat="45.857912" lon="9.199279"><time>2024-05-04T08:45:36.000Z</time><ele>1223.2</ele></trkpt><trkpt lat="45.857914" lon="9.199279"><time>2024-05-04T08:45:37.000Z</time><ele>1223.4</ele></trkpt><trkpt lat="45.857921" lon="9.199277"><time>2024-05-04T08:45:38.000Z</time><ele>1223.8</ele></trkpt><trkpt lat="45.857924" lon="9.199276"><time>2024-05-04T08:45:39.000Z</time><ele>1224</ele></trkpt><trkpt lat="45.857927" lon="9.199278"><time>2024-05-04T08:45:40.000Z</time><ele>1224</ele></trkpt><trkpt lat="45.85793" lon="9.199281"><time>2024-05-04T08:45:41.000Z</time><ele>1224.4</ele></trkpt><trkpt lat="45.857935" lon="9.199281"><time>2024-05-04T08:45:42.000Z</time><ele>1224.4</ele></trkpt><trkpt lat="45.857938" lon="9.199282"><time>2024-05-04T08:45:43.000Z</time><ele>1224.6</ele></trkpt><trkpt lat="45.857941" lon="9.199285"><time>2024-05-04T08:45:44.000Z</time><ele>1224.6</ele></trkpt><trkpt lat="45.857948" lon="9.199285"><time>2024-05-04T08:45:45.000Z</time><ele>1224.6</ele></trkpt><trkpt lat="45.857954" lon="9.199287"><time>2024-05-04T08:45:46.000Z</time><ele>1224.8</ele></trkpt><trkpt lat="45.857961" lon="9.199287"><time>2024-05-04T08:45:47.000Z</time><ele>1225</ele></trkpt><trkpt lat="45.857963" lon="9.199288"><time>2024-05-04T08:45:48.000Z</time><ele>1225.2</ele></trkpt><trkpt lat="45.857966" lon="9.199291"><time>2024-05-04T08:45:49.000Z</time><ele>1225.4</ele></trkpt><trkpt lat="45.85797" lon="9.199292"><time>2024-05-04T08:45:50.000Z</time><ele>1225.4</ele></trkpt><trkpt lat="45.857973" lon="9.199292"><time>2024-05-04T08:45:51.000Z</time><ele>1225.6</ele></trkpt><trkpt lat="45.857976" lon="9.199293"><time>2024-05-04T08:45:52.000Z</time><ele>1225.8</ele></trkpt><trkpt lat="45.85798" lon="9.199293"><time>2024-05-04T08:45:53.000Z</time><ele>1226</ele></trkpt><trkpt lat="45.857983" lon="9.199293"><time>2024-05-04T08:45:54.000Z</time><ele>1226.2</ele></trkpt><trkpt lat="45.857988" lon="9.199296"><time>2024-05-04T08:45:55.000Z</time><ele>1226.2</ele></trkpt><trkpt lat="45.857989" lon="9.199298"><time>2024-05-04T08:45:56.000Z</time><ele>1226.6</ele></trkpt><trkpt lat="45.857992" lon="9.1993"><time>2024-05-04T08:45:57.000Z</time><ele>1226.8</ele></trkpt><trkpt lat="45.857998" lon="9.199303"><time>2024-05-04T08:45:58.000Z</time><ele>1227</ele></trkpt><trkpt lat="45.858003" lon="9.199304"><time>2024-05-04T08:45:59.000Z</time><ele>1227.2</ele></trkpt><trkpt lat="45.858005" lon="9.1993"><time>2024-05-04T08:46:00.000Z</time><ele>1227.4</ele></trkpt><trkpt lat="45.858009" lon="9.199299"><time>2024-05-04T08:46:01.000Z</time><ele>1227.8</ele></trkpt><trkpt lat="45.858011" lon="9.199302"><time>2024-05-04T08:46:02.000Z</time><ele>1228</ele></trkpt><trkpt lat="45.858013" lon="9.199305"><time>2024-05-04T08:46:03.000Z</time><ele>1228</ele></trkpt><trkpt lat="45.858022" lon="9.199312"><time>2024-05-04T08:46:04.000Z</time><ele>1228.2</ele></trkpt><trkpt lat="45.858028" lon="9.199313"><time>2024-05-04T08:46:05.000Z</time><ele>1228.2</ele></trkpt><trkpt lat="45.858034" lon="9.199311"><time>2024-05-04T08:46:06.000Z</time><ele>1228.4</ele></trkpt><trkpt lat="45.858042" lon="9.19931"><time>2024-05-04T08:46:07.000Z</time><ele>1228.4</ele></trkpt><trkpt lat="45.858047" lon="9.199312"><time>2024-05-04T08:46:08.000Z</time><ele>1228.6</ele></trkpt><trkpt lat="45.858052" lon="9.199317"><time>2024-05-04T08:46:09.000Z</time><ele>1228.8</ele></trkpt><trkpt lat="45.858055" lon="9.199322"><time>2024-05-04T08:46:10.000Z</time><ele>1229</ele></trkpt><trkpt lat="45.858058" lon="9.199328"><time>2024-05-04T08:46:11.000Z</time><ele>1229</ele></trkpt><trkpt lat="45.858062" lon="9.199332"><time>2024-05-04T08:46:12.000Z</time><ele>1229.4</ele></trkpt><trkpt lat="45.858065" lon="9.199335"><time>2024-05-04T08:46:13.000Z</time><ele>1229.6</ele></trkpt><trkpt lat="45.858068" lon="9.199335"><time>2024-05-04T08:46:14.000Z</time><ele>1229.8</ele></trkpt><trkpt lat="45.858072" lon="9.199335"><time>2024-05-04T08:46:15.000Z</time><ele>1230</ele></trkpt><trkpt lat="45.858076" lon="9.199337"><time>2024-05-04T08:46:16.000Z</time><ele>1230.2</ele></trkpt><trkpt lat="45.858079" lon="9.19934"><time>2024-05-04T08:46:17.000Z</time><ele>1230.4</ele></trkpt><trkpt lat="45.858079" lon="9.199344"><time>2024-05-04T08:46:18.000Z</time><ele>1230.6</ele></trkpt><trkpt lat="45.858079" lon="9.199348"><time>2024-05-04T08:46:19.000Z</time><ele>1230.6</ele></trkpt><trkpt lat="45.858078" lon="9.199357"><time>2024-05-04T08:46:20.000Z</time><ele>1230.6</ele></trkpt><trkpt lat="45.858079" lon="9.199365"><time>2024-05-04T08:46:21.000Z</time><ele>1230.8</ele></trkpt><trkpt lat="45.858082" lon="9.199372"><time>2024-05-04T08:46:22.000Z</time><ele>1231</ele></trkpt><trkpt lat="45.858089" lon="9.199377"><time>2024-05-04T08:46:23.000Z</time><ele>1231.2</ele></trkpt><trkpt lat="45.858094" lon="9.19938"><time>2024-05-04T08:46:24.000Z</time><ele>1231.2</ele></trkpt><trkpt lat="45.858096" lon="9.199386"><time>2024-05-04T08:46:25.000Z</time><ele>1231.4</ele></trkpt><trkpt lat="45.858099" lon="9.199393"><time>2024-05-04T08:46:26.000Z</time><ele>1231.6</ele></trkpt><trkpt lat="45.858101" lon="9.199402"><time>2024-05-04T08:46:27.000Z</time><ele>1231.8</ele></trkpt><trkpt lat="45.858103" lon="9.199409"><time>2024-05-04T08:46:28.000Z</time><ele>1231.8</ele></trkpt><trkpt lat="45.858108" lon="9.199413"><time>2024-05-04T08:46:29.000Z</time><ele>1232</ele></trkpt><trkpt lat="45.858115" lon="9.199416"><time>2024-05-04T08:46:30.000Z</time><ele>1232.2</ele></trkpt><trkpt lat="45.858119" lon="9.199418"><time>2024-05-04T08:46:31.000Z</time><ele>1232.4</ele></trkpt><trkpt lat="45.858128" lon="9.199422"><time>2024-05-04T08:46:32.000Z</time><ele>1232.6</ele></trkpt><trkpt lat="45.858134" lon="9.199424"><time>2024-05-04T08:46:33.000Z</time><ele>1232.6</ele></trkpt><trkpt lat="45.858138" lon="9.199425"><time>2024-05-04T08:46:34.000Z</time><ele>1232.8</ele></trkpt><trkpt lat="45.858143" lon="9.199423"><time>2024-05-04T08:46:35.000Z</time><ele>1233</ele></trkpt><trkpt lat="45.858149" lon="9.199423"><time>2024-05-04T08:46:36.000Z</time><ele>1233.2</ele></trkpt><trkpt lat="45.858155" lon="9.199424"><time>2024-05-04T08:46:37.000Z</time><ele>1233.4</ele></trkpt><trkpt lat="45.85816" lon="9.199424"><time>2024-05-04T08:46:38.000Z</time><ele>1233.6</ele></trkpt><trkpt lat="45.858165" lon="9.199424"><time>2024-05-04T08:46:39.000Z</time><ele>1233.8</ele></trkpt><trkpt lat="45.858172" lon="9.199426"><time>2024-05-04T08:46:40.000Z</time><ele>1234</ele></trkpt><trkpt lat="45.858178" lon="9.199428"><time>2024-05-04T08:46:41.000Z</time><ele>1234</ele></trkpt><trkpt lat="45.858183" lon="9.199429"><time>2024-05-04T08:46:42.000Z</time><ele>1234.2</ele></trkpt><trkpt lat="45.858189" lon="9.19943"><time>2024-05-04T08:46:43.000Z</time><ele>1234.4</ele></trkpt><trkpt lat="45.858193" lon="9.199433"><time>2024-05-04T08:46:44.000Z</time><ele>1234.4</ele></trkpt><trkpt lat="45.858196" lon="9.199439"><time>2024-05-04T08:46:45.000Z</time><ele>1234.6</ele></trkpt><trkpt lat="45.858202" lon="9.199442"><time>2024-05-04T08:46:46.000Z</time><ele>1234.8</ele></trkpt><trkpt lat="45.858206" lon="9.199446"><time>2024-05-04T08:46:47.000Z</time><ele>1235</ele></trkpt><trkpt lat="45.858211" lon="9.199445"><time>2024-05-04T08:46:48.000Z</time><ele>1235</ele></trkpt><trkpt lat="45.858214" lon="9.199443"><time>2024-05-04T08:46:49.000Z</time><ele>1235.4</ele></trkpt><trkpt lat="45.85822" lon="9.199442"><time>2024-05-04T08:46:50.000Z</time><ele>1235.6</ele></trkpt><trkpt lat="45.858225" lon="9.199443"><time>2024-05-04T08:46:51.000Z</time><ele>1235.8</ele></trkpt><trkpt lat="45.858229" lon="9.199445"><time>2024-05-04T08:46:52.000Z</time><ele>1236</ele></trkpt><trkpt lat="45.858234" lon="9.199448"><time>2024-05-04T08:46:53.000Z</time><ele>1236.2</ele></trkpt><trkpt lat="45.858239" lon="9.199454"><time>2024-05-04T08:46:54.000Z</time><ele>1236.6</ele></trkpt><trkpt lat="45.858245" lon="9.19946"><time>2024-05-04T08:46:55.000Z</time><ele>1236.8</ele></trkpt><trkpt lat="45.858248" lon="9.199467"><time>2024-05-04T08:46:56.000Z</time><ele>1237</ele></trkpt><trkpt lat="45.858253" lon="9.199474"><time>2024-05-04T08:46:57.000Z</time><ele>1237</ele></trkpt><trkpt lat="45.858257" lon="9.199482"><time>2024-05-04T08:46:58.000Z</time><ele>1237.2</ele></trkpt><trkpt lat="45.858261" lon="9.199486"><time>2024-05-04T08:46:59.000Z</time><ele>1237.4</ele></trkpt><trkpt lat="45.858267" lon="9.199486"><time>2024-05-04T08:47:00.000Z</time><ele>1237.6</ele></trkpt><trkpt lat="45.858274" lon="9.199488"><time>2024-05-04T08:47:01.000Z</time><ele>1237.6</ele></trkpt><trkpt lat="45.858279" lon="9.199489"><time>2024-05-04T08:47:02.000Z</time><ele>1237.6</ele></trkpt><trkpt lat="45.858284" lon="9.199489"><time>2024-05-04T08:47:03.000Z</time><ele>1237.8</ele></trkpt><trkpt lat="45.858292" lon="9.199489"><time>2024-05-04T08:47:04.000Z</time><ele>1238</ele></trkpt><trkpt lat="45.858299" lon="9.199487"><time>2024-05-04T08:47:05.000Z</time><ele>1238.4</ele></trkpt><trkpt lat="45.858306" lon="9.19949"><time>2024-05-04T08:47:06.000Z</time><ele>1238.8</ele></trkpt><trkpt lat="45.858312" lon="9.199497"><time>2024-05-04T08:47:07.000Z</time><ele>1239</ele></trkpt><trkpt lat="45.858316" lon="9.199501"><time>2024-05-04T08:47:08.000Z</time><ele>1239.2</ele></trkpt><trkpt lat="45.858319" lon="9.199506"><time>2024-05-04T08:47:09.000Z</time><ele>1239.4</ele></trkpt><trkpt lat="45.858322" lon="9.199509"><time>2024-05-04T08:47:10.000Z</time><ele>1239.6</ele></trkpt><trkpt lat="45.858325" lon="9.199515"><time>2024-05-04T08:47:11.000Z</time><ele>1239.8</ele></trkpt><trkpt lat="45.85833" lon="9.199521"><time>2024-05-04T08:47:12.000Z</time><ele>1240</ele></trkpt><trkpt lat="45.858338" lon="9.199524"><time>2024-05-04T08:47:13.000Z</time><ele>1240.2</ele></trkpt><trkpt lat="45.858344" lon="9.199527"><time>2024-05-04T08:47:14.000Z</time><ele>1240.4</ele></trkpt><trkpt lat="45.85835" lon="9.199531"><time>2024-05-04T08:47:15.000Z</time><ele>1240.6</ele></trkpt><trkpt lat="45.858355" lon="9.199534"><time>2024-05-04T08:47:16.000Z</time><ele>1240.6</ele></trkpt><trkpt lat="45.85836" lon="9.199538"><time>2024-05-04T08:47:17.000Z</time><ele>1240.8</ele></trkpt><trkpt lat="45.858367" lon="9.199539"><time>2024-05-04T08:47:18.000Z</time><ele>1241</ele></trkpt><trkpt lat="45.858374" lon="9.199542"><time>2024-05-04T08:47:19.000Z</time><ele>1241.2</ele></trkpt><trkpt lat="45.858382" lon="9.199541"><time>2024-05-04T08:47:20.000Z</time><ele>1241.6</ele></trkpt><trkpt lat="45.858387" lon="9.19954"><time>2024-05-04T08:47:21.000Z</time><ele>1242.2</ele></trkpt><trkpt lat="45.858391" lon="9.199538"><time>2024-05-04T08:47:22.000Z</time><ele>1242.4</ele></trkpt><trkpt lat="45.858395" lon="9.199538"><time>2024-05-04T08:47:23.000Z</time><ele>1242.6</ele></trkpt><trkpt lat="45.858398" lon="9.199539"><time>2024-05-04T08:47:24.000Z</time><ele>1242.8</ele></trkpt><trkpt lat="45.858404" lon="9.199538"><time>2024-05-04T08:47:25.000Z</time><ele>1242.8</ele></trkpt><trkpt lat="45.858411" lon="9.199536"><time>2024-05-04T08:47:26.000Z</time><ele>1242.8</ele></trkpt><trkpt lat="45.858417" lon="9.199536"><time>2024-05-04T08:47:27.000Z</time><ele>1243</ele></trkpt><trkpt lat="45.858423" lon="9.199539"><time>2024-05-04T08:47:28.000Z</time><ele>1243.2</ele></trkpt><trkpt lat="45.858427" lon="9.19954"><time>2024-05-04T08:47:29.000Z</time><ele>1243.4</ele></trkpt><trkpt lat="45.858434" lon="9.199543"><time>2024-05-04T08:47:30.000Z</time><ele>1243.8</ele></trkpt><trkpt lat="45.85844" lon="9.199546"><time>2024-05-04T08:47:31.000Z</time><ele>1244</ele></trkpt><trkpt lat="45.858444" lon="9.199547"><time>2024-05-04T08:47:32.000Z</time><ele>1244.2</ele></trkpt><trkpt lat="45.858449" lon="9.19955"><time>2024-05-04T08:47:33.000Z</time><ele>1244.2</ele></trkpt><trkpt lat="45.858452" lon="9.199553"><time>2024-05-04T08:47:34.000Z</time><ele>1244.4</ele></trkpt><trkpt lat="45.858456" lon="9.199558"><time>2024-05-04T08:47:35.000Z</time><ele>1244.6</ele></trkpt><trkpt lat="45.858463" lon="9.199563"><time>2024-05-04T08:47:36.000Z</time><ele>1244.6</ele></trkpt><trkpt lat="45.858467" lon="9.199566"><time>2024-05-04T08:47:37.000Z</time><ele>1245</ele></trkpt><trkpt lat="45.858469" lon="9.199569"><time>2024-05-04T08:47:38.000Z</time><ele>1245.2</ele></trkpt><trkpt lat="45.858475" lon="9.199572"><time>2024-05-04T08:47:39.000Z</time><ele>1245.4</ele></trkpt><trkpt lat="45.85848" lon="9.199572"><time>2024-05-04T08:47:40.000Z</time><ele>1245.6</ele></trkpt><trkpt lat="45.858483" lon="9.19957"><time>2024-05-04T08:47:41.000Z</time><ele>1245.8</ele></trkpt><trkpt lat="45.858487" lon="9.199565"><time>2024-05-04T08:47:42.000Z</time><ele>1246.2</ele></trkpt><trkpt lat="45.85849" lon="9.199561"><time>2024-05-04T08:47:43.000Z</time><ele>1246.4</ele></trkpt><trkpt lat="45.858494" lon="9.199559"><time>2024-05-04T08:47:44.000Z</time><ele>1246.4</ele></trkpt><trkpt lat="45.858499" lon="9.199559"><time>2024-05-04T08:47:45.000Z</time><ele>1246.8</ele></trkpt><trkpt lat="45.858503" lon="9.19956"><time>2024-05-04T08:47:46.000Z</time><ele>1247.2</ele></trkpt><trkpt lat="45.858507" lon="9.19956"><time>2024-05-04T08:47:47.000Z</time><ele>1247.4</ele></trkpt><trkpt lat="45.858511" lon="9.199561"><time>2024-05-04T08:47:48.000Z</time><ele>1247.6</ele></trkpt><trkpt lat="45.858517" lon="9.199561"><time>2024-05-04T08:47:49.000Z</time><ele>1247.6</ele></trkpt><trkpt lat="45.858521" lon="9.199562"><time>2024-05-04T08:47:50.000Z</time><ele>1247.8</ele></trkpt><trkpt lat="45.858525" lon="9.199565"><time>2024-05-04T08:47:51.000Z</time><ele>1248</ele></trkpt><trkpt lat="45.858531" lon="9.199569"><time>2024-05-04T08:47:52.000Z</time><ele>1248.2</ele></trkpt><trkpt lat="45.858539" lon="9.199573"><time>2024-05-04T08:47:53.000Z</time><ele>1248.4</ele></trkpt><trkpt lat="45.858544" lon="9.19958"><time>2024-05-04T08:47:54.000Z</time><ele>1248.6</ele></trkpt><trkpt lat="45.85855" lon="9.19959"><time>2024-05-04T08:47:55.000Z</time><ele>1248.8</ele></trkpt><trkpt lat="45.858553" lon="9.199599"><time>2024-05-04T08:47:56.000Z</time><ele>1249</ele></trkpt><trkpt lat="45.858561" lon="9.199606"><time>2024-05-04T08:47:57.000Z</time><ele>1249.2</ele></trkpt><trkpt lat="45.858568" lon="9.199608"><time>2024-05-04T08:47:58.000Z</time><ele>1249.4</ele></trkpt><trkpt lat="45.858573" lon="9.199611"><time>2024-05-04T08:47:59.000Z</time><ele>1249.6</ele></trkpt><trkpt lat="45.858577" lon="9.199613"><time>2024-05-04T08:48:00.000Z</time><ele>1249.8</ele></trkpt><trkpt lat="45.858582" lon="9.199613"><time>2024-05-04T08:48:01.000Z</time><ele>1250</ele></trkpt><trkpt lat="45.858587" lon="9.19961"><time>2024-05-04T08:48:02.000Z</time><ele>1250.2</ele></trkpt><trkpt lat="45.858591" lon="9.199612"><time>2024-05-04T08:48:03.000Z</time><ele>1250.4</ele></trkpt><trkpt lat="45.858597" lon="9.199613"><time>2024-05-04T08:48:04.000Z</time><ele>1250.6</ele></trkpt><trkpt lat="45.858602" lon="9.199616"><time>2024-05-04T08:48:05.000Z</time><ele>1250.6</ele></trkpt><trkpt lat="45.858606" lon="9.199616"><time>2024-05-04T08:48:06.000Z</time><ele>1250.8</ele></trkpt><trkpt lat="45.858612" lon="9.199614"><time>2024-05-04T08:48:07.000Z</time><ele>1250.8</ele></trkpt><trkpt lat="45.858619" lon="9.199615"><time>2024-05-04T08:48:08.000Z</time><ele>1251.2</ele></trkpt><trkpt lat="45.858625" lon="9.199617"><time>2024-05-04T08:48:09.000Z</time><ele>1251.4</ele></trkpt><trkpt lat="45.858631" lon="9.199619"><time>2024-05-04T08:48:10.000Z</time><ele>1251.6</ele></trkpt><trkpt lat="45.858636" lon="9.199624"><time>2024-05-04T08:48:11.000Z</time><ele>1252.2</ele></trkpt><trkpt lat="45.858643" lon="9.199629"><time>2024-05-04T08:48:12.000Z</time><ele>1252.4</ele></trkpt><trkpt lat="45.858649" lon="9.199631"><time>2024-05-04T08:48:13.000Z</time><ele>1252.6</ele></trkpt><trkpt lat="45.858652" lon="9.199631"><time>2024-05-04T08:48:14.000Z</time><ele>1252.8</ele></trkpt><trkpt lat="45.858655" lon="9.199632"><time>2024-05-04T08:48:15.000Z</time><ele>1253</ele></trkpt><trkpt lat="45.858656" lon="9.199635"><time>2024-05-04T08:48:16.000Z</time><ele>1253</ele></trkpt><trkpt lat="45.858661" lon="9.19964"><time>2024-05-04T08:48:17.000Z</time><ele>1253.2</ele></trkpt><trkpt lat="45.858666" lon="9.199644"><time>2024-05-04T08:48:18.000Z</time><ele>1253.6</ele></trkpt><trkpt lat="45.858671" lon="9.199648"><time>2024-05-04T08:48:19.000Z</time><ele>1253.6</ele></trkpt><trkpt lat="45.858679" lon="9.199652"><time>2024-05-04T08:48:20.000Z</time><ele>1253.8</ele></trkpt><trkpt lat="45.858683" lon="9.199651"><time>2024-05-04T08:48:21.000Z</time><ele>1254</ele></trkpt><trkpt lat="45.858688" lon="9.19965"><time>2024-05-04T08:48:22.000Z</time><ele>1254.6</ele></trkpt><trkpt lat="45.858693" lon="9.199649"><time>2024-05-04T08:48:23.000Z</time><ele>1255</ele></trkpt><trkpt lat="45.858697" lon="9.199648"><time>2024-05-04T08:48:24.000Z</time><ele>1255.2</ele></trkpt><trkpt lat="45.858702" lon="9.199649"><time>2024-05-04T08:48:25.000Z</time><ele>1255.4</ele></trkpt><trkpt lat="45.858709" lon="9.199653"><time>2024-05-04T08:48:26.000Z</time><ele>1255.6</ele></trkpt><trkpt lat="45.858714" lon="9.199655"><time>2024-05-04T08:48:27.000Z</time><ele>1255.8</ele></trkpt><trkpt lat="45.858719" lon="9.199655"><time>2024-05-04T08:48:28.000Z</time><ele>1256</ele></trkpt><trkpt lat="45.858724" lon="9.199656"><time>2024-05-04T08:48:29.000Z</time><ele>1256</ele></trkpt><trkpt lat="45.858727" lon="9.199658"><time>2024-05-04T08:48:30.000Z</time><ele>1256</ele></trkpt><trkpt lat="45.858731" lon="9.199659"><time>2024-05-04T08:48:31.000Z</time><ele>1256.2</ele></trkpt><trkpt lat="45.858736" lon="9.199657"><time>2024-05-04T08:48:32.000Z</time><ele>1256.2</ele></trkpt><trkpt lat="45.858739" lon="9.199657"><time>2024-05-04T08:48:33.000Z</time><ele>1256.4</ele></trkpt><trkpt lat="45.858743" lon="9.199658"><time>2024-05-04T08:48:34.000Z</time><ele>1256.8</ele></trkpt><trkpt lat="45.858746" lon="9.199661"><time>2024-05-04T08:48:35.000Z</time><ele>1257</ele></trkpt><trkpt lat="45.858751" lon="9.199661"><time>2024-05-04T08:48:36.000Z</time><ele>1257.2</ele></trkpt><trkpt lat="45.858754" lon="9.199659"><time>2024-05-04T08:48:37.000Z</time><ele>1257.4</ele></trkpt><trkpt lat="45.858758" lon="9.199655"><time>2024-05-04T08:48:38.000Z</time><ele>1257.4</ele></trkpt><trkpt lat="45.858762" lon="9.199651"><time>2024-05-04T08:48:39.000Z</time><ele>1257.6</ele></trkpt><trkpt lat="45.858768" lon="9.199648"><time>2024-05-04T08:48:40.000Z</time><ele>1257.8</ele></trkpt><trkpt lat="45.858771" lon="9.199649"><time>2024-05-04T08:48:41.000Z</time><ele>1258</ele></trkpt><trkpt lat="45.858774" lon="9.199652"><time>2024-05-04T08:48:42.000Z</time><ele>1258.2</ele></trkpt><trkpt lat="45.858779" lon="9.199655"><time>2024-05-04T08:48:43.000Z</time><ele>1258.4</ele></trkpt><trkpt lat="45.858779" lon="9.19966"><time>2024-05-04T08:48:44.000Z</time><ele>1258.6</ele></trkpt><trkpt lat="45.858782" lon="9.199664"><time>2024-05-04T08:48:45.000Z</time><ele>1258.8</ele></trkpt><trkpt lat="45.858785" lon="9.199665"><time>2024-05-04T08:48:46.000Z</time><ele>1259</ele></trkpt><trkpt lat="45.858792" lon="9.199667"><time>2024-05-04T08:48:47.000Z</time><ele>1259.2</ele></trkpt><trkpt lat="45.858797" lon="9.199668"><time>2024-05-04T08:48:48.000Z</time><ele>1259.4</ele></trkpt><trkpt lat="45.858799" lon="9.199668"><time>2024-05-04T08:48:49.000Z</time><ele>1259.4</ele></trkpt><trkpt lat="45.858804" lon="9.199667"><time>2024-05-04T08:48:50.000Z</time><ele>1259.6</ele></trkpt><trkpt lat="45.858807" lon="9.199666"><time>2024-05-04T08:48:51.000Z</time><ele>1259.6</ele></trkpt><trkpt lat="45.858808" lon="9.199672"><time>2024-05-04T08:48:52.000Z</time><ele>1259.8</ele></trkpt><trkpt lat="45.858812" lon="9.199674"><time>2024-05-04T08:48:53.000Z</time><ele>1259.8</ele></trkpt><trkpt lat="45.858816" lon="9.199676"><time>2024-05-04T08:48:54.000Z</time><ele>1260</ele></trkpt><trkpt lat="45.858821" lon="9.199675"><time>2024-05-04T08:48:55.000Z</time><ele>1260.2</ele></trkpt><trkpt lat="45.858826" lon="9.19967"><time>2024-05-04T08:48:56.000Z</time><ele>1260.4</ele></trkpt><trkpt lat="45.858829" lon="9.199671"><time>2024-05-04T08:48:57.000Z</time><ele>1260.6</ele></trkpt><trkpt lat="45.858832" lon="9.199676"><time>2024-05-04T08:48:58.000Z</time><ele>1261.2</ele></trkpt><trkpt lat="45.858835" lon="9.199679"><time>2024-05-04T08:48:59.000Z</time><ele>1261.8</ele></trkpt><trkpt lat="45.858838" lon="9.199681"><time>2024-05-04T08:49:00.000Z</time><ele>1262</ele></trkpt><trkpt lat="45.858842" lon="9.199679"><time>2024-05-04T08:49:01.000Z</time><ele>1262.2</ele></trkpt><trkpt lat="45.858845" lon="9.199676"><time>2024-05-04T08:49:02.000Z</time><ele>1262.4</ele></trkpt><trkpt lat="45.858847" lon="9.199672"><time>2024-05-04T08:49:03.000Z</time><ele>1262.4</ele></trkpt><trkpt lat="45.858849" lon="9.199669"><time>2024-05-04T08:49:04.000Z</time><ele>1262.6</ele></trkpt><trkpt lat="45.858855" lon="9.19967"><time>2024-05-04T08:49:05.000Z</time><ele>1262.8</ele></trkpt><trkpt lat="45.858859" lon="9.199671"><time>2024-05-04T08:49:06.000Z</time><ele>1262.8</ele></trkpt><trkpt lat="45.858861" lon="9.199671"><time>2024-05-04T08:49:07.000Z</time><ele>1263</ele></trkpt><trkpt lat="45.858863" lon="9.199675"><time>2024-05-04T08:49:08.000Z</time><ele>1263</ele></trkpt><trkpt lat="45.858866" lon="9.199676"><time>2024-05-04T08:49:09.000Z</time><ele>1263.2</ele></trkpt><trkpt lat="45.85887" lon="9.199681"><time>2024-05-04T08:49:10.000Z</time><ele>1263.2</ele></trkpt><trkpt lat="45.858872" lon="9.199688"><time>2024-05-04T08:49:11.000Z</time><ele>1263.4</ele></trkpt><trkpt lat="45.858874" lon="9.199698"><time>2024-05-04T08:49:12.000Z</time><ele>1263.6</ele></trkpt><trkpt lat="45.858877" lon="9.199709"><time>2024-05-04T08:49:13.000Z</time><ele>1264</ele></trkpt><trkpt lat="45.85888" lon="9.199714"><time>2024-05-04T08:49:14.000Z</time><ele>1264.2</ele></trkpt><trkpt lat="45.858883" lon="9.199716"><time>2024-05-04T08:49:15.000Z</time><ele>1264.6</ele></trkpt><trkpt lat="45.858887" lon="9.199718"><time>2024-05-04T08:49:16.000Z</time><ele>1264.8</ele></trkpt><trkpt lat="45.858891" lon="9.19972"><time>2024-05-04T08:49:17.000Z</time><ele>1265</ele></trkpt><trkpt lat="45.858893" lon="9.199721"><time>2024-05-04T08:49:18.000Z</time><ele>1265.2</ele></trkpt><trkpt lat="45.858894" lon="9.199726"><time>2024-05-04T08:49:19.000Z</time><ele>1265.4</ele></trkpt><trkpt lat="45.858897" lon="9.199733"><time>2024-05-04T08:49:20.000Z</time><ele>1265.6</ele></trkpt><trkpt lat="45.8589" lon="9.199738"><time>2024-05-04T08:49:21.000Z</time><ele>1265.8</ele></trkpt><trkpt lat="45.858904" lon="9.199741"><time>2024-05-04T08:49:22.000Z</time><ele>1266</ele></trkpt><trkpt lat="45.858908" lon="9.199741"><time>2024-05-04T08:49:23.000Z</time><ele>1266.2</ele></trkpt><trkpt lat="45.858912" lon="9.199738"><time>2024-05-04T08:49:24.000Z</time><ele>1266.2</ele></trkpt><trkpt lat="45.858915" lon="9.199738"><time>2024-05-04T08:49:25.000Z</time><ele>1266.4</ele></trkpt><trkpt lat="45.858918" lon="9.19974"><time>2024-05-04T08:49:26.000Z</time><ele>1266.6</ele></trkpt><trkpt lat="45.858922" lon="9.19974"><time>2024-05-04T08:49:27.000Z</time><ele>1267</ele></trkpt><trkpt lat="45.858927" lon="9.199741"><time>2024-05-04T08:49:28.000Z</time><ele>1267.2</ele></trkpt><trkpt lat="45.858929" lon="9.199741"><time>2024-05-04T08:49:29.000Z</time><ele>1267.2</ele></trkpt><trkpt lat="45.85893" lon="9.199742"><time>2024-05-04T08:49:30.000Z</time><ele>1267.6</ele></trkpt><trkpt lat="45.85893" lon="9.199744"><time>2024-05-04T08:49:31.000Z</time><ele>1267.6</ele></trkpt><trkpt lat="45.858933" lon="9.199745"><time>2024-05-04T08:49:32.000Z</time><ele>1267.8</ele></trkpt><trkpt lat="45.85894" lon="9.199745"><time>2024-05-04T08:49:33.000Z</time><ele>1267.8</ele></trkpt><trkpt lat="45.858947" lon="9.199746"><time>2024-05-04T08:49:34.000Z</time><ele>1268</ele></trkpt><trkpt lat="45.858955" lon="9.199749"><time>2024-05-04T08:49:35.000Z</time><ele>1268</ele></trkpt><trkpt lat="45.85896" lon="9.199748"><time>2024-05-04T08:49:36.000Z</time><ele>1268.4</ele></trkpt><trkpt lat="45.858963" lon="9.199747"><time>2024-05-04T08:49:37.000Z</time><ele>1268.8</ele></trkpt><trkpt lat="45.858967" lon="9.199745"><time>2024-05-04T08:49:38.000Z</time><ele>1269</ele></trkpt><trkpt lat="45.85897" lon="9.199745"><time>2024-05-04T08:49:39.000Z</time><ele>1269.2</ele></trkpt><trkpt lat="45.858974" lon="9.19975"><time>2024-05-04T08:49:40.000Z</time><ele>1269.4</ele></trkpt><trkpt lat="45.858976" lon="9.199758"><time>2024-05-04T08:49:41.000Z</time><ele>1269.4</ele></trkpt><trkpt lat="45.858978" lon="9.199765"><time>2024-05-04T08:49:42.000Z</time><ele>1269.4</ele></trkpt><trkpt lat="45.858979" lon="9.199771"><time>2024-05-04T08:49:43.000Z</time><ele>1269.6</ele></trkpt><trkpt lat="45.858979" lon="9.199776"><time>2024-05-04T08:49:44.000Z</time><ele>1269.8</ele></trkpt><trkpt lat="45.858979" lon="9.199782"><time>2024-05-04T08:49:45.000Z</time><ele>1270</ele></trkpt><trkpt lat="45.858979" lon="9.199783"><time>2024-05-04T08:49:46.000Z</time><ele>1270.2</ele></trkpt><trkpt lat="45.858982" lon="9.19979"><time>2024-05-04T08:49:47.000Z</time><ele>1270.2</ele></trkpt><trkpt lat="45.858986" lon="9.199796"><time>2024-05-04T08:49:48.000Z</time><ele>1270.4</ele></trkpt><trkpt lat="45.858989" lon="9.199802"><time>2024-05-04T08:49:49.000Z</time><ele>1270.4</ele></trkpt><trkpt lat="45.858997" lon="9.199802"><time>2024-05-04T08:49:50.000Z</time><ele>1270.6</ele></trkpt><trkpt lat="45.859002" lon="9.199806"><time>2024-05-04T08:49:51.000Z</time><ele>1270.6</ele></trkpt><trkpt lat="45.859008" lon="9.199809"><time>2024-05-04T08:49:52.000Z</time><ele>1270.8</ele></trkpt><trkpt lat="45.859014" lon="9.199811"><time>2024-05-04T08:49:53.000Z</time><ele>1270.8</ele></trkpt><trkpt lat="45.85902" lon="9.19981"><time>2024-05-04T08:49:54.000Z</time><ele>1271.2</ele></trkpt><trkpt lat="45.859026" lon="9.199805"><time>2024-05-04T08:49:55.000Z</time><ele>1271.6</ele></trkpt><trkpt lat="45.85903" lon="9.199796"><time>2024-05-04T08:49:56.000Z</time><ele>1271.8</ele></trkpt><trkpt lat="45.859033" lon="9.199789"><time>2024-05-04T08:49:57.000Z</time><ele>1272</ele></trkpt><trkpt lat="45.859039" lon="9.199781"><time>2024-05-04T08:49:58.000Z</time><ele>1272.2</ele></trkpt><trkpt lat="45.859044" lon="9.199775"><time>2024-05-04T08:49:59.000Z</time><ele>1272.6</ele></trkpt><trkpt lat="45.85905" lon="9.199768"><time>2024-05-04T08:50:00.000Z</time><ele>1272.8</ele></trkpt><trkpt lat="45.859056" lon="9.199765"><time>2024-05-04T08:50:01.000Z</time><ele>1273</ele></trkpt><trkpt lat="45.859061" lon="9.199765"><time>2024-05-04T08:50:02.000Z</time><ele>1273.4</ele></trkpt><trkpt lat="45.859066" lon="9.199766"><time>2024-05-04T08:50:03.000Z</time><ele>1273.6</ele></trkpt><trkpt lat="45.859069" lon="9.199768"><time>2024-05-04T08:50:04.000Z</time><ele>1274</ele></trkpt><trkpt lat="45.859077" lon="9.199769"><time>2024-05-04T08:50:05.000Z</time><ele>1274.2</ele></trkpt><trkpt lat="45.85908" lon="9.199771"><time>2024-05-04T08:50:06.000Z</time><ele>1274.4</ele></trkpt><trkpt lat="45.859084" lon="9.199773"><time>2024-05-04T08:50:07.000Z</time><ele>1274.4</ele></trkpt><trkpt lat="45.85909" lon="9.199773"><time>2024-05-04T08:50:08.000Z</time><ele>1274.4</ele></trkpt><trkpt lat="45.859093" lon="9.199775"><time>2024-05-04T08:50:09.000Z</time><ele>1274.6</ele></trkpt><trkpt lat="45.859096" lon="9.199772"><time>2024-05-04T08:50:10.000Z</time><ele>1274.6</ele></trkpt><trkpt lat="45.859101" lon="9.199771"><time>2024-05-04T08:50:11.000Z</time><ele>1274.8</ele></trkpt><trkpt lat="45.859105" lon="9.199769"><time>2024-05-04T08:50:12.000Z</time><ele>1275</ele></trkpt><trkpt lat="45.859109" lon="9.199769"><time>2024-05-04T08:50:13.000Z</time><ele>1275</ele></trkpt><trkpt lat="45.859112" lon="9.19977"><time>2024-05-04T08:50:14.000Z</time><ele>1275.2</ele></trkpt><trkpt lat="45.859113" lon="9.19977"><time>2024-05-04T08:50:15.000Z</time><ele>1275.2</ele></trkpt><trkpt lat="45.859115" lon="9.199773"><time>2024-05-04T08:50:16.000Z</time><ele>1275.4</ele></trkpt><trkpt lat="45.859117" lon="9.199777"><time>2024-05-04T08:50:17.000Z</time><ele>1275.6</ele></trkpt><trkpt lat="45.859121" lon="9.19978"><time>2024-05-04T08:50:18.000Z</time><ele>1275.8</ele></trkpt><trkpt lat="45.859128" lon="9.199782"><time>2024-05-04T08:50:19.000Z</time><ele>1276</ele></trkpt><trkpt lat="45.859136" lon="9.199785"><time>2024-05-04T08:50:20.000Z</time><ele>1276.2</ele></trkpt><trkpt lat="45.85914" lon="9.199787"><time>2024-05-04T08:50:21.000Z</time><ele>1276.4</ele></trkpt><trkpt lat="45.859142" lon="9.199789"><time>2024-05-04T08:50:22.000Z</time><ele>1276.8</ele></trkpt><trkpt lat="45.859145" lon="9.19979"><time>2024-05-04T08:50:23.000Z</time><ele>1277.2</ele></trkpt><trkpt lat="45.859147" lon="9.199793"><time>2024-05-04T08:50:24.000Z</time><ele>1277.4</ele></trkpt><trkpt lat="45.85915" lon="9.199797"><time>2024-05-04T08:50:25.000Z</time><ele>1277.4</ele></trkpt><trkpt lat="45.859154" lon="9.1998"><time>2024-05-04T08:50:26.000Z</time><ele>1277.6</ele></trkpt><trkpt lat="45.859155" lon="9.199806"><time>2024-05-04T08:50:27.000Z</time><ele>1277.8</ele></trkpt><trkpt lat="45.859156" lon="9.199811"><time>2024-05-04T08:50:28.000Z</time><ele>1278</ele></trkpt><trkpt lat="45.859159" lon="9.199822"><time>2024-05-04T08:50:29.000Z</time><ele>1278.2</ele></trkpt><trkpt lat="45.859163" lon="9.199828"><time>2024-05-04T08:50:30.000Z</time><ele>1278.4</ele></trkpt><trkpt lat="45.859167" lon="9.199828"><time>2024-05-04T08:50:31.000Z</time><ele>1278.6</ele></trkpt><trkpt lat="45.859175" lon="9.199828"><time>2024-05-04T08:50:32.000Z</time><ele>1278.8</ele></trkpt><trkpt lat="45.859183" lon="9.199826"><time>2024-05-04T08:50:33.000Z</time><ele>1279</ele></trkpt><trkpt lat="45.859188" lon="9.199824"><time>2024-05-04T08:50:34.000Z</time><ele>1279</ele></trkpt><trkpt lat="45.859191" lon="9.199823"><time>2024-05-04T08:50:35.000Z</time><ele>1279.2</ele></trkpt><trkpt lat="45.859195" lon="9.199823"><time>2024-05-04T08:50:36.000Z</time><ele>1279.2</ele></trkpt><trkpt lat="45.859201" lon="9.199824"><time>2024-05-04T08:50:37.000Z</time><ele>1279.2</ele></trkpt><trkpt lat="45.859207" lon="9.199822"><time>2024-05-04T08:50:38.000Z</time><ele>1279.2</ele></trkpt><trkpt lat="45.859213" lon="9.199819"><time>2024-05-04T08:50:39.000Z</time><ele>1279.4</ele></trkpt><trkpt lat="45.859215" lon="9.199817"><time>2024-05-04T08:50:40.000Z</time><ele>1279.6</ele></trkpt><trkpt lat="45.859217" lon="9.199814"><time>2024-05-04T08:50:41.000Z</time><ele>1279.8</ele></trkpt><trkpt lat="45.859219" lon="9.199812"><time>2024-05-04T08:50:42.000Z</time><ele>1280</ele></trkpt><trkpt lat="45.859223" lon="9.199812"><time>2024-05-04T08:50:43.000Z</time><ele>1280.2</ele></trkpt><trkpt lat="45.85923" lon="9.199811"><time>2024-05-04T08:50:44.000Z</time><ele>1280.4</ele></trkpt><trkpt lat="45.859235" lon="9.199812"><time>2024-05-04T08:50:45.000Z</time><ele>1280.6</ele></trkpt><trkpt lat="45.85924" lon="9.199813"><time>2024-05-04T08:50:46.000Z</time><ele>1280.6</ele></trkpt><trkpt lat="45.859244" lon="9.199814"><time>2024-05-04T08:50:47.000Z</time><ele>1280.8</ele></trkpt><trkpt lat="45.859248" lon="9.199816"><time>2024-05-04T08:50:48.000Z</time><ele>1281</ele></trkpt><trkpt lat="45.859254" lon="9.199821"><time>2024-05-04T08:50:49.000Z</time><ele>1281.2</ele></trkpt><trkpt lat="45.85926" lon="9.199827"><time>2024-05-04T08:50:50.000Z</time><ele>1281.2</ele></trkpt><trkpt lat="45.859261" lon="9.199833"><time>2024-05-04T08:50:51.000Z</time><ele>1281.2</ele></trkpt><trkpt lat="45.859261" lon="9.199838"><time>2024-05-04T08:50:52.000Z</time><ele>1281.6</ele></trkpt><trkpt lat="45.859264" lon="9.199845"><time>2024-05-04T08:50:53.000Z</time><ele>1282</ele></trkpt><trkpt lat="45.859267" lon="9.199852"><time>2024-05-04T08:50:54.000Z</time><ele>1282.2</ele></trkpt><trkpt lat="45.859271" lon="9.199855"><time>2024-05-04T08:50:55.000Z</time><ele>1282.4</ele></trkpt><trkpt lat="45.859279" lon="9.199851"><time>2024-05-04T08:50:56.000Z</time><ele>1282.4</ele></trkpt><trkpt lat="45.859286" lon="9.199852"><time>2024-05-04T08:50:57.000Z</time><ele>1282.6</ele></trkpt><trkpt lat="45.85929" lon="9.199853"><time>2024-05-04T08:50:58.000Z</time><ele>1282.8</ele></trkpt><trkpt lat="45.859293" lon="9.199853"><time>2024-05-04T08:50:59.000Z</time><ele>1283</ele></trkpt><trkpt lat="45.859299" lon="9.199856"><time>2024-05-04T08:51:00.000Z</time><ele>1283</ele></trkpt><trkpt lat="45.859301" lon="9.199862"><time>2024-05-04T08:51:01.000Z</time><ele>1283.2</ele></trkpt><trkpt lat="45.859303" lon="9.199866"><time>2024-05-04T08:51:02.000Z</time><ele>1283.2</ele></trkpt><trkpt lat="45.859309" lon="9.199865"><time>2024-05-04T08:51:03.000Z</time><ele>1283.4</ele></trkpt><trkpt lat="45.859313" lon="9.199869"><time>2024-05-04T08:51:04.000Z</time><ele>1283.6</ele></trkpt><trkpt lat="45.859319" lon="9.199873"><time>2024-05-04T08:51:05.000Z</time><ele>1283.8</ele></trkpt><trkpt lat="45.859324" lon="9.199881"><time>2024-05-04T08:51:06.000Z</time><ele>1284</ele></trkpt><trkpt lat="45.859328" lon="9.199884"><time>2024-05-04T08:51:07.000Z</time><ele>1284.2</ele></trkpt><trkpt lat="45.859331" lon="9.199887"><time>2024-05-04T08:51:08.000Z</time><ele>1284.2</ele></trkpt><trkpt lat="45.859335" lon="9.199893"><time>2024-05-04T08:51:09.000Z</time><ele>1284.4</ele></trkpt><trkpt lat="45.859341" lon="9.199898"><time>2024-05-04T08:51:10.000Z</time><ele>1284.6</ele></trkpt><trkpt lat="45.859346" lon="9.199899"><time>2024-05-04T08:51:11.000Z</time><ele>1284.8</ele></trkpt><trkpt lat="45.859354" lon="9.1999"><time>2024-05-04T08:51:12.000Z</time><ele>1285</ele></trkpt><trkpt lat="45.85936" lon="9.1999"><time>2024-05-04T08:51:13.000Z</time><ele>1285.4</ele></trkpt><trkpt lat="45.859367" lon="9.199901"><time>2024-05-04T08:51:14.000Z</time><ele>1285.8</ele></trkpt><trkpt lat="45.859371" lon="9.199902"><time>2024-05-04T08:51:15.000Z</time><ele>1286</ele></trkpt><trkpt lat="45.859373" lon="9.199909"><time>2024-05-04T08:51:16.000Z</time><ele>1286.2</ele></trkpt><trkpt lat="45.859379" lon="9.199911"><time>2024-05-04T08:51:17.000Z</time><ele>1286.4</ele></trkpt><trkpt lat="45.859383" lon="9.199906"><time>2024-05-04T08:51:18.000Z</time><ele>1286.8</ele></trkpt><trkpt lat="45.859389" lon="9.199901"><time>2024-05-04T08:51:19.000Z</time><ele>1286.8</ele></trkpt><trkpt lat="45.859394" lon="9.199899"><time>2024-05-04T08:51:20.000Z</time><ele>1286.8</ele></trkpt><trkpt lat="45.859398" lon="9.199898"><time>2024-05-04T08:51:21.000Z</time><ele>1287</ele></trkpt><trkpt lat="45.8594" lon="9.199896"><time>2024-05-04T08:51:22.000Z</time><ele>1287</ele></trkpt><trkpt lat="45.859404" lon="9.199894"><time>2024-05-04T08:51:23.000Z</time><ele>1287.2</ele></trkpt><trkpt lat="45.859408" lon="9.199896"><time>2024-05-04T08:51:24.000Z</time><ele>1287.4</ele></trkpt><trkpt lat="45.85941" lon="9.199899"><time>2024-05-04T08:51:25.000Z</time><ele>1287.8</ele></trkpt><trkpt lat="45.859413" lon="9.1999"><time>2024-05-04T08:51:26.000Z</time><ele>1288</ele></trkpt><trkpt lat="45.85942" lon="9.199901"><time>2024-05-04T08:51:27.000Z</time><ele>1288.2</ele></trkpt><trkpt lat="45.859425" lon="9.199902"><time>2024-05-04T08:51:28.000Z</time><ele>1288.4</ele></trkpt><trkpt lat="45.85943" lon="9.199905"><time>2024-05-04T08:51:29.000Z</time><ele>1288.6</ele></trkpt><trkpt lat="45.859435" lon="9.199909"><time>2024-05-04T08:51:30.000Z</time><ele>1288.6</ele></trkpt><trkpt lat="45.859439" lon="9.199911"><time>2024-05-04T08:51:31.000Z</time><ele>1288.6</ele></trkpt><trkpt lat="45.859446" lon="9.199912"><time>2024-05-04T08:51:32.000Z</time><ele>1288.8</ele></trkpt><trkpt lat="45.859453" lon="9.199911"><time>2024-05-04T08:51:33.000Z</time><ele>1289.2</ele></trkpt><trkpt lat="45.859461" lon="9.199913"><time>2024-05-04T08:51:34.000Z</time><ele>1289.4</ele></trkpt><trkpt lat="45.859464" lon="9.199911"><time>2024-05-04T08:51:35.000Z</time><ele>1289.6</ele></trkpt><trkpt lat="45.859471" lon="9.199905"><time>2024-05-04T08:51:36.000Z</time><ele>1289.8</ele></trkpt><trkpt lat="45.859476" lon="9.199901"><time>2024-05-04T08:51:37.000Z</time><ele>1290</ele></trkpt><trkpt lat="45.859479" lon="9.199898"><time>2024-05-04T08:51:38.000Z</time><ele>1290.4</ele></trkpt><trkpt lat="45.859482" lon="9.199892"><time>2024-05-04T08:51:39.000Z</time><ele>1290.6</ele></trkpt><trkpt lat="45.859485" lon="9.199887"><time>2024-05-04T08:51:40.000Z</time><ele>1290.8</ele></trkpt><trkpt lat="45.859488" lon="9.199887"><time>2024-05-04T08:51:41.000Z</time><ele>1291</ele></trkpt><trkpt lat="45.859491" lon="9.199888"><time>2024-05-04T08:51:42.000Z</time><ele>1291</ele></trkpt><trkpt lat="45.859495" lon="9.199891"><time>2024-05-04T08:51:43.000Z</time><ele>1291.2</ele></trkpt><trkpt lat="45.859498" lon="9.199895"><time>2024-05-04T08:51:44.000Z</time><ele>1291.4</ele></trkpt><trkpt lat="45.859498" lon="9.199902"><time>2024-05-04T08:51:45.000Z</time><ele>1291.6</ele></trkpt><trkpt lat="45.859498" lon="9.19991"><time>2024-05-04T08:51:46.000Z</time><ele>1291.6</ele></trkpt><trkpt lat="45.859499" lon="9.199918"><time>2024-05-04T08:51:47.000Z</time><ele>1292</ele></trkpt><trkpt lat="45.859503" lon="9.199923"><time>2024-05-04T08:51:48.000Z</time><ele>1292</ele></trkpt><trkpt lat="45.859508" lon="9.199925"><time>2024-05-04T08:51:49.000Z</time><ele>1292.2</ele></trkpt><trkpt lat="45.859513" lon="9.199929"><time>2024-05-04T08:51:50.000Z</time><ele>1292.2</ele></trkpt><trkpt lat="45.859516" lon="9.199932"><time>2024-05-04T08:51:51.000Z</time><ele>1292.4</ele></trkpt><trkpt lat="45.859521" lon="9.199933"><time>2024-05-04T08:51:52.000Z</time><ele>1292.4</ele></trkpt><trkpt lat="45.859526" lon="9.199934"><time>2024-05-04T08:51:53.000Z</time><ele>1292.6</ele></trkpt><trkpt lat="45.859531" lon="9.199937"><time>2024-05-04T08:51:54.000Z</time><ele>1292.8</ele></trkpt><trkpt lat="45.859536" lon="9.199938"><time>2024-05-04T08:51:55.000Z</time><ele>1293</ele></trkpt><trkpt lat="45.85954" lon="9.199938"><time>2024-05-04T08:51:56.000Z</time><ele>1293</ele></trkpt><trkpt lat="45.859542" lon="9.199938"><time>2024-05-04T08:51:57.000Z</time><ele>1293.4</ele></trkpt><trkpt lat="45.859543" lon="9.19994"><time>2024-05-04T08:51:58.000Z</time><ele>1293.8</ele></trkpt><trkpt lat="45.859544" lon="9.199942"><time>2024-05-04T08:51:59.000Z</time><ele>1294</ele></trkpt><trkpt lat="45.859547" lon="9.199945"><time>2024-05-04T08:52:00.000Z</time><ele>1294.2</ele></trkpt><trkpt lat="45.859551" lon="9.199948"><time>2024-05-04T08:52:01.000Z</time><ele>1294.2</ele></trkpt><trkpt lat="45.859555" lon="9.199952"><time>2024-05-04T08:52:02.000Z</time><ele>1294.2</ele></trkpt><trkpt lat="45.859558" lon="9.199957"><time>2024-05-04T08:52:03.000Z</time><ele>1294.2</ele></trkpt><trkpt lat="45.859562" lon="9.199959"><time>2024-05-04T08:52:04.000Z</time><ele>1294.4</ele></trkpt><trkpt lat="45.859568" lon="9.19996"><time>2024-05-04T08:52:05.000Z</time><ele>1294.4</ele></trkpt><trkpt lat="45.859572" lon="9.19996"><time>2024-05-04T08:52:06.000Z</time><ele>1294.6</ele></trkpt><trkpt lat="45.859578" lon="9.199963"><time>2024-05-04T08:52:07.000Z</time><ele>1295</ele></trkpt><trkpt lat="45.859583" lon="9.199965"><time>2024-05-04T08:52:08.000Z</time><ele>1295.2</ele></trkpt><trkpt lat="45.859588" lon="9.199965"><time>2024-05-04T08:52:09.000Z</time><ele>1295.2</ele></trkpt><trkpt lat="45.859593" lon="9.199964"><time>2024-05-04T08:52:10.000Z</time><ele>1295.4</ele></trkpt><trkpt lat="45.859598" lon="9.199965"><time>2024-05-04T08:52:11.000Z</time><ele>1295.4</ele></trkpt><trkpt lat="45.859603" lon="9.199965"><time>2024-05-04T08:52:12.000Z</time><ele>1295.4</ele></trkpt><trkpt lat="45.859611" lon="9.199969"><time>2024-05-04T08:52:13.000Z</time><ele>1295.4</ele></trkpt><trkpt lat="45.859616" lon="9.199972"><time>2024-05-04T08:52:14.000Z</time><ele>1295.4</ele></trkpt><trkpt lat="45.859621" lon="9.199979"><time>2024-05-04T08:52:15.000Z</time><ele>1295.6</ele></trkpt><trkpt lat="45.859625" lon="9.199984"><time>2024-05-04T08:52:16.000Z</time><ele>1295.6</ele></trkpt><trkpt lat="45.859632" lon="9.199988"><time>2024-05-04T08:52:17.000Z</time><ele>1295.8</ele></trkpt><trkpt lat="45.85964" lon="9.199991"><time>2024-05-04T08:52:18.000Z</time><ele>1296</ele></trkpt><trkpt lat="45.859645" lon="9.199992"><time>2024-05-04T08:52:19.000Z</time><ele>1296</ele></trkpt><trkpt lat="45.859653" lon="9.199998"><time>2024-05-04T08:52:20.000Z</time><ele>1296.2</ele></trkpt><trkpt lat="45.859659" lon="9.200001"><time>2024-05-04T08:52:21.000Z</time><ele>1296.2</ele></trkpt><trkpt lat="45.859666" lon="9.200005"><time>2024-05-04T08:52:22.000Z</time><ele>1296.4</ele></trkpt><trkpt lat="45.859675" lon="9.200014"><time>2024-05-04T08:52:23.000Z</time><ele>1296.6</ele></trkpt><trkpt lat="45.859682" lon="9.20002"><time>2024-05-04T08:52:24.000Z</time><ele>1296.6</ele></trkpt><trkpt lat="45.85969" lon="9.200025"><time>2024-05-04T08:52:25.000Z</time><ele>1297</ele></trkpt><trkpt lat="45.859695" lon="9.200025"><time>2024-05-04T08:52:26.000Z</time><ele>1297</ele></trkpt><trkpt lat="45.859703" lon="9.20003"><time>2024-05-04T08:52:27.000Z</time><ele>1297.2</ele></trkpt><trkpt lat="45.85971" lon="9.200037"><time>2024-05-04T08:52:28.000Z</time><ele>1297.2</ele></trkpt><trkpt lat="45.85972" lon="9.200044"><time>2024-05-04T08:52:29.000Z</time><ele>1297.2</ele></trkpt><trkpt lat="45.859732" lon="9.20005"><time>2024-05-04T08:52:30.000Z</time><ele>1297.2</ele></trkpt><trkpt lat="45.859743" lon="9.200055"><time>2024-05-04T08:52:31.000Z</time><ele>1297.4</ele></trkpt><trkpt lat="45.859752" lon="9.200062"><time>2024-05-04T08:52:32.000Z</time><ele>1297.6</ele></trkpt><trkpt lat="45.859756" lon="9.200066"><time>2024-05-04T08:52:33.000Z</time><ele>1297.6</ele></trkpt><trkpt lat="45.85976" lon="9.200071"><time>2024-05-04T08:52:34.000Z</time><ele>1297.8</ele></trkpt><trkpt lat="45.85977" lon="9.200079"><time>2024-05-04T08:52:35.000Z</time><ele>1298</ele></trkpt><trkpt lat="45.859778" lon="9.200082"><time>2024-05-04T08:52:36.000Z</time><ele>1298</ele></trkpt><trkpt lat="45.859785" lon="9.200086"><time>2024-05-04T08:52:37.000Z</time><ele>1298</ele></trkpt><trkpt lat="45.859792" lon="9.20009"><time>2024-05-04T08:52:38.000Z</time><ele>1298</ele></trkpt><trkpt lat="45.859801" lon="9.200095"><time>2024-05-04T08:52:39.000Z</time><ele>1298</ele></trkpt><trkpt lat="45.859808" lon="9.200098"><time>2024-05-04T08:52:40.000Z</time><ele>1298</ele></trkpt><trkpt lat="45.859817" lon="9.2001"><time>2024-05-04T08:52:41.000Z</time><ele>1298.2</ele></trkpt><trkpt lat="45.859828" lon="9.200103"><time>2024-05-04T08:52:42.000Z</time><ele>1298.2</ele></trkpt><trkpt lat="45.859838" lon="9.20011"><time>2024-05-04T08:52:43.000Z</time><ele>1298.4</ele></trkpt><trkpt lat="45.859846" lon="9.200114"><time>2024-05-04T08:52:44.000Z</time><ele>1298.4</ele></trkpt><trkpt lat="45.859853" lon="9.200118"><time>2024-05-04T08:52:45.000Z</time><ele>1298.6</ele></trkpt><trkpt lat="45.859859" lon="9.200121"><time>2024-05-04T08:52:46.000Z</time><ele>1298.8</ele></trkpt><trkpt lat="45.85987" lon="9.200127"><time>2024-05-04T08:52:47.000Z</time><ele>1299</ele></trkpt><trkpt lat="45.859879" lon="9.200133"><time>2024-05-04T08:52:48.000Z</time><ele>1299</ele></trkpt><trkpt lat="45.859884" lon="9.200134"><time>2024-05-04T08:52:49.000Z</time><ele>1299.2</ele></trkpt><trkpt lat="45.859889" lon="9.200137"><time>2024-05-04T08:52:50.000Z</time><ele>1299.4</ele></trkpt><trkpt lat="45.859895" lon="9.200142"><time>2024-05-04T08:52:51.000Z</time><ele>1299.6</ele></trkpt><trkpt lat="45.859899" lon="9.20015"><time>2024-05-04T08:52:52.000Z</time><ele>1299.6</ele></trkpt><trkpt lat="45.859902" lon="9.200156"><time>2024-05-04T08:52:53.000Z</time><ele>1299.8</ele></trkpt><trkpt lat="45.859906" lon="9.200164"><time>2024-05-04T08:52:54.000Z</time><ele>1299.8</ele></trkpt><trkpt lat="45.85991" lon="9.200171"><time>2024-05-04T08:52:55.000Z</time><ele>1299.8</ele></trkpt><trkpt lat="45.859914" lon="9.200177"><time>2024-05-04T08:52:56.000Z</time><ele>1300</ele></trkpt><trkpt lat="45.859922" lon="9.200184"><time>2024-05-04T08:52:57.000Z</time><ele>1300.2</ele></trkpt><trkpt lat="45.859932" lon="9.200188"><time>2024-05-04T08:52:58.000Z</time><ele>1300.4</ele></trkpt><trkpt lat="45.859941" lon="9.200191"><time>2024-05-04T08:52:59.000Z</time><ele>1300.6</ele></trkpt><trkpt lat="45.859946" lon="9.200197"><time>2024-05-04T08:53:00.000Z</time><ele>1300.8</ele></trkpt><trkpt lat="45.85995" lon="9.200205"><time>2024-05-04T08:53:01.000Z</time><ele>1301.2</ele></trkpt><trkpt lat="45.859957" lon="9.200214"><time>2024-05-04T08:53:02.000Z</time><ele>1301.4</ele></trkpt><trkpt lat="45.859963" lon="9.200222"><time>2024-05-04T08:53:03.000Z</time><ele>1301.4</ele></trkpt><trkpt lat="45.859969" lon="9.200226"><time>2024-05-04T08:53:04.000Z</time><ele>1301.6</ele></trkpt><trkpt lat="45.859975" lon="9.20023"><time>2024-05-04T08:53:05.000Z</time><ele>1301.8</ele></trkpt><trkpt lat="45.85998" lon="9.200234"><time>2024-05-04T08:53:06.000Z</time><ele>1302</ele></trkpt><trkpt lat="45.859983" lon="9.20024"><time>2024-05-04T08:53:07.000Z</time><ele>1302.2</ele></trkpt><trkpt lat="45.859991" lon="9.200249"><time>2024-05-04T08:53:08.000Z</time><ele>1302.4</ele></trkpt><trkpt lat="45.859997" lon="9.200255"><time>2024-05-04T08:53:09.000Z</time><ele>1302.4</ele></trkpt><trkpt lat="45.86" lon="9.200261"><time>2024-05-04T08:53:10.000Z</time><ele>1302.6</ele></trkpt><trkpt lat="45.860003" lon="9.200266"><time>2024-05-04T08:53:11.000Z</time><ele>1302.6</ele></trkpt><trkpt lat="45.86001" lon="9.200271"><time>2024-05-04T08:53:12.000Z</time><ele>1303</ele></trkpt><trkpt lat="45.860016" lon="9.200277"><time>2024-05-04T08:53:13.000Z</time><ele>1303.2</ele></trkpt><trkpt lat="45.860021" lon="9.200284"><time>2024-05-04T08:53:14.000Z</time><ele>1303.2</ele></trkpt><trkpt lat="45.860026" lon="9.200289"><time>2024-05-04T08:53:15.000Z</time><ele>1304</ele></trkpt><trkpt lat="45.86003" lon="9.200299"><time>2024-05-04T08:53:16.000Z</time><ele>1304.2</ele></trkpt><trkpt lat="45.860034" lon="9.200309"><time>2024-05-04T08:53:17.000Z</time><ele>1304.4</ele></trkpt><trkpt lat="45.860039" lon="9.200316"><time>2024-05-04T08:53:18.000Z</time><ele>1304.6</ele></trkpt><trkpt lat="45.860046" lon="9.200325"><time>2024-05-04T08:53:19.000Z</time><ele>1304.8</ele></trkpt><trkpt lat="45.860051" lon="9.20033"><time>2024-05-04T08:53:20.000Z</time><ele>1304.8</ele></trkpt><trkpt lat="45.860058" lon="9.200338"><time>2024-05-04T08:53:21.000Z</time><ele>1305</ele></trkpt><trkpt lat="45.860063" lon="9.200343"><time>2024-05-04T08:53:22.000Z</time><ele>1305.2</ele></trkpt><trkpt lat="45.860067" lon="9.200345"><time>2024-05-04T08:53:23.000Z</time><ele>1305.6</ele></trkpt><trkpt lat="45.860072" lon="9.20035"><time>2024-05-04T08:53:24.000Z</time><ele>1305.8</ele></trkpt><trkpt lat="45.860078" lon="9.200356"><time>2024-05-04T08:53:25.000Z</time><ele>1306</ele></trkpt><trkpt lat="45.860084" lon="9.200365"><time>2024-05-04T08:53:26.000Z</time><ele>1306.2</ele></trkpt><trkpt lat="45.860089" lon="9.200372"><time>2024-05-04T08:53:27.000Z</time><ele>1306.2</ele></trkpt><trkpt lat="45.860094" lon="9.200377"><time>2024-05-04T08:53:28.000Z</time><ele>1306.6</ele></trkpt><trkpt lat="45.860096" lon="9.200379"><time>2024-05-04T08:53:29.000Z</time><ele>1306.8</ele></trkpt><trkpt lat="45.860098" lon="9.200383"><time>2024-05-04T08:53:30.000Z</time><ele>1307</ele></trkpt><trkpt lat="45.860101" lon="9.20039"><time>2024-05-04T08:53:31.000Z</time><ele>1307.4</ele></trkpt><trkpt lat="45.860107" lon="9.200395"><time>2024-05-04T08:53:32.000Z</time><ele>1307.6</ele></trkpt><trkpt lat="45.860112" lon="9.200396"><time>2024-05-04T08:53:33.000Z</time><ele>1307.8</ele></trkpt><trkpt lat="45.860116" lon="9.200398"><time>2024-05-04T08:53:34.000Z</time><ele>1308</ele></trkpt><trkpt lat="45.860118" lon="9.200404"><time>2024-05-04T08:53:35.000Z</time><ele>1308.2</ele></trkpt><trkpt lat="45.86012" lon="9.200407"><time>2024-05-04T08:53:36.000Z</time><ele>1308.4</ele></trkpt><trkpt lat="45.860125" lon="9.200413"><time>2024-05-04T08:53:37.000Z</time><ele>1308.8</ele></trkpt><trkpt lat="45.860128" lon="9.20042"><time>2024-05-04T08:53:38.000Z</time><ele>1309</ele></trkpt><trkpt lat="45.860133" lon="9.200426"><time>2024-05-04T08:53:39.000Z</time><ele>1309</ele></trkpt><trkpt lat="45.860137" lon="9.200434"><time>2024-05-04T08:53:40.000Z</time><ele>1309</ele></trkpt><trkpt lat="45.86014" lon="9.200444"><time>2024-05-04T08:53:41.000Z</time><ele>1309.2</ele></trkpt><trkpt lat="45.860148" lon="9.200451"><time>2024-05-04T08:53:42.000Z</time><ele>1309.4</ele></trkpt><trkpt lat="45.860152" lon="9.200456"><time>2024-05-04T08:53:43.000Z</time><ele>1309.6</ele></trkpt><trkpt lat="45.860158" lon="9.200461"><time>2024-05-04T08:53:44.000Z</time><ele>1309.8</ele></trkpt><trkpt lat="45.860165" lon="9.200464"><time>2024-05-04T08:53:45.000Z</time><ele>1310</ele></trkpt><trkpt lat="45.860174" lon="9.200469"><time>2024-05-04T08:53:46.000Z</time><ele>1310.2</ele></trkpt><trkpt lat="45.860179" lon="9.20047"><time>2024-05-04T08:53:47.000Z</time><ele>1310.4</ele></trkpt><trkpt lat="45.860183" lon="9.200477"><time>2024-05-04T08:53:48.000Z</time><ele>1310.6</ele></trkpt><trkpt lat="45.860188" lon="9.200484"><time>2024-05-04T08:53:49.000Z</time><ele>1310.8</ele></trkpt><trkpt lat="45.860192" lon="9.200486"><time>2024-05-04T08:53:50.000Z</time><ele>1311</ele></trkpt><trkpt lat="45.860197" lon="9.200492"><time>2024-05-04T08:53:51.000Z</time><ele>1311.4</ele></trkpt><trkpt lat="45.860199" lon="9.200497"><time>2024-05-04T08:53:52.000Z</time><ele>1311.6</ele></trkpt><trkpt lat="45.860204" lon="9.200502"><time>2024-05-04T08:53:53.000Z</time><ele>1311.8</ele></trkpt><trkpt lat="45.860211" lon="9.200509"><time>2024-05-04T08:53:54.000Z</time><ele>1312</ele></trkpt><trkpt lat="45.860217" lon="9.200515"><time>2024-05-04T08:53:55.000Z</time><ele>1312</ele></trkpt><trkpt lat="45.860224" lon="9.200519"><time>2024-05-04T08:53:56.000Z</time><ele>1312.4</ele></trkpt><trkpt lat="45.860229" lon="9.200522"><time>2024-05-04T08:53:57.000Z</time><ele>1312.6</ele></trkpt><trkpt lat="45.860234" lon="9.200523"><time>2024-05-04T08:53:58.000Z</time><ele>1313</ele></trkpt><trkpt lat="45.860236" lon="9.200526"><time>2024-05-04T08:53:59.000Z</time><ele>1313</ele></trkpt><trkpt lat="45.860239" lon="9.200529"><time>2024-05-04T08:54:00.000Z</time><ele>1313.4</ele></trkpt><trkpt lat="45.860242" lon="9.200534"><time>2024-05-04T08:54:01.000Z</time><ele>1313.6</ele></trkpt><trkpt lat="45.860247" lon="9.200542"><time>2024-05-04T08:54:02.000Z</time><ele>1313.8</ele></trkpt><trkpt lat="45.86025" lon="9.200546"><time>2024-05-04T08:54:03.000Z</time><ele>1314</ele></trkpt><trkpt lat="45.860254" lon="9.20055"><time>2024-05-04T08:54:04.000Z</time><ele>1314</ele></trkpt><trkpt lat="45.860258" lon="9.200552"><time>2024-05-04T08:54:05.000Z</time><ele>1314.2</ele></trkpt><trkpt lat="45.860262" lon="9.200558"><time>2024-05-04T08:54:06.000Z</time><ele>1314.4</ele></trkpt><trkpt lat="45.860268" lon="9.200563"><time>2024-05-04T08:54:07.000Z</time><ele>1314.6</ele></trkpt><trkpt lat="45.860272" lon="9.200566"><time>2024-05-04T08:54:08.000Z</time><ele>1315</ele></trkpt><trkpt lat="45.860278" lon="9.200561"><time>2024-05-04T08:54:09.000Z</time><ele>1315.2</ele></trkpt><trkpt lat="45.860287" lon="9.200561"><time>2024-05-04T08:54:10.000Z</time><ele>1315.4</ele></trkpt><trkpt lat="45.860292" lon="9.200562"><time>2024-05-04T08:54:11.000Z</time><ele>1315.6</ele></trkpt><trkpt lat="45.860295" lon="9.200564"><time>2024-05-04T08:54:12.000Z</time><ele>1315.8</ele></trkpt><trkpt lat="45.860297" lon="9.200567"><time>2024-05-04T08:54:13.000Z</time><ele>1316</ele></trkpt><trkpt lat="45.860301" lon="9.200571"><time>2024-05-04T08:54:14.000Z</time><ele>1316.2</ele></trkpt><trkpt lat="45.860306" lon="9.200574"><time>2024-05-04T08:54:15.000Z</time><ele>1316.4</ele></trkpt><trkpt lat="45.860312" lon="9.20058"><time>2024-05-04T08:54:16.000Z</time><ele>1316.4</ele></trkpt><trkpt lat="45.860319" lon="9.200585"><time>2024-05-04T08:54:17.000Z</time><ele>1316.6</ele></trkpt><trkpt lat="45.860326" lon="9.20059"><time>2024-05-04T08:54:18.000Z</time><ele>1316.8</ele></trkpt><trkpt lat="45.860332" lon="9.200594"><time>2024-05-04T08:54:19.000Z</time><ele>1316.8</ele></trkpt><trkpt lat="45.860335" lon="9.200596"><time>2024-05-04T08:54:20.000Z</time><ele>1317</ele></trkpt><trkpt lat="45.860337" lon="9.2006"><time>2024-05-04T08:54:21.000Z</time><ele>1317.2</ele></trkpt><trkpt lat="45.860339" lon="9.200603"><time>2024-05-04T08:54:22.000Z</time><ele>1317.2</ele></trkpt><trkpt lat="45.860343" lon="9.200611"><time>2024-05-04T08:54:23.000Z</time><ele>1317.4</ele></trkpt><trkpt lat="45.860345" lon="9.200614"><time>2024-05-04T08:54:24.000Z</time><ele>1317.4</ele></trkpt><trkpt lat="45.860346" lon="9.200618"><time>2024-05-04T08:54:25.000Z</time><ele>1317.8</ele></trkpt><trkpt lat="45.86035" lon="9.200622"><time>2024-05-04T08:54:26.000Z</time><ele>1318.2</ele></trkpt><trkpt lat="45.860355" lon="9.200627"><time>2024-05-04T08:54:27.000Z</time><ele>1318.6</ele></trkpt><trkpt lat="45.860359" lon="9.200633"><time>2024-05-04T08:54:28.000Z</time><ele>1318.8</ele></trkpt><trkpt lat="45.860363" lon="9.200641"><time>2024-05-04T08:54:29.000Z</time><ele>1319.2</ele></trkpt><trkpt lat="45.860368" lon="9.200649"><time>2024-05-04T08:54:30.000Z</time><ele>1319.4</ele></trkpt><trkpt lat="45.860373" lon="9.200659"><time>2024-05-04T08:54:31.000Z</time><ele>1319.6</ele></trkpt><trkpt lat="45.860375" lon="9.200668"><time>2024-05-04T08:54:32.000Z</time><ele>1319.6</ele></trkpt><trkpt lat="45.860379" lon="9.200678"><time>2024-05-04T08:54:33.000Z</time><ele>1319.8</ele></trkpt><trkpt lat="45.860383" lon="9.200686"><time>2024-05-04T08:54:34.000Z</time><ele>1319.8</ele></trkpt><trkpt lat="45.860384" lon="9.200695"><time>2024-05-04T08:54:35.000Z</time><ele>1319.8</ele></trkpt><trkpt lat="45.860386" lon="9.200702"><time>2024-05-04T08:54:36.000Z</time><ele>1319.8</ele></trkpt><trkpt lat="45.860391" lon="9.200705"><time>2024-05-04T08:54:37.000Z</time><ele>1319.8</ele></trkpt><trkpt lat="45.860396" lon="9.200706"><time>2024-05-04T08:54:38.000Z</time><ele>1320</ele></trkpt><trkpt lat="45.8604" lon="9.200711"><time>2024-05-04T08:54:39.000Z</time><ele>1320.2</ele></trkpt><trkpt lat="45.860402" lon="9.200713"><time>2024-05-04T08:54:40.000Z</time><ele>1320.4</ele></trkpt><trkpt lat="45.860406" lon="9.200716"><time>2024-05-04T08:54:41.000Z</time><ele>1320.6</ele></trkpt><trkpt lat="45.860411" lon="9.200716"><time>2024-05-04T08:54:42.000Z</time><ele>1320.8</ele></trkpt><trkpt lat="45.860415" lon="9.200719"><time>2024-05-04T08:54:43.000Z</time><ele>1321</ele></trkpt><trkpt lat="45.860418" lon="9.200724"><time>2024-05-04T08:54:44.000Z</time><ele>1321.4</ele></trkpt><trkpt lat="45.860424" lon="9.200726"><time>2024-05-04T08:54:45.000Z</time><ele>1321.6</ele></trkpt><trkpt lat="45.860426" lon="9.200727"><time>2024-05-04T08:54:46.000Z</time><ele>1321.8</ele></trkpt><trkpt lat="45.86043" lon="9.20073"><time>2024-05-04T08:54:47.000Z</time><ele>1322.2</ele></trkpt><trkpt lat="45.860438" lon="9.200734"><time>2024-05-04T08:54:48.000Z</time><ele>1322.6</ele></trkpt><trkpt lat="45.860442" lon="9.200735"><time>2024-05-04T08:54:49.000Z</time><ele>1322.8</ele></trkpt><trkpt lat="45.860445" lon="9.200735"><time>2024-05-04T08:54:50.000Z</time><ele>1322.8</ele></trkpt><trkpt lat="45.86045" lon="9.200734"><time>2024-05-04T08:54:51.000Z</time><ele>1323</ele></trkpt><trkpt lat="45.860455" lon="9.200736"><time>2024-05-04T08:54:52.000Z</time><ele>1323.2</ele></trkpt><trkpt lat="45.860457" lon="9.200741"><time>2024-05-04T08:54:53.000Z</time><ele>1323.2</ele></trkpt><trkpt lat="45.860463" lon="9.200739"><time>2024-05-04T08:54:54.000Z</time><ele>1323.6</ele></trkpt><trkpt lat="45.860466" lon="9.20074"><time>2024-05-04T08:54:55.000Z</time><ele>1324</ele></trkpt><trkpt lat="45.860468" lon="9.200741"><time>2024-05-04T08:54:56.000Z</time><ele>1324.2</ele></trkpt><trkpt lat="45.860471" lon="9.200743"><time>2024-05-04T08:54:57.000Z</time><ele>1324.4</ele></trkpt><trkpt lat="45.860476" lon="9.200746"><time>2024-05-04T08:54:58.000Z</time><ele>1324.4</ele></trkpt><trkpt lat="45.860482" lon="9.20075"><time>2024-05-04T08:54:59.000Z</time><ele>1324.6</ele></trkpt><trkpt lat="45.860485" lon="9.200754"><time>2024-05-04T08:55:00.000Z</time><ele>1324.6</ele></trkpt><trkpt lat="45.860486" lon="9.200757"><time>2024-05-04T08:55:01.000Z</time><ele>1324.8</ele></trkpt><trkpt lat="45.860489" lon="9.200763"><time>2024-05-04T08:55:02.000Z</time><ele>1325.2</ele></trkpt><trkpt lat="45.860491" lon="9.200766"><time>2024-05-04T08:55:03.000Z</time><ele>1325.4</ele></trkpt><trkpt lat="45.860499" lon="9.200768"><time>2024-05-04T08:55:04.000Z</time><ele>1325.6</ele></trkpt><trkpt lat="45.860506" lon="9.200771"><time>2024-05-04T08:55:05.000Z</time><ele>1325.6</ele></trkpt><trkpt lat="45.860511" lon="9.200772"><time>2024-05-04T08:55:06.000Z</time><ele>1325.8</ele></trkpt><trkpt lat="45.860516" lon="9.200773"><time>2024-05-04T08:55:07.000Z</time><ele>1326.2</ele></trkpt><trkpt lat="45.86052" lon="9.200774"><time>2024-05-04T08:55:08.000Z</time><ele>1326.4</ele></trkpt><trkpt lat="45.860523" lon="9.200774"><time>2024-05-04T08:55:09.000Z</time><ele>1326.6</ele></trkpt><trkpt lat="45.860524" lon="9.200779"><time>2024-05-04T08:55:10.000Z</time><ele>1327</ele></trkpt><trkpt lat="45.860525" lon="9.200782"><time>2024-05-04T08:55:11.000Z</time><ele>1327.2</ele></trkpt><trkpt lat="45.860523" lon="9.200788"><time>2024-05-04T08:55:12.000Z</time><ele>1327.2</ele></trkpt><trkpt lat="45.860524" lon="9.200792"><time>2024-05-04T08:55:13.000Z</time><ele>1327.4</ele></trkpt><trkpt lat="45.860526" lon="9.200792"><time>2024-05-04T08:55:14.000Z</time><ele>1327.6</ele></trkpt><trkpt lat="45.860527" lon="9.200795"><time>2024-05-04T08:55:15.000Z</time><ele>1327.8</ele></trkpt><trkpt lat="45.86053" lon="9.2008"><time>2024-05-04T08:55:16.000Z</time><ele>1327.8</ele></trkpt><trkpt lat="45.860532" lon="9.200803"><time>2024-05-04T08:55:17.000Z</time><ele>1328</ele></trkpt><trkpt lat="45.860534" lon="9.200805"><time>2024-05-04T08:55:18.000Z</time><ele>1328.2</ele></trkpt><trkpt lat="45.860537" lon="9.200802"><time>2024-05-04T08:55:19.000Z</time><ele>1328.2</ele></trkpt><trkpt lat="45.860541" lon="9.200802"><time>2024-05-04T08:55:20.000Z</time><ele>1328.4</ele></trkpt><trkpt lat="45.860543" lon="9.200802"><time>2024-05-04T08:55:21.000Z</time><ele>1328.6</ele></trkpt><trkpt lat="45.860548" lon="9.200801"><time>2024-05-04T08:55:22.000Z</time><ele>1328.8</ele></trkpt><trkpt lat="45.860552" lon="9.200802"><time>2024-05-04T08:55:23.000Z</time><ele>1329</ele></trkpt><trkpt lat="45.860555" lon="9.200803"><time>2024-05-04T08:55:24.000Z</time><ele>1329.2</ele></trkpt><trkpt lat="45.86056" lon="9.200809"><time>2024-05-04T08:55:25.000Z</time><ele>1329.6</ele></trkpt><trkpt lat="45.860564" lon="9.20081"><time>2024-05-04T08:55:26.000Z</time><ele>1330</ele></trkpt><trkpt lat="45.860566" lon="9.200809"><time>2024-05-04T08:55:27.000Z</time><ele>1330</ele></trkpt><trkpt lat="45.860572" lon="9.200809"><time>2024-05-04T08:55:28.000Z</time><ele>1330.2</ele></trkpt><trkpt lat="45.860576" lon="9.20081"><time>2024-05-04T08:55:29.000Z</time><ele>1330.4</ele></trkpt><trkpt lat="45.860581" lon="9.200811"><time>2024-05-04T08:55:30.000Z</time><ele>1330.6</ele></trkpt><trkpt lat="45.860585" lon="9.200816"><time>2024-05-04T08:55:31.000Z</time><ele>1330.8</ele></trkpt><trkpt lat="45.860588" lon="9.200819"><time>2024-05-04T08:55:32.000Z</time><ele>1330.8</ele></trkpt><trkpt lat="45.86059" lon="9.20082"><time>2024-05-04T08:55:33.000Z</time><ele>1331.2</ele></trkpt><trkpt lat="45.860593" lon="9.20082"><time>2024-05-04T08:55:34.000Z</time><ele>1331.2</ele></trkpt><trkpt lat="45.860598" lon="9.200826"><time>2024-05-04T08:55:35.000Z</time><ele>1331.6</ele></trkpt><trkpt lat="45.860602" lon="9.200832"><time>2024-05-04T08:55:36.000Z</time><ele>1332</ele></trkpt><trkpt lat="45.860608" lon="9.200836"><time>2024-05-04T08:55:37.000Z</time><ele>1332</ele></trkpt><trkpt lat="45.86061" lon="9.200837"><time>2024-05-04T08:55:38.000Z</time><ele>1332.4</ele></trkpt><trkpt lat="45.860612" lon="9.200837"><time>2024-05-04T08:55:39.000Z</time><ele>1332.4</ele></trkpt><trkpt lat="45.860615" lon="9.200838"><time>2024-05-04T08:55:40.000Z</time><ele>1332.6</ele></trkpt><trkpt lat="45.860616" lon="9.200839"><time>2024-05-04T08:55:41.000Z</time><ele>1332.6</ele></trkpt><trkpt lat="45.860618" lon="9.200844"><time>2024-05-04T08:55:42.000Z</time><ele>1332.6</ele></trkpt><trkpt lat="45.860621" lon="9.200848"><time>2024-05-04T08:55:43.000Z</time><ele>1332.8</ele></trkpt><trkpt lat="45.860622" lon="9.20085"><time>2024-05-04T08:55:44.000Z</time><ele>1333</ele></trkpt><trkpt lat="45.860625" lon="9.200853"><time>2024-05-04T08:55:45.000Z</time><ele>1333.2</ele></trkpt><trkpt lat="45.86063" lon="9.200854"><time>2024-05-04T08:55:46.000Z</time><ele>1333.4</ele></trkpt><trkpt lat="45.860635" lon="9.200856"><time>2024-05-04T08:55:47.000Z</time><ele>1333.6</ele></trkpt><trkpt lat="45.860639" lon="9.200858"><time>2024-05-04T08:55:48.000Z</time><ele>1333.8</ele></trkpt><trkpt lat="45.860644" lon="9.200862"><time>2024-05-04T08:55:49.000Z</time><ele>1333.8</ele></trkpt><trkpt lat="45.860652" lon="9.200864"><time>2024-05-04T08:55:50.000Z</time><ele>1334.2</ele></trkpt><trkpt lat="45.860657" lon="9.200872"><time>2024-05-04T08:55:51.000Z</time><ele>1334.4</ele></trkpt><trkpt lat="45.860663" lon="9.200877"><time>2024-05-04T08:55:52.000Z</time><ele>1334.6</ele></trkpt><trkpt lat="45.860666" lon="9.200879"><time>2024-05-04T08:55:53.000Z</time><ele>1334.6</ele></trkpt><trkpt lat="45.860669" lon="9.200882"><time>2024-05-04T08:55:54.000Z</time><ele>1334.8</ele></trkpt><trkpt lat="45.860673" lon="9.200888"><time>2024-05-04T08:55:55.000Z</time><ele>1334.8</ele></trkpt><trkpt lat="45.860675" lon="9.200892"><time>2024-05-04T08:55:56.000Z</time><ele>1334.8</ele></trkpt><trkpt lat="45.860678" lon="9.200896"><time>2024-05-04T08:55:57.000Z</time><ele>1335</ele></trkpt><trkpt lat="45.860682" lon="9.200896"><time>2024-05-04T08:55:58.000Z</time><ele>1335</ele></trkpt><trkpt lat="45.860688" lon="9.200902"><time>2024-05-04T08:55:59.000Z</time><ele>1335.2</ele></trkpt><trkpt lat="45.860693" lon="9.200909"><time>2024-05-04T08:56:00.000Z</time><ele>1335.4</ele></trkpt><trkpt lat="45.860699" lon="9.200913"><time>2024-05-04T08:56:01.000Z</time><ele>1335.4</ele></trkpt><trkpt lat="45.860702" lon="9.200914"><time>2024-05-04T08:56:02.000Z</time><ele>1335.6</ele></trkpt><trkpt lat="45.860706" lon="9.200915"><time>2024-05-04T08:56:03.000Z</time><ele>1335.8</ele></trkpt><trkpt lat="45.860712" lon="9.200917"><time>2024-05-04T08:56:04.000Z</time><ele>1336</ele></trkpt><trkpt lat="45.860717" lon="9.200917"><time>2024-05-04T08:56:05.000Z</time><ele>1336.4</ele></trkpt><trkpt lat="45.86072" lon="9.200916"><time>2024-05-04T08:56:06.000Z</time><ele>1336.6</ele></trkpt><trkpt lat="45.860723" lon="9.200915"><time>2024-05-04T08:56:07.000Z</time><ele>1336.8</ele></trkpt><trkpt lat="45.860726" lon="9.200917"><time>2024-05-04T08:56:08.000Z</time><ele>1337</ele></trkpt><trkpt lat="45.860729" lon="9.200919"><time>2024-05-04T08:56:09.000Z</time><ele>1337.2</ele></trkpt><trkpt lat="45.860734" lon="9.20092"><time>2024-05-04T08:56:10.000Z</time><ele>1337.2</ele></trkpt><trkpt lat="45.860737" lon="9.200921"><time>2024-05-04T08:56:11.000Z</time><ele>1337.4</ele></trkpt><trkpt lat="45.86074" lon="9.200923"><time>2024-05-04T08:56:12.000Z</time><ele>1337.4</ele></trkpt><trkpt lat="45.860742" lon="9.200925"><time>2024-05-04T08:56:13.000Z</time><ele>1337.6</ele></trkpt><trkpt lat="45.860745" lon="9.200927"><time>2024-05-04T08:56:14.000Z</time><ele>1337.6</ele></trkpt><trkpt lat="45.860748" lon="9.200927"><time>2024-05-04T08:56:15.000Z</time><ele>1337.6</ele></trkpt><trkpt lat="45.86075" lon="9.20093"><time>2024-05-04T08:56:16.000Z</time><ele>1337.8</ele></trkpt><trkpt lat="45.860755" lon="9.200931"><time>2024-05-04T08:56:17.000Z</time><ele>1338</ele></trkpt><trkpt lat="45.860761" lon="9.200934"><time>2024-05-04T08:56:18.000Z</time><ele>1338.2</ele></trkpt><trkpt lat="45.860769" lon="9.200934"><time>2024-05-04T08:56:19.000Z</time><ele>1338.2</ele></trkpt><trkpt lat="45.860772" lon="9.200937"><time>2024-05-04T08:56:20.000Z</time><ele>1338.6</ele></trkpt><trkpt lat="45.86078" lon="9.200936"><time>2024-05-04T08:56:21.000Z</time><ele>1338.8</ele></trkpt><trkpt lat="45.860784" lon="9.200936"><time>2024-05-04T08:56:22.000Z</time><ele>1339</ele></trkpt><trkpt lat="45.860787" lon="9.200934"><time>2024-05-04T08:56:23.000Z</time><ele>1339.4</ele></trkpt><trkpt lat="45.860791" lon="9.200933"><time>2024-05-04T08:56:24.000Z</time><ele>1339.6</ele></trkpt><trkpt lat="45.860795" lon="9.200936"><time>2024-05-04T08:56:25.000Z</time><ele>1339.8</ele></trkpt><trkpt lat="45.860801" lon="9.200937"><time>2024-05-04T08:56:26.000Z</time><ele>1340</ele></trkpt><trkpt lat="45.860807" lon="9.20094"><time>2024-05-04T08:56:27.000Z</time><ele>1340.2</ele></trkpt><trkpt lat="45.860813" lon="9.200945"><time>2024-05-04T08:56:28.000Z</time><ele>1340.6</ele></trkpt><trkpt lat="45.860818" lon="9.20095"><time>2024-05-04T08:56:29.000Z</time><ele>1340.8</ele></trkpt><trkpt lat="45.860819" lon="9.200952"><time>2024-05-04T08:56:30.000Z</time><ele>1341</ele></trkpt><trkpt lat="45.860824" lon="9.200955"><time>2024-05-04T08:56:31.000Z</time><ele>1341.4</ele></trkpt><trkpt lat="45.860829" lon="9.200956"><time>2024-05-04T08:56:32.000Z</time><ele>1341.8</ele></trkpt><trkpt lat="45.860833" lon="9.200957"><time>2024-05-04T08:56:33.000Z</time><ele>1342</ele></trkpt><trkpt lat="45.860837" lon="9.200957"><time>2024-05-04T08:56:34.000Z</time><ele>1342</ele></trkpt><trkpt lat="45.86084" lon="9.200958"><time>2024-05-04T08:56:35.000Z</time><ele>1342.2</ele></trkpt><trkpt lat="45.860843" lon="9.200961"><time>2024-05-04T08:56:36.000Z</time><ele>1342.4</ele></trkpt><trkpt lat="45.860844" lon="9.200962"><time>2024-05-04T08:56:37.000Z</time><ele>1342.4</ele></trkpt><trkpt lat="45.860848" lon="9.200965"><time>2024-05-04T08:56:38.000Z</time><ele>1342.4</ele></trkpt><trkpt lat="45.860852" lon="9.20097"><time>2024-05-04T08:56:39.000Z</time><ele>1342.6</ele></trkpt><trkpt lat="45.860856" lon="9.200972"><time>2024-05-04T08:56:40.000Z</time><ele>1342.8</ele></trkpt><trkpt lat="45.860863" lon="9.200973"><time>2024-05-04T08:56:41.000Z</time><ele>1343</ele></trkpt><trkpt lat="45.860867" lon="9.200973"><time>2024-05-04T08:56:42.000Z</time><ele>1343.2</ele></trkpt><trkpt lat="45.86087" lon="9.200972"><time>2024-05-04T08:56:43.000Z</time><ele>1343.4</ele></trkpt><trkpt lat="45.860876" lon="9.200969"><time>2024-05-04T08:56:44.000Z</time><ele>1343.6</ele></trkpt><trkpt lat="45.860879" lon="9.200974"><time>2024-05-04T08:56:45.000Z</time><ele>1343.8</ele></trkpt><trkpt lat="45.860884" lon="9.200978"><time>2024-05-04T08:56:46.000Z</time><ele>1344</ele></trkpt><trkpt lat="45.860889" lon="9.200985"><time>2024-05-04T08:56:47.000Z</time><ele>1344.2</ele></trkpt><trkpt lat="45.860897" lon="9.200987"><time>2024-05-04T08:56:48.000Z</time><ele>1344.2</ele></trkpt><trkpt lat="45.860901" lon="9.200989"><time>2024-05-04T08:56:49.000Z</time><ele>1344.4</ele></trkpt><trkpt lat="45.860905" lon="9.200988"><time>2024-05-04T08:56:50.000Z</time><ele>1344.8</ele></trkpt><trkpt lat="45.86091" lon="9.200989"><time>2024-05-04T08:56:51.000Z</time><ele>1345</ele></trkpt><trkpt lat="45.860914" lon="9.20099"><time>2024-05-04T08:56:52.000Z</time><ele>1345.2</ele></trkpt><trkpt lat="45.860917" lon="9.200991"><time>2024-05-04T08:56:53.000Z</time><ele>1345.4</ele></trkpt><trkpt lat="45.860921" lon="9.200991"><time>2024-05-04T08:56:54.000Z</time><ele>1345.6</ele></trkpt><trkpt lat="45.860926" lon="9.200996"><time>2024-05-04T08:56:55.000Z</time><ele>1346</ele></trkpt><trkpt lat="45.860931" lon="9.201003"><time>2024-05-04T08:56:56.000Z</time><ele>1346.2</ele></trkpt><trkpt lat="45.860935" lon="9.201007"><time>2024-05-04T08:56:57.000Z</time><ele>1346.4</ele></trkpt><trkpt lat="45.860938" lon="9.201009"><time>2024-05-04T08:56:58.000Z</time><ele>1346.6</ele></trkpt><trkpt lat="45.860942" lon="9.201012"><time>2024-05-04T08:56:59.000Z</time><ele>1346.8</ele></trkpt><trkpt lat="45.860945" lon="9.201015"><time>2024-05-04T08:57:00.000Z</time><ele>1347</ele></trkpt><trkpt lat="45.860948" lon="9.201018"><time>2024-05-04T08:57:01.000Z</time><ele>1347.2</ele></trkpt><trkpt lat="45.860951" lon="9.201021"><time>2024-05-04T08:57:02.000Z</time><ele>1347.4</ele></trkpt><trkpt lat="45.860953" lon="9.201027"><time>2024-05-04T08:57:03.000Z</time><ele>1347.6</ele></trkpt><trkpt lat="45.860955" lon="9.201034"><time>2024-05-04T08:57:04.000Z</time><ele>1347.8</ele></trkpt><trkpt lat="45.860956" lon="9.201041"><time>2024-05-04T08:57:05.000Z</time><ele>1348</ele></trkpt><trkpt lat="45.860958" lon="9.201043"><time>2024-05-04T08:57:06.000Z</time><ele>1348.4</ele></trkpt><trkpt lat="45.860962" lon="9.20104"><time>2024-05-04T08:57:07.000Z</time><ele>1348.6</ele></trkpt><trkpt lat="45.860966" lon="9.201041"><time>2024-05-04T08:57:08.000Z</time><ele>1348.8</ele></trkpt><trkpt lat="45.86097" lon="9.201042"><time>2024-05-04T08:57:09.000Z</time><ele>1349</ele></trkpt><trkpt lat="45.860974" lon="9.201044"><time>2024-05-04T08:57:10.000Z</time><ele>1349.2</ele></trkpt><trkpt lat="45.860977" lon="9.201046"><time>2024-05-04T08:57:11.000Z</time><ele>1349.4</ele></trkpt><trkpt lat="45.86098" lon="9.201051"><time>2024-05-04T08:57:12.000Z</time><ele>1349.4</ele></trkpt><trkpt lat="45.860982" lon="9.201056"><time>2024-05-04T08:57:13.000Z</time><ele>1349.6</ele></trkpt><trkpt lat="45.860986" lon="9.201063"><time>2024-05-04T08:57:14.000Z</time><ele>1349.6</ele></trkpt><trkpt lat="45.86099" lon="9.201064"><time>2024-05-04T08:57:15.000Z</time><ele>1349.6</ele></trkpt><trkpt lat="45.860993" lon="9.201066"><time>2024-05-04T08:57:16.000Z</time><ele>1349.8</ele></trkpt><trkpt lat="45.860995" lon="9.201068"><time>2024-05-04T08:57:17.000Z</time><ele>1350</ele></trkpt><trkpt lat="45.860998" lon="9.20107"><time>2024-05-04T08:57:18.000Z</time><ele>1350.2</ele></trkpt><trkpt lat="45.861001" lon="9.201075"><time>2024-05-04T08:57:19.000Z</time><ele>1350.4</ele></trkpt><trkpt lat="45.861002" lon="9.201081"><time>2024-05-04T08:57:20.000Z</time><ele>1350.4</ele></trkpt><trkpt lat="45.861006" lon="9.201085"><time>2024-05-04T08:57:21.000Z</time><ele>1350.6</ele></trkpt><trkpt lat="45.861009" lon="9.201087"><time>2024-05-04T08:57:22.000Z</time><ele>1350.8</ele></trkpt><trkpt lat="45.861012" lon="9.201091"><time>2024-05-04T08:57:23.000Z</time><ele>1351.2</ele></trkpt><trkpt lat="45.861017" lon="9.201095"><time>2024-05-04T08:57:24.000Z</time><ele>1351.4</ele></trkpt><trkpt lat="45.861024" lon="9.201096"><time>2024-05-04T08:57:25.000Z</time><ele>1351.4</ele></trkpt><trkpt lat="45.86103" lon="9.201097"><time>2024-05-04T08:57:26.000Z</time><ele>1351.6</ele></trkpt><trkpt lat="45.861036" lon="9.201097"><time>2024-05-04T08:57:27.000Z</time><ele>1351.8</ele></trkpt><trkpt lat="45.861038" lon="9.201098"><time>2024-05-04T08:57:28.000Z</time><ele>1352</ele></trkpt><trkpt lat="45.861039" lon="9.2011"><time>2024-05-04T08:57:29.000Z</time><ele>1352.4</ele></trkpt><trkpt lat="45.861039" lon="9.2011"><time>2024-05-04T08:57:30.000Z</time><ele>1352.8</ele></trkpt><trkpt lat="45.861042" lon="9.201102"><time>2024-05-04T08:57:31.000Z</time><ele>1353</ele></trkpt><trkpt lat="45.861047" lon="9.201107"><time>2024-05-04T08:57:32.000Z</time><ele>1353</ele></trkpt><trkpt lat="45.861049" lon="9.201114"><time>2024-05-04T08:57:33.000Z</time><ele>1353.2</ele></trkpt><trkpt lat="45.86105" lon="9.201118"><time>2024-05-04T08:57:34.000Z</time><ele>1353.2</ele></trkpt><trkpt lat="45.861051" lon="9.201119"><time>2024-05-04T08:57:35.000Z</time><ele>1353.2</ele></trkpt><trkpt lat="45.861051" lon="9.201125"><time>2024-05-04T08:57:36.000Z</time><ele>1353.2</ele></trkpt><trkpt lat="45.861055" lon="9.201132"><time>2024-05-04T08:57:37.000Z</time><ele>1353.4</ele></trkpt><trkpt lat="45.861059" lon="9.201133"><time>2024-05-04T08:57:38.000Z</time><ele>1353.4</ele></trkpt><trkpt lat="45.861061" lon="9.201134"><time>2024-05-04T08:57:39.000Z</time><ele>1353.6</ele></trkpt><trkpt lat="45.861064" lon="9.201132"><time>2024-05-04T08:57:40.000Z</time><ele>1353.8</ele></trkpt><trkpt lat="45.861068" lon="9.201133"><time>2024-05-04T08:57:41.000Z</time><ele>1354</ele></trkpt><trkpt lat="45.861072" lon="9.201134"><time>2024-05-04T08:57:42.000Z</time><ele>1354.2</ele></trkpt><trkpt lat="45.861075" lon="9.201134"><time>2024-05-04T08:57:43.000Z</time><ele>1354.6</ele></trkpt><trkpt lat="45.861077" lon="9.201134"><time>2024-05-04T08:57:44.000Z</time><ele>1354.8</ele></trkpt><trkpt lat="45.861079" lon="9.201133"><time>2024-05-04T08:57:45.000Z</time><ele>1355</ele></trkpt><trkpt lat="45.861084" lon="9.201134"><time>2024-05-04T08:57:46.000Z</time><ele>1355.2</ele></trkpt><trkpt lat="45.861088" lon="9.201137"><time>2024-05-04T08:57:47.000Z</time><ele>1355.4</ele></trkpt><trkpt lat="45.86109" lon="9.201139"><time>2024-05-04T08:57:48.000Z</time><ele>1355.6</ele></trkpt><trkpt lat="45.861093" lon="9.201141"><time>2024-05-04T08:57:49.000Z</time><ele>1355.8</ele></trkpt><trkpt lat="45.861098" lon="9.201143"><time>2024-05-04T08:57:50.000Z</time><ele>1356</ele></trkpt><trkpt lat="45.861102" lon="9.201143"><time>2024-05-04T08:57:51.000Z</time><ele>1356.2</ele></trkpt><trkpt lat="45.861106" lon="9.201145"><time>2024-05-04T08:57:52.000Z</time><ele>1356.4</ele></trkpt><trkpt lat="45.86111" lon="9.201144"><time>2024-05-04T08:57:53.000Z</time><ele>1356.6</ele></trkpt><trkpt lat="45.861113" lon="9.201147"><time>2024-05-04T08:57:54.000Z</time><ele>1356.6</ele></trkpt><trkpt lat="45.861113" lon="9.201153"><time>2024-05-04T08:57:55.000Z</time><ele>1357</ele></trkpt><trkpt lat="45.861114" lon="9.201157"><time>2024-05-04T08:57:56.000Z</time><ele>1357.2</ele></trkpt><trkpt lat="45.861114" lon="9.201159"><time>2024-05-04T08:57:57.000Z</time><ele>1357.2</ele></trkpt><trkpt lat="45.861117" lon="9.201161"><time>2024-05-04T08:57:58.000Z</time><ele>1357.6</ele></trkpt><trkpt lat="45.86112" lon="9.201164"><time>2024-05-04T08:57:59.000Z</time><ele>1357.6</ele></trkpt><trkpt lat="45.861123" lon="9.201166"><time>2024-05-04T08:58:00.000Z</time><ele>1357.8</ele></trkpt><trkpt lat="45.861127" lon="9.201169"><time>2024-05-04T08:58:01.000Z</time><ele>1358</ele></trkpt><trkpt lat="45.86113" lon="9.201174"><time>2024-05-04T08:58:02.000Z</time><ele>1358.2</ele></trkpt><trkpt lat="45.861134" lon="9.201177"><time>2024-05-04T08:58:03.000Z</time><ele>1358.4</ele></trkpt><trkpt lat="45.861135" lon="9.201179"><time>2024-05-04T08:58:04.000Z</time><ele>1358.6</ele></trkpt><trkpt lat="45.861137" lon="9.201183"><time>2024-05-04T08:58:05.000Z</time><ele>1358.8</ele></trkpt><trkpt lat="45.86114" lon="9.201185"><time>2024-05-04T08:58:06.000Z</time><ele>1359</ele></trkpt><trkpt lat="45.861145" lon="9.201186"><time>2024-05-04T08:58:07.000Z</time><ele>1359.4</ele></trkpt><trkpt lat="45.861149" lon="9.201186"><time>2024-05-04T08:58:08.000Z</time><ele>1359.4</ele></trkpt><trkpt lat="45.861152" lon="9.201187"><time>2024-05-04T08:58:09.000Z</time><ele>1359.6</ele></trkpt><trkpt lat="45.861154" lon="9.201188"><time>2024-05-04T08:58:10.000Z</time><ele>1360</ele></trkpt><trkpt lat="45.861155" lon="9.201191"><time>2024-05-04T08:58:11.000Z</time><ele>1360.4</ele></trkpt><trkpt lat="45.861157" lon="9.201193"><time>2024-05-04T08:58:12.000Z</time><ele>1360.6</ele></trkpt><trkpt lat="45.861162" lon="9.201194"><time>2024-05-04T08:58:13.000Z</time><ele>1360.8</ele></trkpt><trkpt lat="45.861165" lon="9.201195"><time>2024-05-04T08:58:14.000Z</time><ele>1361</ele></trkpt><trkpt lat="45.861168" lon="9.201197"><time>2024-05-04T08:58:15.000Z</time><ele>1361</ele></trkpt><trkpt lat="45.861171" lon="9.201193"><time>2024-05-04T08:58:16.000Z</time><ele>1361.4</ele></trkpt><trkpt lat="45.861177" lon="9.201196"><time>2024-05-04T08:58:17.000Z</time><ele>1361.4</ele></trkpt><trkpt lat="45.861178" lon="9.201197"><time>2024-05-04T08:58:18.000Z</time><ele>1361.6</ele></trkpt><trkpt lat="45.861182" lon="9.201196"><time>2024-05-04T08:58:19.000Z</time><ele>1361.8</ele></trkpt><trkpt lat="45.861188" lon="9.201199"><time>2024-05-04T08:58:20.000Z</time><ele>1361.8</ele></trkpt><trkpt lat="45.861193" lon="9.201198"><time>2024-05-04T08:58:21.000Z</time><ele>1362</ele></trkpt><trkpt lat="45.861196" lon="9.201196"><time>2024-05-04T08:58:22.000Z</time><ele>1362.2</ele></trkpt><trkpt lat="45.861202" lon="9.201194"><time>2024-05-04T08:58:23.000Z</time><ele>1362.4</ele></trkpt><trkpt lat="45.861207" lon="9.201192"><time>2024-05-04T08:58:24.000Z</time><ele>1362.6</ele></trkpt><trkpt lat="45.861211" lon="9.201189"><time>2024-05-04T08:58:25.000Z</time><ele>1362.8</ele></trkpt><trkpt lat="45.861216" lon="9.201185"><time>2024-05-04T08:58:26.000Z</time><ele>1363</ele></trkpt><trkpt lat="45.861221" lon="9.201181"><time>2024-05-04T08:58:27.000Z</time><ele>1363</ele></trkpt><trkpt lat="45.861226" lon="9.201178"><time>2024-05-04T08:58:28.000Z</time><ele>1363.2</ele></trkpt><trkpt lat="45.86123" lon="9.201175"><time>2024-05-04T08:58:29.000Z</time><ele>1363.4</ele></trkpt><trkpt lat="45.861235" lon="9.20117"><time>2024-05-04T08:58:30.000Z</time><ele>1363.8</ele></trkpt><trkpt lat="45.861239" lon="9.201164"><time>2024-05-04T08:58:31.000Z</time><ele>1364</ele></trkpt><trkpt lat="45.861244" lon="9.201155"><time>2024-05-04T08:58:32.000Z</time><ele>1364.2</ele></trkpt><trkpt lat="45.861248" lon="9.201144"><time>2024-05-04T08:58:33.000Z</time><ele>1364.2</ele></trkpt><trkpt lat="45.861251" lon="9.201137"><time>2024-05-04T08:58:34.000Z</time><ele>1364.2</ele></trkpt><trkpt lat="45.861254" lon="9.20113"><time>2024-05-04T08:58:35.000Z</time><ele>1364.4</ele></trkpt><trkpt lat="45.86126" lon="9.201126"><time>2024-05-04T08:58:36.000Z</time><ele>1364.6</ele></trkpt><trkpt lat="45.861265" lon="9.201124"><time>2024-05-04T08:58:37.000Z</time><ele>1364.6</ele></trkpt><trkpt lat="45.861268" lon="9.201122"><time>2024-05-04T08:58:38.000Z</time><ele>1365</ele></trkpt><trkpt lat="45.861271" lon="9.201121"><time>2024-05-04T08:58:39.000Z</time><ele>1365.2</ele></trkpt><trkpt lat="45.861273" lon="9.201121"><time>2024-05-04T08:58:40.000Z</time><ele>1365.4</ele></trkpt><trkpt lat="45.861276" lon="9.20112"><time>2024-05-04T08:58:41.000Z</time><ele>1365.6</ele></trkpt><trkpt lat="45.861281" lon="9.201121"><time>2024-05-04T08:58:42.000Z</time><ele>1365.6</ele></trkpt><trkpt lat="45.861285" lon="9.201123"><time>2024-05-04T08:58:43.000Z</time><ele>1365.8</ele></trkpt><trkpt lat="45.861288" lon="9.201122"><time>2024-05-04T08:58:44.000Z</time><ele>1366</ele></trkpt><trkpt lat="45.861291" lon="9.201121"><time>2024-05-04T08:58:45.000Z</time><ele>1366</ele></trkpt><trkpt lat="45.861294" lon="9.20112"><time>2024-05-04T08:58:46.000Z</time><ele>1366.2</ele></trkpt><trkpt lat="45.861297" lon="9.201118"><time>2024-05-04T08:58:47.000Z</time><ele>1366.4</ele></trkpt><trkpt lat="45.861304" lon="9.201121"><time>2024-05-04T08:58:48.000Z</time><ele>1366.6</ele></trkpt><trkpt lat="45.861308" lon="9.201122"><time>2024-05-04T08:58:49.000Z</time><ele>1366.6</ele></trkpt><trkpt lat="45.861312" lon="9.20112"><time>2024-05-04T08:58:50.000Z</time><ele>1366.8</ele></trkpt><trkpt lat="45.861314" lon="9.201115"><time>2024-05-04T08:58:51.000Z</time><ele>1367.2</ele></trkpt><trkpt lat="45.86132" lon="9.201112"><time>2024-05-04T08:58:52.000Z</time><ele>1367.4</ele></trkpt><trkpt lat="45.861326" lon="9.201107"><time>2024-05-04T08:58:53.000Z</time><ele>1367.6</ele></trkpt><trkpt lat="45.861332" lon="9.201105"><time>2024-05-04T08:58:54.000Z</time><ele>1367.6</ele></trkpt><trkpt lat="45.861337" lon="9.201105"><time>2024-05-04T08:58:55.000Z</time><ele>1367.8</ele></trkpt><trkpt lat="45.861339" lon="9.201104"><time>2024-05-04T08:58:56.000Z</time><ele>1368</ele></trkpt><trkpt lat="45.861344" lon="9.201105"><time>2024-05-04T08:58:57.000Z</time><ele>1368.2</ele></trkpt><trkpt lat="45.861348" lon="9.201104"><time>2024-05-04T08:58:58.000Z</time><ele>1368.4</ele></trkpt><trkpt lat="45.861353" lon="9.201105"><time>2024-05-04T08:58:59.000Z</time><ele>1368.6</ele></trkpt><trkpt lat="45.861355" lon="9.201107"><time>2024-05-04T08:59:00.000Z</time><ele>1368.8</ele></trkpt><trkpt lat="45.861357" lon="9.20111"><time>2024-05-04T08:59:01.000Z</time><ele>1369</ele></trkpt><trkpt lat="45.861359" lon="9.201115"><time>2024-05-04T08:59:02.000Z</time><ele>1369</ele></trkpt><trkpt lat="45.861359" lon="9.201119"><time>2024-05-04T08:59:03.000Z</time><ele>1369.4</ele></trkpt><trkpt lat="45.861363" lon="9.201124"><time>2024-05-04T08:59:04.000Z</time><ele>1369.6</ele></trkpt><trkpt lat="45.86137" lon="9.201127"><time>2024-05-04T08:59:05.000Z</time><ele>1369.8</ele></trkpt><trkpt lat="45.861375" lon="9.201129"><time>2024-05-04T08:59:06.000Z</time><ele>1369.8</ele></trkpt><trkpt lat="45.861379" lon="9.201131"><time>2024-05-04T08:59:07.000Z</time><ele>1370.2</ele></trkpt><trkpt lat="45.861381" lon="9.201134"><time>2024-05-04T08:59:08.000Z</time><ele>1370.4</ele></trkpt><trkpt lat="45.861382" lon="9.201133"><time>2024-05-04T08:59:09.000Z</time><ele>1370.6</ele></trkpt><trkpt lat="45.861388" lon="9.201136"><time>2024-05-04T08:59:10.000Z</time><ele>1370.6</ele></trkpt><trkpt lat="45.861394" lon="9.201139"><time>2024-05-04T08:59:11.000Z</time><ele>1371</ele></trkpt><trkpt lat="45.861398" lon="9.201143"><time>2024-05-04T08:59:12.000Z</time><ele>1371.2</ele></trkpt><trkpt lat="45.8614" lon="9.201148"><time>2024-05-04T08:59:13.000Z</time><ele>1371.2</ele></trkpt><trkpt lat="45.861404" lon="9.201149"><time>2024-05-04T08:59:14.000Z</time><ele>1371.4</ele></trkpt><trkpt lat="45.861406" lon="9.201154"><time>2024-05-04T08:59:15.000Z</time><ele>1371.6</ele></trkpt><trkpt lat="45.861409" lon="9.201158"><time>2024-05-04T08:59:16.000Z</time><ele>1371.8</ele></trkpt><trkpt lat="45.861414" lon="9.201161"><time>2024-05-04T08:59:17.000Z</time><ele>1372</ele></trkpt><trkpt lat="45.861417" lon="9.201164"><time>2024-05-04T08:59:18.000Z</time><ele>1372</ele></trkpt><trkpt lat="45.861419" lon="9.201168"><time>2024-05-04T08:59:19.000Z</time><ele>1372.2</ele></trkpt><trkpt lat="45.861421" lon="9.201173"><time>2024-05-04T08:59:20.000Z</time><ele>1372.4</ele></trkpt><trkpt lat="45.861425" lon="9.201174"><time>2024-05-04T08:59:21.000Z</time><ele>1372.6</ele></trkpt><trkpt lat="45.861429" lon="9.201178"><time>2024-05-04T08:59:22.000Z</time><ele>1372.8</ele></trkpt><trkpt lat="45.861432" lon="9.201182"><time>2024-05-04T08:59:23.000Z</time><ele>1373</ele></trkpt><trkpt lat="45.861433" lon="9.201187"><time>2024-05-04T08:59:24.000Z</time><ele>1373.2</ele></trkpt><trkpt lat="45.861435" lon="9.201189"><time>2024-05-04T08:59:25.000Z</time><ele>1373.4</ele></trkpt><trkpt lat="45.861437" lon="9.201197"><time>2024-05-04T08:59:26.000Z</time><ele>1373.6</ele></trkpt><trkpt lat="45.86144" lon="9.201205"><time>2024-05-04T08:59:27.000Z</time><ele>1373.6</ele></trkpt><trkpt lat="45.861446" lon="9.201209"><time>2024-05-04T08:59:28.000Z</time><ele>1373.8</ele></trkpt><trkpt lat="45.861452" lon="9.201214"><time>2024-05-04T08:59:29.000Z</time><ele>1374</ele></trkpt><trkpt lat="45.861457" lon="9.20122"><time>2024-05-04T08:59:30.000Z</time><ele>1374.2</ele></trkpt><trkpt lat="45.861459" lon="9.201227"><time>2024-05-04T08:59:31.000Z</time><ele>1374.4</ele></trkpt><trkpt lat="45.861463" lon="9.201233"><time>2024-05-04T08:59:32.000Z</time><ele>1374.6</ele></trkpt><trkpt lat="45.861466" lon="9.201238"><time>2024-05-04T08:59:33.000Z</time><ele>1374.8</ele></trkpt><trkpt lat="45.861469" lon="9.201242"><time>2024-05-04T08:59:34.000Z</time><ele>1375</ele></trkpt><trkpt lat="45.861471" lon="9.201245"><time>2024-05-04T08:59:35.000Z</time><ele>1375.2</ele></trkpt><trkpt lat="45.861471" lon="9.20125"><time>2024-05-04T08:59:36.000Z</time><ele>1375.6</ele></trkpt><trkpt lat="45.861475" lon="9.201256"><time>2024-05-04T08:59:37.000Z</time><ele>1375.6</ele></trkpt><trkpt lat="45.861482" lon="9.201265"><time>2024-05-04T08:59:38.000Z</time><ele>1375.8</ele></trkpt><trkpt lat="45.861484" lon="9.201275"><time>2024-05-04T08:59:39.000Z</time><ele>1375.8</ele></trkpt><trkpt lat="45.861487" lon="9.20128"><time>2024-05-04T08:59:40.000Z</time><ele>1375.8</ele></trkpt><trkpt lat="45.861489" lon="9.201283"><time>2024-05-04T08:59:41.000Z</time><ele>1376</ele></trkpt><trkpt lat="45.861493" lon="9.201288"><time>2024-05-04T08:59:42.000Z</time><ele>1376</ele></trkpt><trkpt lat="45.861495" lon="9.201296"><time>2024-05-04T08:59:43.000Z</time><ele>1376.2</ele></trkpt><trkpt lat="45.861496" lon="9.201302"><time>2024-05-04T08:59:44.000Z</time><ele>1376.2</ele></trkpt><trkpt lat="45.8615" lon="9.201307"><time>2024-05-04T08:59:45.000Z</time><ele>1376.4</ele></trkpt><trkpt lat="45.861506" lon="9.201314"><time>2024-05-04T08:59:46.000Z</time><ele>1376.8</ele></trkpt><trkpt lat="45.861512" lon="9.201321"><time>2024-05-04T08:59:47.000Z</time><ele>1377</ele></trkpt><trkpt lat="45.861517" lon="9.201327"><time>2024-05-04T08:59:48.000Z</time><ele>1377.2</ele></trkpt><trkpt lat="45.861521" lon="9.201332"><time>2024-05-04T08:59:49.000Z</time><ele>1377.2</ele></trkpt><trkpt lat="45.861525" lon="9.201336"><time>2024-05-04T08:59:50.000Z</time><ele>1377.4</ele></trkpt><trkpt lat="45.861526" lon="9.201342"><time>2024-05-04T08:59:51.000Z</time><ele>1377.8</ele></trkpt><trkpt lat="45.861528" lon="9.201348"><time>2024-05-04T08:59:52.000Z</time><ele>1378</ele></trkpt><trkpt lat="45.861529" lon="9.201351"><time>2024-05-04T08:59:53.000Z</time><ele>1378.2</ele></trkpt><trkpt lat="45.861533" lon="9.201357"><time>2024-05-04T08:59:54.000Z</time><ele>1378.4</ele></trkpt><trkpt lat="45.86154" lon="9.201366"><time>2024-05-04T08:59:55.000Z</time><ele>1378.6</ele></trkpt><trkpt lat="45.861547" lon="9.201371"><time>2024-05-04T08:59:56.000Z</time><ele>1378.8</ele></trkpt><trkpt lat="45.861551" lon="9.201376"><time>2024-05-04T08:59:57.000Z</time><ele>1378.8</ele></trkpt><trkpt lat="45.861558" lon="9.20138"><time>2024-05-04T08:59:58.000Z</time><ele>1378.8</ele></trkpt><trkpt lat="45.861563" lon="9.201388"><time>2024-05-04T08:59:59.000Z</time><ele>1379</ele></trkpt><trkpt lat="45.861565" lon="9.201395"><time>2024-05-04T09:00:00.000Z</time><ele>1379.2</ele></trkpt><trkpt lat="45.861568" lon="9.201404"><time>2024-05-04T09:00:01.000Z</time><ele>1379.4</ele></trkpt><trkpt lat="45.861573" lon="9.201412"><time>2024-05-04T09:00:02.000Z</time><ele>1379.6</ele></trkpt><trkpt lat="45.861576" lon="9.201416"><time>2024-05-04T09:00:03.000Z</time><ele>1379.8</ele></trkpt><trkpt lat="45.86158" lon="9.20142"><time>2024-05-04T09:00:04.000Z</time><ele>1380</ele></trkpt><trkpt lat="45.861584" lon="9.201427"><time>2024-05-04T09:00:05.000Z</time><ele>1380.2</ele></trkpt><trkpt lat="45.861586" lon="9.201435"><time>2024-05-04T09:00:06.000Z</time><ele>1380.4</ele></trkpt><trkpt lat="45.86159" lon="9.20144"><time>2024-05-04T09:00:07.000Z</time><ele>1380.4</ele></trkpt><trkpt lat="45.861595" lon="9.201446"><time>2024-05-04T09:00:08.000Z</time><ele>1380.6</ele></trkpt><trkpt lat="45.861601" lon="9.20145"><time>2024-05-04T09:00:09.000Z</time><ele>1380.8</ele></trkpt><trkpt lat="45.861603" lon="9.201456"><time>2024-05-04T09:00:10.000Z</time><ele>1381</ele></trkpt><trkpt lat="45.861603" lon="9.20146"><time>2024-05-04T09:00:11.000Z</time><ele>1381</ele></trkpt><trkpt lat="45.861606" lon="9.201468"><time>2024-05-04T09:00:12.000Z</time><ele>1381.2</ele></trkpt><trkpt lat="45.861609" lon="9.201472"><time>2024-05-04T09:00:13.000Z</time><ele>1381.4</ele></trkpt><trkpt lat="45.861613" lon="9.201475"><time>2024-05-04T09:00:14.000Z</time><ele>1381.6</ele></trkpt><trkpt lat="45.861617" lon="9.201479"><time>2024-05-04T09:00:15.000Z</time><ele>1381.6</ele></trkpt><trkpt lat="45.861618" lon="9.201485"><time>2024-05-04T09:00:16.000Z</time><ele>1381.8</ele></trkpt><trkpt lat="45.861621" lon="9.20149"><time>2024-05-04T09:00:17.000Z</time><ele>1382</ele></trkpt><trkpt lat="45.861622" lon="9.201495"><time>2024-05-04T09:00:18.000Z</time><ele>1382</ele></trkpt><trkpt lat="45.861625" lon="9.201498"><time>2024-05-04T09:00:19.000Z</time><ele>1382.4</ele></trkpt><trkpt lat="45.86163" lon="9.201504"><time>2024-05-04T09:00:20.000Z</time><ele>1382.6</ele></trkpt><trkpt lat="45.861635" lon="9.201506"><time>2024-05-04T09:00:21.000Z</time><ele>1382.6</ele></trkpt><trkpt lat="45.861639" lon="9.201512"><time>2024-05-04T09:00:22.000Z</time><ele>1382.6</ele></trkpt><trkpt lat="45.861641" lon="9.201515"><time>2024-05-04T09:00:23.000Z</time><ele>1382.8</ele></trkpt><trkpt lat="45.861643" lon="9.201519"><time>2024-05-04T09:00:24.000Z</time><ele>1383.2</ele></trkpt><trkpt lat="45.861644" lon="9.201525"><time>2024-05-04T09:00:25.000Z</time><ele>1383.2</ele></trkpt><trkpt lat="45.861648" lon="9.201528"><time>2024-05-04T09:00:26.000Z</time><ele>1383.4</ele></trkpt><trkpt lat="45.861652" lon="9.201533"><time>2024-05-04T09:00:27.000Z</time><ele>1383.6</ele></trkpt><trkpt lat="45.861656" lon="9.201538"><time>2024-05-04T09:00:28.000Z</time><ele>1383.6</ele></trkpt><trkpt lat="45.861664" lon="9.201538"><time>2024-05-04T09:00:29.000Z</time><ele>1383.8</ele></trkpt><trkpt lat="45.86167" lon="9.201544"><time>2024-05-04T09:00:30.000Z</time><ele>1383.8</ele></trkpt><trkpt lat="45.861676" lon="9.201548"><time>2024-05-04T09:00:31.000Z</time><ele>1384.2</ele></trkpt><trkpt lat="45.861681" lon="9.201551"><time>2024-05-04T09:00:32.000Z</time><ele>1384.4</ele></trkpt><trkpt lat="45.861686" lon="9.201555"><time>2024-05-04T09:00:33.000Z</time><ele>1384.8</ele></trkpt><trkpt lat="45.861689" lon="9.201559"><time>2024-05-04T09:00:34.000Z</time><ele>1385</ele></trkpt><trkpt lat="45.861692" lon="9.201562"><time>2024-05-04T09:00:35.000Z</time><ele>1385.4</ele></trkpt><trkpt lat="45.861695" lon="9.201565"><time>2024-05-04T09:00:36.000Z</time><ele>1385.6</ele></trkpt><trkpt lat="45.861698" lon="9.201568"><time>2024-05-04T09:00:37.000Z</time><ele>1385.8</ele></trkpt><trkpt lat="45.861701" lon="9.201574"><time>2024-05-04T09:00:38.000Z</time><ele>1385.8</ele></trkpt><trkpt lat="45.861705" lon="9.20158"><time>2024-05-04T09:00:39.000Z</time><ele>1386</ele></trkpt><trkpt lat="45.861709" lon="9.201583"><time>2024-05-04T09:00:40.000Z</time><ele>1386.4</ele></trkpt><trkpt lat="45.861713" lon="9.201587"><time>2024-05-04T09:00:41.000Z</time><ele>1386.6</ele></trkpt><trkpt lat="45.861717" lon="9.201591"><time>2024-05-04T09:00:42.000Z</time><ele>1386.8</ele></trkpt><trkpt lat="45.86172" lon="9.201595"><time>2024-05-04T09:00:43.000Z</time><ele>1386.8</ele></trkpt><trkpt lat="45.861721" lon="9.201599"><time>2024-05-04T09:00:44.000Z</time><ele>1387</ele></trkpt><trkpt lat="45.861722" lon="9.2016"><time>2024-05-04T09:00:45.000Z</time><ele>1387.2</ele></trkpt><trkpt lat="45.861722" lon="9.201598"><time>2024-05-04T09:00:46.000Z</time><ele>1387.4</ele></trkpt><trkpt lat="45.861722" lon="9.201596"><time>2024-05-04T09:00:47.000Z</time><ele>1387.4</ele></trkpt><trkpt lat="45.861725" lon="9.201596"><time>2024-05-04T09:00:48.000Z</time><ele>1387.6</ele></trkpt><trkpt lat="45.861726" lon="9.201598"><time>2024-05-04T09:00:49.000Z</time><ele>1387.8</ele></trkpt><trkpt lat="45.861725" lon="9.201599"><time>2024-05-04T09:00:50.000Z</time><ele>1387.8</ele></trkpt><trkpt lat="45.861725" lon="9.201599"><time>2024-05-04T09:00:51.000Z</time><ele>1388</ele></trkpt><trkpt lat="45.861725" lon="9.201599"><time>2024-05-04T09:00:52.000Z</time><ele>1388.2</ele></trkpt><trkpt lat="45.861725" lon="9.201599"><time>2024-05-04T09:00:53.000Z</time><ele>1388.2</ele></trkpt><trkpt lat="45.861725" lon="9.201599"><time>2024-05-04T09:00:54.000Z</time><ele>1388.2</ele></trkpt><trkpt lat="45.861725" lon="9.201599"><time>2024-05-04T09:00:55.000Z</time><ele>1388.2</ele></trkpt><trkpt lat="45.861725" lon="9.201599"><time>2024-05-04T09:00:56.000Z</time><ele>1388.2</ele></trkpt><trkpt lat="45.861725" lon="9.201599"><time>2024-05-04T09:00:57.000Z</time><ele>1388.2</ele></trkpt><trkpt lat="45.861725" lon="9.201599"><time>2024-05-04T09:00:58.000Z</time><ele>1388.2</ele></trkpt><trkpt lat="45.861725" lon="9.201599"><time>2024-05-04T09:00:59.000Z</time><ele>1388</ele></trkpt><trkpt lat="45.861725" lon="9.201599"><time>2024-05-04T09:01:00.000Z</time><ele>1388.2</ele></trkpt><trkpt lat="45.861725" lon="9.201599"><time>2024-05-04T09:01:01.000Z</time><ele>1388.2</ele></trkpt><trkpt lat="45.861725" lon="9.201599"><time>2024-05-04T09:01:02.000Z</time><ele>1388.4</ele></trkpt><trkpt lat="45.861725" lon="9.201599"><time>2024-05-04T09:01:03.000Z</time><ele>1388.4</ele></trkpt><trkpt lat="45.861725" lon="9.201599"><time>2024-05-04T09:01:04.000Z</time><ele>1388.4</ele></trkpt><trkpt lat="45.861732" lon="9.201601"><time>2024-05-04T09:01:05.000Z</time><ele>1388.6</ele></trkpt><trkpt lat="45.861746" lon="9.201605"><time>2024-05-04T09:01:06.000Z</time><ele>1388.6</ele></trkpt><trkpt lat="45.861759" lon="9.20161"><time>2024-05-04T09:01:07.000Z</time><ele>1388.8</ele></trkpt><trkpt lat="45.861772" lon="9.201615"><time>2024-05-04T09:01:08.000Z</time><ele>1388.8</ele></trkpt><trkpt lat="45.861783" lon="9.20162"><time>2024-05-04T09:01:09.000Z</time><ele>1389</ele></trkpt><trkpt lat="45.861797" lon="9.201622"><time>2024-05-04T09:01:10.000Z</time><ele>1389</ele></trkpt><trkpt lat="45.861814" lon="9.201628"><time>2024-05-04T09:01:11.000Z</time><ele>1389</ele></trkpt><trkpt lat="45.86183" lon="9.201627"><time>2024-05-04T09:01:12.000Z</time><ele>1389.2</ele></trkpt><trkpt lat="45.861847" lon="9.201628"><time>2024-05-04T09:01:13.000Z</time><ele>1389.2</ele></trkpt><trkpt lat="45.861859" lon="9.20163"><time>2024-05-04T09:01:14.000Z</time><ele>1389.4</ele></trkpt><trkpt lat="45.861864" lon="9.201628"><time>2024-05-04T09:01:15.000Z</time><ele>1389.6</ele></trkpt><trkpt lat="45.86187" lon="9.201629"><time>2024-05-04T09:01:16.000Z</time><ele>1389.8</ele></trkpt><trkpt lat="45.861876" lon="9.201631"><time>2024-05-04T09:01:17.000Z</time><ele>1390</ele></trkpt><trkpt lat="45.861883" lon="9.201631"><time>2024-05-04T09:01:18.000Z</time><ele>1390</ele></trkpt><trkpt lat="45.861893" lon="9.201631"><time>2024-05-04T09:01:19.000Z</time><ele>1390.2</ele></trkpt><trkpt lat="45.8619" lon="9.201632"><time>2024-05-04T09:01:20.000Z</time><ele>1390.2</ele></trkpt><trkpt lat="45.861906" lon="9.201629"><time>2024-05-04T09:01:21.000Z</time><ele>1390.4</ele></trkpt><trkpt lat="45.861911" lon="9.20163"><time>2024-05-04T09:01:22.000Z</time><ele>1390.6</ele></trkpt><trkpt lat="45.861916" lon="9.201629"><time>2024-05-04T09:01:23.000Z</time><ele>1390.8</ele></trkpt><trkpt lat="45.861922" lon="9.201629"><time>2024-05-04T09:01:24.000Z</time><ele>1390.8</ele></trkpt><trkpt lat="45.861927" lon="9.201632"><time>2024-05-04T09:01:25.000Z</time><ele>1391</ele></trkpt><trkpt lat="45.861934" lon="9.20163"><time>2024-05-04T09:01:26.000Z</time><ele>1391</ele></trkpt><trkpt lat="45.861935" lon="9.201626"><time>2024-05-04T09:01:27.000Z</time><ele>1391.2</ele></trkpt><trkpt lat="45.861936" lon="9.201624"><time>2024-05-04T09:01:28.000Z</time><ele>1391.4</ele></trkpt><trkpt lat="45.861934" lon="9.201621"><time>2024-05-04T09:01:29.000Z</time><ele>1391.4</ele></trkpt><trkpt lat="45.861931" lon="9.201619"><time>2024-05-04T09:01:30.000Z</time><ele>1391.6</ele></trkpt><trkpt lat="45.861929" lon="9.201618"><time>2024-05-04T09:01:31.000Z</time><ele>1391.6</ele></trkpt><trkpt lat="45.861929" lon="9.201616"><time>2024-05-04T09:01:32.000Z</time><ele>1391.8</ele></trkpt><trkpt lat="45.86193" lon="9.201613"><time>2024-05-04T09:01:33.000Z</time><ele>1391.8</ele></trkpt><trkpt lat="45.861931" lon="9.201611"><time>2024-05-04T09:01:34.000Z</time><ele>1391.8</ele></trkpt><trkpt lat="45.86193" lon="9.20161"><time>2024-05-04T09:01:35.000Z</time><ele>1391.8</ele></trkpt><trkpt lat="45.861927" lon="9.20161"><time>2024-05-04T09:01:36.000Z</time><ele>1391.8</ele></trkpt><trkpt lat="45.861926" lon="9.201612"><time>2024-05-04T09:01:37.000Z</time><ele>1391.8</ele></trkpt><trkpt lat="45.861925" lon="9.201613"><time>2024-05-04T09:01:38.000Z</time><ele>1392</ele></trkpt><trkpt lat="45.861922" lon="9.201614"><time>2024-05-04T09:01:39.000Z</time><ele>1392.2</ele></trkpt><trkpt lat="45.86192" lon="9.201615"><time>2024-05-04T09:01:40.000Z</time><ele>1392.4</ele></trkpt><trkpt lat="45.861919" lon="9.201614"><time>2024-05-04T09:01:41.000Z</time><ele>1392.4</ele></trkpt><trkpt lat="45.86192" lon="9.201614"><time>2024-05-04T09:01:42.000Z</time><ele>1392.4</ele></trkpt><trkpt lat="45.86192" lon="9.201614"><time>2024-05-04T09:01:43.000Z</time><ele>1392.4</ele></trkpt><trkpt lat="45.86192" lon="9.201614"><time>2024-05-04T09:01:44.000Z</time><ele>1392.6</ele></trkpt><trkpt lat="45.86192" lon="9.201614"><time>2024-05-04T09:01:45.000Z</time><ele>1392.6</ele></trkpt><trkpt lat="45.86192" lon="9.201614"><time>2024-05-04T09:01:46.000Z</time><ele>1392.4</ele></trkpt><trkpt lat="45.86192" lon="9.201614"><time>2024-05-04T09:01:47.000Z</time><ele>1392.2</ele></trkpt><trkpt lat="45.86192" lon="9.201614"><time>2024-05-04T09:01:48.000Z</time><ele>1392</ele></trkpt><trkpt lat="45.86192" lon="9.201614"><time>2024-05-04T09:01:49.000Z</time><ele>1392</ele></trkpt><trkpt lat="45.86192" lon="9.201614"><time>2024-05-04T09:01:50.000Z</time><ele>1392.2</ele></trkpt><trkpt lat="45.86192" lon="9.201614"><time>2024-05-04T09:01:51.000Z</time><ele>1392.2</ele></trkpt><trkpt lat="45.861921" lon="9.201614"><time>2024-05-04T09:01:52.000Z</time><ele>1392.2</ele></trkpt><trkpt lat="45.861922" lon="9.201614"><time>2024-05-04T09:01:53.000Z</time><ele>1392.2</ele></trkpt><trkpt lat="45.861923" lon="9.201614"><time>2024-05-04T09:01:54.000Z</time><ele>1392.2</ele></trkpt><trkpt lat="45.861923" lon="9.201614"><time>2024-05-04T09:01:55.000Z</time><ele>1392.2</ele></trkpt><trkpt lat="45.861925" lon="9.201614"><time>2024-05-04T09:01:56.000Z</time><ele>1392.2</ele></trkpt><trkpt lat="45.861925" lon="9.201615"><time>2024-05-04T09:01:57.000Z</time><ele>1392.2</ele></trkpt><trkpt lat="45.861926" lon="9.201621"><time>2024-05-04T09:01:58.000Z</time><ele>1392.2</ele></trkpt><trkpt lat="45.861926" lon="9.201622"><time>2024-05-04T09:01:59.000Z</time><ele>1392.2</ele></trkpt><trkpt lat="45.861927" lon="9.201622"><time>2024-05-04T09:02:00.000Z</time><ele>1392.4</ele></trkpt><trkpt lat="45.86193" lon="9.201623"><time>2024-05-04T09:02:01.000Z</time><ele>1392.4</ele></trkpt><trkpt lat="45.861931" lon="9.201623"><time>2024-05-04T09:02:02.000Z</time><ele>1392.4</ele></trkpt><trkpt lat="45.861931" lon="9.201624"><time>2024-05-04T09:02:03.000Z</time><ele>1392.6</ele></trkpt><trkpt lat="45.861937" lon="9.201624"><time>2024-05-04T09:02:04.000Z</time><ele>1392.6</ele></trkpt><trkpt lat="45.861943" lon="9.201624"><time>2024-05-04T09:02:05.000Z</time><ele>1392.6</ele></trkpt><trkpt lat="45.861947" lon="9.201625"><time>2024-05-04T09:02:06.000Z</time><ele>1392.6</ele></trkpt><trkpt lat="45.861954" lon="9.201625"><time>2024-05-04T09:02:07.000Z</time><ele>1392.6</ele></trkpt><trkpt lat="45.861961" lon="9.201625"><time>2024-05-04T09:02:08.000Z</time><ele>1392.6</ele></trkpt><trkpt lat="45.861969" lon="9.201628"><time>2024-05-04T09:02:09.000Z</time><ele>1392.8</ele></trkpt><trkpt lat="45.861974" lon="9.20163"><time>2024-05-04T09:02:10.000Z</time><ele>1392.8</ele></trkpt><trkpt lat="45.861977" lon="9.201631"><time>2024-05-04T09:02:11.000Z</time><ele>1392.8</ele></trkpt><trkpt lat="45.86198" lon="9.201633"><time>2024-05-04T09:02:12.000Z</time><ele>1393</ele></trkpt><trkpt lat="45.861984" lon="9.201633"><time>2024-05-04T09:02:13.000Z</time><ele>1393</ele></trkpt><trkpt lat="45.861989" lon="9.201633"><time>2024-05-04T09:02:14.000Z</time><ele>1393</ele></trkpt><trkpt lat="45.861992" lon="9.201633"><time>2024-05-04T09:02:15.000Z</time><ele>1393</ele></trkpt><trkpt lat="45.861998" lon="9.201634"><time>2024-05-04T09:02:16.000Z</time><ele>1393</ele></trkpt><trkpt lat="45.862005" lon="9.201634"><time>2024-05-04T09:02:17.000Z</time><ele>1393</ele></trkpt><trkpt lat="45.862012" lon="9.201634"><time>2024-05-04T09:02:18.000Z</time><ele>1393.2</ele></trkpt><trkpt lat="45.862016" lon="9.201634"><time>2024-05-04T09:02:19.000Z</time><ele>1393.2</ele></trkpt><trkpt lat="45.862019" lon="9.201634"><time>2024-05-04T09:02:20.000Z</time><ele>1393.2</ele></trkpt><trkpt lat="45.862023" lon="9.201636"><time>2024-05-04T09:02:21.000Z</time><ele>1393.2</ele></trkpt><trkpt lat="45.862024" lon="9.201637"><time>2024-05-04T09:02:22.000Z</time><ele>1393.2</ele></trkpt><trkpt lat="45.862027" lon="9.201638"><time>2024-05-04T09:02:23.000Z</time><ele>1393.2</ele></trkpt><trkpt lat="45.862029" lon="9.201638"><time>2024-05-04T09:02:24.000Z</time><ele>1393.2</ele></trkpt><trkpt lat="45.862031" lon="9.201638"><time>2024-05-04T09:02:25.000Z</time><ele>1393.2</ele></trkpt><trkpt lat="45.862034" lon="9.201639"><time>2024-05-04T09:02:26.000Z</time><ele>1393.2</ele></trkpt><trkpt lat="45.862035" lon="9.201639"><time>2024-05-04T09:02:27.000Z</time><ele>1393.2</ele></trkpt><trkpt lat="45.862035" lon="9.20164"><time>2024-05-04T09:02:28.000Z</time><ele>1393.2</ele></trkpt><trkpt lat="45.862038" lon="9.20164"><time>2024-05-04T09:02:29.000Z</time><ele>1393.2</ele></trkpt><trkpt lat="45.862043" lon="9.201641"><time>2024-05-04T09:02:30.000Z</time><ele>1393.2</ele></trkpt><trkpt lat="45.862045" lon="9.201642"><time>2024-05-04T09:02:31.000Z</time><ele>1393.4</ele></trkpt><trkpt lat="45.862046" lon="9.201643"><time>2024-05-04T09:02:32.000Z</time><ele>1393.4</ele></trkpt><trkpt lat="45.862053" lon="9.201644"><time>2024-05-04T09:02:33.000Z</time><ele>1393.4</ele></trkpt><trkpt lat="45.862067" lon="9.201638"><time>2024-05-04T09:02:34.000Z</time><ele>1393.4</ele></trkpt><trkpt lat="45.86208" lon="9.201636"><time>2024-05-04T09:02:35.000Z</time><ele>1393.4</ele></trkpt><trkpt lat="45.862096" lon="9.201637"><time>2024-05-04T09:02:36.000Z</time><ele>1393.4</ele></trkpt><trkpt lat="45.862111" lon="9.201642"><time>2024-05-04T09:02:37.000Z</time><ele>1393.4</ele></trkpt><trkpt lat="45.862124" lon="9.201644"><time>2024-05-04T09:02:38.000Z</time><ele>1393.4</ele></trkpt><trkpt lat="45.862139" lon="9.201648"><time>2024-05-04T09:02:39.000Z</time><ele>1393.6</ele></trkpt><trkpt lat="45.862151" lon="9.201649"><time>2024-05-04T09:02:40.000Z</time><ele>1393.6</ele></trkpt><trkpt lat="45.862162" lon="9.20165"><time>2024-05-04T09:02:41.000Z</time><ele>1393.6</ele></trkpt><trkpt lat="45.862173" lon="9.201651"><time>2024-05-04T09:02:42.000Z</time><ele>1393.6</ele></trkpt><trkpt lat="45.862175" lon="9.201648"><time>2024-05-04T09:02:43.000Z</time><ele>1393.8</ele></trkpt><trkpt lat="45.862174" lon="9.201645"><time>2024-05-04T09:02:44.000Z</time><ele>1393.8</ele></trkpt><trkpt lat="45.862175" lon="9.201643"><time>2024-05-04T09:02:45.000Z</time><ele>1393.8</ele></trkpt><trkpt lat="45.86217" lon="9.201638"><time>2024-05-04T09:02:46.000Z</time><ele>1393.8</ele></trkpt><trkpt lat="45.862161" lon="9.201634"><time>2024-05-04T09:02:47.000Z</time><ele>1393.8</ele></trkpt><trkpt lat="45.862152" lon="9.201633"><time>2024-05-04T09:02:48.000Z</time><ele>1393.6</ele></trkpt><trkpt lat="45.862145" lon="9.201627"><time>2024-05-04T09:02:49.000Z</time><ele>1393.6</ele></trkpt><trkpt lat="45.862136" lon="9.201625"><time>2024-05-04T09:02:50.000Z</time><ele>1393.6</ele></trkpt><trkpt lat="45.862127" lon="9.201625"><time>2024-05-04T09:02:51.000Z</time><ele>1393.6</ele></trkpt><trkpt lat="45.86212" lon="9.201626"><time>2024-05-04T09:02:52.000Z</time><ele>1393.4</ele></trkpt><trkpt lat="45.862113" lon="9.201621"><time>2024-05-04T09:02:53.000Z</time><ele>1393.4</ele></trkpt><trkpt lat="45.862105" lon="9.201617"><time>2024-05-04T09:02:54.000Z</time><ele>1393.4</ele></trkpt><trkpt lat="45.862097" lon="9.201617"><time>2024-05-04T09:02:55.000Z</time><ele>1393.2</ele></trkpt><trkpt lat="45.862089" lon="9.201614"><time>2024-05-04T09:02:56.000Z</time><ele>1393.2</ele></trkpt><trkpt lat="45.862083" lon="9.201612"><time>2024-05-04T09:02:57.000Z</time><ele>1393.2</ele></trkpt><trkpt lat="45.862079" lon="9.201612"><time>2024-05-04T09:02:58.000Z</time><ele>1393.2</ele></trkpt><trkpt lat="45.862079" lon="9.201612"><time>2024-05-04T09:02:59.000Z</time><ele>1393</ele></trkpt><trkpt lat="45.862079" lon="9.201612"><time>2024-05-04T09:03:00.000Z</time><ele>1393</ele></trkpt><trkpt lat="45.862079" lon="9.201612"><time>2024-05-04T09:03:01.000Z</time><ele>1393</ele></trkpt><trkpt lat="45.862079" lon="9.201612"><time>2024-05-04T09:03:02.000Z</time><ele>1392.8</ele></trkpt><trkpt lat="45.862079" lon="9.201612"><time>2024-05-04T09:03:03.000Z</time><ele>1392.8</ele></trkpt><trkpt lat="45.862079" lon="9.201612"><time>2024-05-04T09:03:04.000Z</time><ele>1392.8</ele></trkpt><trkpt lat="45.862079" lon="9.201612"><time>2024-05-04T09:03:05.000Z</time><ele>1392.8</ele></trkpt><trkpt lat="45.862079" lon="9.201612"><time>2024-05-04T09:03:06.000Z</time><ele>1392.8</ele></trkpt><trkpt lat="45.862079" lon="9.201612"><time>2024-05-04T09:03:07.000Z</time><ele>1392.8</ele></trkpt><trkpt lat="45.862079" lon="9.201612"><time>2024-05-04T09:03:08.000Z</time><ele>1392.8</ele></trkpt><trkpt lat="45.86208" lon="9.201612"><time>2024-05-04T09:03:09.000Z</time><ele>1392.8</ele></trkpt><trkpt lat="45.86208" lon="9.201612"><time>2024-05-04T09:03:10.000Z</time><ele>1392.8</ele></trkpt><trkpt lat="45.862081" lon="9.201612"><time>2024-05-04T09:03:11.000Z</time><ele>1392.8</ele></trkpt><trkpt lat="45.862082" lon="9.201612"><time>2024-05-04T09:03:12.000Z</time><ele>1392.8</ele></trkpt><trkpt lat="45.862083" lon="9.201612"><time>2024-05-04T09:03:13.000Z</time><ele>1392.8</ele></trkpt><trkpt lat="45.862083" lon="9.201612"><time>2024-05-04T09:03:14.000Z</time><ele>1392.6</ele></trkpt><trkpt lat="45.862083" lon="9.201612"><time>2024-05-04T09:03:15.000Z</time><ele>1392.6</ele></trkpt><trkpt lat="45.862085" lon="9.201612"><time>2024-05-04T09:03:16.000Z</time><ele>1392.6</ele></trkpt><trkpt lat="45.862085" lon="9.201613"><time>2024-05-04T09:03:17.000Z</time><ele>1392.6</ele></trkpt><trkpt lat="45.862086" lon="9.201613"><time>2024-05-04T09:03:18.000Z</time><ele>1392.6</ele></trkpt><trkpt lat="45.862087" lon="9.201614"><time>2024-05-04T09:03:19.000Z</time><ele>1392.4</ele></trkpt><trkpt lat="45.862086" lon="9.201614"><time>2024-05-04T09:03:20.000Z</time><ele>1392.4</ele></trkpt><trkpt lat="45.862086" lon="9.201614"><time>2024-05-04T09:03:21.000Z</time><ele>1392.4</ele></trkpt><trkpt lat="45.862086" lon="9.201614"><time>2024-05-04T09:03:22.000Z</time><ele>1392.6</ele></trkpt><trkpt lat="45.862086" lon="9.201614"><time>2024-05-04T09:03:23.000Z</time><ele>1392.6</ele></trkpt><trkpt lat="45.862086" lon="9.201614"><time>2024-05-04T09:03:24.000Z</time><ele>1392.6</ele></trkpt><trkpt lat="45.862086" lon="9.201614"><time>2024-05-04T09:03:25.000Z</time><ele>1392.6</ele></trkpt><trkpt lat="45.862086" lon="9.201614"><time>2024-05-04T09:03:26.000Z</time><ele>1392.8</ele></trkpt><trkpt lat="45.862086" lon="9.201614"><time>2024-05-04T09:03:27.000Z</time><ele>1392.8</ele></trkpt><trkpt lat="45.862086" lon="9.201615"><time>2024-05-04T09:03:28.000Z</time><ele>1392.8</ele></trkpt><trkpt lat="45.862086" lon="9.201615"><time>2024-05-04T09:03:29.000Z</time><ele>1392.8</ele></trkpt><trkpt lat="45.862086" lon="9.201615"><time>2024-05-04T09:03:30.000Z</time><ele>1392.6</ele></trkpt><trkpt lat="45.862086" lon="9.201615"><time>2024-05-04T09:03:31.000Z</time><ele>1392.6</ele></trkpt><trkpt lat="45.862086" lon="9.201615"><time>2024-05-04T09:03:32.000Z</time><ele>1392.6</ele></trkpt><trkpt lat="45.862086" lon="9.201615"><time>2024-05-04T09:03:33.000Z</time><ele>1392.6</ele></trkpt><trkpt lat="45.862086" lon="9.201615"><time>2024-05-04T09:03:34.000Z</time><ele>1392.6</ele></trkpt><trkpt lat="45.862086" lon="9.201615"><time>2024-05-04T09:03:35.000Z</time><ele>1392.6</ele></trkpt><trkpt lat="45.862087" lon="9.201615"><time>2024-05-04T09:03:36.000Z</time><ele>1392.4</ele></trkpt><trkpt lat="45.862087" lon="9.201615"><time>2024-05-04T09:03:37.000Z</time><ele>1392.4</ele></trkpt><trkpt lat="45.862087" lon="9.201615"><time>2024-05-04T09:03:38.000Z</time><ele>1392.4</ele></trkpt><trkpt lat="45.862087" lon="9.201615"><time>2024-05-04T09:03:39.000Z</time><ele>1392.4</ele></trkpt><trkpt lat="45.862087" lon="9.201615"><time>2024-05-04T09:03:40.000Z</time><ele>1392.4</ele></trkpt><trkpt lat="45.862087" lon="9.201615"><time>2024-05-04T09:03:41.000Z</time><ele>1392.4</ele></trkpt><trkpt lat="45.862087" lon="9.201615"><time>2024-05-04T09:03:42.000Z</time><ele>1392.4</ele></trkpt><trkpt lat="45.862087" lon="9.201615"><time>2024-05-04T09:03:43.000Z</time><ele>1392.4</ele></trkpt><trkpt lat="45.862087" lon="9.201615"><time>2024-05-04T09:03:44.000Z</time><ele>1392.4</ele></trkpt><trkpt lat="45.862086" lon="9.201614"><time>2024-05-04T09:03:45.000Z</time><ele>1392.4</ele></trkpt><trkpt lat="45.862086" lon="9.201614"><time>2024-05-04T09:03:46.000Z</time><ele>1392.4</ele></trkpt><trkpt lat="45.862086" lon="9.201614"><time>2024-05-04T09:03:47.000Z</time><ele>1392.2</ele></trkpt><trkpt lat="45.862086" lon="9.201614"><time>2024-05-04T09:03:48.000Z</time><ele>1392.2</ele></trkpt><trkpt lat="45.862087" lon="9.201614"><time>2024-05-04T09:03:49.000Z</time><ele>1392.2</ele></trkpt><trkpt lat="45.862087" lon="9.201614"><time>2024-05-04T09:03:50.000Z</time><ele>1392.2</ele></trkpt><trkpt lat="45.862087" lon="9.201614"><time>2024-05-04T09:03:51.000Z</time><ele>1392.2</ele></trkpt><trkpt lat="45.862087" lon="9.201614"><time>2024-05-04T09:03:52.000Z</time><ele>1392.2</ele></trkpt><trkpt lat="45.862087" lon="9.201614"><time>2024-05-04T09:03:53.000Z</time><ele>1392.2</ele></trkpt><trkpt lat="45.862087" lon="9.201614"><time>2024-05-04T09:03:54.000Z</time><ele>1392.2</ele></trkpt><trkpt lat="45.862087" lon="9.201614"><time>2024-05-04T09:03:55.000Z</time><ele>1392.2</ele></trkpt><trkpt lat="45.862087" lon="9.201614"><time>2024-05-04T09:03:56.000Z</time><ele>1392.2</ele></trkpt><trkpt lat="45.862087" lon="9.201614"><time>2024-05-04T09:03:57.000Z</time><ele>1392.2</ele></trkpt><trkpt lat="45.862087" lon="9.201614"><time>2024-05-04T09:03:58.000Z</time><ele>1392.2</ele></trkpt><trkpt lat="45.862087" lon="9.201614"><time>2024-05-04T09:03:59.000Z</time><ele>1392.4</ele></trkpt><trkpt lat="45.862087" lon="9.201614"><time>2024-05-04T09:04:00.000Z</time><ele>1392.4</ele></trkpt><trkpt lat="45.862088" lon="9.201614"><time>2024-05-04T09:04:01.000Z</time><ele>1392.4</ele></trkpt><trkpt lat="45.862089" lon="9.201614"><time>2024-05-04T09:04:02.000Z</time><ele>1392.2</ele></trkpt><trkpt lat="45.862089" lon="9.201614"><time>2024-05-04T09:04:03.000Z</time><ele>1392.2</ele></trkpt><trkpt lat="45.862089" lon="9.201615"><time>2024-05-04T09:04:04.000Z</time><ele>1392.2</ele></trkpt><trkpt lat="45.86209" lon="9.201617"><time>2024-05-04T09:04:05.000Z</time><ele>1392.2</ele></trkpt><trkpt lat="45.86209" lon="9.201617"><time>2024-05-04T09:04:06.000Z</time><ele>1392.2</ele></trkpt><trkpt lat="45.86209" lon="9.201618"><time>2024-05-04T09:04:07.000Z</time><ele>1392.2</ele></trkpt><trkpt lat="45.86209" lon="9.201618"><time>2024-05-04T09:04:08.000Z</time><ele>1392.2</ele></trkpt><trkpt lat="45.86209" lon="9.201619"><time>2024-05-04T09:04:09.000Z</time><ele>1392.2</ele></trkpt><trkpt lat="45.86209" lon="9.20162"><time>2024-05-04T09:04:10.000Z</time><ele>1392.2</ele></trkpt><trkpt lat="45.86209" lon="9.20162"><time>2024-05-04T09:04:11.000Z</time><ele>1392.2</ele></trkpt><trkpt lat="45.86209" lon="9.201621"><time>2024-05-04T09:04:12.000Z</time><ele>1392.2</ele></trkpt><trkpt lat="45.862091" lon="9.201621"><time>2024-05-04T09:04:13.000Z</time><ele>1392.2</ele></trkpt><trkpt lat="45.862091" lon="9.201621"><time>2024-05-04T09:04:14.000Z</time><ele>1392.2</ele></trkpt><trkpt lat="45.862091" lon="9.201621"><time>2024-05-04T09:04:15.000Z</time><ele>1392.2</ele></trkpt><trkpt lat="45.862091" lon="9.201621"><time>2024-05-04T09:04:16.000Z</time><ele>1392.2</ele></trkpt><trkpt lat="45.86209" lon="9.201621"><time>2024-05-04T09:04:17.000Z</time><ele>1392.2</ele></trkpt><trkpt lat="45.86209" lon="9.201621"><time>2024-05-04T09:04:18.000Z</time><ele>1392.2</ele></trkpt><trkpt lat="45.86209" lon="9.201621"><time>2024-05-04T09:04:19.000Z</time><ele>1392.2</ele></trkpt><trkpt lat="45.86209" lon="9.201621"><time>2024-05-04T09:04:20.000Z</time><ele>1392.2</ele></trkpt><trkpt lat="45.86209" lon="9.201621"><time>2024-05-04T09:04:21.000Z</time><ele>1392.2</ele></trkpt><trkpt lat="45.86209" lon="9.201621"><time>2024-05-04T09:04:22.000Z</time><ele>1392.2</ele></trkpt><trkpt lat="45.86209" lon="9.201621"><time>2024-05-04T09:04:23.000Z</time><ele>1392.2</ele></trkpt><trkpt lat="45.86209" lon="9.201621"><time>2024-05-04T09:04:24.000Z</time><ele>1392.2</ele></trkpt><trkpt lat="45.862089" lon="9.201621"><time>2024-05-04T09:04:25.000Z</time><ele>1392.2</ele></trkpt><trkpt lat="45.862086" lon="9.201621"><time>2024-05-04T09:04:26.000Z</time><ele>1392.2</ele></trkpt><trkpt lat="45.862083" lon="9.201621"><time>2024-05-04T09:04:27.000Z</time><ele>1392</ele></trkpt><trkpt lat="45.86208" lon="9.201621"><time>2024-05-04T09:04:28.000Z</time><ele>1392</ele></trkpt><trkpt lat="45.862078" lon="9.20162"><time>2024-05-04T09:04:29.000Z</time><ele>1392</ele></trkpt><trkpt lat="45.862078" lon="9.20162"><time>2024-05-04T09:04:30.000Z</time><ele>1391.8</ele></trkpt><trkpt lat="45.862077" lon="9.20162"><time>2024-05-04T09:04:31.000Z</time><ele>1391.8</ele></trkpt><trkpt lat="45.862077" lon="9.20162"><time>2024-05-04T09:04:32.000Z</time><ele>1391.8</ele></trkpt><trkpt lat="45.862077" lon="9.20162"><time>2024-05-04T09:04:33.000Z</time><ele>1391.6</ele></trkpt><trkpt lat="45.862077" lon="9.20162"><time>2024-05-04T09:04:34.000Z</time><ele>1391.6</ele></trkpt><trkpt lat="45.862076" lon="9.20162"><time>2024-05-04T09:04:35.000Z</time><ele>1391.8</ele></trkpt><trkpt lat="45.862076" lon="9.20162"><time>2024-05-04T09:04:36.000Z</time><ele>1391.8</ele></trkpt><trkpt lat="45.862076" lon="9.201619"><time>2024-05-04T09:04:37.000Z</time><ele>1392</ele></trkpt><trkpt lat="45.862075" lon="9.201619"><time>2024-05-04T09:04:38.000Z</time><ele>1392</ele></trkpt><trkpt lat="45.862075" lon="9.201618"><time>2024-05-04T09:04:39.000Z</time><ele>1392</ele></trkpt><trkpt lat="45.862075" lon="9.201617"><time>2024-05-04T09:04:40.000Z</time><ele>1392</ele></trkpt><trkpt lat="45.862075" lon="9.201617"><time>2024-05-04T09:04:41.000Z</time><ele>1392</ele></trkpt><trkpt lat="45.862075" lon="9.201617"><time>2024-05-04T09:04:42.000Z</time><ele>1392</ele></trkpt><trkpt lat="45.862075" lon="9.201617"><time>2024-05-04T09:04:43.000Z</time><ele>1391.8</ele></trkpt><trkpt lat="45.862074" lon="9.201616"><time>2024-05-04T09:04:44.000Z</time><ele>1392</ele></trkpt><trkpt lat="45.862074" lon="9.201616"><time>2024-05-04T09:04:45.000Z</time><ele>1392</ele></trkpt><trkpt lat="45.862074" lon="9.201616"><time>2024-05-04T09:04:46.000Z</time><ele>1392</ele></trkpt><trkpt lat="45.862073" lon="9.201616"><time>2024-05-04T09:04:47.000Z</time><ele>1392</ele></trkpt><trkpt lat="45.862073" lon="9.201616"><time>2024-05-04T09:04:48.000Z</time><ele>1392</ele></trkpt><trkpt lat="45.862073" lon="9.201616"><time>2024-05-04T09:04:49.000Z</time><ele>1392</ele></trkpt><trkpt lat="45.862073" lon="9.201616"><time>2024-05-04T09:04:50.000Z</time><ele>1391.8</ele></trkpt><trkpt lat="45.862072" lon="9.201616"><time>2024-05-04T09:04:51.000Z</time><ele>1391.8</ele></trkpt><trkpt lat="45.862071" lon="9.201616"><time>2024-05-04T09:04:52.000Z</time><ele>1391.6</ele></trkpt><trkpt lat="45.86207" lon="9.201616"><time>2024-05-04T09:04:53.000Z</time><ele>1391.6</ele></trkpt><trkpt lat="45.862069" lon="9.201616"><time>2024-05-04T09:04:54.000Z</time><ele>1391.6</ele></trkpt><trkpt lat="45.862068" lon="9.201616"><time>2024-05-04T09:04:55.000Z</time><ele>1391.6</ele></trkpt><trkpt lat="45.862067" lon="9.201616"><time>2024-05-04T09:04:56.000Z</time><ele>1391.4</ele></trkpt><trkpt lat="45.862066" lon="9.201615"><time>2024-05-04T09:04:57.000Z</time><ele>1391.6</ele></trkpt><trkpt lat="45.862065" lon="9.201615"><time>2024-05-04T09:04:58.000Z</time><ele>1391.4</ele></trkpt><trkpt lat="45.862065" lon="9.201615"><time>2024-05-04T09:04:59.000Z</time><ele>1391.4</ele></trkpt><trkpt lat="45.862065" lon="9.201615"><time>2024-05-04T09:05:00.000Z</time><ele>1391.4</ele></trkpt><trkpt lat="45.862064" lon="9.201615"><time>2024-05-04T09:05:01.000Z</time><ele>1391.4</ele></trkpt><trkpt lat="45.862064" lon="9.201615"><time>2024-05-04T09:05:02.000Z</time><ele>1391.4</ele></trkpt><trkpt lat="45.862063" lon="9.201614"><time>2024-05-04T09:05:03.000Z</time><ele>1391.4</ele></trkpt><trkpt lat="45.862062" lon="9.201614"><time>2024-05-04T09:05:04.000Z</time><ele>1391.6</ele></trkpt><trkpt lat="45.862062" lon="9.201614"><time>2024-05-04T09:05:05.000Z</time><ele>1391.6</ele></trkpt><trkpt lat="45.862062" lon="9.201614"><time>2024-05-04T09:05:06.000Z</time><ele>1391.6</ele></trkpt><trkpt lat="45.862062" lon="9.201614"><time>2024-05-04T09:05:07.000Z</time><ele>1391.6</ele></trkpt><trkpt lat="45.862062" lon="9.201614"><time>2024-05-04T09:05:08.000Z</time><ele>1391.6</ele></trkpt><trkpt lat="45.862061" lon="9.201614"><time>2024-05-04T09:05:09.000Z</time><ele>1391.6</ele></trkpt><trkpt lat="45.862061" lon="9.201614"><time>2024-05-04T09:05:10.000Z</time><ele>1391.6</ele></trkpt><trkpt lat="45.862061" lon="9.201614"><time>2024-05-04T09:05:11.000Z</time><ele>1391.6</ele></trkpt><trkpt lat="45.862061" lon="9.201614"><time>2024-05-04T09:05:12.000Z</time><ele>1391.6</ele></trkpt><trkpt lat="45.862061" lon="9.201614"><time>2024-05-04T09:05:13.000Z</time><ele>1391.8</ele></trkpt><trkpt lat="45.862061" lon="9.201614"><time>2024-05-04T09:05:14.000Z</time><ele>1391.8</ele></trkpt><trkpt lat="45.86206" lon="9.201614"><time>2024-05-04T09:05:15.000Z</time><ele>1391.6</ele></trkpt><trkpt lat="45.86206" lon="9.201614"><time>2024-05-04T09:05:16.000Z</time><ele>1391.6</ele></trkpt><trkpt lat="45.86206" lon="9.201614"><time>2024-05-04T09:05:17.000Z</time><ele>1391.6</ele></trkpt><trkpt lat="45.862059" lon="9.201614"><time>2024-05-04T09:05:18.000Z</time><ele>1391.4</ele></trkpt><trkpt lat="45.862059" lon="9.201614"><time>2024-05-04T09:05:19.000Z</time><ele>1391.4</ele></trkpt><trkpt lat="45.862059" lon="9.201614"><time>2024-05-04T09:05:20.000Z</time><ele>1391.4</ele></trkpt><trkpt lat="45.86206" lon="9.201614"><time>2024-05-04T09:05:21.000Z</time><ele>1391.4</ele></trkpt><trkpt lat="45.86206" lon="9.201614"><time>2024-05-04T09:05:22.000Z</time><ele>1391.2</ele></trkpt><trkpt lat="45.86206" lon="9.201614"><time>2024-05-04T09:05:23.000Z</time><ele>1391.2</ele></trkpt><trkpt lat="45.86206" lon="9.201614"><time>2024-05-04T09:05:24.000Z</time><ele>1391.2</ele></trkpt><trkpt lat="45.862061" lon="9.201614"><time>2024-05-04T09:05:25.000Z</time><ele>1391.2</ele></trkpt><trkpt lat="45.862061" lon="9.201614"><time>2024-05-04T09:05:26.000Z</time><ele>1391.2</ele></trkpt><trkpt lat="45.862061" lon="9.201614"><time>2024-05-04T09:05:27.000Z</time><ele>1391.2</ele></trkpt><trkpt lat="45.862061" lon="9.201614"><time>2024-05-04T09:05:28.000Z</time><ele>1391.2</ele></trkpt><trkpt lat="45.862061" lon="9.201614"><time>2024-05-04T09:05:29.000Z</time><ele>1391.2</ele></trkpt><trkpt lat="45.862061" lon="9.201614"><time>2024-05-04T09:05:30.000Z</time><ele>1391.2</ele></trkpt><trkpt lat="45.862061" lon="9.201613"><time>2024-05-04T09:05:31.000Z</time><ele>1391.2</ele></trkpt><trkpt lat="45.862061" lon="9.201612"><time>2024-05-04T09:05:32.000Z</time><ele>1391.2</ele></trkpt><trkpt lat="45.862061" lon="9.201612"><time>2024-05-04T09:05:33.000Z</time><ele>1391</ele></trkpt><trkpt lat="45.862062" lon="9.20161"><time>2024-05-04T09:05:34.000Z</time><ele>1391</ele></trkpt><trkpt lat="45.862063" lon="9.201609"><time>2024-05-04T09:05:35.000Z</time><ele>1391</ele></trkpt><trkpt lat="45.862064" lon="9.201608"><time>2024-05-04T09:05:36.000Z</time><ele>1391</ele></trkpt><trkpt lat="45.862065" lon="9.201607"><time>2024-05-04T09:05:37.000Z</time><ele>1391</ele></trkpt><trkpt lat="45.862065" lon="9.201606"><time>2024-05-04T09:05:38.000Z</time><ele>1391</ele></trkpt><trkpt lat="45.862066" lon="9.201606"><time>2024-05-04T09:05:39.000Z</time><ele>1391</ele></trkpt><trkpt lat="45.862066" lon="9.201605"><time>2024-05-04T09:05:40.000Z</time><ele>1391</ele></trkpt><trkpt lat="45.862066" lon="9.201605"><time>2024-05-04T09:05:41.000Z</time><ele>1391</ele></trkpt><trkpt lat="45.862067" lon="9.201605"><time>2024-05-04T09:05:42.000Z</time><ele>1391</ele></trkpt><trkpt lat="45.862067" lon="9.201605"><time>2024-05-04T09:05:43.000Z</time><ele>1390.8</ele></trkpt><trkpt lat="45.862067" lon="9.201604"><time>2024-05-04T09:05:44.000Z</time><ele>1390.8</ele></trkpt><trkpt lat="45.862067" lon="9.201604"><time>2024-05-04T09:05:45.000Z</time><ele>1390.8</ele></trkpt><trkpt lat="45.862067" lon="9.201604"><time>2024-05-04T09:05:46.000Z</time><ele>1390.8</ele></trkpt><trkpt lat="45.862067" lon="9.201604"><time>2024-05-04T09:05:47.000Z</time><ele>1390.8</ele></trkpt><trkpt lat="45.862067" lon="9.201604"><time>2024-05-04T09:05:48.000Z</time><ele>1390.8</ele></trkpt><trkpt lat="45.862067" lon="9.201603"><time>2024-05-04T09:05:49.000Z</time><ele>1390.8</ele></trkpt><trkpt lat="45.862067" lon="9.201603"><time>2024-05-04T09:05:50.000Z</time><ele>1390.8</ele></trkpt><trkpt lat="45.862067" lon="9.201603"><time>2024-05-04T09:05:51.000Z</time><ele>1390.8</ele></trkpt><trkpt lat="45.862067" lon="9.201602"><time>2024-05-04T09:05:52.000Z</time><ele>1390.8</ele></trkpt><trkpt lat="45.862067" lon="9.201602"><time>2024-05-04T09:05:53.000Z</time><ele>1390.8</ele></trkpt><trkpt lat="45.862067" lon="9.201602"><time>2024-05-04T09:05:54.000Z</time><ele>1390.8</ele></trkpt><trkpt lat="45.862067" lon="9.201602"><time>2024-05-04T09:05:55.000Z</time><ele>1390.6</ele></trkpt><trkpt lat="45.862066" lon="9.201602"><time>2024-05-04T09:05:56.000Z</time><ele>1390.6</ele></trkpt><trkpt lat="45.862066" lon="9.201602"><time>2024-05-04T09:05:57.000Z</time><ele>1390.6</ele></trkpt><trkpt lat="45.862066" lon="9.201601"><time>2024-05-04T09:05:58.000Z</time><ele>1390.6</ele></trkpt><trkpt lat="45.862065" lon="9.201601"><time>2024-05-04T09:05:59.000Z</time><ele>1390.6</ele></trkpt><trkpt lat="45.862065" lon="9.201601"><time>2024-05-04T09:06:00.000Z</time><ele>1390.6</ele></trkpt><trkpt lat="45.862065" lon="9.201601"><time>2024-05-04T09:06:01.000Z</time><ele>1390.6</ele></trkpt><trkpt lat="45.862065" lon="9.201601"><time>2024-05-04T09:06:02.000Z</time><ele>1390.6</ele></trkpt><trkpt lat="45.862065" lon="9.2016"><time>2024-05-04T09:06:03.000Z</time><ele>1390.6</ele></trkpt><trkpt lat="45.862064" lon="9.2016"><time>2024-05-04T09:06:04.000Z</time><ele>1390.6</ele></trkpt><trkpt lat="45.862064" lon="9.2016"><time>2024-05-04T09:06:05.000Z</time><ele>1390.6</ele></trkpt><trkpt lat="45.862064" lon="9.2016"><time>2024-05-04T09:06:06.000Z</time><ele>1390.6</ele></trkpt><trkpt lat="45.862064" lon="9.2016"><time>2024-05-04T09:06:07.000Z</time><ele>1390.6</ele></trkpt><trkpt lat="45.862064" lon="9.201599"><time>2024-05-04T09:06:08.000Z</time><ele>1390.6</ele></trkpt><trkpt lat="45.862064" lon="9.201599"><time>2024-05-04T09:06:09.000Z</time><ele>1390.6</ele></trkpt><trkpt lat="45.862064" lon="9.201599"><time>2024-05-04T09:06:10.000Z</time><ele>1390.6</ele></trkpt><trkpt lat="45.862064" lon="9.201599"><time>2024-05-04T09:06:11.000Z</time><ele>1390.6</ele></trkpt><trkpt lat="45.862064" lon="9.201599"><time>2024-05-04T09:06:12.000Z</time><ele>1390.6</ele></trkpt><trkpt lat="45.862064" lon="9.201599"><time>2024-05-04T09:06:13.000Z</time><ele>1390.6</ele></trkpt><trkpt lat="45.862064" lon="9.201599"><time>2024-05-04T09:06:14.000Z</time><ele>1390.6</ele></trkpt><trkpt lat="45.862064" lon="9.201599"><time>2024-05-04T09:06:15.000Z</time><ele>1390.6</ele></trkpt><trkpt lat="45.862064" lon="9.201599"><time>2024-05-04T09:06:16.000Z</time><ele>1390.6</ele></trkpt><trkpt lat="45.862064" lon="9.201598"><time>2024-05-04T09:06:17.000Z</time><ele>1390.6</ele></trkpt><trkpt lat="45.862064" lon="9.201598"><time>2024-05-04T09:06:18.000Z</time><ele>1390.6</ele></trkpt><trkpt lat="45.862064" lon="9.201598"><time>2024-05-04T09:06:19.000Z</time><ele>1390.6</ele></trkpt><trkpt lat="45.862064" lon="9.201599"><time>2024-05-04T09:06:20.000Z</time><ele>1390.6</ele></trkpt><trkpt lat="45.862064" lon="9.201599"><time>2024-05-04T09:06:21.000Z</time><ele>1390.6</ele></trkpt><trkpt lat="45.862064" lon="9.201599"><time>2024-05-04T09:06:22.000Z</time><ele>1390.6</ele></trkpt><trkpt lat="45.862064" lon="9.201599"><time>2024-05-04T09:06:23.000Z</time><ele>1390.6</ele></trkpt><trkpt lat="45.862064" lon="9.201599"><time>2024-05-04T09:06:24.000Z</time><ele>1390.6</ele></trkpt><trkpt lat="45.862064" lon="9.201599"><time>2024-05-04T09:06:25.000Z</time><ele>1390.6</ele></trkpt><trkpt lat="45.862064" lon="9.201599"><time>2024-05-04T09:06:26.000Z</time><ele>1390.6</ele></trkpt><trkpt lat="45.862064" lon="9.201599"><time>2024-05-04T09:06:27.000Z</time><ele>1390.6</ele></trkpt><trkpt lat="45.862064" lon="9.201599"><time>2024-05-04T09:06:28.000Z</time><ele>1390.6</ele></trkpt><trkpt lat="45.862064" lon="9.201599"><time>2024-05-04T09:06:29.000Z</time><ele>1390.4</ele></trkpt><trkpt lat="45.862064" lon="9.201599"><time>2024-05-04T09:06:30.000Z</time><ele>1390.4</ele></trkpt><trkpt lat="45.862064" lon="9.201599"><time>2024-05-04T09:06:31.000Z</time><ele>1390.4</ele></trkpt><trkpt lat="45.862064" lon="9.201599"><time>2024-05-04T09:06:32.000Z</time><ele>1390.4</ele></trkpt><trkpt lat="45.862064" lon="9.201599"><time>2024-05-04T09:06:33.000Z</time><ele>1390.4</ele></trkpt><trkpt lat="45.862064" lon="9.201599"><time>2024-05-04T09:06:34.000Z</time><ele>1390.4</ele></trkpt><trkpt lat="45.862064" lon="9.201599"><time>2024-05-04T09:06:35.000Z</time><ele>1390.4</ele></trkpt><trkpt lat="45.862064" lon="9.201599"><time>2024-05-04T09:06:36.000Z</time><ele>1390.4</ele></trkpt><trkpt lat="45.862064" lon="9.201599"><time>2024-05-04T09:06:37.000Z</time><ele>1390.4</ele></trkpt><trkpt lat="45.862064" lon="9.2016"><time>2024-05-04T09:06:38.000Z</time><ele>1390.4</ele></trkpt><trkpt lat="45.862064" lon="9.2016"><time>2024-05-04T09:06:39.000Z</time><ele>1390.4</ele></trkpt><trkpt lat="45.862064" lon="9.2016"><time>2024-05-04T09:06:40.000Z</time><ele>1390.4</ele></trkpt><trkpt lat="45.862064" lon="9.2016"><time>2024-05-04T09:06:41.000Z</time><ele>1390.4</ele></trkpt><trkpt lat="45.862064" lon="9.2016"><time>2024-05-04T09:06:42.000Z</time><ele>1390.4</ele></trkpt><trkpt lat="45.862064" lon="9.2016"><time>2024-05-04T09:06:43.000Z</time><ele>1390.6</ele></trkpt><trkpt lat="45.862064" lon="9.2016"><time>2024-05-04T09:06:44.000Z</time><ele>1390.6</ele></trkpt><trkpt lat="45.862064" lon="9.2016"><time>2024-05-04T09:06:45.000Z</time><ele>1390.6</ele></trkpt><trkpt lat="45.862064" lon="9.2016"><time>2024-05-04T09:06:46.000Z</time><ele>1390.6</ele></trkpt><trkpt lat="45.862064" lon="9.2016"><time>2024-05-04T09:06:47.000Z</time><ele>1390.6</ele></trkpt><trkpt lat="45.862064" lon="9.2016"><time>2024-05-04T09:06:48.000Z</time><ele>1390.6</ele></trkpt><trkpt lat="45.862064" lon="9.2016"><time>2024-05-04T09:06:49.000Z</time><ele>1390.6</ele></trkpt><trkpt lat="45.862064" lon="9.2016"><time>2024-05-04T09:06:50.000Z</time><ele>1390.6</ele></trkpt><trkpt lat="45.862064" lon="9.2016"><time>2024-05-04T09:06:51.000Z</time><ele>1390.6</ele></trkpt><trkpt lat="45.862064" lon="9.2016"><time>2024-05-04T09:06:52.000Z</time><ele>1390.6</ele></trkpt><trkpt lat="45.862064" lon="9.2016"><time>2024-05-04T09:06:53.000Z</time><ele>1390.6</ele></trkpt><trkpt lat="45.862064" lon="9.2016"><time>2024-05-04T09:06:54.000Z</time><ele>1390.6</ele></trkpt><trkpt lat="45.862064" lon="9.2016"><time>2024-05-04T09:06:55.000Z</time><ele>1390.6</ele></trkpt><trkpt lat="45.862064" lon="9.2016"><time>2024-05-04T09:06:56.000Z</time><ele>1390.6</ele></trkpt><trkpt lat="45.862064" lon="9.2016"><time>2024-05-04T09:06:57.000Z</time><ele>1390.6</ele></trkpt><trkpt lat="45.862064" lon="9.2016"><time>2024-05-04T09:06:58.000Z</time><ele>1390.6</ele></trkpt><trkpt lat="45.862064" lon="9.2016"><time>2024-05-04T09:06:59.000Z</time><ele>1390.6</ele></trkpt><trkpt lat="45.862064" lon="9.2016"><time>2024-05-04T09:07:00.000Z</time><ele>1390.6</ele></trkpt><trkpt lat="45.862064" lon="9.2016"><time>2024-05-04T09:07:01.000Z</time><ele>1390.6</ele></trkpt><trkpt lat="45.862064" lon="9.2016"><time>2024-05-04T09:07:02.000Z</time><ele>1390.6</ele></trkpt><trkpt lat="45.862064" lon="9.2016"><time>2024-05-04T09:07:03.000Z</time><ele>1390.6</ele></trkpt><trkpt lat="45.862064" lon="9.2016"><time>2024-05-04T09:07:04.000Z</time><ele>1390.6</ele></trkpt><trkpt lat="45.862064" lon="9.2016"><time>2024-05-04T09:07:05.000Z</time><ele>1390.6</ele></trkpt><trkpt lat="45.862065" lon="9.2016"><time>2024-05-04T09:07:06.000Z</time><ele>1390.6</ele></trkpt><trkpt lat="45.862065" lon="9.2016"><time>2024-05-04T09:07:07.000Z</time><ele>1390.6</ele></trkpt><trkpt lat="45.862065" lon="9.2016"><time>2024-05-04T09:07:08.000Z</time><ele>1390.6</ele></trkpt><trkpt lat="45.862065" lon="9.2016"><time>2024-05-04T09:07:09.000Z</time><ele>1390.6</ele></trkpt><trkpt lat="45.862065" lon="9.2016"><time>2024-05-04T09:07:10.000Z</time><ele>1390.6</ele></trkpt><trkpt lat="45.862065" lon="9.2016"><time>2024-05-04T09:07:11.000Z</time><ele>1390.6</ele></trkpt><trkpt lat="45.862065" lon="9.2016"><time>2024-05-04T09:07:12.000Z</time><ele>1390.6</ele></trkpt><trkpt lat="45.862065" lon="9.2016"><time>2024-05-04T09:07:13.000Z</time><ele>1390.6</ele></trkpt><trkpt lat="45.862065" lon="9.2016"><time>2024-05-04T09:07:14.000Z</time><ele>1390.6</ele></trkpt><trkpt lat="45.862065" lon="9.2016"><time>2024-05-04T09:07:15.000Z</time><ele>1390.6</ele></trkpt><trkpt lat="45.862065" lon="9.2016"><time>2024-05-04T09:07:16.000Z</time><ele>1390.6</ele></trkpt><trkpt lat="45.862065" lon="9.2016"><time>2024-05-04T09:07:17.000Z</time><ele>1390.6</ele></trkpt><trkpt lat="45.862065" lon="9.201601"><time>2024-05-04T09:07:18.000Z</time><ele>1390.6</ele></trkpt><trkpt lat="45.862065" lon="9.201601"><time>2024-05-04T09:07:19.000Z</time><ele>1390.6</ele></trkpt><trkpt lat="45.862065" lon="9.201601"><time>2024-05-04T09:07:20.000Z</time><ele>1390.6</ele></trkpt><trkpt lat="45.862065" lon="9.201601"><time>2024-05-04T09:07:21.000Z</time><ele>1390.6</ele></trkpt><trkpt lat="45.862065" lon="9.201601"><time>2024-05-04T09:07:22.000Z</time><ele>1390.6</ele></trkpt><trkpt lat="45.862065" lon="9.201602"><time>2024-05-04T09:07:23.000Z</time><ele>1390.6</ele></trkpt><trkpt lat="45.862065" lon="9.201602"><time>2024-05-04T09:07:24.000Z</time><ele>1390.6</ele></trkpt><trkpt lat="45.862065" lon="9.201602"><time>2024-05-04T09:07:25.000Z</time><ele>1390.6</ele></trkpt><trkpt lat="45.862065" lon="9.201602"><time>2024-05-04T09:07:26.000Z</time><ele>1390.6</ele></trkpt><trkpt lat="45.862065" lon="9.201602"><time>2024-05-04T09:07:27.000Z</time><ele>1390.6</ele></trkpt><trkpt lat="45.862065" lon="9.201602"><time>2024-05-04T09:07:28.000Z</time><ele>1390.6</ele></trkpt><trkpt lat="45.862065" lon="9.201603"><time>2024-05-04T09:07:29.000Z</time><ele>1390.6</ele></trkpt><trkpt lat="45.862065" lon="9.201603"><time>2024-05-04T09:07:30.000Z</time><ele>1390.6</ele></trkpt><trkpt lat="45.862065" lon="9.201603"><time>2024-05-04T09:07:31.000Z</time><ele>1390.6</ele></trkpt><trkpt lat="45.862065" lon="9.201603"><time>2024-05-04T09:07:32.000Z</time><ele>1390.6</ele></trkpt><trkpt lat="45.862065" lon="9.201603"><time>2024-05-04T09:07:33.000Z</time><ele>1390.6</ele></trkpt><trkpt lat="45.862065" lon="9.201603"><time>2024-05-04T09:07:34.000Z</time><ele>1390.6</ele></trkpt><trkpt lat="45.862065" lon="9.201604"><time>2024-05-04T09:07:35.000Z</time><ele>1390.6</ele></trkpt><trkpt lat="45.862065" lon="9.201604"><time>2024-05-04T09:07:36.000Z</time><ele>1390.6</ele></trkpt><trkpt lat="45.862065" lon="9.201604"><time>2024-05-04T09:07:37.000Z</time><ele>1390.6</ele></trkpt><trkpt lat="45.862065" lon="9.201604"><time>2024-05-04T09:07:38.000Z</time><ele>1390.6</ele></trkpt><trkpt lat="45.862065" lon="9.201604"><time>2024-05-04T09:07:39.000Z</time><ele>1390.6</ele></trkpt><trkpt lat="45.862065" lon="9.201604"><time>2024-05-04T09:07:40.000Z</time><ele>1390.6</ele></trkpt><trkpt lat="45.862065" lon="9.201604"><time>2024-05-04T09:07:41.000Z</time><ele>1390.6</ele></trkpt><trkpt lat="45.862065" lon="9.201605"><time>2024-05-04T09:07:42.000Z</time><ele>1390.6</ele></trkpt><trkpt lat="45.862065" lon="9.201605"><time>2024-05-04T09:07:43.000Z</time><ele>1390.6</ele></trkpt><trkpt lat="45.862066" lon="9.201605"><time>2024-05-04T09:07:44.000Z</time><ele>1390.6</ele></trkpt><trkpt lat="45.862066" lon="9.201605"><time>2024-05-04T09:07:45.000Z</time><ele>1390.6</ele></trkpt><trkpt lat="45.862066" lon="9.201605"><time>2024-05-04T09:07:46.000Z</time><ele>1390.6</ele></trkpt><trkpt lat="45.862066" lon="9.201605"><time>2024-05-04T09:07:47.000Z</time><ele>1390.6</ele></trkpt><trkpt lat="45.862066" lon="9.201606"><time>2024-05-04T09:07:48.000Z</time><ele>1390.6</ele></trkpt><trkpt lat="45.862066" lon="9.201606"><time>2024-05-04T09:07:49.000Z</time><ele>1390.6</ele></trkpt><trkpt lat="45.862066" lon="9.201606"><time>2024-05-04T09:07:50.000Z</time><ele>1390.6</ele></trkpt><trkpt lat="45.862066" lon="9.201606"><time>2024-05-04T09:07:51.000Z</time><ele>1390.6</ele></trkpt><trkpt lat="45.862066" lon="9.201606"><time>2024-05-04T09:07:52.000Z</time><ele>1390.6</ele></trkpt><trkpt lat="45.862066" lon="9.201607"><time>2024-05-04T09:07:53.000Z</time><ele>1390.6</ele></trkpt><trkpt lat="45.862066" lon="9.201607"><time>2024-05-04T09:07:54.000Z</time><ele>1390.6</ele></trkpt><trkpt lat="45.862066" lon="9.201607"><time>2024-05-04T09:07:55.000Z</time><ele>1390.6</ele></trkpt><trkpt lat="45.862066" lon="9.201607"><time>2024-05-04T09:07:56.000Z</time><ele>1390.6</ele></trkpt><trkpt lat="45.862066" lon="9.201607"><time>2024-05-04T09:07:57.000Z</time><ele>1390.6</ele></trkpt><trkpt lat="45.862066" lon="9.201607"><time>2024-05-04T09:07:58.000Z</time><ele>1390.6</ele></trkpt><trkpt lat="45.862066" lon="9.201608"><time>2024-05-04T09:07:59.000Z</time><ele>1390.6</ele></trkpt><trkpt lat="45.862066" lon="9.201608"><time>2024-05-04T09:08:00.000Z</time><ele>1390.6</ele></trkpt><trkpt lat="45.862066" lon="9.201608"><time>2024-05-04T09:08:01.000Z</time><ele>1390.6</ele></trkpt><trkpt lat="45.862066" lon="9.201608"><time>2024-05-04T09:08:02.000Z</time><ele>1390.6</ele></trkpt><trkpt lat="45.862066" lon="9.201608"><time>2024-05-04T09:08:03.000Z</time><ele>1390.6</ele></trkpt><trkpt lat="45.862066" lon="9.201608"><time>2024-05-04T09:08:04.000Z</time><ele>1390.6</ele></trkpt><trkpt lat="45.862066" lon="9.201608"><time>2024-05-04T09:08:05.000Z</time><ele>1390.6</ele></trkpt><trkpt lat="45.862066" lon="9.201609"><time>2024-05-04T09:08:06.000Z</time><ele>1390.6</ele></trkpt><trkpt lat="45.862066" lon="9.201609"><time>2024-05-04T09:08:07.000Z</time><ele>1390.6</ele></trkpt><trkpt lat="45.862066" lon="9.201609"><time>2024-05-04T09:08:08.000Z</time><ele>1390.6</ele></trkpt><trkpt lat="45.862066" lon="9.201609"><time>2024-05-04T09:08:09.000Z</time><ele>1390.6</ele></trkpt><trkpt lat="45.862066" lon="9.201609"><time>2024-05-04T09:08:10.000Z</time><ele>1390.6</ele></trkpt><trkpt lat="45.862066" lon="9.201609"><time>2024-05-04T09:08:11.000Z</time><ele>1390.6</ele></trkpt><trkpt lat="45.862067" lon="9.201609"><time>2024-05-04T09:08:12.000Z</time><ele>1390.6</ele></trkpt><trkpt lat="45.862067" lon="9.20161"><time>2024-05-04T09:08:13.000Z</time><ele>1390.6</ele></trkpt><trkpt lat="45.862067" lon="9.20161"><time>2024-05-04T09:08:14.000Z</time><ele>1390.6</ele></trkpt><trkpt lat="45.862067" lon="9.20161"><time>2024-05-04T09:08:15.000Z</time><ele>1390.6</ele></trkpt><trkpt lat="45.862067" lon="9.20161"><time>2024-05-04T09:08:16.000Z</time><ele>1390.6</ele></trkpt><trkpt lat="45.862067" lon="9.201611"><time>2024-05-04T09:08:17.000Z</time><ele>1390.6</ele></trkpt><trkpt lat="45.862067" lon="9.201611"><time>2024-05-04T09:08:18.000Z</time><ele>1390.6</ele></trkpt><trkpt lat="45.862067" lon="9.201611"><time>2024-05-04T09:08:19.000Z</time><ele>1390.6</ele></trkpt><trkpt lat="45.862067" lon="9.201611"><time>2024-05-04T09:08:20.000Z</time><ele>1390.6</ele></trkpt><trkpt lat="45.862067" lon="9.201611"><time>2024-05-04T09:08:21.000Z</time><ele>1390.6</ele></trkpt><trkpt lat="45.862067" lon="9.201611"><time>2024-05-04T09:08:22.000Z</time><ele>1390.6</ele></trkpt><trkpt lat="45.862067" lon="9.201612"><time>2024-05-04T09:08:23.000Z</time><ele>1390.6</ele></trkpt><trkpt lat="45.862067" lon="9.201612"><time>2024-05-04T09:08:24.000Z</time><ele>1390.6</ele></trkpt><trkpt lat="45.862067" lon="9.201612"><time>2024-05-04T09:08:25.000Z</time><ele>1390.6</ele></trkpt><trkpt lat="45.862067" lon="9.201612"><time>2024-05-04T09:08:26.000Z</time><ele>1390.6</ele></trkpt><trkpt lat="45.862067" lon="9.201612"><time>2024-05-04T09:08:27.000Z</time><ele>1390.6</ele></trkpt><trkpt lat="45.862067" lon="9.201612"><time>2024-05-04T09:08:28.000Z</time><ele>1390.6</ele></trkpt><trkpt lat="45.862067" lon="9.201612"><time>2024-05-04T09:08:29.000Z</time><ele>1390.6</ele></trkpt><trkpt lat="45.862067" lon="9.201613"><time>2024-05-04T09:08:30.000Z</time><ele>1390.6</ele></trkpt><trkpt lat="45.862067" lon="9.201613"><time>2024-05-04T09:08:31.000Z</time><ele>1390.6</ele></trkpt><trkpt lat="45.862067" lon="9.201613"><time>2024-05-04T09:08:32.000Z</time><ele>1390.6</ele></trkpt><trkpt lat="45.862067" lon="9.201613"><time>2024-05-04T09:08:33.000Z</time><ele>1390.6</ele></trkpt><trkpt lat="45.862067" lon="9.201613"><time>2024-05-04T09:08:34.000Z</time><ele>1390.6</ele></trkpt><trkpt lat="45.862067" lon="9.201613"><time>2024-05-04T09:08:35.000Z</time><ele>1390.6</ele></trkpt><trkpt lat="45.862067" lon="9.201614"><time>2024-05-04T09:08:36.000Z</time><ele>1390.6</ele></trkpt><trkpt lat="45.862067" lon="9.201614"><time>2024-05-04T09:08:37.000Z</time><ele>1390.6</ele></trkpt><trkpt lat="45.862067" lon="9.201614"><time>2024-05-04T09:08:38.000Z</time><ele>1390.6</ele></trkpt><trkpt lat="45.862067" lon="9.201614"><time>2024-05-04T09:08:39.000Z</time><ele>1390.6</ele></trkpt><trkpt lat="45.862067" lon="9.201614"><time>2024-05-04T09:08:40.000Z</time><ele>1390.6</ele></trkpt><trkpt lat="45.862067" lon="9.201614"><time>2024-05-04T09:08:41.000Z</time><ele>1390.6</ele></trkpt><trkpt lat="45.862067" lon="9.201614"><time>2024-05-04T09:08:42.000Z</time><ele>1390.6</ele></trkpt><trkpt lat="45.862067" lon="9.201615"><time>2024-05-04T09:08:43.000Z</time><ele>1390.6</ele></trkpt><trkpt lat="45.862068" lon="9.201615"><time>2024-05-04T09:08:44.000Z</time><ele>1390.6</ele></trkpt><trkpt lat="45.862068" lon="9.201615"><time>2024-05-04T09:08:45.000Z</time><ele>1390.6</ele></trkpt><trkpt lat="45.862068" lon="9.201615"><time>2024-05-04T09:08:46.000Z</time><ele>1390.6</ele></trkpt><trkpt lat="45.862068" lon="9.201615"><time>2024-05-04T09:08:47.000Z</time><ele>1390.6</ele></trkpt><trkpt lat="45.862068" lon="9.201615"><time>2024-05-04T09:08:48.000Z</time><ele>1390.6</ele></trkpt><trkpt lat="45.862068" lon="9.201615"><time>2024-05-04T09:08:49.000Z</time><ele>1390.6</ele></trkpt><trkpt lat="45.862068" lon="9.201615"><time>2024-05-04T09:08:50.000Z</time><ele>1390.6</ele></trkpt><trkpt lat="45.862068" lon="9.201615"><time>2024-05-04T09:08:51.000Z</time><ele>1390.6</ele></trkpt><trkpt lat="45.862068" lon="9.201616"><time>2024-05-04T09:08:52.000Z</time><ele>1390.6</ele></trkpt><trkpt lat="45.862068" lon="9.201616"><time>2024-05-04T09:08:53.000Z</time><ele>1390.6</ele></trkpt><trkpt lat="45.862068" lon="9.201616"><time>2024-05-04T09:08:54.000Z</time><ele>1390.6</ele></trkpt><trkpt lat="45.862068" lon="9.201616"><time>2024-05-04T09:08:55.000Z</time><ele>1390.6</ele></trkpt><trkpt lat="45.862068" lon="9.201616"><time>2024-05-04T09:08:56.000Z</time><ele>1390.6</ele></trkpt><trkpt lat="45.862068" lon="9.201617"><time>2024-05-04T09:08:57.000Z</time><ele>1390.6</ele></trkpt><trkpt lat="45.862068" lon="9.201617"><time>2024-05-04T09:08:58.000Z</time><ele>1390.6</ele></trkpt><trkpt lat="45.862068" lon="9.201617"><time>2024-05-04T09:08:59.000Z</time><ele>1390.6</ele></trkpt><trkpt lat="45.862068" lon="9.201617"><time>2024-05-04T09:09:00.000Z</time><ele>1390.6</ele></trkpt><trkpt lat="45.862068" lon="9.201617"><time>2024-05-04T09:09:01.000Z</time><ele>1390.6</ele></trkpt><trkpt lat="45.862068" lon="9.201618"><time>2024-05-04T09:09:02.000Z</time><ele>1390.6</ele></trkpt><trkpt lat="45.862068" lon="9.201618"><time>2024-05-04T09:09:03.000Z</time><ele>1390.6</ele></trkpt><trkpt lat="45.862068" lon="9.201618"><time>2024-05-04T09:09:04.000Z</time><ele>1390.6</ele></trkpt><trkpt lat="45.862069" lon="9.201618"><time>2024-05-04T09:09:05.000Z</time><ele>1390.6</ele></trkpt><trkpt lat="45.862069" lon="9.201618"><time>2024-05-04T09:09:06.000Z</time><ele>1390.6</ele></trkpt><trkpt lat="45.862069" lon="9.201619"><time>2024-05-04T09:09:07.000Z</time><ele>1390.6</ele></trkpt><trkpt lat="45.862069" lon="9.201619"><time>2024-05-04T09:09:08.000Z</time><ele>1390.6</ele></trkpt><trkpt lat="45.862069" lon="9.201619"><time>2024-05-04T09:09:09.000Z</time><ele>1390.6</ele></trkpt><trkpt lat="45.862069" lon="9.201619"><time>2024-05-04T09:09:10.000Z</time><ele>1390.6</ele></trkpt><trkpt lat="45.862069" lon="9.201619"><time>2024-05-04T09:09:11.000Z</time><ele>1390.6</ele></trkpt><trkpt lat="45.862068" lon="9.201619"><time>2024-05-04T09:09:12.000Z</time><ele>1390.6</ele></trkpt><trkpt lat="45.862069" lon="9.20162"><time>2024-05-04T09:09:13.000Z</time><ele>1390.6</ele></trkpt><trkpt lat="45.862069" lon="9.20162"><time>2024-05-04T09:09:14.000Z</time><ele>1390.6</ele></trkpt><trkpt lat="45.862069" lon="9.20162"><time>2024-05-04T09:09:15.000Z</time><ele>1390.6</ele></trkpt><trkpt lat="45.862069" lon="9.20162"><time>2024-05-04T09:09:16.000Z</time><ele>1390.6</ele></trkpt><trkpt lat="45.862069" lon="9.20162"><time>2024-05-04T09:09:17.000Z</time><ele>1390.6</ele></trkpt><trkpt lat="45.862069" lon="9.20162"><time>2024-05-04T09:09:18.000Z</time><ele>1390.6</ele></trkpt><trkpt lat="45.862069" lon="9.20162"><time>2024-05-04T09:09:19.000Z</time><ele>1390.6</ele></trkpt><trkpt lat="45.862069" lon="9.201621"><time>2024-05-04T09:09:20.000Z</time><ele>1390.6</ele></trkpt><trkpt lat="45.862069" lon="9.201621"><time>2024-05-04T09:09:21.000Z</time><ele>1390.6</ele></trkpt><trkpt lat="45.862069" lon="9.201621"><time>2024-05-04T09:09:22.000Z</time><ele>1390.6</ele></trkpt><trkpt lat="45.862069" lon="9.201621"><time>2024-05-04T09:09:23.000Z</time><ele>1390.6</ele></trkpt><trkpt lat="45.862069" lon="9.201621"><time>2024-05-04T09:09:24.000Z</time><ele>1390.6</ele></trkpt><trkpt lat="45.862069" lon="9.201621"><time>2024-05-04T09:09:25.000Z</time><ele>1390.6</ele></trkpt><trkpt lat="45.862069" lon="9.201621"><time>2024-05-04T09:09:26.000Z</time><ele>1390.6</ele></trkpt><trkpt lat="45.862069" lon="9.201621"><time>2024-05-04T09:09:27.000Z</time><ele>1390.6</ele></trkpt><trkpt lat="45.862069" lon="9.201621"><time>2024-05-04T09:09:28.000Z</time><ele>1390.6</ele></trkpt><trkpt lat="45.862069" lon="9.201621"><time>2024-05-04T09:09:29.000Z</time><ele>1390.6</ele></trkpt><trkpt lat="45.862069" lon="9.201621"><time>2024-05-04T09:09:30.000Z</time><ele>1390.6</ele></trkpt><trkpt lat="45.862069" lon="9.201621"><time>2024-05-04T09:09:31.000Z</time><ele>1390.6</ele></trkpt><trkpt lat="45.862069" lon="9.201621"><time>2024-05-04T09:09:32.000Z</time><ele>1390.6</ele></trkpt><trkpt lat="45.862069" lon="9.201621"><time>2024-05-04T09:09:33.000Z</time><ele>1390.6</ele></trkpt><trkpt lat="45.862069" lon="9.201621"><time>2024-05-04T09:09:34.000Z</time><ele>1390.6</ele></trkpt><trkpt lat="45.862069" lon="9.201621"><time>2024-05-04T09:09:35.000Z</time><ele>1390.6</ele></trkpt><trkpt lat="45.862069" lon="9.201621"><time>2024-05-04T09:09:36.000Z</time><ele>1390.6</ele></trkpt><trkpt lat="45.862069" lon="9.201621"><time>2024-05-04T09:09:37.000Z</time><ele>1390.6</ele></trkpt><trkpt lat="45.862069" lon="9.201621"><time>2024-05-04T09:09:38.000Z</time><ele>1390.6</ele></trkpt><trkpt lat="45.862069" lon="9.201621"><time>2024-05-04T09:09:39.000Z</time><ele>1390.6</ele></trkpt><trkpt lat="45.862069" lon="9.201621"><time>2024-05-04T09:09:40.000Z</time><ele>1390.6</ele></trkpt><trkpt lat="45.862069" lon="9.201621"><time>2024-05-04T09:09:41.000Z</time><ele>1390.6</ele></trkpt><trkpt lat="45.862069" lon="9.201621"><time>2024-05-04T09:09:42.000Z</time><ele>1390.6</ele></trkpt><trkpt lat="45.862069" lon="9.201621"><time>2024-05-04T09:09:43.000Z</time><ele>1390.6</ele></trkpt><trkpt lat="45.862069" lon="9.201621"><time>2024-05-04T09:09:44.000Z</time><ele>1390.6</ele></trkpt><trkpt lat="45.862069" lon="9.201621"><time>2024-05-04T09:09:45.000Z</time><ele>1390.6</ele></trkpt><trkpt lat="45.862069" lon="9.201621"><time>2024-05-04T09:09:46.000Z</time><ele>1390.6</ele></trkpt><trkpt lat="45.862069" lon="9.201621"><time>2024-05-04T09:09:47.000Z</time><ele>1390.6</ele></trkpt><trkpt lat="45.862069" lon="9.201621"><time>2024-05-04T09:09:48.000Z</time><ele>1390.6</ele></trkpt><trkpt lat="45.862069" lon="9.201621"><time>2024-05-04T09:09:49.000Z</time><ele>1390.6</ele></trkpt><trkpt lat="45.862069" lon="9.201621"><time>2024-05-04T09:09:50.000Z</time><ele>1390.6</ele></trkpt><trkpt lat="45.862069" lon="9.201621"><time>2024-05-04T09:09:51.000Z</time><ele>1390.6</ele></trkpt><trkpt lat="45.86207" lon="9.201621"><time>2024-05-04T09:09:52.000Z</time><ele>1390.6</ele></trkpt><trkpt lat="45.86207" lon="9.201621"><time>2024-05-04T09:09:53.000Z</time><ele>1390.6</ele></trkpt><trkpt lat="45.86207" lon="9.201621"><time>2024-05-04T09:09:54.000Z</time><ele>1390.6</ele></trkpt><trkpt lat="45.86207" lon="9.201621"><time>2024-05-04T09:09:55.000Z</time><ele>1390.6</ele></trkpt><trkpt lat="45.86207" lon="9.201621"><time>2024-05-04T09:09:56.000Z</time><ele>1390.6</ele></trkpt><trkpt lat="45.86207" lon="9.201621"><time>2024-05-04T09:09:57.000Z</time><ele>1390.6</ele></trkpt><trkpt lat="45.86207" lon="9.201621"><time>2024-05-04T09:09:58.000Z</time><ele>1390.6</ele></trkpt><trkpt lat="45.86207" lon="9.201621"><time>2024-05-04T09:09:59.000Z</time><ele>1390.6</ele></trkpt><trkpt lat="45.86207" lon="9.201621"><time>2024-05-04T09:10:00.000Z</time><ele>1390.6</ele></trkpt><trkpt lat="45.86207" lon="9.201621"><time>2024-05-04T09:10:01.000Z</time><ele>1390.6</ele></trkpt><trkpt lat="45.86207" lon="9.201621"><time>2024-05-04T09:10:02.000Z</time><ele>1390.6</ele></trkpt><trkpt lat="45.86207" lon="9.201622"><time>2024-05-04T09:10:03.000Z</time><ele>1390.6</ele></trkpt><trkpt lat="45.86207" lon="9.201622"><time>2024-05-04T09:10:04.000Z</time><ele>1390.6</ele></trkpt><trkpt lat="45.86207" lon="9.201622"><time>2024-05-04T09:10:05.000Z</time><ele>1390.6</ele></trkpt><trkpt lat="45.86207" lon="9.201622"><time>2024-05-04T09:10:06.000Z</time><ele>1390.6</ele></trkpt><trkpt lat="45.86207" lon="9.201622"><time>2024-05-04T09:10:07.000Z</time><ele>1390.6</ele></trkpt><trkpt lat="45.86207" lon="9.201622"><time>2024-05-04T09:10:08.000Z</time><ele>1390.6</ele></trkpt><trkpt lat="45.86207" lon="9.201622"><time>2024-05-04T09:10:09.000Z</time><ele>1390.6</ele></trkpt><trkpt lat="45.86207" lon="9.201622"><time>2024-05-04T09:10:10.000Z</time><ele>1390.6</ele></trkpt><trkpt lat="45.86207" lon="9.201622"><time>2024-05-04T09:10:11.000Z</time><ele>1390.6</ele></trkpt><trkpt lat="45.86207" lon="9.201622"><time>2024-05-04T09:10:12.000Z</time><ele>1390.6</ele></trkpt><trkpt lat="45.86207" lon="9.201622"><time>2024-05-04T09:10:13.000Z</time><ele>1390.6</ele></trkpt><trkpt lat="45.86207" lon="9.201622"><time>2024-05-04T09:10:14.000Z</time><ele>1390.6</ele></trkpt><trkpt lat="45.86207" lon="9.201622"><time>2024-05-04T09:10:15.000Z</time><ele>1390.6</ele></trkpt><trkpt lat="45.86207" lon="9.201622"><time>2024-05-04T09:10:16.000Z</time><ele>1390.6</ele></trkpt><trkpt lat="45.86207" lon="9.201622"><time>2024-05-04T09:10:17.000Z</time><ele>1390.6</ele></trkpt><trkpt lat="45.86207" lon="9.201622"><time>2024-05-04T09:10:18.000Z</time><ele>1390.6</ele></trkpt><trkpt lat="45.86207" lon="9.201622"><time>2024-05-04T09:10:19.000Z</time><ele>1390.6</ele></trkpt><trkpt lat="45.86207" lon="9.201622"><time>2024-05-04T09:10:20.000Z</time><ele>1390.6</ele></trkpt><trkpt lat="45.86207" lon="9.201622"><time>2024-05-04T09:10:21.000Z</time><ele>1390.6</ele></trkpt><trkpt lat="45.86207" lon="9.201622"><time>2024-05-04T09:10:22.000Z</time><ele>1390.6</ele></trkpt><trkpt lat="45.86207" lon="9.201622"><time>2024-05-04T09:10:23.000Z</time><ele>1390.6</ele></trkpt><trkpt lat="45.86207" lon="9.201622"><time>2024-05-04T09:10:24.000Z</time><ele>1390.6</ele></trkpt><trkpt lat="45.86207" lon="9.201622"><time>2024-05-04T09:10:25.000Z</time><ele>1390.6</ele></trkpt><trkpt lat="45.86207" lon="9.201622"><time>2024-05-04T09:10:26.000Z</time><ele>1390.6</ele></trkpt><trkpt lat="45.86207" lon="9.201622"><time>2024-05-04T09:10:27.000Z</time><ele>1390.6</ele></trkpt><trkpt lat="45.86207" lon="9.201622"><time>2024-05-04T09:10:28.000Z</time><ele>1390.6</ele></trkpt><trkpt lat="45.862071" lon="9.201622"><time>2024-05-04T09:10:29.000Z</time><ele>1390.6</ele></trkpt><trkpt lat="45.862071" lon="9.201622"><time>2024-05-04T09:10:30.000Z</time><ele>1390.6</ele></trkpt><trkpt lat="45.862071" lon="9.201622"><time>2024-05-04T09:10:31.000Z</time><ele>1390.6</ele></trkpt><trkpt lat="45.862071" lon="9.201622"><time>2024-05-04T09:10:32.000Z</time><ele>1390.6</ele></trkpt><trkpt lat="45.862071" lon="9.201622"><time>2024-05-04T09:10:33.000Z</time><ele>1390.6</ele></trkpt><trkpt lat="45.862071" lon="9.201622"><time>2024-05-04T09:10:34.000Z</time><ele>1390.6</ele></trkpt><trkpt lat="45.862071" lon="9.201622"><time>2024-05-04T09:10:35.000Z</time><ele>1390.6</ele></trkpt><trkpt lat="45.862071" lon="9.201622"><time>2024-05-04T09:10:36.000Z</time><ele>1390.6</ele></trkpt><trkpt lat="45.862071" lon="9.201622"><time>2024-05-04T09:10:37.000Z</time><ele>1390.6</ele></trkpt><trkpt lat="45.862071" lon="9.201622"><time>2024-05-04T09:10:38.000Z</time><ele>1390.6</ele></trkpt><trkpt lat="45.862071" lon="9.201622"><time>2024-05-04T09:10:39.000Z</time><ele>1390.6</ele></trkpt><trkpt lat="45.862071" lon="9.201622"><time>2024-05-04T09:10:40.000Z</time><ele>1390.6</ele></trkpt><trkpt lat="45.862071" lon="9.201622"><time>2024-05-04T09:10:41.000Z</time><ele>1390.6</ele></trkpt><trkpt lat="45.862071" lon="9.201622"><time>2024-05-04T09:10:42.000Z</time><ele>1390.6</ele></trkpt><trkpt lat="45.862071" lon="9.201622"><time>2024-05-04T09:10:43.000Z</time><ele>1390.6</ele></trkpt><trkpt lat="45.862071" lon="9.201622"><time>2024-05-04T09:10:44.000Z</time><ele>1390.6</ele></trkpt><trkpt lat="45.862071" lon="9.201622"><time>2024-05-04T09:10:45.000Z</time><ele>1390.6</ele></trkpt><trkpt lat="45.862071" lon="9.201622"><time>2024-05-04T09:10:46.000Z</time><ele>1390.6</ele></trkpt><trkpt lat="45.862071" lon="9.201622"><time>2024-05-04T09:10:47.000Z</time><ele>1390.6</ele></trkpt><trkpt lat="45.862071" lon="9.201622"><time>2024-05-04T09:10:48.000Z</time><ele>1390.6</ele></trkpt><trkpt lat="45.862071" lon="9.201622"><time>2024-05-04T09:10:49.000Z</time><ele>1390.6</ele></trkpt><trkpt lat="45.862071" lon="9.201622"><time>2024-05-04T09:10:50.000Z</time><ele>1390.6</ele></trkpt><trkpt lat="45.862071" lon="9.201622"><time>2024-05-04T09:10:51.000Z</time><ele>1390.6</ele></trkpt><trkpt lat="45.862072" lon="9.201622"><time>2024-05-04T09:10:52.000Z</time><ele>1390.6</ele></trkpt><trkpt lat="45.862072" lon="9.201622"><time>2024-05-04T09:10:53.000Z</time><ele>1390.6</ele></trkpt><trkpt lat="45.862072" lon="9.201622"><time>2024-05-04T09:10:54.000Z</time><ele>1390.6</ele></trkpt><trkpt lat="45.862072" lon="9.201622"><time>2024-05-04T09:10:55.000Z</time><ele>1390.6</ele></trkpt><trkpt lat="45.862072" lon="9.201622"><time>2024-05-04T09:10:56.000Z</time><ele>1390.6</ele></trkpt><trkpt lat="45.862072" lon="9.201622"><time>2024-05-04T09:10:57.000Z</time><ele>1390.6</ele></trkpt><trkpt lat="45.862071" lon="9.201622"><time>2024-05-04T09:10:58.000Z</time><ele>1390.6</ele></trkpt><trkpt lat="45.862071" lon="9.201622"><time>2024-05-04T09:10:59.000Z</time><ele>1390.6</ele></trkpt><trkpt lat="45.862071" lon="9.201622"><time>2024-05-04T09:11:00.000Z</time><ele>1390.6</ele></trkpt><trkpt lat="45.862071" lon="9.201622"><time>2024-05-04T09:11:01.000Z</time><ele>1390.6</ele></trkpt><trkpt lat="45.862071" lon="9.201622"><time>2024-05-04T09:11:02.000Z</time><ele>1390.6</ele></trkpt><trkpt lat="45.862071" lon="9.201622"><time>2024-05-04T09:11:03.000Z</time><ele>1390.6</ele></trkpt><trkpt lat="45.862071" lon="9.201622"><time>2024-05-04T09:11:04.000Z</time><ele>1390.6</ele></trkpt><trkpt lat="45.862071" lon="9.201622"><time>2024-05-04T09:11:05.000Z</time><ele>1390.6</ele></trkpt><trkpt lat="45.862071" lon="9.201622"><time>2024-05-04T09:11:06.000Z</time><ele>1390.6</ele></trkpt><trkpt lat="45.862071" lon="9.201622"><time>2024-05-04T09:11:07.000Z</time><ele>1390.6</ele></trkpt><trkpt lat="45.862071" lon="9.201622"><time>2024-05-04T09:11:08.000Z</time><ele>1390.6</ele></trkpt><trkpt lat="45.862071" lon="9.201622"><time>2024-05-04T09:11:09.000Z</time><ele>1390.6</ele></trkpt><trkpt lat="45.862071" lon="9.201622"><time>2024-05-04T09:11:10.000Z</time><ele>1390.6</ele></trkpt><trkpt lat="45.862071" lon="9.201622"><time>2024-05-04T09:11:11.000Z</time><ele>1390.6</ele></trkpt><trkpt lat="45.862071" lon="9.201622"><time>2024-05-04T09:11:12.000Z</time><ele>1390.6</ele></trkpt><trkpt lat="45.862071" lon="9.201622"><time>2024-05-04T09:11:13.000Z</time><ele>1390.6</ele></trkpt><trkpt lat="45.862071" lon="9.201622"><time>2024-05-04T09:11:14.000Z</time><ele>1390.6</ele></trkpt><trkpt lat="45.862071" lon="9.201622"><time>2024-05-04T09:11:15.000Z</time><ele>1390.6</ele></trkpt><trkpt lat="45.862071" lon="9.201622"><time>2024-05-04T09:11:16.000Z</time><ele>1390.6</ele></trkpt><trkpt lat="45.862071" lon="9.201622"><time>2024-05-04T09:11:17.000Z</time><ele>1390.6</ele></trkpt><trkpt lat="45.862071" lon="9.201622"><time>2024-05-04T09:11:18.000Z</time><ele>1390.6</ele></trkpt><trkpt lat="45.862071" lon="9.201622"><time>2024-05-04T09:11:19.000Z</time><ele>1390.6</ele></trkpt><trkpt lat="45.862071" lon="9.201622"><time>2024-05-04T09:11:20.000Z</time><ele>1390.6</ele></trkpt><trkpt lat="45.862071" lon="9.201622"><time>2024-05-04T09:11:21.000Z</time><ele>1390.6</ele></trkpt><trkpt lat="45.862071" lon="9.201622"><time>2024-05-04T09:11:22.000Z</time><ele>1390.6</ele></trkpt><trkpt lat="45.862071" lon="9.201622"><time>2024-05-04T09:11:23.000Z</time><ele>1390.6</ele></trkpt><trkpt lat="45.862071" lon="9.201622"><time>2024-05-04T09:11:24.000Z</time><ele>1390.6</ele></trkpt><trkpt lat="45.862071" lon="9.201622"><time>2024-05-04T09:11:25.000Z</time><ele>1390.6</ele></trkpt><trkpt lat="45.862071" lon="9.201622"><time>2024-05-04T09:11:26.000Z</time><ele>1390.6</ele></trkpt><trkpt lat="45.862071" lon="9.201622"><time>2024-05-04T09:11:27.000Z</time><ele>1390.6</ele></trkpt><trkpt lat="45.862071" lon="9.201622"><time>2024-05-04T09:11:28.000Z</time><ele>1390.6</ele></trkpt><trkpt lat="45.862071" lon="9.201622"><time>2024-05-04T09:11:29.000Z</time><ele>1390.6</ele></trkpt><trkpt lat="45.862071" lon="9.201622"><time>2024-05-04T09:11:30.000Z</time><ele>1390.6</ele></trkpt><trkpt lat="45.862071" lon="9.201622"><time>2024-05-04T09:11:31.000Z</time><ele>1390.6</ele></trkpt><trkpt lat="45.862071" lon="9.201622"><time>2024-05-04T09:11:32.000Z</time><ele>1390.6</ele></trkpt><trkpt lat="45.862071" lon="9.201622"><time>2024-05-04T09:11:33.000Z</time><ele>1390.6</ele></trkpt><trkpt lat="45.862071" lon="9.201622"><time>2024-05-04T09:11:34.000Z</time><ele>1390.6</ele></trkpt><trkpt lat="45.862071" lon="9.201622"><time>2024-05-04T09:11:35.000Z</time><ele>1390.6</ele></trkpt><trkpt lat="45.862071" lon="9.201622"><time>2024-05-04T09:11:36.000Z</time><ele>1390.6</ele></trkpt><trkpt lat="45.862071" lon="9.201622"><time>2024-05-04T09:11:37.000Z</time><ele>1390.6</ele></trkpt><trkpt lat="45.862071" lon="9.201622"><time>2024-05-04T09:11:38.000Z</time><ele>1390.6</ele></trkpt><trkpt lat="45.862072" lon="9.201622"><time>2024-05-04T09:11:39.000Z</time><ele>1390.6</ele></trkpt><trkpt lat="45.862072" lon="9.201622"><time>2024-05-04T09:11:40.000Z</time><ele>1390.6</ele></trkpt><trkpt lat="45.862072" lon="9.201622"><time>2024-05-04T09:11:41.000Z</time><ele>1390.6</ele></trkpt><trkpt lat="45.862072" lon="9.201622"><time>2024-05-04T09:11:42.000Z</time><ele>1390.6</ele></trkpt><trkpt lat="45.862072" lon="9.201622"><time>2024-05-04T09:11:43.000Z</time><ele>1390.6</ele></trkpt><trkpt lat="45.862072" lon="9.201622"><time>2024-05-04T09:11:44.000Z</time><ele>1390.6</ele></trkpt><trkpt lat="45.862072" lon="9.201622"><time>2024-05-04T09:11:45.000Z</time><ele>1390.6</ele></trkpt><trkpt lat="45.862072" lon="9.201622"><time>2024-05-04T09:11:46.000Z</time><ele>1390.6</ele></trkpt><trkpt lat="45.862072" lon="9.201622"><time>2024-05-04T09:11:47.000Z</time><ele>1390.6</ele></trkpt><trkpt lat="45.862072" lon="9.201623"><time>2024-05-04T09:11:48.000Z</time><ele>1390.6</ele></trkpt><trkpt lat="45.862072" lon="9.201623"><time>2024-05-04T09:11:49.000Z</time><ele>1390.6</ele></trkpt><trkpt lat="45.862072" lon="9.201623"><time>2024-05-04T09:11:50.000Z</time><ele>1390.6</ele></trkpt><trkpt lat="45.862072" lon="9.201623"><time>2024-05-04T09:11:51.000Z</time><ele>1390.6</ele></trkpt><trkpt lat="45.862072" lon="9.201623"><time>2024-05-04T09:11:52.000Z</time><ele>1390.6</ele></trkpt><trkpt lat="45.862072" lon="9.201623"><time>2024-05-04T09:11:53.000Z</time><ele>1390.6</ele></trkpt><trkpt lat="45.862072" lon="9.201623"><time>2024-05-04T09:11:54.000Z</time><ele>1390.6</ele></trkpt><trkpt lat="45.862072" lon="9.201623"><time>2024-05-04T09:11:55.000Z</time><ele>1390.6</ele></trkpt><trkpt lat="45.862072" lon="9.201623"><time>2024-05-04T09:11:56.000Z</time><ele>1390.6</ele></trkpt><trkpt lat="45.862072" lon="9.201623"><time>2024-05-04T09:11:57.000Z</time><ele>1390.6</ele></trkpt><trkpt lat="45.862072" lon="9.201623"><time>2024-05-04T09:11:58.000Z</time><ele>1390.6</ele></trkpt><trkpt lat="45.862072" lon="9.201623"><time>2024-05-04T09:11:59.000Z</time><ele>1390.6</ele></trkpt><trkpt lat="45.862072" lon="9.201623"><time>2024-05-04T09:12:00.000Z</time><ele>1390.6</ele></trkpt><trkpt lat="45.862072" lon="9.201623"><time>2024-05-04T09:12:01.000Z</time><ele>1390.6</ele></trkpt><trkpt lat="45.862072" lon="9.201623"><time>2024-05-04T09:12:02.000Z</time><ele>1390.6</ele></trkpt><trkpt lat="45.862072" lon="9.201623"><time>2024-05-04T09:12:03.000Z</time><ele>1390.6</ele></trkpt><trkpt lat="45.862072" lon="9.201623"><time>2024-05-04T09:12:04.000Z</time><ele>1390.6</ele></trkpt><trkpt lat="45.862072" lon="9.201623"><time>2024-05-04T09:12:05.000Z</time><ele>1390.6</ele></trkpt><trkpt lat="45.862072" lon="9.201623"><time>2024-05-04T09:12:06.000Z</time><ele>1390.6</ele></trkpt><trkpt lat="45.862072" lon="9.201623"><time>2024-05-04T09:12:07.000Z</time><ele>1390.6</ele></trkpt><trkpt lat="45.862072" lon="9.201623"><time>2024-05-04T09:12:08.000Z</time><ele>1390.6</ele></trkpt><trkpt lat="45.862072" lon="9.201623"><time>2024-05-04T09:12:09.000Z</time><ele>1390.6</ele></trkpt><trkpt lat="45.862072" lon="9.201623"><time>2024-05-04T09:12:10.000Z</time><ele>1390.6</ele></trkpt><trkpt lat="45.862072" lon="9.201623"><time>2024-05-04T09:12:11.000Z</time><ele>1390.6</ele></trkpt><trkpt lat="45.862072" lon="9.201623"><time>2024-05-04T09:12:12.000Z</time><ele>1390.6</ele></trkpt><trkpt lat="45.862072" lon="9.201624"><time>2024-05-04T09:12:13.000Z</time><ele>1390.6</ele></trkpt><trkpt lat="45.862072" lon="9.201624"><time>2024-05-04T09:12:14.000Z</time><ele>1390.6</ele></trkpt><trkpt lat="45.862072" lon="9.201624"><time>2024-05-04T09:12:15.000Z</time><ele>1390.6</ele></trkpt><trkpt lat="45.862072" lon="9.201624"><time>2024-05-04T09:12:16.000Z</time><ele>1390.6</ele></trkpt><trkpt lat="45.862072" lon="9.201624"><time>2024-05-04T09:12:17.000Z</time><ele>1390.6</ele></trkpt><trkpt lat="45.862072" lon="9.201624"><time>2024-05-04T09:12:18.000Z</time><ele>1390.6</ele></trkpt><trkpt lat="45.862072" lon="9.201624"><time>2024-05-04T09:12:19.000Z</time><ele>1390.6</ele></trkpt><trkpt lat="45.862072" lon="9.201624"><time>2024-05-04T09:12:20.000Z</time><ele>1390.6</ele></trkpt><trkpt lat="45.862072" lon="9.201624"><time>2024-05-04T09:12:21.000Z</time><ele>1390.6</ele></trkpt><trkpt lat="45.862072" lon="9.201624"><time>2024-05-04T09:12:22.000Z</time><ele>1390.6</ele></trkpt><trkpt lat="45.862072" lon="9.201624"><time>2024-05-04T09:12:23.000Z</time><ele>1390.6</ele></trkpt><trkpt lat="45.862072" lon="9.201624"><time>2024-05-04T09:12:24.000Z</time><ele>1390.6</ele></trkpt><trkpt lat="45.862072" lon="9.201624"><time>2024-05-04T09:12:25.000Z</time><ele>1390.6</ele></trkpt><trkpt lat="45.862072" lon="9.201624"><time>2024-05-04T09:12:26.000Z</time><ele>1390.6</ele></trkpt><trkpt lat="45.862072" lon="9.201624"><time>2024-05-04T09:12:27.000Z</time><ele>1390.6</ele></trkpt><trkpt lat="45.862072" lon="9.201624"><time>2024-05-04T09:12:28.000Z</time><ele>1390.6</ele></trkpt><trkpt lat="45.862072" lon="9.201624"><time>2024-05-04T09:12:29.000Z</time><ele>1390.6</ele></trkpt><trkpt lat="45.862072" lon="9.201624"><time>2024-05-04T09:12:30.000Z</time><ele>1390.6</ele></trkpt><trkpt lat="45.862072" lon="9.201624"><time>2024-05-04T09:12:31.000Z</time><ele>1390.6</ele></trkpt><trkpt lat="45.862072" lon="9.201624"><time>2024-05-04T09:12:32.000Z</time><ele>1390.6</ele></trkpt><trkpt lat="45.862073" lon="9.201624"><time>2024-05-04T09:12:33.000Z</time><ele>1390.6</ele></trkpt><trkpt lat="45.862073" lon="9.201624"><time>2024-05-04T09:12:34.000Z</time><ele>1390.6</ele></trkpt><trkpt lat="45.862073" lon="9.201624"><time>2024-05-04T09:12:35.000Z</time><ele>1390.6</ele></trkpt><trkpt lat="45.862073" lon="9.201624"><time>2024-05-04T09:12:36.000Z</time><ele>1390.6</ele></trkpt><trkpt lat="45.862073" lon="9.201624"><time>2024-05-04T09:12:37.000Z</time><ele>1390.6</ele></trkpt><trkpt lat="45.862073" lon="9.201624"><time>2024-05-04T09:12:38.000Z</time><ele>1390.6</ele></trkpt><trkpt lat="45.862073" lon="9.201624"><time>2024-05-04T09:12:39.000Z</time><ele>1390.6</ele></trkpt><trkpt lat="45.862073" lon="9.201625"><time>2024-05-04T09:12:40.000Z</time><ele>1390.6</ele></trkpt><trkpt lat="45.862073" lon="9.201625"><time>2024-05-04T09:12:41.000Z</time><ele>1390.6</ele></trkpt><trkpt lat="45.862073" lon="9.201625"><time>2024-05-04T09:12:42.000Z</time><ele>1390.6</ele></trkpt><trkpt lat="45.862073" lon="9.201625"><time>2024-05-04T09:12:43.000Z</time><ele>1390.6</ele></trkpt><trkpt lat="45.862073" lon="9.201625"><time>2024-05-04T09:12:44.000Z</time><ele>1390.6</ele></trkpt><trkpt lat="45.862073" lon="9.201625"><time>2024-05-04T09:12:45.000Z</time><ele>1390.6</ele></trkpt><trkpt lat="45.862073" lon="9.201625"><time>2024-05-04T09:12:46.000Z</time><ele>1390.6</ele></trkpt><trkpt lat="45.862073" lon="9.201625"><time>2024-05-04T09:12:47.000Z</time><ele>1390.6</ele></trkpt><trkpt lat="45.862073" lon="9.201625"><time>2024-05-04T09:12:48.000Z</time><ele>1390.6</ele></trkpt><trkpt lat="45.862073" lon="9.201625"><time>2024-05-04T09:12:49.000Z</time><ele>1390.6</ele></trkpt><trkpt lat="45.862073" lon="9.201625"><time>2024-05-04T09:12:50.000Z</time><ele>1390.6</ele></trkpt><trkpt lat="45.862073" lon="9.201625"><time>2024-05-04T09:12:51.000Z</time><ele>1390.6</ele></trkpt><trkpt lat="45.862073" lon="9.201625"><time>2024-05-04T09:12:52.000Z</time><ele>1390.6</ele></trkpt><trkpt lat="45.862073" lon="9.201625"><time>2024-05-04T09:12:53.000Z</time><ele>1390.6</ele></trkpt><trkpt lat="45.862073" lon="9.201625"><time>2024-05-04T09:12:54.000Z</time><ele>1390.6</ele></trkpt><trkpt lat="45.862073" lon="9.201625"><time>2024-05-04T09:12:55.000Z</time><ele>1390.6</ele></trkpt><trkpt lat="45.862073" lon="9.201625"><time>2024-05-04T09:12:56.000Z</time><ele>1390.6</ele></trkpt><trkpt lat="45.862073" lon="9.201625"><time>2024-05-04T09:12:57.000Z</time><ele>1390.6</ele></trkpt><trkpt lat="45.862073" lon="9.201625"><time>2024-05-04T09:12:58.000Z</time><ele>1390.6</ele></trkpt><trkpt lat="45.862072" lon="9.201625"><time>2024-05-04T09:12:59.000Z</time><ele>1390.6</ele></trkpt><trkpt lat="45.862072" lon="9.201625"><time>2024-05-04T09:13:00.000Z</time><ele>1390.6</ele></trkpt><trkpt lat="45.862072" lon="9.201625"><time>2024-05-04T09:13:01.000Z</time><ele>1390.6</ele></trkpt><trkpt lat="45.862072" lon="9.201625"><time>2024-05-04T09:13:02.000Z</time><ele>1390.6</ele></trkpt><trkpt lat="45.862072" lon="9.201625"><time>2024-05-04T09:13:03.000Z</time><ele>1390.6</ele></trkpt><trkpt lat="45.862072" lon="9.201625"><time>2024-05-04T09:13:04.000Z</time><ele>1390.6</ele></trkpt><trkpt lat="45.862072" lon="9.201625"><time>2024-05-04T09:13:05.000Z</time><ele>1390.6</ele></trkpt><trkpt lat="45.862072" lon="9.201625"><time>2024-05-04T09:13:06.000Z</time><ele>1390.6</ele></trkpt><trkpt lat="45.862072" lon="9.201625"><time>2024-05-04T09:13:07.000Z</time><ele>1390.6</ele></trkpt><trkpt lat="45.862072" lon="9.201625"><time>2024-05-04T09:13:08.000Z</time><ele>1390.6</ele></trkpt><trkpt lat="45.862072" lon="9.201625"><time>2024-05-04T09:13:09.000Z</time><ele>1390.6</ele></trkpt><trkpt lat="45.862072" lon="9.201625"><time>2024-05-04T09:13:10.000Z</time><ele>1390.6</ele></trkpt><trkpt lat="45.862072" lon="9.201625"><time>2024-05-04T09:13:11.000Z</time><ele>1390.6</ele></trkpt><trkpt lat="45.862073" lon="9.201625"><time>2024-05-04T09:13:12.000Z</time><ele>1390.6</ele></trkpt><trkpt lat="45.862073" lon="9.201625"><time>2024-05-04T09:13:13.000Z</time><ele>1390.6</ele></trkpt><trkpt lat="45.862073" lon="9.201625"><time>2024-05-04T09:13:14.000Z</time><ele>1390.6</ele></trkpt><trkpt lat="45.862073" lon="9.201625"><time>2024-05-04T09:13:15.000Z</time><ele>1390.6</ele></trkpt><trkpt lat="45.862073" lon="9.201625"><time>2024-05-04T09:13:16.000Z</time><ele>1390.6</ele></trkpt><trkpt lat="45.862073" lon="9.201625"><time>2024-05-04T09:13:17.000Z</time><ele>1390.6</ele></trkpt><trkpt lat="45.862073" lon="9.201625"><time>2024-05-04T09:13:18.000Z</time><ele>1390.6</ele></trkpt><trkpt lat="45.862073" lon="9.201625"><time>2024-05-04T09:13:19.000Z</time><ele>1390.6</ele></trkpt><trkpt lat="45.862073" lon="9.201625"><time>2024-05-04T09:13:20.000Z</time><ele>1390.6</ele></trkpt><trkpt lat="45.862073" lon="9.201625"><time>2024-05-04T09:13:21.000Z</time><ele>1390.6</ele></trkpt><trkpt lat="45.862073" lon="9.201625"><time>2024-05-04T09:13:22.000Z</time><ele>1390.6</ele></trkpt><trkpt lat="45.862073" lon="9.201626"><time>2024-05-04T09:13:23.000Z</time><ele>1390.6</ele></trkpt><trkpt lat="45.862073" lon="9.201626"><time>2024-05-04T09:13:24.000Z</time><ele>1390.6</ele></trkpt><trkpt lat="45.862073" lon="9.201626"><time>2024-05-04T09:13:25.000Z</time><ele>1390.6</ele></trkpt><trkpt lat="45.862073" lon="9.201626"><time>2024-05-04T09:13:26.000Z</time><ele>1390.6</ele></trkpt><trkpt lat="45.862073" lon="9.201626"><time>2024-05-04T09:13:27.000Z</time><ele>1390.6</ele></trkpt><trkpt lat="45.862073" lon="9.201626"><time>2024-05-04T09:13:28.000Z</time><ele>1390.6</ele></trkpt><trkpt lat="45.862073" lon="9.201626"><time>2024-05-04T09:13:29.000Z</time><ele>1390.6</ele></trkpt><trkpt lat="45.862073" lon="9.201626"><time>2024-05-04T09:13:30.000Z</time><ele>1390.6</ele></trkpt><trkpt lat="45.862073" lon="9.201626"><time>2024-05-04T09:13:31.000Z</time><ele>1390.6</ele></trkpt><trkpt lat="45.862073" lon="9.201626"><time>2024-05-04T09:13:32.000Z</time><ele>1390.6</ele></trkpt><trkpt lat="45.862073" lon="9.201626"><time>2024-05-04T09:13:33.000Z</time><ele>1390.6</ele></trkpt><trkpt lat="45.862073" lon="9.201626"><time>2024-05-04T09:13:34.000Z</time><ele>1390.6</ele></trkpt><trkpt lat="45.862073" lon="9.201626"><time>2024-05-04T09:13:35.000Z</time><ele>1390.6</ele></trkpt><trkpt lat="45.862073" lon="9.201626"><time>2024-05-04T09:13:36.000Z</time><ele>1390.6</ele></trkpt><trkpt lat="45.862073" lon="9.201626"><time>2024-05-04T09:13:37.000Z</time><ele>1390.6</ele></trkpt><trkpt lat="45.862073" lon="9.201626"><time>2024-05-04T09:13:38.000Z</time><ele>1390.6</ele></trkpt><trkpt lat="45.862073" lon="9.201626"><time>2024-05-04T09:13:39.000Z</time><ele>1390.6</ele></trkpt><trkpt lat="45.862073" lon="9.201626"><time>2024-05-04T09:13:40.000Z</time><ele>1390.6</ele></trkpt><trkpt lat="45.862073" lon="9.201626"><time>2024-05-04T09:13:41.000Z</time><ele>1390.6</ele></trkpt><trkpt lat="45.862073" lon="9.201626"><time>2024-05-04T09:13:42.000Z</time><ele>1390.6</ele></trkpt><trkpt lat="45.862073" lon="9.201626"><time>2024-05-04T09:13:43.000Z</time><ele>1390.6</ele></trkpt><trkpt lat="45.862073" lon="9.201626"><time>2024-05-04T09:13:44.000Z</time><ele>1390.6</ele></trkpt><trkpt lat="45.862073" lon="9.201626"><time>2024-05-04T09:13:45.000Z</time><ele>1390.6</ele></trkpt><trkpt lat="45.862073" lon="9.201626"><time>2024-05-04T09:13:46.000Z</time><ele>1390.6</ele></trkpt><trkpt lat="45.862073" lon="9.201626"><time>2024-05-04T09:13:47.000Z</time><ele>1390.6</ele></trkpt><trkpt lat="45.862073" lon="9.201626"><time>2024-05-04T09:13:48.000Z</time><ele>1390.6</ele></trkpt><trkpt lat="45.862073" lon="9.201626"><time>2024-05-04T09:13:49.000Z</time><ele>1390.6</ele></trkpt><trkpt lat="45.862073" lon="9.201626"><time>2024-05-04T09:13:50.000Z</time><ele>1390.6</ele></trkpt><trkpt lat="45.862073" lon="9.201626"><time>2024-05-04T09:13:51.000Z</time><ele>1390.6</ele></trkpt><trkpt lat="45.862073" lon="9.201626"><time>2024-05-04T09:13:52.000Z</time><ele>1390.6</ele></trkpt><trkpt lat="45.862073" lon="9.201626"><time>2024-05-04T09:13:53.000Z</time><ele>1390.6</ele></trkpt><trkpt lat="45.862073" lon="9.201626"><time>2024-05-04T09:13:54.000Z</time><ele>1390.6</ele></trkpt><trkpt lat="45.862073" lon="9.201626"><time>2024-05-04T09:13:55.000Z</time><ele>1390.6</ele></trkpt><trkpt lat="45.862073" lon="9.201626"><time>2024-05-04T09:13:56.000Z</time><ele>1390.6</ele></trkpt><trkpt lat="45.862073" lon="9.201626"><time>2024-05-04T09:13:57.000Z</time><ele>1390.6</ele></trkpt><trkpt lat="45.862073" lon="9.201626"><time>2024-05-04T09:13:58.000Z</time><ele>1390.6</ele></trkpt><trkpt lat="45.862073" lon="9.201626"><time>2024-05-04T09:13:59.000Z</time><ele>1390.6</ele></trkpt><trkpt lat="45.862073" lon="9.201626"><time>2024-05-04T09:14:00.000Z</time><ele>1390.6</ele></trkpt><trkpt lat="45.862073" lon="9.201626"><time>2024-05-04T09:14:01.000Z</time><ele>1390.6</ele></trkpt><trkpt lat="45.862073" lon="9.201626"><time>2024-05-04T09:14:02.000Z</time><ele>1390.6</ele></trkpt><trkpt lat="45.862073" lon="9.201626"><time>2024-05-04T09:14:03.000Z</time><ele>1390.6</ele></trkpt><trkpt lat="45.862073" lon="9.201626"><time>2024-05-04T09:14:04.000Z</time><ele>1390.6</ele></trkpt><trkpt lat="45.862073" lon="9.201626"><time>2024-05-04T09:14:05.000Z</time><ele>1390.6</ele></trkpt><trkpt lat="45.862073" lon="9.201626"><time>2024-05-04T09:14:06.000Z</time><ele>1390.6</ele></trkpt><trkpt lat="45.862073" lon="9.201626"><time>2024-05-04T09:14:07.000Z</time><ele>1390.6</ele></trkpt><trkpt lat="45.862073" lon="9.201626"><time>2024-05-04T09:14:08.000Z</time><ele>1390.6</ele></trkpt><trkpt lat="45.862073" lon="9.201626"><time>2024-05-04T09:14:09.000Z</time><ele>1390.6</ele></trkpt><trkpt lat="45.862073" lon="9.201626"><time>2024-05-04T09:14:10.000Z</time><ele>1390.6</ele></trkpt><trkpt lat="45.862073" lon="9.201627"><time>2024-05-04T09:14:11.000Z</time><ele>1390.6</ele></trkpt><trkpt lat="45.862073" lon="9.201627"><time>2024-05-04T09:14:12.000Z</time><ele>1390.6</ele></trkpt><trkpt lat="45.862073" lon="9.201627"><time>2024-05-04T09:14:13.000Z</time><ele>1390.6</ele></trkpt><trkpt lat="45.862073" lon="9.201627"><time>2024-05-04T09:14:14.000Z</time><ele>1390.6</ele></trkpt><trkpt lat="45.862073" lon="9.201627"><time>2024-05-04T09:14:15.000Z</time><ele>1390.6</ele></trkpt><trkpt lat="45.862073" lon="9.201627"><time>2024-05-04T09:14:16.000Z</time><ele>1390.6</ele></trkpt><trkpt lat="45.862073" lon="9.201627"><time>2024-05-04T09:14:17.000Z</time><ele>1390.6</ele></trkpt><trkpt lat="45.862073" lon="9.201627"><time>2024-05-04T09:14:18.000Z</time><ele>1390.6</ele></trkpt><trkpt lat="45.862073" lon="9.201627"><time>2024-05-04T09:14:19.000Z</time><ele>1390.6</ele></trkpt><trkpt lat="45.862073" lon="9.201627"><time>2024-05-04T09:14:20.000Z</time><ele>1390.6</ele></trkpt><trkpt lat="45.862073" lon="9.201627"><time>2024-05-04T09:14:21.000Z</time><ele>1390.6</ele></trkpt><trkpt lat="45.862073" lon="9.201627"><time>2024-05-04T09:14:22.000Z</time><ele>1390.6</ele></trkpt><trkpt lat="45.862073" lon="9.201627"><time>2024-05-04T09:14:23.000Z</time><ele>1390.6</ele></trkpt><trkpt lat="45.862073" lon="9.201627"><time>2024-05-04T09:14:24.000Z</time><ele>1390.6</ele></trkpt><trkpt lat="45.862073" lon="9.201627"><time>2024-05-04T09:14:25.000Z</time><ele>1390.6</ele></trkpt><trkpt lat="45.862073" lon="9.201627"><time>2024-05-04T09:14:26.000Z</time><ele>1390.6</ele></trkpt><trkpt lat="45.862073" lon="9.201627"><time>2024-05-04T09:14:27.000Z</time><ele>1390.6</ele></trkpt><trkpt lat="45.862073" lon="9.201627"><time>2024-05-04T09:14:28.000Z</time><ele>1390.6</ele></trkpt><trkpt lat="45.862073" lon="9.201627"><time>2024-05-04T09:14:29.000Z</time><ele>1390.6</ele></trkpt><trkpt lat="45.862073" lon="9.201627"><time>2024-05-04T09:14:30.000Z</time><ele>1390.6</ele></trkpt><trkpt lat="45.862073" lon="9.201627"><time>2024-05-04T09:14:31.000Z</time><ele>1390.6</ele></trkpt><trkpt lat="45.862073" lon="9.201627"><time>2024-05-04T09:14:32.000Z</time><ele>1390.6</ele></trkpt><trkpt lat="45.862073" lon="9.201627"><time>2024-05-04T09:14:33.000Z</time><ele>1390.6</ele></trkpt><trkpt lat="45.862073" lon="9.201627"><time>2024-05-04T09:14:34.000Z</time><ele>1390.6</ele></trkpt><trkpt lat="45.862073" lon="9.201627"><time>2024-05-04T09:14:35.000Z</time><ele>1390.6</ele></trkpt><trkpt lat="45.862073" lon="9.201627"><time>2024-05-04T09:14:36.000Z</time><ele>1390.6</ele></trkpt><trkpt lat="45.862073" lon="9.201627"><time>2024-05-04T09:14:37.000Z</time><ele>1390.6</ele></trkpt><trkpt lat="45.862073" lon="9.201627"><time>2024-05-04T09:14:38.000Z</time><ele>1390.6</ele></trkpt><trkpt lat="45.862073" lon="9.201627"><time>2024-05-04T09:14:39.000Z</time><ele>1390.6</ele></trkpt><trkpt lat="45.862073" lon="9.201627"><time>2024-05-04T09:14:40.000Z</time><ele>1390.6</ele></trkpt><trkpt lat="45.862073" lon="9.201627"><time>2024-05-04T09:14:41.000Z</time><ele>1390.6</ele></trkpt><trkpt lat="45.862073" lon="9.201627"><time>2024-05-04T09:14:42.000Z</time><ele>1390.6</ele></trkpt><trkpt lat="45.862073" lon="9.201627"><time>2024-05-04T09:14:43.000Z</time><ele>1390.6</ele></trkpt><trkpt lat="45.862073" lon="9.201627"><time>2024-05-04T09:14:44.000Z</time><ele>1390.6</ele></trkpt><trkpt lat="45.862073" lon="9.201627"><time>2024-05-04T09:14:45.000Z</time><ele>1390.6</ele></trkpt><trkpt lat="45.862073" lon="9.201627"><time>2024-05-04T09:14:46.000Z</time><ele>1390.6</ele></trkpt><trkpt lat="45.862073" lon="9.201627"><time>2024-05-04T09:14:47.000Z</time><ele>1390.6</ele></trkpt><trkpt lat="45.862073" lon="9.201627"><time>2024-05-04T09:14:48.000Z</time><ele>1390.6</ele></trkpt><trkpt lat="45.862073" lon="9.201627"><time>2024-05-04T09:14:49.000Z</time><ele>1390.6</ele></trkpt><trkpt lat="45.862073" lon="9.201627"><time>2024-05-04T09:14:50.000Z</time><ele>1390.6</ele></trkpt><trkpt lat="45.862073" lon="9.201627"><time>2024-05-04T09:14:51.000Z</time><ele>1390.6</ele></trkpt><trkpt lat="45.862073" lon="9.201627"><time>2024-05-04T09:14:52.000Z</time><ele>1390.6</ele></trkpt><trkpt lat="45.862073" lon="9.201627"><time>2024-05-04T09:14:53.000Z</time><ele>1390.6</ele></trkpt><trkpt lat="45.862073" lon="9.201627"><time>2024-05-04T09:14:54.000Z</time><ele>1390.6</ele></trkpt><trkpt lat="45.862073" lon="9.201627"><time>2024-05-04T09:14:55.000Z</time><ele>1390.6</ele></trkpt><trkpt lat="45.862067" lon="9.201628"><time>2024-05-04T09:14:56.000Z</time><ele>1390.6</ele></trkpt><trkpt lat="45.862053" lon="9.201632"><time>2024-05-04T09:14:57.000Z</time><ele>1390.6</ele></trkpt><trkpt lat="45.86204" lon="9.201633"><time>2024-05-04T09:14:58.000Z</time><ele>1390.6</ele></trkpt><trkpt lat="45.862025" lon="9.201632"><time>2024-05-04T09:14:59.000Z</time><ele>1390.6</ele></trkpt><trkpt lat="45.862011" lon="9.201635"><time>2024-05-04T09:15:00.000Z</time><ele>1390.6</ele></trkpt><trkpt lat="45.861995" lon="9.20164"><time>2024-05-04T09:15:01.000Z</time><ele>1390.6</ele></trkpt><trkpt lat="45.861981" lon="9.201647"><time>2024-05-04T09:15:02.000Z</time><ele>1390.6</ele></trkpt><trkpt lat="45.861962" lon="9.201656"><time>2024-05-04T09:15:03.000Z</time><ele>1390.6</ele></trkpt><trkpt lat="45.861948" lon="9.201658"><time>2024-05-04T09:15:04.000Z</time><ele>1390.6</ele></trkpt><trkpt lat="45.861932" lon="9.201664"><time>2024-05-04T09:15:05.000Z</time><ele>1390.6</ele></trkpt><trkpt lat="45.861928" lon="9.201667"><time>2024-05-04T09:15:06.000Z</time><ele>1390.6</ele></trkpt><trkpt lat="45.861924" lon="9.201668"><time>2024-05-04T09:15:07.000Z</time><ele>1390.6</ele></trkpt><trkpt lat="45.861922" lon="9.201669"><time>2024-05-04T09:15:08.000Z</time><ele>1390.6</ele></trkpt><trkpt lat="45.86192" lon="9.201668"><time>2024-05-04T09:15:09.000Z</time><ele>1390.6</ele></trkpt><trkpt lat="45.861918" lon="9.201667"><time>2024-05-04T09:15:10.000Z</time><ele>1390.6</ele></trkpt><trkpt lat="45.861919" lon="9.201665"><time>2024-05-04T09:15:11.000Z</time><ele>1390.6</ele></trkpt><trkpt lat="45.86192" lon="9.201664"><time>2024-05-04T09:15:12.000Z</time><ele>1390.6</ele></trkpt><trkpt lat="45.861921" lon="9.201664"><time>2024-05-04T09:15:13.000Z</time><ele>1390.6</ele></trkpt><trkpt lat="45.861921" lon="9.201664"><time>2024-05-04T09:15:14.000Z</time><ele>1390.6</ele></trkpt><trkpt lat="45.861922" lon="9.201664"><time>2024-05-04T09:15:15.000Z</time><ele>1390.6</ele></trkpt><trkpt lat="45.861923" lon="9.201665"><time>2024-05-04T09:15:16.000Z</time><ele>1390.6</ele></trkpt><trkpt lat="45.861924" lon="9.201666"><time>2024-05-04T09:15:17.000Z</time><ele>1390.6</ele></trkpt><trkpt lat="45.861926" lon="9.201671"><time>2024-05-04T09:15:18.000Z</time><ele>1390.6</ele></trkpt><trkpt lat="45.861926" lon="9.201672"><time>2024-05-04T09:15:19.000Z</time><ele>1390.6</ele></trkpt><trkpt lat="45.861924" lon="9.201671"><time>2024-05-04T09:15:20.000Z</time><ele>1390.6</ele></trkpt><trkpt lat="45.861923" lon="9.201671"><time>2024-05-04T09:15:21.000Z</time><ele>1390.6</ele></trkpt><trkpt lat="45.861923" lon="9.201671"><time>2024-05-04T09:15:22.000Z</time><ele>1390.6</ele></trkpt><trkpt lat="45.861923" lon="9.201671"><time>2024-05-04T09:15:23.000Z</time><ele>1390.6</ele></trkpt><trkpt lat="45.861923" lon="9.201671"><time>2024-05-04T09:15:24.000Z</time><ele>1390.6</ele></trkpt><trkpt lat="45.861923" lon="9.201671"><time>2024-05-04T09:15:25.000Z</time><ele>1390.6</ele></trkpt><trkpt lat="45.861923" lon="9.201671"><time>2024-05-04T09:15:26.000Z</time><ele>1390.6</ele></trkpt><trkpt lat="45.861923" lon="9.201671"><time>2024-05-04T09:15:27.000Z</time><ele>1390.6</ele></trkpt><trkpt lat="45.861923" lon="9.201671"><time>2024-05-04T09:15:28.000Z</time><ele>1390.6</ele></trkpt><trkpt lat="45.861923" lon="9.201671"><time>2024-05-04T09:15:29.000Z</time><ele>1390.6</ele></trkpt><trkpt lat="45.861923" lon="9.201671"><time>2024-05-04T09:15:30.000Z</time><ele>1390.6</ele></trkpt><trkpt lat="45.861923" lon="9.201671"><time>2024-05-04T09:15:31.000Z</time><ele>1390.6</ele></trkpt><trkpt lat="45.861923" lon="9.201671"><time>2024-05-04T09:15:32.000Z</time><ele>1390.6</ele></trkpt><trkpt lat="45.861924" lon="9.20167"><time>2024-05-04T09:15:33.000Z</time><ele>1390.6</ele></trkpt><trkpt lat="45.861924" lon="9.201668"><time>2024-05-04T09:15:34.000Z</time><ele>1390.6</ele></trkpt><trkpt lat="45.861924" lon="9.201666"><time>2024-05-04T09:15:35.000Z</time><ele>1390.6</ele></trkpt><trkpt lat="45.861926" lon="9.201666"><time>2024-05-04T09:15:36.000Z</time><ele>1390.6</ele></trkpt><trkpt lat="45.861926" lon="9.201666"><time>2024-05-04T09:15:37.000Z</time><ele>1390.6</ele></trkpt><trkpt lat="45.861926" lon="9.201666"><time>2024-05-04T09:15:38.000Z</time><ele>1390.6</ele></trkpt><trkpt lat="45.861928" lon="9.201666"><time>2024-05-04T09:15:39.000Z</time><ele>1390.6</ele></trkpt><trkpt lat="45.861931" lon="9.201666"><time>2024-05-04T09:15:40.000Z</time><ele>1390.6</ele></trkpt><trkpt lat="45.861933" lon="9.201665"><time>2024-05-04T09:15:41.000Z</time><ele>1390.6</ele></trkpt><trkpt lat="45.861934" lon="9.201665"><time>2024-05-04T09:15:42.000Z</time><ele>1390.6</ele></trkpt><trkpt lat="45.861936" lon="9.201665"><time>2024-05-04T09:15:43.000Z</time><ele>1390.6</ele></trkpt><trkpt lat="45.861936" lon="9.201665"><time>2024-05-04T09:15:44.000Z</time><ele>1390.6</ele></trkpt><trkpt lat="45.861937" lon="9.201665"><time>2024-05-04T09:15:45.000Z</time><ele>1390.6</ele></trkpt><trkpt lat="45.861937" lon="9.201665"><time>2024-05-04T09:15:46.000Z</time><ele>1390.6</ele></trkpt><trkpt lat="45.861938" lon="9.201665"><time>2024-05-04T09:15:47.000Z</time><ele>1390.6</ele></trkpt><trkpt lat="45.861939" lon="9.201665"><time>2024-05-04T09:15:48.000Z</time><ele>1390.6</ele></trkpt><trkpt lat="45.861939" lon="9.201665"><time>2024-05-04T09:15:49.000Z</time><ele>1390.6</ele></trkpt><trkpt lat="45.86194" lon="9.201664"><time>2024-05-04T09:15:50.000Z</time><ele>1390.6</ele></trkpt><trkpt lat="45.86194" lon="9.201663"><time>2024-05-04T09:15:51.000Z</time><ele>1390.6</ele></trkpt><trkpt lat="45.861941" lon="9.201663"><time>2024-05-04T09:15:52.000Z</time><ele>1390.6</ele></trkpt><trkpt lat="45.861943" lon="9.201663"><time>2024-05-04T09:15:53.000Z</time><ele>1390.6</ele></trkpt><trkpt lat="45.861944" lon="9.201663"><time>2024-05-04T09:15:54.000Z</time><ele>1390.6</ele></trkpt><trkpt lat="45.861946" lon="9.201663"><time>2024-05-04T09:15:55.000Z</time><ele>1390.6</ele></trkpt><trkpt lat="45.861948" lon="9.201663"><time>2024-05-04T09:15:56.000Z</time><ele>1390.6</ele></trkpt><trkpt lat="45.86195" lon="9.201663"><time>2024-05-04T09:15:57.000Z</time><ele>1390.6</ele></trkpt><trkpt lat="45.861951" lon="9.201663"><time>2024-05-04T09:15:58.000Z</time><ele>1390.6</ele></trkpt><trkpt lat="45.861952" lon="9.201663"><time>2024-05-04T09:15:59.000Z</time><ele>1390.6</ele></trkpt><trkpt lat="45.861952" lon="9.201663"><time>2024-05-04T09:16:00.000Z</time><ele>1390.6</ele></trkpt><trkpt lat="45.861952" lon="9.201663"><time>2024-05-04T09:16:01.000Z</time><ele>1390.6</ele></trkpt><trkpt lat="45.861953" lon="9.201663"><time>2024-05-04T09:16:02.000Z</time><ele>1390.6</ele></trkpt><trkpt lat="45.861954" lon="9.201664"><time>2024-05-04T09:16:03.000Z</time><ele>1390.6</ele></trkpt><trkpt lat="45.861957" lon="9.201664"><time>2024-05-04T09:16:04.000Z</time><ele>1390.6</ele></trkpt><trkpt lat="45.86196" lon="9.201665"><time>2024-05-04T09:16:05.000Z</time><ele>1390.6</ele></trkpt><trkpt lat="45.861964" lon="9.201665"><time>2024-05-04T09:16:06.000Z</time><ele>1390.6</ele></trkpt><trkpt lat="45.861969" lon="9.201669"><time>2024-05-04T09:16:07.000Z</time><ele>1390.6</ele></trkpt><trkpt lat="45.861973" lon="9.201677"><time>2024-05-04T09:16:08.000Z</time><ele>1390.6</ele></trkpt><trkpt lat="45.861977" lon="9.201685"><time>2024-05-04T09:16:09.000Z</time><ele>1390.6</ele></trkpt><trkpt lat="45.861982" lon="9.20169"><time>2024-05-04T09:16:10.000Z</time><ele>1390.6</ele></trkpt><trkpt lat="45.861984" lon="9.201692"><time>2024-05-04T09:16:11.000Z</time><ele>1390.6</ele></trkpt><trkpt lat="45.861987" lon="9.201695"><time>2024-05-04T09:16:12.000Z</time><ele>1390.6</ele></trkpt><trkpt lat="45.862" lon="9.201703"><time>2024-05-04T09:16:13.000Z</time><ele>1390.6</ele></trkpt><trkpt lat="45.862012" lon="9.201711"><time>2024-05-04T09:16:14.000Z</time><ele>1390.6</ele></trkpt><trkpt lat="45.862024" lon="9.20172"><time>2024-05-04T09:16:15.000Z</time><ele>1390.6</ele></trkpt><trkpt lat="45.862037" lon="9.201725"><time>2024-05-04T09:16:16.000Z</time><ele>1390.6</ele></trkpt><trkpt lat="45.862047" lon="9.20173"><time>2024-05-04T09:16:17.000Z</time><ele>1390.6</ele></trkpt><trkpt lat="45.862059" lon="9.201733"><time>2024-05-04T09:16:18.000Z</time><ele>1390.6</ele></trkpt><trkpt lat="45.862073" lon="9.201736"><time>2024-05-04T09:16:19.000Z</time><ele>1390.6</ele></trkpt><trkpt lat="45.862086" lon="9.201739"><time>2024-05-04T09:16:20.000Z</time><ele>1390.6</ele></trkpt><trkpt lat="45.862099" lon="9.201745"><time>2024-05-04T09:16:21.000Z</time><ele>1390.6</ele></trkpt><trkpt lat="45.862108" lon="9.201749"><time>2024-05-04T09:16:22.000Z</time><ele>1390.6</ele></trkpt><trkpt lat="45.862115" lon="9.201751"><time>2024-05-04T09:16:23.000Z</time><ele>1390.6</ele></trkpt><trkpt lat="45.862122" lon="9.201752"><time>2024-05-04T09:16:24.000Z</time><ele>1390.6</ele></trkpt><trkpt lat="45.862132" lon="9.201755"><time>2024-05-04T09:16:25.000Z</time><ele>1390.6</ele></trkpt><trkpt lat="45.862141" lon="9.20176"><time>2024-05-04T09:16:26.000Z</time><ele>1390.6</ele></trkpt><trkpt lat="45.862148" lon="9.201765"><time>2024-05-04T09:16:27.000Z</time><ele>1390.6</ele></trkpt><trkpt lat="45.862158" lon="9.201766"><time>2024-05-04T09:16:28.000Z</time><ele>1390.6</ele></trkpt><trkpt lat="45.862169" lon="9.201766"><time>2024-05-04T09:16:29.000Z</time><ele>1390.6</ele></trkpt><trkpt lat="45.862176" lon="9.201767"><time>2024-05-04T09:16:30.000Z</time><ele>1390.6</ele></trkpt><trkpt lat="45.862184" lon="9.201772"><time>2024-05-04T09:16:31.000Z</time><ele>1390.6</ele></trkpt><trkpt lat="45.862189" lon="9.201772"><time>2024-05-04T09:16:32.000Z</time><ele>1390.6</ele></trkpt><trkpt lat="45.862191" lon="9.201772"><time>2024-05-04T09:16:33.000Z</time><ele>1390.6</ele></trkpt><trkpt lat="45.862191" lon="9.201773"><time>2024-05-04T09:16:34.000Z</time><ele>1390.6</ele></trkpt><trkpt lat="45.86219" lon="9.201773"><time>2024-05-04T09:16:35.000Z</time><ele>1390.6</ele></trkpt><trkpt lat="45.862191" lon="9.201773"><time>2024-05-04T09:16:36.000Z</time><ele>1390.6</ele></trkpt><trkpt lat="45.862192" lon="9.201772"><time>2024-05-04T09:16:37.000Z</time><ele>1390.6</ele></trkpt><trkpt lat="45.86219" lon="9.201772"><time>2024-05-04T09:16:38.000Z</time><ele>1390.6</ele></trkpt><trkpt lat="45.862193" lon="9.201774"><time>2024-05-04T09:16:39.000Z</time><ele>1390.6</ele></trkpt><trkpt lat="45.862197" lon="9.201773"><time>2024-05-04T09:16:40.000Z</time><ele>1390.6</ele></trkpt><trkpt lat="45.862203" lon="9.201771"><time>2024-05-04T09:16:41.000Z</time><ele>1390.6</ele></trkpt><trkpt lat="45.862208" lon="9.201768"><time>2024-05-04T09:16:42.000Z</time><ele>1390.6</ele></trkpt><trkpt lat="45.86221" lon="9.201764"><time>2024-05-04T09:16:43.000Z</time><ele>1390.6</ele></trkpt><trkpt lat="45.862213" lon="9.201763"><time>2024-05-04T09:16:44.000Z</time><ele>1390.6</ele></trkpt><trkpt lat="45.862215" lon="9.201759"><time>2024-05-04T09:16:45.000Z</time><ele>1390.6</ele></trkpt><trkpt lat="45.862217" lon="9.201757"><time>2024-05-04T09:16:46.000Z</time><ele>1390.6</ele></trkpt><trkpt lat="45.862216" lon="9.201753"><time>2024-05-04T09:16:47.000Z</time><ele>1390.6</ele></trkpt><trkpt lat="45.862218" lon="9.201749"><time>2024-05-04T09:16:48.000Z</time><ele>1390.6</ele></trkpt><trkpt lat="45.862219" lon="9.201745"><time>2024-05-04T09:16:49.000Z</time><ele>1390.6</ele></trkpt><trkpt lat="45.862223" lon="9.201743"><time>2024-05-04T09:16:50.000Z</time><ele>1390.6</ele></trkpt><trkpt lat="45.862227" lon="9.201741"><time>2024-05-04T09:16:51.000Z</time><ele>1390.6</ele></trkpt><trkpt lat="45.862231" lon="9.201738"><time>2024-05-04T09:16:52.000Z</time><ele>1390.6</ele></trkpt><trkpt lat="45.862234" lon="9.201737"><time>2024-05-04T09:16:53.000Z</time><ele>1390.6</ele></trkpt><trkpt lat="45.862235" lon="9.201737"><time>2024-05-04T09:16:54.000Z</time><ele>1390.6</ele></trkpt><trkpt lat="45.862235" lon="9.201737"><time>2024-05-04T09:16:55.000Z</time><ele>1390.6</ele></trkpt><trkpt lat="45.862235" lon="9.201737"><time>2024-05-04T09:16:56.000Z</time><ele>1390.6</ele></trkpt><trkpt lat="45.862235" lon="9.201737"><time>2024-05-04T09:16:57.000Z</time><ele>1390.6</ele></trkpt><trkpt lat="45.862235" lon="9.201737"><time>2024-05-04T09:16:58.000Z</time><ele>1390.6</ele></trkpt><trkpt lat="45.862235" lon="9.201737"><time>2024-05-04T09:16:59.000Z</time><ele>1390.6</ele></trkpt><trkpt lat="45.862235" lon="9.201737"><time>2024-05-04T09:17:00.000Z</time><ele>1390.6</ele></trkpt><trkpt lat="45.862235" lon="9.201737"><time>2024-05-04T09:17:01.000Z</time><ele>1390.6</ele></trkpt><trkpt lat="45.862234" lon="9.201737"><time>2024-05-04T09:17:02.000Z</time><ele>1390.6</ele></trkpt><trkpt lat="45.862234" lon="9.201737"><time>2024-05-04T09:17:03.000Z</time><ele>1390.6</ele></trkpt><trkpt lat="45.862234" lon="9.201737"><time>2024-05-04T09:17:04.000Z</time><ele>1390.6</ele></trkpt><trkpt lat="45.862234" lon="9.201737"><time>2024-05-04T09:17:05.000Z</time><ele>1390.6</ele></trkpt><trkpt lat="45.862231" lon="9.201738"><time>2024-05-04T09:17:06.000Z</time><ele>1390.6</ele></trkpt><trkpt lat="45.86223" lon="9.201738"><time>2024-05-04T09:17:07.000Z</time><ele>1390.6</ele></trkpt><trkpt lat="45.862229" lon="9.201738"><time>2024-05-04T09:17:08.000Z</time><ele>1390.6</ele></trkpt><trkpt lat="45.862229" lon="9.201738"><time>2024-05-04T09:17:09.000Z</time><ele>1390.6</ele></trkpt><trkpt lat="45.862228" lon="9.201738"><time>2024-05-04T09:17:10.000Z</time><ele>1390.6</ele></trkpt><trkpt lat="45.862228" lon="9.201738"><time>2024-05-04T09:17:11.000Z</time><ele>1390.6</ele></trkpt><trkpt lat="45.862228" lon="9.201738"><time>2024-05-04T09:17:12.000Z</time><ele>1390.6</ele></trkpt><trkpt lat="45.862228" lon="9.201738"><time>2024-05-04T09:17:13.000Z</time><ele>1390.6</ele></trkpt><trkpt lat="45.862228" lon="9.201739"><time>2024-05-04T09:17:14.000Z</time><ele>1390.6</ele></trkpt><trkpt lat="45.862227" lon="9.201739"><time>2024-05-04T09:17:15.000Z</time><ele>1390.6</ele></trkpt><trkpt lat="45.862227" lon="9.201739"><time>2024-05-04T09:17:16.000Z</time><ele>1390.6</ele></trkpt><trkpt lat="45.862227" lon="9.201739"><time>2024-05-04T09:17:17.000Z</time><ele>1390.6</ele></trkpt><trkpt lat="45.862227" lon="9.201739"><time>2024-05-04T09:17:18.000Z</time><ele>1390.6</ele></trkpt><trkpt lat="45.862227" lon="9.201739"><time>2024-05-04T09:17:19.000Z</time><ele>1390.6</ele></trkpt><trkpt lat="45.862227" lon="9.201739"><time>2024-05-04T09:17:20.000Z</time><ele>1390.6</ele></trkpt><trkpt lat="45.862226" lon="9.201739"><time>2024-05-04T09:17:21.000Z</time><ele>1390.6</ele></trkpt><trkpt lat="45.862226" lon="9.201741"><time>2024-05-04T09:17:22.000Z</time><ele>1390.6</ele></trkpt><trkpt lat="45.862225" lon="9.201742"><time>2024-05-04T09:17:23.000Z</time><ele>1390.6</ele></trkpt><trkpt lat="45.862225" lon="9.201743"><time>2024-05-04T09:17:24.000Z</time><ele>1390.6</ele></trkpt><trkpt lat="45.862224" lon="9.201744"><time>2024-05-04T09:17:25.000Z</time><ele>1390.6</ele></trkpt><trkpt lat="45.862224" lon="9.201747"><time>2024-05-04T09:17:26.000Z</time><ele>1390.6</ele></trkpt><trkpt lat="45.862224" lon="9.201749"><time>2024-05-04T09:17:27.000Z</time><ele>1390.6</ele></trkpt><trkpt lat="45.862223" lon="9.201749"><time>2024-05-04T09:17:28.000Z</time><ele>1390.6</ele></trkpt><trkpt lat="45.862223" lon="9.201749"><time>2024-05-04T09:17:29.000Z</time><ele>1390.6</ele></trkpt><trkpt lat="45.862222" lon="9.201749"><time>2024-05-04T09:17:30.000Z</time><ele>1390.6</ele></trkpt><trkpt lat="45.862221" lon="9.20175"><time>2024-05-04T09:17:31.000Z</time><ele>1390.6</ele></trkpt><trkpt lat="45.862221" lon="9.20175"><time>2024-05-04T09:17:32.000Z</time><ele>1390.6</ele></trkpt><trkpt lat="45.862221" lon="9.20175"><time>2024-05-04T09:17:33.000Z</time><ele>1390.6</ele></trkpt><trkpt lat="45.862221" lon="9.201751"><time>2024-05-04T09:17:34.000Z</time><ele>1390.6</ele></trkpt><trkpt lat="45.862221" lon="9.201751"><time>2024-05-04T09:17:35.000Z</time><ele>1390.6</ele></trkpt><trkpt lat="45.862221" lon="9.201751"><time>2024-05-04T09:17:36.000Z</time><ele>1390.6</ele></trkpt><trkpt lat="45.862221" lon="9.201751"><time>2024-05-04T09:17:37.000Z</time><ele>1390.6</ele></trkpt><trkpt lat="45.862221" lon="9.201752"><time>2024-05-04T09:17:38.000Z</time><ele>1390.6</ele></trkpt><trkpt lat="45.862221" lon="9.201752"><time>2024-05-04T09:17:39.000Z</time><ele>1390.6</ele></trkpt><trkpt lat="45.862221" lon="9.201752"><time>2024-05-04T09:17:40.000Z</time><ele>1390.6</ele></trkpt><trkpt lat="45.862221" lon="9.201752"><time>2024-05-04T09:17:41.000Z</time><ele>1390.6</ele></trkpt><trkpt lat="45.862221" lon="9.201752"><time>2024-05-04T09:17:42.000Z</time><ele>1390.6</ele></trkpt><trkpt lat="45.862221" lon="9.201753"><time>2024-05-04T09:17:43.000Z</time><ele>1390.6</ele></trkpt><trkpt lat="45.862221" lon="9.201753"><time>2024-05-04T09:17:44.000Z</time><ele>1390.6</ele></trkpt><trkpt lat="45.862221" lon="9.201753"><time>2024-05-04T09:17:45.000Z</time><ele>1390.6</ele></trkpt><trkpt lat="45.862222" lon="9.201753"><time>2024-05-04T09:17:46.000Z</time><ele>1390.6</ele></trkpt><trkpt lat="45.862223" lon="9.201754"><time>2024-05-04T09:17:47.000Z</time><ele>1390.6</ele></trkpt><trkpt lat="45.862224" lon="9.201754"><time>2024-05-04T09:17:48.000Z</time><ele>1390.6</ele></trkpt><trkpt lat="45.862224" lon="9.201755"><time>2024-05-04T09:17:49.000Z</time><ele>1390.6</ele></trkpt><trkpt lat="45.862224" lon="9.201755"><time>2024-05-04T09:17:50.000Z</time><ele>1390.6</ele></trkpt><trkpt lat="45.862229" lon="9.201756"><time>2024-05-04T09:17:51.000Z</time><ele>1390.6</ele></trkpt><trkpt lat="45.862241" lon="9.201758"><time>2024-05-04T09:17:52.000Z</time><ele>1390.6</ele></trkpt><trkpt lat="45.862251" lon="9.201762"><time>2024-05-04T09:17:53.000Z</time><ele>1390.6</ele></trkpt><trkpt lat="45.86226" lon="9.201765"><time>2024-05-04T09:17:54.000Z</time><ele>1390.6</ele></trkpt><trkpt lat="45.862267" lon="9.201767"><time>2024-05-04T09:17:55.000Z</time><ele>1390.6</ele></trkpt><trkpt lat="45.862276" lon="9.201773"><time>2024-05-04T09:17:56.000Z</time><ele>1390.6</ele></trkpt><trkpt lat="45.862285" lon="9.201774"><time>2024-05-04T09:17:57.000Z</time><ele>1390.6</ele></trkpt><trkpt lat="45.862292" lon="9.201777"><time>2024-05-04T09:17:58.000Z</time><ele>1390.6</ele></trkpt><trkpt lat="45.8623" lon="9.201782"><time>2024-05-04T09:17:59.000Z</time><ele>1390.6</ele></trkpt><trkpt lat="45.862306" lon="9.201786"><time>2024-05-04T09:18:00.000Z</time><ele>1390.6</ele></trkpt><trkpt lat="45.862312" lon="9.201788"><time>2024-05-04T09:18:01.000Z</time><ele>1390.6</ele></trkpt><trkpt lat="45.862319" lon="9.201789"><time>2024-05-04T09:18:02.000Z</time><ele>1390.6</ele></trkpt><trkpt lat="45.862327" lon="9.201795"><time>2024-05-04T09:18:03.000Z</time><ele>1390.6</ele></trkpt><trkpt lat="45.862335" lon="9.201796"><time>2024-05-04T09:18:04.000Z</time><ele>1390.6</ele></trkpt><trkpt lat="45.862343" lon="9.201795"><time>2024-05-04T09:18:05.000Z</time><ele>1390.6</ele></trkpt><trkpt lat="45.862347" lon="9.201799"><time>2024-05-04T09:18:06.000Z</time><ele>1390.6</ele></trkpt><trkpt lat="45.86235" lon="9.201804"><time>2024-05-04T09:18:07.000Z</time><ele>1390.6</ele></trkpt><trkpt lat="45.862355" lon="9.201809"><time>2024-05-04T09:18:08.000Z</time><ele>1390.6</ele></trkpt><trkpt lat="45.86236" lon="9.201809"><time>2024-05-04T09:18:09.000Z</time><ele>1390.6</ele></trkpt><trkpt lat="45.862367" lon="9.20181"><time>2024-05-04T09:18:10.000Z</time><ele>1390.6</ele></trkpt><trkpt lat="45.862375" lon="9.201808"><time>2024-05-04T09:18:11.000Z</time><ele>1390.6</ele></trkpt><trkpt lat="45.862381" lon="9.201808"><time>2024-05-04T09:18:12.000Z</time><ele>1390.6</ele></trkpt><trkpt lat="45.862387" lon="9.201808"><time>2024-05-04T09:18:13.000Z</time><ele>1390.6</ele></trkpt><trkpt lat="45.862391" lon="9.201814"><time>2024-05-04T09:18:14.000Z</time><ele>1390.6</ele></trkpt><trkpt lat="45.862394" lon="9.201819"><time>2024-05-04T09:18:15.000Z</time><ele>1390.6</ele></trkpt><trkpt lat="45.862399" lon="9.201822"><time>2024-05-04T09:18:16.000Z</time><ele>1390.6</ele></trkpt><trkpt lat="45.862405" lon="9.201825"><time>2024-05-04T09:18:17.000Z</time><ele>1390.6</ele></trkpt><trkpt lat="45.862408" lon="9.201832"><time>2024-05-04T09:18:18.000Z</time><ele>1390.6</ele></trkpt><trkpt lat="45.862415" lon="9.201833"><time>2024-05-04T09:18:19.000Z</time><ele>1390.6</ele></trkpt><trkpt lat="45.862424" lon="9.201831"><time>2024-05-04T09:18:20.000Z</time><ele>1390.6</ele></trkpt><trkpt lat="45.86243" lon="9.20183"><time>2024-05-04T09:18:21.000Z</time><ele>1390.6</ele></trkpt><trkpt lat="45.862437" lon="9.201829"><time>2024-05-04T09:18:22.000Z</time><ele>1390.6</ele></trkpt><trkpt lat="45.862446" lon="9.201827"><time>2024-05-04T09:18:23.000Z</time><ele>1390.6</ele></trkpt><trkpt lat="45.862457" lon="9.201828"><time>2024-05-04T09:18:24.000Z</time><ele>1390.6</ele></trkpt><trkpt lat="45.862467" lon="9.201835"><time>2024-05-04T09:18:25.000Z</time><ele>1390.6</ele></trkpt><trkpt lat="45.862476" lon="9.201839"><time>2024-05-04T09:18:26.000Z</time><ele>1390.6</ele></trkpt><trkpt lat="45.862484" lon="9.201837"><time>2024-05-04T09:18:27.000Z</time><ele>1390.6</ele></trkpt><trkpt lat="45.862493" lon="9.201833"><time>2024-05-04T09:18:28.000Z</time><ele>1390.6</ele></trkpt><trkpt lat="45.862498" lon="9.201829"><time>2024-05-04T09:18:29.000Z</time><ele>1390.6</ele></trkpt><trkpt lat="45.862505" lon="9.201824"><time>2024-05-04T09:18:30.000Z</time><ele>1390.6</ele></trkpt><trkpt lat="45.862509" lon="9.201818"><time>2024-05-04T09:18:31.000Z</time><ele>1390.6</ele></trkpt><trkpt lat="45.862517" lon="9.201818"><time>2024-05-04T09:18:32.000Z</time><ele>1390.6</ele></trkpt><trkpt lat="45.862524" lon="9.201816"><time>2024-05-04T09:18:33.000Z</time><ele>1390.6</ele></trkpt><trkpt lat="45.86253" lon="9.201816"><time>2024-05-04T09:18:34.000Z</time><ele>1390.6</ele></trkpt><trkpt lat="45.862541" lon="9.201814"><time>2024-05-04T09:18:35.000Z</time><ele>1390.6</ele></trkpt><trkpt lat="45.862551" lon="9.20181"><time>2024-05-04T09:18:36.000Z</time><ele>1390.6</ele></trkpt><trkpt lat="45.862559" lon="9.201811"><time>2024-05-04T09:18:37.000Z</time><ele>1390.6</ele></trkpt><trkpt lat="45.862566" lon="9.201809"><time>2024-05-04T09:18:38.000Z</time><ele>1390.6</ele></trkpt><trkpt lat="45.862578" lon="9.201811"><time>2024-05-04T09:18:39.000Z</time><ele>1390.6</ele></trkpt><trkpt lat="45.862589" lon="9.201813"><time>2024-05-04T09:18:40.000Z</time><ele>1390.6</ele></trkpt><trkpt lat="45.8626" lon="9.201814"><time>2024-05-04T09:18:41.000Z</time><ele>1390.6</ele></trkpt><trkpt lat="45.862612" lon="9.201811"><time>2024-05-04T09:18:42.000Z</time><ele>1390.6</ele></trkpt><trkpt lat="45.862628" lon="9.201806"><time>2024-05-04T09:18:43.000Z</time><ele>1390.6</ele></trkpt><trkpt lat="45.86264" lon="9.201803"><time>2024-05-04T09:18:44.000Z</time><ele>1388.2</ele></trkpt><trkpt lat="45.86265" lon="9.201801"><time>2024-05-04T09:18:45.000Z</time><ele>1387</ele></trkpt><trkpt lat="45.862661" lon="9.2018"><time>2024-05-04T09:18:46.000Z</time><ele>1386.2</ele></trkpt><trkpt lat="45.86267" lon="9.201798"><time>2024-05-04T09:18:47.000Z</time><ele>1386</ele></trkpt><trkpt lat="45.862678" lon="9.201795"><time>2024-05-04T09:18:48.000Z</time><ele>1385.8</ele></trkpt><trkpt lat="45.862687" lon="9.201794"><time>2024-05-04T09:18:49.000Z</time><ele>1385.6</ele></trkpt><trkpt lat="45.862694" lon="9.201794"><time>2024-05-04T09:18:50.000Z</time><ele>1385.8</ele></trkpt><trkpt lat="45.862702" lon="9.201793"><time>2024-05-04T09:18:51.000Z</time><ele>1385.8</ele></trkpt><trkpt lat="45.86271" lon="9.201791"><time>2024-05-04T09:18:52.000Z</time><ele>1385.8</ele></trkpt><trkpt lat="45.86272" lon="9.201792"><time>2024-05-04T09:18:53.000Z</time><ele>1386</ele></trkpt><trkpt lat="45.862729" lon="9.201794"><time>2024-05-04T09:18:54.000Z</time><ele>1386.2</ele></trkpt><trkpt lat="45.862737" lon="9.201794"><time>2024-05-04T09:18:55.000Z</time><ele>1386.4</ele></trkpt><trkpt lat="45.862747" lon="9.201795"><time>2024-05-04T09:18:56.000Z</time><ele>1386.6</ele></trkpt><trkpt lat="45.862757" lon="9.201797"><time>2024-05-04T09:18:57.000Z</time><ele>1386.8</ele></trkpt><trkpt lat="45.862765" lon="9.201803"><time>2024-05-04T09:18:58.000Z</time><ele>1386.8</ele></trkpt><trkpt lat="45.862775" lon="9.20181"><time>2024-05-04T09:18:59.000Z</time><ele>1386.8</ele></trkpt><trkpt lat="45.862784" lon="9.201814"><time>2024-05-04T09:19:00.000Z</time><ele>1387</ele></trkpt><trkpt lat="45.862792" lon="9.201821"><time>2024-05-04T09:19:01.000Z</time><ele>1387</ele></trkpt><trkpt lat="45.8628" lon="9.201824"><time>2024-05-04T09:19:02.000Z</time><ele>1387</ele></trkpt><trkpt lat="45.862806" lon="9.201828"><time>2024-05-04T09:19:03.000Z</time><ele>1387.2</ele></trkpt><trkpt lat="45.862814" lon="9.201835"><time>2024-05-04T09:19:04.000Z</time><ele>1387.2</ele></trkpt><trkpt lat="45.862822" lon="9.201839"><time>2024-05-04T09:19:05.000Z</time><ele>1387.2</ele></trkpt><trkpt lat="45.862829" lon="9.201844"><time>2024-05-04T09:19:06.000Z</time><ele>1387.2</ele></trkpt><trkpt lat="45.862833" lon="9.201845"><time>2024-05-04T09:19:07.000Z</time><ele>1387.4</ele></trkpt><trkpt lat="45.862835" lon="9.201846"><time>2024-05-04T09:19:08.000Z</time><ele>1387.4</ele></trkpt><trkpt lat="45.862841" lon="9.201851"><time>2024-05-04T09:19:09.000Z</time><ele>1387.4</ele></trkpt><trkpt lat="45.862846" lon="9.201851"><time>2024-05-04T09:19:10.000Z</time><ele>1387.4</ele></trkpt><trkpt lat="45.862851" lon="9.201853"><time>2024-05-04T09:19:11.000Z</time><ele>1387.4</ele></trkpt><trkpt lat="45.86286" lon="9.201854"><time>2024-05-04T09:19:12.000Z</time><ele>1387.4</ele></trkpt><trkpt lat="45.862867" lon="9.201857"><time>2024-05-04T09:19:13.000Z</time><ele>1387.6</ele></trkpt><trkpt lat="45.862874" lon="9.201863"><time>2024-05-04T09:19:14.000Z</time><ele>1387.6</ele></trkpt><trkpt lat="45.862878" lon="9.201866"><time>2024-05-04T09:19:15.000Z</time><ele>1387.6</ele></trkpt><trkpt lat="45.862885" lon="9.201869"><time>2024-05-04T09:19:16.000Z</time><ele>1387.6</ele></trkpt><trkpt lat="45.862892" lon="9.201871"><time>2024-05-04T09:19:17.000Z</time><ele>1387.6</ele></trkpt><trkpt lat="45.862896" lon="9.201869"><time>2024-05-04T09:19:18.000Z</time><ele>1387.6</ele></trkpt><trkpt lat="45.862898" lon="9.201866"><time>2024-05-04T09:19:19.000Z</time><ele>1387.4</ele></trkpt><trkpt lat="45.862901" lon="9.201864"><time>2024-05-04T09:19:20.000Z</time><ele>1387.4</ele></trkpt><trkpt lat="45.862902" lon="9.201864"><time>2024-05-04T09:19:21.000Z</time><ele>1387.2</ele></trkpt><trkpt lat="45.862903" lon="9.201867"><time>2024-05-04T09:19:22.000Z</time><ele>1387.2</ele></trkpt><trkpt lat="45.862903" lon="9.201873"><time>2024-05-04T09:19:23.000Z</time><ele>1387</ele></trkpt><trkpt lat="45.862903" lon="9.201878"><time>2024-05-04T09:19:24.000Z</time><ele>1387</ele></trkpt><trkpt lat="45.862904" lon="9.20188"><time>2024-05-04T09:19:25.000Z</time><ele>1387</ele></trkpt><trkpt lat="45.862904" lon="9.201883"><time>2024-05-04T09:19:26.000Z</time><ele>1387</ele></trkpt><trkpt lat="45.862905" lon="9.201886"><time>2024-05-04T09:19:27.000Z</time><ele>1387</ele></trkpt><trkpt lat="45.862912" lon="9.201887"><time>2024-05-04T09:19:28.000Z</time><ele>1387</ele></trkpt><trkpt lat="45.862919" lon="9.201887"><time>2024-05-04T09:19:29.000Z</time><ele>1386.8</ele></trkpt><trkpt lat="45.862925" lon="9.201887"><time>2024-05-04T09:19:30.000Z</time><ele>1386.6</ele></trkpt><trkpt lat="45.862932" lon="9.201886"><time>2024-05-04T09:19:31.000Z</time><ele>1386.6</ele></trkpt><trkpt lat="45.862937" lon="9.201884"><time>2024-05-04T09:19:32.000Z</time><ele>1386.4</ele></trkpt><trkpt lat="45.862942" lon="9.201882"><time>2024-05-04T09:19:33.000Z</time><ele>1386</ele></trkpt><trkpt lat="45.862949" lon="9.201885"><time>2024-05-04T09:19:34.000Z</time><ele>1385.8</ele></trkpt><trkpt lat="45.862954" lon="9.201889"><time>2024-05-04T09:19:35.000Z</time><ele>1385.6</ele></trkpt><trkpt lat="45.86296" lon="9.201895"><time>2024-05-04T09:19:36.000Z</time><ele>1385.6</ele></trkpt><trkpt lat="45.862968" lon="9.2019"><time>2024-05-04T09:19:37.000Z</time><ele>1385.6</ele></trkpt><trkpt lat="45.862975" lon="9.201903"><time>2024-05-04T09:19:38.000Z</time><ele>1385.6</ele></trkpt><trkpt lat="45.862985" lon="9.201906"><time>2024-05-04T09:19:39.000Z</time><ele>1385.4</ele></trkpt><trkpt lat="45.862993" lon="9.201905"><time>2024-05-04T09:19:40.000Z</time><ele>1385.2</ele></trkpt><trkpt lat="45.863002" lon="9.201902"><time>2024-05-04T09:19:41.000Z</time><ele>1385</ele></trkpt><trkpt lat="45.863012" lon="9.2019"><time>2024-05-04T09:19:42.000Z</time><ele>1384.8</ele></trkpt><trkpt lat="45.863021" lon="9.201898"><time>2024-05-04T09:19:43.000Z</time><ele>1384.8</ele></trkpt><trkpt lat="45.86303" lon="9.201899"><time>2024-05-04T09:19:44.000Z</time><ele>1384.6</ele></trkpt><trkpt lat="45.86304" lon="9.201901"><time>2024-05-04T09:19:45.000Z</time><ele>1384.4</ele></trkpt><trkpt lat="45.863048" lon="9.201904"><time>2024-05-04T09:19:46.000Z</time><ele>1384.2</ele></trkpt><trkpt lat="45.863052" lon="9.201905"><time>2024-05-04T09:19:47.000Z</time><ele>1384</ele></trkpt><trkpt lat="45.863057" lon="9.201908"><time>2024-05-04T09:19:48.000Z</time><ele>1383.8</ele></trkpt><trkpt lat="45.863067" lon="9.201909"><time>2024-05-04T09:19:49.000Z</time><ele>1383.6</ele></trkpt><trkpt lat="45.863073" lon="9.20191"><time>2024-05-04T09:19:50.000Z</time><ele>1383.6</ele></trkpt><trkpt lat="45.863081" lon="9.201908"><time>2024-05-04T09:19:51.000Z</time><ele>1383.6</ele></trkpt><trkpt lat="45.863087" lon="9.201908"><time>2024-05-04T09:19:52.000Z</time><ele>1383.8</ele></trkpt><trkpt lat="45.863095" lon="9.201907"><time>2024-05-04T09:19:53.000Z</time><ele>1384</ele></trkpt><trkpt lat="45.863095" lon="9.201904"><time>2024-05-04T09:19:54.000Z</time><ele>1384</ele></trkpt><trkpt lat="45.863102" lon="9.201899"><time>2024-05-04T09:19:55.000Z</time><ele>1384.2</ele></trkpt><trkpt lat="45.863105" lon="9.201893"><time>2024-05-04T09:19:56.000Z</time><ele>1384.2</ele></trkpt><trkpt lat="45.863111" lon="9.201885"><time>2024-05-04T09:19:57.000Z</time><ele>1384.2</ele></trkpt><trkpt lat="45.863113" lon="9.201885"><time>2024-05-04T09:19:58.000Z</time><ele>1384.2</ele></trkpt><trkpt lat="45.863116" lon="9.201886"><time>2024-05-04T09:19:59.000Z</time><ele>1384.4</ele></trkpt><trkpt lat="45.863118" lon="9.201889"><time>2024-05-04T09:20:00.000Z</time><ele>1384.4</ele></trkpt><trkpt lat="45.86312" lon="9.20189"><time>2024-05-04T09:20:01.000Z</time><ele>1384.6</ele></trkpt><trkpt lat="45.863126" lon="9.201892"><time>2024-05-04T09:20:02.000Z</time><ele>1384.8</ele></trkpt><trkpt lat="45.86313" lon="9.2019"><time>2024-05-04T09:20:03.000Z</time><ele>1385</ele></trkpt><trkpt lat="45.863136" lon="9.201907"><time>2024-05-04T09:20:04.000Z</time><ele>1385</ele></trkpt><trkpt lat="45.863145" lon="9.201915"><time>2024-05-04T09:20:05.000Z</time><ele>1385</ele></trkpt><trkpt lat="45.863157" lon="9.201922"><time>2024-05-04T09:20:06.000Z</time><ele>1385.2</ele></trkpt><trkpt lat="45.863169" lon="9.201923"><time>2024-05-04T09:20:07.000Z</time><ele>1385.2</ele></trkpt><trkpt lat="45.863178" lon="9.201921"><time>2024-05-04T09:20:08.000Z</time><ele>1385.2</ele></trkpt><trkpt lat="45.863189" lon="9.201922"><time>2024-05-04T09:20:09.000Z</time><ele>1385.4</ele></trkpt><trkpt lat="45.863199" lon="9.201923"><time>2024-05-04T09:20:10.000Z</time><ele>1385.4</ele></trkpt><trkpt lat="45.863206" lon="9.201924"><time>2024-05-04T09:20:11.000Z</time><ele>1385.6</ele></trkpt><trkpt lat="45.863217" lon="9.201923"><time>2024-05-04T09:20:12.000Z</time><ele>1385.6</ele></trkpt><trkpt lat="45.863228" lon="9.20192"><time>2024-05-04T09:20:13.000Z</time><ele>1385.6</ele></trkpt><trkpt lat="45.863244" lon="9.201916"><time>2024-05-04T09:20:14.000Z</time><ele>1385.6</ele></trkpt><trkpt lat="45.863258" lon="9.201916"><time>2024-05-04T09:20:15.000Z</time><ele>1385.6</ele></trkpt><trkpt lat="45.86327" lon="9.201917"><time>2024-05-04T09:20:16.000Z</time><ele>1385.6</ele></trkpt><trkpt lat="45.86328" lon="9.201917"><time>2024-05-04T09:20:17.000Z</time><ele>1385.6</ele></trkpt><trkpt lat="45.863289" lon="9.201916"><time>2024-05-04T09:20:18.000Z</time><ele>1385.8</ele></trkpt><trkpt lat="45.863297" lon="9.201914"><time>2024-05-04T09:20:19.000Z</time><ele>1385.8</ele></trkpt><trkpt lat="45.863306" lon="9.201917"><time>2024-05-04T09:20:20.000Z</time><ele>1385.8</ele></trkpt><trkpt lat="45.863313" lon="9.201923"><time>2024-05-04T09:20:21.000Z</time><ele>1385.8</ele></trkpt><trkpt lat="45.863321" lon="9.201927"><time>2024-05-04T09:20:22.000Z</time><ele>1385.8</ele></trkpt><trkpt lat="45.863329" lon="9.201927"><time>2024-05-04T09:20:23.000Z</time><ele>1385.8</ele></trkpt><trkpt lat="45.863337" lon="9.201931"><time>2024-05-04T09:20:24.000Z</time><ele>1386</ele></trkpt><trkpt lat="45.863342" lon="9.201936"><time>2024-05-04T09:20:25.000Z</time><ele>1386</ele></trkpt><trkpt lat="45.863351" lon="9.201938"><time>2024-05-04T09:20:26.000Z</time><ele>1386</ele></trkpt><trkpt lat="45.86336" lon="9.201939"><time>2024-05-04T09:20:27.000Z</time><ele>1386.2</ele></trkpt><trkpt lat="45.863368" lon="9.201941"><time>2024-05-04T09:20:28.000Z</time><ele>1386.4</ele></trkpt><trkpt lat="45.863376" lon="9.201941"><time>2024-05-04T09:20:29.000Z</time><ele>1386.6</ele></trkpt><trkpt lat="45.863381" lon="9.201942"><time>2024-05-04T09:20:30.000Z</time><ele>1386.8</ele></trkpt><trkpt lat="45.863388" lon="9.201943"><time>2024-05-04T09:20:31.000Z</time><ele>1386.8</ele></trkpt><trkpt lat="45.863397" lon="9.201942"><time>2024-05-04T09:20:32.000Z</time><ele>1387</ele></trkpt><trkpt lat="45.863404" lon="9.201941"><time>2024-05-04T09:20:33.000Z</time><ele>1387</ele></trkpt><trkpt lat="45.863413" lon="9.201938"><time>2024-05-04T09:20:34.000Z</time><ele>1387.2</ele></trkpt><trkpt lat="45.863422" lon="9.201931"><time>2024-05-04T09:20:35.000Z</time><ele>1387.4</ele></trkpt><trkpt lat="45.863431" lon="9.201926"><time>2024-05-04T09:20:36.000Z</time><ele>1387.6</ele></trkpt><trkpt lat="45.86344" lon="9.201923"><time>2024-05-04T09:20:37.000Z</time><ele>1387.6</ele></trkpt><trkpt lat="45.863447" lon="9.201922"><time>2024-05-04T09:20:38.000Z</time><ele>1388</ele></trkpt><trkpt lat="45.863455" lon="9.201921"><time>2024-05-04T09:20:39.000Z</time><ele>1388.4</ele></trkpt><trkpt lat="45.86346" lon="9.201915"><time>2024-05-04T09:20:40.000Z</time><ele>1388.4</ele></trkpt><trkpt lat="45.863465" lon="9.201907"><time>2024-05-04T09:20:41.000Z</time><ele>1388.6</ele></trkpt><trkpt lat="45.863472" lon="9.201898"><time>2024-05-04T09:20:42.000Z</time><ele>1388.6</ele></trkpt><trkpt lat="45.86348" lon="9.201894"><time>2024-05-04T09:20:43.000Z</time><ele>1388.6</ele></trkpt><trkpt lat="45.863488" lon="9.201893"><time>2024-05-04T09:20:44.000Z</time><ele>1388.8</ele></trkpt><trkpt lat="45.863497" lon="9.201894"><time>2024-05-04T09:20:45.000Z</time><ele>1388.8</ele></trkpt><trkpt lat="45.863502" lon="9.201894"><time>2024-05-04T09:20:46.000Z</time><ele>1389</ele></trkpt><trkpt lat="45.863508" lon="9.201894"><time>2024-05-04T09:20:47.000Z</time><ele>1389</ele></trkpt><trkpt lat="45.863514" lon="9.201893"><time>2024-05-04T09:20:48.000Z</time><ele>1389.2</ele></trkpt><trkpt lat="45.863518" lon="9.201892"><time>2024-05-04T09:20:49.000Z</time><ele>1389.2</ele></trkpt><trkpt lat="45.863521" lon="9.201892"><time>2024-05-04T09:20:50.000Z</time><ele>1389.4</ele></trkpt><trkpt lat="45.863522" lon="9.201897"><time>2024-05-04T09:20:51.000Z</time><ele>1389.6</ele></trkpt><trkpt lat="45.863527" lon="9.201903"><time>2024-05-04T09:20:52.000Z</time><ele>1389.8</ele></trkpt><trkpt lat="45.863535" lon="9.201904"><time>2024-05-04T09:20:53.000Z</time><ele>1390</ele></trkpt><trkpt lat="45.863542" lon="9.201902"><time>2024-05-04T09:20:54.000Z</time><ele>1390.2</ele></trkpt><trkpt lat="45.863551" lon="9.201902"><time>2024-05-04T09:20:55.000Z</time><ele>1390.4</ele></trkpt><trkpt lat="45.863558" lon="9.2019"><time>2024-05-04T09:20:56.000Z</time><ele>1390.6</ele></trkpt><trkpt lat="45.863567" lon="9.201896"><time>2024-05-04T09:20:57.000Z</time><ele>1390.6</ele></trkpt><trkpt lat="45.863575" lon="9.201893"><time>2024-05-04T09:20:58.000Z</time><ele>1390.8</ele></trkpt><trkpt lat="45.863581" lon="9.201892"><time>2024-05-04T09:20:59.000Z</time><ele>1391</ele></trkpt><trkpt lat="45.863585" lon="9.201895"><time>2024-05-04T09:21:00.000Z</time><ele>1391.2</ele></trkpt><trkpt lat="45.86359" lon="9.201903"><time>2024-05-04T09:21:01.000Z</time><ele>1391.6</ele></trkpt><trkpt lat="45.863595" lon="9.201909"><time>2024-05-04T09:21:02.000Z</time><ele>1391.8</ele></trkpt><trkpt lat="45.8636" lon="9.201917"><time>2024-05-04T09:21:03.000Z</time><ele>1392</ele></trkpt><trkpt lat="45.863602" lon="9.201926"><time>2024-05-04T09:21:04.000Z</time><ele>1392.2</ele></trkpt><trkpt lat="45.86361" lon="9.201932"><time>2024-05-04T09:21:05.000Z</time><ele>1392.2</ele></trkpt><trkpt lat="45.863618" lon="9.201938"><time>2024-05-04T09:21:06.000Z</time><ele>1392.4</ele></trkpt><trkpt lat="45.863627" lon="9.20194"><time>2024-05-04T09:21:07.000Z</time><ele>1392.4</ele></trkpt><trkpt lat="45.863636" lon="9.201941"><time>2024-05-04T09:21:08.000Z</time><ele>1392.6</ele></trkpt><trkpt lat="45.863643" lon="9.201941"><time>2024-05-04T09:21:09.000Z</time><ele>1392.6</ele></trkpt><trkpt lat="45.86365" lon="9.201943"><time>2024-05-04T09:21:10.000Z</time><ele>1392.8</ele></trkpt><trkpt lat="45.863657" lon="9.201949"><time>2024-05-04T09:21:11.000Z</time><ele>1392.8</ele></trkpt><trkpt lat="45.863664" lon="9.201951"><time>2024-05-04T09:21:12.000Z</time><ele>1393</ele></trkpt><trkpt lat="45.863672" lon="9.201947"><time>2024-05-04T09:21:13.000Z</time><ele>1393</ele></trkpt><trkpt lat="45.863679" lon="9.201947"><time>2024-05-04T09:21:14.000Z</time><ele>1393</ele></trkpt><trkpt lat="45.863686" lon="9.201949"><time>2024-05-04T09:21:15.000Z</time><ele>1393.2</ele></trkpt><trkpt lat="45.863693" lon="9.201951"><time>2024-05-04T09:21:16.000Z</time><ele>1393.2</ele></trkpt><trkpt lat="45.863698" lon="9.201951"><time>2024-05-04T09:21:17.000Z</time><ele>1393.2</ele></trkpt><trkpt lat="45.8637" lon="9.201952"><time>2024-05-04T09:21:18.000Z</time><ele>1393.2</ele></trkpt><trkpt lat="45.863702" lon="9.201952"><time>2024-05-04T09:21:19.000Z</time><ele>1393.4</ele></trkpt><trkpt lat="45.863703" lon="9.201951"><time>2024-05-04T09:21:20.000Z</time><ele>1393.6</ele></trkpt><trkpt lat="45.863708" lon="9.201951"><time>2024-05-04T09:21:21.000Z</time><ele>1393.6</ele></trkpt><trkpt lat="45.863716" lon="9.201955"><time>2024-05-04T09:21:22.000Z</time><ele>1393.6</ele></trkpt><trkpt lat="45.863723" lon="9.201957"><time>2024-05-04T09:21:23.000Z</time><ele>1393.6</ele></trkpt><trkpt lat="45.86373" lon="9.20196"><time>2024-05-04T09:21:24.000Z</time><ele>1393.6</ele></trkpt><trkpt lat="45.86374" lon="9.201962"><time>2024-05-04T09:21:25.000Z</time><ele>1393.6</ele></trkpt><trkpt lat="45.863751" lon="9.201962"><time>2024-05-04T09:21:26.000Z</time><ele>1393.6</ele></trkpt><trkpt lat="45.863761" lon="9.201963"><time>2024-05-04T09:21:27.000Z</time><ele>1393.6</ele></trkpt><trkpt lat="45.863772" lon="9.201963"><time>2024-05-04T09:21:28.000Z</time><ele>1393.6</ele></trkpt><trkpt lat="45.863782" lon="9.201969"><time>2024-05-04T09:21:29.000Z</time><ele>1393.8</ele></trkpt><trkpt lat="45.863794" lon="9.201972"><time>2024-05-04T09:21:30.000Z</time><ele>1393.8</ele></trkpt><trkpt lat="45.863803" lon="9.201972"><time>2024-05-04T09:21:31.000Z</time><ele>1393.6</ele></trkpt><trkpt lat="45.863813" lon="9.201975"><time>2024-05-04T09:21:32.000Z</time><ele>1393.6</ele></trkpt><trkpt lat="45.863826" lon="9.201973"><time>2024-05-04T09:21:33.000Z</time><ele>1393.8</ele></trkpt><trkpt lat="45.863837" lon="9.201974"><time>2024-05-04T09:21:34.000Z</time><ele>1393.6</ele></trkpt><trkpt lat="45.863848" lon="9.201976"><time>2024-05-04T09:21:35.000Z</time><ele>1393.6</ele></trkpt><trkpt lat="45.86386" lon="9.201977"><time>2024-05-04T09:21:36.000Z</time><ele>1393.4</ele></trkpt><trkpt lat="45.863872" lon="9.201977"><time>2024-05-04T09:21:37.000Z</time><ele>1393.4</ele></trkpt><trkpt lat="45.863881" lon="9.201981"><time>2024-05-04T09:21:38.000Z</time><ele>1393.4</ele></trkpt><trkpt lat="45.863889" lon="9.201984"><time>2024-05-04T09:21:39.000Z</time><ele>1393.4</ele></trkpt><trkpt lat="45.8639" lon="9.201988"><time>2024-05-04T09:21:40.000Z</time><ele>1393.4</ele></trkpt><trkpt lat="45.86391" lon="9.201991"><time>2024-05-04T09:21:41.000Z</time><ele>1393.4</ele></trkpt><trkpt lat="45.86392" lon="9.201997"><time>2024-05-04T09:21:42.000Z</time><ele>1393.6</ele></trkpt><trkpt lat="45.863932" lon="9.201999"><time>2024-05-04T09:21:43.000Z</time><ele>1393.6</ele></trkpt><trkpt lat="45.863941" lon="9.201999"><time>2024-05-04T09:21:44.000Z</time><ele>1393.6</ele></trkpt><trkpt lat="45.86395" lon="9.201999"><time>2024-05-04T09:21:45.000Z</time><ele>1393.6</ele></trkpt><trkpt lat="45.863959" lon="9.202"><time>2024-05-04T09:21:46.000Z</time><ele>1393.6</ele></trkpt><trkpt lat="45.86397" lon="9.202001"><time>2024-05-04T09:21:47.000Z</time><ele>1393.6</ele></trkpt><trkpt lat="45.863979" lon="9.202004"><time>2024-05-04T09:21:48.000Z</time><ele>1393.6</ele></trkpt><trkpt lat="45.86399" lon="9.202005"><time>2024-05-04T09:21:49.000Z</time><ele>1393.6</ele></trkpt><trkpt lat="45.864" lon="9.202005"><time>2024-05-04T09:21:50.000Z</time><ele>1393.6</ele></trkpt><trkpt lat="45.864009" lon="9.202002"><time>2024-05-04T09:21:51.000Z</time><ele>1393.8</ele></trkpt><trkpt lat="45.864018" lon="9.201999"><time>2024-05-04T09:21:52.000Z</time><ele>1393.8</ele></trkpt><trkpt lat="45.864025" lon="9.201996"><time>2024-05-04T09:21:53.000Z</time><ele>1393.8</ele></trkpt><trkpt lat="45.864034" lon="9.201992"><time>2024-05-04T09:21:54.000Z</time><ele>1393.8</ele></trkpt><trkpt lat="45.864044" lon="9.201989"><time>2024-05-04T09:21:55.000Z</time><ele>1393.8</ele></trkpt><trkpt lat="45.864055" lon="9.201989"><time>2024-05-04T09:21:56.000Z</time><ele>1393.8</ele></trkpt><trkpt lat="45.864066" lon="9.20199"><time>2024-05-04T09:21:57.000Z</time><ele>1393.8</ele></trkpt><trkpt lat="45.864076" lon="9.20199"><time>2024-05-04T09:21:58.000Z</time><ele>1393.8</ele></trkpt><trkpt lat="45.864084" lon="9.201992"><time>2024-05-04T09:21:59.000Z</time><ele>1393.8</ele></trkpt><trkpt lat="45.864094" lon="9.201993"><time>2024-05-04T09:22:00.000Z</time><ele>1393.8</ele></trkpt><trkpt lat="45.864105" lon="9.201992"><time>2024-05-04T09:22:01.000Z</time><ele>1393.8</ele></trkpt><trkpt lat="45.864115" lon="9.201989"><time>2024-05-04T09:22:02.000Z</time><ele>1393.8</ele></trkpt><trkpt lat="45.864125" lon="9.201983"><time>2024-05-04T09:22:03.000Z</time><ele>1393.8</ele></trkpt><trkpt lat="45.864134" lon="9.201981"><time>2024-05-04T09:22:04.000Z</time><ele>1393.8</ele></trkpt><trkpt lat="45.864143" lon="9.201983"><time>2024-05-04T09:22:05.000Z</time><ele>1393.8</ele></trkpt><trkpt lat="45.864153" lon="9.201989"><time>2024-05-04T09:22:06.000Z</time><ele>1393.8</ele></trkpt><trkpt lat="45.864163" lon="9.201996"><time>2024-05-04T09:22:07.000Z</time><ele>1393.8</ele></trkpt><trkpt lat="45.864171" lon="9.202001"><time>2024-05-04T09:22:08.000Z</time><ele>1393.8</ele></trkpt><trkpt lat="45.864177" lon="9.202005"><time>2024-05-04T09:22:09.000Z</time><ele>1393.8</ele></trkpt><trkpt lat="45.864184" lon="9.202011"><time>2024-05-04T09:22:10.000Z</time><ele>1394</ele></trkpt><trkpt lat="45.864196" lon="9.202016"><time>2024-05-04T09:22:11.000Z</time><ele>1394</ele></trkpt><trkpt lat="45.864205" lon="9.202018"><time>2024-05-04T09:22:12.000Z</time><ele>1394</ele></trkpt><trkpt lat="45.864214" lon="9.202019"><time>2024-05-04T09:22:13.000Z</time><ele>1394</ele></trkpt><trkpt lat="45.864222" lon="9.202018"><time>2024-05-04T09:22:14.000Z</time><ele>1394</ele></trkpt><trkpt lat="45.864227" lon="9.202016"><time>2024-05-04T09:22:15.000Z</time><ele>1394</ele></trkpt><trkpt lat="45.864233" lon="9.202009"><time>2024-05-04T09:22:16.000Z</time><ele>1394</ele></trkpt><trkpt lat="45.86424" lon="9.202005"><time>2024-05-04T09:22:17.000Z</time><ele>1394</ele></trkpt><trkpt lat="45.864247" lon="9.202005"><time>2024-05-04T09:22:18.000Z</time><ele>1394</ele></trkpt><trkpt lat="45.864255" lon="9.202002"><time>2024-05-04T09:22:19.000Z</time><ele>1394</ele></trkpt><trkpt lat="45.86426" lon="9.201999"><time>2024-05-04T09:22:20.000Z</time><ele>1394.2</ele></trkpt><trkpt lat="45.864266" lon="9.201995"><time>2024-05-04T09:22:21.000Z</time><ele>1394.2</ele></trkpt><trkpt lat="45.864273" lon="9.201993"><time>2024-05-04T09:22:22.000Z</time><ele>1394.4</ele></trkpt><trkpt lat="45.864281" lon="9.201994"><time>2024-05-04T09:22:23.000Z</time><ele>1394.4</ele></trkpt><trkpt lat="45.864286" lon="9.201996"><time>2024-05-04T09:22:24.000Z</time><ele>1394.6</ele></trkpt><trkpt lat="45.86429" lon="9.201997"><time>2024-05-04T09:22:25.000Z</time><ele>1394.6</ele></trkpt><trkpt lat="45.864295" lon="9.201998"><time>2024-05-04T09:22:26.000Z</time><ele>1394.6</ele></trkpt><trkpt lat="45.8643" lon="9.202"><time>2024-05-04T09:22:27.000Z</time><ele>1394.6</ele></trkpt><trkpt lat="45.864307" lon="9.201999"><time>2024-05-04T09:22:28.000Z</time><ele>1394.8</ele></trkpt><trkpt lat="45.864318" lon="9.202002"><time>2024-05-04T09:22:29.000Z</time><ele>1394.8</ele></trkpt><trkpt lat="45.864326" lon="9.202003"><time>2024-05-04T09:22:30.000Z</time><ele>1394.6</ele></trkpt><trkpt lat="45.864335" lon="9.202005"><time>2024-05-04T09:22:31.000Z</time><ele>1394.6</ele></trkpt><trkpt lat="45.864348" lon="9.202007"><time>2024-05-04T09:22:32.000Z</time><ele>1394.6</ele></trkpt><trkpt lat="45.864361" lon="9.202011"><time>2024-05-04T09:22:33.000Z</time><ele>1394.6</ele></trkpt><trkpt lat="45.864372" lon="9.202012"><time>2024-05-04T09:22:34.000Z</time><ele>1394.6</ele></trkpt><trkpt lat="45.864381" lon="9.202011"><time>2024-05-04T09:22:35.000Z</time><ele>1394.4</ele></trkpt><trkpt lat="45.864391" lon="9.20201"><time>2024-05-04T09:22:36.000Z</time><ele>1394.4</ele></trkpt><trkpt lat="45.864401" lon="9.20201"><time>2024-05-04T09:22:37.000Z</time><ele>1394.4</ele></trkpt><trkpt lat="45.864407" lon="9.202014"><time>2024-05-04T09:22:38.000Z</time><ele>1394.4</ele></trkpt><trkpt lat="45.864415" lon="9.202019"><time>2024-05-04T09:22:39.000Z</time><ele>1394.4</ele></trkpt><trkpt lat="45.864424" lon="9.202021"><time>2024-05-04T09:22:40.000Z</time><ele>1394.4</ele></trkpt><trkpt lat="45.864435" lon="9.202021"><time>2024-05-04T09:22:41.000Z</time><ele>1394.4</ele></trkpt><trkpt lat="45.864447" lon="9.202018"><time>2024-05-04T09:22:42.000Z</time><ele>1394.4</ele></trkpt><trkpt lat="45.864456" lon="9.202019"><time>2024-05-04T09:22:43.000Z</time><ele>1394.4</ele></trkpt><trkpt lat="45.864466" lon="9.202021"><time>2024-05-04T09:22:44.000Z</time><ele>1394.4</ele></trkpt><trkpt lat="45.864473" lon="9.202025"><time>2024-05-04T09:22:45.000Z</time><ele>1394.4</ele></trkpt><trkpt lat="45.864479" lon="9.202031"><time>2024-05-04T09:22:46.000Z</time><ele>1394.4</ele></trkpt><trkpt lat="45.864486" lon="9.20203"><time>2024-05-04T09:22:47.000Z</time><ele>1394.4</ele></trkpt><trkpt lat="45.864497" lon="9.202028"><time>2024-05-04T09:22:48.000Z</time><ele>1394.4</ele></trkpt><trkpt lat="45.864509" lon="9.202028"><time>2024-05-04T09:22:49.000Z</time><ele>1394.2</ele></trkpt><trkpt lat="45.864518" lon="9.202026"><time>2024-05-04T09:22:50.000Z</time><ele>1394.2</ele></trkpt><trkpt lat="45.864527" lon="9.202022"><time>2024-05-04T09:22:51.000Z</time><ele>1394.2</ele></trkpt><trkpt lat="45.864535" lon="9.20202"><time>2024-05-04T09:22:52.000Z</time><ele>1394.2</ele></trkpt><trkpt lat="45.864543" lon="9.202018"><time>2024-05-04T09:22:53.000Z</time><ele>1394.2</ele></trkpt><trkpt lat="45.864552" lon="9.202013"><time>2024-05-04T09:22:54.000Z</time><ele>1394.2</ele></trkpt><trkpt lat="45.864561" lon="9.202005"><time>2024-05-04T09:22:55.000Z</time><ele>1394.2</ele></trkpt><trkpt lat="45.864571" lon="9.202"><time>2024-05-04T09:22:56.000Z</time><ele>1394</ele></trkpt><trkpt lat="45.86458" lon="9.201998"><time>2024-05-04T09:22:57.000Z</time><ele>1394</ele></trkpt><trkpt lat="45.864586" lon="9.201994"><time>2024-05-04T09:22:58.000Z</time><ele>1394</ele></trkpt><trkpt lat="45.864595" lon="9.20199"><time>2024-05-04T09:22:59.000Z</time><ele>1394</ele></trkpt><trkpt lat="45.864601" lon="9.201991"><time>2024-05-04T09:23:00.000Z</time><ele>1394</ele></trkpt><trkpt lat="45.864613" lon="9.20199"><time>2024-05-04T09:23:01.000Z</time><ele>1393.8</ele></trkpt><trkpt lat="45.864618" lon="9.201989"><time>2024-05-04T09:23:02.000Z</time><ele>1393.6</ele></trkpt><trkpt lat="45.864629" lon="9.201989"><time>2024-05-04T09:23:03.000Z</time><ele>1393.6</ele></trkpt><trkpt lat="45.864636" lon="9.201985"><time>2024-05-04T09:23:04.000Z</time><ele>1393.6</ele></trkpt><trkpt lat="45.864642" lon="9.201983"><time>2024-05-04T09:23:05.000Z</time><ele>1393.6</ele></trkpt><trkpt lat="45.864644" lon="9.201986"><time>2024-05-04T09:23:06.000Z</time><ele>1393.4</ele></trkpt><trkpt lat="45.864649" lon="9.20199"><time>2024-05-04T09:23:07.000Z</time><ele>1393.4</ele></trkpt><trkpt lat="45.864655" lon="9.201991"><time>2024-05-04T09:23:08.000Z</time><ele>1393.2</ele></trkpt><trkpt lat="45.864658" lon="9.201991"><time>2024-05-04T09:23:09.000Z</time><ele>1393.2</ele></trkpt><trkpt lat="45.86466" lon="9.201993"><time>2024-05-04T09:23:10.000Z</time><ele>1393.2</ele></trkpt><trkpt lat="45.864661" lon="9.201993"><time>2024-05-04T09:23:11.000Z</time><ele>1393.2</ele></trkpt><trkpt lat="45.864661" lon="9.201992"><time>2024-05-04T09:23:12.000Z</time><ele>1393.2</ele></trkpt><trkpt lat="45.864661" lon="9.201992"><time>2024-05-04T09:23:13.000Z</time><ele>1393.2</ele></trkpt><trkpt lat="45.864661" lon="9.201992"><time>2024-05-04T09:23:14.000Z</time><ele>1393.2</ele></trkpt><trkpt lat="45.864661" lon="9.201992"><time>2024-05-04T09:23:15.000Z</time><ele>1393.2</ele></trkpt><trkpt lat="45.864661" lon="9.201992"><time>2024-05-04T09:23:16.000Z</time><ele>1393.2</ele></trkpt><trkpt lat="45.864662" lon="9.201992"><time>2024-05-04T09:23:17.000Z</time><ele>1393.4</ele></trkpt><trkpt lat="45.864662" lon="9.201992"><time>2024-05-04T09:23:18.000Z</time><ele>1393.4</ele></trkpt><trkpt lat="45.864662" lon="9.201992"><time>2024-05-04T09:23:19.000Z</time><ele>1393.4</ele></trkpt><trkpt lat="45.864662" lon="9.201992"><time>2024-05-04T09:23:20.000Z</time><ele>1393.4</ele></trkpt><trkpt lat="45.864662" lon="9.201992"><time>2024-05-04T09:23:21.000Z</time><ele>1393.4</ele></trkpt><trkpt lat="45.864662" lon="9.201992"><time>2024-05-04T09:23:22.000Z</time><ele>1393.4</ele></trkpt><trkpt lat="45.864662" lon="9.201992"><time>2024-05-04T09:23:23.000Z</time><ele>1393.2</ele></trkpt><trkpt lat="45.864662" lon="9.201992"><time>2024-05-04T09:23:24.000Z</time><ele>1393</ele></trkpt><trkpt lat="45.864662" lon="9.201992"><time>2024-05-04T09:23:25.000Z</time><ele>1393</ele></trkpt><trkpt lat="45.864662" lon="9.201992"><time>2024-05-04T09:23:26.000Z</time><ele>1392.8</ele></trkpt><trkpt lat="45.864662" lon="9.201992"><time>2024-05-04T09:23:27.000Z</time><ele>1392.8</ele></trkpt><trkpt lat="45.864662" lon="9.201992"><time>2024-05-04T09:23:28.000Z</time><ele>1392.8</ele></trkpt><trkpt lat="45.864662" lon="9.201992"><time>2024-05-04T09:23:29.000Z</time><ele>1392.8</ele></trkpt><trkpt lat="45.864662" lon="9.201992"><time>2024-05-04T09:23:30.000Z</time><ele>1392.8</ele></trkpt><trkpt lat="45.864662" lon="9.201992"><time>2024-05-04T09:23:31.000Z</time><ele>1392.8</ele></trkpt><trkpt lat="45.864662" lon="9.201992"><time>2024-05-04T09:23:32.000Z</time><ele>1392.8</ele></trkpt><trkpt lat="45.864662" lon="9.201992"><time>2024-05-04T09:23:33.000Z</time><ele>1392.6</ele></trkpt><trkpt lat="45.864663" lon="9.201993"><time>2024-05-04T09:23:34.000Z</time><ele>1392.6</ele></trkpt><trkpt lat="45.864664" lon="9.201993"><time>2024-05-04T09:23:35.000Z</time><ele>1392.6</ele></trkpt><trkpt lat="45.864668" lon="9.201996"><time>2024-05-04T09:23:36.000Z</time><ele>1392.6</ele></trkpt><trkpt lat="45.864673" lon="9.202001"><time>2024-05-04T09:23:37.000Z</time><ele>1392.4</ele></trkpt><trkpt lat="45.864676" lon="9.202001"><time>2024-05-04T09:23:38.000Z</time><ele>1392.2</ele></trkpt><trkpt lat="45.864677" lon="9.202002"><time>2024-05-04T09:23:39.000Z</time><ele>1392.2</ele></trkpt><trkpt lat="45.864678" lon="9.202002"><time>2024-05-04T09:23:40.000Z</time><ele>1392</ele></trkpt><trkpt lat="45.864679" lon="9.202002"><time>2024-05-04T09:23:41.000Z</time><ele>1392</ele></trkpt><trkpt lat="45.864679" lon="9.202003"><time>2024-05-04T09:23:42.000Z</time><ele>1392</ele></trkpt><trkpt lat="45.864679" lon="9.202004"><time>2024-05-04T09:23:43.000Z</time><ele>1392.2</ele></trkpt><trkpt lat="45.86468" lon="9.202006"><time>2024-05-04T09:23:44.000Z</time><ele>1392.2</ele></trkpt><trkpt lat="45.86468" lon="9.202007"><time>2024-05-04T09:23:45.000Z</time><ele>1392.2</ele></trkpt><trkpt lat="45.864681" lon="9.202008"><time>2024-05-04T09:23:46.000Z</time><ele>1392.2</ele></trkpt><trkpt lat="45.864683" lon="9.20201"><time>2024-05-04T09:23:47.000Z</time><ele>1392.2</ele></trkpt><trkpt lat="45.864688" lon="9.20201"><time>2024-05-04T09:23:48.000Z</time><ele>1392.2</ele></trkpt><trkpt lat="45.864693" lon="9.20201"><time>2024-05-04T09:23:49.000Z</time><ele>1392.2</ele></trkpt><trkpt lat="45.864694" lon="9.202011"><time>2024-05-04T09:23:50.000Z</time><ele>1392.2</ele></trkpt><trkpt lat="45.864694" lon="9.202011"><time>2024-05-04T09:23:51.000Z</time><ele>1392.2</ele></trkpt><trkpt lat="45.864694" lon="9.202011"><time>2024-05-04T09:23:52.000Z</time><ele>1392.4</ele></trkpt><trkpt lat="45.864694" lon="9.202011"><time>2024-05-04T09:23:53.000Z</time><ele>1392.4</ele></trkpt><trkpt lat="45.864694" lon="9.202011"><time>2024-05-04T09:23:54.000Z</time><ele>1392.4</ele></trkpt><trkpt lat="45.864694" lon="9.202012"><time>2024-05-04T09:23:55.000Z</time><ele>1392.4</ele></trkpt><trkpt lat="45.864697" lon="9.202014"><time>2024-05-04T09:23:56.000Z</time><ele>1392.4</ele></trkpt><trkpt lat="45.864706" lon="9.202022"><time>2024-05-04T09:23:57.000Z</time><ele>1392.2</ele></trkpt><trkpt lat="45.864716" lon="9.20203"><time>2024-05-04T09:23:58.000Z</time><ele>1392</ele></trkpt><trkpt lat="45.864725" lon="9.202039"><time>2024-05-04T09:23:59.000Z</time><ele>1391.6</ele></trkpt><trkpt lat="45.864734" lon="9.202048"><time>2024-05-04T09:24:00.000Z</time><ele>1391.4</ele></trkpt><trkpt lat="45.864746" lon="9.202059"><time>2024-05-04T09:24:01.000Z</time><ele>1391.4</ele></trkpt><trkpt lat="45.864758" lon="9.20207"><time>2024-05-04T09:24:02.000Z</time><ele>1391.2</ele></trkpt><trkpt lat="45.864772" lon="9.202078"><time>2024-05-04T09:24:03.000Z</time><ele>1391</ele></trkpt><trkpt lat="45.864784" lon="9.202084"><time>2024-05-04T09:24:04.000Z</time><ele>1390.6</ele></trkpt><trkpt lat="45.864797" lon="9.202091"><time>2024-05-04T09:24:05.000Z</time><ele>1390.2</ele></trkpt><trkpt lat="45.864805" lon="9.202096"><time>2024-05-04T09:24:06.000Z</time><ele>1390</ele></trkpt><trkpt lat="45.86481" lon="9.202099"><time>2024-05-04T09:24:07.000Z</time><ele>1389.8</ele></trkpt><trkpt lat="45.864814" lon="9.202101"><time>2024-05-04T09:24:08.000Z</time><ele>1389.8</ele></trkpt><trkpt lat="45.864816" lon="9.202103"><time>2024-05-04T09:24:09.000Z</time><ele>1389.6</ele></trkpt><trkpt lat="45.864817" lon="9.202104"><time>2024-05-04T09:24:10.000Z</time><ele>1389.4</ele></trkpt><trkpt lat="45.864818" lon="9.202104"><time>2024-05-04T09:24:11.000Z</time><ele>1389.4</ele></trkpt><trkpt lat="45.864819" lon="9.202104"><time>2024-05-04T09:24:12.000Z</time><ele>1389.4</ele></trkpt><trkpt lat="45.864819" lon="9.202104"><time>2024-05-04T09:24:13.000Z</time><ele>1389.2</ele></trkpt><trkpt lat="45.864818" lon="9.202104"><time>2024-05-04T09:24:14.000Z</time><ele>1389.2</ele></trkpt><trkpt lat="45.864819" lon="9.202102"><time>2024-05-04T09:24:15.000Z</time><ele>1389.2</ele></trkpt><trkpt lat="45.864819" lon="9.202101"><time>2024-05-04T09:24:16.000Z</time><ele>1389.2</ele></trkpt><trkpt lat="45.864819" lon="9.2021"><time>2024-05-04T09:24:17.000Z</time><ele>1389.2</ele></trkpt><trkpt lat="45.864819" lon="9.202099"><time>2024-05-04T09:24:18.000Z</time><ele>1389.2</ele></trkpt><trkpt lat="45.864819" lon="9.202099"><time>2024-05-04T09:24:19.000Z</time><ele>1389.2</ele></trkpt><trkpt lat="45.864819" lon="9.202099"><time>2024-05-04T09:24:20.000Z</time><ele>1389.2</ele></trkpt><trkpt lat="45.864819" lon="9.202099"><time>2024-05-04T09:24:21.000Z</time><ele>1389.2</ele></trkpt><trkpt lat="45.864819" lon="9.202099"><time>2024-05-04T09:24:22.000Z</time><ele>1389.2</ele></trkpt><trkpt lat="45.864819" lon="9.202099"><time>2024-05-04T09:24:23.000Z</time><ele>1389</ele></trkpt><trkpt lat="45.864819" lon="9.202099"><time>2024-05-04T09:24:24.000Z</time><ele>1389</ele></trkpt><trkpt lat="45.864819" lon="9.202099"><time>2024-05-04T09:24:25.000Z</time><ele>1389</ele></trkpt><trkpt lat="45.864819" lon="9.202099"><time>2024-05-04T09:24:26.000Z</time><ele>1389</ele></trkpt><trkpt lat="45.864819" lon="9.202099"><time>2024-05-04T09:24:27.000Z</time><ele>1388.8</ele></trkpt><trkpt lat="45.864819" lon="9.202099"><time>2024-05-04T09:24:28.000Z</time><ele>1388.8</ele></trkpt><trkpt lat="45.864819" lon="9.202099"><time>2024-05-04T09:24:29.000Z</time><ele>1388.8</ele></trkpt><trkpt lat="45.864819" lon="9.2021"><time>2024-05-04T09:24:30.000Z</time><ele>1388.8</ele></trkpt><trkpt lat="45.864819" lon="9.202101"><time>2024-05-04T09:24:31.000Z</time><ele>1388.8</ele></trkpt><trkpt lat="45.864819" lon="9.202102"><time>2024-05-04T09:24:32.000Z</time><ele>1388.6</ele></trkpt><trkpt lat="45.864819" lon="9.202102"><time>2024-05-04T09:24:33.000Z</time><ele>1388.4</ele></trkpt><trkpt lat="45.864819" lon="9.202104"><time>2024-05-04T09:24:34.000Z</time><ele>1388.4</ele></trkpt><trkpt lat="45.864819" lon="9.202104"><time>2024-05-04T09:24:35.000Z</time><ele>1388.4</ele></trkpt><trkpt lat="45.864819" lon="9.202104"><time>2024-05-04T09:24:36.000Z</time><ele>1388.4</ele></trkpt><trkpt lat="45.864819" lon="9.202104"><time>2024-05-04T09:24:37.000Z</time><ele>1388.4</ele></trkpt><trkpt lat="45.86482" lon="9.202104"><time>2024-05-04T09:24:38.000Z</time><ele>1388.4</ele></trkpt><trkpt lat="45.864824" lon="9.202105"><time>2024-05-04T09:24:39.000Z</time><ele>1388.2</ele></trkpt><trkpt lat="45.864828" lon="9.202106"><time>2024-05-04T09:24:40.000Z</time><ele>1388.2</ele></trkpt><trkpt lat="45.864834" lon="9.202108"><time>2024-05-04T09:24:41.000Z</time><ele>1388.2</ele></trkpt><trkpt lat="45.864842" lon="9.202109"><time>2024-05-04T09:24:42.000Z</time><ele>1388.2</ele></trkpt><trkpt lat="45.864848" lon="9.202112"><time>2024-05-04T09:24:43.000Z</time><ele>1388.2</ele></trkpt><trkpt lat="45.864854" lon="9.202115"><time>2024-05-04T09:24:44.000Z</time><ele>1388.2</ele></trkpt><trkpt lat="45.864859" lon="9.202118"><time>2024-05-04T09:24:45.000Z</time><ele>1388.2</ele></trkpt><trkpt lat="45.864862" lon="9.20212"><time>2024-05-04T09:24:46.000Z</time><ele>1388.2</ele></trkpt><trkpt lat="45.864865" lon="9.202122"><time>2024-05-04T09:24:47.000Z</time><ele>1388</ele></trkpt><trkpt lat="45.864867" lon="9.202124"><time>2024-05-04T09:24:48.000Z</time><ele>1388</ele></trkpt><trkpt lat="45.864868" lon="9.202128"><time>2024-05-04T09:24:49.000Z</time><ele>1388</ele></trkpt><trkpt lat="45.864869" lon="9.202132"><time>2024-05-04T09:24:50.000Z</time><ele>1387.8</ele></trkpt><trkpt lat="45.864869" lon="9.202132"><time>2024-05-04T09:24:51.000Z</time><ele>1387.6</ele></trkpt><trkpt lat="45.86487" lon="9.202132"><time>2024-05-04T09:24:52.000Z</time><ele>1387.4</ele></trkpt><trkpt lat="45.86487" lon="9.202132"><time>2024-05-04T09:24:53.000Z</time><ele>1387.2</ele></trkpt><trkpt lat="45.864875" lon="9.202137"><time>2024-05-04T09:24:54.000Z</time><ele>1386.8</ele></trkpt><trkpt lat="45.864887" lon="9.202147"><time>2024-05-04T09:24:55.000Z</time><ele>1386.6</ele></trkpt><trkpt lat="45.864899" lon="9.202155"><time>2024-05-04T09:24:56.000Z</time><ele>1386.4</ele></trkpt><trkpt lat="45.864909" lon="9.202166"><time>2024-05-04T09:24:57.000Z</time><ele>1386.2</ele></trkpt><trkpt lat="45.86492" lon="9.202177"><time>2024-05-04T09:24:58.000Z</time><ele>1386</ele></trkpt><trkpt lat="45.864929" lon="9.20219"><time>2024-05-04T09:24:59.000Z</time><ele>1385.8</ele></trkpt><trkpt lat="45.864939" lon="9.202204"><time>2024-05-04T09:25:00.000Z</time><ele>1385.4</ele></trkpt><trkpt lat="45.864949" lon="9.202215"><time>2024-05-04T09:25:01.000Z</time><ele>1385.2</ele></trkpt><trkpt lat="45.864958" lon="9.202224"><time>2024-05-04T09:25:02.000Z</time><ele>1385</ele></trkpt><trkpt lat="45.864967" lon="9.202231"><time>2024-05-04T09:25:03.000Z</time><ele>1384.6</ele></trkpt><trkpt lat="45.864971" lon="9.202231"><time>2024-05-04T09:25:04.000Z</time><ele>1384.4</ele></trkpt><trkpt lat="45.864976" lon="9.202232"><time>2024-05-04T09:25:05.000Z</time><ele>1384.2</ele></trkpt><trkpt lat="45.864982" lon="9.202231"><time>2024-05-04T09:25:06.000Z</time><ele>1384</ele></trkpt><trkpt lat="45.864989" lon="9.202232"><time>2024-05-04T09:25:07.000Z</time><ele>1383.6</ele></trkpt><trkpt lat="45.864995" lon="9.202232"><time>2024-05-04T09:25:08.000Z</time><ele>1383.4</ele></trkpt><trkpt lat="45.865001" lon="9.202231"><time>2024-05-04T09:25:09.000Z</time><ele>1383.2</ele></trkpt><trkpt lat="45.865009" lon="9.202231"><time>2024-05-04T09:25:10.000Z</time><ele>1383</ele></trkpt><trkpt lat="45.865017" lon="9.202228"><time>2024-05-04T09:25:11.000Z</time><ele>1382.8</ele></trkpt><trkpt lat="45.865024" lon="9.20222"><time>2024-05-04T09:25:12.000Z</time><ele>1382.6</ele></trkpt><trkpt lat="45.865029" lon="9.202214"><time>2024-05-04T09:25:13.000Z</time><ele>1382.2</ele></trkpt><trkpt lat="45.865035" lon="9.202203"><time>2024-05-04T09:25:14.000Z</time><ele>1382</ele></trkpt><trkpt lat="45.865042" lon="9.202194"><time>2024-05-04T09:25:15.000Z</time><ele>1382</ele></trkpt><trkpt lat="45.865049" lon="9.202187"><time>2024-05-04T09:25:16.000Z</time><ele>1381.6</ele></trkpt><trkpt lat="45.865056" lon="9.202183"><time>2024-05-04T09:25:17.000Z</time><ele>1381.6</ele></trkpt><trkpt lat="45.865062" lon="9.20218"><time>2024-05-04T09:25:18.000Z</time><ele>1381.2</ele></trkpt><trkpt lat="45.865066" lon="9.202176"><time>2024-05-04T09:25:19.000Z</time><ele>1381</ele></trkpt><trkpt lat="45.865071" lon="9.202169"><time>2024-05-04T09:25:20.000Z</time><ele>1380.6</ele></trkpt><trkpt lat="45.865074" lon="9.202162"><time>2024-05-04T09:25:21.000Z</time><ele>1380.4</ele></trkpt><trkpt lat="45.865079" lon="9.202156"><time>2024-05-04T09:25:22.000Z</time><ele>1380.2</ele></trkpt><trkpt lat="45.865084" lon="9.202155"><time>2024-05-04T09:25:23.000Z</time><ele>1380</ele></trkpt><trkpt lat="45.865092" lon="9.202157"><time>2024-05-04T09:25:24.000Z</time><ele>1379.8</ele></trkpt><trkpt lat="45.865096" lon="9.202163"><time>2024-05-04T09:25:25.000Z</time><ele>1379.4</ele></trkpt><trkpt lat="45.865098" lon="9.202168"><time>2024-05-04T09:25:26.000Z</time><ele>1379.4</ele></trkpt><trkpt lat="45.8651" lon="9.202175"><time>2024-05-04T09:25:27.000Z</time><ele>1379.2</ele></trkpt><trkpt lat="45.865101" lon="9.202182"><time>2024-05-04T09:25:28.000Z</time><ele>1379.2</ele></trkpt><trkpt lat="45.865103" lon="9.20219"><time>2024-05-04T09:25:29.000Z</time><ele>1379</ele></trkpt><trkpt lat="45.865104" lon="9.202199"><time>2024-05-04T09:25:30.000Z</time><ele>1378.6</ele></trkpt><trkpt lat="45.865105" lon="9.20221"><time>2024-05-04T09:25:31.000Z</time><ele>1378.4</ele></trkpt><trkpt lat="45.865106" lon="9.202215"><time>2024-05-04T09:25:32.000Z</time><ele>1378.4</ele></trkpt><trkpt lat="45.865112" lon="9.202227"><time>2024-05-04T09:25:33.000Z</time><ele>1378.2</ele></trkpt><trkpt lat="45.865115" lon="9.202238"><time>2024-05-04T09:25:34.000Z</time><ele>1378</ele></trkpt><trkpt lat="45.865117" lon="9.202248"><time>2024-05-04T09:25:35.000Z</time><ele>1377.8</ele></trkpt><trkpt lat="45.865119" lon="9.20226"><time>2024-05-04T09:25:36.000Z</time><ele>1377.4</ele></trkpt><trkpt lat="45.865124" lon="9.202267"><time>2024-05-04T09:25:37.000Z</time><ele>1377</ele></trkpt><trkpt lat="45.865132" lon="9.202273"><time>2024-05-04T09:25:38.000Z</time><ele>1376.8</ele></trkpt><trkpt lat="45.865142" lon="9.202274"><time>2024-05-04T09:25:39.000Z</time><ele>1376.6</ele></trkpt><trkpt lat="45.865149" lon="9.202274"><time>2024-05-04T09:25:40.000Z</time><ele>1376.4</ele></trkpt><trkpt lat="45.865153" lon="9.202269"><time>2024-05-04T09:25:41.000Z</time><ele>1376.4</ele></trkpt><trkpt lat="45.865158" lon="9.202264"><time>2024-05-04T09:25:42.000Z</time><ele>1376</ele></trkpt><trkpt lat="45.865163" lon="9.202263"><time>2024-05-04T09:25:43.000Z</time><ele>1375.8</ele></trkpt><trkpt lat="45.865166" lon="9.202263"><time>2024-05-04T09:25:44.000Z</time><ele>1375.6</ele></trkpt><trkpt lat="45.865168" lon="9.202267"><time>2024-05-04T09:25:45.000Z</time><ele>1375.4</ele></trkpt><trkpt lat="45.865172" lon="9.202274"><time>2024-05-04T09:25:46.000Z</time><ele>1375.4</ele></trkpt><trkpt lat="45.865178" lon="9.202278"><time>2024-05-04T09:25:47.000Z</time><ele>1375.4</ele></trkpt><trkpt lat="45.865183" lon="9.202281"><time>2024-05-04T09:25:48.000Z</time><ele>1375.2</ele></trkpt><trkpt lat="45.865191" lon="9.202283"><time>2024-05-04T09:25:49.000Z</time><ele>1375.2</ele></trkpt><trkpt lat="45.8652" lon="9.202283"><time>2024-05-04T09:25:50.000Z</time><ele>1374.8</ele></trkpt><trkpt lat="45.865206" lon="9.202284"><time>2024-05-04T09:25:51.000Z</time><ele>1374.6</ele></trkpt><trkpt lat="45.865213" lon="9.20228"><time>2024-05-04T09:25:52.000Z</time><ele>1374.2</ele></trkpt><trkpt lat="45.865218" lon="9.202277"><time>2024-05-04T09:25:53.000Z</time><ele>1373.8</ele></trkpt><trkpt lat="45.865221" lon="9.202273"><time>2024-05-04T09:25:54.000Z</time><ele>1373.6</ele></trkpt><trkpt lat="45.865222" lon="9.202267"><time>2024-05-04T09:25:55.000Z</time><ele>1373.4</ele></trkpt><trkpt lat="45.865225" lon="9.202264"><time>2024-05-04T09:25:56.000Z</time><ele>1373</ele></trkpt><trkpt lat="45.865229" lon="9.202261"><time>2024-05-04T09:25:57.000Z</time><ele>1373</ele></trkpt><trkpt lat="45.865234" lon="9.202259"><time>2024-05-04T09:25:58.000Z</time><ele>1372.8</ele></trkpt><trkpt lat="45.865239" lon="9.202259"><time>2024-05-04T09:25:59.000Z</time><ele>1372.6</ele></trkpt><trkpt lat="45.865244" lon="9.202264"><time>2024-05-04T09:26:00.000Z</time><ele>1372.4</ele></trkpt><trkpt lat="45.865251" lon="9.202271"><time>2024-05-04T09:26:01.000Z</time><ele>1372.2</ele></trkpt><trkpt lat="45.865253" lon="9.202278"><time>2024-05-04T09:26:02.000Z</time><ele>1372</ele></trkpt><trkpt lat="45.865251" lon="9.202289"><time>2024-05-04T09:26:03.000Z</time><ele>1371.8</ele></trkpt><trkpt lat="45.865252" lon="9.2023"><time>2024-05-04T09:26:04.000Z</time><ele>1371.4</ele></trkpt><trkpt lat="45.865256" lon="9.202306"><time>2024-05-04T09:26:05.000Z</time><ele>1371.2</ele></trkpt><trkpt lat="45.86526" lon="9.202312"><time>2024-05-04T09:26:06.000Z</time><ele>1371</ele></trkpt><trkpt lat="45.865265" lon="9.20232"><time>2024-05-04T09:26:07.000Z</time><ele>1370.8</ele></trkpt><trkpt lat="45.865269" lon="9.202328"><time>2024-05-04T09:26:08.000Z</time><ele>1370.6</ele></trkpt><trkpt lat="45.865275" lon="9.202337"><time>2024-05-04T09:26:09.000Z</time><ele>1370.4</ele></trkpt><trkpt lat="45.865278" lon="9.202343"><time>2024-05-04T09:26:10.000Z</time><ele>1370.2</ele></trkpt><trkpt lat="45.865281" lon="9.202348"><time>2024-05-04T09:26:11.000Z</time><ele>1370</ele></trkpt><trkpt lat="45.865283" lon="9.202356"><time>2024-05-04T09:26:12.000Z</time><ele>1369.8</ele></trkpt><trkpt lat="45.865289" lon="9.202361"><time>2024-05-04T09:26:13.000Z</time><ele>1369.4</ele></trkpt><trkpt lat="45.865292" lon="9.202363"><time>2024-05-04T09:26:14.000Z</time><ele>1369.2</ele></trkpt><trkpt lat="45.865292" lon="9.202361"><time>2024-05-04T09:26:15.000Z</time><ele>1369</ele></trkpt><trkpt lat="45.865292" lon="9.202359"><time>2024-05-04T09:26:16.000Z</time><ele>1368.8</ele></trkpt><trkpt lat="45.865291" lon="9.202359"><time>2024-05-04T09:26:17.000Z</time><ele>1368.8</ele></trkpt><trkpt lat="45.865288" lon="9.202364"><time>2024-05-04T09:26:18.000Z</time><ele>1368.8</ele></trkpt><trkpt lat="45.865288" lon="9.202366"><time>2024-05-04T09:26:19.000Z</time><ele>1368.6</ele></trkpt><trkpt lat="45.865288" lon="9.202368"><time>2024-05-04T09:26:20.000Z</time><ele>1368.6</ele></trkpt><trkpt lat="45.865287" lon="9.202372"><time>2024-05-04T09:26:21.000Z</time><ele>1368.6</ele></trkpt><trkpt lat="45.865284" lon="9.202376"><time>2024-05-04T09:26:22.000Z</time><ele>1368.6</ele></trkpt><trkpt lat="45.865284" lon="9.202381"><time>2024-05-04T09:26:23.000Z</time><ele>1368.6</ele></trkpt><trkpt lat="45.865283" lon="9.20239"><time>2024-05-04T09:26:24.000Z</time><ele>1368.6</ele></trkpt><trkpt lat="45.865285" lon="9.2024"><time>2024-05-04T09:26:25.000Z</time><ele>1368.4</ele></trkpt><trkpt lat="45.865288" lon="9.202405"><time>2024-05-04T09:26:26.000Z</time><ele>1368.4</ele></trkpt><trkpt lat="45.86529" lon="9.202413"><time>2024-05-04T09:26:27.000Z</time><ele>1368.2</ele></trkpt><trkpt lat="45.865293" lon="9.202421"><time>2024-05-04T09:26:28.000Z</time><ele>1368.2</ele></trkpt><trkpt lat="45.865295" lon="9.202434"><time>2024-05-04T09:26:29.000Z</time><ele>1368</ele></trkpt><trkpt lat="45.8653" lon="9.202439"><time>2024-05-04T09:26:30.000Z</time><ele>1367.8</ele></trkpt><trkpt lat="45.865307" lon="9.202443"><time>2024-05-04T09:26:31.000Z</time><ele>1367.6</ele></trkpt><trkpt lat="45.865312" lon="9.202446"><time>2024-05-04T09:26:32.000Z</time><ele>1367.4</ele></trkpt><trkpt lat="45.865316" lon="9.20245"><time>2024-05-04T09:26:33.000Z</time><ele>1367</ele></trkpt><trkpt lat="45.865323" lon="9.202457"><time>2024-05-04T09:26:34.000Z</time><ele>1366.8</ele></trkpt><trkpt lat="45.865329" lon="9.202461"><time>2024-05-04T09:26:35.000Z</time><ele>1366.6</ele></trkpt><trkpt lat="45.865338" lon="9.202466"><time>2024-05-04T09:26:36.000Z</time><ele>1366.4</ele></trkpt><trkpt lat="45.865344" lon="9.202469"><time>2024-05-04T09:26:37.000Z</time><ele>1366.2</ele></trkpt><trkpt lat="45.865349" lon="9.202476"><time>2024-05-04T09:26:38.000Z</time><ele>1366</ele></trkpt><trkpt lat="45.865357" lon="9.20248"><time>2024-05-04T09:26:39.000Z</time><ele>1366</ele></trkpt><trkpt lat="45.865365" lon="9.202485"><time>2024-05-04T09:26:40.000Z</time><ele>1365.8</ele></trkpt><trkpt lat="45.86537" lon="9.202487"><time>2024-05-04T09:26:41.000Z</time><ele>1365.4</ele></trkpt><trkpt lat="45.865376" lon="9.202487"><time>2024-05-04T09:26:42.000Z</time><ele>1365.2</ele></trkpt><trkpt lat="45.865381" lon="9.202489"><time>2024-05-04T09:26:43.000Z</time><ele>1365</ele></trkpt><trkpt lat="45.865386" lon="9.202495"><time>2024-05-04T09:26:44.000Z</time><ele>1364.8</ele></trkpt><trkpt lat="45.865392" lon="9.202501"><time>2024-05-04T09:26:45.000Z</time><ele>1364.6</ele></trkpt><trkpt lat="45.865396" lon="9.20251"><time>2024-05-04T09:26:46.000Z</time><ele>1364.6</ele></trkpt><trkpt lat="45.865402" lon="9.202516"><time>2024-05-04T09:26:47.000Z</time><ele>1364.2</ele></trkpt><trkpt lat="45.865411" lon="9.20252"><time>2024-05-04T09:26:48.000Z</time><ele>1364</ele></trkpt><trkpt lat="45.865417" lon="9.202524"><time>2024-05-04T09:26:49.000Z</time><ele>1363.6</ele></trkpt><trkpt lat="45.86542" lon="9.202527"><time>2024-05-04T09:26:50.000Z</time><ele>1363.4</ele></trkpt><trkpt lat="45.865428" lon="9.202534"><time>2024-05-04T09:26:51.000Z</time><ele>1363.2</ele></trkpt><trkpt lat="45.865434" lon="9.202542"><time>2024-05-04T09:26:52.000Z</time><ele>1363.2</ele></trkpt><trkpt lat="45.86544" lon="9.202549"><time>2024-05-04T09:26:53.000Z</time><ele>1363</ele></trkpt><trkpt lat="45.865446" lon="9.202558"><time>2024-05-04T09:26:54.000Z</time><ele>1362.8</ele></trkpt><trkpt lat="45.865452" lon="9.202566"><time>2024-05-04T09:26:55.000Z</time><ele>1362.4</ele></trkpt><trkpt lat="45.865459" lon="9.202577"><time>2024-05-04T09:26:56.000Z</time><ele>1362.2</ele></trkpt><trkpt lat="45.865464" lon="9.202584"><time>2024-05-04T09:26:57.000Z</time><ele>1362</ele></trkpt><trkpt lat="45.86547" lon="9.202589"><time>2024-05-04T09:26:58.000Z</time><ele>1361.8</ele></trkpt><trkpt lat="45.865477" lon="9.202597"><time>2024-05-04T09:26:59.000Z</time><ele>1361.8</ele></trkpt><trkpt lat="45.865486" lon="9.202602"><time>2024-05-04T09:27:00.000Z</time><ele>1361.6</ele></trkpt><trkpt lat="45.865493" lon="9.202613"><time>2024-05-04T09:27:01.000Z</time><ele>1361.4</ele></trkpt><trkpt lat="45.865499" lon="9.202627"><time>2024-05-04T09:27:02.000Z</time><ele>1361.2</ele></trkpt><trkpt lat="45.865507" lon="9.20264"><time>2024-05-04T09:27:03.000Z</time><ele>1361</ele></trkpt><trkpt lat="45.865515" lon="9.202651"><time>2024-05-04T09:27:04.000Z</time><ele>1360.8</ele></trkpt><trkpt lat="45.865526" lon="9.202658"><time>2024-05-04T09:27:05.000Z</time><ele>1360.6</ele></trkpt><trkpt lat="45.865537" lon="9.202662"><time>2024-05-04T09:27:06.000Z</time><ele>1360.4</ele></trkpt><trkpt lat="45.865549" lon="9.202664"><time>2024-05-04T09:27:07.000Z</time><ele>1360.2</ele></trkpt><trkpt lat="45.865557" lon="9.202668"><time>2024-05-04T09:27:08.000Z</time><ele>1360</ele></trkpt><trkpt lat="45.865562" lon="9.202674"><time>2024-05-04T09:27:09.000Z</time><ele>1359.8</ele></trkpt><trkpt lat="45.865568" lon="9.202684"><time>2024-05-04T09:27:10.000Z</time><ele>1359.6</ele></trkpt><trkpt lat="45.865571" lon="9.202694"><time>2024-05-04T09:27:11.000Z</time><ele>1359.2</ele></trkpt><trkpt lat="45.865578" lon="9.202698"><time>2024-05-04T09:27:12.000Z</time><ele>1359</ele></trkpt><trkpt lat="45.865589" lon="9.202702"><time>2024-05-04T09:27:13.000Z</time><ele>1358.8</ele></trkpt><trkpt lat="45.865598" lon="9.202706"><time>2024-05-04T09:27:14.000Z</time><ele>1358.6</ele></trkpt><trkpt lat="45.865608" lon="9.202712"><time>2024-05-04T09:27:15.000Z</time><ele>1358.4</ele></trkpt><trkpt lat="45.865617" lon="9.20272"><time>2024-05-04T09:27:16.000Z</time><ele>1358.2</ele></trkpt><trkpt lat="45.865625" lon="9.202732"><time>2024-05-04T09:27:17.000Z</time><ele>1357.8</ele></trkpt><trkpt lat="45.86563" lon="9.202739"><time>2024-05-04T09:27:18.000Z</time><ele>1357.6</ele></trkpt><trkpt lat="45.865637" lon="9.202744"><time>2024-05-04T09:27:19.000Z</time><ele>1357.4</ele></trkpt><trkpt lat="45.865643" lon="9.202752"><time>2024-05-04T09:27:20.000Z</time><ele>1357.2</ele></trkpt><trkpt lat="45.865651" lon="9.202762"><time>2024-05-04T09:27:21.000Z</time><ele>1357</ele></trkpt><trkpt lat="45.865659" lon="9.202771"><time>2024-05-04T09:27:22.000Z</time><ele>1356.8</ele></trkpt><trkpt lat="45.865666" lon="9.202783"><time>2024-05-04T09:27:23.000Z</time><ele>1356.6</ele></trkpt><trkpt lat="45.865674" lon="9.202793"><time>2024-05-04T09:27:24.000Z</time><ele>1356.4</ele></trkpt><trkpt lat="45.865682" lon="9.202805"><time>2024-05-04T09:27:25.000Z</time><ele>1356.2</ele></trkpt><trkpt lat="45.865689" lon="9.202818"><time>2024-05-04T09:27:26.000Z</time><ele>1356.2</ele></trkpt><trkpt lat="45.865696" lon="9.202828"><time>2024-05-04T09:27:27.000Z</time><ele>1356</ele></trkpt><trkpt lat="45.865704" lon="9.20284"><time>2024-05-04T09:27:28.000Z</time><ele>1355.8</ele></trkpt><trkpt lat="45.865713" lon="9.202853"><time>2024-05-04T09:27:29.000Z</time><ele>1355.4</ele></trkpt><trkpt lat="45.865722" lon="9.202864"><time>2024-05-04T09:27:30.000Z</time><ele>1355.2</ele></trkpt><trkpt lat="45.865731" lon="9.202875"><time>2024-05-04T09:27:31.000Z</time><ele>1354.8</ele></trkpt><trkpt lat="45.865738" lon="9.202886"><time>2024-05-04T09:27:32.000Z</time><ele>1354.6</ele></trkpt><trkpt lat="45.865746" lon="9.202897"><time>2024-05-04T09:27:33.000Z</time><ele>1354.4</ele></trkpt><trkpt lat="45.865754" lon="9.202907"><time>2024-05-04T09:27:34.000Z</time><ele>1354.4</ele></trkpt><trkpt lat="45.865764" lon="9.202916"><time>2024-05-04T09:27:35.000Z</time><ele>1354.4</ele></trkpt><trkpt lat="45.865774" lon="9.202928"><time>2024-05-04T09:27:36.000Z</time><ele>1354.6</ele></trkpt><trkpt lat="45.865786" lon="9.202946"><time>2024-05-04T09:27:37.000Z</time><ele>1354.6</ele></trkpt><trkpt lat="45.865799" lon="9.202966"><time>2024-05-04T09:27:38.000Z</time><ele>1354.8</ele></trkpt><trkpt lat="45.865811" lon="9.202982"><time>2024-05-04T09:27:39.000Z</time><ele>1354.8</ele></trkpt><trkpt lat="45.865823" lon="9.203002"><time>2024-05-04T09:27:40.000Z</time><ele>1354.8</ele></trkpt><trkpt lat="45.865837" lon="9.203025"><time>2024-05-04T09:27:41.000Z</time><ele>1354.8</ele></trkpt><trkpt lat="45.865853" lon="9.203044"><time>2024-05-04T09:27:42.000Z</time><ele>1354.8</ele></trkpt><trkpt lat="45.86587" lon="9.203064"><time>2024-05-04T09:27:43.000Z</time><ele>1354.6</ele></trkpt><trkpt lat="45.865885" lon="9.203088"><time>2024-05-04T09:27:44.000Z</time><ele>1354.4</ele></trkpt><trkpt lat="45.865904" lon="9.203117"><time>2024-05-04T09:27:45.000Z</time><ele>1354.4</ele></trkpt><trkpt lat="45.865916" lon="9.203135"><time>2024-05-04T09:27:46.000Z</time><ele>1354.2</ele></trkpt><trkpt lat="45.86593" lon="9.203158"><time>2024-05-04T09:27:47.000Z</time><ele>1354.2</ele></trkpt><trkpt lat="45.865946" lon="9.203177"><time>2024-05-04T09:27:48.000Z</time><ele>1354</ele></trkpt><trkpt lat="45.865961" lon="9.203198"><time>2024-05-04T09:27:49.000Z</time><ele>1353.8</ele></trkpt><trkpt lat="45.865974" lon="9.203222"><time>2024-05-04T09:27:50.000Z</time><ele>1353.8</ele></trkpt><trkpt lat="45.865986" lon="9.203247"><time>2024-05-04T09:27:51.000Z</time><ele>1353.6</ele></trkpt><trkpt lat="45.865999" lon="9.203273"><time>2024-05-04T09:27:52.000Z</time><ele>1353.6</ele></trkpt><trkpt lat="45.866013" lon="9.203301"><time>2024-05-04T09:27:53.000Z</time><ele>1353.6</ele></trkpt><trkpt lat="45.866028" lon="9.20333"><time>2024-05-04T09:27:54.000Z</time><ele>1353.4</ele></trkpt><trkpt lat="45.866048" lon="9.203358"><time>2024-05-04T09:27:55.000Z</time><ele>1353.2</ele></trkpt><trkpt lat="45.866072" lon="9.203379"><time>2024-05-04T09:27:56.000Z</time><ele>1353.2</ele></trkpt><trkpt lat="45.866094" lon="9.203401"><time>2024-05-04T09:27:57.000Z</time><ele>1353.2</ele></trkpt><trkpt lat="45.866116" lon="9.203423"><time>2024-05-04T09:27:58.000Z</time><ele>1353.2</ele></trkpt><trkpt lat="45.866137" lon="9.203443"><time>2024-05-04T09:27:59.000Z</time><ele>1353.2</ele></trkpt><trkpt lat="45.866157" lon="9.203462"><time>2024-05-04T09:28:00.000Z</time><ele>1353</ele></trkpt><trkpt lat="45.866178" lon="9.203479"><time>2024-05-04T09:28:01.000Z</time><ele>1353</ele></trkpt><trkpt lat="45.866197" lon="9.203502"><time>2024-05-04T09:28:02.000Z</time><ele>1353</ele></trkpt><trkpt lat="45.866215" lon="9.203525"><time>2024-05-04T09:28:03.000Z</time><ele>1353.2</ele></trkpt><trkpt lat="45.866233" lon="9.203546"><time>2024-05-04T09:28:04.000Z</time><ele>1353.4</ele></trkpt><trkpt lat="45.866251" lon="9.203568"><time>2024-05-04T09:28:05.000Z</time><ele>1353.8</ele></trkpt><trkpt lat="45.866267" lon="9.203592"><time>2024-05-04T09:28:06.000Z</time><ele>1354</ele></trkpt><trkpt lat="45.866285" lon="9.203614"><time>2024-05-04T09:28:07.000Z</time><ele>1354.2</ele></trkpt><trkpt lat="45.866303" lon="9.203635"><time>2024-05-04T09:28:08.000Z</time><ele>1354.6</ele></trkpt><trkpt lat="45.866321" lon="9.203657"><time>2024-05-04T09:28:09.000Z</time><ele>1354.8</ele></trkpt><trkpt lat="45.866338" lon="9.203678"><time>2024-05-04T09:28:10.000Z</time><ele>1355.2</ele></trkpt><trkpt lat="45.866355" lon="9.203697"><time>2024-05-04T09:28:11.000Z</time><ele>1355.6</ele></trkpt><trkpt lat="45.866371" lon="9.203717"><time>2024-05-04T09:28:12.000Z</time><ele>1356</ele></trkpt><trkpt lat="45.866388" lon="9.203737"><time>2024-05-04T09:28:13.000Z</time><ele>1356.4</ele></trkpt><trkpt lat="45.866401" lon="9.20375"><time>2024-05-04T09:28:14.000Z</time><ele>1356.8</ele></trkpt><trkpt lat="45.866423" lon="9.203771"><time>2024-05-04T09:28:15.000Z</time><ele>1357</ele></trkpt><trkpt lat="45.866441" lon="9.203789"><time>2024-05-04T09:28:16.000Z</time><ele>1357.6</ele></trkpt><trkpt lat="45.866455" lon="9.203814"><time>2024-05-04T09:28:17.000Z</time><ele>1357.8</ele></trkpt><trkpt lat="45.866467" lon="9.203839"><time>2024-05-04T09:28:18.000Z</time><ele>1358</ele></trkpt><trkpt lat="45.866482" lon="9.203865"><time>2024-05-04T09:28:19.000Z</time><ele>1358.4</ele></trkpt><trkpt lat="45.866494" lon="9.203893"><time>2024-05-04T09:28:20.000Z</time><ele>1358.6</ele></trkpt><trkpt lat="45.866508" lon="9.203921"><time>2024-05-04T09:28:21.000Z</time><ele>1359</ele></trkpt><trkpt lat="45.866521" lon="9.20395"><time>2024-05-04T09:28:22.000Z</time><ele>1359.4</ele></trkpt><trkpt lat="45.866535" lon="9.203977"><time>2024-05-04T09:28:23.000Z</time><ele>1359.6</ele></trkpt><trkpt lat="45.866552" lon="9.204001"><time>2024-05-04T09:28:24.000Z</time><ele>1360</ele></trkpt><trkpt lat="45.866572" lon="9.204024"><time>2024-05-04T09:28:25.000Z</time><ele>1360.4</ele></trkpt><trkpt lat="45.866593" lon="9.204043"><time>2024-05-04T09:28:26.000Z</time><ele>1360.6</ele></trkpt><trkpt lat="45.866614" lon="9.204062"><time>2024-05-04T09:28:27.000Z</time><ele>1360.8</ele></trkpt><trkpt lat="45.866628" lon="9.204084"><time>2024-05-04T09:28:28.000Z</time><ele>1361</ele></trkpt><trkpt lat="45.866642" lon="9.204107"><time>2024-05-04T09:28:29.000Z</time><ele>1361.2</ele></trkpt><trkpt lat="45.866651" lon="9.204126"><time>2024-05-04T09:28:30.000Z</time><ele>1361.6</ele></trkpt><trkpt lat="45.866665" lon="9.204144"><time>2024-05-04T09:28:31.000Z</time><ele>1361.8</ele></trkpt><trkpt lat="45.866678" lon="9.204159"><time>2024-05-04T09:28:32.000Z</time><ele>1362.2</ele></trkpt><trkpt lat="45.866685" lon="9.20417"><time>2024-05-04T09:28:33.000Z</time><ele>1362.6</ele></trkpt><trkpt lat="45.866693" lon="9.204178"><time>2024-05-04T09:28:34.000Z</time><ele>1362.8</ele></trkpt><trkpt lat="45.8667" lon="9.204186"><time>2024-05-04T09:28:35.000Z</time><ele>1363</ele></trkpt><trkpt lat="45.866706" lon="9.204194"><time>2024-05-04T09:28:36.000Z</time><ele>1363.2</ele></trkpt><trkpt lat="45.866714" lon="9.204205"><time>2024-05-04T09:28:37.000Z</time><ele>1363.4</ele></trkpt><trkpt lat="45.866718" lon="9.204212"><time>2024-05-04T09:28:38.000Z</time><ele>1363.6</ele></trkpt><trkpt lat="45.866722" lon="9.20422"><time>2024-05-04T09:28:39.000Z</time><ele>1363.8</ele></trkpt><trkpt lat="45.866727" lon="9.204225"><time>2024-05-04T09:28:40.000Z</time><ele>1364</ele></trkpt><trkpt lat="45.866731" lon="9.204232"><time>2024-05-04T09:28:41.000Z</time><ele>1364.2</ele></trkpt><trkpt lat="45.866732" lon="9.204242"><time>2024-05-04T09:28:42.000Z</time><ele>1364.2</ele></trkpt><trkpt lat="45.866733" lon="9.204244"><time>2024-05-04T09:28:43.000Z</time><ele>1364</ele></trkpt><trkpt lat="45.866732" lon="9.204243"><time>2024-05-04T09:28:44.000Z</time><ele>1364</ele></trkpt><trkpt lat="45.866734" lon="9.204237"><time>2024-05-04T09:28:45.000Z</time><ele>1364</ele></trkpt><trkpt lat="45.866738" lon="9.204234"><time>2024-05-04T09:28:46.000Z</time><ele>1364</ele></trkpt><trkpt lat="45.86674" lon="9.204232"><time>2024-05-04T09:28:47.000Z</time><ele>1364</ele></trkpt><trkpt lat="45.866741" lon="9.204232"><time>2024-05-04T09:28:48.000Z</time><ele>1364.2</ele></trkpt><trkpt lat="45.866741" lon="9.204233"><time>2024-05-04T09:28:49.000Z</time><ele>1364.2</ele></trkpt><trkpt lat="45.86674" lon="9.204234"><time>2024-05-04T09:28:50.000Z</time><ele>1364.4</ele></trkpt><trkpt lat="45.86674" lon="9.204235"><time>2024-05-04T09:28:51.000Z</time><ele>1364.4</ele></trkpt><trkpt lat="45.866741" lon="9.204241"><time>2024-05-04T09:28:52.000Z</time><ele>1364.4</ele></trkpt><trkpt lat="45.866737" lon="9.204249"><time>2024-05-04T09:28:53.000Z</time><ele>1364.2</ele></trkpt><trkpt lat="45.866735" lon="9.204253"><time>2024-05-04T09:28:54.000Z</time><ele>1364.2</ele></trkpt><trkpt lat="45.866733" lon="9.204255"><time>2024-05-04T09:28:55.000Z</time><ele>1364.2</ele></trkpt><trkpt lat="45.866733" lon="9.204255"><time>2024-05-04T09:28:56.000Z</time><ele>1364</ele></trkpt><trkpt lat="45.866731" lon="9.204253"><time>2024-05-04T09:28:57.000Z</time><ele>1364</ele></trkpt><trkpt lat="45.866732" lon="9.204253"><time>2024-05-04T09:28:58.000Z</time><ele>1364</ele></trkpt><trkpt lat="45.866732" lon="9.204253"><time>2024-05-04T09:28:59.000Z</time><ele>1364</ele></trkpt><trkpt lat="45.866732" lon="9.204253"><time>2024-05-04T09:29:00.000Z</time><ele>1364</ele></trkpt><trkpt lat="45.866732" lon="9.204253"><time>2024-05-04T09:29:01.000Z</time><ele>1364.2</ele></trkpt><trkpt lat="45.866732" lon="9.204253"><time>2024-05-04T09:29:02.000Z</time><ele>1364.2</ele></trkpt><trkpt lat="45.866732" lon="9.204253"><time>2024-05-04T09:29:03.000Z</time><ele>1364.2</ele></trkpt><trkpt lat="45.866732" lon="9.204253"><time>2024-05-04T09:29:04.000Z</time><ele>1364.2</ele></trkpt><trkpt lat="45.866732" lon="9.204253"><time>2024-05-04T09:29:05.000Z</time><ele>1364.2</ele></trkpt><trkpt lat="45.866732" lon="9.204253"><time>2024-05-04T09:29:06.000Z</time><ele>1364.2</ele></trkpt><trkpt lat="45.866732" lon="9.204253"><time>2024-05-04T09:29:07.000Z</time><ele>1364.2</ele></trkpt><trkpt lat="45.866732" lon="9.204253"><time>2024-05-04T09:29:08.000Z</time><ele>1364.2</ele></trkpt><trkpt lat="45.866732" lon="9.204253"><time>2024-05-04T09:29:09.000Z</time><ele>1364.2</ele></trkpt><trkpt lat="45.866732" lon="9.204253"><time>2024-05-04T09:29:10.000Z</time><ele>1364.2</ele></trkpt><trkpt lat="45.866732" lon="9.204253"><time>2024-05-04T09:29:11.000Z</time><ele>1364.2</ele></trkpt><trkpt lat="45.866732" lon="9.204253"><time>2024-05-04T09:29:12.000Z</time><ele>1364.2</ele></trkpt><trkpt lat="45.866732" lon="9.204253"><time>2024-05-04T09:29:13.000Z</time><ele>1364</ele></trkpt><trkpt lat="45.866732" lon="9.204253"><time>2024-05-04T09:29:14.000Z</time><ele>1364</ele></trkpt><trkpt lat="45.866732" lon="9.204253"><time>2024-05-04T09:29:15.000Z</time><ele>1364</ele></trkpt><trkpt lat="45.866731" lon="9.204253"><time>2024-05-04T09:29:16.000Z</time><ele>1363.8</ele></trkpt><trkpt lat="45.866731" lon="9.204253"><time>2024-05-04T09:29:17.000Z</time><ele>1363.8</ele></trkpt><trkpt lat="45.866731" lon="9.204253"><time>2024-05-04T09:29:18.000Z</time><ele>1364</ele></trkpt><trkpt lat="45.866731" lon="9.204253"><time>2024-05-04T09:29:19.000Z</time><ele>1364</ele></trkpt><trkpt lat="45.866731" lon="9.204253"><time>2024-05-04T09:29:20.000Z</time><ele>1364</ele></trkpt><trkpt lat="45.866731" lon="9.204253"><time>2024-05-04T09:29:21.000Z</time><ele>1364</ele></trkpt><trkpt lat="45.866731" lon="9.204253"><time>2024-05-04T09:29:22.000Z</time><ele>1364</ele></trkpt><trkpt lat="45.866731" lon="9.204253"><time>2024-05-04T09:29:23.000Z</time><ele>1364</ele></trkpt><trkpt lat="45.866731" lon="9.204254"><time>2024-05-04T09:29:24.000Z</time><ele>1364</ele></trkpt><trkpt lat="45.866731" lon="9.204254"><time>2024-05-04T09:29:25.000Z</time><ele>1364</ele></trkpt><trkpt lat="45.866731" lon="9.204254"><time>2024-05-04T09:29:26.000Z</time><ele>1364</ele></trkpt><trkpt lat="45.866732" lon="9.204254"><time>2024-05-04T09:29:27.000Z</time><ele>1364</ele></trkpt><trkpt lat="45.866732" lon="9.204254"><time>2024-05-04T09:29:28.000Z</time><ele>1364</ele></trkpt><trkpt lat="45.866732" lon="9.204254"><time>2024-05-04T09:29:29.000Z</time><ele>1364.2</ele></trkpt><trkpt lat="45.866735" lon="9.204254"><time>2024-05-04T09:29:30.000Z</time><ele>1364.2</ele></trkpt><trkpt lat="45.866737" lon="9.204254"><time>2024-05-04T09:29:31.000Z</time><ele>1364.4</ele></trkpt><trkpt lat="45.86674" lon="9.204254"><time>2024-05-04T09:29:32.000Z</time><ele>1364.4</ele></trkpt><trkpt lat="45.866742" lon="9.204254"><time>2024-05-04T09:29:33.000Z</time><ele>1364.6</ele></trkpt><trkpt lat="45.866743" lon="9.204255"><time>2024-05-04T09:29:34.000Z</time><ele>1364.8</ele></trkpt><trkpt lat="45.866743" lon="9.204256"><time>2024-05-04T09:29:35.000Z</time><ele>1364.8</ele></trkpt><trkpt lat="45.866743" lon="9.204258"><time>2024-05-04T09:29:36.000Z</time><ele>1364.8</ele></trkpt><trkpt lat="45.866743" lon="9.204261"><time>2024-05-04T09:29:37.000Z</time><ele>1364.8</ele></trkpt><trkpt lat="45.866744" lon="9.204265"><time>2024-05-04T09:29:38.000Z</time><ele>1364.8</ele></trkpt><trkpt lat="45.866744" lon="9.20427"><time>2024-05-04T09:29:39.000Z</time><ele>1364.8</ele></trkpt><trkpt lat="45.866744" lon="9.204275"><time>2024-05-04T09:29:40.000Z</time><ele>1364.8</ele></trkpt><trkpt lat="45.866744" lon="9.204281"><time>2024-05-04T09:29:41.000Z</time><ele>1364.8</ele></trkpt><trkpt lat="45.866745" lon="9.204288"><time>2024-05-04T09:29:42.000Z</time><ele>1364.8</ele></trkpt><trkpt lat="45.866746" lon="9.20429"><time>2024-05-04T09:29:43.000Z</time><ele>1364.8</ele></trkpt><trkpt lat="45.866747" lon="9.204291"><time>2024-05-04T09:29:44.000Z</time><ele>1364.8</ele></trkpt><trkpt lat="45.866747" lon="9.204291"><time>2024-05-04T09:29:45.000Z</time><ele>1364.8</ele></trkpt><trkpt lat="45.866747" lon="9.204292"><time>2024-05-04T09:29:46.000Z</time><ele>1364.8</ele></trkpt><trkpt lat="45.866747" lon="9.204292"><time>2024-05-04T09:29:47.000Z</time><ele>1365</ele></trkpt><trkpt lat="45.866748" lon="9.204293"><time>2024-05-04T09:29:48.000Z</time><ele>1365</ele></trkpt><trkpt lat="45.866748" lon="9.204294"><time>2024-05-04T09:29:49.000Z</time><ele>1365</ele></trkpt><trkpt lat="45.866748" lon="9.204294"><time>2024-05-04T09:29:50.000Z</time><ele>1365</ele></trkpt><trkpt lat="45.866748" lon="9.204296"><time>2024-05-04T09:29:51.000Z</time><ele>1365</ele></trkpt><trkpt lat="45.866748" lon="9.204296"><time>2024-05-04T09:29:52.000Z</time><ele>1365</ele></trkpt><trkpt lat="45.866748" lon="9.204297"><time>2024-05-04T09:29:53.000Z</time><ele>1365</ele></trkpt><trkpt lat="45.866748" lon="9.204297"><time>2024-05-04T09:29:54.000Z</time><ele>1365</ele></trkpt><trkpt lat="45.866748" lon="9.204297"><time>2024-05-04T09:29:55.000Z</time><ele>1364.8</ele></trkpt><trkpt lat="45.866748" lon="9.204298"><time>2024-05-04T09:29:56.000Z</time><ele>1364.8</ele></trkpt><trkpt lat="45.866748" lon="9.204298"><time>2024-05-04T09:29:57.000Z</time><ele>1364.8</ele></trkpt><trkpt lat="45.866747" lon="9.204299"><time>2024-05-04T09:29:58.000Z</time><ele>1364.8</ele></trkpt><trkpt lat="45.866747" lon="9.2043"><time>2024-05-04T09:29:59.000Z</time><ele>1364.8</ele></trkpt><trkpt lat="45.866747" lon="9.2043"><time>2024-05-04T09:30:00.000Z</time><ele>1364.8</ele></trkpt><trkpt lat="45.866747" lon="9.2043"><time>2024-05-04T09:30:01.000Z</time><ele>1365</ele></trkpt><trkpt lat="45.866747" lon="9.2043"><time>2024-05-04T09:30:02.000Z</time><ele>1365</ele></trkpt><trkpt lat="45.866746" lon="9.2043"><time>2024-05-04T09:30:03.000Z</time><ele>1365</ele></trkpt><trkpt lat="45.866746" lon="9.2043"><time>2024-05-04T09:30:04.000Z</time><ele>1364.8</ele></trkpt><trkpt lat="45.866746" lon="9.204301"><time>2024-05-04T09:30:05.000Z</time><ele>1365</ele></trkpt><trkpt lat="45.866745" lon="9.204301"><time>2024-05-04T09:30:06.000Z</time><ele>1365</ele></trkpt><trkpt lat="45.866745" lon="9.204301"><time>2024-05-04T09:30:07.000Z</time><ele>1365</ele></trkpt><trkpt lat="45.866743" lon="9.204302"><time>2024-05-04T09:30:08.000Z</time><ele>1365</ele></trkpt><trkpt lat="45.866743" lon="9.204302"><time>2024-05-04T09:30:09.000Z</time><ele>1365</ele></trkpt><trkpt lat="45.866742" lon="9.204303"><time>2024-05-04T09:30:10.000Z</time><ele>1365</ele></trkpt><trkpt lat="45.866742" lon="9.204303"><time>2024-05-04T09:30:11.000Z</time><ele>1365</ele></trkpt><trkpt lat="45.866742" lon="9.204303"><time>2024-05-04T09:30:12.000Z</time><ele>1365</ele></trkpt><trkpt lat="45.866742" lon="9.204303"><time>2024-05-04T09:30:13.000Z</time><ele>1365</ele></trkpt><trkpt lat="45.866746" lon="9.204308"><time>2024-05-04T09:30:14.000Z</time><ele>1365</ele></trkpt><trkpt lat="45.866759" lon="9.204321"><time>2024-05-04T09:30:15.000Z</time><ele>1365.2</ele></trkpt><trkpt lat="45.86677" lon="9.204335"><time>2024-05-04T09:30:16.000Z</time><ele>1365.2</ele></trkpt><trkpt lat="45.866781" lon="9.204352"><time>2024-05-04T09:30:17.000Z</time><ele>1365.2</ele></trkpt><trkpt lat="45.866791" lon="9.20437"><time>2024-05-04T09:30:18.000Z</time><ele>1365.4</ele></trkpt><trkpt lat="45.866801" lon="9.204382"><time>2024-05-04T09:30:19.000Z</time><ele>1365.4</ele></trkpt><trkpt lat="45.866812" lon="9.204396"><time>2024-05-04T09:30:20.000Z</time><ele>1365.4</ele></trkpt><trkpt lat="45.866822" lon="9.204414"><time>2024-05-04T09:30:21.000Z</time><ele>1365.4</ele></trkpt><trkpt lat="45.866831" lon="9.204426"><time>2024-05-04T09:30:22.000Z</time><ele>1365.6</ele></trkpt><trkpt lat="45.866839" lon="9.204434"><time>2024-05-04T09:30:23.000Z</time><ele>1365.6</ele></trkpt><trkpt lat="45.866848" lon="9.204443"><time>2024-05-04T09:30:24.000Z</time><ele>1365.8</ele></trkpt><trkpt lat="45.866854" lon="9.204455"><time>2024-05-04T09:30:25.000Z</time><ele>1365.8</ele></trkpt><trkpt lat="45.86686" lon="9.204469"><time>2024-05-04T09:30:26.000Z</time><ele>1365.8</ele></trkpt><trkpt lat="45.866865" lon="9.204481"><time>2024-05-04T09:30:27.000Z</time><ele>1365.8</ele></trkpt><trkpt lat="45.866868" lon="9.204487"><time>2024-05-04T09:30:28.000Z</time><ele>1365.8</ele></trkpt><trkpt lat="45.866868" lon="9.204488"><time>2024-05-04T09:30:29.000Z</time><ele>1365.8</ele></trkpt><trkpt lat="45.86687" lon="9.204488"><time>2024-05-04T09:30:30.000Z</time><ele>1365.6</ele></trkpt><trkpt lat="45.86687" lon="9.204488"><time>2024-05-04T09:30:31.000Z</time><ele>1365.6</ele></trkpt><trkpt lat="45.866871" lon="9.204488"><time>2024-05-04T09:30:32.000Z</time><ele>1365.6</ele></trkpt><trkpt lat="45.866876" lon="9.204493"><time>2024-05-04T09:30:33.000Z</time><ele>1365.6</ele></trkpt><trkpt lat="45.866878" lon="9.204499"><time>2024-05-04T09:30:34.000Z</time><ele>1365.4</ele></trkpt><trkpt lat="45.866886" lon="9.204506"><time>2024-05-04T09:30:35.000Z</time><ele>1365.2</ele></trkpt><trkpt lat="45.866899" lon="9.20451"><time>2024-05-04T09:30:36.000Z</time><ele>1365</ele></trkpt><trkpt lat="45.866908" lon="9.20451"><time>2024-05-04T09:30:37.000Z</time><ele>1364.8</ele></trkpt><trkpt lat="45.866914" lon="9.204518"><time>2024-05-04T09:30:38.000Z</time><ele>1364.8</ele></trkpt><trkpt lat="45.866921" lon="9.20453"><time>2024-05-04T09:30:39.000Z</time><ele>1364.2</ele></trkpt><trkpt lat="45.866924" lon="9.20454"><time>2024-05-04T09:30:40.000Z</time><ele>1364</ele></trkpt><trkpt lat="45.866929" lon="9.204553"><time>2024-05-04T09:30:41.000Z</time><ele>1363.8</ele></trkpt><trkpt lat="45.866932" lon="9.204562"><time>2024-05-04T09:30:42.000Z</time><ele>1363.8</ele></trkpt><trkpt lat="45.866932" lon="9.204573"><time>2024-05-04T09:30:43.000Z</time><ele>1363.4</ele></trkpt><trkpt lat="45.866932" lon="9.20459"><time>2024-05-04T09:30:44.000Z</time><ele>1363</ele></trkpt><trkpt lat="45.866935" lon="9.204608"><time>2024-05-04T09:30:45.000Z</time><ele>1362.8</ele></trkpt><trkpt lat="45.86694" lon="9.204617"><time>2024-05-04T09:30:46.000Z</time><ele>1362.6</ele></trkpt><trkpt lat="45.866949" lon="9.204622"><time>2024-05-04T09:30:47.000Z</time><ele>1362.2</ele></trkpt><trkpt lat="45.866952" lon="9.204629"><time>2024-05-04T09:30:48.000Z</time><ele>1362</ele></trkpt><trkpt lat="45.866951" lon="9.204639"><time>2024-05-04T09:30:49.000Z</time><ele>1361.8</ele></trkpt><trkpt lat="45.866952" lon="9.204648"><time>2024-05-04T09:30:50.000Z</time><ele>1361.6</ele></trkpt><trkpt lat="45.866952" lon="9.204655"><time>2024-05-04T09:30:51.000Z</time><ele>1361.4</ele></trkpt><trkpt lat="45.866956" lon="9.204663"><time>2024-05-04T09:30:52.000Z</time><ele>1361</ele></trkpt><trkpt lat="45.866958" lon="9.204673"><time>2024-05-04T09:30:53.000Z</time><ele>1360.8</ele></trkpt><trkpt lat="45.866962" lon="9.204682"><time>2024-05-04T09:30:54.000Z</time><ele>1360.6</ele></trkpt><trkpt lat="45.866965" lon="9.204698"><time>2024-05-04T09:30:55.000Z</time><ele>1360.4</ele></trkpt><trkpt lat="45.866966" lon="9.204711"><time>2024-05-04T09:30:56.000Z</time><ele>1359.8</ele></trkpt><trkpt lat="45.866969" lon="9.20472"><time>2024-05-04T09:30:57.000Z</time><ele>1359.4</ele></trkpt><trkpt lat="45.866972" lon="9.204729"><time>2024-05-04T09:30:58.000Z</time><ele>1359.2</ele></trkpt><trkpt lat="45.866976" lon="9.204739"><time>2024-05-04T09:30:59.000Z</time><ele>1359</ele></trkpt><trkpt lat="45.866979" lon="9.204751"><time>2024-05-04T09:31:00.000Z</time><ele>1358.8</ele></trkpt><trkpt lat="45.866982" lon="9.204761"><time>2024-05-04T09:31:01.000Z</time><ele>1358.8</ele></trkpt><trkpt lat="45.866986" lon="9.204774"><time>2024-05-04T09:31:02.000Z</time><ele>1358.6</ele></trkpt><trkpt lat="45.866991" lon="9.204785"><time>2024-05-04T09:31:03.000Z</time><ele>1358.6</ele></trkpt><trkpt lat="45.866999" lon="9.20479"><time>2024-05-04T09:31:04.000Z</time><ele>1358.4</ele></trkpt><trkpt lat="45.867007" lon="9.204795"><time>2024-05-04T09:31:05.000Z</time><ele>1358.2</ele></trkpt><trkpt lat="45.867013" lon="9.204801"><time>2024-05-04T09:31:06.000Z</time><ele>1358</ele></trkpt><trkpt lat="45.867019" lon="9.204806"><time>2024-05-04T09:31:07.000Z</time><ele>1357.4</ele></trkpt><trkpt lat="45.867026" lon="9.204808"><time>2024-05-04T09:31:08.000Z</time><ele>1357</ele></trkpt><trkpt lat="45.867033" lon="9.20481"><time>2024-05-04T09:31:09.000Z</time><ele>1356.8</ele></trkpt><trkpt lat="45.867038" lon="9.204813"><time>2024-05-04T09:31:10.000Z</time><ele>1356.4</ele></trkpt><trkpt lat="45.867042" lon="9.20482"><time>2024-05-04T09:31:11.000Z</time><ele>1356</ele></trkpt><trkpt lat="45.86705" lon="9.204824"><time>2024-05-04T09:31:12.000Z</time><ele>1355.8</ele></trkpt><trkpt lat="45.867055" lon="9.204826"><time>2024-05-04T09:31:13.000Z</time><ele>1355.6</ele></trkpt><trkpt lat="45.86706" lon="9.204827"><time>2024-05-04T09:31:14.000Z</time><ele>1355.2</ele></trkpt><trkpt lat="45.867066" lon="9.204827"><time>2024-05-04T09:31:15.000Z</time><ele>1354.6</ele></trkpt><trkpt lat="45.86707" lon="9.20483"><time>2024-05-04T09:31:16.000Z</time><ele>1354.2</ele></trkpt><trkpt lat="45.867074" lon="9.204836"><time>2024-05-04T09:31:17.000Z</time><ele>1354</ele></trkpt><trkpt lat="45.867077" lon="9.204846"><time>2024-05-04T09:31:18.000Z</time><ele>1353.8</ele></trkpt><trkpt lat="45.867082" lon="9.204853"><time>2024-05-04T09:31:19.000Z</time><ele>1353.6</ele></trkpt><trkpt lat="45.867085" lon="9.204859"><time>2024-05-04T09:31:20.000Z</time><ele>1353.4</ele></trkpt><trkpt lat="45.867087" lon="9.204868"><time>2024-05-04T09:31:21.000Z</time><ele>1353.2</ele></trkpt><trkpt lat="45.867087" lon="9.204882"><time>2024-05-04T09:31:22.000Z</time><ele>1353</ele></trkpt><trkpt lat="45.867086" lon="9.204892"><time>2024-05-04T09:31:23.000Z</time><ele>1352.8</ele></trkpt><trkpt lat="45.867092" lon="9.204897"><time>2024-05-04T09:31:24.000Z</time><ele>1352.6</ele></trkpt><trkpt lat="45.867099" lon="9.204899"><time>2024-05-04T09:31:25.000Z</time><ele>1352.2</ele></trkpt><trkpt lat="45.867108" lon="9.204901"><time>2024-05-04T09:31:26.000Z</time><ele>1352</ele></trkpt><trkpt lat="45.867115" lon="9.204902"><time>2024-05-04T09:31:27.000Z</time><ele>1351.8</ele></trkpt><trkpt lat="45.867119" lon="9.204903"><time>2024-05-04T09:31:28.000Z</time><ele>1351.4</ele></trkpt><trkpt lat="45.867122" lon="9.204907"><time>2024-05-04T09:31:29.000Z</time><ele>1351.2</ele></trkpt><trkpt lat="45.867125" lon="9.204916"><time>2024-05-04T09:31:30.000Z</time><ele>1351</ele></trkpt><trkpt lat="45.867125" lon="9.204927"><time>2024-05-04T09:31:31.000Z</time><ele>1350.8</ele></trkpt><trkpt lat="45.867129" lon="9.204941"><time>2024-05-04T09:31:32.000Z</time><ele>1350.6</ele></trkpt><trkpt lat="45.867134" lon="9.20495"><time>2024-05-04T09:31:33.000Z</time><ele>1350.4</ele></trkpt><trkpt lat="45.867143" lon="9.204954"><time>2024-05-04T09:31:34.000Z</time><ele>1350.2</ele></trkpt><trkpt lat="45.86715" lon="9.204959"><time>2024-05-04T09:31:35.000Z</time><ele>1349.8</ele></trkpt><trkpt lat="45.867157" lon="9.204962"><time>2024-05-04T09:31:36.000Z</time><ele>1349.6</ele></trkpt><trkpt lat="45.867164" lon="9.204965"><time>2024-05-04T09:31:37.000Z</time><ele>1349.2</ele></trkpt><trkpt lat="45.86717" lon="9.204973"><time>2024-05-04T09:31:38.000Z</time><ele>1348.6</ele></trkpt><trkpt lat="45.867177" lon="9.204979"><time>2024-05-04T09:31:39.000Z</time><ele>1348.4</ele></trkpt><trkpt lat="45.867183" lon="9.204987"><time>2024-05-04T09:31:40.000Z</time><ele>1348.2</ele></trkpt><trkpt lat="45.867188" lon="9.204998"><time>2024-05-04T09:31:41.000Z</time><ele>1347.8</ele></trkpt><trkpt lat="45.867194" lon="9.205008"><time>2024-05-04T09:31:42.000Z</time><ele>1347.6</ele></trkpt><trkpt lat="45.867197" lon="9.20502"><time>2024-05-04T09:31:43.000Z</time><ele>1347.4</ele></trkpt><trkpt lat="45.867195" lon="9.205035"><time>2024-05-04T09:31:44.000Z</time><ele>1347</ele></trkpt><trkpt lat="45.867196" lon="9.205049"><time>2024-05-04T09:31:45.000Z</time><ele>1347</ele></trkpt><trkpt lat="45.867202" lon="9.205052"><time>2024-05-04T09:31:46.000Z</time><ele>1346.8</ele></trkpt><trkpt lat="45.867202" lon="9.205066"><time>2024-05-04T09:31:47.000Z</time><ele>1346</ele></trkpt><trkpt lat="45.867204" lon="9.20508"><time>2024-05-04T09:31:48.000Z</time><ele>1345.4</ele></trkpt><trkpt lat="45.867204" lon="9.2051"><time>2024-05-04T09:31:49.000Z</time><ele>1345</ele></trkpt><trkpt lat="45.867204" lon="9.205118"><time>2024-05-04T09:31:50.000Z</time><ele>1344.6</ele></trkpt><trkpt lat="45.867207" lon="9.20513"><time>2024-05-04T09:31:51.000Z</time><ele>1344.4</ele></trkpt><trkpt lat="45.867213" lon="9.205145"><time>2024-05-04T09:31:52.000Z</time><ele>1344.2</ele></trkpt><trkpt lat="45.86722" lon="9.205156"><time>2024-05-04T09:31:53.000Z</time><ele>1343.8</ele></trkpt><trkpt lat="45.867227" lon="9.205172"><time>2024-05-04T09:31:54.000Z</time><ele>1343.6</ele></trkpt><trkpt lat="45.867234" lon="9.205185"><time>2024-05-04T09:31:55.000Z</time><ele>1343.4</ele></trkpt><trkpt lat="45.86724" lon="9.205199"><time>2024-05-04T09:31:56.000Z</time><ele>1343.4</ele></trkpt><trkpt lat="45.867245" lon="9.205209"><time>2024-05-04T09:31:57.000Z</time><ele>1343</ele></trkpt><trkpt lat="45.867254" lon="9.205213"><time>2024-05-04T09:31:58.000Z</time><ele>1343</ele></trkpt><trkpt lat="45.867261" lon="9.205219"><time>2024-05-04T09:31:59.000Z</time><ele>1342.8</ele></trkpt><trkpt lat="45.867269" lon="9.205224"><time>2024-05-04T09:32:00.000Z</time><ele>1342.6</ele></trkpt><trkpt lat="45.867279" lon="9.20523"><time>2024-05-04T09:32:01.000Z</time><ele>1342.4</ele></trkpt><trkpt lat="45.867287" lon="9.205241"><time>2024-05-04T09:32:02.000Z</time><ele>1342.4</ele></trkpt><trkpt lat="45.867293" lon="9.205251"><time>2024-05-04T09:32:03.000Z</time><ele>1342.2</ele></trkpt><trkpt lat="45.867301" lon="9.20526"><time>2024-05-04T09:32:04.000Z</time><ele>1342</ele></trkpt><trkpt lat="45.867308" lon="9.205269"><time>2024-05-04T09:32:05.000Z</time><ele>1341.8</ele></trkpt><trkpt lat="45.867316" lon="9.205278"><time>2024-05-04T09:32:06.000Z</time><ele>1341.6</ele></trkpt><trkpt lat="45.867327" lon="9.205286"><time>2024-05-04T09:32:07.000Z</time><ele>1341.2</ele></trkpt><trkpt lat="45.867337" lon="9.205295"><time>2024-05-04T09:32:08.000Z</time><ele>1341</ele></trkpt><trkpt lat="45.867345" lon="9.205301"><time>2024-05-04T09:32:09.000Z</time><ele>1340.8</ele></trkpt><trkpt lat="45.867349" lon="9.20531"><time>2024-05-04T09:32:10.000Z</time><ele>1340.4</ele></trkpt><trkpt lat="45.867355" lon="9.205319"><time>2024-05-04T09:32:11.000Z</time><ele>1340.2</ele></trkpt><trkpt lat="45.867361" lon="9.205332"><time>2024-05-04T09:32:12.000Z</time><ele>1340</ele></trkpt><trkpt lat="45.867368" lon="9.205343"><time>2024-05-04T09:32:13.000Z</time><ele>1339.8</ele></trkpt><trkpt lat="45.867377" lon="9.20535"><time>2024-05-04T09:32:14.000Z</time><ele>1339.6</ele></trkpt><trkpt lat="45.867387" lon="9.205356"><time>2024-05-04T09:32:15.000Z</time><ele>1339.6</ele></trkpt><trkpt lat="45.867397" lon="9.205364"><time>2024-05-04T09:32:16.000Z</time><ele>1339.4</ele></trkpt><trkpt lat="45.867408" lon="9.205372"><time>2024-05-04T09:32:17.000Z</time><ele>1339</ele></trkpt><trkpt lat="45.867419" lon="9.205381"><time>2024-05-04T09:32:18.000Z</time><ele>1338.8</ele></trkpt><trkpt lat="45.86743" lon="9.205388"><time>2024-05-04T09:32:19.000Z</time><ele>1338.4</ele></trkpt><trkpt lat="45.867442" lon="9.205393"><time>2024-05-04T09:32:20.000Z</time><ele>1338.2</ele></trkpt><trkpt lat="45.867454" lon="9.205396"><time>2024-05-04T09:32:21.000Z</time><ele>1338</ele></trkpt><trkpt lat="45.867468" lon="9.205397"><time>2024-05-04T09:32:22.000Z</time><ele>1337.6</ele></trkpt><trkpt lat="45.867478" lon="9.205405"><time>2024-05-04T09:32:23.000Z</time><ele>1337.4</ele></trkpt><trkpt lat="45.867485" lon="9.205416"><time>2024-05-04T09:32:24.000Z</time><ele>1337.2</ele></trkpt><trkpt lat="45.867492" lon="9.205422"><time>2024-05-04T09:32:25.000Z</time><ele>1337</ele></trkpt><trkpt lat="45.867501" lon="9.205424"><time>2024-05-04T09:32:26.000Z</time><ele>1336.8</ele></trkpt><trkpt lat="45.867507" lon="9.205434"><time>2024-05-04T09:32:27.000Z</time><ele>1336.6</ele></trkpt><trkpt lat="45.867514" lon="9.205446"><time>2024-05-04T09:32:28.000Z</time><ele>1336.4</ele></trkpt><trkpt lat="45.867526" lon="9.205457"><time>2024-05-04T09:32:29.000Z</time><ele>1336</ele></trkpt><trkpt lat="45.867535" lon="9.205464"><time>2024-05-04T09:32:30.000Z</time><ele>1335.8</ele></trkpt><trkpt lat="45.867547" lon="9.205464"><time>2024-05-04T09:32:31.000Z</time><ele>1335.4</ele></trkpt><trkpt lat="45.867561" lon="9.205469"><time>2024-05-04T09:32:32.000Z</time><ele>1335</ele></trkpt><trkpt lat="45.86757" lon="9.205477"><time>2024-05-04T09:32:33.000Z</time><ele>1335</ele></trkpt><trkpt lat="45.867579" lon="9.205483"><time>2024-05-04T09:32:34.000Z</time><ele>1334.8</ele></trkpt><trkpt lat="45.867583" lon="9.205491"><time>2024-05-04T09:32:35.000Z</time><ele>1334.4</ele></trkpt><trkpt lat="45.867588" lon="9.2055"><time>2024-05-04T09:32:36.000Z</time><ele>1334.2</ele></trkpt><trkpt lat="45.867592" lon="9.20551"><time>2024-05-04T09:32:37.000Z</time><ele>1334.2</ele></trkpt><trkpt lat="45.867599" lon="9.205522"><time>2024-05-04T09:32:38.000Z</time><ele>1334</ele></trkpt><trkpt lat="45.867606" lon="9.205532"><time>2024-05-04T09:32:39.000Z</time><ele>1333.8</ele></trkpt><trkpt lat="45.867615" lon="9.205542"><time>2024-05-04T09:32:40.000Z</time><ele>1333.6</ele></trkpt><trkpt lat="45.867623" lon="9.205554"><time>2024-05-04T09:32:41.000Z</time><ele>1333.2</ele></trkpt><trkpt lat="45.867631" lon="9.205563"><time>2024-05-04T09:32:42.000Z</time><ele>1332.6</ele></trkpt><trkpt lat="45.867638" lon="9.205572"><time>2024-05-04T09:32:43.000Z</time><ele>1332.4</ele></trkpt><trkpt lat="45.867643" lon="9.205585"><time>2024-05-04T09:32:44.000Z</time><ele>1332.2</ele></trkpt><trkpt lat="45.86765" lon="9.205597"><time>2024-05-04T09:32:45.000Z</time><ele>1332</ele></trkpt><trkpt lat="45.867657" lon="9.205609"><time>2024-05-04T09:32:46.000Z</time><ele>1331.8</ele></trkpt><trkpt lat="45.867663" lon="9.205622"><time>2024-05-04T09:32:47.000Z</time><ele>1331.4</ele></trkpt><trkpt lat="45.86767" lon="9.205637"><time>2024-05-04T09:32:48.000Z</time><ele>1331.2</ele></trkpt><trkpt lat="45.867678" lon="9.205647"><time>2024-05-04T09:32:49.000Z</time><ele>1330.6</ele></trkpt><trkpt lat="45.867686" lon="9.205656"><time>2024-05-04T09:32:50.000Z</time><ele>1330</ele></trkpt><trkpt lat="45.867693" lon="9.205661"><time>2024-05-04T09:32:51.000Z</time><ele>1329.8</ele></trkpt><trkpt lat="45.867701" lon="9.205667"><time>2024-05-04T09:32:52.000Z</time><ele>1329.6</ele></trkpt><trkpt lat="45.867708" lon="9.205675"><time>2024-05-04T09:32:53.000Z</time><ele>1329.4</ele></trkpt><trkpt lat="45.867718" lon="9.205681"><time>2024-05-04T09:32:54.000Z</time><ele>1329.2</ele></trkpt><trkpt lat="45.867725" lon="9.205686"><time>2024-05-04T09:32:55.000Z</time><ele>1329.2</ele></trkpt><trkpt lat="45.86773" lon="9.205693"><time>2024-05-04T09:32:56.000Z</time><ele>1329</ele></trkpt><trkpt lat="45.867735" lon="9.205702"><time>2024-05-04T09:32:57.000Z</time><ele>1328.8</ele></trkpt><trkpt lat="45.867738" lon="9.205713"><time>2024-05-04T09:32:58.000Z</time><ele>1328.6</ele></trkpt><trkpt lat="45.867742" lon="9.205721"><time>2024-05-04T09:32:59.000Z</time><ele>1328.4</ele></trkpt><trkpt lat="45.867748" lon="9.205728"><time>2024-05-04T09:33:00.000Z</time><ele>1328</ele></trkpt><trkpt lat="45.867754" lon="9.205733"><time>2024-05-04T09:33:01.000Z</time><ele>1327.8</ele></trkpt><trkpt lat="45.867761" lon="9.205735"><time>2024-05-04T09:33:02.000Z</time><ele>1327.6</ele></trkpt><trkpt lat="45.867768" lon="9.205734"><time>2024-05-04T09:33:03.000Z</time><ele>1327.2</ele></trkpt><trkpt lat="45.867774" lon="9.205729"><time>2024-05-04T09:33:04.000Z</time><ele>1326.8</ele></trkpt><trkpt lat="45.86778" lon="9.205727"><time>2024-05-04T09:33:05.000Z</time><ele>1326.8</ele></trkpt><trkpt lat="45.867789" lon="9.205726"><time>2024-05-04T09:33:06.000Z</time><ele>1326.6</ele></trkpt><trkpt lat="45.867796" lon="9.205724"><time>2024-05-04T09:33:07.000Z</time><ele>1326.4</ele></trkpt><trkpt lat="45.867799" lon="9.205726"><time>2024-05-04T09:33:08.000Z</time><ele>1326</ele></trkpt><trkpt lat="45.8678" lon="9.205729"><time>2024-05-04T09:33:09.000Z</time><ele>1325.8</ele></trkpt><trkpt lat="45.867802" lon="9.205734"><time>2024-05-04T09:33:10.000Z</time><ele>1325.6</ele></trkpt><trkpt lat="45.867804" lon="9.205739"><time>2024-05-04T09:33:11.000Z</time><ele>1325.4</ele></trkpt><trkpt lat="45.867807" lon="9.205742"><time>2024-05-04T09:33:12.000Z</time><ele>1325.2</ele></trkpt><trkpt lat="45.867812" lon="9.205742"><time>2024-05-04T09:33:13.000Z</time><ele>1325</ele></trkpt><trkpt lat="45.867818" lon="9.205744"><time>2024-05-04T09:33:14.000Z</time><ele>1324.8</ele></trkpt><trkpt lat="45.867827" lon="9.205746"><time>2024-05-04T09:33:15.000Z</time><ele>1324.6</ele></trkpt><trkpt lat="45.867832" lon="9.205748"><time>2024-05-04T09:33:16.000Z</time><ele>1324.6</ele></trkpt><trkpt lat="45.867834" lon="9.205752"><time>2024-05-04T09:33:17.000Z</time><ele>1324.4</ele></trkpt><trkpt lat="45.867835" lon="9.205757"><time>2024-05-04T09:33:18.000Z</time><ele>1324.2</ele></trkpt><trkpt lat="45.867837" lon="9.205763"><time>2024-05-04T09:33:19.000Z</time><ele>1324</ele></trkpt><trkpt lat="45.86784" lon="9.205766"><time>2024-05-04T09:33:20.000Z</time><ele>1323.6</ele></trkpt><trkpt lat="45.867843" lon="9.205766"><time>2024-05-04T09:33:21.000Z</time><ele>1323.6</ele></trkpt><trkpt lat="45.867845" lon="9.205765"><time>2024-05-04T09:33:22.000Z</time><ele>1323.2</ele></trkpt><trkpt lat="45.867849" lon="9.205763"><time>2024-05-04T09:33:23.000Z</time><ele>1323</ele></trkpt><trkpt lat="45.867853" lon="9.205757"><time>2024-05-04T09:33:24.000Z</time><ele>1322.8</ele></trkpt><trkpt lat="45.867854" lon="9.205748"><time>2024-05-04T09:33:25.000Z</time><ele>1322.6</ele></trkpt><trkpt lat="45.867859" lon="9.205738"><time>2024-05-04T09:33:26.000Z</time><ele>1322.4</ele></trkpt><trkpt lat="45.867867" lon="9.205731"><time>2024-05-04T09:33:27.000Z</time><ele>1322.2</ele></trkpt><trkpt lat="45.867874" lon="9.205726"><time>2024-05-04T09:33:28.000Z</time><ele>1322</ele></trkpt><trkpt lat="45.867886" lon="9.205719"><time>2024-05-04T09:33:29.000Z</time><ele>1322</ele></trkpt><trkpt lat="45.867897" lon="9.205708"><time>2024-05-04T09:33:30.000Z</time><ele>1321.8</ele></trkpt><trkpt lat="45.867903" lon="9.205695"><time>2024-05-04T09:33:31.000Z</time><ele>1321.8</ele></trkpt><trkpt lat="45.867911" lon="9.205681"><time>2024-05-04T09:33:32.000Z</time><ele>1321.6</ele></trkpt><trkpt lat="45.867914" lon="9.205672"><time>2024-05-04T09:33:33.000Z</time><ele>1321.4</ele></trkpt><trkpt lat="45.867917" lon="9.205665"><time>2024-05-04T09:33:34.000Z</time><ele>1321.2</ele></trkpt><trkpt lat="45.867919" lon="9.20566"><time>2024-05-04T09:33:35.000Z</time><ele>1321</ele></trkpt><trkpt lat="45.867922" lon="9.205658"><time>2024-05-04T09:33:36.000Z</time><ele>1321</ele></trkpt><trkpt lat="45.867926" lon="9.205653"><time>2024-05-04T09:33:37.000Z</time><ele>1320.6</ele></trkpt><trkpt lat="45.867926" lon="9.205648"><time>2024-05-04T09:33:38.000Z</time><ele>1320.6</ele></trkpt><trkpt lat="45.867927" lon="9.205643"><time>2024-05-04T09:33:39.000Z</time><ele>1320.4</ele></trkpt><trkpt lat="45.867929" lon="9.205643"><time>2024-05-04T09:33:40.000Z</time><ele>1320.2</ele></trkpt><trkpt lat="45.867931" lon="9.205646"><time>2024-05-04T09:33:41.000Z</time><ele>1320</ele></trkpt><trkpt lat="45.867931" lon="9.205651"><time>2024-05-04T09:33:42.000Z</time><ele>1320</ele></trkpt><trkpt lat="45.867934" lon="9.205658"><time>2024-05-04T09:33:43.000Z</time><ele>1319.8</ele></trkpt><trkpt lat="45.867937" lon="9.205664"><time>2024-05-04T09:33:44.000Z</time><ele>1319.6</ele></trkpt><trkpt lat="45.867943" lon="9.205668"><time>2024-05-04T09:33:45.000Z</time><ele>1319.6</ele></trkpt><trkpt lat="45.867946" lon="9.205672"><time>2024-05-04T09:33:46.000Z</time><ele>1319.4</ele></trkpt><trkpt lat="45.867952" lon="9.205675"><time>2024-05-04T09:33:47.000Z</time><ele>1319</ele></trkpt><trkpt lat="45.867957" lon="9.205679"><time>2024-05-04T09:33:48.000Z</time><ele>1318.8</ele></trkpt><trkpt lat="45.867963" lon="9.205682"><time>2024-05-04T09:33:49.000Z</time><ele>1318.6</ele></trkpt><trkpt lat="45.867969" lon="9.205688"><time>2024-05-04T09:33:50.000Z</time><ele>1318.4</ele></trkpt><trkpt lat="45.867973" lon="9.205692"><time>2024-05-04T09:33:51.000Z</time><ele>1318.2</ele></trkpt><trkpt lat="45.86798" lon="9.205691"><time>2024-05-04T09:33:52.000Z</time><ele>1318.2</ele></trkpt><trkpt lat="45.867986" lon="9.20569"><time>2024-05-04T09:33:53.000Z</time><ele>1318</ele></trkpt><trkpt lat="45.867995" lon="9.205692"><time>2024-05-04T09:33:54.000Z</time><ele>1318</ele></trkpt><trkpt lat="45.868002" lon="9.205695"><time>2024-05-04T09:33:55.000Z</time><ele>1317.8</ele></trkpt><trkpt lat="45.868008" lon="9.205698"><time>2024-05-04T09:33:56.000Z</time><ele>1317.6</ele></trkpt><trkpt lat="45.868011" lon="9.205703"><time>2024-05-04T09:33:57.000Z</time><ele>1317.4</ele></trkpt><trkpt lat="45.868011" lon="9.205708"><time>2024-05-04T09:33:58.000Z</time><ele>1317</ele></trkpt><trkpt lat="45.868013" lon="9.205709"><time>2024-05-04T09:33:59.000Z</time><ele>1316.8</ele></trkpt><trkpt lat="45.868017" lon="9.205711"><time>2024-05-04T09:34:00.000Z</time><ele>1316.4</ele></trkpt><trkpt lat="45.868019" lon="9.205715"><time>2024-05-04T09:34:01.000Z</time><ele>1316.2</ele></trkpt><trkpt lat="45.868023" lon="9.205718"><time>2024-05-04T09:34:02.000Z</time><ele>1316.2</ele></trkpt><trkpt lat="45.868026" lon="9.205721"><time>2024-05-04T09:34:03.000Z</time><ele>1316</ele></trkpt><trkpt lat="45.86803" lon="9.205722"><time>2024-05-04T09:34:04.000Z</time><ele>1316</ele></trkpt><trkpt lat="45.868034" lon="9.205723"><time>2024-05-04T09:34:05.000Z</time><ele>1315.8</ele></trkpt><trkpt lat="45.868036" lon="9.205725"><time>2024-05-04T09:34:06.000Z</time><ele>1315.6</ele></trkpt><trkpt lat="45.868037" lon="9.20573"><time>2024-05-04T09:34:07.000Z</time><ele>1315.4</ele></trkpt><trkpt lat="45.868042" lon="9.205735"><time>2024-05-04T09:34:08.000Z</time><ele>1315.2</ele></trkpt><trkpt lat="45.868047" lon="9.205738"><time>2024-05-04T09:34:09.000Z</time><ele>1315.2</ele></trkpt><trkpt lat="45.868055" lon="9.205738"><time>2024-05-04T09:34:10.000Z</time><ele>1315</ele></trkpt><trkpt lat="45.868059" lon="9.205737"><time>2024-05-04T09:34:11.000Z</time><ele>1314.8</ele></trkpt><trkpt lat="45.868062" lon="9.205737"><time>2024-05-04T09:34:12.000Z</time><ele>1314.6</ele></trkpt><trkpt lat="45.868065" lon="9.205744"><time>2024-05-04T09:34:13.000Z</time><ele>1314.4</ele></trkpt><trkpt lat="45.868065" lon="9.205751"><time>2024-05-04T09:34:14.000Z</time><ele>1314.2</ele></trkpt><trkpt lat="45.868066" lon="9.205759"><time>2024-05-04T09:34:15.000Z</time><ele>1314</ele></trkpt><trkpt lat="45.868068" lon="9.205765"><time>2024-05-04T09:34:16.000Z</time><ele>1313.8</ele></trkpt><trkpt lat="45.868069" lon="9.205772"><time>2024-05-04T09:34:17.000Z</time><ele>1313.6</ele></trkpt><trkpt lat="45.868076" lon="9.205775"><time>2024-05-04T09:34:18.000Z</time><ele>1313.6</ele></trkpt><trkpt lat="45.86808" lon="9.20578"><time>2024-05-04T09:34:19.000Z</time><ele>1313.4</ele></trkpt><trkpt lat="45.868088" lon="9.205785"><time>2024-05-04T09:34:20.000Z</time><ele>1313.2</ele></trkpt><trkpt lat="45.868093" lon="9.205788"><time>2024-05-04T09:34:21.000Z</time><ele>1312.8</ele></trkpt><trkpt lat="45.8681" lon="9.205792"><time>2024-05-04T09:34:22.000Z</time><ele>1312.4</ele></trkpt><trkpt lat="45.868105" lon="9.205795"><time>2024-05-04T09:34:23.000Z</time><ele>1312.2</ele></trkpt><trkpt lat="45.868107" lon="9.205804"><time>2024-05-04T09:34:24.000Z</time><ele>1312</ele></trkpt><trkpt lat="45.86811" lon="9.205812"><time>2024-05-04T09:34:25.000Z</time><ele>1312</ele></trkpt><trkpt lat="45.868113" lon="9.205821"><time>2024-05-04T09:34:26.000Z</time><ele>1311.6</ele></trkpt><trkpt lat="45.868118" lon="9.205827"><time>2024-05-04T09:34:27.000Z</time><ele>1311.6</ele></trkpt><trkpt lat="45.868122" lon="9.205835"><time>2024-05-04T09:34:28.000Z</time><ele>1311.4</ele></trkpt><trkpt lat="45.868122" lon="9.205847"><time>2024-05-04T09:34:29.000Z</time><ele>1311.2</ele></trkpt><trkpt lat="45.868123" lon="9.205856"><time>2024-05-04T09:34:30.000Z</time><ele>1310.8</ele></trkpt><trkpt lat="45.868124" lon="9.205865"><time>2024-05-04T09:34:31.000Z</time><ele>1310.8</ele></trkpt><trkpt lat="45.868123" lon="9.205875"><time>2024-05-04T09:34:32.000Z</time><ele>1310.4</ele></trkpt><trkpt lat="45.868126" lon="9.205884"><time>2024-05-04T09:34:33.000Z</time><ele>1310.2</ele></trkpt><trkpt lat="45.86813" lon="9.205886"><time>2024-05-04T09:34:34.000Z</time><ele>1310</ele></trkpt><trkpt lat="45.868135" lon="9.205886"><time>2024-05-04T09:34:35.000Z</time><ele>1309.8</ele></trkpt><trkpt lat="45.868139" lon="9.205884"><time>2024-05-04T09:34:36.000Z</time><ele>1309.4</ele></trkpt><trkpt lat="45.868142" lon="9.205884"><time>2024-05-04T09:34:37.000Z</time><ele>1309.2</ele></trkpt><trkpt lat="45.868146" lon="9.205885"><time>2024-05-04T09:34:38.000Z</time><ele>1309</ele></trkpt><trkpt lat="45.86815" lon="9.205885"><time>2024-05-04T09:34:39.000Z</time><ele>1308.8</ele></trkpt><trkpt lat="45.868153" lon="9.205884"><time>2024-05-04T09:34:40.000Z</time><ele>1308.6</ele></trkpt><trkpt lat="45.868156" lon="9.205883"><time>2024-05-04T09:34:41.000Z</time><ele>1308.4</ele></trkpt><trkpt lat="45.86816" lon="9.205882"><time>2024-05-04T09:34:42.000Z</time><ele>1308.4</ele></trkpt><trkpt lat="45.868163" lon="9.205881"><time>2024-05-04T09:34:43.000Z</time><ele>1308</ele></trkpt><trkpt lat="45.868165" lon="9.20588"><time>2024-05-04T09:34:44.000Z</time><ele>1307.8</ele></trkpt><trkpt lat="45.868168" lon="9.205884"><time>2024-05-04T09:34:45.000Z</time><ele>1307.4</ele></trkpt><trkpt lat="45.868171" lon="9.205884"><time>2024-05-04T09:34:46.000Z</time><ele>1307.2</ele></trkpt><trkpt lat="45.868176" lon="9.205883"><time>2024-05-04T09:34:47.000Z</time><ele>1307</ele></trkpt><trkpt lat="45.868177" lon="9.205879"><time>2024-05-04T09:34:48.000Z</time><ele>1306.8</ele></trkpt><trkpt lat="45.868179" lon="9.205878"><time>2024-05-04T09:34:49.000Z</time><ele>1306.6</ele></trkpt><trkpt lat="45.868182" lon="9.20588"><time>2024-05-04T09:34:50.000Z</time><ele>1306.6</ele></trkpt><trkpt lat="45.868185" lon="9.205881"><time>2024-05-04T09:34:51.000Z</time><ele>1306.6</ele></trkpt><trkpt lat="45.868191" lon="9.205882"><time>2024-05-04T09:34:52.000Z</time><ele>1306.4</ele></trkpt><trkpt lat="45.868195" lon="9.205884"><time>2024-05-04T09:34:53.000Z</time><ele>1306</ele></trkpt><trkpt lat="45.868197" lon="9.205892"><time>2024-05-04T09:34:54.000Z</time><ele>1305.6</ele></trkpt><trkpt lat="45.868197" lon="9.205904"><time>2024-05-04T09:34:55.000Z</time><ele>1305.2</ele></trkpt><trkpt lat="45.868201" lon="9.205911"><time>2024-05-04T09:34:56.000Z</time><ele>1305</ele></trkpt><trkpt lat="45.868202" lon="9.205917"><time>2024-05-04T09:34:57.000Z</time><ele>1305</ele></trkpt><trkpt lat="45.868208" lon="9.205923"><time>2024-05-04T09:34:58.000Z</time><ele>1304.6</ele></trkpt><trkpt lat="45.868212" lon="9.20593"><time>2024-05-04T09:34:59.000Z</time><ele>1304.2</ele></trkpt><trkpt lat="45.868214" lon="9.205933"><time>2024-05-04T09:35:00.000Z</time><ele>1304</ele></trkpt><trkpt lat="45.868216" lon="9.205934"><time>2024-05-04T09:35:01.000Z</time><ele>1303.8</ele></trkpt><trkpt lat="45.868217" lon="9.205934"><time>2024-05-04T09:35:02.000Z</time><ele>1303.6</ele></trkpt><trkpt lat="45.86822" lon="9.205934"><time>2024-05-04T09:35:03.000Z</time><ele>1303.6</ele></trkpt><trkpt lat="45.868219" lon="9.205935"><time>2024-05-04T09:35:04.000Z</time><ele>1303.6</ele></trkpt><trkpt lat="45.86822" lon="9.205938"><time>2024-05-04T09:35:05.000Z</time><ele>1303.6</ele></trkpt><trkpt lat="45.868219" lon="9.205942"><time>2024-05-04T09:35:06.000Z</time><ele>1303.6</ele></trkpt><trkpt lat="45.868224" lon="9.205947"><time>2024-05-04T09:35:07.000Z</time><ele>1303.6</ele></trkpt><trkpt lat="45.868227" lon="9.20595"><time>2024-05-04T09:35:08.000Z</time><ele>1303.4</ele></trkpt><trkpt lat="45.868229" lon="9.205954"><time>2024-05-04T09:35:09.000Z</time><ele>1303.4</ele></trkpt><trkpt lat="45.868234" lon="9.205963"><time>2024-05-04T09:35:10.000Z</time><ele>1303.4</ele></trkpt><trkpt lat="45.868241" lon="9.205973"><time>2024-05-04T09:35:11.000Z</time><ele>1303</ele></trkpt><trkpt lat="45.868247" lon="9.20598"><time>2024-05-04T09:35:12.000Z</time><ele>1303</ele></trkpt><trkpt lat="45.86825" lon="9.205983"><time>2024-05-04T09:35:13.000Z</time><ele>1302.8</ele></trkpt><trkpt lat="45.868254" lon="9.205984"><time>2024-05-04T09:35:14.000Z</time><ele>1302.6</ele></trkpt><trkpt lat="45.868261" lon="9.205985"><time>2024-05-04T09:35:15.000Z</time><ele>1302.4</ele></trkpt><trkpt lat="45.868263" lon="9.205989"><time>2024-05-04T09:35:16.000Z</time><ele>1302.4</ele></trkpt><trkpt lat="45.868268" lon="9.205983"><time>2024-05-04T09:35:17.000Z</time><ele>1302.2</ele></trkpt><trkpt lat="45.868278" lon="9.20598"><time>2024-05-04T09:35:18.000Z</time><ele>1302.2</ele></trkpt><trkpt lat="45.868288" lon="9.205975"><time>2024-05-04T09:35:19.000Z</time><ele>1301.8</ele></trkpt><trkpt lat="45.868296" lon="9.205969"><time>2024-05-04T09:35:20.000Z</time><ele>1301.6</ele></trkpt><trkpt lat="45.868303" lon="9.205967"><time>2024-05-04T09:35:21.000Z</time><ele>1301.2</ele></trkpt><trkpt lat="45.868308" lon="9.205963"><time>2024-05-04T09:35:22.000Z</time><ele>1301</ele></trkpt><trkpt lat="45.868313" lon="9.20596"><time>2024-05-04T09:35:23.000Z</time><ele>1301</ele></trkpt><trkpt lat="45.868319" lon="9.205959"><time>2024-05-04T09:35:24.000Z</time><ele>1300.8</ele></trkpt><trkpt lat="45.868322" lon="9.205958"><time>2024-05-04T09:35:25.000Z</time><ele>1300.6</ele></trkpt><trkpt lat="45.868328" lon="9.205954"><time>2024-05-04T09:35:26.000Z</time><ele>1300.4</ele></trkpt><trkpt lat="45.868339" lon="9.205953"><time>2024-05-04T09:35:27.000Z</time><ele>1300.2</ele></trkpt><trkpt lat="45.868345" lon="9.205955"><time>2024-05-04T09:35:28.000Z</time><ele>1300.2</ele></trkpt><trkpt lat="45.868348" lon="9.205962"><time>2024-05-04T09:35:29.000Z</time><ele>1300.2</ele></trkpt><trkpt lat="45.868352" lon="9.205972"><time>2024-05-04T09:35:30.000Z</time><ele>1299.8</ele></trkpt><trkpt lat="45.868357" lon="9.205981"><time>2024-05-04T09:35:31.000Z</time><ele>1299.6</ele></trkpt><trkpt lat="45.868359" lon="9.205988"><time>2024-05-04T09:35:32.000Z</time><ele>1299.4</ele></trkpt><trkpt lat="45.868363" lon="9.205997"><time>2024-05-04T09:35:33.000Z</time><ele>1299.2</ele></trkpt><trkpt lat="45.868368" lon="9.206004"><time>2024-05-04T09:35:34.000Z</time><ele>1299</ele></trkpt><trkpt lat="45.868373" lon="9.206013"><time>2024-05-04T09:35:35.000Z</time><ele>1298.8</ele></trkpt><trkpt lat="45.868379" lon="9.206025"><time>2024-05-04T09:35:36.000Z</time><ele>1298.6</ele></trkpt><trkpt lat="45.868384" lon="9.206036"><time>2024-05-04T09:35:37.000Z</time><ele>1298.6</ele></trkpt><trkpt lat="45.868388" lon="9.206041"><time>2024-05-04T09:35:38.000Z</time><ele>1298.4</ele></trkpt><trkpt lat="45.868395" lon="9.206044"><time>2024-05-04T09:35:39.000Z</time><ele>1298</ele></trkpt><trkpt lat="45.868397" lon="9.206052"><time>2024-05-04T09:35:40.000Z</time><ele>1297.6</ele></trkpt><trkpt lat="45.868404" lon="9.206064"><time>2024-05-04T09:35:41.000Z</time><ele>1297.4</ele></trkpt><trkpt lat="45.868411" lon="9.206074"><time>2024-05-04T09:35:42.000Z</time><ele>1297.4</ele></trkpt><trkpt lat="45.868416" lon="9.206083"><time>2024-05-04T09:35:43.000Z</time><ele>1297</ele></trkpt><trkpt lat="45.868424" lon="9.206086"><time>2024-05-04T09:35:44.000Z</time><ele>1296.6</ele></trkpt><trkpt lat="45.868433" lon="9.206089"><time>2024-05-04T09:35:45.000Z</time><ele>1296.4</ele></trkpt><trkpt lat="45.868439" lon="9.206093"><time>2024-05-04T09:35:46.000Z</time><ele>1296.2</ele></trkpt><trkpt lat="45.868444" lon="9.206102"><time>2024-05-04T09:35:47.000Z</time><ele>1295.8</ele></trkpt><trkpt lat="45.868449" lon="9.206107"><time>2024-05-04T09:35:48.000Z</time><ele>1295.6</ele></trkpt><trkpt lat="45.868457" lon="9.206114"><time>2024-05-04T09:35:49.000Z</time><ele>1295.4</ele></trkpt><trkpt lat="45.868465" lon="9.206122"><time>2024-05-04T09:35:50.000Z</time><ele>1295.2</ele></trkpt><trkpt lat="45.86847" lon="9.206125"><time>2024-05-04T09:35:51.000Z</time><ele>1295</ele></trkpt><trkpt lat="45.868477" lon="9.206124"><time>2024-05-04T09:35:52.000Z</time><ele>1294.6</ele></trkpt><trkpt lat="45.868486" lon="9.206122"><time>2024-05-04T09:35:53.000Z</time><ele>1294.6</ele></trkpt><trkpt lat="45.868492" lon="9.20612"><time>2024-05-04T09:35:54.000Z</time><ele>1294.2</ele></trkpt><trkpt lat="45.868503" lon="9.20612"><time>2024-05-04T09:35:55.000Z</time><ele>1293.8</ele></trkpt><trkpt lat="45.868513" lon="9.206125"><time>2024-05-04T09:35:56.000Z</time><ele>1293.6</ele></trkpt><trkpt lat="45.868521" lon="9.206135"><time>2024-05-04T09:35:57.000Z</time><ele>1293.4</ele></trkpt><trkpt lat="45.86853" lon="9.206143"><time>2024-05-04T09:35:58.000Z</time><ele>1293.4</ele></trkpt><trkpt lat="45.868536" lon="9.206153"><time>2024-05-04T09:35:59.000Z</time><ele>1293</ele></trkpt><trkpt lat="45.868544" lon="9.20616"><time>2024-05-04T09:36:00.000Z</time><ele>1293</ele></trkpt><trkpt lat="45.86855" lon="9.206166"><time>2024-05-04T09:36:01.000Z</time><ele>1292.8</ele></trkpt><trkpt lat="45.868555" lon="9.206172"><time>2024-05-04T09:36:02.000Z</time><ele>1292.8</ele></trkpt><trkpt lat="45.868561" lon="9.206176"><time>2024-05-04T09:36:03.000Z</time><ele>1292.6</ele></trkpt><trkpt lat="45.868566" lon="9.206175"><time>2024-05-04T09:36:04.000Z</time><ele>1292.6</ele></trkpt><trkpt lat="45.86857" lon="9.20617"><time>2024-05-04T09:36:05.000Z</time><ele>1292.6</ele></trkpt><trkpt lat="45.868576" lon="9.206167"><time>2024-05-04T09:36:06.000Z</time><ele>1292</ele></trkpt><trkpt lat="45.868583" lon="9.206173"><time>2024-05-04T09:36:07.000Z</time><ele>1291.8</ele></trkpt><trkpt lat="45.868594" lon="9.20618"><time>2024-05-04T09:36:08.000Z</time><ele>1291.6</ele></trkpt><trkpt lat="45.868604" lon="9.206186"><time>2024-05-04T09:36:09.000Z</time><ele>1291.4</ele></trkpt><trkpt lat="45.868609" lon="9.206198"><time>2024-05-04T09:36:10.000Z</time><ele>1291.2</ele></trkpt><trkpt lat="45.868617" lon="9.206209"><time>2024-05-04T09:36:11.000Z</time><ele>1291</ele></trkpt><trkpt lat="45.868627" lon="9.206216"><time>2024-05-04T09:36:12.000Z</time><ele>1291</ele></trkpt><trkpt lat="45.868638" lon="9.206221"><time>2024-05-04T09:36:13.000Z</time><ele>1290.6</ele></trkpt><trkpt lat="45.868649" lon="9.206227"><time>2024-05-04T09:36:14.000Z</time><ele>1290.4</ele></trkpt><trkpt lat="45.868658" lon="9.206235"><time>2024-05-04T09:36:15.000Z</time><ele>1290.4</ele></trkpt><trkpt lat="45.868664" lon="9.206239"><time>2024-05-04T09:36:16.000Z</time><ele>1290.2</ele></trkpt><trkpt lat="45.868669" lon="9.206247"><time>2024-05-04T09:36:17.000Z</time><ele>1290.2</ele></trkpt><trkpt lat="45.868679" lon="9.206259"><time>2024-05-04T09:36:18.000Z</time><ele>1290</ele></trkpt><trkpt lat="45.868691" lon="9.206263"><time>2024-05-04T09:36:19.000Z</time><ele>1290</ele></trkpt><trkpt lat="45.868703" lon="9.206263"><time>2024-05-04T09:36:20.000Z</time><ele>1290</ele></trkpt><trkpt lat="45.868714" lon="9.206262"><time>2024-05-04T09:36:21.000Z</time><ele>1289.8</ele></trkpt><trkpt lat="45.868722" lon="9.206257"><time>2024-05-04T09:36:22.000Z</time><ele>1289.6</ele></trkpt><trkpt lat="45.868729" lon="9.20626"><time>2024-05-04T09:36:23.000Z</time><ele>1289.4</ele></trkpt><trkpt lat="45.868735" lon="9.206269"><time>2024-05-04T09:36:24.000Z</time><ele>1289.4</ele></trkpt><trkpt lat="45.868744" lon="9.20627"><time>2024-05-04T09:36:25.000Z</time><ele>1289</ele></trkpt><trkpt lat="45.868756" lon="9.206267"><time>2024-05-04T09:36:26.000Z</time><ele>1288.8</ele></trkpt><trkpt lat="45.868764" lon="9.206264"><time>2024-05-04T09:36:27.000Z</time><ele>1288.6</ele></trkpt><trkpt lat="45.868771" lon="9.206265"><time>2024-05-04T09:36:28.000Z</time><ele>1288.6</ele></trkpt><trkpt lat="45.86878" lon="9.206271"><time>2024-05-04T09:36:29.000Z</time><ele>1288.4</ele></trkpt><trkpt lat="45.868789" lon="9.206276"><time>2024-05-04T09:36:30.000Z</time><ele>1288.2</ele></trkpt><trkpt lat="45.868802" lon="9.206276"><time>2024-05-04T09:36:31.000Z</time><ele>1288</ele></trkpt><trkpt lat="45.868815" lon="9.206277"><time>2024-05-04T09:36:32.000Z</time><ele>1287.8</ele></trkpt><trkpt lat="45.868823" lon="9.206281"><time>2024-05-04T09:36:33.000Z</time><ele>1287.6</ele></trkpt><trkpt lat="45.868833" lon="9.206288"><time>2024-05-04T09:36:34.000Z</time><ele>1287.4</ele></trkpt><trkpt lat="45.868844" lon="9.206302"><time>2024-05-04T09:36:35.000Z</time><ele>1287.2</ele></trkpt><trkpt lat="45.868856" lon="9.206315"><time>2024-05-04T09:36:36.000Z</time><ele>1287.2</ele></trkpt><trkpt lat="45.868867" lon="9.206327"><time>2024-05-04T09:36:37.000Z</time><ele>1287</ele></trkpt><trkpt lat="45.868873" lon="9.206339"><time>2024-05-04T09:36:38.000Z</time><ele>1287</ele></trkpt><trkpt lat="45.868877" lon="9.206351"><time>2024-05-04T09:36:39.000Z</time><ele>1286.8</ele></trkpt><trkpt lat="45.868884" lon="9.206366"><time>2024-05-04T09:36:40.000Z</time><ele>1286.8</ele></trkpt><trkpt lat="45.868893" lon="9.206382"><time>2024-05-04T09:36:41.000Z</time><ele>1286.6</ele></trkpt><trkpt lat="45.8689" lon="9.206393"><time>2024-05-04T09:36:42.000Z</time><ele>1286.4</ele></trkpt><trkpt lat="45.868913" lon="9.206406"><time>2024-05-04T09:36:43.000Z</time><ele>1286.4</ele></trkpt><trkpt lat="45.868925" lon="9.206416"><time>2024-05-04T09:36:44.000Z</time><ele>1286.2</ele></trkpt><trkpt lat="45.868937" lon="9.206428"><time>2024-05-04T09:36:45.000Z</time><ele>1286.2</ele></trkpt><trkpt lat="45.868951" lon="9.206439"><time>2024-05-04T09:36:46.000Z</time><ele>1286.2</ele></trkpt><trkpt lat="45.868964" lon="9.206449"><time>2024-05-04T09:36:47.000Z</time><ele>1286</ele></trkpt><trkpt lat="45.868975" lon="9.206455"><time>2024-05-04T09:36:48.000Z</time><ele>1286</ele></trkpt><trkpt lat="45.868985" lon="9.206461"><time>2024-05-04T09:36:49.000Z</time><ele>1286</ele></trkpt><trkpt lat="45.868996" lon="9.206466"><time>2024-05-04T09:36:50.000Z</time><ele>1286</ele></trkpt><trkpt lat="45.869" lon="9.206472"><time>2024-05-04T09:36:51.000Z</time><ele>1286</ele></trkpt><trkpt lat="45.869001" lon="9.206477"><time>2024-05-04T09:36:52.000Z</time><ele>1286</ele></trkpt><trkpt lat="45.869001" lon="9.206483"><time>2024-05-04T09:36:53.000Z</time><ele>1286</ele></trkpt><trkpt lat="45.869" lon="9.206485"><time>2024-05-04T09:36:54.000Z</time><ele>1286</ele></trkpt><trkpt lat="45.868999" lon="9.206486"><time>2024-05-04T09:36:55.000Z</time><ele>1286</ele></trkpt><trkpt lat="45.868998" lon="9.206487"><time>2024-05-04T09:36:56.000Z</time><ele>1286</ele></trkpt><trkpt lat="45.868998" lon="9.206487"><time>2024-05-04T09:36:57.000Z</time><ele>1286.2</ele></trkpt><trkpt lat="45.868998" lon="9.206486"><time>2024-05-04T09:36:58.000Z</time><ele>1286.2</ele></trkpt><trkpt lat="45.868998" lon="9.206486"><time>2024-05-04T09:36:59.000Z</time><ele>1286.2</ele></trkpt><trkpt lat="45.868999" lon="9.206487"><time>2024-05-04T09:37:00.000Z</time><ele>1286.2</ele></trkpt><trkpt lat="45.869008" lon="9.206492"><time>2024-05-04T09:37:01.000Z</time><ele>1286.2</ele></trkpt><trkpt lat="45.869018" lon="9.206501"><time>2024-05-04T09:37:02.000Z</time><ele>1286.2</ele></trkpt><trkpt lat="45.869024" lon="9.20651"><time>2024-05-04T09:37:03.000Z</time><ele>1286.2</ele></trkpt><trkpt lat="45.869032" lon="9.206522"><time>2024-05-04T09:37:04.000Z</time><ele>1286.2</ele></trkpt><trkpt lat="45.869039" lon="9.206534"><time>2024-05-04T09:37:05.000Z</time><ele>1286.2</ele></trkpt><trkpt lat="45.869046" lon="9.206544"><time>2024-05-04T09:37:06.000Z</time><ele>1286.2</ele></trkpt><trkpt lat="45.869054" lon="9.206554"><time>2024-05-04T09:37:07.000Z</time><ele>1286.2</ele></trkpt><trkpt lat="45.869065" lon="9.206564"><time>2024-05-04T09:37:08.000Z</time><ele>1286.2</ele></trkpt><trkpt lat="45.869073" lon="9.206569"><time>2024-05-04T09:37:09.000Z</time><ele>1286.2</ele></trkpt><trkpt lat="45.869085" lon="9.206574"><time>2024-05-04T09:37:10.000Z</time><ele>1286.2</ele></trkpt><trkpt lat="45.869096" lon="9.206587"><time>2024-05-04T09:37:11.000Z</time><ele>1286.2</ele></trkpt><trkpt lat="45.869111" lon="9.206603"><time>2024-05-04T09:37:12.000Z</time><ele>1286.2</ele></trkpt><trkpt lat="45.869124" lon="9.206616"><time>2024-05-04T09:37:13.000Z</time><ele>1286.2</ele></trkpt><trkpt lat="45.869135" lon="9.206628"><time>2024-05-04T09:37:14.000Z</time><ele>1286.2</ele></trkpt><trkpt lat="45.86915" lon="9.20664"><time>2024-05-04T09:37:15.000Z</time><ele>1286.2</ele></trkpt><trkpt lat="45.869162" lon="9.206651"><time>2024-05-04T09:37:16.000Z</time><ele>1286</ele></trkpt><trkpt lat="45.86917" lon="9.206664"><time>2024-05-04T09:37:17.000Z</time><ele>1286</ele></trkpt><trkpt lat="45.869179" lon="9.206678"><time>2024-05-04T09:37:18.000Z</time><ele>1286</ele></trkpt><trkpt lat="45.86919" lon="9.206688"><time>2024-05-04T09:37:19.000Z</time><ele>1286</ele></trkpt><trkpt lat="45.869198" lon="9.206696"><time>2024-05-04T09:37:20.000Z</time><ele>1286</ele></trkpt><trkpt lat="45.869208" lon="9.206709"><time>2024-05-04T09:37:21.000Z</time><ele>1286</ele></trkpt><trkpt lat="45.869218" lon="9.206722"><time>2024-05-04T09:37:22.000Z</time><ele>1286</ele></trkpt><trkpt lat="45.869228" lon="9.206734"><time>2024-05-04T09:37:23.000Z</time><ele>1286</ele></trkpt><trkpt lat="45.86924" lon="9.206745"><time>2024-05-04T09:37:24.000Z</time><ele>1286</ele></trkpt><trkpt lat="45.869249" lon="9.206754"><time>2024-05-04T09:37:25.000Z</time><ele>1286</ele></trkpt><trkpt lat="45.869264" lon="9.20676"><time>2024-05-04T09:37:26.000Z</time><ele>1286</ele></trkpt><trkpt lat="45.869278" lon="9.206768"><time>2024-05-04T09:37:27.000Z</time><ele>1286</ele></trkpt><trkpt lat="45.869289" lon="9.206776"><time>2024-05-04T09:37:28.000Z</time><ele>1286</ele></trkpt><trkpt lat="45.869302" lon="9.206785"><time>2024-05-04T09:37:29.000Z</time><ele>1285.8</ele></trkpt><trkpt lat="45.869317" lon="9.206798"><time>2024-05-04T09:37:30.000Z</time><ele>1285.8</ele></trkpt><trkpt lat="45.869329" lon="9.206807"><time>2024-05-04T09:37:31.000Z</time><ele>1285.6</ele></trkpt><trkpt lat="45.869343" lon="9.206814"><time>2024-05-04T09:37:32.000Z</time><ele>1285.6</ele></trkpt><trkpt lat="45.869354" lon="9.206822"><time>2024-05-04T09:37:33.000Z</time><ele>1285.4</ele></trkpt><trkpt lat="45.869366" lon="9.206833"><time>2024-05-04T09:37:34.000Z</time><ele>1285.4</ele></trkpt><trkpt lat="45.869376" lon="9.206844"><time>2024-05-04T09:37:35.000Z</time><ele>1285.2</ele></trkpt><trkpt lat="45.869388" lon="9.206852"><time>2024-05-04T09:37:36.000Z</time><ele>1285.2</ele></trkpt><trkpt lat="45.869401" lon="9.206861"><time>2024-05-04T09:37:37.000Z</time><ele>1285</ele></trkpt><trkpt lat="45.869414" lon="9.206862"><time>2024-05-04T09:37:38.000Z</time><ele>1284.8</ele></trkpt><trkpt lat="45.869427" lon="9.206863"><time>2024-05-04T09:37:39.000Z</time><ele>1284.8</ele></trkpt><trkpt lat="45.869442" lon="9.206865"><time>2024-05-04T09:37:40.000Z</time><ele>1284.6</ele></trkpt><trkpt lat="45.869455" lon="9.206862"><time>2024-05-04T09:37:41.000Z</time><ele>1284.6</ele></trkpt><trkpt lat="45.869468" lon="9.206859"><time>2024-05-04T09:37:42.000Z</time><ele>1284.6</ele></trkpt><trkpt lat="45.869482" lon="9.206861"><time>2024-05-04T09:37:43.000Z</time><ele>1284.2</ele></trkpt><trkpt lat="45.86949" lon="9.206862"><time>2024-05-04T09:37:44.000Z</time><ele>1284.2</ele></trkpt><trkpt lat="45.8695" lon="9.206861"><time>2024-05-04T09:37:45.000Z</time><ele>1284</ele></trkpt><trkpt lat="45.86951" lon="9.206857"><time>2024-05-04T09:37:46.000Z</time><ele>1283.8</ele></trkpt><trkpt lat="45.869521" lon="9.206854"><time>2024-05-04T09:37:47.000Z</time><ele>1283.6</ele></trkpt><trkpt lat="45.869532" lon="9.206851"><time>2024-05-04T09:37:48.000Z</time><ele>1283.4</ele></trkpt><trkpt lat="45.86954" lon="9.206849"><time>2024-05-04T09:37:49.000Z</time><ele>1283.2</ele></trkpt><trkpt lat="45.869549" lon="9.206847"><time>2024-05-04T09:37:50.000Z</time><ele>1282.8</ele></trkpt><trkpt lat="45.869554" lon="9.206848"><time>2024-05-04T09:37:51.000Z</time><ele>1282.6</ele></trkpt><trkpt lat="45.869562" lon="9.206847"><time>2024-05-04T09:37:52.000Z</time><ele>1282.4</ele></trkpt><trkpt lat="45.869572" lon="9.206841"><time>2024-05-04T09:37:53.000Z</time><ele>1282.2</ele></trkpt><trkpt lat="45.86958" lon="9.206839"><time>2024-05-04T09:37:54.000Z</time><ele>1281.8</ele></trkpt><trkpt lat="45.86959" lon="9.206836"><time>2024-05-04T09:37:55.000Z</time><ele>1281.6</ele></trkpt><trkpt lat="45.869596" lon="9.206833"><time>2024-05-04T09:37:56.000Z</time><ele>1281.2</ele></trkpt><trkpt lat="45.8696" lon="9.206831"><time>2024-05-04T09:37:57.000Z</time><ele>1280.8</ele></trkpt><trkpt lat="45.869607" lon="9.206833"><time>2024-05-04T09:37:58.000Z</time><ele>1280.6</ele></trkpt><trkpt lat="45.869615" lon="9.206837"><time>2024-05-04T09:37:59.000Z</time><ele>1280.4</ele></trkpt><trkpt lat="45.869626" lon="9.206845"><time>2024-05-04T09:38:00.000Z</time><ele>1280.4</ele></trkpt><trkpt lat="45.869637" lon="9.206852"><time>2024-05-04T09:38:01.000Z</time><ele>1280.2</ele></trkpt><trkpt lat="45.869644" lon="9.206858"><time>2024-05-04T09:38:02.000Z</time><ele>1280.2</ele></trkpt><trkpt lat="45.869651" lon="9.206868"><time>2024-05-04T09:38:03.000Z</time><ele>1280</ele></trkpt><trkpt lat="45.869662" lon="9.206876"><time>2024-05-04T09:38:04.000Z</time><ele>1279.6</ele></trkpt><trkpt lat="45.869669" lon="9.206881"><time>2024-05-04T09:38:05.000Z</time><ele>1279.4</ele></trkpt><trkpt lat="45.869675" lon="9.206883"><time>2024-05-04T09:38:06.000Z</time><ele>1279.2</ele></trkpt><trkpt lat="45.869679" lon="9.206885"><time>2024-05-04T09:38:07.000Z</time><ele>1279</ele></trkpt><trkpt lat="45.869683" lon="9.206896"><time>2024-05-04T09:38:08.000Z</time><ele>1279</ele></trkpt><trkpt lat="45.869684" lon="9.206896"><time>2024-05-04T09:38:09.000Z</time><ele>1279</ele></trkpt><trkpt lat="45.869675" lon="9.206909"><time>2024-05-04T09:38:10.000Z</time><ele>1279</ele></trkpt><trkpt lat="45.869671" lon="9.206916"><time>2024-05-04T09:38:11.000Z</time><ele>1279</ele></trkpt><trkpt lat="45.869673" lon="9.206916"><time>2024-05-04T09:38:12.000Z</time><ele>1278.8</ele></trkpt><trkpt lat="45.869682" lon="9.206917"><time>2024-05-04T09:38:13.000Z</time><ele>1278.8</ele></trkpt><trkpt lat="45.869684" lon="9.20692"><time>2024-05-04T09:38:14.000Z</time><ele>1278.8</ele></trkpt><trkpt lat="45.869687" lon="9.20692"><time>2024-05-04T09:38:15.000Z</time><ele>1278.6</ele></trkpt><trkpt lat="45.86969" lon="9.206922"><time>2024-05-04T09:38:16.000Z</time><ele>1278.6</ele></trkpt><trkpt lat="45.869698" lon="9.206925"><time>2024-05-04T09:38:17.000Z</time><ele>1278.6</ele></trkpt><trkpt lat="45.869699" lon="9.206924"><time>2024-05-04T09:38:18.000Z</time><ele>1278.4</ele></trkpt><trkpt lat="45.869705" lon="9.206923"><time>2024-05-04T09:38:19.000Z</time><ele>1278.4</ele></trkpt><trkpt lat="45.869714" lon="9.206923"><time>2024-05-04T09:38:20.000Z</time><ele>1278.2</ele></trkpt><trkpt lat="45.869719" lon="9.206923"><time>2024-05-04T09:38:21.000Z</time><ele>1278</ele></trkpt><trkpt lat="45.869724" lon="9.206928"><time>2024-05-04T09:38:22.000Z</time><ele>1277.8</ele></trkpt><trkpt lat="45.869729" lon="9.206927"><time>2024-05-04T09:38:23.000Z</time><ele>1277.8</ele></trkpt><trkpt lat="45.869734" lon="9.206925"><time>2024-05-04T09:38:24.000Z</time><ele>1277.6</ele></trkpt><trkpt lat="45.869738" lon="9.206927"><time>2024-05-04T09:38:25.000Z</time><ele>1277.6</ele></trkpt><trkpt lat="45.869746" lon="9.206926"><time>2024-05-04T09:38:26.000Z</time><ele>1277.6</ele></trkpt><trkpt lat="45.869755" lon="9.206927"><time>2024-05-04T09:38:27.000Z</time><ele>1277.4</ele></trkpt><trkpt lat="45.869762" lon="9.206931"><time>2024-05-04T09:38:28.000Z</time><ele>1277.2</ele></trkpt><trkpt lat="45.869767" lon="9.206936"><time>2024-05-04T09:38:29.000Z</time><ele>1277</ele></trkpt><trkpt lat="45.869776" lon="9.206937"><time>2024-05-04T09:38:30.000Z</time><ele>1276.8</ele></trkpt><trkpt lat="45.869785" lon="9.206939"><time>2024-05-04T09:38:31.000Z</time><ele>1276.4</ele></trkpt><trkpt lat="45.869789" lon="9.20694"><time>2024-05-04T09:38:32.000Z</time><ele>1276.2</ele></trkpt><trkpt lat="45.869797" lon="9.206939"><time>2024-05-04T09:38:33.000Z</time><ele>1276</ele></trkpt><trkpt lat="45.869806" lon="9.206938"><time>2024-05-04T09:38:34.000Z</time><ele>1275.8</ele></trkpt><trkpt lat="45.86981" lon="9.206938"><time>2024-05-04T09:38:35.000Z</time><ele>1275.6</ele></trkpt><trkpt lat="45.869817" lon="9.206935"><time>2024-05-04T09:38:36.000Z</time><ele>1275.6</ele></trkpt><trkpt lat="45.869824" lon="9.206932"><time>2024-05-04T09:38:37.000Z</time><ele>1275.4</ele></trkpt><trkpt lat="45.869831" lon="9.206933"><time>2024-05-04T09:38:38.000Z</time><ele>1275.2</ele></trkpt><trkpt lat="45.869838" lon="9.20694"><time>2024-05-04T09:38:39.000Z</time><ele>1275</ele></trkpt><trkpt lat="45.869842" lon="9.206949"><time>2024-05-04T09:38:40.000Z</time><ele>1274.8</ele></trkpt><trkpt lat="45.86985" lon="9.206965"><time>2024-05-04T09:38:41.000Z</time><ele>1274.6</ele></trkpt><trkpt lat="45.869856" lon="9.206974"><time>2024-05-04T09:38:42.000Z</time><ele>1274.4</ele></trkpt><trkpt lat="45.869864" lon="9.206982"><time>2024-05-04T09:38:43.000Z</time><ele>1274.4</ele></trkpt><trkpt lat="45.869878" lon="9.206986"><time>2024-05-04T09:38:44.000Z</time><ele>1274.4</ele></trkpt><trkpt lat="45.869881" lon="9.206988"><time>2024-05-04T09:38:45.000Z</time><ele>1274.4</ele></trkpt><trkpt lat="45.869894" lon="9.206989"><time>2024-05-04T09:38:46.000Z</time><ele>1274.2</ele></trkpt><trkpt lat="45.869899" lon="9.206992"><time>2024-05-04T09:38:47.000Z</time><ele>1274</ele></trkpt><trkpt lat="45.869902" lon="9.206997"><time>2024-05-04T09:38:48.000Z</time><ele>1273.8</ele></trkpt><trkpt lat="45.869903" lon="9.207004"><time>2024-05-04T09:38:49.000Z</time><ele>1273.8</ele></trkpt><trkpt lat="45.869905" lon="9.207006"><time>2024-05-04T09:38:50.000Z</time><ele>1273.6</ele></trkpt><trkpt lat="45.869907" lon="9.207004"><time>2024-05-04T09:38:51.000Z</time><ele>1273.2</ele></trkpt><trkpt lat="45.869909" lon="9.207001"><time>2024-05-04T09:38:52.000Z</time><ele>1273</ele></trkpt><trkpt lat="45.869913" lon="9.206999"><time>2024-05-04T09:38:53.000Z</time><ele>1272.8</ele></trkpt><trkpt lat="45.869923" lon="9.206997"><time>2024-05-04T09:38:54.000Z</time><ele>1272.6</ele></trkpt><trkpt lat="45.869925" lon="9.206996"><time>2024-05-04T09:38:55.000Z</time><ele>1272.4</ele></trkpt><trkpt lat="45.869928" lon="9.206994"><time>2024-05-04T09:38:56.000Z</time><ele>1272</ele></trkpt><trkpt lat="45.869931" lon="9.206994"><time>2024-05-04T09:38:57.000Z</time><ele>1271.8</ele></trkpt><trkpt lat="45.869936" lon="9.207"><time>2024-05-04T09:38:58.000Z</time><ele>1271.6</ele></trkpt><trkpt lat="45.869943" lon="9.207002"><time>2024-05-04T09:38:59.000Z</time><ele>1271.4</ele></trkpt><trkpt lat="45.869949" lon="9.207007"><time>2024-05-04T09:39:00.000Z</time><ele>1271</ele></trkpt><trkpt lat="45.869952" lon="9.207015"><time>2024-05-04T09:39:01.000Z</time><ele>1270.8</ele></trkpt><trkpt lat="45.86996" lon="9.207016"><time>2024-05-04T09:39:02.000Z</time><ele>1270.6</ele></trkpt><trkpt lat="45.869962" lon="9.207017"><time>2024-05-04T09:39:03.000Z</time><ele>1270.4</ele></trkpt><trkpt lat="45.869964" lon="9.207016"><time>2024-05-04T09:39:04.000Z</time><ele>1270.2</ele></trkpt><trkpt lat="45.869965" lon="9.207012"><time>2024-05-04T09:39:05.000Z</time><ele>1270</ele></trkpt><trkpt lat="45.869965" lon="9.207008"><time>2024-05-04T09:39:06.000Z</time><ele>1269.8</ele></trkpt><trkpt lat="45.869969" lon="9.207005"><time>2024-05-04T09:39:07.000Z</time><ele>1269.8</ele></trkpt><trkpt lat="45.869979" lon="9.207004"><time>2024-05-04T09:39:08.000Z</time><ele>1269.6</ele></trkpt><trkpt lat="45.869987" lon="9.207016"><time>2024-05-04T09:39:09.000Z</time><ele>1269.4</ele></trkpt><trkpt lat="45.869993" lon="9.20703"><time>2024-05-04T09:39:10.000Z</time><ele>1269.2</ele></trkpt><trkpt lat="45.869998" lon="9.207039"><time>2024-05-04T09:39:11.000Z</time><ele>1269</ele></trkpt><trkpt lat="45.870005" lon="9.207042"><time>2024-05-04T09:39:12.000Z</time><ele>1268.8</ele></trkpt><trkpt lat="45.870013" lon="9.20705"><time>2024-05-04T09:39:13.000Z</time><ele>1268.6</ele></trkpt><trkpt lat="45.87002" lon="9.207056"><time>2024-05-04T09:39:14.000Z</time><ele>1268.4</ele></trkpt><trkpt lat="45.870029" lon="9.207058"><time>2024-05-04T09:39:15.000Z</time><ele>1268</ele></trkpt><trkpt lat="45.870036" lon="9.207057"><time>2024-05-04T09:39:16.000Z</time><ele>1268</ele></trkpt><trkpt lat="45.870043" lon="9.207053"><time>2024-05-04T09:39:17.000Z</time><ele>1267.8</ele></trkpt><trkpt lat="45.870051" lon="9.207045"><time>2024-05-04T09:39:18.000Z</time><ele>1267.6</ele></trkpt><trkpt lat="45.870056" lon="9.207036"><time>2024-05-04T09:39:19.000Z</time><ele>1267.4</ele></trkpt><trkpt lat="45.870059" lon="9.207033"><time>2024-05-04T09:39:20.000Z</time><ele>1267.2</ele></trkpt><trkpt lat="45.870061" lon="9.207028"><time>2024-05-04T09:39:21.000Z</time><ele>1266.8</ele></trkpt><trkpt lat="45.870066" lon="9.207029"><time>2024-05-04T09:39:22.000Z</time><ele>1266.6</ele></trkpt><trkpt lat="45.870073" lon="9.207033"><time>2024-05-04T09:39:23.000Z</time><ele>1266.4</ele></trkpt><trkpt lat="45.870079" lon="9.20704"><time>2024-05-04T09:39:24.000Z</time><ele>1266.2</ele></trkpt><trkpt lat="45.870082" lon="9.207048"><time>2024-05-04T09:39:25.000Z</time><ele>1266.2</ele></trkpt><trkpt lat="45.870087" lon="9.207062"><time>2024-05-04T09:39:26.000Z</time><ele>1266</ele></trkpt><trkpt lat="45.870091" lon="9.207071"><time>2024-05-04T09:39:27.000Z</time><ele>1266</ele></trkpt><trkpt lat="45.870092" lon="9.207078"><time>2024-05-04T09:39:28.000Z</time><ele>1265.6</ele></trkpt><trkpt lat="45.870097" lon="9.207085"><time>2024-05-04T09:39:29.000Z</time><ele>1265.4</ele></trkpt><trkpt lat="45.870104" lon="9.207093"><time>2024-05-04T09:39:30.000Z</time><ele>1265.4</ele></trkpt><trkpt lat="45.870112" lon="9.207099"><time>2024-05-04T09:39:31.000Z</time><ele>1265.2</ele></trkpt><trkpt lat="45.870126" lon="9.207106"><time>2024-05-04T09:39:32.000Z</time><ele>1265</ele></trkpt><trkpt lat="45.870136" lon="9.207118"><time>2024-05-04T09:39:33.000Z</time><ele>1264.8</ele></trkpt><trkpt lat="45.870143" lon="9.207126"><time>2024-05-04T09:39:34.000Z</time><ele>1264.6</ele></trkpt><trkpt lat="45.870153" lon="9.207137"><time>2024-05-04T09:39:35.000Z</time><ele>1264.6</ele></trkpt><trkpt lat="45.870157" lon="9.207142"><time>2024-05-04T09:39:36.000Z</time><ele>1264.4</ele></trkpt><trkpt lat="45.870162" lon="9.20715"><time>2024-05-04T09:39:37.000Z</time><ele>1264.2</ele></trkpt><trkpt lat="45.870168" lon="9.207159"><time>2024-05-04T09:39:38.000Z</time><ele>1264.2</ele></trkpt><trkpt lat="45.870174" lon="9.20717"><time>2024-05-04T09:39:39.000Z</time><ele>1264</ele></trkpt><trkpt lat="45.870181" lon="9.207182"><time>2024-05-04T09:39:40.000Z</time><ele>1264</ele></trkpt><trkpt lat="45.870187" lon="9.207195"><time>2024-05-04T09:39:41.000Z</time><ele>1263.8</ele></trkpt><trkpt lat="45.870197" lon="9.2072"><time>2024-05-04T09:39:42.000Z</time><ele>1263.8</ele></trkpt><trkpt lat="45.870204" lon="9.207207"><time>2024-05-04T09:39:43.000Z</time><ele>1263.6</ele></trkpt><trkpt lat="45.870212" lon="9.207208"><time>2024-05-04T09:39:44.000Z</time><ele>1263.4</ele></trkpt><trkpt lat="45.870219" lon="9.207207"><time>2024-05-04T09:39:45.000Z</time><ele>1263.2</ele></trkpt><trkpt lat="45.870226" lon="9.20721"><time>2024-05-04T09:39:46.000Z</time><ele>1263</ele></trkpt><trkpt lat="45.87023" lon="9.207213"><time>2024-05-04T09:39:47.000Z</time><ele>1262.8</ele></trkpt><trkpt lat="45.870235" lon="9.207215"><time>2024-05-04T09:39:48.000Z</time><ele>1262.6</ele></trkpt><trkpt lat="45.870243" lon="9.207217"><time>2024-05-04T09:39:49.000Z</time><ele>1262.4</ele></trkpt><trkpt lat="45.870249" lon="9.207221"><time>2024-05-04T09:39:50.000Z</time><ele>1262.2</ele></trkpt><trkpt lat="45.870258" lon="9.207225"><time>2024-05-04T09:39:51.000Z</time><ele>1262.2</ele></trkpt><trkpt lat="45.870264" lon="9.20723"><time>2024-05-04T09:39:52.000Z</time><ele>1261.8</ele></trkpt><trkpt lat="45.870273" lon="9.207234"><time>2024-05-04T09:39:53.000Z</time><ele>1261.6</ele></trkpt><trkpt lat="45.870286" lon="9.207242"><time>2024-05-04T09:39:54.000Z</time><ele>1261.6</ele></trkpt><trkpt lat="45.870293" lon="9.207251"><time>2024-05-04T09:39:55.000Z</time><ele>1261.4</ele></trkpt><trkpt lat="45.870305" lon="9.207261"><time>2024-05-04T09:39:56.000Z</time><ele>1261.4</ele></trkpt><trkpt lat="45.870314" lon="9.207271"><time>2024-05-04T09:39:57.000Z</time><ele>1261.2</ele></trkpt><trkpt lat="45.870323" lon="9.207283"><time>2024-05-04T09:39:58.000Z</time><ele>1261</ele></trkpt><trkpt lat="45.870335" lon="9.20729"><time>2024-05-04T09:39:59.000Z</time><ele>1260.8</ele></trkpt><trkpt lat="45.870348" lon="9.207297"><time>2024-05-04T09:40:00.000Z</time><ele>1260.6</ele></trkpt><trkpt lat="45.870362" lon="9.207302"><time>2024-05-04T09:40:01.000Z</time><ele>1260.6</ele></trkpt><trkpt lat="45.870375" lon="9.20731"><time>2024-05-04T09:40:02.000Z</time><ele>1260.4</ele></trkpt><trkpt lat="45.870385" lon="9.207321"><time>2024-05-04T09:40:03.000Z</time><ele>1260.2</ele></trkpt><trkpt lat="45.870396" lon="9.207332"><time>2024-05-04T09:40:04.000Z</time><ele>1260.2</ele></trkpt><trkpt lat="45.870408" lon="9.207343"><time>2024-05-04T09:40:05.000Z</time><ele>1260</ele></trkpt><trkpt lat="45.870422" lon="9.207353"><time>2024-05-04T09:40:06.000Z</time><ele>1259.8</ele></trkpt><trkpt lat="45.870434" lon="9.207364"><time>2024-05-04T09:40:07.000Z</time><ele>1259.6</ele></trkpt><trkpt lat="45.870444" lon="9.207373"><time>2024-05-04T09:40:08.000Z</time><ele>1259.6</ele></trkpt><trkpt lat="45.870454" lon="9.207383"><time>2024-05-04T09:40:09.000Z</time><ele>1259.4</ele></trkpt><trkpt lat="45.870465" lon="9.207393"><time>2024-05-04T09:40:10.000Z</time><ele>1259.4</ele></trkpt><trkpt lat="45.870475" lon="9.207401"><time>2024-05-04T09:40:11.000Z</time><ele>1259.2</ele></trkpt><trkpt lat="45.870487" lon="9.207406"><time>2024-05-04T09:40:12.000Z</time><ele>1259</ele></trkpt><trkpt lat="45.870499" lon="9.20741"><time>2024-05-04T09:40:13.000Z</time><ele>1258.8</ele></trkpt><trkpt lat="45.87051" lon="9.207417"><time>2024-05-04T09:40:14.000Z</time><ele>1258.8</ele></trkpt><trkpt lat="45.870522" lon="9.20742"><time>2024-05-04T09:40:15.000Z</time><ele>1258.6</ele></trkpt><trkpt lat="45.870538" lon="9.207424"><time>2024-05-04T09:40:16.000Z</time><ele>1258.6</ele></trkpt><trkpt lat="45.870547" lon="9.207434"><time>2024-05-04T09:40:17.000Z</time><ele>1258.4</ele></trkpt><trkpt lat="45.870554" lon="9.20745"><time>2024-05-04T09:40:18.000Z</time><ele>1258.2</ele></trkpt><trkpt lat="45.870566" lon="9.207464"><time>2024-05-04T09:40:19.000Z</time><ele>1258</ele></trkpt><trkpt lat="45.870573" lon="9.207481"><time>2024-05-04T09:40:20.000Z</time><ele>1258</ele></trkpt><trkpt lat="45.870579" lon="9.207486"><time>2024-05-04T09:40:21.000Z</time><ele>1258</ele></trkpt><trkpt lat="45.870582" lon="9.207491"><time>2024-05-04T09:40:22.000Z</time><ele>1257.8</ele></trkpt><trkpt lat="45.870583" lon="9.207494"><time>2024-05-04T09:40:23.000Z</time><ele>1257.8</ele></trkpt><trkpt lat="45.870584" lon="9.207495"><time>2024-05-04T09:40:24.000Z</time><ele>1257.8</ele></trkpt><trkpt lat="45.870585" lon="9.207496"><time>2024-05-04T09:40:25.000Z</time><ele>1258</ele></trkpt><trkpt lat="45.870585" lon="9.207501"><time>2024-05-04T09:40:26.000Z</time><ele>1258</ele></trkpt><trkpt lat="45.870593" lon="9.207505"><time>2024-05-04T09:40:27.000Z</time><ele>1258.2</ele></trkpt><trkpt lat="45.870601" lon="9.20751"><time>2024-05-04T09:40:28.000Z</time><ele>1258.2</ele></trkpt><trkpt lat="45.870612" lon="9.207514"><time>2024-05-04T09:40:29.000Z</time><ele>1258.2</ele></trkpt><trkpt lat="45.870623" lon="9.207519"><time>2024-05-04T09:40:30.000Z</time><ele>1258</ele></trkpt><trkpt lat="45.870633" lon="9.207526"><time>2024-05-04T09:40:31.000Z</time><ele>1258</ele></trkpt><trkpt lat="45.870639" lon="9.207528"><time>2024-05-04T09:40:32.000Z</time><ele>1257.8</ele></trkpt><trkpt lat="45.870642" lon="9.207527"><time>2024-05-04T09:40:33.000Z</time><ele>1257.8</ele></trkpt><trkpt lat="45.870643" lon="9.207526"><time>2024-05-04T09:40:34.000Z</time><ele>1257.6</ele></trkpt><trkpt lat="45.870644" lon="9.207526"><time>2024-05-04T09:40:35.000Z</time><ele>1257.6</ele></trkpt><trkpt lat="45.870645" lon="9.207525"><time>2024-05-04T09:40:36.000Z</time><ele>1257.4</ele></trkpt><trkpt lat="45.870644" lon="9.207525"><time>2024-05-04T09:40:37.000Z</time><ele>1257.4</ele></trkpt><trkpt lat="45.870644" lon="9.207526"><time>2024-05-04T09:40:38.000Z</time><ele>1257.4</ele></trkpt><trkpt lat="45.870645" lon="9.207524"><time>2024-05-04T09:40:39.000Z</time><ele>1257.4</ele></trkpt><trkpt lat="45.870646" lon="9.207523"><time>2024-05-04T09:40:40.000Z</time><ele>1257.4</ele></trkpt><trkpt lat="45.870649" lon="9.207522"><time>2024-05-04T09:40:41.000Z</time><ele>1257.4</ele></trkpt><trkpt lat="45.870651" lon="9.207519"><time>2024-05-04T09:40:42.000Z</time><ele>1257.4</ele></trkpt><trkpt lat="45.870651" lon="9.207517"><time>2024-05-04T09:40:43.000Z</time><ele>1257.2</ele></trkpt><trkpt lat="45.870652" lon="9.207519"><time>2024-05-04T09:40:44.000Z</time><ele>1257.2</ele></trkpt><trkpt lat="45.870654" lon="9.207521"><time>2024-05-04T09:40:45.000Z</time><ele>1257.2</ele></trkpt><trkpt lat="45.870654" lon="9.207521"><time>2024-05-04T09:40:46.000Z</time><ele>1257.2</ele></trkpt><trkpt lat="45.870654" lon="9.207521"><time>2024-05-04T09:40:47.000Z</time><ele>1257.2</ele></trkpt><trkpt lat="45.870654" lon="9.207521"><time>2024-05-04T09:40:48.000Z</time><ele>1257.2</ele></trkpt><trkpt lat="45.870654" lon="9.207521"><time>2024-05-04T09:40:49.000Z</time><ele>1257.2</ele></trkpt><trkpt lat="45.870654" lon="9.207521"><time>2024-05-04T09:40:50.000Z</time><ele>1257.2</ele></trkpt><trkpt lat="45.870654" lon="9.207521"><time>2024-05-04T09:40:51.000Z</time><ele>1257.4</ele></trkpt><trkpt lat="45.870654" lon="9.207521"><time>2024-05-04T09:40:52.000Z</time><ele>1257.4</ele></trkpt><trkpt lat="45.870654" lon="9.207521"><time>2024-05-04T09:40:53.000Z</time><ele>1257.4</ele></trkpt><trkpt lat="45.870654" lon="9.207521"><time>2024-05-04T09:40:54.000Z</time><ele>1257.4</ele></trkpt><trkpt lat="45.870654" lon="9.207521"><time>2024-05-04T09:40:55.000Z</time><ele>1257.2</ele></trkpt><trkpt lat="45.870654" lon="9.207521"><time>2024-05-04T09:40:56.000Z</time><ele>1257.2</ele></trkpt><trkpt lat="45.870654" lon="9.207516"><time>2024-05-04T09:40:57.000Z</time><ele>1257.2</ele></trkpt><trkpt lat="45.870651" lon="9.207492"><time>2024-05-04T09:40:58.000Z</time><ele>1257.2</ele></trkpt><trkpt lat="45.870644" lon="9.207474"><time>2024-05-04T09:40:59.000Z</time><ele>1257.2</ele></trkpt><trkpt lat="45.870635" lon="9.207454"><time>2024-05-04T09:41:00.000Z</time><ele>1257.2</ele></trkpt><trkpt lat="45.870629" lon="9.207438"><time>2024-05-04T09:41:01.000Z</time><ele>1257</ele></trkpt><trkpt lat="45.870619" lon="9.207421"><time>2024-05-04T09:41:02.000Z</time><ele>1257</ele></trkpt><trkpt lat="45.870612" lon="9.207402"><time>2024-05-04T09:41:03.000Z</time><ele>1256.8</ele></trkpt><trkpt lat="45.870604" lon="9.207387"><time>2024-05-04T09:41:04.000Z</time><ele>1256.8</ele></trkpt><trkpt lat="45.870599" lon="9.20737"><time>2024-05-04T09:41:05.000Z</time><ele>1256.8</ele></trkpt><trkpt lat="45.870594" lon="9.207349"><time>2024-05-04T09:41:06.000Z</time><ele>1256.8</ele></trkpt><trkpt lat="45.870589" lon="9.207329"><time>2024-05-04T09:41:07.000Z</time><ele>1256.8</ele></trkpt><trkpt lat="45.870581" lon="9.207316"><time>2024-05-04T09:41:08.000Z</time><ele>1256.6</ele></trkpt><trkpt lat="45.870573" lon="9.207304"><time>2024-05-04T09:41:09.000Z</time><ele>1256.6</ele></trkpt><trkpt lat="45.870566" lon="9.207293"><time>2024-05-04T09:41:10.000Z</time><ele>1256.4</ele></trkpt><trkpt lat="45.870562" lon="9.207282"><time>2024-05-04T09:41:11.000Z</time><ele>1256.4</ele></trkpt><trkpt lat="45.870557" lon="9.207277"><time>2024-05-04T09:41:12.000Z</time><ele>1256.4</ele></trkpt><trkpt lat="45.870551" lon="9.20727"><time>2024-05-04T09:41:13.000Z</time><ele>1256.4</ele></trkpt><trkpt lat="45.870544" lon="9.207264"><time>2024-05-04T09:41:14.000Z</time><ele>1256.4</ele></trkpt><trkpt lat="45.870538" lon="9.207256"><time>2024-05-04T09:41:15.000Z</time><ele>1256.4</ele></trkpt><trkpt lat="45.87053" lon="9.20725"><time>2024-05-04T09:41:16.000Z</time><ele>1256.4</ele></trkpt><trkpt lat="45.870519" lon="9.207241"><time>2024-05-04T09:41:17.000Z</time><ele>1256.4</ele></trkpt><trkpt lat="45.87051" lon="9.20723"><time>2024-05-04T09:41:18.000Z</time><ele>1256.4</ele></trkpt><trkpt lat="45.870501" lon="9.207219"><time>2024-05-04T09:41:19.000Z</time><ele>1256.4</ele></trkpt><trkpt lat="45.87049" lon="9.207206"><time>2024-05-04T09:41:20.000Z</time><ele>1256.6</ele></trkpt><trkpt lat="45.870482" lon="9.207193"><time>2024-05-04T09:41:21.000Z</time><ele>1256.6</ele></trkpt><trkpt lat="45.870475" lon="9.207166"><time>2024-05-04T09:41:22.000Z</time><ele>1256.6</ele></trkpt><trkpt lat="45.870467" lon="9.207145"><time>2024-05-04T09:41:23.000Z</time><ele>1256.6</ele></trkpt><trkpt lat="45.870461" lon="9.207129"><time>2024-05-04T09:41:24.000Z</time><ele>1256.6</ele></trkpt><trkpt lat="45.870453" lon="9.207115"><time>2024-05-04T09:41:25.000Z</time><ele>1256.6</ele></trkpt><trkpt lat="45.870445" lon="9.207105"><time>2024-05-04T09:41:26.000Z</time><ele>1256.6</ele></trkpt><trkpt lat="45.870434" lon="9.207094"><time>2024-05-04T09:41:27.000Z</time><ele>1256.6</ele></trkpt><trkpt lat="45.870423" lon="9.207078"><time>2024-05-04T09:41:28.000Z</time><ele>1256.6</ele></trkpt><trkpt lat="45.870412" lon="9.207068"><time>2024-05-04T09:41:29.000Z</time><ele>1256.6</ele></trkpt><trkpt lat="45.870401" lon="9.20706"><time>2024-05-04T09:41:30.000Z</time><ele>1256.6</ele></trkpt><trkpt lat="45.870397" lon="9.207051"><time>2024-05-04T09:41:31.000Z</time><ele>1256.6</ele></trkpt><trkpt lat="45.870398" lon="9.207037"><time>2024-05-04T09:41:32.000Z</time><ele>1256.6</ele></trkpt><trkpt lat="45.870399" lon="9.207023"><time>2024-05-04T09:41:33.000Z</time><ele>1256.6</ele></trkpt><trkpt lat="45.870394" lon="9.207017"><time>2024-05-04T09:41:34.000Z</time><ele>1256.6</ele></trkpt><trkpt lat="45.870382" lon="9.207014"><time>2024-05-04T09:41:35.000Z</time><ele>1256.6</ele></trkpt><trkpt lat="45.870375" lon="9.207006"><time>2024-05-04T09:41:36.000Z</time><ele>1256.6</ele></trkpt><trkpt lat="45.870367" lon="9.206992"><time>2024-05-04T09:41:37.000Z</time><ele>1256.4</ele></trkpt><trkpt lat="45.870362" lon="9.206976"><time>2024-05-04T09:41:38.000Z</time><ele>1256.4</ele></trkpt><trkpt lat="45.870357" lon="9.20696"><time>2024-05-04T09:41:39.000Z</time><ele>1256.4</ele></trkpt><trkpt lat="45.870356" lon="9.206946"><time>2024-05-04T09:41:40.000Z</time><ele>1256.4</ele></trkpt><trkpt lat="45.87035" lon="9.206933"><time>2024-05-04T09:41:41.000Z</time><ele>1256.4</ele></trkpt><trkpt lat="45.870346" lon="9.206916"><time>2024-05-04T09:41:42.000Z</time><ele>1256.4</ele></trkpt><trkpt lat="45.87034" lon="9.206898"><time>2024-05-04T09:41:43.000Z</time><ele>1256.4</ele></trkpt><trkpt lat="45.87033" lon="9.206882"><time>2024-05-04T09:41:44.000Z</time><ele>1256.4</ele></trkpt><trkpt lat="45.870316" lon="9.206869"><time>2024-05-04T09:41:45.000Z</time><ele>1256.4</ele></trkpt><trkpt lat="45.870306" lon="9.206855"><time>2024-05-04T09:41:46.000Z</time><ele>1256.6</ele></trkpt><trkpt lat="45.870302" lon="9.206842"><time>2024-05-04T09:41:47.000Z</time><ele>1256.6</ele></trkpt><trkpt lat="45.870298" lon="9.206833"><time>2024-05-04T09:41:48.000Z</time><ele>1256.8</ele></trkpt><trkpt lat="45.870293" lon="9.206824"><time>2024-05-04T09:41:49.000Z</time><ele>1256.8</ele></trkpt><trkpt lat="45.870292" lon="9.206808"><time>2024-05-04T09:41:50.000Z</time><ele>1256.8</ele></trkpt><trkpt lat="45.870288" lon="9.206797"><time>2024-05-04T09:41:51.000Z</time><ele>1256.8</ele></trkpt><trkpt lat="45.870283" lon="9.206781"><time>2024-05-04T09:41:52.000Z</time><ele>1256.8</ele></trkpt><trkpt lat="45.870277" lon="9.206763"><time>2024-05-04T09:41:53.000Z</time><ele>1257</ele></trkpt><trkpt lat="45.870275" lon="9.206747"><time>2024-05-04T09:41:54.000Z</time><ele>1257</ele></trkpt><trkpt lat="45.870273" lon="9.20673"><time>2024-05-04T09:41:55.000Z</time><ele>1257</ele></trkpt><trkpt lat="45.870267" lon="9.206716"><time>2024-05-04T09:41:56.000Z</time><ele>1257</ele></trkpt><trkpt lat="45.870258" lon="9.206706"><time>2024-05-04T09:41:57.000Z</time><ele>1257</ele></trkpt><trkpt lat="45.870254" lon="9.206698"><time>2024-05-04T09:41:58.000Z</time><ele>1257</ele></trkpt><trkpt lat="45.870246" lon="9.206685"><time>2024-05-04T09:41:59.000Z</time><ele>1257</ele></trkpt><trkpt lat="45.870239" lon="9.206673"><time>2024-05-04T09:42:00.000Z</time><ele>1257</ele></trkpt><trkpt lat="45.870234" lon="9.206656"><time>2024-05-04T09:42:01.000Z</time><ele>1257</ele></trkpt><trkpt lat="45.870229" lon="9.206641"><time>2024-05-04T09:42:02.000Z</time><ele>1257</ele></trkpt><trkpt lat="45.870223" lon="9.206626"><time>2024-05-04T09:42:03.000Z</time><ele>1257.2</ele></trkpt><trkpt lat="45.870216" lon="9.206612"><time>2024-05-04T09:42:04.000Z</time><ele>1257.2</ele></trkpt><trkpt lat="45.870209" lon="9.2066"><time>2024-05-04T09:42:05.000Z</time><ele>1257.2</ele></trkpt><trkpt lat="45.870204" lon="9.206587"><time>2024-05-04T09:42:06.000Z</time><ele>1257.2</ele></trkpt><trkpt lat="45.870198" lon="9.206576"><time>2024-05-04T09:42:07.000Z</time><ele>1257.4</ele></trkpt><trkpt lat="45.870191" lon="9.206569"><time>2024-05-04T09:42:08.000Z</time><ele>1257.4</ele></trkpt><trkpt lat="45.87018" lon="9.206558"><time>2024-05-04T09:42:09.000Z</time><ele>1257.4</ele></trkpt><trkpt lat="45.870168" lon="9.206547"><time>2024-05-04T09:42:10.000Z</time><ele>1257.6</ele></trkpt><trkpt lat="45.870155" lon="9.206541"><time>2024-05-04T09:42:11.000Z</time><ele>1257.8</ele></trkpt><trkpt lat="45.870153" lon="9.206537"><time>2024-05-04T09:42:12.000Z</time><ele>1258</ele></trkpt><trkpt lat="45.870144" lon="9.206528"><time>2024-05-04T09:42:13.000Z</time><ele>1258.2</ele></trkpt><trkpt lat="45.870138" lon="9.206522"><time>2024-05-04T09:42:14.000Z</time><ele>1258.4</ele></trkpt><trkpt lat="45.870132" lon="9.206517"><time>2024-05-04T09:42:15.000Z</time><ele>1258.4</ele></trkpt><trkpt lat="45.870125" lon="9.206508"><time>2024-05-04T09:42:16.000Z</time><ele>1258.6</ele></trkpt><trkpt lat="45.870116" lon="9.206494"><time>2024-05-04T09:42:17.000Z</time><ele>1258.8</ele></trkpt><trkpt lat="45.870108" lon="9.206485"><time>2024-05-04T09:42:18.000Z</time><ele>1258.8</ele></trkpt><trkpt lat="45.870103" lon="9.206478"><time>2024-05-04T09:42:19.000Z</time><ele>1259</ele></trkpt><trkpt lat="45.8701" lon="9.206468"><time>2024-05-04T09:42:20.000Z</time><ele>1259.2</ele></trkpt><trkpt lat="45.870098" lon="9.206458"><time>2024-05-04T09:42:21.000Z</time><ele>1259.4</ele></trkpt><trkpt lat="45.870091" lon="9.206448"><time>2024-05-04T09:42:22.000Z</time><ele>1259.4</ele></trkpt><trkpt lat="45.870079" lon="9.206436"><time>2024-05-04T09:42:23.000Z</time><ele>1259.6</ele></trkpt><trkpt lat="45.870065" lon="9.206436"><time>2024-05-04T09:42:24.000Z</time><ele>1259.8</ele></trkpt><trkpt lat="45.870047" lon="9.206435"><time>2024-05-04T09:42:25.000Z</time><ele>1259.8</ele></trkpt><trkpt lat="45.87003" lon="9.206435"><time>2024-05-04T09:42:26.000Z</time><ele>1260</ele></trkpt><trkpt lat="45.870011" lon="9.206431"><time>2024-05-04T09:42:27.000Z</time><ele>1260.2</ele></trkpt><trkpt lat="45.869999" lon="9.206421"><time>2024-05-04T09:42:28.000Z</time><ele>1260.2</ele></trkpt><trkpt lat="45.869997" lon="9.206415"><time>2024-05-04T09:42:29.000Z</time><ele>1260.2</ele></trkpt><trkpt lat="45.869988" lon="9.206402"><time>2024-05-04T09:42:30.000Z</time><ele>1260.2</ele></trkpt><trkpt lat="45.869982" lon="9.206386"><time>2024-05-04T09:42:31.000Z</time><ele>1260.2</ele></trkpt><trkpt lat="45.869973" lon="9.206371"><time>2024-05-04T09:42:32.000Z</time><ele>1260.4</ele></trkpt><trkpt lat="45.869964" lon="9.206357"><time>2024-05-04T09:42:33.000Z</time><ele>1260.4</ele></trkpt><trkpt lat="45.869955" lon="9.206341"><time>2024-05-04T09:42:34.000Z</time><ele>1260.4</ele></trkpt><trkpt lat="45.869941" lon="9.206332"><time>2024-05-04T09:42:35.000Z</time><ele>1260.4</ele></trkpt><trkpt lat="45.869927" lon="9.206321"><time>2024-05-04T09:42:36.000Z</time><ele>1260.2</ele></trkpt><trkpt lat="45.869915" lon="9.206307"><time>2024-05-04T09:42:37.000Z</time><ele>1260.2</ele></trkpt><trkpt lat="45.869899" lon="9.206294"><time>2024-05-04T09:42:38.000Z</time><ele>1260.2</ele></trkpt><trkpt lat="45.869885" lon="9.206281"><time>2024-05-04T09:42:39.000Z</time><ele>1260.2</ele></trkpt><trkpt lat="45.869872" lon="9.206267"><time>2024-05-04T09:42:40.000Z</time><ele>1260.2</ele></trkpt><trkpt lat="45.869861" lon="9.206254"><time>2024-05-04T09:42:41.000Z</time><ele>1260.2</ele></trkpt><trkpt lat="45.869853" lon="9.206244"><time>2024-05-04T09:42:42.000Z</time><ele>1260.2</ele></trkpt><trkpt lat="45.869846" lon="9.206234"><time>2024-05-04T09:42:43.000Z</time><ele>1260.2</ele></trkpt><trkpt lat="45.869832" lon="9.206219"><time>2024-05-04T09:42:44.000Z</time><ele>1260.2</ele></trkpt><trkpt lat="45.869824" lon="9.206218"><time>2024-05-04T09:42:45.000Z</time><ele>1260.2</ele></trkpt><trkpt lat="45.869815" lon="9.206216"><time>2024-05-04T09:42:46.000Z</time><ele>1260.2</ele></trkpt><trkpt lat="45.869803" lon="9.206217"><time>2024-05-04T09:42:47.000Z</time><ele>1260.2</ele></trkpt><trkpt lat="45.869795" lon="9.206219"><time>2024-05-04T09:42:48.000Z</time><ele>1260.2</ele></trkpt><trkpt lat="45.869784" lon="9.20622"><time>2024-05-04T09:42:49.000Z</time><ele>1260.2</ele></trkpt><trkpt lat="45.869774" lon="9.206217"><time>2024-05-04T09:42:50.000Z</time><ele>1260.2</ele></trkpt><trkpt lat="45.86976" lon="9.206205"><time>2024-05-04T09:42:51.000Z</time><ele>1260.4</ele></trkpt><trkpt lat="45.869747" lon="9.206195"><time>2024-05-04T09:42:52.000Z</time><ele>1260.4</ele></trkpt><trkpt lat="45.869738" lon="9.206185"><time>2024-05-04T09:42:53.000Z</time><ele>1260.4</ele></trkpt><trkpt lat="45.869728" lon="9.206173"><time>2024-05-04T09:42:54.000Z</time><ele>1260.4</ele></trkpt><trkpt lat="45.869718" lon="9.206161"><time>2024-05-04T09:42:55.000Z</time><ele>1260.4</ele></trkpt><trkpt lat="45.869695" lon="9.206127"><time>2024-05-04T09:42:56.000Z</time><ele>1260.4</ele></trkpt><trkpt lat="45.869691" lon="9.206122"><time>2024-05-04T09:42:57.000Z</time><ele>1260.4</ele></trkpt><trkpt lat="45.869676" lon="9.206106"><time>2024-05-04T09:42:58.000Z</time><ele>1260.6</ele></trkpt><trkpt lat="45.869668" lon="9.206095"><time>2024-05-04T09:42:59.000Z</time><ele>1260.8</ele></trkpt><trkpt lat="45.869659" lon="9.206079"><time>2024-05-04T09:43:00.000Z</time><ele>1260.8</ele></trkpt><trkpt lat="45.869646" lon="9.206062"><time>2024-05-04T09:43:01.000Z</time><ele>1261</ele></trkpt><trkpt lat="45.869633" lon="9.206047"><time>2024-05-04T09:43:02.000Z</time><ele>1261</ele></trkpt><trkpt lat="45.869623" lon="9.206028"><time>2024-05-04T09:43:03.000Z</time><ele>1261</ele></trkpt><trkpt lat="45.869609" lon="9.206013"><time>2024-05-04T09:43:04.000Z</time><ele>1261</ele></trkpt><trkpt lat="45.869597" lon="9.205999"><time>2024-05-04T09:43:05.000Z</time><ele>1261</ele></trkpt><trkpt lat="45.869581" lon="9.20599"><time>2024-05-04T09:43:06.000Z</time><ele>1261</ele></trkpt><trkpt lat="45.869569" lon="9.205981"><time>2024-05-04T09:43:07.000Z</time><ele>1261</ele></trkpt><trkpt lat="45.869555" lon="9.205972"><time>2024-05-04T09:43:08.000Z</time><ele>1261</ele></trkpt><trkpt lat="45.869539" lon="9.205967"><time>2024-05-04T09:43:09.000Z</time><ele>1261</ele></trkpt><trkpt lat="45.869528" lon="9.205966"><time>2024-05-04T09:43:10.000Z</time><ele>1261</ele></trkpt><trkpt lat="45.869519" lon="9.20596"><time>2024-05-04T09:43:11.000Z</time><ele>1261</ele></trkpt><trkpt lat="45.869507" lon="9.205955"><time>2024-05-04T09:43:12.000Z</time><ele>1261</ele></trkpt><trkpt lat="45.869496" lon="9.205947"><time>2024-05-04T09:43:13.000Z</time><ele>1261</ele></trkpt><trkpt lat="45.869485" lon="9.205932"><time>2024-05-04T09:43:14.000Z</time><ele>1261</ele></trkpt><trkpt lat="45.869474" lon="9.205917"><time>2024-05-04T09:43:15.000Z</time><ele>1261</ele></trkpt><trkpt lat="45.869462" lon="9.205909"><time>2024-05-04T09:43:16.000Z</time><ele>1261.2</ele></trkpt><trkpt lat="45.86945" lon="9.2059"><time>2024-05-04T09:43:17.000Z</time><ele>1261.4</ele></trkpt><trkpt lat="45.869442" lon="9.205893"><time>2024-05-04T09:43:18.000Z</time><ele>1261.4</ele></trkpt><trkpt lat="45.869431" lon="9.205885"><time>2024-05-04T09:43:19.000Z</time><ele>1261.4</ele></trkpt><trkpt lat="45.869415" lon="9.205879"><time>2024-05-04T09:43:20.000Z</time><ele>1261.4</ele></trkpt><trkpt lat="45.869398" lon="9.205875"><time>2024-05-04T09:43:21.000Z</time><ele>1261.4</ele></trkpt><trkpt lat="45.869382" lon="9.20587"><time>2024-05-04T09:43:22.000Z</time><ele>1261.4</ele></trkpt><trkpt lat="45.869371" lon="9.205866"><time>2024-05-04T09:43:23.000Z</time><ele>1261.4</ele></trkpt><trkpt lat="45.869362" lon="9.20586"><time>2024-05-04T09:43:24.000Z</time><ele>1261.6</ele></trkpt><trkpt lat="45.869353" lon="9.205851"><time>2024-05-04T09:43:25.000Z</time><ele>1261.6</ele></trkpt><trkpt lat="45.869344" lon="9.205845"><time>2024-05-04T09:43:26.000Z</time><ele>1261.6</ele></trkpt><trkpt lat="45.869334" lon="9.205842"><time>2024-05-04T09:43:27.000Z</time><ele>1261.6</ele></trkpt><trkpt lat="45.869323" lon="9.205837"><time>2024-05-04T09:43:28.000Z</time><ele>1261.6</ele></trkpt><trkpt lat="45.869312" lon="9.205826"><time>2024-05-04T09:43:29.000Z</time><ele>1261.6</ele></trkpt><trkpt lat="45.8693" lon="9.205813"><time>2024-05-04T09:43:30.000Z</time><ele>1261.6</ele></trkpt><trkpt lat="45.86929" lon="9.205802"><time>2024-05-04T09:43:31.000Z</time><ele>1261.6</ele></trkpt><trkpt lat="45.86928" lon="9.205791"><time>2024-05-04T09:43:32.000Z</time><ele>1261.8</ele></trkpt><trkpt lat="45.869271" lon="9.205782"><time>2024-05-04T09:43:33.000Z</time><ele>1261.8</ele></trkpt><trkpt lat="45.869262" lon="9.205773"><time>2024-05-04T09:43:34.000Z</time><ele>1261.8</ele></trkpt><trkpt lat="45.869255" lon="9.205763"><time>2024-05-04T09:43:35.000Z</time><ele>1262</ele></trkpt><trkpt lat="45.869249" lon="9.205751"><time>2024-05-04T09:43:36.000Z</time><ele>1261.8</ele></trkpt><trkpt lat="45.869239" lon="9.205737"><time>2024-05-04T09:43:37.000Z</time><ele>1262</ele></trkpt><trkpt lat="45.869231" lon="9.205726"><time>2024-05-04T09:43:38.000Z</time><ele>1262.2</ele></trkpt><trkpt lat="45.869224" lon="9.205711"><time>2024-05-04T09:43:39.000Z</time><ele>1262.2</ele></trkpt><trkpt lat="45.869215" lon="9.2057"><time>2024-05-04T09:43:40.000Z</time><ele>1262.2</ele></trkpt><trkpt lat="45.869203" lon="9.205689"><time>2024-05-04T09:43:41.000Z</time><ele>1262.2</ele></trkpt><trkpt lat="45.869192" lon="9.205679"><time>2024-05-04T09:43:42.000Z</time><ele>1262.4</ele></trkpt><trkpt lat="45.86918" lon="9.205671"><time>2024-05-04T09:43:43.000Z</time><ele>1262.4</ele></trkpt><trkpt lat="45.86917" lon="9.205658"><time>2024-05-04T09:43:44.000Z</time><ele>1262.4</ele></trkpt><trkpt lat="45.869162" lon="9.205644"><time>2024-05-04T09:43:45.000Z</time><ele>1262.4</ele></trkpt><trkpt lat="45.869151" lon="9.205625"><time>2024-05-04T09:43:46.000Z</time><ele>1262.4</ele></trkpt><trkpt lat="45.869137" lon="9.205612"><time>2024-05-04T09:43:47.000Z</time><ele>1262.4</ele></trkpt><trkpt lat="45.869127" lon="9.2056"><time>2024-05-04T09:43:48.000Z</time><ele>1262.6</ele></trkpt><trkpt lat="45.869118" lon="9.205586"><time>2024-05-04T09:43:49.000Z</time><ele>1262.6</ele></trkpt><trkpt lat="45.869107" lon="9.205573"><time>2024-05-04T09:43:50.000Z</time><ele>1262.6</ele></trkpt><trkpt lat="45.869096" lon="9.205559"><time>2024-05-04T09:43:51.000Z</time><ele>1262.6</ele></trkpt><trkpt lat="45.869086" lon="9.205543"><time>2024-05-04T09:43:52.000Z</time><ele>1262.6</ele></trkpt><trkpt lat="45.869079" lon="9.205529"><time>2024-05-04T09:43:53.000Z</time><ele>1262.6</ele></trkpt><trkpt lat="45.869072" lon="9.205513"><time>2024-05-04T09:43:54.000Z</time><ele>1262.6</ele></trkpt><trkpt lat="45.869065" lon="9.2055"><time>2024-05-04T09:43:55.000Z</time><ele>1262.8</ele></trkpt><trkpt lat="45.869056" lon="9.205488"><time>2024-05-04T09:43:56.000Z</time><ele>1262.8</ele></trkpt><trkpt lat="45.869048" lon="9.205476"><time>2024-05-04T09:43:57.000Z</time><ele>1262.8</ele></trkpt><trkpt lat="45.869045" lon="9.205458"><time>2024-05-04T09:43:58.000Z</time><ele>1262.8</ele></trkpt><trkpt lat="45.869037" lon="9.205444"><time>2024-05-04T09:43:59.000Z</time><ele>1263</ele></trkpt><trkpt lat="45.869027" lon="9.205428"><time>2024-05-04T09:44:00.000Z</time><ele>1263.2</ele></trkpt><trkpt lat="45.869019" lon="9.205413"><time>2024-05-04T09:44:01.000Z</time><ele>1263.2</ele></trkpt><trkpt lat="45.869009" lon="9.205395"><time>2024-05-04T09:44:02.000Z</time><ele>1263.4</ele></trkpt><trkpt lat="45.869005" lon="9.205373"><time>2024-05-04T09:44:03.000Z</time><ele>1263.4</ele></trkpt><trkpt lat="45.869001" lon="9.205352"><time>2024-05-04T09:44:04.000Z</time><ele>1263.4</ele></trkpt><trkpt lat="45.868997" lon="9.205333"><time>2024-05-04T09:44:05.000Z</time><ele>1263.4</ele></trkpt><trkpt lat="45.868993" lon="9.205315"><time>2024-05-04T09:44:06.000Z</time><ele>1263.4</ele></trkpt><trkpt lat="45.868997" lon="9.205293"><time>2024-05-04T09:44:07.000Z</time><ele>1263.6</ele></trkpt><trkpt lat="45.868992" lon="9.205272"><time>2024-05-04T09:44:08.000Z</time><ele>1263.6</ele></trkpt><trkpt lat="45.868986" lon="9.205254"><time>2024-05-04T09:44:09.000Z</time><ele>1263.8</ele></trkpt><trkpt lat="45.868985" lon="9.205234"><time>2024-05-04T09:44:10.000Z</time><ele>1263.8</ele></trkpt><trkpt lat="45.868986" lon="9.205218"><time>2024-05-04T09:44:11.000Z</time><ele>1263.8</ele></trkpt><trkpt lat="45.868986" lon="9.205198"><time>2024-05-04T09:44:12.000Z</time><ele>1263.8</ele></trkpt><trkpt lat="45.868981" lon="9.205182"><time>2024-05-04T09:44:13.000Z</time><ele>1263.8</ele></trkpt><trkpt lat="45.868974" lon="9.205164"><time>2024-05-04T09:44:14.000Z</time><ele>1263.8</ele></trkpt><trkpt lat="45.868969" lon="9.205149"><time>2024-05-04T09:44:15.000Z</time><ele>1263.8</ele></trkpt><trkpt lat="45.868966" lon="9.205132"><time>2024-05-04T09:44:16.000Z</time><ele>1264</ele></trkpt><trkpt lat="45.868964" lon="9.205111"><time>2024-05-04T09:44:17.000Z</time><ele>1264</ele></trkpt><trkpt lat="45.868959" lon="9.205089"><time>2024-05-04T09:44:18.000Z</time><ele>1264.2</ele></trkpt><trkpt lat="45.868956" lon="9.205071"><time>2024-05-04T09:44:19.000Z</time><ele>1264.2</ele></trkpt><trkpt lat="45.868949" lon="9.205063"><time>2024-05-04T09:44:20.000Z</time><ele>1264.4</ele></trkpt><trkpt lat="45.868941" lon="9.20505"><time>2024-05-04T09:44:21.000Z</time><ele>1264.4</ele></trkpt><trkpt lat="45.868933" lon="9.205031"><time>2024-05-04T09:44:22.000Z</time><ele>1264.4</ele></trkpt><trkpt lat="45.868928" lon="9.205016"><time>2024-05-04T09:44:23.000Z</time><ele>1264.4</ele></trkpt><trkpt lat="45.868923" lon="9.204999"><time>2024-05-04T09:44:24.000Z</time><ele>1264.6</ele></trkpt><trkpt lat="45.868913" lon="9.204982"><time>2024-05-04T09:44:25.000Z</time><ele>1264.6</ele></trkpt><trkpt lat="45.868907" lon="9.204967"><time>2024-05-04T09:44:26.000Z</time><ele>1264.6</ele></trkpt><trkpt lat="45.868903" lon="9.204947"><time>2024-05-04T09:44:27.000Z</time><ele>1264.6</ele></trkpt><trkpt lat="45.8689" lon="9.204927"><time>2024-05-04T09:44:28.000Z</time><ele>1264.8</ele></trkpt><trkpt lat="45.868895" lon="9.204911"><time>2024-05-04T09:44:29.000Z</time><ele>1265</ele></trkpt><trkpt lat="45.86889" lon="9.204897"><time>2024-05-04T09:44:30.000Z</time><ele>1265.2</ele></trkpt><trkpt lat="45.868893" lon="9.204879"><time>2024-05-04T09:44:31.000Z</time><ele>1265.2</ele></trkpt><trkpt lat="45.868898" lon="9.204867"><time>2024-05-04T09:44:32.000Z</time><ele>1265.2</ele></trkpt><trkpt lat="45.868897" lon="9.20485"><time>2024-05-04T09:44:33.000Z</time><ele>1265.2</ele></trkpt><trkpt lat="45.868889" lon="9.204833"><time>2024-05-04T09:44:34.000Z</time><ele>1265.2</ele></trkpt><trkpt lat="45.868887" lon="9.204812"><time>2024-05-04T09:44:35.000Z</time><ele>1265.2</ele></trkpt><trkpt lat="45.868885" lon="9.20479"><time>2024-05-04T09:44:36.000Z</time><ele>1265.2</ele></trkpt><trkpt lat="45.868876" lon="9.204778"><time>2024-05-04T09:44:37.000Z</time><ele>1265.2</ele></trkpt><trkpt lat="45.868873" lon="9.204762"><time>2024-05-04T09:44:38.000Z</time><ele>1265.2</ele></trkpt><trkpt lat="45.868878" lon="9.204747"><time>2024-05-04T09:44:39.000Z</time><ele>1265.2</ele></trkpt><trkpt lat="45.868876" lon="9.204724"><time>2024-05-04T09:44:40.000Z</time><ele>1265.2</ele></trkpt><trkpt lat="45.868872" lon="9.204709"><time>2024-05-04T09:44:41.000Z</time><ele>1265.2</ele></trkpt><trkpt lat="45.868869" lon="9.204693"><time>2024-05-04T09:44:42.000Z</time><ele>1265.2</ele></trkpt><trkpt lat="45.868867" lon="9.204678"><time>2024-05-04T09:44:43.000Z</time><ele>1265.2</ele></trkpt><trkpt lat="45.868865" lon="9.204664"><time>2024-05-04T09:44:44.000Z</time><ele>1265.2</ele></trkpt><trkpt lat="45.868868" lon="9.204649"><time>2024-05-04T09:44:45.000Z</time><ele>1265.2</ele></trkpt><trkpt lat="45.868869" lon="9.204639"><time>2024-05-04T09:44:46.000Z</time><ele>1265.2</ele></trkpt><trkpt lat="45.868866" lon="9.204622"><time>2024-05-04T09:44:47.000Z</time><ele>1265.4</ele></trkpt><trkpt lat="45.868867" lon="9.204608"><time>2024-05-04T09:44:48.000Z</time><ele>1265.4</ele></trkpt><trkpt lat="45.86886" lon="9.204593"><time>2024-05-04T09:44:49.000Z</time><ele>1265.6</ele></trkpt><trkpt lat="45.868858" lon="9.204581"><time>2024-05-04T09:44:50.000Z</time><ele>1265.6</ele></trkpt><trkpt lat="45.86886" lon="9.204566"><time>2024-05-04T09:44:51.000Z</time><ele>1265.8</ele></trkpt><trkpt lat="45.868863" lon="9.204551"><time>2024-05-04T09:44:52.000Z</time><ele>1266</ele></trkpt><trkpt lat="45.868866" lon="9.204532"><time>2024-05-04T09:44:53.000Z</time><ele>1266</ele></trkpt><trkpt lat="45.868873" lon="9.204514"><time>2024-05-04T09:44:54.000Z</time><ele>1266</ele></trkpt><trkpt lat="45.868882" lon="9.204494"><time>2024-05-04T09:44:55.000Z</time><ele>1266.2</ele></trkpt><trkpt lat="45.86889" lon="9.204474"><time>2024-05-04T09:44:56.000Z</time><ele>1266.2</ele></trkpt><trkpt lat="45.868898" lon="9.204449"><time>2024-05-04T09:44:57.000Z</time><ele>1266.2</ele></trkpt><trkpt lat="45.8689" lon="9.204425"><time>2024-05-04T09:44:58.000Z</time><ele>1266</ele></trkpt><trkpt lat="45.868896" lon="9.204402"><time>2024-05-04T09:44:59.000Z</time><ele>1266</ele></trkpt><trkpt lat="45.868889" lon="9.204381"><time>2024-05-04T09:45:00.000Z</time><ele>1266</ele></trkpt><trkpt lat="45.868891" lon="9.204358"><time>2024-05-04T09:45:01.000Z</time><ele>1266</ele></trkpt><trkpt lat="45.868886" lon="9.204342"><time>2024-05-04T09:45:02.000Z</time><ele>1266</ele></trkpt><trkpt lat="45.868881" lon="9.204325"><time>2024-05-04T09:45:03.000Z</time><ele>1266</ele></trkpt><trkpt lat="45.868877" lon="9.20431"><time>2024-05-04T09:45:04.000Z</time><ele>1266.2</ele></trkpt><trkpt lat="45.868872" lon="9.204285"><time>2024-05-04T09:45:05.000Z</time><ele>1266.2</ele></trkpt><trkpt lat="45.868874" lon="9.204257"><time>2024-05-04T09:45:06.000Z</time><ele>1266.4</ele></trkpt><trkpt lat="45.868878" lon="9.204231"><time>2024-05-04T09:45:07.000Z</time><ele>1266.4</ele></trkpt><trkpt lat="45.868878" lon="9.204212"><time>2024-05-04T09:45:08.000Z</time><ele>1266.4</ele></trkpt><trkpt lat="45.868874" lon="9.204201"><time>2024-05-04T09:45:09.000Z</time><ele>1266.6</ele></trkpt><trkpt lat="45.868873" lon="9.20419"><time>2024-05-04T09:45:10.000Z</time><ele>1266.4</ele></trkpt><trkpt lat="45.868869" lon="9.204183"><time>2024-05-04T09:45:11.000Z</time><ele>1266.6</ele></trkpt><trkpt lat="45.868872" lon="9.204179"><time>2024-05-04T09:45:12.000Z</time><ele>1266.6</ele></trkpt><trkpt lat="45.868879" lon="9.204165"><time>2024-05-04T09:45:13.000Z</time><ele>1266.6</ele></trkpt><trkpt lat="45.868879" lon="9.204149"><time>2024-05-04T09:45:14.000Z</time><ele>1266.6</ele></trkpt><trkpt lat="45.868873" lon="9.204128"><time>2024-05-04T09:45:15.000Z</time><ele>1266.6</ele></trkpt><trkpt lat="45.868857" lon="9.204102"><time>2024-05-04T09:45:16.000Z</time><ele>1266.8</ele></trkpt><trkpt lat="45.86885" lon="9.204079"><time>2024-05-04T09:45:17.000Z</time><ele>1266.8</ele></trkpt><trkpt lat="45.868849" lon="9.204063"><time>2024-05-04T09:45:18.000Z</time><ele>1267</ele></trkpt><trkpt lat="45.868848" lon="9.204053"><time>2024-05-04T09:45:19.000Z</time><ele>1267</ele></trkpt><trkpt lat="45.868849" lon="9.204034"><time>2024-05-04T09:45:20.000Z</time><ele>1267</ele></trkpt><trkpt lat="45.868847" lon="9.204021"><time>2024-05-04T09:45:21.000Z</time><ele>1267.2</ele></trkpt><trkpt lat="45.868844" lon="9.204007"><time>2024-05-04T09:45:22.000Z</time><ele>1267.2</ele></trkpt><trkpt lat="45.868844" lon="9.203989"><time>2024-05-04T09:45:23.000Z</time><ele>1267.2</ele></trkpt><trkpt lat="45.86884" lon="9.203976"><time>2024-05-04T09:45:24.000Z</time><ele>1267.4</ele></trkpt><trkpt lat="45.868836" lon="9.20396"><time>2024-05-04T09:45:25.000Z</time><ele>1267.4</ele></trkpt><trkpt lat="45.868833" lon="9.203942"><time>2024-05-04T09:45:26.000Z</time><ele>1267.4</ele></trkpt><trkpt lat="45.868831" lon="9.203924"><time>2024-05-04T09:45:27.000Z</time><ele>1267.4</ele></trkpt><trkpt lat="45.868834" lon="9.203907"><time>2024-05-04T09:45:28.000Z</time><ele>1267.4</ele></trkpt><trkpt lat="45.868836" lon="9.203888"><time>2024-05-04T09:45:29.000Z</time><ele>1267.4</ele></trkpt><trkpt lat="45.868838" lon="9.203876"><time>2024-05-04T09:45:30.000Z</time><ele>1267.4</ele></trkpt><trkpt lat="45.868837" lon="9.203864"><time>2024-05-04T09:45:31.000Z</time><ele>1267.4</ele></trkpt><trkpt lat="45.868836" lon="9.203853"><time>2024-05-04T09:45:32.000Z</time><ele>1267.6</ele></trkpt><trkpt lat="45.868835" lon="9.203842"><time>2024-05-04T09:45:33.000Z</time><ele>1267.6</ele></trkpt><trkpt lat="45.868834" lon="9.20383"><time>2024-05-04T09:45:34.000Z</time><ele>1267.8</ele></trkpt><trkpt lat="45.868842" lon="9.203817"><time>2024-05-04T09:45:35.000Z</time><ele>1268</ele></trkpt><trkpt lat="45.868847" lon="9.203801"><time>2024-05-04T09:45:36.000Z</time><ele>1268</ele></trkpt><trkpt lat="45.868856" lon="9.203788"><time>2024-05-04T09:45:37.000Z</time><ele>1268</ele></trkpt><trkpt lat="45.868865" lon="9.203775"><time>2024-05-04T09:45:38.000Z</time><ele>1268.2</ele></trkpt><trkpt lat="45.868874" lon="9.203761"><time>2024-05-04T09:45:39.000Z</time><ele>1268.2</ele></trkpt><trkpt lat="45.868873" lon="9.203744"><time>2024-05-04T09:45:40.000Z</time><ele>1268</ele></trkpt><trkpt lat="45.86887" lon="9.20373"><time>2024-05-04T09:45:41.000Z</time><ele>1267.8</ele></trkpt><trkpt lat="45.868865" lon="9.203722"><time>2024-05-04T09:45:42.000Z</time><ele>1267.6</ele></trkpt><trkpt lat="45.868869" lon="9.203709"><time>2024-05-04T09:45:43.000Z</time><ele>1267.4</ele></trkpt><trkpt lat="45.868877" lon="9.203691"><time>2024-05-04T09:45:44.000Z</time><ele>1267.2</ele></trkpt><trkpt lat="45.868882" lon="9.203672"><time>2024-05-04T09:45:45.000Z</time><ele>1267</ele></trkpt><trkpt lat="45.868894" lon="9.203656"><time>2024-05-04T09:45:46.000Z</time><ele>1266.8</ele></trkpt><trkpt lat="45.868903" lon="9.203639"><time>2024-05-04T09:45:47.000Z</time><ele>1266.6</ele></trkpt><trkpt lat="45.868907" lon="9.203619"><time>2024-05-04T09:45:48.000Z</time><ele>1266.4</ele></trkpt><trkpt lat="45.868909" lon="9.203598"><time>2024-05-04T09:45:49.000Z</time><ele>1266.4</ele></trkpt><trkpt lat="45.86891" lon="9.203574"><time>2024-05-04T09:45:50.000Z</time><ele>1266.4</ele></trkpt><trkpt lat="45.868909" lon="9.203552"><time>2024-05-04T09:45:51.000Z</time><ele>1266.4</ele></trkpt><trkpt lat="45.868907" lon="9.20353"><time>2024-05-04T09:45:52.000Z</time><ele>1266.2</ele></trkpt><trkpt lat="45.868898" lon="9.203514"><time>2024-05-04T09:45:53.000Z</time><ele>1266.2</ele></trkpt><trkpt lat="45.868897" lon="9.203499"><time>2024-05-04T09:45:54.000Z</time><ele>1266.2</ele></trkpt><trkpt lat="45.868899" lon="9.203476"><time>2024-05-04T09:45:55.000Z</time><ele>1266.2</ele></trkpt><trkpt lat="45.868902" lon="9.203454"><time>2024-05-04T09:45:56.000Z</time><ele>1266.2</ele></trkpt><trkpt lat="45.868906" lon="9.203449"><time>2024-05-04T09:45:57.000Z</time><ele>1266.4</ele></trkpt><trkpt lat="45.868912" lon="9.203447"><time>2024-05-04T09:45:58.000Z</time><ele>1266.4</ele></trkpt><trkpt lat="45.868912" lon="9.203442"><time>2024-05-04T09:45:59.000Z</time><ele>1266.6</ele></trkpt><trkpt lat="45.868929" lon="9.203411"><time>2024-05-04T09:46:00.000Z</time><ele>1266.6</ele></trkpt><trkpt lat="45.868922" lon="9.203394"><time>2024-05-04T09:46:01.000Z</time><ele>1266.8</ele></trkpt><trkpt lat="45.868916" lon="9.203383"><time>2024-05-04T09:46:02.000Z</time><ele>1266.8</ele></trkpt><trkpt lat="45.868915" lon="9.203361"><time>2024-05-04T09:46:03.000Z</time><ele>1267</ele></trkpt><trkpt lat="45.868906" lon="9.203344"><time>2024-05-04T09:46:04.000Z</time><ele>1267.2</ele></trkpt><trkpt lat="45.868892" lon="9.203324"><time>2024-05-04T09:46:05.000Z</time><ele>1267.2</ele></trkpt><trkpt lat="45.868903" lon="9.203298"><time>2024-05-04T09:46:06.000Z</time><ele>1267.6</ele></trkpt><trkpt lat="45.868913" lon="9.203279"><time>2024-05-04T09:46:07.000Z</time><ele>1267.8</ele></trkpt><trkpt lat="45.868914" lon="9.203251"><time>2024-05-04T09:46:08.000Z</time><ele>1268</ele></trkpt><trkpt lat="45.868912" lon="9.203233"><time>2024-05-04T09:46:09.000Z</time><ele>1268.2</ele></trkpt><trkpt lat="45.868905" lon="9.203216"><time>2024-05-04T09:46:10.000Z</time><ele>1268.2</ele></trkpt><trkpt lat="45.868907" lon="9.203198"><time>2024-05-04T09:46:11.000Z</time><ele>1268.4</ele></trkpt><trkpt lat="45.868912" lon="9.203176"><time>2024-05-04T09:46:12.000Z</time><ele>1268.6</ele></trkpt><trkpt lat="45.868923" lon="9.203161"><time>2024-05-04T09:46:13.000Z</time><ele>1268.6</ele></trkpt><trkpt lat="45.868929" lon="9.203145"><time>2024-05-04T09:46:14.000Z</time><ele>1268.8</ele></trkpt><trkpt lat="45.868932" lon="9.203133"><time>2024-05-04T09:46:15.000Z</time><ele>1268.8</ele></trkpt><trkpt lat="45.868934" lon="9.203117"><time>2024-05-04T09:46:16.000Z</time><ele>1269</ele></trkpt><trkpt lat="45.868937" lon="9.203105"><time>2024-05-04T09:46:17.000Z</time><ele>1269.2</ele></trkpt><trkpt lat="45.868947" lon="9.203087"><time>2024-05-04T09:46:18.000Z</time><ele>1269.4</ele></trkpt><trkpt lat="45.868951" lon="9.203066"><time>2024-05-04T09:46:19.000Z</time><ele>1269.6</ele></trkpt><trkpt lat="45.868953" lon="9.203047"><time>2024-05-04T09:46:20.000Z</time><ele>1269.6</ele></trkpt><trkpt lat="45.868948" lon="9.203034"><time>2024-05-04T09:46:21.000Z</time><ele>1269.8</ele></trkpt><trkpt lat="45.86894" lon="9.20302"><time>2024-05-04T09:46:22.000Z</time><ele>1269.8</ele></trkpt><trkpt lat="45.868934" lon="9.203008"><time>2024-05-04T09:46:23.000Z</time><ele>1270</ele></trkpt><trkpt lat="45.868932" lon="9.202988"><time>2024-05-04T09:46:24.000Z</time><ele>1270</ele></trkpt><trkpt lat="45.868927" lon="9.202976"><time>2024-05-04T09:46:25.000Z</time><ele>1270.2</ele></trkpt><trkpt lat="45.868922" lon="9.202966"><time>2024-05-04T09:46:26.000Z</time><ele>1270.2</ele></trkpt><trkpt lat="45.868909" lon="9.202959"><time>2024-05-04T09:46:27.000Z</time><ele>1270.4</ele></trkpt><trkpt lat="45.8689" lon="9.202951"><time>2024-05-04T09:46:28.000Z</time><ele>1270.4</ele></trkpt><trkpt lat="45.8689" lon="9.202928"><time>2024-05-04T09:46:29.000Z</time><ele>1270.4</ele></trkpt><trkpt lat="45.8689" lon="9.202915"><time>2024-05-04T09:46:30.000Z</time><ele>1270.8</ele></trkpt><trkpt lat="45.868906" lon="9.202899"><time>2024-05-04T09:46:31.000Z</time><ele>1270.8</ele></trkpt><trkpt lat="45.868914" lon="9.202887"><time>2024-05-04T09:46:32.000Z</time><ele>1271.2</ele></trkpt><trkpt lat="45.868919" lon="9.202878"><time>2024-05-04T09:46:33.000Z</time><ele>1271.4</ele></trkpt><trkpt lat="45.86892" lon="9.202872"><time>2024-05-04T09:46:34.000Z</time><ele>1271.8</ele></trkpt><trkpt lat="45.868924" lon="9.202864"><time>2024-05-04T09:46:35.000Z</time><ele>1272</ele></trkpt><trkpt lat="45.868922" lon="9.202855"><time>2024-05-04T09:46:36.000Z</time><ele>1272.4</ele></trkpt><trkpt lat="45.868919" lon="9.202844"><time>2024-05-04T09:46:37.000Z</time><ele>1272.4</ele></trkpt><trkpt lat="45.868917" lon="9.202834"><time>2024-05-04T09:46:38.000Z</time><ele>1272.8</ele></trkpt><trkpt lat="45.868913" lon="9.202822"><time>2024-05-04T09:46:39.000Z</time><ele>1273</ele></trkpt><trkpt lat="45.868908" lon="9.20281"><time>2024-05-04T09:46:40.000Z</time><ele>1273.2</ele></trkpt><trkpt lat="45.868907" lon="9.202798"><time>2024-05-04T09:46:41.000Z</time><ele>1273.4</ele></trkpt><trkpt lat="45.868907" lon="9.202786"><time>2024-05-04T09:46:42.000Z</time><ele>1273.6</ele></trkpt><trkpt lat="45.868911" lon="9.202771"><time>2024-05-04T09:46:43.000Z</time><ele>1273.8</ele></trkpt><trkpt lat="45.868917" lon="9.202756"><time>2024-05-04T09:46:44.000Z</time><ele>1274</ele></trkpt><trkpt lat="45.868924" lon="9.202744"><time>2024-05-04T09:46:45.000Z</time><ele>1274.2</ele></trkpt><trkpt lat="45.868932" lon="9.202734"><time>2024-05-04T09:46:46.000Z</time><ele>1274.2</ele></trkpt><trkpt lat="45.868936" lon="9.202725"><time>2024-05-04T09:46:47.000Z</time><ele>1274.4</ele></trkpt><trkpt lat="45.868938" lon="9.202715"><time>2024-05-04T09:46:48.000Z</time><ele>1274.4</ele></trkpt><trkpt lat="45.86894" lon="9.202702"><time>2024-05-04T09:46:49.000Z</time><ele>1274.6</ele></trkpt><trkpt lat="45.86894" lon="9.20269"><time>2024-05-04T09:46:50.000Z</time><ele>1274.8</ele></trkpt><trkpt lat="45.868939" lon="9.202683"><time>2024-05-04T09:46:51.000Z</time><ele>1274.8</ele></trkpt><trkpt lat="45.868942" lon="9.202667"><time>2024-05-04T09:46:52.000Z</time><ele>1274.8</ele></trkpt><trkpt lat="45.868938" lon="9.202655"><time>2024-05-04T09:46:53.000Z</time><ele>1275</ele></trkpt><trkpt lat="45.868935" lon="9.202649"><time>2024-05-04T09:46:54.000Z</time><ele>1275</ele></trkpt><trkpt lat="45.868935" lon="9.202639"><time>2024-05-04T09:46:55.000Z</time><ele>1275.2</ele></trkpt><trkpt lat="45.868937" lon="9.202626"><time>2024-05-04T09:46:56.000Z</time><ele>1275.2</ele></trkpt><trkpt lat="45.868941" lon="9.202613"><time>2024-05-04T09:46:57.000Z</time><ele>1275.2</ele></trkpt><trkpt lat="45.868944" lon="9.202602"><time>2024-05-04T09:46:58.000Z</time><ele>1275.4</ele></trkpt><trkpt lat="45.868944" lon="9.202587"><time>2024-05-04T09:46:59.000Z</time><ele>1275.4</ele></trkpt><trkpt lat="45.868946" lon="9.202571"><time>2024-05-04T09:47:00.000Z</time><ele>1275.6</ele></trkpt><trkpt lat="45.86895" lon="9.202556"><time>2024-05-04T09:47:01.000Z</time><ele>1275.6</ele></trkpt><trkpt lat="45.86895" lon="9.202542"><time>2024-05-04T09:47:02.000Z</time><ele>1275.8</ele></trkpt><trkpt lat="45.868952" lon="9.202524"><time>2024-05-04T09:47:03.000Z</time><ele>1276</ele></trkpt><trkpt lat="45.868955" lon="9.202502"><time>2024-05-04T09:47:04.000Z</time><ele>1276</ele></trkpt><trkpt lat="45.868956" lon="9.202493"><time>2024-05-04T09:47:05.000Z</time><ele>1276.2</ele></trkpt><trkpt lat="45.868956" lon="9.202483"><time>2024-05-04T09:47:06.000Z</time><ele>1276.4</ele></trkpt><trkpt lat="45.868958" lon="9.202468"><time>2024-05-04T09:47:07.000Z</time><ele>1276.6</ele></trkpt><trkpt lat="45.868961" lon="9.202454"><time>2024-05-04T09:47:08.000Z</time><ele>1276.8</ele></trkpt><trkpt lat="45.868962" lon="9.202442"><time>2024-05-04T09:47:09.000Z</time><ele>1276.8</ele></trkpt><trkpt lat="45.868965" lon="9.20243"><time>2024-05-04T09:47:10.000Z</time><ele>1277</ele></trkpt><trkpt lat="45.868966" lon="9.202422"><time>2024-05-04T09:47:11.000Z</time><ele>1277.2</ele></trkpt><trkpt lat="45.868966" lon="9.202412"><time>2024-05-04T09:47:12.000Z</time><ele>1277.4</ele></trkpt><trkpt lat="45.868965" lon="9.202402"><time>2024-05-04T09:47:13.000Z</time><ele>1277.6</ele></trkpt><trkpt lat="45.868968" lon="9.202388"><time>2024-05-04T09:47:14.000Z</time><ele>1277.6</ele></trkpt><trkpt lat="45.868972" lon="9.202373"><time>2024-05-04T09:47:15.000Z</time><ele>1277.8</ele></trkpt><trkpt lat="45.868974" lon="9.202357"><time>2024-05-04T09:47:16.000Z</time><ele>1278</ele></trkpt><trkpt lat="45.868974" lon="9.202343"><time>2024-05-04T09:47:17.000Z</time><ele>1278.2</ele></trkpt><trkpt lat="45.868973" lon="9.20233"><time>2024-05-04T09:47:18.000Z</time><ele>1278.2</ele></trkpt><trkpt lat="45.868973" lon="9.20232"><time>2024-05-04T09:47:19.000Z</time><ele>1278.4</ele></trkpt><trkpt lat="45.868974" lon="9.202304"><time>2024-05-04T09:47:20.000Z</time><ele>1278.6</ele></trkpt><trkpt lat="45.868975" lon="9.202295"><time>2024-05-04T09:47:21.000Z</time><ele>1278.6</ele></trkpt><trkpt lat="45.868974" lon="9.202285"><time>2024-05-04T09:47:22.000Z</time><ele>1278.8</ele></trkpt><trkpt lat="45.868971" lon="9.202276"><time>2024-05-04T09:47:23.000Z</time><ele>1279</ele></trkpt><trkpt lat="45.868969" lon="9.202258"><time>2024-05-04T09:47:24.000Z</time><ele>1279</ele></trkpt><trkpt lat="45.868972" lon="9.202239"><time>2024-05-04T09:47:25.000Z</time><ele>1279.2</ele></trkpt><trkpt lat="45.868978" lon="9.202222"><time>2024-05-04T09:47:26.000Z</time><ele>1279.4</ele></trkpt><trkpt lat="45.868981" lon="9.202211"><time>2024-05-04T09:47:27.000Z</time><ele>1279.4</ele></trkpt><trkpt lat="45.868985" lon="9.202192"><time>2024-05-04T09:47:28.000Z</time><ele>1279.6</ele></trkpt><trkpt lat="45.868986" lon="9.202178"><time>2024-05-04T09:47:29.000Z</time><ele>1279.6</ele></trkpt><trkpt lat="45.868989" lon="9.202163"><time>2024-05-04T09:47:30.000Z</time><ele>1279.8</ele></trkpt><trkpt lat="45.868984" lon="9.202146"><time>2024-05-04T09:47:31.000Z</time><ele>1279.8</ele></trkpt><trkpt lat="45.868986" lon="9.202128"><time>2024-05-04T09:47:32.000Z</time><ele>1279.8</ele></trkpt><trkpt lat="45.868991" lon="9.202106"><time>2024-05-04T09:47:33.000Z</time><ele>1280</ele></trkpt><trkpt lat="45.868991" lon="9.20209"><time>2024-05-04T09:47:34.000Z</time><ele>1280</ele></trkpt><trkpt lat="45.868991" lon="9.202072"><time>2024-05-04T09:47:35.000Z</time><ele>1280.2</ele></trkpt><trkpt lat="45.868985" lon="9.202056"><time>2024-05-04T09:47:36.000Z</time><ele>1280.4</ele></trkpt><trkpt lat="45.868978" lon="9.202043"><time>2024-05-04T09:47:37.000Z</time><ele>1280.6</ele></trkpt><trkpt lat="45.868972" lon="9.202027"><time>2024-05-04T09:47:38.000Z</time><ele>1280.6</ele></trkpt><trkpt lat="45.868962" lon="9.202012"><time>2024-05-04T09:47:39.000Z</time><ele>1280.8</ele></trkpt><trkpt lat="45.868958" lon="9.20199"><time>2024-05-04T09:47:40.000Z</time><ele>1280.8</ele></trkpt><trkpt lat="45.868955" lon="9.201969"><time>2024-05-04T09:47:41.000Z</time><ele>1281</ele></trkpt><trkpt lat="45.868953" lon="9.201951"><time>2024-05-04T09:47:42.000Z</time><ele>1281</ele></trkpt><trkpt lat="45.86895" lon="9.201931"><time>2024-05-04T09:47:43.000Z</time><ele>1281</ele></trkpt><trkpt lat="45.868949" lon="9.201917"><time>2024-05-04T09:47:44.000Z</time><ele>1281.2</ele></trkpt><trkpt lat="45.868946" lon="9.201898"><time>2024-05-04T09:47:45.000Z</time><ele>1281.2</ele></trkpt><trkpt lat="45.868943" lon="9.201881"><time>2024-05-04T09:47:46.000Z</time><ele>1281.2</ele></trkpt><trkpt lat="45.868937" lon="9.201865"><time>2024-05-04T09:47:47.000Z</time><ele>1281.4</ele></trkpt><trkpt lat="45.868931" lon="9.201851"><time>2024-05-04T09:47:48.000Z</time><ele>1281.6</ele></trkpt><trkpt lat="45.868923" lon="9.201839"><time>2024-05-04T09:47:49.000Z</time><ele>1281.8</ele></trkpt><trkpt lat="45.868917" lon="9.201826"><time>2024-05-04T09:47:50.000Z</time><ele>1281.8</ele></trkpt><trkpt lat="45.86891" lon="9.201813"><time>2024-05-04T09:47:51.000Z</time><ele>1282</ele></trkpt><trkpt lat="45.868899" lon="9.201801"><time>2024-05-04T09:47:52.000Z</time><ele>1282</ele></trkpt><trkpt lat="45.868889" lon="9.201792"><time>2024-05-04T09:47:53.000Z</time><ele>1282.2</ele></trkpt><trkpt lat="45.868877" lon="9.201777"><time>2024-05-04T09:47:54.000Z</time><ele>1282.4</ele></trkpt><trkpt lat="45.868869" lon="9.201766"><time>2024-05-04T09:47:55.000Z</time><ele>1282.4</ele></trkpt><trkpt lat="45.868862" lon="9.201755"><time>2024-05-04T09:47:56.000Z</time><ele>1282.6</ele></trkpt><trkpt lat="45.868852" lon="9.201745"><time>2024-05-04T09:47:57.000Z</time><ele>1282.8</ele></trkpt><trkpt lat="45.868846" lon="9.201738"><time>2024-05-04T09:47:58.000Z</time><ele>1283</ele></trkpt><trkpt lat="45.868835" lon="9.201726"><time>2024-05-04T09:47:59.000Z</time><ele>1283.2</ele></trkpt><trkpt lat="45.868826" lon="9.201712"><time>2024-05-04T09:48:00.000Z</time><ele>1283.4</ele></trkpt><trkpt lat="45.86882" lon="9.201701"><time>2024-05-04T09:48:01.000Z</time><ele>1283.4</ele></trkpt><trkpt lat="45.868811" lon="9.201692"><time>2024-05-04T09:48:02.000Z</time><ele>1283.6</ele></trkpt><trkpt lat="45.868801" lon="9.20168"><time>2024-05-04T09:48:03.000Z</time><ele>1283.8</ele></trkpt><trkpt lat="45.86879" lon="9.201669"><time>2024-05-04T09:48:04.000Z</time><ele>1284</ele></trkpt><trkpt lat="45.868781" lon="9.20166"><time>2024-05-04T09:48:05.000Z</time><ele>1284</ele></trkpt><trkpt lat="45.868772" lon="9.201654"><time>2024-05-04T09:48:06.000Z</time><ele>1284.2</ele></trkpt><trkpt lat="45.86876" lon="9.201647"><time>2024-05-04T09:48:07.000Z</time><ele>1284.4</ele></trkpt><trkpt lat="45.868751" lon="9.201641"><time>2024-05-04T09:48:08.000Z</time><ele>1284.6</ele></trkpt><trkpt lat="45.868742" lon="9.201632"><time>2024-05-04T09:48:09.000Z</time><ele>1284.6</ele></trkpt><trkpt lat="45.868734" lon="9.201623"><time>2024-05-04T09:48:10.000Z</time><ele>1284.8</ele></trkpt><trkpt lat="45.868727" lon="9.201611"><time>2024-05-04T09:48:11.000Z</time><ele>1285</ele></trkpt><trkpt lat="45.868719" lon="9.201595"><time>2024-05-04T09:48:12.000Z</time><ele>1285</ele></trkpt><trkpt lat="45.868709" lon="9.201584"><time>2024-05-04T09:48:13.000Z</time><ele>1285.2</ele></trkpt><trkpt lat="45.868697" lon="9.201576"><time>2024-05-04T09:48:14.000Z</time><ele>1285.2</ele></trkpt><trkpt lat="45.868686" lon="9.201568"><time>2024-05-04T09:48:15.000Z</time><ele>1285.4</ele></trkpt><trkpt lat="45.868677" lon="9.201562"><time>2024-05-04T09:48:16.000Z</time><ele>1285.4</ele></trkpt><trkpt lat="45.868666" lon="9.201555"><time>2024-05-04T09:48:17.000Z</time><ele>1285.4</ele></trkpt><trkpt lat="45.868656" lon="9.201548"><time>2024-05-04T09:48:18.000Z</time><ele>1285.4</ele></trkpt><trkpt lat="45.868647" lon="9.201542"><time>2024-05-04T09:48:19.000Z</time><ele>1285.4</ele></trkpt><trkpt lat="45.868633" lon="9.201534"><time>2024-05-04T09:48:20.000Z</time><ele>1285.4</ele></trkpt><trkpt lat="45.868622" lon="9.201525"><time>2024-05-04T09:48:21.000Z</time><ele>1285.6</ele></trkpt><trkpt lat="45.868613" lon="9.201518"><time>2024-05-04T09:48:22.000Z</time><ele>1285.6</ele></trkpt><trkpt lat="45.8686" lon="9.201514"><time>2024-05-04T09:48:23.000Z</time><ele>1285.6</ele></trkpt><trkpt lat="45.868588" lon="9.201507"><time>2024-05-04T09:48:24.000Z</time><ele>1285.6</ele></trkpt><trkpt lat="45.868578" lon="9.2015"><time>2024-05-04T09:48:25.000Z</time><ele>1285.6</ele></trkpt><trkpt lat="45.868566" lon="9.201495"><time>2024-05-04T09:48:26.000Z</time><ele>1285.6</ele></trkpt><trkpt lat="45.868555" lon="9.201486"><time>2024-05-04T09:48:27.000Z</time><ele>1285.6</ele></trkpt><trkpt lat="45.868544" lon="9.201477"><time>2024-05-04T09:48:28.000Z</time><ele>1285.4</ele></trkpt><trkpt lat="45.868532" lon="9.20147"><time>2024-05-04T09:48:29.000Z</time><ele>1285.4</ele></trkpt><trkpt lat="45.868518" lon="9.201464"><time>2024-05-04T09:48:30.000Z</time><ele>1285.2</ele></trkpt><trkpt lat="45.868506" lon="9.201458"><time>2024-05-04T09:48:31.000Z</time><ele>1285.2</ele></trkpt><trkpt lat="45.868496" lon="9.201451"><time>2024-05-04T09:48:32.000Z</time><ele>1285</ele></trkpt><trkpt lat="45.868484" lon="9.201445"><time>2024-05-04T09:48:33.000Z</time><ele>1285</ele></trkpt><trkpt lat="45.868471" lon="9.201439"><time>2024-05-04T09:48:34.000Z</time><ele>1285</ele></trkpt><trkpt lat="45.868457" lon="9.201435"><time>2024-05-04T09:48:35.000Z</time><ele>1285</ele></trkpt><trkpt lat="45.868441" lon="9.201429"><time>2024-05-04T09:48:36.000Z</time><ele>1285</ele></trkpt><trkpt lat="45.868428" lon="9.201428"><time>2024-05-04T09:48:37.000Z</time><ele>1284.8</ele></trkpt><trkpt lat="45.868415" lon="9.201425"><time>2024-05-04T09:48:38.000Z</time><ele>1284.8</ele></trkpt><trkpt lat="45.8684" lon="9.201421"><time>2024-05-04T09:48:39.000Z</time><ele>1284.8</ele></trkpt><trkpt lat="45.868388" lon="9.201419"><time>2024-05-04T09:48:40.000Z</time><ele>1284.8</ele></trkpt><trkpt lat="45.868376" lon="9.201414"><time>2024-05-04T09:48:41.000Z</time><ele>1284.6</ele></trkpt><trkpt lat="45.868363" lon="9.201408"><time>2024-05-04T09:48:42.000Z</time><ele>1284.6</ele></trkpt><trkpt lat="45.868356" lon="9.201404"><time>2024-05-04T09:48:43.000Z</time><ele>1284.4</ele></trkpt><trkpt lat="45.868347" lon="9.201402"><time>2024-05-04T09:48:44.000Z</time><ele>1284.4</ele></trkpt><trkpt lat="45.868334" lon="9.201399"><time>2024-05-04T09:48:45.000Z</time><ele>1284.4</ele></trkpt><trkpt lat="45.868316" lon="9.201399"><time>2024-05-04T09:48:46.000Z</time><ele>1284.4</ele></trkpt><trkpt lat="45.868304" lon="9.201398"><time>2024-05-04T09:48:47.000Z</time><ele>1284.2</ele></trkpt><trkpt lat="45.868291" lon="9.201398"><time>2024-05-04T09:48:48.000Z</time><ele>1284</ele></trkpt><trkpt lat="45.868276" lon="9.201393"><time>2024-05-04T09:48:49.000Z</time><ele>1284</ele></trkpt><trkpt lat="45.868266" lon="9.201383"><time>2024-05-04T09:48:50.000Z</time><ele>1284</ele></trkpt><trkpt lat="45.868256" lon="9.201375"><time>2024-05-04T09:48:51.000Z</time><ele>1283.8</ele></trkpt><trkpt lat="45.868247" lon="9.201366"><time>2024-05-04T09:48:52.000Z</time><ele>1283.8</ele></trkpt><trkpt lat="45.868234" lon="9.201356"><time>2024-05-04T09:48:53.000Z</time><ele>1283.4</ele></trkpt><trkpt lat="45.868223" lon="9.201349"><time>2024-05-04T09:48:54.000Z</time><ele>1283.4</ele></trkpt><trkpt lat="45.868212" lon="9.201346"><time>2024-05-04T09:48:55.000Z</time><ele>1283.2</ele></trkpt><trkpt lat="45.868198" lon="9.201345"><time>2024-05-04T09:48:56.000Z</time><ele>1283.2</ele></trkpt><trkpt lat="45.868184" lon="9.201344"><time>2024-05-04T09:48:57.000Z</time><ele>1283.2</ele></trkpt><trkpt lat="45.868173" lon="9.201338"><time>2024-05-04T09:48:58.000Z</time><ele>1283.2</ele></trkpt><trkpt lat="45.86816" lon="9.201327"><time>2024-05-04T09:48:59.000Z</time><ele>1283.2</ele></trkpt><trkpt lat="45.868149" lon="9.201314"><time>2024-05-04T09:49:00.000Z</time><ele>1283.4</ele></trkpt><trkpt lat="45.868136" lon="9.201305"><time>2024-05-04T09:49:01.000Z</time><ele>1283.4</ele></trkpt><trkpt lat="45.868122" lon="9.201297"><time>2024-05-04T09:49:02.000Z</time><ele>1283.6</ele></trkpt><trkpt lat="45.868105" lon="9.201288"><time>2024-05-04T09:49:03.000Z</time><ele>1283.6</ele></trkpt><trkpt lat="45.868098" lon="9.201283"><time>2024-05-04T09:49:04.000Z</time><ele>1283.8</ele></trkpt><trkpt lat="45.868094" lon="9.201279"><time>2024-05-04T09:49:05.000Z</time><ele>1283.8</ele></trkpt><trkpt lat="45.86809" lon="9.201272"><time>2024-05-04T09:49:06.000Z</time><ele>1283.8</ele></trkpt><trkpt lat="45.868082" lon="9.201269"><time>2024-05-04T09:49:07.000Z</time><ele>1283.8</ele></trkpt><trkpt lat="45.868072" lon="9.201263"><time>2024-05-04T09:49:08.000Z</time><ele>1283.8</ele></trkpt><trkpt lat="45.868063" lon="9.201256"><time>2024-05-04T09:49:09.000Z</time><ele>1283.8</ele></trkpt><trkpt lat="45.868057" lon="9.201241"><time>2024-05-04T09:49:10.000Z</time><ele>1283.6</ele></trkpt><trkpt lat="45.868047" lon="9.201228"><time>2024-05-04T09:49:11.000Z</time><ele>1283.6</ele></trkpt><trkpt lat="45.868035" lon="9.201219"><time>2024-05-04T09:49:12.000Z</time><ele>1283.6</ele></trkpt><trkpt lat="45.868023" lon="9.201213"><time>2024-05-04T09:49:13.000Z</time><ele>1283.6</ele></trkpt><trkpt lat="45.868007" lon="9.201203"><time>2024-05-04T09:49:14.000Z</time><ele>1283.6</ele></trkpt><trkpt lat="45.867996" lon="9.201192"><time>2024-05-04T09:49:15.000Z</time><ele>1283.4</ele></trkpt><trkpt lat="45.867986" lon="9.201182"><time>2024-05-04T09:49:16.000Z</time><ele>1283.4</ele></trkpt><trkpt lat="45.867972" lon="9.201175"><time>2024-05-04T09:49:17.000Z</time><ele>1283.4</ele></trkpt><trkpt lat="45.867962" lon="9.201165"><time>2024-05-04T09:49:18.000Z</time><ele>1283.2</ele></trkpt><trkpt lat="45.867947" lon="9.201154"><time>2024-05-04T09:49:19.000Z</time><ele>1283.2</ele></trkpt><trkpt lat="45.867934" lon="9.20114"><time>2024-05-04T09:49:20.000Z</time><ele>1283</ele></trkpt><trkpt lat="45.867921" lon="9.201129"><time>2024-05-04T09:49:21.000Z</time><ele>1283</ele></trkpt><trkpt lat="45.867907" lon="9.201119"><time>2024-05-04T09:49:22.000Z</time><ele>1282.8</ele></trkpt><trkpt lat="45.867892" lon="9.201113"><time>2024-05-04T09:49:23.000Z</time><ele>1282.8</ele></trkpt><trkpt lat="45.867879" lon="9.201107"><time>2024-05-04T09:49:24.000Z</time><ele>1282.8</ele></trkpt><trkpt lat="45.867869" lon="9.2011"><time>2024-05-04T09:49:25.000Z</time><ele>1282.8</ele></trkpt><trkpt lat="45.86786" lon="9.201093"><time>2024-05-04T09:49:26.000Z</time><ele>1282.8</ele></trkpt><trkpt lat="45.867849" lon="9.201089"><time>2024-05-04T09:49:27.000Z</time><ele>1283</ele></trkpt><trkpt lat="45.867835" lon="9.201081"><time>2024-05-04T09:49:28.000Z</time><ele>1283</ele></trkpt><trkpt lat="45.867822" lon="9.201071"><time>2024-05-04T09:49:29.000Z</time><ele>1282.8</ele></trkpt><trkpt lat="45.867809" lon="9.201059"><time>2024-05-04T09:49:30.000Z</time><ele>1282.8</ele></trkpt><trkpt lat="45.867799" lon="9.201052"><time>2024-05-04T09:49:31.000Z</time><ele>1282.6</ele></trkpt><trkpt lat="45.867785" lon="9.201051"><time>2024-05-04T09:49:32.000Z</time><ele>1282.4</ele></trkpt><trkpt lat="45.867779" lon="9.201044"><time>2024-05-04T09:49:33.000Z</time><ele>1282.2</ele></trkpt><trkpt lat="45.867767" lon="9.201039"><time>2024-05-04T09:49:34.000Z</time><ele>1282.2</ele></trkpt><trkpt lat="45.867754" lon="9.201035"><time>2024-05-04T09:49:35.000Z</time><ele>1282.2</ele></trkpt><trkpt lat="45.867741" lon="9.201033"><time>2024-05-04T09:49:36.000Z</time><ele>1282</ele></trkpt><trkpt lat="45.867731" lon="9.201026"><time>2024-05-04T09:49:37.000Z</time><ele>1281.8</ele></trkpt><trkpt lat="45.867721" lon="9.201019"><time>2024-05-04T09:49:38.000Z</time><ele>1281.8</ele></trkpt><trkpt lat="45.867708" lon="9.20101"><time>2024-05-04T09:49:39.000Z</time><ele>1281.6</ele></trkpt><trkpt lat="45.867693" lon="9.201005"><time>2024-05-04T09:49:40.000Z</time><ele>1281.6</ele></trkpt><trkpt lat="45.867679" lon="9.201003"><time>2024-05-04T09:49:41.000Z</time><ele>1281.4</ele></trkpt><trkpt lat="45.867667" lon="9.200995"><time>2024-05-04T09:49:42.000Z</time><ele>1281.4</ele></trkpt><trkpt lat="45.867657" lon="9.200986"><time>2024-05-04T09:49:43.000Z</time><ele>1281.2</ele></trkpt><trkpt lat="45.867646" lon="9.200974"><time>2024-05-04T09:49:44.000Z</time><ele>1281.2</ele></trkpt><trkpt lat="45.867636" lon="9.200955"><time>2024-05-04T09:49:45.000Z</time><ele>1281.2</ele></trkpt><trkpt lat="45.867628" lon="9.200935"><time>2024-05-04T09:49:46.000Z</time><ele>1281.2</ele></trkpt><trkpt lat="45.867623" lon="9.200917"><time>2024-05-04T09:49:47.000Z</time><ele>1281.2</ele></trkpt><trkpt lat="45.867619" lon="9.200897"><time>2024-05-04T09:49:48.000Z</time><ele>1281.2</ele></trkpt><trkpt lat="45.867616" lon="9.200883"><time>2024-05-04T09:49:49.000Z</time><ele>1281.2</ele></trkpt><trkpt lat="45.867611" lon="9.20087"><time>2024-05-04T09:49:50.000Z</time><ele>1281.2</ele></trkpt><trkpt lat="45.867605" lon="9.200857"><time>2024-05-04T09:49:51.000Z</time><ele>1281.2</ele></trkpt><trkpt lat="45.867598" lon="9.200838"><time>2024-05-04T09:49:52.000Z</time><ele>1281.2</ele></trkpt><trkpt lat="45.867594" lon="9.200826"><time>2024-05-04T09:49:53.000Z</time><ele>1281.2</ele></trkpt><trkpt lat="45.867586" lon="9.200811"><time>2024-05-04T09:49:54.000Z</time><ele>1281.2</ele></trkpt><trkpt lat="45.867576" lon="9.200803"><time>2024-05-04T09:49:55.000Z</time><ele>1281.4</ele></trkpt><trkpt lat="45.867568" lon="9.200786"><time>2024-05-04T09:49:56.000Z</time><ele>1281.4</ele></trkpt><trkpt lat="45.867565" lon="9.200769"><time>2024-05-04T09:49:57.000Z</time><ele>1281.4</ele></trkpt><trkpt lat="45.867557" lon="9.200757"><time>2024-05-04T09:49:58.000Z</time><ele>1281.4</ele></trkpt><trkpt lat="45.867548" lon="9.200741"><time>2024-05-04T09:49:59.000Z</time><ele>1281.2</ele></trkpt><trkpt lat="45.867536" lon="9.200723"><time>2024-05-04T09:50:00.000Z</time><ele>1281.2</ele></trkpt><trkpt lat="45.867526" lon="9.200705"><time>2024-05-04T09:50:01.000Z</time><ele>1281.2</ele></trkpt><trkpt lat="45.867517" lon="9.20069"><time>2024-05-04T09:50:02.000Z</time><ele>1281</ele></trkpt><trkpt lat="45.867509" lon="9.20067"><time>2024-05-04T09:50:03.000Z</time><ele>1280.8</ele></trkpt><trkpt lat="45.867498" lon="9.200656"><time>2024-05-04T09:50:04.000Z</time><ele>1280.6</ele></trkpt><trkpt lat="45.867487" lon="9.200643"><time>2024-05-04T09:50:05.000Z</time><ele>1280.6</ele></trkpt><trkpt lat="45.867476" lon="9.200634"><time>2024-05-04T09:50:06.000Z</time><ele>1280.4</ele></trkpt><trkpt lat="45.867466" lon="9.200624"><time>2024-05-04T09:50:07.000Z</time><ele>1280.4</ele></trkpt><trkpt lat="45.867461" lon="9.200616"><time>2024-05-04T09:50:08.000Z</time><ele>1280.2</ele></trkpt><trkpt lat="45.867452" lon="9.200598"><time>2024-05-04T09:50:09.000Z</time><ele>1280.2</ele></trkpt><trkpt lat="45.867448" lon="9.200592"><time>2024-05-04T09:50:10.000Z</time><ele>1280</ele></trkpt><trkpt lat="45.867446" lon="9.200588"><time>2024-05-04T09:50:11.000Z</time><ele>1280</ele></trkpt><trkpt lat="45.867445" lon="9.200586"><time>2024-05-04T09:50:12.000Z</time><ele>1280</ele></trkpt><trkpt lat="45.867443" lon="9.200585"><time>2024-05-04T09:50:13.000Z</time><ele>1280</ele></trkpt><trkpt lat="45.867442" lon="9.200585"><time>2024-05-04T09:50:14.000Z</time><ele>1280</ele></trkpt><trkpt lat="45.86744" lon="9.200586"><time>2024-05-04T09:50:15.000Z</time><ele>1280</ele></trkpt><trkpt lat="45.867439" lon="9.200578"><time>2024-05-04T09:50:16.000Z</time><ele>1280</ele></trkpt><trkpt lat="45.867447" lon="9.200559"><time>2024-05-04T09:50:17.000Z</time><ele>1280</ele></trkpt><trkpt lat="45.867452" lon="9.200548"><time>2024-05-04T09:50:18.000Z</time><ele>1280</ele></trkpt><trkpt lat="45.867446" lon="9.200544"><time>2024-05-04T09:50:19.000Z</time><ele>1280</ele></trkpt><trkpt lat="45.867445" lon="9.200531"><time>2024-05-04T09:50:20.000Z</time><ele>1280</ele></trkpt><trkpt lat="45.86744" lon="9.200524"><time>2024-05-04T09:50:21.000Z</time><ele>1280</ele></trkpt><trkpt lat="45.867433" lon="9.200521"><time>2024-05-04T09:50:22.000Z</time><ele>1280</ele></trkpt><trkpt lat="45.867428" lon="9.20052"><time>2024-05-04T09:50:23.000Z</time><ele>1280</ele></trkpt><trkpt lat="45.867428" lon="9.200519"><time>2024-05-04T09:50:24.000Z</time><ele>1280</ele></trkpt><trkpt lat="45.86743" lon="9.200517"><time>2024-05-04T09:50:25.000Z</time><ele>1280</ele></trkpt><trkpt lat="45.867431" lon="9.200516"><time>2024-05-04T09:50:26.000Z</time><ele>1279.8</ele></trkpt><trkpt lat="45.867431" lon="9.200516"><time>2024-05-04T09:50:27.000Z</time><ele>1280</ele></trkpt><trkpt lat="45.867431" lon="9.200517"><time>2024-05-04T09:50:28.000Z</time><ele>1280</ele></trkpt><trkpt lat="45.867432" lon="9.200516"><time>2024-05-04T09:50:29.000Z</time><ele>1279.8</ele></trkpt><trkpt lat="45.867434" lon="9.200515"><time>2024-05-04T09:50:30.000Z</time><ele>1279.8</ele></trkpt><trkpt lat="45.867436" lon="9.200514"><time>2024-05-04T09:50:31.000Z</time><ele>1280</ele></trkpt><trkpt lat="45.867437" lon="9.200512"><time>2024-05-04T09:50:32.000Z</time><ele>1280</ele></trkpt><trkpt lat="45.867438" lon="9.200511"><time>2024-05-04T09:50:33.000Z</time><ele>1280</ele></trkpt><trkpt lat="45.867439" lon="9.200509"><time>2024-05-04T09:50:34.000Z</time><ele>1280</ele></trkpt><trkpt lat="45.867436" lon="9.200508"><time>2024-05-04T09:50:35.000Z</time><ele>1279.8</ele></trkpt><trkpt lat="45.867433" lon="9.200503"><time>2024-05-04T09:50:36.000Z</time><ele>1279.8</ele></trkpt><trkpt lat="45.86743" lon="9.200495"><time>2024-05-04T09:50:37.000Z</time><ele>1279.8</ele></trkpt><trkpt lat="45.867424" lon="9.200485"><time>2024-05-04T09:50:38.000Z</time><ele>1279.8</ele></trkpt><trkpt lat="45.867419" lon="9.200472"><time>2024-05-04T09:50:39.000Z</time><ele>1280</ele></trkpt><trkpt lat="45.867416" lon="9.200455"><time>2024-05-04T09:50:40.000Z</time><ele>1280</ele></trkpt><trkpt lat="45.867415" lon="9.200439"><time>2024-05-04T09:50:41.000Z</time><ele>1280</ele></trkpt><trkpt lat="45.86741" lon="9.200425"><time>2024-05-04T09:50:42.000Z</time><ele>1280</ele></trkpt><trkpt lat="45.867401" lon="9.200415"><time>2024-05-04T09:50:43.000Z</time><ele>1280</ele></trkpt><trkpt lat="45.867393" lon="9.200405"><time>2024-05-04T09:50:44.000Z</time><ele>1280</ele></trkpt><trkpt lat="45.867386" lon="9.200393"><time>2024-05-04T09:50:45.000Z</time><ele>1280</ele></trkpt><trkpt lat="45.867382" lon="9.200381"><time>2024-05-04T09:50:46.000Z</time><ele>1280</ele></trkpt><trkpt lat="45.867377" lon="9.200367"><time>2024-05-04T09:50:47.000Z</time><ele>1280</ele></trkpt><trkpt lat="45.867376" lon="9.200355"><time>2024-05-04T09:50:48.000Z</time><ele>1280</ele></trkpt><trkpt lat="45.867384" lon="9.200345"><time>2024-05-04T09:50:49.000Z</time><ele>1279.8</ele></trkpt><trkpt lat="45.867386" lon="9.200342"><time>2024-05-04T09:50:50.000Z</time><ele>1279.8</ele></trkpt><trkpt lat="45.867388" lon="9.20034"><time>2024-05-04T09:50:51.000Z</time><ele>1279.6</ele></trkpt><trkpt lat="45.867382" lon="9.200335"><time>2024-05-04T09:50:52.000Z</time><ele>1279.6</ele></trkpt><trkpt lat="45.867375" lon="9.200324"><time>2024-05-04T09:50:53.000Z</time><ele>1279.6</ele></trkpt><trkpt lat="45.86737" lon="9.200302"><time>2024-05-04T09:50:54.000Z</time><ele>1279.6</ele></trkpt><trkpt lat="45.867363" lon="9.200282"><time>2024-05-04T09:50:55.000Z</time><ele>1279.4</ele></trkpt><trkpt lat="45.867357" lon="9.200261"><time>2024-05-04T09:50:56.000Z</time><ele>1279.4</ele></trkpt><trkpt lat="45.867354" lon="9.20025"><time>2024-05-04T09:50:57.000Z</time><ele>1279.2</ele></trkpt><trkpt lat="45.86735" lon="9.200236"><time>2024-05-04T09:50:58.000Z</time><ele>1279.2</ele></trkpt><trkpt lat="45.867349" lon="9.200213"><time>2024-05-04T09:50:59.000Z</time><ele>1279.2</ele></trkpt><trkpt lat="45.867348" lon="9.200196"><time>2024-05-04T09:51:00.000Z</time><ele>1279</ele></trkpt><trkpt lat="45.867349" lon="9.200178"><time>2024-05-04T09:51:01.000Z</time><ele>1279</ele></trkpt><trkpt lat="45.867349" lon="9.200163"><time>2024-05-04T09:51:02.000Z</time><ele>1278.8</ele></trkpt><trkpt lat="45.867349" lon="9.200149"><time>2024-05-04T09:51:03.000Z</time><ele>1278.8</ele></trkpt><trkpt lat="45.867348" lon="9.200134"><time>2024-05-04T09:51:04.000Z</time><ele>1278.6</ele></trkpt><trkpt lat="45.867348" lon="9.200119"><time>2024-05-04T09:51:05.000Z</time><ele>1278.4</ele></trkpt><trkpt lat="45.867345" lon="9.200104"><time>2024-05-04T09:51:06.000Z</time><ele>1278.2</ele></trkpt><trkpt lat="45.867342" lon="9.200087"><time>2024-05-04T09:51:07.000Z</time><ele>1278</ele></trkpt><trkpt lat="45.867341" lon="9.200066"><time>2024-05-04T09:51:08.000Z</time><ele>1278</ele></trkpt><trkpt lat="45.867338" lon="9.200048"><time>2024-05-04T09:51:09.000Z</time><ele>1278</ele></trkpt><trkpt lat="45.867338" lon="9.200028"><time>2024-05-04T09:51:10.000Z</time><ele>1278</ele></trkpt><trkpt lat="45.867339" lon="9.20001"><time>2024-05-04T09:51:11.000Z</time><ele>1278</ele></trkpt><trkpt lat="45.867339" lon="9.199993"><time>2024-05-04T09:51:12.000Z</time><ele>1278</ele></trkpt><trkpt lat="45.867339" lon="9.199974"><time>2024-05-04T09:51:13.000Z</time><ele>1278</ele></trkpt><trkpt lat="45.867338" lon="9.199955"><time>2024-05-04T09:51:14.000Z</time><ele>1278</ele></trkpt><trkpt lat="45.867339" lon="9.199942"><time>2024-05-04T09:51:15.000Z</time><ele>1278</ele></trkpt><trkpt lat="45.867339" lon="9.199921"><time>2024-05-04T09:51:16.000Z</time><ele>1278</ele></trkpt><trkpt lat="45.867337" lon="9.199904"><time>2024-05-04T09:51:17.000Z</time><ele>1278</ele></trkpt><trkpt lat="45.867336" lon="9.199887"><time>2024-05-04T09:51:18.000Z</time><ele>1278</ele></trkpt><trkpt lat="45.867335" lon="9.199869"><time>2024-05-04T09:51:19.000Z</time><ele>1277.8</ele></trkpt><trkpt lat="45.867335" lon="9.199852"><time>2024-05-04T09:51:20.000Z</time><ele>1277.6</ele></trkpt><trkpt lat="45.867334" lon="9.199835"><time>2024-05-04T09:51:21.000Z</time><ele>1277.6</ele></trkpt><trkpt lat="45.867334" lon="9.199817"><time>2024-05-04T09:51:22.000Z</time><ele>1277.6</ele></trkpt><trkpt lat="45.867332" lon="9.199802"><time>2024-05-04T09:51:23.000Z</time><ele>1277.6</ele></trkpt><trkpt lat="45.867332" lon="9.199786"><time>2024-05-04T09:51:24.000Z</time><ele>1277.4</ele></trkpt><trkpt lat="45.867335" lon="9.19977"><time>2024-05-04T09:51:25.000Z</time><ele>1277.4</ele></trkpt><trkpt lat="45.867339" lon="9.199752"><time>2024-05-04T09:51:26.000Z</time><ele>1277.2</ele></trkpt><trkpt lat="45.867342" lon="9.199741"><time>2024-05-04T09:51:27.000Z</time><ele>1277</ele></trkpt><trkpt lat="45.867342" lon="9.199727"><time>2024-05-04T09:51:28.000Z</time><ele>1276.8</ele></trkpt><trkpt lat="45.867341" lon="9.199714"><time>2024-05-04T09:51:29.000Z</time><ele>1276.8</ele></trkpt><trkpt lat="45.86734" lon="9.199699"><time>2024-05-04T09:51:30.000Z</time><ele>1276.8</ele></trkpt><trkpt lat="45.867338" lon="9.199685"><time>2024-05-04T09:51:31.000Z</time><ele>1276.6</ele></trkpt><trkpt lat="45.867336" lon="9.199669"><time>2024-05-04T09:51:32.000Z</time><ele>1276.6</ele></trkpt><trkpt lat="45.867336" lon="9.199653"><time>2024-05-04T09:51:33.000Z</time><ele>1276.4</ele></trkpt><trkpt lat="45.867337" lon="9.199638"><time>2024-05-04T09:51:34.000Z</time><ele>1276.2</ele></trkpt><trkpt lat="45.86734" lon="9.199629"><time>2024-05-04T09:51:35.000Z</time><ele>1276.2</ele></trkpt><trkpt lat="45.867341" lon="9.199618"><time>2024-05-04T09:51:36.000Z</time><ele>1276.2</ele></trkpt><trkpt lat="45.86734" lon="9.199606"><time>2024-05-04T09:51:37.000Z</time><ele>1276.2</ele></trkpt><trkpt lat="45.867346" lon="9.199596"><time>2024-05-04T09:51:38.000Z</time><ele>1276</ele></trkpt><trkpt lat="45.867354" lon="9.199587"><time>2024-05-04T09:51:39.000Z</time><ele>1276</ele></trkpt><trkpt lat="45.867362" lon="9.199582"><time>2024-05-04T09:51:40.000Z</time><ele>1276</ele></trkpt><trkpt lat="45.867366" lon="9.199581"><time>2024-05-04T09:51:41.000Z</time><ele>1276</ele></trkpt><trkpt lat="45.867367" lon="9.199581"><time>2024-05-04T09:51:42.000Z</time><ele>1276</ele></trkpt><trkpt lat="45.867365" lon="9.199581"><time>2024-05-04T09:51:43.000Z</time><ele>1276</ele></trkpt><trkpt lat="45.867362" lon="9.199582"><time>2024-05-04T09:51:44.000Z</time><ele>1276</ele></trkpt><trkpt lat="45.86735" lon="9.199584"><time>2024-05-04T09:51:45.000Z</time><ele>1276</ele></trkpt><trkpt lat="45.867348" lon="9.199583"><time>2024-05-04T09:51:46.000Z</time><ele>1275.8</ele></trkpt><trkpt lat="45.867349" lon="9.199584"><time>2024-05-04T09:51:47.000Z</time><ele>1275.8</ele></trkpt><trkpt lat="45.86735" lon="9.199583"><time>2024-05-04T09:51:48.000Z</time><ele>1275.8</ele></trkpt><trkpt lat="45.867345" lon="9.199588"><time>2024-05-04T09:51:49.000Z</time><ele>1275.8</ele></trkpt><trkpt lat="45.867343" lon="9.19959"><time>2024-05-04T09:51:50.000Z</time><ele>1275.8</ele></trkpt><trkpt lat="45.867341" lon="9.199594"><time>2024-05-04T09:51:51.000Z</time><ele>1276</ele></trkpt><trkpt lat="45.867339" lon="9.199595"><time>2024-05-04T09:51:52.000Z</time><ele>1276</ele></trkpt><trkpt lat="45.867337" lon="9.199596"><time>2024-05-04T09:51:53.000Z</time><ele>1276.2</ele></trkpt><trkpt lat="45.867336" lon="9.199594"><time>2024-05-04T09:51:54.000Z</time><ele>1276.2</ele></trkpt><trkpt lat="45.867335" lon="9.199593"><time>2024-05-04T09:51:55.000Z</time><ele>1276.2</ele></trkpt><trkpt lat="45.867335" lon="9.199593"><time>2024-05-04T09:51:56.000Z</time><ele>1276.2</ele></trkpt><trkpt lat="45.867335" lon="9.199593"><time>2024-05-04T09:51:57.000Z</time><ele>1276.2</ele></trkpt><trkpt lat="45.867335" lon="9.199593"><time>2024-05-04T09:51:58.000Z</time><ele>1276.2</ele></trkpt><trkpt lat="45.867335" lon="9.199593"><time>2024-05-04T09:51:59.000Z</time><ele>1276.2</ele></trkpt><trkpt lat="45.867335" lon="9.199593"><time>2024-05-04T09:52:00.000Z</time><ele>1276.2</ele></trkpt><trkpt lat="45.867335" lon="9.199593"><time>2024-05-04T09:52:01.000Z</time><ele>1276.2</ele></trkpt><trkpt lat="45.867335" lon="9.199593"><time>2024-05-04T09:52:02.000Z</time><ele>1276.4</ele></trkpt><trkpt lat="45.867335" lon="9.199593"><time>2024-05-04T09:52:03.000Z</time><ele>1276.4</ele></trkpt><trkpt lat="45.867335" lon="9.199593"><time>2024-05-04T09:52:04.000Z</time><ele>1276.4</ele></trkpt><trkpt lat="45.867335" lon="9.199593"><time>2024-05-04T09:52:05.000Z</time><ele>1276.4</ele></trkpt><trkpt lat="45.867335" lon="9.199593"><time>2024-05-04T09:52:06.000Z</time><ele>1276.4</ele></trkpt><trkpt lat="45.867335" lon="9.199593"><time>2024-05-04T09:52:07.000Z</time><ele>1276.4</ele></trkpt><trkpt lat="45.867335" lon="9.199593"><time>2024-05-04T09:52:08.000Z</time><ele>1276.2</ele></trkpt><trkpt lat="45.867331" lon="9.199587"><time>2024-05-04T09:52:09.000Z</time><ele>1276.2</ele></trkpt><trkpt lat="45.867327" lon="9.199565"><time>2024-05-04T09:52:10.000Z</time><ele>1276.2</ele></trkpt><trkpt lat="45.867322" lon="9.19955"><time>2024-05-04T09:52:11.000Z</time><ele>1276.2</ele></trkpt><trkpt lat="45.867317" lon="9.19953"><time>2024-05-04T09:52:12.000Z</time><ele>1276</ele></trkpt><trkpt lat="45.867313" lon="9.199517"><time>2024-05-04T09:52:13.000Z</time><ele>1276.2</ele></trkpt><trkpt lat="45.867309" lon="9.199501"><time>2024-05-04T09:52:14.000Z</time><ele>1276.2</ele></trkpt><trkpt lat="45.867306" lon="9.199484"><time>2024-05-04T09:52:15.000Z</time><ele>1276.2</ele></trkpt><trkpt lat="45.867301" lon="9.199464"><time>2024-05-04T09:52:16.000Z</time><ele>1276.4</ele></trkpt><trkpt lat="45.867295" lon="9.199439"><time>2024-05-04T09:52:17.000Z</time><ele>1276.4</ele></trkpt><trkpt lat="45.867288" lon="9.199419"><time>2024-05-04T09:52:18.000Z</time><ele>1276.4</ele></trkpt><trkpt lat="45.867283" lon="9.199403"><time>2024-05-04T09:52:19.000Z</time><ele>1276.4</ele></trkpt><trkpt lat="45.86728" lon="9.19939"><time>2024-05-04T09:52:20.000Z</time><ele>1276.4</ele></trkpt><trkpt lat="45.867279" lon="9.199375"><time>2024-05-04T09:52:21.000Z</time><ele>1276.4</ele></trkpt><trkpt lat="45.867277" lon="9.199356"><time>2024-05-04T09:52:22.000Z</time><ele>1276.4</ele></trkpt><trkpt lat="45.867278" lon="9.199335"><time>2024-05-04T09:52:23.000Z</time><ele>1276.6</ele></trkpt><trkpt lat="45.867277" lon="9.199315"><time>2024-05-04T09:52:24.000Z</time><ele>1276.6</ele></trkpt><trkpt lat="45.867275" lon="9.199304"><time>2024-05-04T09:52:25.000Z</time><ele>1276.6</ele></trkpt><trkpt lat="45.867269" lon="9.199298"><time>2024-05-04T09:52:26.000Z</time><ele>1276.6</ele></trkpt><trkpt lat="45.867264" lon="9.199284"><time>2024-05-04T09:52:27.000Z</time><ele>1276.6</ele></trkpt><trkpt lat="45.867265" lon="9.199265"><time>2024-05-04T09:52:28.000Z</time><ele>1276.6</ele></trkpt><trkpt lat="45.867264" lon="9.199249"><time>2024-05-04T09:52:29.000Z</time><ele>1276.6</ele></trkpt><trkpt lat="45.867261" lon="9.199236"><time>2024-05-04T09:52:30.000Z</time><ele>1276.6</ele></trkpt><trkpt lat="45.867258" lon="9.199219"><time>2024-05-04T09:52:31.000Z</time><ele>1276.6</ele></trkpt><trkpt lat="45.867255" lon="9.199204"><time>2024-05-04T09:52:32.000Z</time><ele>1276.6</ele></trkpt><trkpt lat="45.867251" lon="9.199186"><time>2024-05-04T09:52:33.000Z</time><ele>1276.6</ele></trkpt><trkpt lat="45.867246" lon="9.199169"><time>2024-05-04T09:52:34.000Z</time><ele>1276.6</ele></trkpt><trkpt lat="45.867243" lon="9.199151"><time>2024-05-04T09:52:35.000Z</time><ele>1276.6</ele></trkpt><trkpt lat="45.86724" lon="9.199132"><time>2024-05-04T09:52:36.000Z</time><ele>1276.6</ele></trkpt><trkpt lat="45.867236" lon="9.199112"><time>2024-05-04T09:52:37.000Z</time><ele>1276.6</ele></trkpt><trkpt lat="45.867233" lon="9.199093"><time>2024-05-04T09:52:38.000Z</time><ele>1276.4</ele></trkpt><trkpt lat="45.867237" lon="9.199066"><time>2024-05-04T09:52:39.000Z</time><ele>1276.4</ele></trkpt><trkpt lat="45.867233" lon="9.199049"><time>2024-05-04T09:52:40.000Z</time><ele>1276.4</ele></trkpt><trkpt lat="45.86723" lon="9.199033"><time>2024-05-04T09:52:41.000Z</time><ele>1276.4</ele></trkpt><trkpt lat="45.867227" lon="9.199017"><time>2024-05-04T09:52:42.000Z</time><ele>1276.4</ele></trkpt><trkpt lat="45.867227" lon="9.198997"><time>2024-05-04T09:52:43.000Z</time><ele>1276.4</ele></trkpt><trkpt lat="45.867226" lon="9.198978"><time>2024-05-04T09:52:44.000Z</time><ele>1276.2</ele></trkpt><trkpt lat="45.867223" lon="9.198959"><time>2024-05-04T09:52:45.000Z</time><ele>1276</ele></trkpt><trkpt lat="45.86722" lon="9.198941"><time>2024-05-04T09:52:46.000Z</time><ele>1276</ele></trkpt><trkpt lat="45.867216" lon="9.198925"><time>2024-05-04T09:52:47.000Z</time><ele>1275.8</ele></trkpt><trkpt lat="45.867214" lon="9.198906"><time>2024-05-04T09:52:48.000Z</time><ele>1275.8</ele></trkpt><trkpt lat="45.86721" lon="9.19889"><time>2024-05-04T09:52:49.000Z</time><ele>1275.8</ele></trkpt><trkpt lat="45.867205" lon="9.198871"><time>2024-05-04T09:52:50.000Z</time><ele>1275.6</ele></trkpt><trkpt lat="45.867204" lon="9.198857"><time>2024-05-04T09:52:51.000Z</time><ele>1275.6</ele></trkpt><trkpt lat="45.8672" lon="9.198836"><time>2024-05-04T09:52:52.000Z</time><ele>1275.6</ele></trkpt><trkpt lat="45.867198" lon="9.198818"><time>2024-05-04T09:52:53.000Z</time><ele>1275.6</ele></trkpt><trkpt lat="45.867196" lon="9.198799"><time>2024-05-04T09:52:54.000Z</time><ele>1275.6</ele></trkpt><trkpt lat="45.867196" lon="9.198781"><time>2024-05-04T09:52:55.000Z</time><ele>1275.6</ele></trkpt><trkpt lat="45.867193" lon="9.198765"><time>2024-05-04T09:52:56.000Z</time><ele>1275.4</ele></trkpt><trkpt lat="45.867192" lon="9.198747"><time>2024-05-04T09:52:57.000Z</time><ele>1275.4</ele></trkpt><trkpt lat="45.86719" lon="9.19873"><time>2024-05-04T09:52:58.000Z</time><ele>1275.2</ele></trkpt><trkpt lat="45.867189" lon="9.19871"><time>2024-05-04T09:52:59.000Z</time><ele>1275.2</ele></trkpt><trkpt lat="45.867185" lon="9.19869"><time>2024-05-04T09:53:00.000Z</time><ele>1275.2</ele></trkpt><trkpt lat="45.86718" lon="9.198672"><time>2024-05-04T09:53:01.000Z</time><ele>1275.2</ele></trkpt><trkpt lat="45.867178" lon="9.198652"><time>2024-05-04T09:53:02.000Z</time><ele>1275</ele></trkpt><trkpt lat="45.867174" lon="9.198631"><time>2024-05-04T09:53:03.000Z</time><ele>1275</ele></trkpt><trkpt lat="45.867169" lon="9.198612"><time>2024-05-04T09:53:04.000Z</time><ele>1275</ele></trkpt><trkpt lat="45.867165" lon="9.198596"><time>2024-05-04T09:53:05.000Z</time><ele>1275</ele></trkpt><trkpt lat="45.867162" lon="9.19858"><time>2024-05-04T09:53:06.000Z</time><ele>1275</ele></trkpt><trkpt lat="45.86716" lon="9.198563"><time>2024-05-04T09:53:07.000Z</time><ele>1274.8</ele></trkpt><trkpt lat="45.867157" lon="9.198546"><time>2024-05-04T09:53:08.000Z</time><ele>1274.8</ele></trkpt><trkpt lat="45.867154" lon="9.198529"><time>2024-05-04T09:53:09.000Z</time><ele>1274.8</ele></trkpt><trkpt lat="45.867149" lon="9.198514"><time>2024-05-04T09:53:10.000Z</time><ele>1274.8</ele></trkpt><trkpt lat="45.867144" lon="9.198498"><time>2024-05-04T09:53:11.000Z</time><ele>1274.8</ele></trkpt><trkpt lat="45.867142" lon="9.198482"><time>2024-05-04T09:53:12.000Z</time><ele>1274.6</ele></trkpt><trkpt lat="45.86714" lon="9.198465"><time>2024-05-04T09:53:13.000Z</time><ele>1274.6</ele></trkpt><trkpt lat="45.867137" lon="9.198446"><time>2024-05-04T09:53:14.000Z</time><ele>1274.6</ele></trkpt><trkpt lat="45.867136" lon="9.198427"><time>2024-05-04T09:53:15.000Z</time><ele>1274.4</ele></trkpt><trkpt lat="45.867135" lon="9.198407"><time>2024-05-04T09:53:16.000Z</time><ele>1274.2</ele></trkpt><trkpt lat="45.867132" lon="9.198389"><time>2024-05-04T09:53:17.000Z</time><ele>1274.2</ele></trkpt><trkpt lat="45.867129" lon="9.198372"><time>2024-05-04T09:53:18.000Z</time><ele>1274.2</ele></trkpt><trkpt lat="45.867128" lon="9.198354"><time>2024-05-04T09:53:19.000Z</time><ele>1274</ele></trkpt><trkpt lat="45.867125" lon="9.198337"><time>2024-05-04T09:53:20.000Z</time><ele>1274</ele></trkpt><trkpt lat="45.867123" lon="9.19832"><time>2024-05-04T09:53:21.000Z</time><ele>1274</ele></trkpt><trkpt lat="45.86712" lon="9.198302"><time>2024-05-04T09:53:22.000Z</time><ele>1273.8</ele></trkpt><trkpt lat="45.867115" lon="9.198284"><time>2024-05-04T09:53:23.000Z</time><ele>1273.8</ele></trkpt><trkpt lat="45.867112" lon="9.198268"><time>2024-05-04T09:53:24.000Z</time><ele>1273.8</ele></trkpt><trkpt lat="45.867109" lon="9.198251"><time>2024-05-04T09:53:25.000Z</time><ele>1273.8</ele></trkpt><trkpt lat="45.867108" lon="9.198236"><time>2024-05-04T09:53:26.000Z</time><ele>1273.6</ele></trkpt><trkpt lat="45.867103" lon="9.198221"><time>2024-05-04T09:53:27.000Z</time><ele>1273.6</ele></trkpt><trkpt lat="45.867097" lon="9.198206"><time>2024-05-04T09:53:28.000Z</time><ele>1273.4</ele></trkpt><trkpt lat="45.867093" lon="9.19819"><time>2024-05-04T09:53:29.000Z</time><ele>1273.2</ele></trkpt><trkpt lat="45.867091" lon="9.198175"><time>2024-05-04T09:53:30.000Z</time><ele>1273.2</ele></trkpt><trkpt lat="45.867087" lon="9.198163"><time>2024-05-04T09:53:31.000Z</time><ele>1273.2</ele></trkpt><trkpt lat="45.86708" lon="9.198158"><time>2024-05-04T09:53:32.000Z</time><ele>1273</ele></trkpt><trkpt lat="45.867074" lon="9.198156"><time>2024-05-04T09:53:33.000Z</time><ele>1273</ele></trkpt><trkpt lat="45.867075" lon="9.198143"><time>2024-05-04T09:53:34.000Z</time><ele>1272.8</ele></trkpt><trkpt lat="45.867078" lon="9.198129"><time>2024-05-04T09:53:35.000Z</time><ele>1272.6</ele></trkpt><trkpt lat="45.867078" lon="9.198125"><time>2024-05-04T09:53:36.000Z</time><ele>1272.6</ele></trkpt><trkpt lat="45.867076" lon="9.198116"><time>2024-05-04T09:53:37.000Z</time><ele>1272.4</ele></trkpt><trkpt lat="45.867073" lon="9.198113"><time>2024-05-04T09:53:38.000Z</time><ele>1272.4</ele></trkpt><trkpt lat="45.867071" lon="9.19811"><time>2024-05-04T09:53:39.000Z</time><ele>1272.4</ele></trkpt><trkpt lat="45.867066" lon="9.1981"><time>2024-05-04T09:53:40.000Z</time><ele>1272.4</ele></trkpt><trkpt lat="45.867062" lon="9.198094"><time>2024-05-04T09:53:41.000Z</time><ele>1272.4</ele></trkpt><trkpt lat="45.867059" lon="9.198091"><time>2024-05-04T09:53:42.000Z</time><ele>1272.4</ele></trkpt><trkpt lat="45.867056" lon="9.198091"><time>2024-05-04T09:53:43.000Z</time><ele>1272.4</ele></trkpt><trkpt lat="45.867056" lon="9.19809"><time>2024-05-04T09:53:44.000Z</time><ele>1272.6</ele></trkpt><trkpt lat="45.867058" lon="9.198088"><time>2024-05-04T09:53:45.000Z</time><ele>1272.6</ele></trkpt><trkpt lat="45.867059" lon="9.198086"><time>2024-05-04T09:53:46.000Z</time><ele>1272.6</ele></trkpt><trkpt lat="45.86706" lon="9.198085"><time>2024-05-04T09:53:47.000Z</time><ele>1272.6</ele></trkpt><trkpt lat="45.86706" lon="9.198085"><time>2024-05-04T09:53:48.000Z</time><ele>1272.6</ele></trkpt><trkpt lat="45.867059" lon="9.198083"><time>2024-05-04T09:53:49.000Z</time><ele>1272.6</ele></trkpt><trkpt lat="45.867057" lon="9.198083"><time>2024-05-04T09:53:50.000Z</time><ele>1272.6</ele></trkpt><trkpt lat="45.867057" lon="9.198081"><time>2024-05-04T09:53:51.000Z</time><ele>1272.6</ele></trkpt><trkpt lat="45.867057" lon="9.198081"><time>2024-05-04T09:53:52.000Z</time><ele>1272.6</ele></trkpt><trkpt lat="45.867057" lon="9.198081"><time>2024-05-04T09:53:53.000Z</time><ele>1272.6</ele></trkpt><trkpt lat="45.867057" lon="9.198081"><time>2024-05-04T09:53:54.000Z</time><ele>1272.4</ele></trkpt><trkpt lat="45.867057" lon="9.198081"><time>2024-05-04T09:53:55.000Z</time><ele>1272.4</ele></trkpt><trkpt lat="45.867057" lon="9.198081"><time>2024-05-04T09:53:56.000Z</time><ele>1272.4</ele></trkpt><trkpt lat="45.867057" lon="9.198081"><time>2024-05-04T09:53:57.000Z</time><ele>1272.2</ele></trkpt><trkpt lat="45.867057" lon="9.198081"><time>2024-05-04T09:53:58.000Z</time><ele>1272</ele></trkpt><trkpt lat="45.867057" lon="9.198081"><time>2024-05-04T09:53:59.000Z</time><ele>1272</ele></trkpt><trkpt lat="45.867057" lon="9.198081"><time>2024-05-04T09:54:00.000Z</time><ele>1271.8</ele></trkpt><trkpt lat="45.867057" lon="9.198081"><time>2024-05-04T09:54:01.000Z</time><ele>1271.6</ele></trkpt><trkpt lat="45.867057" lon="9.198081"><time>2024-05-04T09:54:02.000Z</time><ele>1271.6</ele></trkpt><trkpt lat="45.867057" lon="9.198081"><time>2024-05-04T09:54:03.000Z</time><ele>1271.4</ele></trkpt><trkpt lat="45.867057" lon="9.198081"><time>2024-05-04T09:54:04.000Z</time><ele>1271.4</ele></trkpt><trkpt lat="45.867057" lon="9.198082"><time>2024-05-04T09:54:05.000Z</time><ele>1271.2</ele></trkpt><trkpt lat="45.867057" lon="9.198083"><time>2024-05-04T09:54:06.000Z</time><ele>1271.2</ele></trkpt><trkpt lat="45.867057" lon="9.198084"><time>2024-05-04T09:54:07.000Z</time><ele>1271</ele></trkpt><trkpt lat="45.867057" lon="9.198085"><time>2024-05-04T09:54:08.000Z</time><ele>1271</ele></trkpt><trkpt lat="45.867056" lon="9.198085"><time>2024-05-04T09:54:09.000Z</time><ele>1270.8</ele></trkpt><trkpt lat="45.867054" lon="9.198086"><time>2024-05-04T09:54:10.000Z</time><ele>1270.8</ele></trkpt><trkpt lat="45.86705" lon="9.198086"><time>2024-05-04T09:54:11.000Z</time><ele>1270.6</ele></trkpt><trkpt lat="45.867039" lon="9.198088"><time>2024-05-04T09:54:12.000Z</time><ele>1270.4</ele></trkpt><trkpt lat="45.867035" lon="9.198089"><time>2024-05-04T09:54:13.000Z</time><ele>1270.4</ele></trkpt><trkpt lat="45.867034" lon="9.198089"><time>2024-05-04T09:54:14.000Z</time><ele>1270.2</ele></trkpt><trkpt lat="45.867027" lon="9.198093"><time>2024-05-04T09:54:15.000Z</time><ele>1270</ele></trkpt><trkpt lat="45.867018" lon="9.198105"><time>2024-05-04T09:54:16.000Z</time><ele>1270</ele></trkpt><trkpt lat="45.867002" lon="9.19813"><time>2024-05-04T09:54:17.000Z</time><ele>1269.8</ele></trkpt><trkpt lat="45.866986" lon="9.198152"><time>2024-05-04T09:54:18.000Z</time><ele>1269.8</ele></trkpt><trkpt lat="45.86697" lon="9.198174"><time>2024-05-04T09:54:19.000Z</time><ele>1269.8</ele></trkpt><trkpt lat="45.866955" lon="9.198197"><time>2024-05-04T09:54:20.000Z</time><ele>1269.8</ele></trkpt><trkpt lat="45.866941" lon="9.19822"><time>2024-05-04T09:54:21.000Z</time><ele>1269.6</ele></trkpt><trkpt lat="45.866928" lon="9.198245"><time>2024-05-04T09:54:22.000Z</time><ele>1269.6</ele></trkpt><trkpt lat="45.866915" lon="9.198266"><time>2024-05-04T09:54:23.000Z</time><ele>1269.4</ele></trkpt><trkpt lat="45.866896" lon="9.198283"><time>2024-05-04T09:54:24.000Z</time><ele>1269.4</ele></trkpt><trkpt lat="45.86688" lon="9.198305"><time>2024-05-04T09:54:25.000Z</time><ele>1269.4</ele></trkpt><trkpt lat="45.866875" lon="9.198318"><time>2024-05-04T09:54:26.000Z</time><ele>1269.2</ele></trkpt><trkpt lat="45.866868" lon="9.198329"><time>2024-05-04T09:54:27.000Z</time><ele>1269.2</ele></trkpt><trkpt lat="45.866863" lon="9.198337"><time>2024-05-04T09:54:28.000Z</time><ele>1268.8</ele></trkpt><trkpt lat="45.866858" lon="9.198346"><time>2024-05-04T09:54:29.000Z</time><ele>1268.8</ele></trkpt><trkpt lat="45.866854" lon="9.198352"><time>2024-05-04T09:54:30.000Z</time><ele>1268.4</ele></trkpt><trkpt lat="45.866847" lon="9.198365"><time>2024-05-04T09:54:31.000Z</time><ele>1268.2</ele></trkpt><trkpt lat="45.86684" lon="9.198376"><time>2024-05-04T09:54:32.000Z</time><ele>1267.8</ele></trkpt><trkpt lat="45.866831" lon="9.198385"><time>2024-05-04T09:54:33.000Z</time><ele>1267.6</ele></trkpt><trkpt lat="45.866823" lon="9.198392"><time>2024-05-04T09:54:34.000Z</time><ele>1267.4</ele></trkpt><trkpt lat="45.866817" lon="9.1984"><time>2024-05-04T09:54:35.000Z</time><ele>1267.4</ele></trkpt><trkpt lat="45.866811" lon="9.198408"><time>2024-05-04T09:54:36.000Z</time><ele>1267.2</ele></trkpt><trkpt lat="45.866806" lon="9.198417"><time>2024-05-04T09:54:37.000Z</time><ele>1267</ele></trkpt><trkpt lat="45.866804" lon="9.198424"><time>2024-05-04T09:54:38.000Z</time><ele>1267</ele></trkpt><trkpt lat="45.866804" lon="9.198427"><time>2024-05-04T09:54:39.000Z</time><ele>1267</ele></trkpt><trkpt lat="45.866804" lon="9.198428"><time>2024-05-04T09:54:40.000Z</time><ele>1267</ele></trkpt><trkpt lat="45.866804" lon="9.198431"><time>2024-05-04T09:54:41.000Z</time><ele>1267</ele></trkpt><trkpt lat="45.866792" lon="9.198427"><time>2024-05-04T09:54:42.000Z</time><ele>1267</ele></trkpt><trkpt lat="45.866789" lon="9.198431"><time>2024-05-04T09:54:43.000Z</time><ele>1267</ele></trkpt><trkpt lat="45.86678" lon="9.198449"><time>2024-05-04T09:54:44.000Z</time><ele>1267</ele></trkpt><trkpt lat="45.866772" lon="9.198457"><time>2024-05-04T09:54:45.000Z</time><ele>1267</ele></trkpt><trkpt lat="45.866764" lon="9.198472"><time>2024-05-04T09:54:46.000Z</time><ele>1266.8</ele></trkpt><trkpt lat="45.866755" lon="9.198491"><time>2024-05-04T09:54:47.000Z</time><ele>1266.6</ele></trkpt><trkpt lat="45.866745" lon="9.198502"><time>2024-05-04T09:54:48.000Z</time><ele>1266.6</ele></trkpt><trkpt lat="45.866738" lon="9.198519"><time>2024-05-04T09:54:49.000Z</time><ele>1266.6</ele></trkpt><trkpt lat="45.86673" lon="9.198536"><time>2024-05-04T09:54:50.000Z</time><ele>1266.4</ele></trkpt><trkpt lat="45.866724" lon="9.198551"><time>2024-05-04T09:54:51.000Z</time><ele>1266.4</ele></trkpt><trkpt lat="45.866715" lon="9.198566"><time>2024-05-04T09:54:52.000Z</time><ele>1266.4</ele></trkpt><trkpt lat="45.866706" lon="9.198582"><time>2024-05-04T09:54:53.000Z</time><ele>1266.4</ele></trkpt><trkpt lat="45.866698" lon="9.198593"><time>2024-05-04T09:54:54.000Z</time><ele>1266.4</ele></trkpt><trkpt lat="45.866688" lon="9.198602"><time>2024-05-04T09:54:55.000Z</time><ele>1266.2</ele></trkpt><trkpt lat="45.86668" lon="9.198612"><time>2024-05-04T09:54:56.000Z</time><ele>1265.8</ele></trkpt><trkpt lat="45.866672" lon="9.198622"><time>2024-05-04T09:54:57.000Z</time><ele>1265.6</ele></trkpt><trkpt lat="45.866662" lon="9.198633"><time>2024-05-04T09:54:58.000Z</time><ele>1265.4</ele></trkpt><trkpt lat="45.866652" lon="9.198644"><time>2024-05-04T09:54:59.000Z</time><ele>1265.2</ele></trkpt><trkpt lat="45.86664" lon="9.198656"><time>2024-05-04T09:55:00.000Z</time><ele>1265</ele></trkpt><trkpt lat="45.866632" lon="9.198666"><time>2024-05-04T09:55:01.000Z</time><ele>1264.8</ele></trkpt><trkpt lat="45.866621" lon="9.198675"><time>2024-05-04T09:55:02.000Z</time><ele>1264.6</ele></trkpt><trkpt lat="45.86661" lon="9.198687"><time>2024-05-04T09:55:03.000Z</time><ele>1264.4</ele></trkpt><trkpt lat="45.866598" lon="9.198698"><time>2024-05-04T09:55:04.000Z</time><ele>1264.2</ele></trkpt><trkpt lat="45.866587" lon="9.198706"><time>2024-05-04T09:55:05.000Z</time><ele>1264.2</ele></trkpt><trkpt lat="45.866574" lon="9.198714"><time>2024-05-04T09:55:06.000Z</time><ele>1264.2</ele></trkpt><trkpt lat="45.866565" lon="9.198719"><time>2024-05-04T09:55:07.000Z</time><ele>1264</ele></trkpt><trkpt lat="45.866557" lon="9.198727"><time>2024-05-04T09:55:08.000Z</time><ele>1264</ele></trkpt><trkpt lat="45.866546" lon="9.198737"><time>2024-05-04T09:55:09.000Z</time><ele>1263.8</ele></trkpt><trkpt lat="45.866535" lon="9.198747"><time>2024-05-04T09:55:10.000Z</time><ele>1263.6</ele></trkpt><trkpt lat="45.866523" lon="9.198758"><time>2024-05-04T09:55:11.000Z</time><ele>1263.4</ele></trkpt><trkpt lat="45.866509" lon="9.198771"><time>2024-05-04T09:55:12.000Z</time><ele>1263.4</ele></trkpt><trkpt lat="45.866499" lon="9.198783"><time>2024-05-04T09:55:13.000Z</time><ele>1263.4</ele></trkpt><trkpt lat="45.86649" lon="9.198791"><time>2024-05-04T09:55:14.000Z</time><ele>1263.4</ele></trkpt><trkpt lat="45.86648" lon="9.198796"><time>2024-05-04T09:55:15.000Z</time><ele>1263.4</ele></trkpt><trkpt lat="45.866472" lon="9.198801"><time>2024-05-04T09:55:16.000Z</time><ele>1263.4</ele></trkpt><trkpt lat="45.866465" lon="9.198811"><time>2024-05-04T09:55:17.000Z</time><ele>1263.4</ele></trkpt><trkpt lat="45.866456" lon="9.198822"><time>2024-05-04T09:55:18.000Z</time><ele>1263.4</ele></trkpt><trkpt lat="45.866446" lon="9.198832"><time>2024-05-04T09:55:19.000Z</time><ele>1263.4</ele></trkpt><trkpt lat="45.866435" lon="9.198836"><time>2024-05-04T09:55:20.000Z</time><ele>1263.2</ele></trkpt><trkpt lat="45.866425" lon="9.198845"><time>2024-05-04T09:55:21.000Z</time><ele>1263.2</ele></trkpt><trkpt lat="45.866414" lon="9.198854"><time>2024-05-04T09:55:22.000Z</time><ele>1263</ele></trkpt><trkpt lat="45.866402" lon="9.198861"><time>2024-05-04T09:55:23.000Z</time><ele>1263</ele></trkpt><trkpt lat="45.866395" lon="9.198866"><time>2024-05-04T09:55:24.000Z</time><ele>1262.8</ele></trkpt><trkpt lat="45.866386" lon="9.198877"><time>2024-05-04T09:55:25.000Z</time><ele>1262.8</ele></trkpt><trkpt lat="45.866379" lon="9.198884"><time>2024-05-04T09:55:26.000Z</time><ele>1262.8</ele></trkpt><trkpt lat="45.866373" lon="9.198892"><time>2024-05-04T09:55:27.000Z</time><ele>1262.6</ele></trkpt><trkpt lat="45.866368" lon="9.198898"><time>2024-05-04T09:55:28.000Z</time><ele>1262.6</ele></trkpt><trkpt lat="45.866367" lon="9.198901"><time>2024-05-04T09:55:29.000Z</time><ele>1262.4</ele></trkpt><trkpt lat="45.866366" lon="9.198903"><time>2024-05-04T09:55:30.000Z</time><ele>1262.2</ele></trkpt><trkpt lat="45.866365" lon="9.198904"><time>2024-05-04T09:55:31.000Z</time><ele>1262.2</ele></trkpt><trkpt lat="45.866365" lon="9.198905"><time>2024-05-04T09:55:32.000Z</time><ele>1262</ele></trkpt><trkpt lat="45.866365" lon="9.198905"><time>2024-05-04T09:55:33.000Z</time><ele>1262</ele></trkpt><trkpt lat="45.866366" lon="9.198904"><time>2024-05-04T09:55:34.000Z</time><ele>1262</ele></trkpt><trkpt lat="45.866367" lon="9.198903"><time>2024-05-04T09:55:35.000Z</time><ele>1262</ele></trkpt><trkpt lat="45.866367" lon="9.198901"><time>2024-05-04T09:55:36.000Z</time><ele>1262</ele></trkpt><trkpt lat="45.866367" lon="9.1989"><time>2024-05-04T09:55:37.000Z</time><ele>1262</ele></trkpt><trkpt lat="45.866369" lon="9.198898"><time>2024-05-04T09:55:38.000Z</time><ele>1262</ele></trkpt><trkpt lat="45.86637" lon="9.198897"><time>2024-05-04T09:55:39.000Z</time><ele>1262</ele></trkpt><trkpt lat="45.866372" lon="9.198898"><time>2024-05-04T09:55:40.000Z</time><ele>1262</ele></trkpt><trkpt lat="45.866373" lon="9.1989"><time>2024-05-04T09:55:41.000Z</time><ele>1262</ele></trkpt><trkpt lat="45.866374" lon="9.198902"><time>2024-05-04T09:55:42.000Z</time><ele>1262</ele></trkpt><trkpt lat="45.866374" lon="9.198903"><time>2024-05-04T09:55:43.000Z</time><ele>1261.8</ele></trkpt><trkpt lat="45.866374" lon="9.198904"><time>2024-05-04T09:55:44.000Z</time><ele>1261.8</ele></trkpt><trkpt lat="45.866374" lon="9.198904"><time>2024-05-04T09:55:45.000Z</time><ele>1261.8</ele></trkpt><trkpt lat="45.866374" lon="9.198904"><time>2024-05-04T09:55:46.000Z</time><ele>1261.8</ele></trkpt><trkpt lat="45.866374" lon="9.198904"><time>2024-05-04T09:55:47.000Z</time><ele>1261.8</ele></trkpt><trkpt lat="45.866374" lon="9.198904"><time>2024-05-04T09:55:48.000Z</time><ele>1262</ele></trkpt><trkpt lat="45.866374" lon="9.198904"><time>2024-05-04T09:55:49.000Z</time><ele>1262</ele></trkpt><trkpt lat="45.866374" lon="9.198904"><time>2024-05-04T09:55:50.000Z</time><ele>1262</ele></trkpt><trkpt lat="45.866374" lon="9.198904"><time>2024-05-04T09:55:51.000Z</time><ele>1262</ele></trkpt><trkpt lat="45.866374" lon="9.198904"><time>2024-05-04T09:55:52.000Z</time><ele>1261.8</ele></trkpt><trkpt lat="45.866374" lon="9.198904"><time>2024-05-04T09:55:53.000Z</time><ele>1261.8</ele></trkpt><trkpt lat="45.866371" lon="9.198907"><time>2024-05-04T09:55:54.000Z</time><ele>1261.8</ele></trkpt><trkpt lat="45.866358" lon="9.198917"><time>2024-05-04T09:55:55.000Z</time><ele>1261.8</ele></trkpt><trkpt lat="45.866348" lon="9.198932"><time>2024-05-04T09:55:56.000Z</time><ele>1261.8</ele></trkpt><trkpt lat="45.866337" lon="9.198945"><time>2024-05-04T09:55:57.000Z</time><ele>1261.8</ele></trkpt><trkpt lat="45.866324" lon="9.19896"><time>2024-05-04T09:55:58.000Z</time><ele>1261.8</ele></trkpt><trkpt lat="45.866312" lon="9.198975"><time>2024-05-04T09:55:59.000Z</time><ele>1261.8</ele></trkpt><trkpt lat="45.8663" lon="9.198992"><time>2024-05-04T09:56:00.000Z</time><ele>1261.6</ele></trkpt><trkpt lat="45.866288" lon="9.199011"><time>2024-05-04T09:56:01.000Z</time><ele>1261.6</ele></trkpt><trkpt lat="45.866272" lon="9.19903"><time>2024-05-04T09:56:02.000Z</time><ele>1261.4</ele></trkpt><trkpt lat="45.866255" lon="9.199043"><time>2024-05-04T09:56:03.000Z</time><ele>1261.2</ele></trkpt><trkpt lat="45.866244" lon="9.19905"><time>2024-05-04T09:56:04.000Z</time><ele>1261</ele></trkpt><trkpt lat="45.866229" lon="9.199062"><time>2024-05-04T09:56:05.000Z</time><ele>1261</ele></trkpt><trkpt lat="45.86622" lon="9.199072"><time>2024-05-04T09:56:06.000Z</time><ele>1260.8</ele></trkpt><trkpt lat="45.866208" lon="9.199086"><time>2024-05-04T09:56:07.000Z</time><ele>1260.8</ele></trkpt><trkpt lat="45.866199" lon="9.199095"><time>2024-05-04T09:56:08.000Z</time><ele>1260.8</ele></trkpt><trkpt lat="45.866188" lon="9.199106"><time>2024-05-04T09:56:09.000Z</time><ele>1260.6</ele></trkpt><trkpt lat="45.866179" lon="9.199114"><time>2024-05-04T09:56:10.000Z</time><ele>1260.6</ele></trkpt><trkpt lat="45.866173" lon="9.199123"><time>2024-05-04T09:56:11.000Z</time><ele>1260.6</ele></trkpt><trkpt lat="45.866166" lon="9.199133"><time>2024-05-04T09:56:12.000Z</time><ele>1260.6</ele></trkpt><trkpt lat="45.866157" lon="9.199146"><time>2024-05-04T09:56:13.000Z</time><ele>1260.4</ele></trkpt><trkpt lat="45.866147" lon="9.19916"><time>2024-05-04T09:56:14.000Z</time><ele>1260.2</ele></trkpt><trkpt lat="45.866135" lon="9.199175"><time>2024-05-04T09:56:15.000Z</time><ele>1260</ele></trkpt><trkpt lat="45.86612" lon="9.199184"><time>2024-05-04T09:56:16.000Z</time><ele>1259.8</ele></trkpt><trkpt lat="45.866106" lon="9.199191"><time>2024-05-04T09:56:17.000Z</time><ele>1259.8</ele></trkpt><trkpt lat="45.866093" lon="9.199192"><time>2024-05-04T09:56:18.000Z</time><ele>1259.6</ele></trkpt><trkpt lat="45.866079" lon="9.199198"><time>2024-05-04T09:56:19.000Z</time><ele>1259.6</ele></trkpt><trkpt lat="45.866079" lon="9.199198"><time>2024-05-04T09:56:20.000Z</time><ele>1259.4</ele></trkpt><trkpt lat="45.866038" lon="9.199205"><time>2024-05-04T09:56:21.000Z</time><ele>1259.4</ele></trkpt><trkpt lat="45.866023" lon="9.199212"><time>2024-05-04T09:56:22.000Z</time><ele>1259.4</ele></trkpt><trkpt lat="45.866012" lon="9.199213"><time>2024-05-04T09:56:23.000Z</time><ele>1259.2</ele></trkpt><trkpt lat="45.866003" lon="9.19922"><time>2024-05-04T09:56:24.000Z</time><ele>1259.2</ele></trkpt><trkpt lat="45.865988" lon="9.199228"><time>2024-05-04T09:56:25.000Z</time><ele>1259</ele></trkpt><trkpt lat="45.865975" lon="9.199233"><time>2024-05-04T09:56:26.000Z</time><ele>1258.8</ele></trkpt><trkpt lat="45.865963" lon="9.199238"><time>2024-05-04T09:56:27.000Z</time><ele>1258.8</ele></trkpt><trkpt lat="45.865953" lon="9.199242"><time>2024-05-04T09:56:28.000Z</time><ele>1258.6</ele></trkpt><trkpt lat="45.865948" lon="9.199248"><time>2024-05-04T09:56:29.000Z</time><ele>1258.4</ele></trkpt><trkpt lat="45.865937" lon="9.199258"><time>2024-05-04T09:56:30.000Z</time><ele>1258.4</ele></trkpt><trkpt lat="45.865931" lon="9.199264"><time>2024-05-04T09:56:31.000Z</time><ele>1258.4</ele></trkpt><trkpt lat="45.865924" lon="9.199266"><time>2024-05-04T09:56:32.000Z</time><ele>1258.2</ele></trkpt><trkpt lat="45.865912" lon="9.199274"><time>2024-05-04T09:56:33.000Z</time><ele>1258.2</ele></trkpt><trkpt lat="45.865902" lon="9.199283"><time>2024-05-04T09:56:34.000Z</time><ele>1258.2</ele></trkpt><trkpt lat="45.865892" lon="9.19929"><time>2024-05-04T09:56:35.000Z</time><ele>1258.2</ele></trkpt><trkpt lat="45.86588" lon="9.199295"><time>2024-05-04T09:56:36.000Z</time><ele>1258</ele></trkpt><trkpt lat="45.865869" lon="9.199301"><time>2024-05-04T09:56:37.000Z</time><ele>1258</ele></trkpt><trkpt lat="45.865862" lon="9.199304"><time>2024-05-04T09:56:38.000Z</time><ele>1258</ele></trkpt><trkpt lat="45.865853" lon="9.199309"><time>2024-05-04T09:56:39.000Z</time><ele>1258</ele></trkpt><trkpt lat="45.865845" lon="9.199313"><time>2024-05-04T09:56:40.000Z</time><ele>1258</ele></trkpt><trkpt lat="45.865836" lon="9.199319"><time>2024-05-04T09:56:41.000Z</time><ele>1258</ele></trkpt><trkpt lat="45.865826" lon="9.199325"><time>2024-05-04T09:56:42.000Z</time><ele>1258</ele></trkpt><trkpt lat="45.865816" lon="9.199331"><time>2024-05-04T09:56:43.000Z</time><ele>1257.8</ele></trkpt><trkpt lat="45.865805" lon="9.199336"><time>2024-05-04T09:56:44.000Z</time><ele>1257.8</ele></trkpt><trkpt lat="45.865799" lon="9.19934"><time>2024-05-04T09:56:45.000Z</time><ele>1257.6</ele></trkpt><trkpt lat="45.865792" lon="9.199348"><time>2024-05-04T09:56:46.000Z</time><ele>1257.4</ele></trkpt><trkpt lat="45.865784" lon="9.199354"><time>2024-05-04T09:56:47.000Z</time><ele>1257.2</ele></trkpt><trkpt lat="45.865769" lon="9.199367"><time>2024-05-04T09:56:48.000Z</time><ele>1257</ele></trkpt><trkpt lat="45.865759" lon="9.199379"><time>2024-05-04T09:56:49.000Z</time><ele>1256.8</ele></trkpt><trkpt lat="45.865751" lon="9.199388"><time>2024-05-04T09:56:50.000Z</time><ele>1256.6</ele></trkpt><trkpt lat="45.865734" lon="9.199399"><time>2024-05-04T09:56:51.000Z</time><ele>1256.4</ele></trkpt><trkpt lat="45.865718" lon="9.199407"><time>2024-05-04T09:56:52.000Z</time><ele>1256.2</ele></trkpt><trkpt lat="45.865704" lon="9.199414"><time>2024-05-04T09:56:53.000Z</time><ele>1255.8</ele></trkpt><trkpt lat="45.865694" lon="9.19942"><time>2024-05-04T09:56:54.000Z</time><ele>1255.6</ele></trkpt><trkpt lat="45.865681" lon="9.199428"><time>2024-05-04T09:56:55.000Z</time><ele>1255.6</ele></trkpt><trkpt lat="45.865666" lon="9.199434"><time>2024-05-04T09:56:56.000Z</time><ele>1255.4</ele></trkpt><trkpt lat="45.865658" lon="9.199435"><time>2024-05-04T09:56:57.000Z</time><ele>1255.4</ele></trkpt><trkpt lat="45.86565" lon="9.19944"><time>2024-05-04T09:56:58.000Z</time><ele>1255.2</ele></trkpt><trkpt lat="45.865639" lon="9.199446"><time>2024-05-04T09:56:59.000Z</time><ele>1255.2</ele></trkpt><trkpt lat="45.865625" lon="9.199452"><time>2024-05-04T09:57:00.000Z</time><ele>1255.2</ele></trkpt><trkpt lat="45.865614" lon="9.199453"><time>2024-05-04T09:57:01.000Z</time><ele>1255</ele></trkpt><trkpt lat="45.865602" lon="9.199453"><time>2024-05-04T09:57:02.000Z</time><ele>1254.8</ele></trkpt><trkpt lat="45.865588" lon="9.199456"><time>2024-05-04T09:57:03.000Z</time><ele>1254.8</ele></trkpt><trkpt lat="45.865577" lon="9.199462"><time>2024-05-04T09:57:04.000Z</time><ele>1254.6</ele></trkpt><trkpt lat="45.865569" lon="9.199474"><time>2024-05-04T09:57:05.000Z</time><ele>1254.6</ele></trkpt><trkpt lat="45.865559" lon="9.199471"><time>2024-05-04T09:57:06.000Z</time><ele>1254.4</ele></trkpt><trkpt lat="45.865553" lon="9.199471"><time>2024-05-04T09:57:07.000Z</time><ele>1254.2</ele></trkpt><trkpt lat="45.86554" lon="9.199468"><time>2024-05-04T09:57:08.000Z</time><ele>1254</ele></trkpt><trkpt lat="45.865525" lon="9.199468"><time>2024-05-04T09:57:09.000Z</time><ele>1254</ele></trkpt><trkpt lat="45.865512" lon="9.19947"><time>2024-05-04T09:57:10.000Z</time><ele>1254</ele></trkpt><trkpt lat="45.865499" lon="9.199471"><time>2024-05-04T09:57:11.000Z</time><ele>1253.8</ele></trkpt><trkpt lat="45.865484" lon="9.199455"><time>2024-05-04T09:57:12.000Z</time><ele>1253.8</ele></trkpt><trkpt lat="45.865472" lon="9.199442"><time>2024-05-04T09:57:13.000Z</time><ele>1253.8</ele></trkpt><trkpt lat="45.865458" lon="9.199431"><time>2024-05-04T09:57:14.000Z</time><ele>1253.8</ele></trkpt><trkpt lat="45.865446" lon="9.199427"><time>2024-05-04T09:57:15.000Z</time><ele>1253.8</ele></trkpt><trkpt lat="45.865438" lon="9.199419"><time>2024-05-04T09:57:16.000Z</time><ele>1253.8</ele></trkpt><trkpt lat="45.865434" lon="9.199414"><time>2024-05-04T09:57:17.000Z</time><ele>1253.8</ele></trkpt><trkpt lat="45.865425" lon="9.199409"><time>2024-05-04T09:57:18.000Z</time><ele>1253.8</ele></trkpt><trkpt lat="45.865418" lon="9.199405"><time>2024-05-04T09:57:19.000Z</time><ele>1253.8</ele></trkpt><trkpt lat="45.865411" lon="9.199401"><time>2024-05-04T09:57:20.000Z</time><ele>1253.6</ele></trkpt><trkpt lat="45.865405" lon="9.199404"><time>2024-05-04T09:57:21.000Z</time><ele>1253.6</ele></trkpt><trkpt lat="45.865398" lon="9.199391"><time>2024-05-04T09:57:22.000Z</time><ele>1253.6</ele></trkpt><trkpt lat="45.865389" lon="9.199378"><time>2024-05-04T09:57:23.000Z</time><ele>1253.4</ele></trkpt><trkpt lat="45.865378" lon="9.19937"><time>2024-05-04T09:57:24.000Z</time><ele>1253.2</ele></trkpt><trkpt lat="45.865368" lon="9.199359"><time>2024-05-04T09:57:25.000Z</time><ele>1253</ele></trkpt><trkpt lat="45.865362" lon="9.199346"><time>2024-05-04T09:57:26.000Z</time><ele>1253</ele></trkpt><trkpt lat="45.865355" lon="9.199339"><time>2024-05-04T09:57:27.000Z</time><ele>1253</ele></trkpt><trkpt lat="45.865346" lon="9.199334"><time>2024-05-04T09:57:28.000Z</time><ele>1252.8</ele></trkpt><trkpt lat="45.865336" lon="9.199331"><time>2024-05-04T09:57:29.000Z</time><ele>1252.8</ele></trkpt><trkpt lat="45.865326" lon="9.199327"><time>2024-05-04T09:57:30.000Z</time><ele>1252.8</ele></trkpt><trkpt lat="45.865318" lon="9.199322"><time>2024-05-04T09:57:31.000Z</time><ele>1252.6</ele></trkpt><trkpt lat="45.865312" lon="9.199317"><time>2024-05-04T09:57:32.000Z</time><ele>1252.6</ele></trkpt><trkpt lat="45.865307" lon="9.199316"><time>2024-05-04T09:57:33.000Z</time><ele>1252.4</ele></trkpt><trkpt lat="45.865304" lon="9.199316"><time>2024-05-04T09:57:34.000Z</time><ele>1252.2</ele></trkpt><trkpt lat="45.865293" lon="9.199315"><time>2024-05-04T09:57:35.000Z</time><ele>1252.2</ele></trkpt><trkpt lat="45.86529" lon="9.199316"><time>2024-05-04T09:57:36.000Z</time><ele>1252.2</ele></trkpt><trkpt lat="45.865281" lon="9.199313"><time>2024-05-04T09:57:37.000Z</time><ele>1252</ele></trkpt><trkpt lat="45.865269" lon="9.199306"><time>2024-05-04T09:57:38.000Z</time><ele>1252</ele></trkpt><trkpt lat="45.865257" lon="9.199299"><time>2024-05-04T09:57:39.000Z</time><ele>1252</ele></trkpt><trkpt lat="45.865243" lon="9.199292"><time>2024-05-04T09:57:40.000Z</time><ele>1251.8</ele></trkpt><trkpt lat="45.865232" lon="9.199286"><time>2024-05-04T09:57:41.000Z</time><ele>1251.6</ele></trkpt><trkpt lat="45.865222" lon="9.199279"><time>2024-05-04T09:57:42.000Z</time><ele>1251.4</ele></trkpt><trkpt lat="45.865213" lon="9.199279"><time>2024-05-04T09:57:43.000Z</time><ele>1251.2</ele></trkpt><trkpt lat="45.865212" lon="9.199281"><time>2024-05-04T09:57:44.000Z</time><ele>1251</ele></trkpt><trkpt lat="45.865206" lon="9.199282"><time>2024-05-04T09:57:45.000Z</time><ele>1250.8</ele></trkpt><trkpt lat="45.865193" lon="9.199283"><time>2024-05-04T09:57:46.000Z</time><ele>1250.8</ele></trkpt><trkpt lat="45.865177" lon="9.199277"><time>2024-05-04T09:57:47.000Z</time><ele>1250.8</ele></trkpt><trkpt lat="45.865166" lon="9.199267"><time>2024-05-04T09:57:48.000Z</time><ele>1250.6</ele></trkpt><trkpt lat="45.865157" lon="9.199257"><time>2024-05-04T09:57:49.000Z</time><ele>1250.4</ele></trkpt><trkpt lat="45.865147" lon="9.199249"><time>2024-05-04T09:57:50.000Z</time><ele>1250.2</ele></trkpt><trkpt lat="45.865136" lon="9.19924"><time>2024-05-04T09:57:51.000Z</time><ele>1250.2</ele></trkpt><trkpt lat="45.865125" lon="9.199221"><time>2024-05-04T09:57:52.000Z</time><ele>1250</ele></trkpt><trkpt lat="45.865115" lon="9.19921"><time>2024-05-04T09:57:53.000Z</time><ele>1250</ele></trkpt><trkpt lat="45.865099" lon="9.199203"><time>2024-05-04T09:57:54.000Z</time><ele>1250</ele></trkpt><trkpt lat="45.865084" lon="9.199193"><time>2024-05-04T09:57:55.000Z</time><ele>1249.8</ele></trkpt><trkpt lat="45.865068" lon="9.199182"><time>2024-05-04T09:57:56.000Z</time><ele>1249.8</ele></trkpt><trkpt lat="45.865056" lon="9.199173"><time>2024-05-04T09:57:57.000Z</time><ele>1249.8</ele></trkpt><trkpt lat="45.865049" lon="9.199175"><time>2024-05-04T09:57:58.000Z</time><ele>1249.8</ele></trkpt><trkpt lat="45.865047" lon="9.199175"><time>2024-05-04T09:57:59.000Z</time><ele>1250</ele></trkpt><trkpt lat="45.865046" lon="9.199175"><time>2024-05-04T09:58:00.000Z</time><ele>1250</ele></trkpt><trkpt lat="45.865045" lon="9.199175"><time>2024-05-04T09:58:01.000Z</time><ele>1250</ele></trkpt><trkpt lat="45.865044" lon="9.199173"><time>2024-05-04T09:58:02.000Z</time><ele>1250</ele></trkpt><trkpt lat="45.865042" lon="9.199172"><time>2024-05-04T09:58:03.000Z</time><ele>1250</ele></trkpt><trkpt lat="45.865036" lon="9.199165"><time>2024-05-04T09:58:04.000Z</time><ele>1250</ele></trkpt><trkpt lat="45.865033" lon="9.199164"><time>2024-05-04T09:58:05.000Z</time><ele>1249.8</ele></trkpt><trkpt lat="45.865033" lon="9.199164"><time>2024-05-04T09:58:06.000Z</time><ele>1249.8</ele></trkpt><trkpt lat="45.865034" lon="9.199167"><time>2024-05-04T09:58:07.000Z</time><ele>1249.6</ele></trkpt><trkpt lat="45.865034" lon="9.199169"><time>2024-05-04T09:58:08.000Z</time><ele>1249.6</ele></trkpt><trkpt lat="45.865034" lon="9.199168"><time>2024-05-04T09:58:09.000Z</time><ele>1249.6</ele></trkpt><trkpt lat="45.865034" lon="9.199166"><time>2024-05-04T09:58:10.000Z</time><ele>1249.6</ele></trkpt><trkpt lat="45.865033" lon="9.199165"><time>2024-05-04T09:58:11.000Z</time><ele>1249.6</ele></trkpt><trkpt lat="45.865034" lon="9.199168"><time>2024-05-04T09:58:12.000Z</time><ele>1249.6</ele></trkpt><trkpt lat="45.865033" lon="9.19917"><time>2024-05-04T09:58:13.000Z</time><ele>1249.6</ele></trkpt><trkpt lat="45.86503" lon="9.199172"><time>2024-05-04T09:58:14.000Z</time><ele>1249.4</ele></trkpt><trkpt lat="45.86503" lon="9.199169"><time>2024-05-04T09:58:15.000Z</time><ele>1249.4</ele></trkpt><trkpt lat="45.86503" lon="9.19917"><time>2024-05-04T09:58:16.000Z</time><ele>1249.4</ele></trkpt><trkpt lat="45.865029" lon="9.199171"><time>2024-05-04T09:58:17.000Z</time><ele>1249.4</ele></trkpt><trkpt lat="45.865028" lon="9.199175"><time>2024-05-04T09:58:18.000Z</time><ele>1249.4</ele></trkpt><trkpt lat="45.865026" lon="9.199176"><time>2024-05-04T09:58:19.000Z</time><ele>1249.4</ele></trkpt><trkpt lat="45.865023" lon="9.199171"><time>2024-05-04T09:58:20.000Z</time><ele>1249.2</ele></trkpt><trkpt lat="45.865025" lon="9.19917"><time>2024-05-04T09:58:21.000Z</time><ele>1249.4</ele></trkpt><trkpt lat="45.865025" lon="9.19917"><time>2024-05-04T09:58:22.000Z</time><ele>1249.4</ele></trkpt><trkpt lat="45.865025" lon="9.19917"><time>2024-05-04T09:58:23.000Z</time><ele>1249.4</ele></trkpt><trkpt lat="45.865025" lon="9.19917"><time>2024-05-04T09:58:24.000Z</time><ele>1249.4</ele></trkpt><trkpt lat="45.865025" lon="9.19917"><time>2024-05-04T09:58:25.000Z</time><ele>1249.2</ele></trkpt><trkpt lat="45.865025" lon="9.19917"><time>2024-05-04T09:58:26.000Z</time><ele>1249.2</ele></trkpt><trkpt lat="45.865025" lon="9.19917"><time>2024-05-04T09:58:27.000Z</time><ele>1249.2</ele></trkpt><trkpt lat="45.865025" lon="9.19917"><time>2024-05-04T09:58:28.000Z</time><ele>1249</ele></trkpt><trkpt lat="45.865025" lon="9.19917"><time>2024-05-04T09:58:29.000Z</time><ele>1249</ele></trkpt><trkpt lat="45.865025" lon="9.19917"><time>2024-05-04T09:58:30.000Z</time><ele>1249</ele></trkpt><trkpt lat="45.865025" lon="9.19917"><time>2024-05-04T09:58:31.000Z</time><ele>1249</ele></trkpt><trkpt lat="45.865025" lon="9.19917"><time>2024-05-04T09:58:32.000Z</time><ele>1249</ele></trkpt><trkpt lat="45.865025" lon="9.19917"><time>2024-05-04T09:58:33.000Z</time><ele>1249</ele></trkpt><trkpt lat="45.865025" lon="9.19917"><time>2024-05-04T09:58:34.000Z</time><ele>1249</ele></trkpt><trkpt lat="45.865025" lon="9.19917"><time>2024-05-04T09:58:35.000Z</time><ele>1249</ele></trkpt><trkpt lat="45.865025" lon="9.199169"><time>2024-05-04T09:58:36.000Z</time><ele>1249</ele></trkpt><trkpt lat="45.865025" lon="9.199167"><time>2024-05-04T09:58:37.000Z</time><ele>1249</ele></trkpt><trkpt lat="45.865025" lon="9.199167"><time>2024-05-04T09:58:38.000Z</time><ele>1249</ele></trkpt><trkpt lat="45.865025" lon="9.199167"><time>2024-05-04T09:58:39.000Z</time><ele>1249</ele></trkpt><trkpt lat="45.865025" lon="9.199167"><time>2024-05-04T09:58:40.000Z</time><ele>1249</ele></trkpt><trkpt lat="45.865025" lon="9.199167"><time>2024-05-04T09:58:41.000Z</time><ele>1249</ele></trkpt><trkpt lat="45.865023" lon="9.199167"><time>2024-05-04T09:58:42.000Z</time><ele>1248.8</ele></trkpt><trkpt lat="45.865023" lon="9.199167"><time>2024-05-04T09:58:43.000Z</time><ele>1248.8</ele></trkpt><trkpt lat="45.865011" lon="9.199173"><time>2024-05-04T09:58:44.000Z</time><ele>1248.6</ele></trkpt><trkpt lat="45.864994" lon="9.199183"><time>2024-05-04T09:58:45.000Z</time><ele>1248.4</ele></trkpt><trkpt lat="45.864973" lon="9.199194"><time>2024-05-04T09:58:46.000Z</time><ele>1248.2</ele></trkpt><trkpt lat="45.864953" lon="9.19921"><time>2024-05-04T09:58:47.000Z</time><ele>1248</ele></trkpt><trkpt lat="45.864931" lon="9.199221"><time>2024-05-04T09:58:48.000Z</time><ele>1248</ele></trkpt><trkpt lat="45.864904" lon="9.199233"><time>2024-05-04T09:58:49.000Z</time><ele>1247.8</ele></trkpt><trkpt lat="45.86488" lon="9.199249"><time>2024-05-04T09:58:50.000Z</time><ele>1247.8</ele></trkpt><trkpt lat="45.864858" lon="9.199262"><time>2024-05-04T09:58:51.000Z</time><ele>1247.8</ele></trkpt><trkpt lat="45.864837" lon="9.19928"><time>2024-05-04T09:58:52.000Z</time><ele>1247.6</ele></trkpt><trkpt lat="45.864814" lon="9.19929"><time>2024-05-04T09:58:53.000Z</time><ele>1247.6</ele></trkpt><trkpt lat="45.864797" lon="9.199291"><time>2024-05-04T09:58:54.000Z</time><ele>1247.6</ele></trkpt><trkpt lat="45.864786" lon="9.199298"><time>2024-05-04T09:58:55.000Z</time><ele>1247.6</ele></trkpt><trkpt lat="45.86477" lon="9.199302"><time>2024-05-04T09:58:56.000Z</time><ele>1247.4</ele></trkpt><trkpt lat="45.864758" lon="9.199305"><time>2024-05-04T09:58:57.000Z</time><ele>1247.4</ele></trkpt><trkpt lat="45.864746" lon="9.199305"><time>2024-05-04T09:58:58.000Z</time><ele>1247</ele></trkpt><trkpt lat="45.86474" lon="9.199305"><time>2024-05-04T09:58:59.000Z</time><ele>1247</ele></trkpt><trkpt lat="45.864736" lon="9.199314"><time>2024-05-04T09:59:00.000Z</time><ele>1246.8</ele></trkpt><trkpt lat="45.864726" lon="9.199322"><time>2024-05-04T09:59:01.000Z</time><ele>1246.6</ele></trkpt><trkpt lat="45.864714" lon="9.199326"><time>2024-05-04T09:59:02.000Z</time><ele>1246.4</ele></trkpt><trkpt lat="45.864697" lon="9.199322"><time>2024-05-04T09:59:03.000Z</time><ele>1246.4</ele></trkpt><trkpt lat="45.864679" lon="9.199324"><time>2024-05-04T09:59:04.000Z</time><ele>1246.4</ele></trkpt><trkpt lat="45.864665" lon="9.199327"><time>2024-05-04T09:59:05.000Z</time><ele>1246.4</ele></trkpt><trkpt lat="45.86465" lon="9.199333"><time>2024-05-04T09:59:06.000Z</time><ele>1246.2</ele></trkpt><trkpt lat="45.864637" lon="9.199337"><time>2024-05-04T09:59:07.000Z</time><ele>1246.2</ele></trkpt><trkpt lat="45.864626" lon="9.199345"><time>2024-05-04T09:59:08.000Z</time><ele>1246.2</ele></trkpt><trkpt lat="45.864615" lon="9.199353"><time>2024-05-04T09:59:09.000Z</time><ele>1246.2</ele></trkpt><trkpt lat="45.864604" lon="9.199357"><time>2024-05-04T09:59:10.000Z</time><ele>1246.2</ele></trkpt><trkpt lat="45.864589" lon="9.199357"><time>2024-05-04T09:59:11.000Z</time><ele>1246.2</ele></trkpt><trkpt lat="45.864573" lon="9.199364"><time>2024-05-04T09:59:12.000Z</time><ele>1246.2</ele></trkpt><trkpt lat="45.864557" lon="9.19937"><time>2024-05-04T09:59:13.000Z</time><ele>1246.2</ele></trkpt><trkpt lat="45.864543" lon="9.199376"><time>2024-05-04T09:59:14.000Z</time><ele>1246.2</ele></trkpt><trkpt lat="45.864529" lon="9.199388"><time>2024-05-04T09:59:15.000Z</time><ele>1246.2</ele></trkpt><trkpt lat="45.864517" lon="9.199401"><time>2024-05-04T09:59:16.000Z</time><ele>1246.2</ele></trkpt><trkpt lat="45.864504" lon="9.199409"><time>2024-05-04T09:59:17.000Z</time><ele>1246.2</ele></trkpt><trkpt lat="45.864491" lon="9.199413"><time>2024-05-04T09:59:18.000Z</time><ele>1246.2</ele></trkpt><trkpt lat="45.86448" lon="9.199419"><time>2024-05-04T09:59:19.000Z</time><ele>1246.2</ele></trkpt><trkpt lat="45.864469" lon="9.199428"><time>2024-05-04T09:59:20.000Z</time><ele>1246.2</ele></trkpt><trkpt lat="45.864459" lon="9.199444"><time>2024-05-04T09:59:21.000Z</time><ele>1246.2</ele></trkpt><trkpt lat="45.864448" lon="9.199453"><time>2024-05-04T09:59:22.000Z</time><ele>1246.2</ele></trkpt><trkpt lat="45.864432" lon="9.199457"><time>2024-05-04T09:59:23.000Z</time><ele>1246.2</ele></trkpt><trkpt lat="45.864417" lon="9.199457"><time>2024-05-04T09:59:24.000Z</time><ele>1246</ele></trkpt><trkpt lat="45.864404" lon="9.199452"><time>2024-05-04T09:59:25.000Z</time><ele>1246</ele></trkpt><trkpt lat="45.86439" lon="9.199449"><time>2024-05-04T09:59:26.000Z</time><ele>1246</ele></trkpt><trkpt lat="45.864377" lon="9.199444"><time>2024-05-04T09:59:27.000Z</time><ele>1245.8</ele></trkpt><trkpt lat="45.864365" lon="9.199438"><time>2024-05-04T09:59:28.000Z</time><ele>1245.8</ele></trkpt><trkpt lat="45.864352" lon="9.199431"><time>2024-05-04T09:59:29.000Z</time><ele>1245.6</ele></trkpt><trkpt lat="45.864341" lon="9.199422"><time>2024-05-04T09:59:30.000Z</time><ele>1245.4</ele></trkpt><trkpt lat="45.864332" lon="9.199419"><time>2024-05-04T09:59:31.000Z</time><ele>1245.4</ele></trkpt><trkpt lat="45.86432" lon="9.199407"><time>2024-05-04T09:59:32.000Z</time><ele>1245.2</ele></trkpt><trkpt lat="45.864314" lon="9.199397"><time>2024-05-04T09:59:33.000Z</time><ele>1245.2</ele></trkpt><trkpt lat="45.864312" lon="9.199397"><time>2024-05-04T09:59:34.000Z</time><ele>1245</ele></trkpt><trkpt lat="45.864304" lon="9.199391"><time>2024-05-04T09:59:35.000Z</time><ele>1245</ele></trkpt><trkpt lat="45.864299" lon="9.199383"><time>2024-05-04T09:59:36.000Z</time><ele>1245</ele></trkpt><trkpt lat="45.864294" lon="9.199382"><time>2024-05-04T09:59:37.000Z</time><ele>1245</ele></trkpt><trkpt lat="45.864293" lon="9.199383"><time>2024-05-04T09:59:38.000Z</time><ele>1244.8</ele></trkpt><trkpt lat="45.864282" lon="9.19937"><time>2024-05-04T09:59:39.000Z</time><ele>1244.8</ele></trkpt><trkpt lat="45.864265" lon="9.199347"><time>2024-05-04T09:59:40.000Z</time><ele>1244.8</ele></trkpt><trkpt lat="45.864252" lon="9.199333"><time>2024-05-04T09:59:41.000Z</time><ele>1244.8</ele></trkpt><trkpt lat="45.864232" lon="9.199312"><time>2024-05-04T09:59:42.000Z</time><ele>1244.8</ele></trkpt><trkpt lat="45.864217" lon="9.199301"><time>2024-05-04T09:59:43.000Z</time><ele>1244.6</ele></trkpt><trkpt lat="45.864205" lon="9.199293"><time>2024-05-04T09:59:44.000Z</time><ele>1244.6</ele></trkpt><trkpt lat="45.864187" lon="9.199285"><time>2024-05-04T09:59:45.000Z</time><ele>1244.4</ele></trkpt><trkpt lat="45.864175" lon="9.199287"><time>2024-05-04T09:59:46.000Z</time><ele>1244.4</ele></trkpt><trkpt lat="45.864166" lon="9.199293"><time>2024-05-04T09:59:47.000Z</time><ele>1244.4</ele></trkpt><trkpt lat="45.864157" lon="9.199297"><time>2024-05-04T09:59:48.000Z</time><ele>1244.4</ele></trkpt><trkpt lat="45.86415" lon="9.199292"><time>2024-05-04T09:59:49.000Z</time><ele>1244.4</ele></trkpt><trkpt lat="45.864146" lon="9.199286"><time>2024-05-04T09:59:50.000Z</time><ele>1244.4</ele></trkpt><trkpt lat="45.864144" lon="9.199285"><time>2024-05-04T09:59:51.000Z</time><ele>1244.4</ele></trkpt><trkpt lat="45.864138" lon="9.199285"><time>2024-05-04T09:59:52.000Z</time><ele>1244.4</ele></trkpt><trkpt lat="45.864129" lon="9.199278"><time>2024-05-04T09:59:53.000Z</time><ele>1244.4</ele></trkpt><trkpt lat="45.864126" lon="9.199275"><time>2024-05-04T09:59:54.000Z</time><ele>1244.2</ele></trkpt><trkpt lat="45.864124" lon="9.199274"><time>2024-05-04T09:59:55.000Z</time><ele>1244.2</ele></trkpt><trkpt lat="45.864121" lon="9.199277"><time>2024-05-04T09:59:56.000Z</time><ele>1244</ele></trkpt><trkpt lat="45.864118" lon="9.199279"><time>2024-05-04T09:59:57.000Z</time><ele>1244</ele></trkpt><trkpt lat="45.864106" lon="9.199265"><time>2024-05-04T09:59:58.000Z</time><ele>1244</ele></trkpt><trkpt lat="45.864092" lon="9.199249"><time>2024-05-04T09:59:59.000Z</time><ele>1243.8</ele></trkpt><trkpt lat="45.864074" lon="9.199226"><time>2024-05-04T10:00:00.000Z</time><ele>1243.8</ele></trkpt><trkpt lat="45.864059" lon="9.199209"><time>2024-05-04T10:00:01.000Z</time><ele>1243.6</ele></trkpt><trkpt lat="45.864047" lon="9.199208"><time>2024-05-04T10:00:02.000Z</time><ele>1243.6</ele></trkpt><trkpt lat="45.864036" lon="9.199214"><time>2024-05-04T10:00:03.000Z</time><ele>1243.6</ele></trkpt><trkpt lat="45.864027" lon="9.199211"><time>2024-05-04T10:00:04.000Z</time><ele>1243.6</ele></trkpt><trkpt lat="45.864017" lon="9.199207"><time>2024-05-04T10:00:05.000Z</time><ele>1243.4</ele></trkpt><trkpt lat="45.864008" lon="9.199216"><time>2024-05-04T10:00:06.000Z</time><ele>1243.4</ele></trkpt><trkpt lat="45.863998" lon="9.199225"><time>2024-05-04T10:00:07.000Z</time><ele>1243.4</ele></trkpt><trkpt lat="45.863989" lon="9.199236"><time>2024-05-04T10:00:08.000Z</time><ele>1243.2</ele></trkpt><trkpt lat="45.86398" lon="9.199231"><time>2024-05-04T10:00:09.000Z</time><ele>1243.2</ele></trkpt><trkpt lat="45.86397" lon="9.19923"><time>2024-05-04T10:00:10.000Z</time><ele>1243.2</ele></trkpt><trkpt lat="45.863959" lon="9.199227"><time>2024-05-04T10:00:11.000Z</time><ele>1243</ele></trkpt><trkpt lat="45.863944" lon="9.199229"><time>2024-05-04T10:00:12.000Z</time><ele>1243</ele></trkpt><trkpt lat="45.863932" lon="9.199238"><time>2024-05-04T10:00:13.000Z</time><ele>1242.8</ele></trkpt><trkpt lat="45.863916" lon="9.199245"><time>2024-05-04T10:00:14.000Z</time><ele>1242.8</ele></trkpt><trkpt lat="45.863899" lon="9.199238"><time>2024-05-04T10:00:15.000Z</time><ele>1242.6</ele></trkpt><trkpt lat="45.863878" lon="9.199232"><time>2024-05-04T10:00:16.000Z</time><ele>1242.4</ele></trkpt><trkpt lat="45.863858" lon="9.199237"><time>2024-05-04T10:00:17.000Z</time><ele>1242.4</ele></trkpt><trkpt lat="45.863848" lon="9.199241"><time>2024-05-04T10:00:18.000Z</time><ele>1242.2</ele></trkpt><trkpt lat="45.863837" lon="9.199253"><time>2024-05-04T10:00:19.000Z</time><ele>1242.2</ele></trkpt><trkpt lat="45.863825" lon="9.199256"><time>2024-05-04T10:00:20.000Z</time><ele>1242.2</ele></trkpt><trkpt lat="45.86381" lon="9.199259"><time>2024-05-04T10:00:21.000Z</time><ele>1242.2</ele></trkpt><trkpt lat="45.863795" lon="9.199262"><time>2024-05-04T10:00:22.000Z</time><ele>1242.2</ele></trkpt><trkpt lat="45.863784" lon="9.19927"><time>2024-05-04T10:00:23.000Z</time><ele>1242</ele></trkpt><trkpt lat="45.863775" lon="9.199274"><time>2024-05-04T10:00:24.000Z</time><ele>1241.8</ele></trkpt><trkpt lat="45.863764" lon="9.199279"><time>2024-05-04T10:00:25.000Z</time><ele>1241.8</ele></trkpt><trkpt lat="45.86375" lon="9.199283"><time>2024-05-04T10:00:26.000Z</time><ele>1241.8</ele></trkpt><trkpt lat="45.86374" lon="9.199289"><time>2024-05-04T10:00:27.000Z</time><ele>1241.6</ele></trkpt><trkpt lat="45.863729" lon="9.199287"><time>2024-05-04T10:00:28.000Z</time><ele>1241.6</ele></trkpt><trkpt lat="45.863714" lon="9.199275"><time>2024-05-04T10:00:29.000Z</time><ele>1241.6</ele></trkpt><trkpt lat="45.863703" lon="9.199264"><time>2024-05-04T10:00:30.000Z</time><ele>1241.6</ele></trkpt><trkpt lat="45.863694" lon="9.199256"><time>2024-05-04T10:00:31.000Z</time><ele>1241.4</ele></trkpt><trkpt lat="45.863687" lon="9.199246"><time>2024-05-04T10:00:32.000Z</time><ele>1241.4</ele></trkpt><trkpt lat="45.863676" lon="9.199234"><time>2024-05-04T10:00:33.000Z</time><ele>1241.2</ele></trkpt><trkpt lat="45.863664" lon="9.199222"><time>2024-05-04T10:00:34.000Z</time><ele>1241</ele></trkpt><trkpt lat="45.863652" lon="9.199208"><time>2024-05-04T10:00:35.000Z</time><ele>1241</ele></trkpt><trkpt lat="45.863637" lon="9.199198"><time>2024-05-04T10:00:36.000Z</time><ele>1240.8</ele></trkpt><trkpt lat="45.86362" lon="9.199183"><time>2024-05-04T10:00:37.000Z</time><ele>1240.8</ele></trkpt><trkpt lat="45.863604" lon="9.199177"><time>2024-05-04T10:00:38.000Z</time><ele>1240.8</ele></trkpt><trkpt lat="45.863592" lon="9.199181"><time>2024-05-04T10:00:39.000Z</time><ele>1240.8</ele></trkpt><trkpt lat="45.863578" lon="9.199188"><time>2024-05-04T10:00:40.000Z</time><ele>1240.6</ele></trkpt><trkpt lat="45.863566" lon="9.199193"><time>2024-05-04T10:00:41.000Z</time><ele>1240.6</ele></trkpt><trkpt lat="45.863555" lon="9.199204"><time>2024-05-04T10:00:42.000Z</time><ele>1240.6</ele></trkpt><trkpt lat="45.863544" lon="9.199221"><time>2024-05-04T10:00:43.000Z</time><ele>1240.4</ele></trkpt><trkpt lat="45.863532" lon="9.199231"><time>2024-05-04T10:00:44.000Z</time><ele>1240.4</ele></trkpt><trkpt lat="45.863519" lon="9.199222"><time>2024-05-04T10:00:45.000Z</time><ele>1240.2</ele></trkpt><trkpt lat="45.863507" lon="9.199218"><time>2024-05-04T10:00:46.000Z</time><ele>1240.2</ele></trkpt><trkpt lat="45.863496" lon="9.199217"><time>2024-05-04T10:00:47.000Z</time><ele>1240</ele></trkpt><trkpt lat="45.863487" lon="9.199212"><time>2024-05-04T10:00:48.000Z</time><ele>1240</ele></trkpt><trkpt lat="45.863474" lon="9.199204"><time>2024-05-04T10:00:49.000Z</time><ele>1240</ele></trkpt><trkpt lat="45.863461" lon="9.199192"><time>2024-05-04T10:00:50.000Z</time><ele>1240</ele></trkpt><trkpt lat="45.863447" lon="9.19918"><time>2024-05-04T10:00:51.000Z</time><ele>1240</ele></trkpt><trkpt lat="45.863435" lon="9.199171"><time>2024-05-04T10:00:52.000Z</time><ele>1240</ele></trkpt><trkpt lat="45.863425" lon="9.199168"><time>2024-05-04T10:00:53.000Z</time><ele>1240</ele></trkpt><trkpt lat="45.863417" lon="9.199172"><time>2024-05-04T10:00:54.000Z</time><ele>1240</ele></trkpt><trkpt lat="45.863408" lon="9.199179"><time>2024-05-04T10:00:55.000Z</time><ele>1239.8</ele></trkpt><trkpt lat="45.863396" lon="9.199181"><time>2024-05-04T10:00:56.000Z</time><ele>1239.6</ele></trkpt><trkpt lat="45.863382" lon="9.199173"><time>2024-05-04T10:00:57.000Z</time><ele>1239.6</ele></trkpt><trkpt lat="45.86337" lon="9.199166"><time>2024-05-04T10:00:58.000Z</time><ele>1239.4</ele></trkpt><trkpt lat="45.863363" lon="9.199168"><time>2024-05-04T10:00:59.000Z</time><ele>1239.2</ele></trkpt><trkpt lat="45.863351" lon="9.199175"><time>2024-05-04T10:01:00.000Z</time><ele>1239</ele></trkpt><trkpt lat="45.863334" lon="9.199184"><time>2024-05-04T10:01:01.000Z</time><ele>1239</ele></trkpt><trkpt lat="45.863319" lon="9.1992"><time>2024-05-04T10:01:02.000Z</time><ele>1239</ele></trkpt><trkpt lat="45.863308" lon="9.199209"><time>2024-05-04T10:01:03.000Z</time><ele>1238.8</ele></trkpt><trkpt lat="45.863299" lon="9.199213"><time>2024-05-04T10:01:04.000Z</time><ele>1238.8</ele></trkpt><trkpt lat="45.863286" lon="9.199213"><time>2024-05-04T10:01:05.000Z</time><ele>1238.6</ele></trkpt><trkpt lat="45.863265" lon="9.199209"><time>2024-05-04T10:01:06.000Z</time><ele>1238.6</ele></trkpt><trkpt lat="45.863242" lon="9.199202"><time>2024-05-04T10:01:07.000Z</time><ele>1238.6</ele></trkpt><trkpt lat="45.863229" lon="9.199197"><time>2024-05-04T10:01:08.000Z</time><ele>1238.2</ele></trkpt><trkpt lat="45.863222" lon="9.199202"><time>2024-05-04T10:01:09.000Z</time><ele>1238.2</ele></trkpt><trkpt lat="45.863216" lon="9.199205"><time>2024-05-04T10:01:10.000Z</time><ele>1238</ele></trkpt><trkpt lat="45.863215" lon="9.199206"><time>2024-05-04T10:01:11.000Z</time><ele>1238</ele></trkpt><trkpt lat="45.863205" lon="9.199211"><time>2024-05-04T10:01:12.000Z</time><ele>1238</ele></trkpt><trkpt lat="45.863191" lon="9.199211"><time>2024-05-04T10:01:13.000Z</time><ele>1237.8</ele></trkpt><trkpt lat="45.863185" lon="9.199211"><time>2024-05-04T10:01:14.000Z</time><ele>1237.8</ele></trkpt><trkpt lat="45.863171" lon="9.199203"><time>2024-05-04T10:01:15.000Z</time><ele>1237.8</ele></trkpt><trkpt lat="45.863155" lon="9.199195"><time>2024-05-04T10:01:16.000Z</time><ele>1237.8</ele></trkpt><trkpt lat="45.863142" lon="9.199192"><time>2024-05-04T10:01:17.000Z</time><ele>1237.6</ele></trkpt><trkpt lat="45.863132" lon="9.199188"><time>2024-05-04T10:01:18.000Z</time><ele>1237.6</ele></trkpt><trkpt lat="45.863117" lon="9.199185"><time>2024-05-04T10:01:19.000Z</time><ele>1237.6</ele></trkpt><trkpt lat="45.863105" lon="9.199183"><time>2024-05-04T10:01:20.000Z</time><ele>1237.6</ele></trkpt><trkpt lat="45.863091" lon="9.19918"><time>2024-05-04T10:01:21.000Z</time><ele>1237.4</ele></trkpt><trkpt lat="45.863082" lon="9.19919"><time>2024-05-04T10:01:22.000Z</time><ele>1237.4</ele></trkpt><trkpt lat="45.863075" lon="9.199183"><time>2024-05-04T10:01:23.000Z</time><ele>1237.4</ele></trkpt><trkpt lat="45.863066" lon="9.199165"><time>2024-05-04T10:01:24.000Z</time><ele>1237.2</ele></trkpt><trkpt lat="45.863062" lon="9.199157"><time>2024-05-04T10:01:25.000Z</time><ele>1237.2</ele></trkpt><trkpt lat="45.86306" lon="9.199152"><time>2024-05-04T10:01:26.000Z</time><ele>1237.2</ele></trkpt><trkpt lat="45.863057" lon="9.199146"><time>2024-05-04T10:01:27.000Z</time><ele>1237.2</ele></trkpt><trkpt lat="45.863055" lon="9.199144"><time>2024-05-04T10:01:28.000Z</time><ele>1237.2</ele></trkpt><trkpt lat="45.863041" lon="9.19914"><time>2024-05-04T10:01:29.000Z</time><ele>1237.4</ele></trkpt><trkpt lat="45.863038" lon="9.199138"><time>2024-05-04T10:01:30.000Z</time><ele>1237.4</ele></trkpt><trkpt lat="45.863035" lon="9.199136"><time>2024-05-04T10:01:31.000Z</time><ele>1237.4</ele></trkpt><trkpt lat="45.86303" lon="9.199134"><time>2024-05-04T10:01:32.000Z</time><ele>1237.4</ele></trkpt><trkpt lat="45.863022" lon="9.199131"><time>2024-05-04T10:01:33.000Z</time><ele>1237.4</ele></trkpt><trkpt lat="45.863014" lon="9.199125"><time>2024-05-04T10:01:34.000Z</time><ele>1237.4</ele></trkpt><trkpt lat="45.863001" lon="9.199124"><time>2024-05-04T10:01:35.000Z</time><ele>1237.4</ele></trkpt><trkpt lat="45.862991" lon="9.199121"><time>2024-05-04T10:01:36.000Z</time><ele>1237.2</ele></trkpt><trkpt lat="45.862981" lon="9.199118"><time>2024-05-04T10:01:37.000Z</time><ele>1237</ele></trkpt><trkpt lat="45.862973" lon="9.199113"><time>2024-05-04T10:01:38.000Z</time><ele>1237</ele></trkpt><trkpt lat="45.862965" lon="9.199109"><time>2024-05-04T10:01:39.000Z</time><ele>1236.8</ele></trkpt><trkpt lat="45.862957" lon="9.199098"><time>2024-05-04T10:01:40.000Z</time><ele>1237</ele></trkpt><trkpt lat="45.862953" lon="9.199093"><time>2024-05-04T10:01:41.000Z</time><ele>1237</ele></trkpt><trkpt lat="45.862952" lon="9.199088"><time>2024-05-04T10:01:42.000Z</time><ele>1237.2</ele></trkpt><trkpt lat="45.86295" lon="9.199084"><time>2024-05-04T10:01:43.000Z</time><ele>1237.2</ele></trkpt><trkpt lat="45.862949" lon="9.199086"><time>2024-05-04T10:01:44.000Z</time><ele>1237.2</ele></trkpt><trkpt lat="45.862948" lon="9.19909"><time>2024-05-04T10:01:45.000Z</time><ele>1237.2</ele></trkpt><trkpt lat="45.862947" lon="9.19909"><time>2024-05-04T10:01:46.000Z</time><ele>1237.2</ele></trkpt><trkpt lat="45.862945" lon="9.199105"><time>2024-05-04T10:01:47.000Z</time><ele>1237.2</ele></trkpt><trkpt lat="45.862942" lon="9.199097"><time>2024-05-04T10:01:48.000Z</time><ele>1237.2</ele></trkpt><trkpt lat="45.862941" lon="9.199104"><time>2024-05-04T10:01:49.000Z</time><ele>1237.4</ele></trkpt><trkpt lat="45.862929" lon="9.199103"><time>2024-05-04T10:01:50.000Z</time><ele>1237.4</ele></trkpt><trkpt lat="45.862927" lon="9.199083"><time>2024-05-04T10:01:51.000Z</time><ele>1237.4</ele></trkpt><trkpt lat="45.862929" lon="9.199048"><time>2024-05-04T10:01:52.000Z</time><ele>1237.4</ele></trkpt><trkpt lat="45.862928" lon="9.199033"><time>2024-05-04T10:01:53.000Z</time><ele>1237.4</ele></trkpt><trkpt lat="45.862928" lon="9.199029"><time>2024-05-04T10:01:54.000Z</time><ele>1237.4</ele></trkpt><trkpt lat="45.862927" lon="9.199024"><time>2024-05-04T10:01:55.000Z</time><ele>1237.2</ele></trkpt><trkpt lat="45.862925" lon="9.199019"><time>2024-05-04T10:01:56.000Z</time><ele>1237</ele></trkpt><trkpt lat="45.86292" lon="9.199006"><time>2024-05-04T10:01:57.000Z</time><ele>1236.8</ele></trkpt><trkpt lat="45.86292" lon="9.198994"><time>2024-05-04T10:01:58.000Z</time><ele>1236.8</ele></trkpt><trkpt lat="45.862922" lon="9.198983"><time>2024-05-04T10:01:59.000Z</time><ele>1236.8</ele></trkpt><trkpt lat="45.862918" lon="9.198976"><time>2024-05-04T10:02:00.000Z</time><ele>1236.6</ele></trkpt><trkpt lat="45.862909" lon="9.198968"><time>2024-05-04T10:02:01.000Z</time><ele>1236.6</ele></trkpt><trkpt lat="45.862904" lon="9.198957"><time>2024-05-04T10:02:02.000Z</time><ele>1236.6</ele></trkpt><trkpt lat="45.862899" lon="9.198947"><time>2024-05-04T10:02:03.000Z</time><ele>1236.6</ele></trkpt><trkpt lat="45.862897" lon="9.198949"><time>2024-05-04T10:02:04.000Z</time><ele>1236.6</ele></trkpt><trkpt lat="45.862898" lon="9.198946"><time>2024-05-04T10:02:05.000Z</time><ele>1236.4</ele></trkpt><trkpt lat="45.862895" lon="9.198939"><time>2024-05-04T10:02:06.000Z</time><ele>1236.4</ele></trkpt><trkpt lat="45.862887" lon="9.198933"><time>2024-05-04T10:02:07.000Z</time><ele>1236.2</ele></trkpt><trkpt lat="45.862879" lon="9.198922"><time>2024-05-04T10:02:08.000Z</time><ele>1236.2</ele></trkpt><trkpt lat="45.862868" lon="9.198907"><time>2024-05-04T10:02:09.000Z</time><ele>1236</ele></trkpt><trkpt lat="45.862864" lon="9.198894"><time>2024-05-04T10:02:10.000Z</time><ele>1235.8</ele></trkpt><trkpt lat="45.862857" lon="9.198885"><time>2024-05-04T10:02:11.000Z</time><ele>1235.6</ele></trkpt><trkpt lat="45.86285" lon="9.198881"><time>2024-05-04T10:02:12.000Z</time><ele>1235.4</ele></trkpt><trkpt lat="45.862849" lon="9.198882"><time>2024-05-04T10:02:13.000Z</time><ele>1235.4</ele></trkpt><trkpt lat="45.862846" lon="9.198879"><time>2024-05-04T10:02:14.000Z</time><ele>1235</ele></trkpt><trkpt lat="45.862843" lon="9.198879"><time>2024-05-04T10:02:15.000Z</time><ele>1235</ele></trkpt><trkpt lat="45.862826" lon="9.19888"><time>2024-05-04T10:02:16.000Z</time><ele>1234.8</ele></trkpt><trkpt lat="45.862809" lon="9.19888"><time>2024-05-04T10:02:17.000Z</time><ele>1234.8</ele></trkpt><trkpt lat="45.862797" lon="9.198871"><time>2024-05-04T10:02:18.000Z</time><ele>1234.6</ele></trkpt><trkpt lat="45.862786" lon="9.198857"><time>2024-05-04T10:02:19.000Z</time><ele>1234.6</ele></trkpt><trkpt lat="45.862777" lon="9.198848"><time>2024-05-04T10:02:20.000Z</time><ele>1234.6</ele></trkpt><trkpt lat="45.862768" lon="9.198847"><time>2024-05-04T10:02:21.000Z</time><ele>1234.4</ele></trkpt><trkpt lat="45.862753" lon="9.198853"><time>2024-05-04T10:02:22.000Z</time><ele>1234.4</ele></trkpt><trkpt lat="45.862737" lon="9.198856"><time>2024-05-04T10:02:23.000Z</time><ele>1234.2</ele></trkpt><trkpt lat="45.862722" lon="9.19886"><time>2024-05-04T10:02:24.000Z</time><ele>1234</ele></trkpt><trkpt lat="45.862711" lon="9.198854"><time>2024-05-04T10:02:25.000Z</time><ele>1234</ele></trkpt><trkpt lat="45.862699" lon="9.198843"><time>2024-05-04T10:02:26.000Z</time><ele>1233.8</ele></trkpt><trkpt lat="45.862685" lon="9.19883"><time>2024-05-04T10:02:27.000Z</time><ele>1233.8</ele></trkpt><trkpt lat="45.862676" lon="9.198828"><time>2024-05-04T10:02:28.000Z</time><ele>1233.8</ele></trkpt><trkpt lat="45.862673" lon="9.19883"><time>2024-05-04T10:02:29.000Z</time><ele>1233.8</ele></trkpt><trkpt lat="45.86267" lon="9.198832"><time>2024-05-04T10:02:30.000Z</time><ele>1233.8</ele></trkpt><trkpt lat="45.862663" lon="9.198839"><time>2024-05-04T10:02:31.000Z</time><ele>1233.8</ele></trkpt><trkpt lat="45.862649" lon="9.198836"><time>2024-05-04T10:02:32.000Z</time><ele>1233.8</ele></trkpt><trkpt lat="45.862647" lon="9.198834"><time>2024-05-04T10:02:33.000Z</time><ele>1233.8</ele></trkpt><trkpt lat="45.86265" lon="9.198836"><time>2024-05-04T10:02:34.000Z</time><ele>1233.8</ele></trkpt><trkpt lat="45.862642" lon="9.198826"><time>2024-05-04T10:02:35.000Z</time><ele>1233.8</ele></trkpt><trkpt lat="45.862633" lon="9.198811"><time>2024-05-04T10:02:36.000Z</time><ele>1233.8</ele></trkpt><trkpt lat="45.862627" lon="9.198806"><time>2024-05-04T10:02:37.000Z</time><ele>1233.8</ele></trkpt><trkpt lat="45.862624" lon="9.198807"><time>2024-05-04T10:02:38.000Z</time><ele>1233.6</ele></trkpt><trkpt lat="45.862629" lon="9.198804"><time>2024-05-04T10:02:39.000Z</time><ele>1233.6</ele></trkpt><trkpt lat="45.862622" lon="9.198808"><time>2024-05-04T10:02:40.000Z</time><ele>1233.6</ele></trkpt><trkpt lat="45.862606" lon="9.198807"><time>2024-05-04T10:02:41.000Z</time><ele>1233.6</ele></trkpt><trkpt lat="45.862593" lon="9.198796"><time>2024-05-04T10:02:42.000Z</time><ele>1233.4</ele></trkpt><trkpt lat="45.86259" lon="9.19879"><time>2024-05-04T10:02:43.000Z</time><ele>1233.4</ele></trkpt><trkpt lat="45.862585" lon="9.198785"><time>2024-05-04T10:02:44.000Z</time><ele>1233.4</ele></trkpt><trkpt lat="45.862583" lon="9.198785"><time>2024-05-04T10:02:45.000Z</time><ele>1233.4</ele></trkpt><trkpt lat="45.862584" lon="9.198781"><time>2024-05-04T10:02:46.000Z</time><ele>1233.2</ele></trkpt><trkpt lat="45.862577" lon="9.198774"><time>2024-05-04T10:02:47.000Z</time><ele>1233</ele></trkpt><trkpt lat="45.862574" lon="9.198769"><time>2024-05-04T10:02:48.000Z</time><ele>1233</ele></trkpt><trkpt lat="45.862567" lon="9.19876"><time>2024-05-04T10:02:49.000Z</time><ele>1233</ele></trkpt><trkpt lat="45.862566" lon="9.198758"><time>2024-05-04T10:02:50.000Z</time><ele>1233</ele></trkpt><trkpt lat="45.862567" lon="9.198754"><time>2024-05-04T10:02:51.000Z</time><ele>1233</ele></trkpt><trkpt lat="45.862567" lon="9.198753"><time>2024-05-04T10:02:52.000Z</time><ele>1233.2</ele></trkpt><trkpt lat="45.862566" lon="9.198753"><time>2024-05-04T10:02:53.000Z</time><ele>1233.4</ele></trkpt><trkpt lat="45.862566" lon="9.198752"><time>2024-05-04T10:02:54.000Z</time><ele>1233.6</ele></trkpt><trkpt lat="45.862567" lon="9.19875"><time>2024-05-04T10:02:55.000Z</time><ele>1233.6</ele></trkpt><trkpt lat="45.862553" lon="9.198727"><time>2024-05-04T10:02:56.000Z</time><ele>1233.6</ele></trkpt><trkpt lat="45.862537" lon="9.198705"><time>2024-05-04T10:02:57.000Z</time><ele>1233.6</ele></trkpt><trkpt lat="45.862535" lon="9.198703"><time>2024-05-04T10:02:58.000Z</time><ele>1233.4</ele></trkpt><trkpt lat="45.862527" lon="9.198692"><time>2024-05-04T10:02:59.000Z</time><ele>1233.4</ele></trkpt><trkpt lat="45.862518" lon="9.198674"><time>2024-05-04T10:03:00.000Z</time><ele>1233.2</ele></trkpt><trkpt lat="45.862509" lon="9.19866"><time>2024-05-04T10:03:01.000Z</time><ele>1233.2</ele></trkpt><trkpt lat="45.8625" lon="9.198649"><time>2024-05-04T10:03:02.000Z</time><ele>1233.2</ele></trkpt><trkpt lat="45.86249" lon="9.198642"><time>2024-05-04T10:03:03.000Z</time><ele>1233.2</ele></trkpt><trkpt lat="45.86248" lon="9.198636"><time>2024-05-04T10:03:04.000Z</time><ele>1233.4</ele></trkpt><trkpt lat="45.862473" lon="9.198625"><time>2024-05-04T10:03:05.000Z</time><ele>1233.4</ele></trkpt><trkpt lat="45.862468" lon="9.19861"><time>2024-05-04T10:03:06.000Z</time><ele>1233.6</ele></trkpt><trkpt lat="45.862462" lon="9.198595"><time>2024-05-04T10:03:07.000Z</time><ele>1233.6</ele></trkpt><trkpt lat="45.862456" lon="9.198584"><time>2024-05-04T10:03:08.000Z</time><ele>1233.8</ele></trkpt><trkpt lat="45.862448" lon="9.198577"><time>2024-05-04T10:03:09.000Z</time><ele>1234</ele></trkpt><trkpt lat="45.862444" lon="9.198566"><time>2024-05-04T10:03:10.000Z</time><ele>1234.2</ele></trkpt><trkpt lat="45.862438" lon="9.198552"><time>2024-05-04T10:03:11.000Z</time><ele>1234.2</ele></trkpt><trkpt lat="45.862435" lon="9.198547"><time>2024-05-04T10:03:12.000Z</time><ele>1234.2</ele></trkpt><trkpt lat="45.862433" lon="9.198542"><time>2024-05-04T10:03:13.000Z</time><ele>1234.2</ele></trkpt><trkpt lat="45.862418" lon="9.198517"><time>2024-05-04T10:03:14.000Z</time><ele>1234.2</ele></trkpt><trkpt lat="45.862416" lon="9.198511"><time>2024-05-04T10:03:15.000Z</time><ele>1234.2</ele></trkpt><trkpt lat="45.862408" lon="9.198491"><time>2024-05-04T10:03:16.000Z</time><ele>1234.2</ele></trkpt><trkpt lat="45.862401" lon="9.198474"><time>2024-05-04T10:03:17.000Z</time><ele>1234.2</ele></trkpt><trkpt lat="45.862396" lon="9.198459"><time>2024-05-04T10:03:18.000Z</time><ele>1234.2</ele></trkpt><trkpt lat="45.862391" lon="9.198444"><time>2024-05-04T10:03:19.000Z</time><ele>1234.4</ele></trkpt><trkpt lat="45.862383" lon="9.198429"><time>2024-05-04T10:03:20.000Z</time><ele>1234.4</ele></trkpt><trkpt lat="45.862379" lon="9.198413"><time>2024-05-04T10:03:21.000Z</time><ele>1234.4</ele></trkpt><trkpt lat="45.862373" lon="9.198396"><time>2024-05-04T10:03:22.000Z</time><ele>1234.6</ele></trkpt><trkpt lat="45.862371" lon="9.198382"><time>2024-05-04T10:03:23.000Z</time><ele>1234.6</ele></trkpt><trkpt lat="45.862367" lon="9.198369"><time>2024-05-04T10:03:24.000Z</time><ele>1234.8</ele></trkpt><trkpt lat="45.862365" lon="9.198354"><time>2024-05-04T10:03:25.000Z</time><ele>1234.8</ele></trkpt><trkpt lat="45.862361" lon="9.198336"><time>2024-05-04T10:03:26.000Z</time><ele>1234.8</ele></trkpt><trkpt lat="45.862356" lon="9.198319"><time>2024-05-04T10:03:27.000Z</time><ele>1235</ele></trkpt><trkpt lat="45.86235" lon="9.1983"><time>2024-05-04T10:03:28.000Z</time><ele>1235</ele></trkpt><trkpt lat="45.862342" lon="9.198279"><time>2024-05-04T10:03:29.000Z</time><ele>1235.2</ele></trkpt><trkpt lat="45.862329" lon="9.198257"><time>2024-05-04T10:03:30.000Z</time><ele>1235.4</ele></trkpt><trkpt lat="45.862314" lon="9.198238"><time>2024-05-04T10:03:31.000Z</time><ele>1235.4</ele></trkpt><trkpt lat="45.8623" lon="9.198215"><time>2024-05-04T10:03:32.000Z</time><ele>1235.4</ele></trkpt><trkpt lat="45.86228" lon="9.198192"><time>2024-05-04T10:03:33.000Z</time><ele>1235.4</ele></trkpt><trkpt lat="45.862272" lon="9.198168"><time>2024-05-04T10:03:34.000Z</time><ele>1235.4</ele></trkpt><trkpt lat="45.862267" lon="9.198146"><time>2024-05-04T10:03:35.000Z</time><ele>1235.4</ele></trkpt><trkpt lat="45.86226" lon="9.19812"><time>2024-05-04T10:03:36.000Z</time><ele>1235.4</ele></trkpt><trkpt lat="45.862255" lon="9.198101"><time>2024-05-04T10:03:37.000Z</time><ele>1235.4</ele></trkpt><trkpt lat="45.862248" lon="9.198085"><time>2024-05-04T10:03:38.000Z</time><ele>1235.6</ele></trkpt><trkpt lat="45.862239" lon="9.198065"><time>2024-05-04T10:03:39.000Z</time><ele>1235.6</ele></trkpt><trkpt lat="45.862234" lon="9.198051"><time>2024-05-04T10:03:40.000Z</time><ele>1235.8</ele></trkpt><trkpt lat="45.862229" lon="9.19804"><time>2024-05-04T10:03:41.000Z</time><ele>1236</ele></trkpt><trkpt lat="45.862221" lon="9.198023"><time>2024-05-04T10:03:42.000Z</time><ele>1236</ele></trkpt><trkpt lat="45.862217" lon="9.198008"><time>2024-05-04T10:03:43.000Z</time><ele>1236.2</ele></trkpt><trkpt lat="45.862209" lon="9.197996"><time>2024-05-04T10:03:44.000Z</time><ele>1236.2</ele></trkpt><trkpt lat="45.862203" lon="9.197988"><time>2024-05-04T10:03:45.000Z</time><ele>1236.2</ele></trkpt><trkpt lat="45.862198" lon="9.197979"><time>2024-05-04T10:03:46.000Z</time><ele>1236.2</ele></trkpt><trkpt lat="45.862188" lon="9.197971"><time>2024-05-04T10:03:47.000Z</time><ele>1236.2</ele></trkpt><trkpt lat="45.862178" lon="9.19796"><time>2024-05-04T10:03:48.000Z</time><ele>1235.8</ele></trkpt><trkpt lat="45.862172" lon="9.197946"><time>2024-05-04T10:03:49.000Z</time><ele>1235.8</ele></trkpt><trkpt lat="45.862167" lon="9.197927"><time>2024-05-04T10:03:50.000Z</time><ele>1235.6</ele></trkpt><trkpt lat="45.862158" lon="9.197906"><time>2024-05-04T10:03:51.000Z</time><ele>1235.6</ele></trkpt><trkpt lat="45.862152" lon="9.197894"><time>2024-05-04T10:03:52.000Z</time><ele>1235.6</ele></trkpt><trkpt lat="45.862145" lon="9.197878"><time>2024-05-04T10:03:53.000Z</time><ele>1235.6</ele></trkpt><trkpt lat="45.862139" lon="9.197866"><time>2024-05-04T10:03:54.000Z</time><ele>1235.6</ele></trkpt><trkpt lat="45.862126" lon="9.197847"><time>2024-05-04T10:03:55.000Z</time><ele>1235.6</ele></trkpt><trkpt lat="45.862114" lon="9.197833"><time>2024-05-04T10:03:56.000Z</time><ele>1235.6</ele></trkpt><trkpt lat="45.862102" lon="9.197825"><time>2024-05-04T10:03:57.000Z</time><ele>1235.6</ele></trkpt><trkpt lat="45.86209" lon="9.197823"><time>2024-05-04T10:03:58.000Z</time><ele>1235.4</ele></trkpt><trkpt lat="45.862085" lon="9.197831"><time>2024-05-04T10:03:59.000Z</time><ele>1235.6</ele></trkpt><trkpt lat="45.862081" lon="9.197832"><time>2024-05-04T10:04:00.000Z</time><ele>1235.6</ele></trkpt><trkpt lat="45.862082" lon="9.197833"><time>2024-05-04T10:04:01.000Z</time><ele>1235.6</ele></trkpt><trkpt lat="45.862082" lon="9.197836"><time>2024-05-04T10:04:02.000Z</time><ele>1235.6</ele></trkpt><trkpt lat="45.86208" lon="9.197835"><time>2024-05-04T10:04:03.000Z</time><ele>1235.6</ele></trkpt><trkpt lat="45.862078" lon="9.197834"><time>2024-05-04T10:04:04.000Z</time><ele>1235.6</ele></trkpt><trkpt lat="45.862073" lon="9.197839"><time>2024-05-04T10:04:05.000Z</time><ele>1235.6</ele></trkpt><trkpt lat="45.862071" lon="9.197842"><time>2024-05-04T10:04:06.000Z</time><ele>1235.6</ele></trkpt><trkpt lat="45.862071" lon="9.197846"><time>2024-05-04T10:04:07.000Z</time><ele>1235.8</ele></trkpt><trkpt lat="45.862067" lon="9.197848"><time>2024-05-04T10:04:08.000Z</time><ele>1236</ele></trkpt><trkpt lat="45.862067" lon="9.197852"><time>2024-05-04T10:04:09.000Z</time><ele>1236</ele></trkpt><trkpt lat="45.862064" lon="9.197862"><time>2024-05-04T10:04:10.000Z</time><ele>1236.2</ele></trkpt><trkpt lat="45.862362" lon="9.198532"><time>2024-05-04T10:50:45.000Z</time><ele>1235.6</ele></trkpt><trkpt lat="45.862359" lon="9.198642"><time>2024-05-04T10:50:46.000Z</time><ele>1235.6</ele></trkpt><trkpt lat="45.862335" lon="9.198585"><time>2024-05-04T10:50:47.000Z</time><ele>1235.6</ele></trkpt><trkpt lat="45.862468" lon="9.198928"><time>2024-05-04T10:50:48.000Z</time><ele>1235.6</ele></trkpt><trkpt lat="45.862483" lon="9.198961"><time>2024-05-04T10:50:49.000Z</time><ele>1235.6</ele></trkpt><trkpt lat="45.862456" lon="9.198791"><time>2024-05-04T10:50:50.000Z</time><ele>1235.6</ele></trkpt><trkpt lat="45.862419" lon="9.198702"><time>2024-05-04T10:50:51.000Z</time><ele>1235.6</ele></trkpt><trkpt lat="45.862386" lon="9.198649"><time>2024-05-04T10:50:52.000Z</time><ele>1235.6</ele></trkpt><trkpt lat="45.862354" lon="9.198605"><time>2024-05-04T10:50:53.000Z</time><ele>1235.6</ele></trkpt><trkpt lat="45.862338" lon="9.198607"><time>2024-05-04T10:50:54.000Z</time><ele>1234.6</ele></trkpt><trkpt lat="45.862307" lon="9.198537"><time>2024-05-04T10:50:55.000Z</time><ele>1233.6</ele></trkpt><trkpt lat="45.862253" lon="9.198469"><time>2024-05-04T10:50:56.000Z</time><ele>1233</ele></trkpt><trkpt lat="45.862224" lon="9.198417"><time>2024-05-04T10:50:57.000Z</time><ele>1232.8</ele></trkpt><trkpt lat="45.862163" lon="9.198385"><time>2024-05-04T10:50:58.000Z</time><ele>1232.8</ele></trkpt><trkpt lat="45.862163" lon="9.198414"><time>2024-05-04T10:50:59.000Z</time><ele>1232.8</ele></trkpt><trkpt lat="45.862197" lon="9.198466"><time>2024-05-04T10:51:00.000Z</time><ele>1232.8</ele></trkpt><trkpt lat="45.862213" lon="9.198461"><time>2024-05-04T10:51:01.000Z</time><ele>1232.8</ele></trkpt><trkpt lat="45.862231" lon="9.19837"><time>2024-05-04T10:51:02.000Z</time><ele>1233</ele></trkpt><trkpt lat="45.862244" lon="9.198387"><time>2024-05-04T10:51:03.000Z</time><ele>1233</ele></trkpt><trkpt lat="45.862267" lon="9.198372"><time>2024-05-04T10:51:04.000Z</time><ele>1233</ele></trkpt><trkpt lat="45.862287" lon="9.198369"><time>2024-05-04T10:51:05.000Z</time><ele>1233</ele></trkpt><trkpt lat="45.862289" lon="9.198353"><time>2024-05-04T10:51:06.000Z</time><ele>1233</ele></trkpt><trkpt lat="45.862276" lon="9.198322"><time>2024-05-04T10:51:07.000Z</time><ele>1233</ele></trkpt><trkpt lat="45.862261" lon="9.198303"><time>2024-05-04T10:51:08.000Z</time><ele>1233</ele></trkpt><trkpt lat="45.862259" lon="9.198293"><time>2024-05-04T10:51:09.000Z</time><ele>1233</ele></trkpt><trkpt lat="45.862268" lon="9.198301"><time>2024-05-04T10:51:10.000Z</time><ele>1233.2</ele></trkpt><trkpt lat="45.86227" lon="9.198303"><time>2024-05-04T10:51:11.000Z</time><ele>1233.4</ele></trkpt><trkpt lat="45.862275" lon="9.198306"><time>2024-05-04T10:51:12.000Z</time><ele>1233.4</ele></trkpt><trkpt lat="45.862279" lon="9.198311"><time>2024-05-04T10:51:13.000Z</time><ele>1233.6</ele></trkpt><trkpt lat="45.862283" lon="9.198315"><time>2024-05-04T10:51:14.000Z</time><ele>1233.6</ele></trkpt><trkpt lat="45.862285" lon="9.198311"><time>2024-05-04T10:51:15.000Z</time><ele>1233.6</ele></trkpt><trkpt lat="45.862285" lon="9.198315"><time>2024-05-04T10:51:16.000Z</time><ele>1233.4</ele></trkpt><trkpt lat="45.862284" lon="9.198313"><time>2024-05-04T10:51:17.000Z</time><ele>1233.4</ele></trkpt><trkpt lat="45.862284" lon="9.198314"><time>2024-05-04T10:51:18.000Z</time><ele>1233.4</ele></trkpt><trkpt lat="45.862281" lon="9.19831"><time>2024-05-04T10:51:19.000Z</time><ele>1233.4</ele></trkpt><trkpt lat="45.862278" lon="9.19831"><time>2024-05-04T10:51:20.000Z</time><ele>1233.4</ele></trkpt><trkpt lat="45.862274" lon="9.198306"><time>2024-05-04T10:51:21.000Z</time><ele>1233.4</ele></trkpt><trkpt lat="45.862268" lon="9.198307"><time>2024-05-04T10:51:22.000Z</time><ele>1233.2</ele></trkpt><trkpt lat="45.862254" lon="9.198287"><time>2024-05-04T10:51:23.000Z</time><ele>1233.2</ele></trkpt><trkpt lat="45.862234" lon="9.198265"><time>2024-05-04T10:51:24.000Z</time><ele>1233.2</ele></trkpt><trkpt lat="45.862214" lon="9.198241"><time>2024-05-04T10:51:25.000Z</time><ele>1233.2</ele></trkpt><trkpt lat="45.862198" lon="9.19822"><time>2024-05-04T10:51:26.000Z</time><ele>1233.4</ele></trkpt><trkpt lat="45.862184" lon="9.198198"><time>2024-05-04T10:51:27.000Z</time><ele>1233.4</ele></trkpt><trkpt lat="45.862176" lon="9.198181"><time>2024-05-04T10:51:28.000Z</time><ele>1233.4</ele></trkpt><trkpt lat="45.86217" lon="9.198172"><time>2024-05-04T10:51:29.000Z</time><ele>1233.4</ele></trkpt><trkpt lat="45.862154" lon="9.198158"><time>2024-05-04T10:51:30.000Z</time><ele>1233.4</ele></trkpt><trkpt lat="45.862131" lon="9.198134"><time>2024-05-04T10:51:31.000Z</time><ele>1233.4</ele></trkpt><trkpt lat="45.862113" lon="9.19811"><time>2024-05-04T10:51:32.000Z</time><ele>1233.4</ele></trkpt><trkpt lat="45.862101" lon="9.198088"><time>2024-05-04T10:51:33.000Z</time><ele>1233.4</ele></trkpt><trkpt lat="45.862089" lon="9.198075"><time>2024-05-04T10:51:34.000Z</time><ele>1233.4</ele></trkpt><trkpt lat="45.862077" lon="9.198063"><time>2024-05-04T10:51:35.000Z</time><ele>1233.2</ele></trkpt><trkpt lat="45.86207" lon="9.198049"><time>2024-05-04T10:51:36.000Z</time><ele>1233.2</ele></trkpt><trkpt lat="45.86206" lon="9.198037"><time>2024-05-04T10:51:37.000Z</time><ele>1233.2</ele></trkpt><trkpt lat="45.862052" lon="9.19803"><time>2024-05-04T10:51:38.000Z</time><ele>1233.2</ele></trkpt><trkpt lat="45.862043" lon="9.198016"><time>2024-05-04T10:51:39.000Z</time><ele>1233.2</ele></trkpt><trkpt lat="45.862034" lon="9.198001"><time>2024-05-04T10:51:40.000Z</time><ele>1233.4</ele></trkpt><trkpt lat="45.862016" lon="9.197975"><time>2024-05-04T10:51:41.000Z</time><ele>1233.4</ele></trkpt><trkpt lat="45.861995" lon="9.197946"><time>2024-05-04T10:51:42.000Z</time><ele>1233.4</ele></trkpt><trkpt lat="45.861978" lon="9.197919"><time>2024-05-04T10:51:43.000Z</time><ele>1233.4</ele></trkpt><trkpt lat="45.86196" lon="9.1979"><time>2024-05-04T10:51:44.000Z</time><ele>1233.2</ele></trkpt><trkpt lat="45.861946" lon="9.197887"><time>2024-05-04T10:51:45.000Z</time><ele>1233</ele></trkpt><trkpt lat="45.86194" lon="9.197879"><time>2024-05-04T10:51:46.000Z</time><ele>1233</ele></trkpt><trkpt lat="45.861932" lon="9.197873"><time>2024-05-04T10:51:47.000Z</time><ele>1232.8</ele></trkpt><trkpt lat="45.861926" lon="9.197869"><time>2024-05-04T10:51:48.000Z</time><ele>1232.8</ele></trkpt><trkpt lat="45.861927" lon="9.197866"><time>2024-05-04T10:51:49.000Z</time><ele>1232.8</ele></trkpt><trkpt lat="45.861926" lon="9.197864"><time>2024-05-04T10:51:50.000Z</time><ele>1232.8</ele></trkpt><trkpt lat="45.861925" lon="9.197859"><time>2024-05-04T10:51:51.000Z</time><ele>1232.8</ele></trkpt><trkpt lat="45.861928" lon="9.197861"><time>2024-05-04T10:51:52.000Z</time><ele>1233</ele></trkpt><trkpt lat="45.861934" lon="9.197865"><time>2024-05-04T10:51:53.000Z</time><ele>1233</ele></trkpt><trkpt lat="45.861942" lon="9.197869"><time>2024-05-04T10:51:54.000Z</time><ele>1233.4</ele></trkpt><trkpt lat="45.861949" lon="9.197868"><time>2024-05-04T10:51:55.000Z</time><ele>1233.4</ele></trkpt><trkpt lat="45.861953" lon="9.197867"><time>2024-05-04T10:51:56.000Z</time><ele>1233.6</ele></trkpt><trkpt lat="45.861958" lon="9.19786"><time>2024-05-04T10:51:57.000Z</time><ele>1233.6</ele></trkpt><trkpt lat="45.86197" lon="9.19786"><time>2024-05-04T10:51:58.000Z</time><ele>1233.6</ele></trkpt><trkpt lat="45.861988" lon="9.197864"><time>2024-05-04T10:51:59.000Z</time><ele>1233.6</ele></trkpt><trkpt lat="45.862004" lon="9.197866"><time>2024-05-04T10:52:00.000Z</time><ele>1233.6</ele></trkpt><trkpt lat="45.862014" lon="9.19786"><time>2024-05-04T10:52:01.000Z</time><ele>1233.6</ele></trkpt><trkpt lat="45.862025" lon="9.197864"><time>2024-05-04T10:52:02.000Z</time><ele>1233.6</ele></trkpt><trkpt lat="45.862033" lon="9.197859"><time>2024-05-04T10:52:03.000Z</time><ele>1233.6</ele></trkpt><trkpt lat="45.862041" lon="9.197857"><time>2024-05-04T10:52:04.000Z</time><ele>1233.6</ele></trkpt><trkpt lat="45.862052" lon="9.197859"><time>2024-05-04T10:52:05.000Z</time><ele>1233.6</ele></trkpt><trkpt lat="45.86206" lon="9.197859"><time>2024-05-04T10:52:06.000Z</time><ele>1233.8</ele></trkpt><trkpt lat="45.862064" lon="9.197856"><time>2024-05-04T10:52:07.000Z</time><ele>1233.8</ele></trkpt><trkpt lat="45.862074" lon="9.19785"><time>2024-05-04T10:52:08.000Z</time><ele>1233.8</ele></trkpt><trkpt lat="45.862082" lon="9.197854"><time>2024-05-04T10:52:09.000Z</time><ele>1233.8</ele></trkpt><trkpt lat="45.862086" lon="9.197862"><time>2024-05-04T10:52:10.000Z</time><ele>1233.8</ele></trkpt><trkpt lat="45.86209" lon="9.197858"><time>2024-05-04T10:52:11.000Z</time><ele>1233.8</ele></trkpt><trkpt lat="45.862096" lon="9.197861"><time>2024-05-04T10:52:12.000Z</time><ele>1233.8</ele></trkpt><trkpt lat="45.862098" lon="9.197866"><time>2024-05-04T10:52:13.000Z</time><ele>1233.8</ele></trkpt><trkpt lat="45.862098" lon="9.197867"><time>2024-05-04T10:52:14.000Z</time><ele>1234</ele></trkpt><trkpt lat="45.862101" lon="9.197869"><time>2024-05-04T10:52:15.000Z</time><ele>1234</ele></trkpt><trkpt lat="45.862103" lon="9.197873"><time>2024-05-04T10:52:16.000Z</time><ele>1234</ele></trkpt><trkpt lat="45.862107" lon="9.197879"><time>2024-05-04T10:52:17.000Z</time><ele>1234.2</ele></trkpt><trkpt lat="45.862109" lon="9.197884"><time>2024-05-04T10:52:18.000Z</time><ele>1234.2</ele></trkpt><trkpt lat="45.862108" lon="9.197883"><time>2024-05-04T10:52:19.000Z</time><ele>1234.2</ele></trkpt><trkpt lat="45.862105" lon="9.197885"><time>2024-05-04T10:52:20.000Z</time><ele>1234.2</ele></trkpt><trkpt lat="45.862104" lon="9.19788"><time>2024-05-04T10:52:21.000Z</time><ele>1234.4</ele></trkpt><trkpt lat="45.862102" lon="9.197878"><time>2024-05-04T10:52:22.000Z</time><ele>1234.4</ele></trkpt><trkpt lat="45.862101" lon="9.197875"><time>2024-05-04T10:52:23.000Z</time><ele>1234.2</ele></trkpt><trkpt lat="45.862099" lon="9.197873"><time>2024-05-04T10:52:24.000Z</time><ele>1234.2</ele></trkpt><trkpt lat="45.862096" lon="9.197857"><time>2024-05-04T10:52:25.000Z</time><ele>1234.2</ele></trkpt><trkpt lat="45.862096" lon="9.197854"><time>2024-05-04T10:52:26.000Z</time><ele>1234.2</ele></trkpt><trkpt lat="45.862096" lon="9.197853"><time>2024-05-04T10:52:27.000Z</time><ele>1234.2</ele></trkpt><trkpt lat="45.862097" lon="9.197854"><time>2024-05-04T10:52:28.000Z</time><ele>1234.2</ele></trkpt><trkpt lat="45.862096" lon="9.197854"><time>2024-05-04T10:52:29.000Z</time><ele>1234.4</ele></trkpt><trkpt lat="45.862045" lon="9.197722"><time>2024-05-04T10:53:03.000Z</time><ele>1234.8</ele></trkpt><trkpt lat="45.861989" lon="9.197687"><time>2024-05-04T10:53:04.000Z</time><ele>1234.8</ele></trkpt><trkpt lat="45.861957" lon="9.197685"><time>2024-05-04T10:53:05.000Z</time><ele>1234.8</ele></trkpt><trkpt lat="45.861957" lon="9.19771"><time>2024-05-04T10:53:06.000Z</time><ele>1235</ele></trkpt><trkpt lat="45.861938" lon="9.197703"><time>2024-05-04T10:53:07.000Z</time><ele>1235</ele></trkpt><trkpt lat="45.861918" lon="9.197682"><time>2024-05-04T10:53:08.000Z</time><ele>1235</ele></trkpt><trkpt lat="45.861914" lon="9.197679"><time>2024-05-04T10:53:09.000Z</time><ele>1234.8</ele></trkpt><trkpt lat="45.861907" lon="9.197687"><time>2024-05-04T10:53:10.000Z</time><ele>1234.8</ele></trkpt><trkpt lat="45.861903" lon="9.197694"><time>2024-05-04T10:53:11.000Z</time><ele>1234.8</ele></trkpt><trkpt lat="45.861899" lon="9.197709"><time>2024-05-04T10:53:12.000Z</time><ele>1234.8</ele></trkpt><trkpt lat="45.861897" lon="9.197718"><time>2024-05-04T10:53:13.000Z</time><ele>1234.8</ele></trkpt><trkpt lat="45.861897" lon="9.197726"><time>2024-05-04T10:53:14.000Z</time><ele>1234.8</ele></trkpt><trkpt lat="45.86189" lon="9.19773"><time>2024-05-04T10:53:15.000Z</time><ele>1234.8</ele></trkpt><trkpt lat="45.861884" lon="9.19773"><time>2024-05-04T10:53:16.000Z</time><ele>1234.8</ele></trkpt><trkpt lat="45.861873" lon="9.197724"><time>2024-05-04T10:53:17.000Z</time><ele>1234.8</ele></trkpt><trkpt lat="45.861866" lon="9.197712"><time>2024-05-04T10:53:18.000Z</time><ele>1234.6</ele></trkpt><trkpt lat="45.861861" lon="9.197702"><time>2024-05-04T10:53:19.000Z</time><ele>1234.6</ele></trkpt><trkpt lat="45.861858" lon="9.197702"><time>2024-05-04T10:53:20.000Z</time><ele>1234.6</ele></trkpt><trkpt lat="45.861855" lon="9.197709"><time>2024-05-04T10:53:21.000Z</time><ele>1234.4</ele></trkpt><trkpt lat="45.861851" lon="9.197705"><time>2024-05-04T10:53:22.000Z</time><ele>1234.2</ele></trkpt><trkpt lat="45.861847" lon="9.197696"><time>2024-05-04T10:53:23.000Z</time><ele>1234</ele></trkpt><trkpt lat="45.861837" lon="9.197681"><time>2024-05-04T10:53:24.000Z</time><ele>1233.8</ele></trkpt><trkpt lat="45.861824" lon="9.197668"><time>2024-05-04T10:53:25.000Z</time><ele>1233.8</ele></trkpt><trkpt lat="45.861807" lon="9.197667"><time>2024-05-04T10:53:26.000Z</time><ele>1233.6</ele></trkpt><trkpt lat="45.861795" lon="9.197682"><time>2024-05-04T10:53:27.000Z</time><ele>1233.4</ele></trkpt><trkpt lat="45.861787" lon="9.197696"><time>2024-05-04T10:53:28.000Z</time><ele>1233</ele></trkpt><trkpt lat="45.86178" lon="9.197707"><time>2024-05-04T10:53:29.000Z</time><ele>1232.8</ele></trkpt><trkpt lat="45.861773" lon="9.197713"><time>2024-05-04T10:53:30.000Z</time><ele>1232.6</ele></trkpt><trkpt lat="45.861772" lon="9.197721"><time>2024-05-04T10:53:31.000Z</time><ele>1232.6</ele></trkpt><trkpt lat="45.861769" lon="9.197728"><time>2024-05-04T10:53:32.000Z</time><ele>1232.6</ele></trkpt><trkpt lat="45.861764" lon="9.197733"><time>2024-05-04T10:53:33.000Z</time><ele>1232.4</ele></trkpt><trkpt lat="45.86176" lon="9.197738"><time>2024-05-04T10:53:34.000Z</time><ele>1232.4</ele></trkpt><trkpt lat="45.861757" lon="9.197738"><time>2024-05-04T10:53:35.000Z</time><ele>1232.2</ele></trkpt><trkpt lat="45.861759" lon="9.197738"><time>2024-05-04T10:53:36.000Z</time><ele>1232.2</ele></trkpt><trkpt lat="45.861761" lon="9.197737"><time>2024-05-04T10:53:37.000Z</time><ele>1232.2</ele></trkpt><trkpt lat="45.861766" lon="9.197736"><time>2024-05-04T10:53:38.000Z</time><ele>1232.2</ele></trkpt><trkpt lat="45.861765" lon="9.197732"><time>2024-05-04T10:53:39.000Z</time><ele>1232.2</ele></trkpt><trkpt lat="45.861762" lon="9.197728"><time>2024-05-04T10:53:40.000Z</time><ele>1232.2</ele></trkpt><trkpt lat="45.86176" lon="9.197727"><time>2024-05-04T10:53:41.000Z</time><ele>1232.2</ele></trkpt><trkpt lat="45.86176" lon="9.197727"><time>2024-05-04T10:53:42.000Z</time><ele>1232.2</ele></trkpt><trkpt lat="45.861763" lon="9.19773"><time>2024-05-04T10:53:43.000Z</time><ele>1232.2</ele></trkpt><trkpt lat="45.861763" lon="9.197729"><time>2024-05-04T10:53:44.000Z</time><ele>1232.2</ele></trkpt><trkpt lat="45.861764" lon="9.197729"><time>2024-05-04T10:53:45.000Z</time><ele>1232.2</ele></trkpt><trkpt lat="45.861767" lon="9.19773"><time>2024-05-04T10:53:46.000Z</time><ele>1232.2</ele></trkpt><trkpt lat="45.861769" lon="9.19773"><time>2024-05-04T10:53:47.000Z</time><ele>1232.2</ele></trkpt><trkpt lat="45.86177" lon="9.197729"><time>2024-05-04T10:53:48.000Z</time><ele>1232.4</ele></trkpt><trkpt lat="45.861768" lon="9.197727"><time>2024-05-04T10:53:49.000Z</time><ele>1232.4</ele></trkpt><trkpt lat="45.861764" lon="9.197723"><time>2024-05-04T10:53:50.000Z</time><ele>1232.4</ele></trkpt><trkpt lat="45.86176" lon="9.19772"><time>2024-05-04T10:53:51.000Z</time><ele>1232.4</ele></trkpt><trkpt lat="45.86175" lon="9.197723"><time>2024-05-04T10:53:52.000Z</time><ele>1232.4</ele></trkpt><trkpt lat="45.861746" lon="9.197728"><time>2024-05-04T10:53:53.000Z</time><ele>1232.2</ele></trkpt><trkpt lat="45.861744" lon="9.197728"><time>2024-05-04T10:53:54.000Z</time><ele>1232.2</ele></trkpt><trkpt lat="45.861738" lon="9.197719"><time>2024-05-04T10:53:55.000Z</time><ele>1232.2</ele></trkpt><trkpt lat="45.861731" lon="9.197706"><time>2024-05-04T10:53:56.000Z</time><ele>1231.8</ele></trkpt><trkpt lat="45.861724" lon="9.197698"><time>2024-05-04T10:53:57.000Z</time><ele>1231.6</ele></trkpt><trkpt lat="45.86172" lon="9.197692"><time>2024-05-04T10:53:58.000Z</time><ele>1231.4</ele></trkpt><trkpt lat="45.861715" lon="9.197688"><time>2024-05-04T10:53:59.000Z</time><ele>1231</ele></trkpt><trkpt lat="45.861714" lon="9.197691"><time>2024-05-04T10:54:00.000Z</time><ele>1230.8</ele></trkpt><trkpt lat="45.861712" lon="9.197688"><time>2024-05-04T10:54:01.000Z</time><ele>1230.8</ele></trkpt><trkpt lat="45.861711" lon="9.197693"><time>2024-05-04T10:54:02.000Z</time><ele>1230.6</ele></trkpt><trkpt lat="45.861711" lon="9.1977"><time>2024-05-04T10:54:03.000Z</time><ele>1230.6</ele></trkpt><trkpt lat="45.861716" lon="9.19771"><time>2024-05-04T10:54:04.000Z</time><ele>1230.8</ele></trkpt><trkpt lat="45.86172" lon="9.197714"><time>2024-05-04T10:54:05.000Z</time><ele>1230.8</ele></trkpt><trkpt lat="45.861719" lon="9.197715"><time>2024-05-04T10:54:06.000Z</time><ele>1230.8</ele></trkpt><trkpt lat="45.861713" lon="9.197705"><time>2024-05-04T10:54:07.000Z</time><ele>1230.8</ele></trkpt><trkpt lat="45.861707" lon="9.197698"><time>2024-05-04T10:54:08.000Z</time><ele>1230.8</ele></trkpt><trkpt lat="45.861701" lon="9.19769"><time>2024-05-04T10:54:09.000Z</time><ele>1230.8</ele></trkpt><trkpt lat="45.861694" lon="9.197684"><time>2024-05-04T10:54:10.000Z</time><ele>1230.8</ele></trkpt><trkpt lat="45.861687" lon="9.197679"><time>2024-05-04T10:54:11.000Z</time><ele>1230.8</ele></trkpt><trkpt lat="45.86168" lon="9.197679"><time>2024-05-04T10:54:12.000Z</time><ele>1230.6</ele></trkpt><trkpt lat="45.86167" lon="9.197676"><time>2024-05-04T10:54:13.000Z</time><ele>1230.2</ele></trkpt><trkpt lat="45.861661" lon="9.197674"><time>2024-05-04T10:54:14.000Z</time><ele>1230</ele></trkpt><trkpt lat="45.861651" lon="9.197674"><time>2024-05-04T10:54:15.000Z</time><ele>1229.8</ele></trkpt><trkpt lat="45.861644" lon="9.197674"><time>2024-05-04T10:54:16.000Z</time><ele>1229.6</ele></trkpt><trkpt lat="45.861636" lon="9.197672"><time>2024-05-04T10:54:17.000Z</time><ele>1229.6</ele></trkpt><trkpt lat="45.861625" lon="9.197666"><time>2024-05-04T10:54:18.000Z</time><ele>1229.4</ele></trkpt><trkpt lat="45.861615" lon="9.197662"><time>2024-05-04T10:54:19.000Z</time><ele>1229.4</ele></trkpt><trkpt lat="45.861606" lon="9.197659"><time>2024-05-04T10:54:20.000Z</time><ele>1229.2</ele></trkpt><trkpt lat="45.861595" lon="9.197656"><time>2024-05-04T10:54:21.000Z</time><ele>1229.2</ele></trkpt><trkpt lat="45.861583" lon="9.197649"><time>2024-05-04T10:54:22.000Z</time><ele>1229.2</ele></trkpt><trkpt lat="45.861572" lon="9.197646"><time>2024-05-04T10:54:23.000Z</time><ele>1229</ele></trkpt><trkpt lat="45.861561" lon="9.197641"><time>2024-05-04T10:54:24.000Z</time><ele>1229</ele></trkpt><trkpt lat="45.861549" lon="9.197639"><time>2024-05-04T10:54:25.000Z</time><ele>1228.8</ele></trkpt><trkpt lat="45.861542" lon="9.197653"><time>2024-05-04T10:54:26.000Z</time><ele>1228.8</ele></trkpt><trkpt lat="45.861534" lon="9.197655"><time>2024-05-04T10:54:27.000Z</time><ele>1228.8</ele></trkpt><trkpt lat="45.861525" lon="9.197653"><time>2024-05-04T10:54:28.000Z</time><ele>1228.8</ele></trkpt><trkpt lat="45.861519" lon="9.197651"><time>2024-05-04T10:54:29.000Z</time><ele>1228.6</ele></trkpt><trkpt lat="45.861514" lon="9.19765"><time>2024-05-04T10:54:30.000Z</time><ele>1228.4</ele></trkpt><trkpt lat="45.861509" lon="9.197645"><time>2024-05-04T10:54:31.000Z</time><ele>1228.2</ele></trkpt><trkpt lat="45.861504" lon="9.19765"><time>2024-05-04T10:54:32.000Z</time><ele>1228</ele></trkpt><trkpt lat="45.861495" lon="9.19765"><time>2024-05-04T10:54:33.000Z</time><ele>1227.8</ele></trkpt><trkpt lat="45.861486" lon="9.197644"><time>2024-05-04T10:54:34.000Z</time><ele>1227.6</ele></trkpt><trkpt lat="45.861478" lon="9.197639"><time>2024-05-04T10:54:35.000Z</time><ele>1227.4</ele></trkpt><trkpt lat="45.861468" lon="9.197633"><time>2024-05-04T10:54:36.000Z</time><ele>1227.4</ele></trkpt><trkpt lat="45.86146" lon="9.197627"><time>2024-05-04T10:54:37.000Z</time><ele>1227.2</ele></trkpt><trkpt lat="45.861453" lon="9.197625"><time>2024-05-04T10:54:38.000Z</time><ele>1227</ele></trkpt><trkpt lat="45.861446" lon="9.197626"><time>2024-05-04T10:54:39.000Z</time><ele>1227</ele></trkpt><trkpt lat="45.861434" lon="9.197623"><time>2024-05-04T10:54:40.000Z</time><ele>1226.8</ele></trkpt><trkpt lat="45.861422" lon="9.19762"><time>2024-05-04T10:54:41.000Z</time><ele>1226.6</ele></trkpt><trkpt lat="45.861413" lon="9.197622"><time>2024-05-04T10:54:42.000Z</time><ele>1226.4</ele></trkpt><trkpt lat="45.861401" lon="9.197618"><time>2024-05-04T10:54:43.000Z</time><ele>1226.4</ele></trkpt><trkpt lat="45.861387" lon="9.197613"><time>2024-05-04T10:54:44.000Z</time><ele>1226.2</ele></trkpt><trkpt lat="45.861373" lon="9.197614"><time>2024-05-04T10:54:45.000Z</time><ele>1226</ele></trkpt><trkpt lat="45.861363" lon="9.197615"><time>2024-05-04T10:54:46.000Z</time><ele>1225.8</ele></trkpt><trkpt lat="45.861352" lon="9.197606"><time>2024-05-04T10:54:47.000Z</time><ele>1225.6</ele></trkpt><trkpt lat="45.861346" lon="9.197596"><time>2024-05-04T10:54:48.000Z</time><ele>1225.4</ele></trkpt><trkpt lat="45.861336" lon="9.19759"><time>2024-05-04T10:54:49.000Z</time><ele>1225.4</ele></trkpt><trkpt lat="45.861326" lon="9.19759"><time>2024-05-04T10:54:50.000Z</time><ele>1225.4</ele></trkpt><trkpt lat="45.861316" lon="9.197589"><time>2024-05-04T10:54:51.000Z</time><ele>1225.2</ele></trkpt><trkpt lat="45.861306" lon="9.19759"><time>2024-05-04T10:54:52.000Z</time><ele>1225</ele></trkpt><trkpt lat="45.861294" lon="9.197582"><time>2024-05-04T10:54:53.000Z</time><ele>1225</ele></trkpt><trkpt lat="45.861278" lon="9.197572"><time>2024-05-04T10:54:54.000Z</time><ele>1224.8</ele></trkpt><trkpt lat="45.861263" lon="9.19757"><time>2024-05-04T10:54:55.000Z</time><ele>1224.8</ele></trkpt><trkpt lat="45.861251" lon="9.197573"><time>2024-05-04T10:54:56.000Z</time><ele>1224.8</ele></trkpt><trkpt lat="45.861235" lon="9.19757"><time>2024-05-04T10:54:57.000Z</time><ele>1224.8</ele></trkpt><trkpt lat="45.86122" lon="9.197565"><time>2024-05-04T10:54:58.000Z</time><ele>1224.8</ele></trkpt><trkpt lat="45.861203" lon="9.197562"><time>2024-05-04T10:54:59.000Z</time><ele>1224.6</ele></trkpt><trkpt lat="45.86119" lon="9.197563"><time>2024-05-04T10:55:00.000Z</time><ele>1224.4</ele></trkpt><trkpt lat="45.861177" lon="9.197567"><time>2024-05-04T10:55:01.000Z</time><ele>1224.4</ele></trkpt><trkpt lat="45.861166" lon="9.197574"><time>2024-05-04T10:55:02.000Z</time><ele>1224.2</ele></trkpt><trkpt lat="45.861157" lon="9.197589"><time>2024-05-04T10:55:03.000Z</time><ele>1224.2</ele></trkpt><trkpt lat="45.861147" lon="9.197597"><time>2024-05-04T10:55:04.000Z</time><ele>1224.2</ele></trkpt><trkpt lat="45.861137" lon="9.197599"><time>2024-05-04T10:55:05.000Z</time><ele>1224.2</ele></trkpt><trkpt lat="45.861131" lon="9.197607"><time>2024-05-04T10:55:06.000Z</time><ele>1224</ele></trkpt><trkpt lat="45.861119" lon="9.197616"><time>2024-05-04T10:55:07.000Z</time><ele>1224</ele></trkpt><trkpt lat="45.86111" lon="9.197623"><time>2024-05-04T10:55:08.000Z</time><ele>1224</ele></trkpt><trkpt lat="45.861099" lon="9.197629"><time>2024-05-04T10:55:09.000Z</time><ele>1224</ele></trkpt><trkpt lat="45.861089" lon="9.197625"><time>2024-05-04T10:55:10.000Z</time><ele>1224</ele></trkpt><trkpt lat="45.86108" lon="9.197626"><time>2024-05-04T10:55:11.000Z</time><ele>1223.8</ele></trkpt><trkpt lat="45.861069" lon="9.197627"><time>2024-05-04T10:55:12.000Z</time><ele>1223.8</ele></trkpt><trkpt lat="45.861058" lon="9.197627"><time>2024-05-04T10:55:13.000Z</time><ele>1223.8</ele></trkpt><trkpt lat="45.861048" lon="9.19763"><time>2024-05-04T10:55:14.000Z</time><ele>1223.8</ele></trkpt><trkpt lat="45.861036" lon="9.19763"><time>2024-05-04T10:55:15.000Z</time><ele>1223.8</ele></trkpt><trkpt lat="45.861025" lon="9.197633"><time>2024-05-04T10:55:16.000Z</time><ele>1223.8</ele></trkpt><trkpt lat="45.861017" lon="9.197644"><time>2024-05-04T10:55:17.000Z</time><ele>1223.6</ele></trkpt><trkpt lat="45.861011" lon="9.197658"><time>2024-05-04T10:55:18.000Z</time><ele>1223.6</ele></trkpt><trkpt lat="45.861002" lon="9.19767"><time>2024-05-04T10:55:19.000Z</time><ele>1223.6</ele></trkpt><trkpt lat="45.860993" lon="9.197677"><time>2024-05-04T10:55:20.000Z</time><ele>1223.6</ele></trkpt><trkpt lat="45.860985" lon="9.197686"><time>2024-05-04T10:55:21.000Z</time><ele>1223.6</ele></trkpt><trkpt lat="45.860978" lon="9.197693"><time>2024-05-04T10:55:22.000Z</time><ele>1223.6</ele></trkpt><trkpt lat="45.860968" lon="9.197698"><time>2024-05-04T10:55:23.000Z</time><ele>1223.4</ele></trkpt><trkpt lat="45.860961" lon="9.197706"><time>2024-05-04T10:55:24.000Z</time><ele>1223.2</ele></trkpt><trkpt lat="45.86096" lon="9.19772"><time>2024-05-04T10:55:25.000Z</time><ele>1223</ele></trkpt><trkpt lat="45.860954" lon="9.197732"><time>2024-05-04T10:55:26.000Z</time><ele>1223</ele></trkpt><trkpt lat="45.860945" lon="9.197743"><time>2024-05-04T10:55:27.000Z</time><ele>1222.8</ele></trkpt><trkpt lat="45.860936" lon="9.19775"><time>2024-05-04T10:55:28.000Z</time><ele>1222.8</ele></trkpt><trkpt lat="45.860924" lon="9.197755"><time>2024-05-04T10:55:29.000Z</time><ele>1222.4</ele></trkpt><trkpt lat="45.860917" lon="9.197761"><time>2024-05-04T10:55:30.000Z</time><ele>1222</ele></trkpt><trkpt lat="45.86091" lon="9.197767"><time>2024-05-04T10:55:31.000Z</time><ele>1222</ele></trkpt><trkpt lat="45.8609" lon="9.197768"><time>2024-05-04T10:55:32.000Z</time><ele>1221.8</ele></trkpt><trkpt lat="45.86089" lon="9.197771"><time>2024-05-04T10:55:33.000Z</time><ele>1221.4</ele></trkpt><trkpt lat="45.860878" lon="9.197774"><time>2024-05-04T10:55:34.000Z</time><ele>1221</ele></trkpt><trkpt lat="45.860869" lon="9.197782"><time>2024-05-04T10:55:35.000Z</time><ele>1220.8</ele></trkpt><trkpt lat="45.860859" lon="9.197793"><time>2024-05-04T10:55:36.000Z</time><ele>1220.6</ele></trkpt><trkpt lat="45.860849" lon="9.197804"><time>2024-05-04T10:55:37.000Z</time><ele>1220.2</ele></trkpt><trkpt lat="45.860834" lon="9.197811"><time>2024-05-04T10:55:38.000Z</time><ele>1220</ele></trkpt><trkpt lat="45.860818" lon="9.197814"><time>2024-05-04T10:55:39.000Z</time><ele>1219.6</ele></trkpt><trkpt lat="45.860802" lon="9.19782"><time>2024-05-04T10:55:40.000Z</time><ele>1219.2</ele></trkpt><trkpt lat="45.860794" lon="9.197827"><time>2024-05-04T10:55:41.000Z</time><ele>1218.8</ele></trkpt><trkpt lat="45.860788" lon="9.197836"><time>2024-05-04T10:55:42.000Z</time><ele>1218.6</ele></trkpt><trkpt lat="45.860783" lon="9.197844"><time>2024-05-04T10:55:43.000Z</time><ele>1218.4</ele></trkpt><trkpt lat="45.860779" lon="9.197857"><time>2024-05-04T10:55:44.000Z</time><ele>1218.4</ele></trkpt><trkpt lat="45.860776" lon="9.197867"><time>2024-05-04T10:55:45.000Z</time><ele>1218.2</ele></trkpt><trkpt lat="45.860772" lon="9.197876"><time>2024-05-04T10:55:46.000Z</time><ele>1218</ele></trkpt><trkpt lat="45.860763" lon="9.197881"><time>2024-05-04T10:55:47.000Z</time><ele>1217.8</ele></trkpt><trkpt lat="45.860755" lon="9.197887"><time>2024-05-04T10:55:48.000Z</time><ele>1217.6</ele></trkpt><trkpt lat="45.860749" lon="9.197896"><time>2024-05-04T10:55:49.000Z</time><ele>1217.4</ele></trkpt><trkpt lat="45.860745" lon="9.197906"><time>2024-05-04T10:55:50.000Z</time><ele>1217</ele></trkpt><trkpt lat="45.860739" lon="9.197909"><time>2024-05-04T10:55:51.000Z</time><ele>1216.6</ele></trkpt><trkpt lat="45.860737" lon="9.197927"><time>2024-05-04T10:55:52.000Z</time><ele>1216.4</ele></trkpt><trkpt lat="45.860727" lon="9.197936"><time>2024-05-04T10:55:53.000Z</time><ele>1216.4</ele></trkpt><trkpt lat="45.860714" lon="9.19794"><time>2024-05-04T10:55:54.000Z</time><ele>1216.2</ele></trkpt><trkpt lat="45.860706" lon="9.197946"><time>2024-05-04T10:55:55.000Z</time><ele>1216</ele></trkpt><trkpt lat="45.860696" lon="9.19796"><time>2024-05-04T10:55:56.000Z</time><ele>1215.8</ele></trkpt><trkpt lat="45.860688" lon="9.197973"><time>2024-05-04T10:55:57.000Z</time><ele>1215.6</ele></trkpt><trkpt lat="45.86068" lon="9.197987"><time>2024-05-04T10:55:58.000Z</time><ele>1215.6</ele></trkpt><trkpt lat="45.860673" lon="9.197999"><time>2024-05-04T10:55:59.000Z</time><ele>1215.2</ele></trkpt><trkpt lat="45.860664" lon="9.19801"><time>2024-05-04T10:56:00.000Z</time><ele>1215</ele></trkpt><trkpt lat="45.860654" lon="9.198022"><time>2024-05-04T10:56:01.000Z</time><ele>1214.8</ele></trkpt><trkpt lat="45.860643" lon="9.198032"><time>2024-05-04T10:56:02.000Z</time><ele>1214.8</ele></trkpt><trkpt lat="45.860631" lon="9.19804"><time>2024-05-04T10:56:03.000Z</time><ele>1214.6</ele></trkpt><trkpt lat="45.860622" lon="9.198048"><time>2024-05-04T10:56:04.000Z</time><ele>1214.6</ele></trkpt><trkpt lat="45.860614" lon="9.198058"><time>2024-05-04T10:56:05.000Z</time><ele>1214.4</ele></trkpt><trkpt lat="45.860608" lon="9.198068"><time>2024-05-04T10:56:06.000Z</time><ele>1214.4</ele></trkpt><trkpt lat="45.860597" lon="9.198078"><time>2024-05-04T10:56:07.000Z</time><ele>1214.4</ele></trkpt><trkpt lat="45.860584" lon="9.198084"><time>2024-05-04T10:56:08.000Z</time><ele>1214.4</ele></trkpt><trkpt lat="45.860572" lon="9.198091"><time>2024-05-04T10:56:09.000Z</time><ele>1214.4</ele></trkpt><trkpt lat="45.860561" lon="9.198098"><time>2024-05-04T10:56:10.000Z</time><ele>1214.4</ele></trkpt><trkpt lat="45.860551" lon="9.198105"><time>2024-05-04T10:56:11.000Z</time><ele>1214.4</ele></trkpt><trkpt lat="45.860543" lon="9.198113"><time>2024-05-04T10:56:12.000Z</time><ele>1214.4</ele></trkpt><trkpt lat="45.860538" lon="9.198116"><time>2024-05-04T10:56:13.000Z</time><ele>1214.4</ele></trkpt><trkpt lat="45.860537" lon="9.198118"><time>2024-05-04T10:56:14.000Z</time><ele>1214.4</ele></trkpt><trkpt lat="45.860536" lon="9.198122"><time>2024-05-04T10:56:15.000Z</time><ele>1214.4</ele></trkpt><trkpt lat="45.860535" lon="9.198126"><time>2024-05-04T10:56:16.000Z</time><ele>1214.4</ele></trkpt><trkpt lat="45.860531" lon="9.198133"><time>2024-05-04T10:56:17.000Z</time><ele>1214.4</ele></trkpt><trkpt lat="45.860525" lon="9.198143"><time>2024-05-04T10:56:18.000Z</time><ele>1214.2</ele></trkpt><trkpt lat="45.860515" lon="9.198152"><time>2024-05-04T10:56:19.000Z</time><ele>1214.2</ele></trkpt><trkpt lat="45.8605" lon="9.19816"><time>2024-05-04T10:56:20.000Z</time><ele>1214</ele></trkpt><trkpt lat="45.86049" lon="9.19817"><time>2024-05-04T10:56:21.000Z</time><ele>1214</ele></trkpt><trkpt lat="45.86048" lon="9.198179"><time>2024-05-04T10:56:22.000Z</time><ele>1213.8</ele></trkpt><trkpt lat="45.860473" lon="9.198192"><time>2024-05-04T10:56:23.000Z</time><ele>1214</ele></trkpt><trkpt lat="45.860465" lon="9.198202"><time>2024-05-04T10:56:24.000Z</time><ele>1214</ele></trkpt><trkpt lat="45.860456" lon="9.198214"><time>2024-05-04T10:56:25.000Z</time><ele>1214</ele></trkpt><trkpt lat="45.860447" lon="9.198221"><time>2024-05-04T10:56:26.000Z</time><ele>1214</ele></trkpt><trkpt lat="45.860431" lon="9.19823"><time>2024-05-04T10:56:27.000Z</time><ele>1214</ele></trkpt><trkpt lat="45.860422" lon="9.198239"><time>2024-05-04T10:56:28.000Z</time><ele>1214</ele></trkpt><trkpt lat="45.860411" lon="9.198251"><time>2024-05-04T10:56:29.000Z</time><ele>1214</ele></trkpt><trkpt lat="45.8604" lon="9.198258"><time>2024-05-04T10:56:30.000Z</time><ele>1214</ele></trkpt><trkpt lat="45.860389" lon="9.198267"><time>2024-05-04T10:56:31.000Z</time><ele>1214</ele></trkpt><trkpt lat="45.860382" lon="9.19828"><time>2024-05-04T10:56:32.000Z</time><ele>1214</ele></trkpt><trkpt lat="45.86037" lon="9.19829"><time>2024-05-04T10:56:33.000Z</time><ele>1214</ele></trkpt><trkpt lat="45.860358" lon="9.198294"><time>2024-05-04T10:56:34.000Z</time><ele>1214</ele></trkpt><trkpt lat="45.860346" lon="9.198303"><time>2024-05-04T10:56:35.000Z</time><ele>1214</ele></trkpt><trkpt lat="45.860332" lon="9.198311"><time>2024-05-04T10:56:36.000Z</time><ele>1214</ele></trkpt><trkpt lat="45.860321" lon="9.198315"><time>2024-05-04T10:56:37.000Z</time><ele>1214</ele></trkpt><trkpt lat="45.86031" lon="9.198321"><time>2024-05-04T10:56:38.000Z</time><ele>1213.8</ele></trkpt><trkpt lat="45.860301" lon="9.198322"><time>2024-05-04T10:56:39.000Z</time><ele>1213.8</ele></trkpt><trkpt lat="45.860289" lon="9.198324"><time>2024-05-04T10:56:40.000Z</time><ele>1213.8</ele></trkpt><trkpt lat="45.860272" lon="9.198322"><time>2024-05-04T10:56:41.000Z</time><ele>1213.8</ele></trkpt><trkpt lat="45.860259" lon="9.198325"><time>2024-05-04T10:56:42.000Z</time><ele>1213.6</ele></trkpt><trkpt lat="45.860244" lon="9.198318"><time>2024-05-04T10:56:43.000Z</time><ele>1213.6</ele></trkpt><trkpt lat="45.860232" lon="9.198315"><time>2024-05-04T10:56:44.000Z</time><ele>1213.6</ele></trkpt><trkpt lat="45.860222" lon="9.198311"><time>2024-05-04T10:56:45.000Z</time><ele>1213.6</ele></trkpt><trkpt lat="45.860212" lon="9.198307"><time>2024-05-04T10:56:46.000Z</time><ele>1213.6</ele></trkpt><trkpt lat="45.8602" lon="9.1983"><time>2024-05-04T10:56:47.000Z</time><ele>1213.4</ele></trkpt><trkpt lat="45.860186" lon="9.19829"><time>2024-05-04T10:56:48.000Z</time><ele>1213.2</ele></trkpt><trkpt lat="45.860173" lon="9.198277"><time>2024-05-04T10:56:49.000Z</time><ele>1213</ele></trkpt><trkpt lat="45.86016" lon="9.198265"><time>2024-05-04T10:56:50.000Z</time><ele>1213</ele></trkpt><trkpt lat="45.860148" lon="9.198257"><time>2024-05-04T10:56:51.000Z</time><ele>1213</ele></trkpt><trkpt lat="45.860133" lon="9.198245"><time>2024-05-04T10:56:52.000Z</time><ele>1212.8</ele></trkpt><trkpt lat="45.86012" lon="9.198237"><time>2024-05-04T10:56:53.000Z</time><ele>1212.8</ele></trkpt><trkpt lat="45.860108" lon="9.198226"><time>2024-05-04T10:56:54.000Z</time><ele>1212.6</ele></trkpt><trkpt lat="45.860097" lon="9.198217"><time>2024-05-04T10:56:55.000Z</time><ele>1212.6</ele></trkpt><trkpt lat="45.860083" lon="9.19821"><time>2024-05-04T10:56:56.000Z</time><ele>1212.6</ele></trkpt><trkpt lat="45.86007" lon="9.198206"><time>2024-05-04T10:56:57.000Z</time><ele>1212.6</ele></trkpt><trkpt lat="45.860058" lon="9.198198"><time>2024-05-04T10:56:58.000Z</time><ele>1212.6</ele></trkpt><trkpt lat="45.860046" lon="9.198194"><time>2024-05-04T10:56:59.000Z</time><ele>1212.6</ele></trkpt><trkpt lat="45.860032" lon="9.19818"><time>2024-05-04T10:57:00.000Z</time><ele>1212.6</ele></trkpt><trkpt lat="45.860021" lon="9.198169"><time>2024-05-04T10:57:01.000Z</time><ele>1212.6</ele></trkpt><trkpt lat="45.860008" lon="9.19816"><time>2024-05-04T10:57:02.000Z</time><ele>1212.4</ele></trkpt><trkpt lat="45.859997" lon="9.198155"><time>2024-05-04T10:57:03.000Z</time><ele>1212.4</ele></trkpt><trkpt lat="45.859988" lon="9.198155"><time>2024-05-04T10:57:04.000Z</time><ele>1212.4</ele></trkpt><trkpt lat="45.859979" lon="9.198156"><time>2024-05-04T10:57:05.000Z</time><ele>1212.4</ele></trkpt><trkpt lat="45.859968" lon="9.198153"><time>2024-05-04T10:57:06.000Z</time><ele>1212.2</ele></trkpt><trkpt lat="45.859959" lon="9.198148"><time>2024-05-04T10:57:07.000Z</time><ele>1212.2</ele></trkpt><trkpt lat="45.859943" lon="9.198136"><time>2024-05-04T10:57:08.000Z</time><ele>1212.2</ele></trkpt><trkpt lat="45.859929" lon="9.198127"><time>2024-05-04T10:57:09.000Z</time><ele>1212.2</ele></trkpt><trkpt lat="45.859909" lon="9.198116"><time>2024-05-04T10:57:10.000Z</time><ele>1212.2</ele></trkpt><trkpt lat="45.859892" lon="9.198112"><time>2024-05-04T10:57:11.000Z</time><ele>1212</ele></trkpt><trkpt lat="45.859879" lon="9.198109"><time>2024-05-04T10:57:12.000Z</time><ele>1211.8</ele></trkpt><trkpt lat="45.859871" lon="9.198104"><time>2024-05-04T10:57:13.000Z</time><ele>1211.8</ele></trkpt><trkpt lat="45.859856" lon="9.198099"><time>2024-05-04T10:57:14.000Z</time><ele>1211.8</ele></trkpt><trkpt lat="45.859846" lon="9.198099"><time>2024-05-04T10:57:15.000Z</time><ele>1211.8</ele></trkpt><trkpt lat="45.859834" lon="9.198098"><time>2024-05-04T10:57:16.000Z</time><ele>1211.8</ele></trkpt><trkpt lat="45.85982" lon="9.198092"><time>2024-05-04T10:57:17.000Z</time><ele>1211.8</ele></trkpt><trkpt lat="45.859813" lon="9.198092"><time>2024-05-04T10:57:18.000Z</time><ele>1211.8</ele></trkpt><trkpt lat="45.859805" lon="9.198092"><time>2024-05-04T10:57:19.000Z</time><ele>1211.6</ele></trkpt><trkpt lat="45.859794" lon="9.198085"><time>2024-05-04T10:57:20.000Z</time><ele>1211.6</ele></trkpt><trkpt lat="45.859785" lon="9.198087"><time>2024-05-04T10:57:21.000Z</time><ele>1211.6</ele></trkpt><trkpt lat="45.859773" lon="9.198088"><time>2024-05-04T10:57:22.000Z</time><ele>1211.6</ele></trkpt><trkpt lat="45.859763" lon="9.198081"><time>2024-05-04T10:57:23.000Z</time><ele>1211.6</ele></trkpt><trkpt lat="45.859749" lon="9.198079"><time>2024-05-04T10:57:24.000Z</time><ele>1211.6</ele></trkpt><trkpt lat="45.859737" lon="9.198077"><time>2024-05-04T10:57:25.000Z</time><ele>1211.4</ele></trkpt><trkpt lat="45.859721" lon="9.198071"><time>2024-05-04T10:57:26.000Z</time><ele>1211.4</ele></trkpt><trkpt lat="45.859704" lon="9.198073"><time>2024-05-04T10:57:27.000Z</time><ele>1211.4</ele></trkpt><trkpt lat="45.859684" lon="9.198073"><time>2024-05-04T10:57:28.000Z</time><ele>1211.4</ele></trkpt><trkpt lat="45.85967" lon="9.198076"><time>2024-05-04T10:57:29.000Z</time><ele>1211.2</ele></trkpt><trkpt lat="45.859659" lon="9.198076"><time>2024-05-04T10:57:30.000Z</time><ele>1211.2</ele></trkpt><trkpt lat="45.859651" lon="9.198075"><time>2024-05-04T10:57:31.000Z</time><ele>1211.2</ele></trkpt><trkpt lat="45.859644" lon="9.19808"><time>2024-05-04T10:57:32.000Z</time><ele>1211</ele></trkpt><trkpt lat="45.859636" lon="9.198077"><time>2024-05-04T10:57:33.000Z</time><ele>1211</ele></trkpt><trkpt lat="45.859624" lon="9.198071"><time>2024-05-04T10:57:34.000Z</time><ele>1211</ele></trkpt><trkpt lat="45.859611" lon="9.198065"><time>2024-05-04T10:57:35.000Z</time><ele>1211</ele></trkpt><trkpt lat="45.859595" lon="9.198057"><time>2024-05-04T10:57:36.000Z</time><ele>1211</ele></trkpt><trkpt lat="45.859582" lon="9.198046"><time>2024-05-04T10:57:37.000Z</time><ele>1210.8</ele></trkpt><trkpt lat="45.859573" lon="9.198033"><time>2024-05-04T10:57:38.000Z</time><ele>1211</ele></trkpt><trkpt lat="45.859561" lon="9.198025"><time>2024-05-04T10:57:39.000Z</time><ele>1210.8</ele></trkpt><trkpt lat="45.85955" lon="9.198019"><time>2024-05-04T10:57:40.000Z</time><ele>1210.8</ele></trkpt><trkpt lat="45.859544" lon="9.19801"><time>2024-05-04T10:57:41.000Z</time><ele>1210.8</ele></trkpt><trkpt lat="45.85954" lon="9.198"><time>2024-05-04T10:57:42.000Z</time><ele>1210.8</ele></trkpt><trkpt lat="45.859536" lon="9.197999"><time>2024-05-04T10:57:43.000Z</time><ele>1210.8</ele></trkpt><trkpt lat="45.859533" lon="9.198003"><time>2024-05-04T10:57:44.000Z</time><ele>1210.8</ele></trkpt><trkpt lat="45.859527" lon="9.198004"><time>2024-05-04T10:57:45.000Z</time><ele>1210.8</ele></trkpt><trkpt lat="45.859515" lon="9.197998"><time>2024-05-04T10:57:46.000Z</time><ele>1210.8</ele></trkpt><trkpt lat="45.859505" lon="9.198002"><time>2024-05-04T10:57:47.000Z</time><ele>1210.6</ele></trkpt><trkpt lat="45.8595" lon="9.198007"><time>2024-05-04T10:57:48.000Z</time><ele>1210.6</ele></trkpt><trkpt lat="45.85949" lon="9.198011"><time>2024-05-04T10:57:49.000Z</time><ele>1210.6</ele></trkpt><trkpt lat="45.85948" lon="9.198011"><time>2024-05-04T10:57:50.000Z</time><ele>1210.6</ele></trkpt><trkpt lat="45.859472" lon="9.198015"><time>2024-05-04T10:57:51.000Z</time><ele>1210.6</ele></trkpt><trkpt lat="45.859463" lon="9.198014"><time>2024-05-04T10:57:52.000Z</time><ele>1210.6</ele></trkpt><trkpt lat="45.859457" lon="9.198013"><time>2024-05-04T10:57:53.000Z</time><ele>1210.6</ele></trkpt><trkpt lat="45.859448" lon="9.198011"><time>2024-05-04T10:57:54.000Z</time><ele>1210.6</ele></trkpt><trkpt lat="45.859444" lon="9.198013"><time>2024-05-04T10:57:55.000Z</time><ele>1210.6</ele></trkpt><trkpt lat="45.859437" lon="9.198013"><time>2024-05-04T10:57:56.000Z</time><ele>1210.4</ele></trkpt><trkpt lat="45.859423" lon="9.198002"><time>2024-05-04T10:57:57.000Z</time><ele>1210.2</ele></trkpt><trkpt lat="45.859406" lon="9.197991"><time>2024-05-04T10:57:58.000Z</time><ele>1210.2</ele></trkpt><trkpt lat="45.859397" lon="9.197989"><time>2024-05-04T10:57:59.000Z</time><ele>1210</ele></trkpt><trkpt lat="45.859394" lon="9.197989"><time>2024-05-04T10:58:00.000Z</time><ele>1210</ele></trkpt><trkpt lat="45.859382" lon="9.197988"><time>2024-05-04T10:58:01.000Z</time><ele>1210</ele></trkpt><trkpt lat="45.85937" lon="9.197996"><time>2024-05-04T10:58:02.000Z</time><ele>1209.8</ele></trkpt><trkpt lat="45.859362" lon="9.197992"><time>2024-05-04T10:58:03.000Z</time><ele>1209.8</ele></trkpt><trkpt lat="45.859351" lon="9.197989"><time>2024-05-04T10:58:04.000Z</time><ele>1209.6</ele></trkpt><trkpt lat="45.859337" lon="9.197984"><time>2024-05-04T10:58:05.000Z</time><ele>1209.6</ele></trkpt><trkpt lat="45.859325" lon="9.197985"><time>2024-05-04T10:58:06.000Z</time><ele>1209.6</ele></trkpt><trkpt lat="45.859312" lon="9.197985"><time>2024-05-04T10:58:07.000Z</time><ele>1209.4</ele></trkpt><trkpt lat="45.859301" lon="9.197987"><time>2024-05-04T10:58:08.000Z</time><ele>1209.2</ele></trkpt><trkpt lat="45.85929" lon="9.197989"><time>2024-05-04T10:58:09.000Z</time><ele>1209</ele></trkpt><trkpt lat="45.85928" lon="9.197988"><time>2024-05-04T10:58:10.000Z</time><ele>1209</ele></trkpt><trkpt lat="45.859273" lon="9.197991"><time>2024-05-04T10:58:11.000Z</time><ele>1208.8</ele></trkpt><trkpt lat="45.859267" lon="9.198001"><time>2024-05-04T10:58:12.000Z</time><ele>1208.6</ele></trkpt><trkpt lat="45.85926" lon="9.198008"><time>2024-05-04T10:58:13.000Z</time><ele>1208.6</ele></trkpt><trkpt lat="45.859248" lon="9.198009"><time>2024-05-04T10:58:14.000Z</time><ele>1208.4</ele></trkpt><trkpt lat="45.859236" lon="9.198008"><time>2024-05-04T10:58:15.000Z</time><ele>1208.4</ele></trkpt><trkpt lat="45.859225" lon="9.198012"><time>2024-05-04T10:58:16.000Z</time><ele>1208.2</ele></trkpt><trkpt lat="45.859214" lon="9.198015"><time>2024-05-04T10:58:17.000Z</time><ele>1208.2</ele></trkpt><trkpt lat="45.859211" lon="9.198019"><time>2024-05-04T10:58:18.000Z</time><ele>1208</ele></trkpt><trkpt lat="45.859203" lon="9.198017"><time>2024-05-04T10:58:19.000Z</time><ele>1207.8</ele></trkpt><trkpt lat="45.859193" lon="9.198017"><time>2024-05-04T10:58:20.000Z</time><ele>1207.8</ele></trkpt><trkpt lat="45.859178" lon="9.198022"><time>2024-05-04T10:58:21.000Z</time><ele>1207.6</ele></trkpt><trkpt lat="45.859161" lon="9.198033"><time>2024-05-04T10:58:22.000Z</time><ele>1207.4</ele></trkpt><trkpt lat="45.859149" lon="9.198043"><time>2024-05-04T10:58:23.000Z</time><ele>1207.2</ele></trkpt><trkpt lat="45.859139" lon="9.198048"><time>2024-05-04T10:58:24.000Z</time><ele>1207.2</ele></trkpt><trkpt lat="45.859124" lon="9.198039"><time>2024-05-04T10:58:25.000Z</time><ele>1207</ele></trkpt><trkpt lat="45.859115" lon="9.19803"><time>2024-05-04T10:58:26.000Z</time><ele>1207</ele></trkpt><trkpt lat="45.85911" lon="9.198027"><time>2024-05-04T10:58:27.000Z</time><ele>1206.8</ele></trkpt><trkpt lat="45.859107" lon="9.198028"><time>2024-05-04T10:58:28.000Z</time><ele>1206.8</ele></trkpt><trkpt lat="45.859099" lon="9.198033"><time>2024-05-04T10:58:29.000Z</time><ele>1206.6</ele></trkpt><trkpt lat="45.859087" lon="9.198036"><time>2024-05-04T10:58:30.000Z</time><ele>1206.6</ele></trkpt><trkpt lat="45.859081" lon="9.198037"><time>2024-05-04T10:58:31.000Z</time><ele>1206.4</ele></trkpt><trkpt lat="45.859072" lon="9.198046"><time>2024-05-04T10:58:32.000Z</time><ele>1206.4</ele></trkpt><trkpt lat="45.859069" lon="9.198048"><time>2024-05-04T10:58:33.000Z</time><ele>1206.2</ele></trkpt><trkpt lat="45.859066" lon="9.198048"><time>2024-05-04T10:58:34.000Z</time><ele>1206.2</ele></trkpt><trkpt lat="45.859063" lon="9.198048"><time>2024-05-04T10:58:35.000Z</time><ele>1206.2</ele></trkpt><trkpt lat="45.859054" lon="9.198039"><time>2024-05-04T10:58:36.000Z</time><ele>1206.2</ele></trkpt><trkpt lat="45.859051" lon="9.198038"><time>2024-05-04T10:58:37.000Z</time><ele>1206.2</ele></trkpt><trkpt lat="45.859051" lon="9.19804"><time>2024-05-04T10:58:38.000Z</time><ele>1206</ele></trkpt><trkpt lat="45.859048" lon="9.198046"><time>2024-05-04T10:58:39.000Z</time><ele>1206</ele></trkpt><trkpt lat="45.859042" lon="9.198048"><time>2024-05-04T10:58:40.000Z</time><ele>1206</ele></trkpt><trkpt lat="45.859035" lon="9.198054"><time>2024-05-04T10:58:41.000Z</time><ele>1205.8</ele></trkpt><trkpt lat="45.859027" lon="9.198061"><time>2024-05-04T10:58:42.000Z</time><ele>1205.8</ele></trkpt><trkpt lat="45.859013" lon="9.198063"><time>2024-05-04T10:58:43.000Z</time><ele>1205.6</ele></trkpt><trkpt lat="45.859003" lon="9.198071"><time>2024-05-04T10:58:44.000Z</time><ele>1205.6</ele></trkpt><trkpt lat="45.858998" lon="9.198079"><time>2024-05-04T10:58:45.000Z</time><ele>1205.4</ele></trkpt><trkpt lat="45.858988" lon="9.198087"><time>2024-05-04T10:58:46.000Z</time><ele>1205.2</ele></trkpt><trkpt lat="45.85898" lon="9.198099"><time>2024-05-04T10:58:47.000Z</time><ele>1205</ele></trkpt><trkpt lat="45.858971" lon="9.198108"><time>2024-05-04T10:58:48.000Z</time><ele>1204.8</ele></trkpt><trkpt lat="45.858961" lon="9.19812"><time>2024-05-04T10:58:49.000Z</time><ele>1204.6</ele></trkpt><trkpt lat="45.858949" lon="9.19813"><time>2024-05-04T10:58:50.000Z</time><ele>1204.6</ele></trkpt><trkpt lat="45.858935" lon="9.198134"><time>2024-05-04T10:58:51.000Z</time><ele>1204.4</ele></trkpt><trkpt lat="45.858923" lon="9.198136"><time>2024-05-04T10:58:52.000Z</time><ele>1204.4</ele></trkpt><trkpt lat="45.858911" lon="9.198143"><time>2024-05-04T10:58:53.000Z</time><ele>1204.4</ele></trkpt><trkpt lat="45.858901" lon="9.198148"><time>2024-05-04T10:58:54.000Z</time><ele>1204.2</ele></trkpt><trkpt lat="45.85889" lon="9.198151"><time>2024-05-04T10:58:55.000Z</time><ele>1204.2</ele></trkpt><trkpt lat="45.858878" lon="9.198154"><time>2024-05-04T10:58:56.000Z</time><ele>1204.2</ele></trkpt><trkpt lat="45.858864" lon="9.198154"><time>2024-05-04T10:58:57.000Z</time><ele>1204.2</ele></trkpt><trkpt lat="45.858849" lon="9.198158"><time>2024-05-04T10:58:58.000Z</time><ele>1204.2</ele></trkpt><trkpt lat="45.858833" lon="9.198168"><time>2024-05-04T10:58:59.000Z</time><ele>1204</ele></trkpt><trkpt lat="45.858822" lon="9.198186"><time>2024-05-04T10:59:00.000Z</time><ele>1204</ele></trkpt><trkpt lat="45.858813" lon="9.198199"><time>2024-05-04T10:59:01.000Z</time><ele>1204</ele></trkpt><trkpt lat="45.858805" lon="9.198211"><time>2024-05-04T10:59:02.000Z</time><ele>1203.8</ele></trkpt><trkpt lat="45.858796" lon="9.198224"><time>2024-05-04T10:59:03.000Z</time><ele>1203.8</ele></trkpt><trkpt lat="45.858786" lon="9.198231"><time>2024-05-04T10:59:04.000Z</time><ele>1203.8</ele></trkpt><trkpt lat="45.85877" lon="9.19824"><time>2024-05-04T10:59:05.000Z</time><ele>1203.8</ele></trkpt><trkpt lat="45.858753" lon="9.198241"><time>2024-05-04T10:59:06.000Z</time><ele>1203.8</ele></trkpt><trkpt lat="45.858735" lon="9.198241"><time>2024-05-04T10:59:07.000Z</time><ele>1203.8</ele></trkpt><trkpt lat="45.858724" lon="9.198251"><time>2024-05-04T10:59:08.000Z</time><ele>1203.8</ele></trkpt><trkpt lat="45.858716" lon="9.198263"><time>2024-05-04T10:59:09.000Z</time><ele>1203.6</ele></trkpt><trkpt lat="45.858704" lon="9.198272"><time>2024-05-04T10:59:10.000Z</time><ele>1203.4</ele></trkpt><trkpt lat="45.858693" lon="9.198275"><time>2024-05-04T10:59:11.000Z</time><ele>1203.4</ele></trkpt><trkpt lat="45.858681" lon="9.198284"><time>2024-05-04T10:59:12.000Z</time><ele>1203.2</ele></trkpt><trkpt lat="45.858669" lon="9.198288"><time>2024-05-04T10:59:13.000Z</time><ele>1203.2</ele></trkpt><trkpt lat="45.858657" lon="9.198289"><time>2024-05-04T10:59:14.000Z</time><ele>1203</ele></trkpt><trkpt lat="45.858646" lon="9.198292"><time>2024-05-04T10:59:15.000Z</time><ele>1203</ele></trkpt><trkpt lat="45.858635" lon="9.198301"><time>2024-05-04T10:59:16.000Z</time><ele>1202.8</ele></trkpt><trkpt lat="45.858622" lon="9.198305"><time>2024-05-04T10:59:17.000Z</time><ele>1202.8</ele></trkpt><trkpt lat="45.858608" lon="9.198305"><time>2024-05-04T10:59:18.000Z</time><ele>1202.6</ele></trkpt><trkpt lat="45.858601" lon="9.198317"><time>2024-05-04T10:59:19.000Z</time><ele>1202.4</ele></trkpt><trkpt lat="45.858588" lon="9.198316"><time>2024-05-04T10:59:20.000Z</time><ele>1202.4</ele></trkpt><trkpt lat="45.858576" lon="9.198317"><time>2024-05-04T10:59:21.000Z</time><ele>1202</ele></trkpt><trkpt lat="45.858567" lon="9.19832"><time>2024-05-04T10:59:22.000Z</time><ele>1201.6</ele></trkpt><trkpt lat="45.858558" lon="9.198324"><time>2024-05-04T10:59:23.000Z</time><ele>1201.4</ele></trkpt><trkpt lat="45.85855" lon="9.198328"><time>2024-05-04T10:59:24.000Z</time><ele>1201.2</ele></trkpt><trkpt lat="45.858541" lon="9.198331"><time>2024-05-04T10:59:25.000Z</time><ele>1201</ele></trkpt><trkpt lat="45.85853" lon="9.198333"><time>2024-05-04T10:59:26.000Z</time><ele>1200.8</ele></trkpt><trkpt lat="45.85852" lon="9.198335"><time>2024-05-04T10:59:27.000Z</time><ele>1200.6</ele></trkpt><trkpt lat="45.858513" lon="9.19834"><time>2024-05-04T10:59:28.000Z</time><ele>1200.4</ele></trkpt><trkpt lat="45.858502" lon="9.19834"><time>2024-05-04T10:59:29.000Z</time><ele>1200.4</ele></trkpt><trkpt lat="45.858497" lon="9.198346"><time>2024-05-04T10:59:30.000Z</time><ele>1200.2</ele></trkpt><trkpt lat="45.858487" lon="9.198347"><time>2024-05-04T10:59:31.000Z</time><ele>1200</ele></trkpt><trkpt lat="45.858479" lon="9.198357"><time>2024-05-04T10:59:32.000Z</time><ele>1199.8</ele></trkpt><trkpt lat="45.85847" lon="9.198363"><time>2024-05-04T10:59:33.000Z</time><ele>1199.6</ele></trkpt><trkpt lat="45.858461" lon="9.198367"><time>2024-05-04T10:59:34.000Z</time><ele>1199.6</ele></trkpt><trkpt lat="45.858452" lon="9.19837"><time>2024-05-04T10:59:35.000Z</time><ele>1199.4</ele></trkpt><trkpt lat="45.858441" lon="9.198371"><time>2024-05-04T10:59:36.000Z</time><ele>1199.2</ele></trkpt><trkpt lat="45.858431" lon="9.198376"><time>2024-05-04T10:59:37.000Z</time><ele>1199</ele></trkpt><trkpt lat="45.858422" lon="9.198382"><time>2024-05-04T10:59:38.000Z</time><ele>1198.8</ele></trkpt><trkpt lat="45.858413" lon="9.198391"><time>2024-05-04T10:59:39.000Z</time><ele>1198.8</ele></trkpt><trkpt lat="45.858401" lon="9.198396"><time>2024-05-04T10:59:40.000Z</time><ele>1198.4</ele></trkpt><trkpt lat="45.858386" lon="9.198397"><time>2024-05-04T10:59:41.000Z</time><ele>1198.2</ele></trkpt><trkpt lat="45.858367" lon="9.198393"><time>2024-05-04T10:59:42.000Z</time><ele>1198.2</ele></trkpt><trkpt lat="45.858352" lon="9.198393"><time>2024-05-04T10:59:43.000Z</time><ele>1198</ele></trkpt><trkpt lat="45.858341" lon="9.198397"><time>2024-05-04T10:59:44.000Z</time><ele>1198</ele></trkpt><trkpt lat="45.858329" lon="9.198399"><time>2024-05-04T10:59:45.000Z</time><ele>1197.8</ele></trkpt><trkpt lat="45.858318" lon="9.198401"><time>2024-05-04T10:59:46.000Z</time><ele>1197.6</ele></trkpt><trkpt lat="45.858307" lon="9.198405"><time>2024-05-04T10:59:47.000Z</time><ele>1197.4</ele></trkpt><trkpt lat="45.858295" lon="9.198408"><time>2024-05-04T10:59:48.000Z</time><ele>1197.2</ele></trkpt><trkpt lat="45.858283" lon="9.198409"><time>2024-05-04T10:59:49.000Z</time><ele>1197.2</ele></trkpt><trkpt lat="45.85827" lon="9.19841"><time>2024-05-04T10:59:50.000Z</time><ele>1197</ele></trkpt><trkpt lat="45.858264" lon="9.198415"><time>2024-05-04T10:59:51.000Z</time><ele>1197</ele></trkpt><trkpt lat="45.858257" lon="9.19842"><time>2024-05-04T10:59:52.000Z</time><ele>1196.8</ele></trkpt><trkpt lat="45.858249" lon="9.198426"><time>2024-05-04T10:59:53.000Z</time><ele>1196.6</ele></trkpt><trkpt lat="45.858242" lon="9.198427"><time>2024-05-04T10:59:54.000Z</time><ele>1196.6</ele></trkpt><trkpt lat="45.858233" lon="9.198431"><time>2024-05-04T10:59:55.000Z</time><ele>1196.6</ele></trkpt><trkpt lat="45.85822" lon="9.198429"><time>2024-05-04T10:59:56.000Z</time><ele>1196.4</ele></trkpt><trkpt lat="45.858206" lon="9.198431"><time>2024-05-04T10:59:57.000Z</time><ele>1196.2</ele></trkpt><trkpt lat="45.858201" lon="9.198436"><time>2024-05-04T10:59:58.000Z</time><ele>1196</ele></trkpt><trkpt lat="45.858193" lon="9.198437"><time>2024-05-04T10:59:59.000Z</time><ele>1195.6</ele></trkpt><trkpt lat="45.858187" lon="9.198434"><time>2024-05-04T11:00:00.000Z</time><ele>1195.2</ele></trkpt><trkpt lat="45.858181" lon="9.198433"><time>2024-05-04T11:00:01.000Z</time><ele>1195</ele></trkpt><trkpt lat="45.858177" lon="9.198434"><time>2024-05-04T11:00:02.000Z</time><ele>1194.8</ele></trkpt><trkpt lat="45.858171" lon="9.198434"><time>2024-05-04T11:00:03.000Z</time><ele>1194.6</ele></trkpt><trkpt lat="45.858166" lon="9.198435"><time>2024-05-04T11:00:04.000Z</time><ele>1194.4</ele></trkpt><trkpt lat="45.858161" lon="9.198436"><time>2024-05-04T11:00:05.000Z</time><ele>1194.4</ele></trkpt><trkpt lat="45.858157" lon="9.198439"><time>2024-05-04T11:00:06.000Z</time><ele>1194.2</ele></trkpt><trkpt lat="45.858148" lon="9.198439"><time>2024-05-04T11:00:07.000Z</time><ele>1194</ele></trkpt><trkpt lat="45.858142" lon="9.19844"><time>2024-05-04T11:00:08.000Z</time><ele>1193.8</ele></trkpt><trkpt lat="45.858134" lon="9.198442"><time>2024-05-04T11:00:09.000Z</time><ele>1193.6</ele></trkpt><trkpt lat="45.858125" lon="9.198444"><time>2024-05-04T11:00:10.000Z</time><ele>1193.4</ele></trkpt><trkpt lat="45.858121" lon="9.198447"><time>2024-05-04T11:00:11.000Z</time><ele>1193.2</ele></trkpt><trkpt lat="45.858113" lon="9.198449"><time>2024-05-04T11:00:12.000Z</time><ele>1192.8</ele></trkpt><trkpt lat="45.858103" lon="9.19845"><time>2024-05-04T11:00:13.000Z</time><ele>1192.4</ele></trkpt><trkpt lat="45.858091" lon="9.198449"><time>2024-05-04T11:00:14.000Z</time><ele>1192.2</ele></trkpt><trkpt lat="45.858079" lon="9.198452"><time>2024-05-04T11:00:15.000Z</time><ele>1192</ele></trkpt><trkpt lat="45.858066" lon="9.198453"><time>2024-05-04T11:00:16.000Z</time><ele>1192</ele></trkpt><trkpt lat="45.858054" lon="9.198454"><time>2024-05-04T11:00:17.000Z</time><ele>1191.8</ele></trkpt><trkpt lat="45.858044" lon="9.198455"><time>2024-05-04T11:00:18.000Z</time><ele>1191.6</ele></trkpt><trkpt lat="45.858036" lon="9.198461"><time>2024-05-04T11:00:19.000Z</time><ele>1191.2</ele></trkpt><trkpt lat="45.858028" lon="9.198462"><time>2024-05-04T11:00:20.000Z</time><ele>1191</ele></trkpt><trkpt lat="45.858016" lon="9.198461"><time>2024-05-04T11:00:21.000Z</time><ele>1190.8</ele></trkpt><trkpt lat="45.858003" lon="9.198461"><time>2024-05-04T11:00:22.000Z</time><ele>1190.6</ele></trkpt><trkpt lat="45.857992" lon="9.198462"><time>2024-05-04T11:00:23.000Z</time><ele>1190.4</ele></trkpt><trkpt lat="45.85798" lon="9.198458"><time>2024-05-04T11:00:24.000Z</time><ele>1190.2</ele></trkpt><trkpt lat="45.857968" lon="9.198451"><time>2024-05-04T11:00:25.000Z</time><ele>1190</ele></trkpt><trkpt lat="45.857961" lon="9.198451"><time>2024-05-04T11:00:26.000Z</time><ele>1189.8</ele></trkpt><trkpt lat="45.857956" lon="9.198456"><time>2024-05-04T11:00:27.000Z</time><ele>1189.8</ele></trkpt><trkpt lat="45.857951" lon="9.198458"><time>2024-05-04T11:00:28.000Z</time><ele>1189.6</ele></trkpt><trkpt lat="45.857946" lon="9.198456"><time>2024-05-04T11:00:29.000Z</time><ele>1189.6</ele></trkpt><trkpt lat="45.857935" lon="9.198452"><time>2024-05-04T11:00:30.000Z</time><ele>1189.4</ele></trkpt><trkpt lat="45.857926" lon="9.198451"><time>2024-05-04T11:00:31.000Z</time><ele>1189.4</ele></trkpt><trkpt lat="45.857915" lon="9.198452"><time>2024-05-04T11:00:32.000Z</time><ele>1189.2</ele></trkpt><trkpt lat="45.857907" lon="9.198458"><time>2024-05-04T11:00:33.000Z</time><ele>1189</ele></trkpt><trkpt lat="45.857901" lon="9.198462"><time>2024-05-04T11:00:34.000Z</time><ele>1188.8</ele></trkpt><trkpt lat="45.85789" lon="9.198462"><time>2024-05-04T11:00:35.000Z</time><ele>1188.8</ele></trkpt><trkpt lat="45.857884" lon="9.198461"><time>2024-05-04T11:00:36.000Z</time><ele>1188.6</ele></trkpt><trkpt lat="45.857881" lon="9.198465"><time>2024-05-04T11:00:37.000Z</time><ele>1188.4</ele></trkpt><trkpt lat="45.857873" lon="9.198467"><time>2024-05-04T11:00:38.000Z</time><ele>1188</ele></trkpt><trkpt lat="45.85786" lon="9.198467"><time>2024-05-04T11:00:39.000Z</time><ele>1187.8</ele></trkpt><trkpt lat="45.857849" lon="9.19847"><time>2024-05-04T11:00:40.000Z</time><ele>1187.6</ele></trkpt><trkpt lat="45.857837" lon="9.198469"><time>2024-05-04T11:00:41.000Z</time><ele>1187.6</ele></trkpt><trkpt lat="45.857828" lon="9.198472"><time>2024-05-04T11:00:42.000Z</time><ele>1187.4</ele></trkpt><trkpt lat="45.857812" lon="9.19847"><time>2024-05-04T11:00:43.000Z</time><ele>1187.2</ele></trkpt><trkpt lat="45.857799" lon="9.198464"><time>2024-05-04T11:00:44.000Z</time><ele>1187</ele></trkpt><trkpt lat="45.857784" lon="9.198461"><time>2024-05-04T11:00:45.000Z</time><ele>1187</ele></trkpt><trkpt lat="45.857772" lon="9.198459"><time>2024-05-04T11:00:46.000Z</time><ele>1187</ele></trkpt><trkpt lat="45.857759" lon="9.198455"><time>2024-05-04T11:00:47.000Z</time><ele>1186.8</ele></trkpt><trkpt lat="45.857747" lon="9.198449"><time>2024-05-04T11:00:48.000Z</time><ele>1186.8</ele></trkpt><trkpt lat="45.857733" lon="9.198444"><time>2024-05-04T11:00:49.000Z</time><ele>1186.6</ele></trkpt><trkpt lat="45.85772" lon="9.198443"><time>2024-05-04T11:00:50.000Z</time><ele>1186.6</ele></trkpt><trkpt lat="45.857708" lon="9.198442"><time>2024-05-04T11:00:51.000Z</time><ele>1186.4</ele></trkpt><trkpt lat="45.857691" lon="9.198434"><time>2024-05-04T11:00:52.000Z</time><ele>1186.4</ele></trkpt><trkpt lat="45.857679" lon="9.198425"><time>2024-05-04T11:00:53.000Z</time><ele>1186.2</ele></trkpt><trkpt lat="45.857667" lon="9.198418"><time>2024-05-04T11:00:54.000Z</time><ele>1186.2</ele></trkpt><trkpt lat="45.85766" lon="9.198417"><time>2024-05-04T11:00:55.000Z</time><ele>1186</ele></trkpt><trkpt lat="45.857651" lon="9.19842"><time>2024-05-04T11:00:56.000Z</time><ele>1185.8</ele></trkpt><trkpt lat="45.857642" lon="9.19842"><time>2024-05-04T11:00:57.000Z</time><ele>1185.6</ele></trkpt><trkpt lat="45.857633" lon="9.198417"><time>2024-05-04T11:00:58.000Z</time><ele>1185.6</ele></trkpt><trkpt lat="45.857621" lon="9.198417"><time>2024-05-04T11:00:59.000Z</time><ele>1185.4</ele></trkpt><trkpt lat="45.857611" lon="9.198418"><time>2024-05-04T11:01:00.000Z</time><ele>1185.4</ele></trkpt><trkpt lat="45.857603" lon="9.19842"><time>2024-05-04T11:01:01.000Z</time><ele>1185.4</ele></trkpt><trkpt lat="45.857594" lon="9.198421"><time>2024-05-04T11:01:02.000Z</time><ele>1185.4</ele></trkpt><trkpt lat="45.857583" lon="9.198414"><time>2024-05-04T11:01:03.000Z</time><ele>1185.2</ele></trkpt><trkpt lat="45.85757" lon="9.1984"><time>2024-05-04T11:01:04.000Z</time><ele>1185</ele></trkpt><trkpt lat="45.857556" lon="9.198394"><time>2024-05-04T11:01:05.000Z</time><ele>1184.8</ele></trkpt><trkpt lat="45.857546" lon="9.198395"><time>2024-05-04T11:01:06.000Z</time><ele>1184.6</ele></trkpt><trkpt lat="45.857537" lon="9.198399"><time>2024-05-04T11:01:07.000Z</time><ele>1184.4</ele></trkpt><trkpt lat="45.857527" lon="9.198396"><time>2024-05-04T11:01:08.000Z</time><ele>1184.2</ele></trkpt><trkpt lat="45.85752" lon="9.198395"><time>2024-05-04T11:01:09.000Z</time><ele>1184</ele></trkpt><trkpt lat="45.85751" lon="9.198395"><time>2024-05-04T11:01:10.000Z</time><ele>1183.8</ele></trkpt><trkpt lat="45.857496" lon="9.198396"><time>2024-05-04T11:01:11.000Z</time><ele>1183.6</ele></trkpt><trkpt lat="45.857483" lon="9.198394"><time>2024-05-04T11:01:12.000Z</time><ele>1183.4</ele></trkpt><trkpt lat="45.85747" lon="9.198391"><time>2024-05-04T11:01:13.000Z</time><ele>1183.2</ele></trkpt><trkpt lat="45.857457" lon="9.198388"><time>2024-05-04T11:01:14.000Z</time><ele>1182.8</ele></trkpt><trkpt lat="45.857449" lon="9.198391"><time>2024-05-04T11:01:15.000Z</time><ele>1182.4</ele></trkpt><trkpt lat="45.857437" lon="9.198391"><time>2024-05-04T11:01:16.000Z</time><ele>1182.4</ele></trkpt><trkpt lat="45.857423" lon="9.198387"><time>2024-05-04T11:01:17.000Z</time><ele>1182.2</ele></trkpt><trkpt lat="45.857415" lon="9.198386"><time>2024-05-04T11:01:18.000Z</time><ele>1182</ele></trkpt><trkpt lat="45.857406" lon="9.198382"><time>2024-05-04T11:01:19.000Z</time><ele>1181.8</ele></trkpt><trkpt lat="45.857402" lon="9.198381"><time>2024-05-04T11:01:20.000Z</time><ele>1181.6</ele></trkpt><trkpt lat="45.857391" lon="9.198376"><time>2024-05-04T11:01:21.000Z</time><ele>1181.4</ele></trkpt><trkpt lat="45.857379" lon="9.198374"><time>2024-05-04T11:01:22.000Z</time><ele>1181.4</ele></trkpt><trkpt lat="45.857365" lon="9.198372"><time>2024-05-04T11:01:23.000Z</time><ele>1181.2</ele></trkpt><trkpt lat="45.857355" lon="9.19837"><time>2024-05-04T11:01:24.000Z</time><ele>1181</ele></trkpt><trkpt lat="45.857348" lon="9.198369"><time>2024-05-04T11:01:25.000Z</time><ele>1180.6</ele></trkpt><trkpt lat="45.857343" lon="9.198373"><time>2024-05-04T11:01:26.000Z</time><ele>1180.4</ele></trkpt><trkpt lat="45.857339" lon="9.198377"><time>2024-05-04T11:01:27.000Z</time><ele>1180.4</ele></trkpt><trkpt lat="45.857334" lon="9.198378"><time>2024-05-04T11:01:28.000Z</time><ele>1180.2</ele></trkpt><trkpt lat="45.857327" lon="9.198378"><time>2024-05-04T11:01:29.000Z</time><ele>1180</ele></trkpt><trkpt lat="45.857318" lon="9.198375"><time>2024-05-04T11:01:30.000Z</time><ele>1179.8</ele></trkpt><trkpt lat="45.857305" lon="9.198367"><time>2024-05-04T11:01:31.000Z</time><ele>1179.6</ele></trkpt><trkpt lat="45.857291" lon="9.198354"><time>2024-05-04T11:01:32.000Z</time><ele>1179.4</ele></trkpt><trkpt lat="45.857284" lon="9.19835"><time>2024-05-04T11:01:33.000Z</time><ele>1179.2</ele></trkpt><trkpt lat="45.857277" lon="9.198349"><time>2024-05-04T11:01:34.000Z</time><ele>1179.2</ele></trkpt><trkpt lat="45.85727" lon="9.198353"><time>2024-05-04T11:01:35.000Z</time><ele>1179.2</ele></trkpt><trkpt lat="45.857263" lon="9.198351"><time>2024-05-04T11:01:36.000Z</time><ele>1179.2</ele></trkpt><trkpt lat="45.857258" lon="9.198352"><time>2024-05-04T11:01:37.000Z</time><ele>1179.2</ele></trkpt><trkpt lat="45.85725" lon="9.198352"><time>2024-05-04T11:01:38.000Z</time><ele>1179</ele></trkpt><trkpt lat="45.857241" lon="9.198347"><time>2024-05-04T11:01:39.000Z</time><ele>1179</ele></trkpt><trkpt lat="45.857236" lon="9.198344"><time>2024-05-04T11:01:40.000Z</time><ele>1178.8</ele></trkpt><trkpt lat="45.857228" lon="9.19834"><time>2024-05-04T11:01:41.000Z</time><ele>1178.6</ele></trkpt><trkpt lat="45.857218" lon="9.198333"><time>2024-05-04T11:01:42.000Z</time><ele>1178.4</ele></trkpt><trkpt lat="45.857217" lon="9.198334"><time>2024-05-04T11:01:43.000Z</time><ele>1178.2</ele></trkpt><trkpt lat="45.85721" lon="9.198332"><time>2024-05-04T11:01:44.000Z</time><ele>1178.2</ele></trkpt><trkpt lat="45.857202" lon="9.198328"><time>2024-05-04T11:01:45.000Z</time><ele>1178</ele></trkpt><trkpt lat="45.857192" lon="9.198321"><time>2024-05-04T11:01:46.000Z</time><ele>1177.8</ele></trkpt><trkpt lat="45.857183" lon="9.19831"><time>2024-05-04T11:01:47.000Z</time><ele>1177.6</ele></trkpt><trkpt lat="45.857175" lon="9.198299"><time>2024-05-04T11:01:48.000Z</time><ele>1177.6</ele></trkpt><trkpt lat="45.857168" lon="9.198289"><time>2024-05-04T11:01:49.000Z</time><ele>1177.4</ele></trkpt><trkpt lat="45.857162" lon="9.198281"><time>2024-05-04T11:01:50.000Z</time><ele>1177.2</ele></trkpt><trkpt lat="45.85716" lon="9.198281"><time>2024-05-04T11:01:51.000Z</time><ele>1177</ele></trkpt><trkpt lat="45.857152" lon="9.198272"><time>2024-05-04T11:01:52.000Z</time><ele>1177</ele></trkpt><trkpt lat="45.857143" lon="9.198257"><time>2024-05-04T11:01:53.000Z</time><ele>1176.8</ele></trkpt><trkpt lat="45.857139" lon="9.198245"><time>2024-05-04T11:01:54.000Z</time><ele>1176.4</ele></trkpt><trkpt lat="45.857136" lon="9.198235"><time>2024-05-04T11:01:55.000Z</time><ele>1176.4</ele></trkpt><trkpt lat="45.857134" lon="9.198226"><time>2024-05-04T11:01:56.000Z</time><ele>1176.2</ele></trkpt><trkpt lat="45.857131" lon="9.198219"><time>2024-05-04T11:01:57.000Z</time><ele>1176.2</ele></trkpt><trkpt lat="45.857127" lon="9.198211"><time>2024-05-04T11:01:58.000Z</time><ele>1176</ele></trkpt><trkpt lat="45.857123" lon="9.198204"><time>2024-05-04T11:01:59.000Z</time><ele>1175.8</ele></trkpt><trkpt lat="45.857124" lon="9.198195"><time>2024-05-04T11:02:00.000Z</time><ele>1175.8</ele></trkpt><trkpt lat="45.857123" lon="9.198187"><time>2024-05-04T11:02:01.000Z</time><ele>1175.6</ele></trkpt><trkpt lat="45.857112" lon="9.198185"><time>2024-05-04T11:02:02.000Z</time><ele>1175.6</ele></trkpt><trkpt lat="45.857102" lon="9.198177"><time>2024-05-04T11:02:03.000Z</time><ele>1175.4</ele></trkpt><trkpt lat="45.857091" lon="9.198167"><time>2024-05-04T11:02:04.000Z</time><ele>1175.2</ele></trkpt><trkpt lat="45.857089" lon="9.198157"><time>2024-05-04T11:02:05.000Z</time><ele>1175.2</ele></trkpt><trkpt lat="45.857085" lon="9.198148"><time>2024-05-04T11:02:06.000Z</time><ele>1175.2</ele></trkpt><trkpt lat="45.857079" lon="9.198137"><time>2024-05-04T11:02:07.000Z</time><ele>1175</ele></trkpt><trkpt lat="45.857078" lon="9.19813"><time>2024-05-04T11:02:08.000Z</time><ele>1175</ele></trkpt><trkpt lat="45.857077" lon="9.198124"><time>2024-05-04T11:02:09.000Z</time><ele>1175</ele></trkpt><trkpt lat="45.857073" lon="9.198114"><time>2024-05-04T11:02:10.000Z</time><ele>1174.8</ele></trkpt><trkpt lat="45.857065" lon="9.198096"><time>2024-05-04T11:02:11.000Z</time><ele>1174.8</ele></trkpt><trkpt lat="45.857057" lon="9.198083"><time>2024-05-04T11:02:12.000Z</time><ele>1174.8</ele></trkpt><trkpt lat="45.857051" lon="9.198067"><time>2024-05-04T11:02:13.000Z</time><ele>1174.8</ele></trkpt><trkpt lat="45.857042" lon="9.19805"><time>2024-05-04T11:02:14.000Z</time><ele>1174.6</ele></trkpt><trkpt lat="45.857034" lon="9.19803"><time>2024-05-04T11:02:15.000Z</time><ele>1174.6</ele></trkpt><trkpt lat="45.857025" lon="9.198011"><time>2024-05-04T11:02:16.000Z</time><ele>1174.6</ele></trkpt><trkpt lat="45.857019" lon="9.197989"><time>2024-05-04T11:02:17.000Z</time><ele>1174.6</ele></trkpt><trkpt lat="45.857014" lon="9.197967"><time>2024-05-04T11:02:18.000Z</time><ele>1174.4</ele></trkpt><trkpt lat="45.857009" lon="9.197942"><time>2024-05-04T11:02:19.000Z</time><ele>1174.2</ele></trkpt><trkpt lat="45.856997" lon="9.197923"><time>2024-05-04T11:02:20.000Z</time><ele>1174.2</ele></trkpt><trkpt lat="45.856995" lon="9.197917"><time>2024-05-04T11:02:21.000Z</time><ele>1174.2</ele></trkpt><trkpt lat="45.856984" lon="9.197899"><time>2024-05-04T11:02:22.000Z</time><ele>1174</ele></trkpt><trkpt lat="45.856974" lon="9.197878"><time>2024-05-04T11:02:23.000Z</time><ele>1173.6</ele></trkpt><trkpt lat="45.856965" lon="9.197859"><time>2024-05-04T11:02:24.000Z</time><ele>1173.4</ele></trkpt><trkpt lat="45.85696" lon="9.197838"><time>2024-05-04T11:02:25.000Z</time><ele>1173</ele></trkpt><trkpt lat="45.856958" lon="9.19782"><time>2024-05-04T11:02:26.000Z</time><ele>1173</ele></trkpt><trkpt lat="45.856957" lon="9.197815"><time>2024-05-04T11:02:27.000Z</time><ele>1172.8</ele></trkpt><trkpt lat="45.856958" lon="9.197812"><time>2024-05-04T11:02:28.000Z</time><ele>1172.8</ele></trkpt><trkpt lat="45.85696" lon="9.197811"><time>2024-05-04T11:02:29.000Z</time><ele>1172.6</ele></trkpt><trkpt lat="45.856961" lon="9.197809"><time>2024-05-04T11:02:30.000Z</time><ele>1172.6</ele></trkpt><trkpt lat="45.856963" lon="9.197811"><time>2024-05-04T11:02:31.000Z</time><ele>1172.6</ele></trkpt><trkpt lat="45.856964" lon="9.197811"><time>2024-05-04T11:02:32.000Z</time><ele>1172.6</ele></trkpt><trkpt lat="45.856962" lon="9.197809"><time>2024-05-04T11:02:33.000Z</time><ele>1172.6</ele></trkpt><trkpt lat="45.856957" lon="9.197806"><time>2024-05-04T11:02:34.000Z</time><ele>1172.6</ele></trkpt><trkpt lat="45.856949" lon="9.197802"><time>2024-05-04T11:02:35.000Z</time><ele>1172.6</ele></trkpt><trkpt lat="45.85694" lon="9.197799"><time>2024-05-04T11:02:36.000Z</time><ele>1172.6</ele></trkpt><trkpt lat="45.85693" lon="9.197793"><time>2024-05-04T11:02:37.000Z</time><ele>1172.6</ele></trkpt><trkpt lat="45.856927" lon="9.197793"><time>2024-05-04T11:02:38.000Z</time><ele>1172.6</ele></trkpt><trkpt lat="45.856918" lon="9.197786"><time>2024-05-04T11:02:39.000Z</time><ele>1172.4</ele></trkpt><trkpt lat="45.85691" lon="9.197777"><time>2024-05-04T11:02:40.000Z</time><ele>1172.4</ele></trkpt><trkpt lat="45.856905" lon="9.197763"><time>2024-05-04T11:02:41.000Z</time><ele>1172.4</ele></trkpt><trkpt lat="45.856901" lon="9.197759"><time>2024-05-04T11:02:42.000Z</time><ele>1172.4</ele></trkpt><trkpt lat="45.856888" lon="9.197749"><time>2024-05-04T11:02:43.000Z</time><ele>1172.4</ele></trkpt><trkpt lat="45.856874" lon="9.197743"><time>2024-05-04T11:02:44.000Z</time><ele>1172.4</ele></trkpt><trkpt lat="45.856863" lon="9.197735"><time>2024-05-04T11:02:45.000Z</time><ele>1172.2</ele></trkpt><trkpt lat="45.856852" lon="9.197731"><time>2024-05-04T11:02:46.000Z</time><ele>1172.2</ele></trkpt><trkpt lat="45.856845" lon="9.19772"><time>2024-05-04T11:02:47.000Z</time><ele>1172</ele></trkpt><trkpt lat="45.85684" lon="9.197708"><time>2024-05-04T11:02:48.000Z</time><ele>1171.8</ele></trkpt><trkpt lat="45.856832" lon="9.197693"><time>2024-05-04T11:02:49.000Z</time><ele>1171.8</ele></trkpt><trkpt lat="45.856827" lon="9.197684"><time>2024-05-04T11:02:50.000Z</time><ele>1171.6</ele></trkpt><trkpt lat="45.856823" lon="9.197671"><time>2024-05-04T11:02:51.000Z</time><ele>1171.6</ele></trkpt><trkpt lat="45.856821" lon="9.197666"><time>2024-05-04T11:02:52.000Z</time><ele>1171.6</ele></trkpt><trkpt lat="45.856812" lon="9.197649"><time>2024-05-04T11:02:53.000Z</time><ele>1171.6</ele></trkpt><trkpt lat="45.856799" lon="9.197631"><time>2024-05-04T11:02:54.000Z</time><ele>1171.6</ele></trkpt><trkpt lat="45.856794" lon="9.197617"><time>2024-05-04T11:02:55.000Z</time><ele>1171.6</ele></trkpt><trkpt lat="45.856781" lon="9.197595"><time>2024-05-04T11:02:56.000Z</time><ele>1171.6</ele></trkpt><trkpt lat="45.85677" lon="9.197581"><time>2024-05-04T11:02:57.000Z</time><ele>1171.6</ele></trkpt><trkpt lat="45.856763" lon="9.197565"><time>2024-05-04T11:02:58.000Z</time><ele>1171.4</ele></trkpt><trkpt lat="45.856761" lon="9.197552"><time>2024-05-04T11:02:59.000Z</time><ele>1171.4</ele></trkpt><trkpt lat="45.856758" lon="9.197543"><time>2024-05-04T11:03:00.000Z</time><ele>1171.2</ele></trkpt><trkpt lat="45.856761" lon="9.197541"><time>2024-05-04T11:03:01.000Z</time><ele>1171.2</ele></trkpt><trkpt lat="45.856757" lon="9.197534"><time>2024-05-04T11:03:02.000Z</time><ele>1171.2</ele></trkpt><trkpt lat="45.856755" lon="9.19753"><time>2024-05-04T11:03:03.000Z</time><ele>1171.2</ele></trkpt><trkpt lat="45.856757" lon="9.197524"><time>2024-05-04T11:03:04.000Z</time><ele>1171.2</ele></trkpt><trkpt lat="45.856752" lon="9.197523"><time>2024-05-04T11:03:05.000Z</time><ele>1171.2</ele></trkpt><trkpt lat="45.856744" lon="9.197514"><time>2024-05-04T11:03:06.000Z</time><ele>1171.2</ele></trkpt><trkpt lat="45.856743" lon="9.197504"><time>2024-05-04T11:03:07.000Z</time><ele>1171.2</ele></trkpt><trkpt lat="45.856744" lon="9.197498"><time>2024-05-04T11:03:08.000Z</time><ele>1171</ele></trkpt><trkpt lat="45.856742" lon="9.197493"><time>2024-05-04T11:03:09.000Z</time><ele>1171</ele></trkpt><trkpt lat="45.856743" lon="9.197486"><time>2024-05-04T11:03:10.000Z</time><ele>1171</ele></trkpt><trkpt lat="45.856739" lon="9.197473"><time>2024-05-04T11:03:11.000Z</time><ele>1171</ele></trkpt><trkpt lat="45.85673" lon="9.197448"><time>2024-05-04T11:03:12.000Z</time><ele>1171.2</ele></trkpt><trkpt lat="45.856729" lon="9.197435"><time>2024-05-04T11:03:13.000Z</time><ele>1171.2</ele></trkpt><trkpt lat="45.856719" lon="9.197421"><time>2024-05-04T11:03:14.000Z</time><ele>1171.2</ele></trkpt><trkpt lat="45.856715" lon="9.197412"><time>2024-05-04T11:03:15.000Z</time><ele>1171.2</ele></trkpt><trkpt lat="45.85671" lon="9.197401"><time>2024-05-04T11:03:16.000Z</time><ele>1171.2</ele></trkpt><trkpt lat="45.856709" lon="9.19739"><time>2024-05-04T11:03:17.000Z</time><ele>1171.4</ele></trkpt><trkpt lat="45.856711" lon="9.197384"><time>2024-05-04T11:03:18.000Z</time><ele>1171.4</ele></trkpt><trkpt lat="45.85671" lon="9.197373"><time>2024-05-04T11:03:19.000Z</time><ele>1171.6</ele></trkpt><trkpt lat="45.856709" lon="9.19737"><time>2024-05-04T11:03:20.000Z</time><ele>1171.6</ele></trkpt><trkpt lat="45.856709" lon="9.197371"><time>2024-05-04T11:03:21.000Z</time><ele>1171.6</ele></trkpt><trkpt lat="45.856707" lon="9.197373"><time>2024-05-04T11:03:22.000Z</time><ele>1171.6</ele></trkpt><trkpt lat="45.856708" lon="9.197376"><time>2024-05-04T11:03:23.000Z</time><ele>1171.6</ele></trkpt><trkpt lat="45.856708" lon="9.197376"><time>2024-05-04T11:03:24.000Z</time><ele>1171.6</ele></trkpt><trkpt lat="45.856708" lon="9.197377"><time>2024-05-04T11:03:25.000Z</time><ele>1171.6</ele></trkpt><trkpt lat="45.856708" lon="9.197377"><time>2024-05-04T11:03:26.000Z</time><ele>1171.6</ele></trkpt><trkpt lat="45.856708" lon="9.197381"><time>2024-05-04T11:03:27.000Z</time><ele>1171.6</ele></trkpt><trkpt lat="45.856707" lon="9.197384"><time>2024-05-04T11:03:28.000Z</time><ele>1171.6</ele></trkpt><trkpt lat="45.856705" lon="9.197385"><time>2024-05-04T11:03:29.000Z</time><ele>1171.6</ele></trkpt><trkpt lat="45.856706" lon="9.197387"><time>2024-05-04T11:03:30.000Z</time><ele>1171.6</ele></trkpt><trkpt lat="45.856706" lon="9.197386"><time>2024-05-04T11:03:31.000Z</time><ele>1171.8</ele></trkpt><trkpt lat="45.856704" lon="9.197383"><time>2024-05-04T11:03:32.000Z</time><ele>1171.8</ele></trkpt><trkpt lat="45.856705" lon="9.197374"><time>2024-05-04T11:03:33.000Z</time><ele>1172</ele></trkpt><trkpt lat="45.856701" lon="9.197371"><time>2024-05-04T11:03:34.000Z</time><ele>1172</ele></trkpt><trkpt lat="45.856703" lon="9.197371"><time>2024-05-04T11:03:35.000Z</time><ele>1172</ele></trkpt><trkpt lat="45.856697" lon="9.197356"><time>2024-05-04T11:03:36.000Z</time><ele>1172</ele></trkpt><trkpt lat="45.856691" lon="9.19734"><time>2024-05-04T11:03:37.000Z</time><ele>1172</ele></trkpt><trkpt lat="45.856689" lon="9.197334"><time>2024-05-04T11:03:38.000Z</time><ele>1172</ele></trkpt><trkpt lat="45.85668" lon="9.197317"><time>2024-05-04T11:03:39.000Z</time><ele>1172.2</ele></trkpt><trkpt lat="45.856676" lon="9.197313"><time>2024-05-04T11:03:40.000Z</time><ele>1172.6</ele></trkpt><trkpt lat="45.856675" lon="9.197312"><time>2024-05-04T11:03:41.000Z</time><ele>1172.6</ele></trkpt><trkpt lat="45.856673" lon="9.19731"><time>2024-05-04T11:03:42.000Z</time><ele>1172.8</ele></trkpt><trkpt lat="45.856659" lon="9.197293"><time>2024-05-04T11:03:43.000Z</time><ele>1173</ele></trkpt><trkpt lat="45.856651" lon="9.197274"><time>2024-05-04T11:03:44.000Z</time><ele>1173</ele></trkpt><trkpt lat="45.856652" lon="9.197275"><time>2024-05-04T11:03:45.000Z</time><ele>1173.2</ele></trkpt><trkpt lat="45.856653" lon="9.197266"><time>2024-05-04T11:03:46.000Z</time><ele>1173.4</ele></trkpt><trkpt lat="45.856649" lon="9.197255"><time>2024-05-04T11:03:47.000Z</time><ele>1173.4</ele></trkpt><trkpt lat="45.856641" lon="9.197245"><time>2024-05-04T11:03:48.000Z</time><ele>1173.6</ele></trkpt><trkpt lat="45.856628" lon="9.197228"><time>2024-05-04T11:03:49.000Z</time><ele>1173.6</ele></trkpt><trkpt lat="45.856622" lon="9.197213"><time>2024-05-04T11:03:50.000Z</time><ele>1173.8</ele></trkpt><trkpt lat="45.856623" lon="9.197212"><time>2024-05-04T11:03:51.000Z</time><ele>1173.8</ele></trkpt><trkpt lat="45.856622" lon="9.19721"><time>2024-05-04T11:03:52.000Z</time><ele>1174</ele></trkpt><trkpt lat="45.856615" lon="9.1972"><time>2024-05-04T11:03:53.000Z</time><ele>1174</ele></trkpt><trkpt lat="45.856607" lon="9.197182"><time>2024-05-04T11:03:54.000Z</time><ele>1174.4</ele></trkpt><trkpt lat="45.856598" lon="9.197163"><time>2024-05-04T11:03:55.000Z</time><ele>1174.6</ele></trkpt><trkpt lat="45.856588" lon="9.197142"><time>2024-05-04T11:03:56.000Z</time><ele>1174.8</ele></trkpt><trkpt lat="45.856581" lon="9.197125"><time>2024-05-04T11:03:57.000Z</time><ele>1174.8</ele></trkpt><trkpt lat="45.856572" lon="9.197109"><time>2024-05-04T11:03:58.000Z</time><ele>1175</ele></trkpt><trkpt lat="45.856563" lon="9.197096"><time>2024-05-04T11:03:59.000Z</time><ele>1175</ele></trkpt><trkpt lat="45.856556" lon="9.197083"><time>2024-05-04T11:04:00.000Z</time><ele>1175.2</ele></trkpt><trkpt lat="45.856549" lon="9.197073"><time>2024-05-04T11:04:01.000Z</time><ele>1175.2</ele></trkpt><trkpt lat="45.856542" lon="9.197062"><time>2024-05-04T11:04:02.000Z</time><ele>1175.2</ele></trkpt><trkpt lat="45.856535" lon="9.197052"><time>2024-05-04T11:04:03.000Z</time><ele>1175.4</ele></trkpt><trkpt lat="45.856524" lon="9.197043"><time>2024-05-04T11:04:04.000Z</time><ele>1175.6</ele></trkpt><trkpt lat="45.856523" lon="9.19704"><time>2024-05-04T11:04:05.000Z</time><ele>1175.8</ele></trkpt><trkpt lat="45.856515" lon="9.197034"><time>2024-05-04T11:04:06.000Z</time><ele>1175.8</ele></trkpt><trkpt lat="45.856504" lon="9.197027"><time>2024-05-04T11:04:07.000Z</time><ele>1175.8</ele></trkpt><trkpt lat="45.856503" lon="9.197021"><time>2024-05-04T11:04:08.000Z</time><ele>1176</ele></trkpt><trkpt lat="45.856499" lon="9.197003"><time>2024-05-04T11:04:09.000Z</time><ele>1176.2</ele></trkpt><trkpt lat="45.856492" lon="9.196987"><time>2024-05-04T11:04:10.000Z</time><ele>1176.4</ele></trkpt><trkpt lat="45.856489" lon="9.196967"><time>2024-05-04T11:04:11.000Z</time><ele>1176.4</ele></trkpt><trkpt lat="45.856483" lon="9.196957"><time>2024-05-04T11:04:12.000Z</time><ele>1176.4</ele></trkpt><trkpt lat="45.856477" lon="9.196947"><time>2024-05-04T11:04:13.000Z</time><ele>1176.6</ele></trkpt><trkpt lat="45.856468" lon="9.196937"><time>2024-05-04T11:04:14.000Z</time><ele>1176.6</ele></trkpt><trkpt lat="45.856458" lon="9.196925"><time>2024-05-04T11:04:15.000Z</time><ele>1176.8</ele></trkpt><trkpt lat="45.856446" lon="9.196908"><time>2024-05-04T11:04:16.000Z</time><ele>1176.8</ele></trkpt><trkpt lat="45.856433" lon="9.196895"><time>2024-05-04T11:04:17.000Z</time><ele>1176.8</ele></trkpt><trkpt lat="45.856431" lon="9.196891"><time>2024-05-04T11:04:18.000Z</time><ele>1177</ele></trkpt><trkpt lat="45.856428" lon="9.196885"><time>2024-05-04T11:04:19.000Z</time><ele>1177</ele></trkpt><trkpt lat="45.856427" lon="9.196882"><time>2024-05-04T11:04:20.000Z</time><ele>1177</ele></trkpt><trkpt lat="45.856429" lon="9.19688"><time>2024-05-04T11:04:21.000Z</time><ele>1177</ele></trkpt><trkpt lat="45.85642" lon="9.196854"><time>2024-05-04T11:04:22.000Z</time><ele>1177</ele></trkpt><trkpt lat="45.856422" lon="9.196849"><time>2024-05-04T11:04:23.000Z</time><ele>1177.2</ele></trkpt><trkpt lat="45.856424" lon="9.196806"><time>2024-05-04T11:04:24.000Z</time><ele>1177.2</ele></trkpt><trkpt lat="45.856422" lon="9.196799"><time>2024-05-04T11:04:25.000Z</time><ele>1177.2</ele></trkpt><trkpt lat="45.856411" lon="9.196777"><time>2024-05-04T11:04:26.000Z</time><ele>1177.2</ele></trkpt><trkpt lat="45.856398" lon="9.196763"><time>2024-05-04T11:04:27.000Z</time><ele>1177.2</ele></trkpt><trkpt lat="45.856384" lon="9.19675"><time>2024-05-04T11:04:28.000Z</time><ele>1177.2</ele></trkpt><trkpt lat="45.856375" lon="9.196744"><time>2024-05-04T11:04:29.000Z</time><ele>1177.4</ele></trkpt><trkpt lat="45.856351" lon="9.196723"><time>2024-05-04T11:04:30.000Z</time><ele>1177.6</ele></trkpt><trkpt lat="45.856334" lon="9.196707"><time>2024-05-04T11:04:31.000Z</time><ele>1177.6</ele></trkpt><trkpt lat="45.856333" lon="9.196694"><time>2024-05-04T11:04:32.000Z</time><ele>1178</ele></trkpt><trkpt lat="45.856338" lon="9.196689"><time>2024-05-04T11:04:33.000Z</time><ele>1178</ele></trkpt><trkpt lat="45.856339" lon="9.196683"><time>2024-05-04T11:04:34.000Z</time><ele>1178.2</ele></trkpt><trkpt lat="45.856338" lon="9.196677"><time>2024-05-04T11:04:35.000Z</time><ele>1178.2</ele></trkpt><trkpt lat="45.856341" lon="9.196673"><time>2024-05-04T11:04:36.000Z</time><ele>1178.4</ele></trkpt><trkpt lat="45.856341" lon="9.196668"><time>2024-05-04T11:04:37.000Z</time><ele>1178.4</ele></trkpt><trkpt lat="45.856342" lon="9.196668"><time>2024-05-04T11:04:38.000Z</time><ele>1178.4</ele></trkpt><trkpt lat="45.856343" lon="9.196671"><time>2024-05-04T11:04:39.000Z</time><ele>1178.2</ele></trkpt><trkpt lat="45.856342" lon="9.196668"><time>2024-05-04T11:04:40.000Z</time><ele>1178.4</ele></trkpt><trkpt lat="45.856341" lon="9.196665"><time>2024-05-04T11:04:41.000Z</time><ele>1178.4</ele></trkpt><trkpt lat="45.856344" lon="9.196666"><time>2024-05-04T11:04:42.000Z</time><ele>1178.4</ele></trkpt><trkpt lat="45.856342" lon="9.196666"><time>2024-05-04T11:04:43.000Z</time><ele>1178.6</ele></trkpt><trkpt lat="45.85634" lon="9.196666"><time>2024-05-04T11:04:44.000Z</time><ele>1178.6</ele></trkpt><trkpt lat="45.856342" lon="9.196663"><time>2024-05-04T11:04:45.000Z</time><ele>1178.8</ele></trkpt><trkpt lat="45.85634" lon="9.196645"><time>2024-05-04T11:04:46.000Z</time><ele>1178.8</ele></trkpt><trkpt lat="45.856333" lon="9.196628"><time>2024-05-04T11:04:47.000Z</time><ele>1178.8</ele></trkpt><trkpt lat="45.856334" lon="9.196617"><time>2024-05-04T11:04:48.000Z</time><ele>1178.8</ele></trkpt><trkpt lat="45.856333" lon="9.196605"><time>2024-05-04T11:04:49.000Z</time><ele>1179</ele></trkpt><trkpt lat="45.856328" lon="9.196586"><time>2024-05-04T11:04:50.000Z</time><ele>1179</ele></trkpt><trkpt lat="45.856322" lon="9.196571"><time>2024-05-04T11:04:51.000Z</time><ele>1179</ele></trkpt><trkpt lat="45.856321" lon="9.196567"><time>2024-05-04T11:04:52.000Z</time><ele>1179.2</ele></trkpt><trkpt lat="45.856313" lon="9.196549"><time>2024-05-04T11:04:53.000Z</time><ele>1179.2</ele></trkpt><trkpt lat="45.856309" lon="9.196541"><time>2024-05-04T11:04:54.000Z</time><ele>1179.4</ele></trkpt><trkpt lat="45.856304" lon="9.196533"><time>2024-05-04T11:04:55.000Z</time><ele>1179.6</ele></trkpt><trkpt lat="45.856304" lon="9.196534"><time>2024-05-04T11:04:56.000Z</time><ele>1179.8</ele></trkpt><trkpt lat="45.8563" lon="9.196525"><time>2024-05-04T11:04:57.000Z</time><ele>1179.8</ele></trkpt><trkpt lat="45.856293" lon="9.196508"><time>2024-05-04T11:04:58.000Z</time><ele>1179.8</ele></trkpt><trkpt lat="45.856287" lon="9.196485"><time>2024-05-04T11:04:59.000Z</time><ele>1180</ele></trkpt><trkpt lat="45.856284" lon="9.196463"><time>2024-05-04T11:05:00.000Z</time><ele>1180</ele></trkpt><trkpt lat="45.856282" lon="9.196441"><time>2024-05-04T11:05:01.000Z</time><ele>1180</ele></trkpt><trkpt lat="45.856276" lon="9.196422"><time>2024-05-04T11:05:02.000Z</time><ele>1180</ele></trkpt><trkpt lat="45.856279" lon="9.196416"><time>2024-05-04T11:05:03.000Z</time><ele>1180</ele></trkpt><trkpt lat="45.856276" lon="9.196392"><time>2024-05-04T11:05:04.000Z</time><ele>1180</ele></trkpt><trkpt lat="45.856271" lon="9.196361"><time>2024-05-04T11:05:05.000Z</time><ele>1180</ele></trkpt><trkpt lat="45.85626" lon="9.19633"><time>2024-05-04T11:05:06.000Z</time><ele>1180</ele></trkpt><trkpt lat="45.856253" lon="9.196306"><time>2024-05-04T11:05:07.000Z</time><ele>1180</ele></trkpt><trkpt lat="45.856245" lon="9.19628"><time>2024-05-04T11:05:08.000Z</time><ele>1180</ele></trkpt><trkpt lat="45.856241" lon="9.196259"><time>2024-05-04T11:05:09.000Z</time><ele>1180</ele></trkpt><trkpt lat="45.856234" lon="9.196247"><time>2024-05-04T11:05:10.000Z</time><ele>1180</ele></trkpt><trkpt lat="45.856224" lon="9.196235"><time>2024-05-04T11:05:11.000Z</time><ele>1179.8</ele></trkpt><trkpt lat="45.856221" lon="9.196234"><time>2024-05-04T11:05:12.000Z</time><ele>1179.8</ele></trkpt><trkpt lat="45.856215" lon="9.196227"><time>2024-05-04T11:05:13.000Z</time><ele>1179.6</ele></trkpt><trkpt lat="45.85621" lon="9.196211"><time>2024-05-04T11:05:14.000Z</time><ele>1179.6</ele></trkpt><trkpt lat="45.856208" lon="9.196186"><time>2024-05-04T11:05:15.000Z</time><ele>1179.2</ele></trkpt><trkpt lat="45.85621" lon="9.196167"><time>2024-05-04T11:05:16.000Z</time><ele>1179</ele></trkpt><trkpt lat="45.856209" lon="9.196151"><time>2024-05-04T11:05:17.000Z</time><ele>1178.8</ele></trkpt><trkpt lat="45.856206" lon="9.196136"><time>2024-05-04T11:05:18.000Z</time><ele>1178.6</ele></trkpt><trkpt lat="45.856204" lon="9.196129"><time>2024-05-04T11:05:19.000Z</time><ele>1178.6</ele></trkpt><trkpt lat="45.856198" lon="9.196123"><time>2024-05-04T11:05:20.000Z</time><ele>1178.4</ele></trkpt><trkpt lat="45.856189" lon="9.196112"><time>2024-05-04T11:05:21.000Z</time><ele>1178.4</ele></trkpt><trkpt lat="45.856173" lon="9.19609"><time>2024-05-04T11:05:22.000Z</time><ele>1178.2</ele></trkpt><trkpt lat="45.856156" lon="9.196072"><time>2024-05-04T11:05:23.000Z</time><ele>1178.2</ele></trkpt><trkpt lat="45.856145" lon="9.196061"><time>2024-05-04T11:05:24.000Z</time><ele>1178.2</ele></trkpt><trkpt lat="45.856132" lon="9.196043"><time>2024-05-04T11:05:25.000Z</time><ele>1178</ele></trkpt><trkpt lat="45.856121" lon="9.196025"><time>2024-05-04T11:05:26.000Z</time><ele>1178</ele></trkpt><trkpt lat="45.856116" lon="9.19601"><time>2024-05-04T11:05:27.000Z</time><ele>1178</ele></trkpt><trkpt lat="45.856116" lon="9.196011"><time>2024-05-04T11:05:28.000Z</time><ele>1177.8</ele></trkpt><trkpt lat="45.856109" lon="9.196006"><time>2024-05-04T11:05:29.000Z</time><ele>1177.8</ele></trkpt><trkpt lat="45.856107" lon="9.196006"><time>2024-05-04T11:05:30.000Z</time><ele>1177.8</ele></trkpt><trkpt lat="45.856104" lon="9.196006"><time>2024-05-04T11:05:31.000Z</time><ele>1177.8</ele></trkpt><trkpt lat="45.856102" lon="9.196008"><time>2024-05-04T11:05:32.000Z</time><ele>1177.8</ele></trkpt><trkpt lat="45.856094" lon="9.196003"><time>2024-05-04T11:05:33.000Z</time><ele>1178.2</ele></trkpt><trkpt lat="45.856089" lon="9.196003"><time>2024-05-04T11:05:34.000Z</time><ele>1178.4</ele></trkpt><trkpt lat="45.856082" lon="9.195995"><time>2024-05-04T11:05:35.000Z</time><ele>1178.6</ele></trkpt><trkpt lat="45.856074" lon="9.195983"><time>2024-05-04T11:05:36.000Z</time><ele>1178.6</ele></trkpt><trkpt lat="45.856066" lon="9.195974"><time>2024-05-04T11:05:37.000Z</time><ele>1178.6</ele></trkpt><trkpt lat="45.856057" lon="9.195967"><time>2024-05-04T11:05:38.000Z</time><ele>1179</ele></trkpt><trkpt lat="45.856047" lon="9.19596"><time>2024-05-04T11:05:39.000Z</time><ele>1179.2</ele></trkpt><trkpt lat="45.85604" lon="9.195954"><time>2024-05-04T11:05:40.000Z</time><ele>1179.2</ele></trkpt><trkpt lat="45.856034" lon="9.195949"><time>2024-05-04T11:05:41.000Z</time><ele>1179.2</ele></trkpt><trkpt lat="45.856025" lon="9.19594"><time>2024-05-04T11:05:42.000Z</time><ele>1179.4</ele></trkpt><trkpt lat="45.85602" lon="9.195939"><time>2024-05-04T11:05:43.000Z</time><ele>1179.6</ele></trkpt><trkpt lat="45.856019" lon="9.195938"><time>2024-05-04T11:05:44.000Z</time><ele>1179.6</ele></trkpt><trkpt lat="45.856018" lon="9.195937"><time>2024-05-04T11:05:45.000Z</time><ele>1179.6</ele></trkpt><trkpt lat="45.856014" lon="9.195928"><time>2024-05-04T11:05:46.000Z</time><ele>1179.6</ele></trkpt><trkpt lat="45.856013" lon="9.195922"><time>2024-05-04T11:05:47.000Z</time><ele>1179.6</ele></trkpt><trkpt lat="45.856004" lon="9.195906"><time>2024-05-04T11:05:48.000Z</time><ele>1179.8</ele></trkpt><trkpt lat="45.856002" lon="9.195902"><time>2024-05-04T11:05:49.000Z</time><ele>1179.8</ele></trkpt><trkpt lat="45.855997" lon="9.195886"><time>2024-05-04T11:05:50.000Z</time><ele>1179.8</ele></trkpt><trkpt lat="45.855996" lon="9.195882"><time>2024-05-04T11:05:51.000Z</time><ele>1180</ele></trkpt><trkpt lat="45.855984" lon="9.19586"><time>2024-05-04T11:05:52.000Z</time><ele>1180.2</ele></trkpt><trkpt lat="45.855984" lon="9.195856"><time>2024-05-04T11:05:53.000Z</time><ele>1180.4</ele></trkpt><trkpt lat="45.855981" lon="9.195837"><time>2024-05-04T11:05:54.000Z</time><ele>1180.6</ele></trkpt><trkpt lat="45.85598" lon="9.195822"><time>2024-05-04T11:05:55.000Z</time><ele>1180.6</ele></trkpt><trkpt lat="45.855977" lon="9.195808"><time>2024-05-04T11:05:56.000Z</time><ele>1180.8</ele></trkpt><trkpt lat="45.855976" lon="9.195793"><time>2024-05-04T11:05:57.000Z</time><ele>1181</ele></trkpt><trkpt lat="45.855974" lon="9.195778"><time>2024-05-04T11:05:58.000Z</time><ele>1181</ele></trkpt><trkpt lat="45.855971" lon="9.195771"><time>2024-05-04T11:05:59.000Z</time><ele>1181.2</ele></trkpt><trkpt lat="45.855967" lon="9.195765"><time>2024-05-04T11:06:00.000Z</time><ele>1181.4</ele></trkpt><trkpt lat="45.855964" lon="9.195764"><time>2024-05-04T11:06:01.000Z</time><ele>1181.4</ele></trkpt><trkpt lat="45.855964" lon="9.195764"><time>2024-05-04T11:06:02.000Z</time><ele>1182</ele></trkpt><trkpt lat="45.855963" lon="9.195763"><time>2024-05-04T11:06:03.000Z</time><ele>1182.4</ele></trkpt><trkpt lat="45.85596" lon="9.195761"><time>2024-05-04T11:06:04.000Z</time><ele>1182.6</ele></trkpt><trkpt lat="45.855956" lon="9.195749"><time>2024-05-04T11:06:05.000Z</time><ele>1183</ele></trkpt><trkpt lat="45.85595" lon="9.195737"><time>2024-05-04T11:06:06.000Z</time><ele>1183.2</ele></trkpt><trkpt lat="45.855948" lon="9.19573"><time>2024-05-04T11:06:07.000Z</time><ele>1183.4</ele></trkpt><trkpt lat="45.855939" lon="9.195712"><time>2024-05-04T11:06:08.000Z</time><ele>1183.6</ele></trkpt><trkpt lat="45.855936" lon="9.195696"><time>2024-05-04T11:06:09.000Z</time><ele>1183.6</ele></trkpt><trkpt lat="45.855933" lon="9.19568"><time>2024-05-04T11:06:10.000Z</time><ele>1183.6</ele></trkpt><trkpt lat="45.855928" lon="9.195668"><time>2024-05-04T11:06:11.000Z</time><ele>1183.8</ele></trkpt><trkpt lat="45.855925" lon="9.195664"><time>2024-05-04T11:06:12.000Z</time><ele>1183.8</ele></trkpt><trkpt lat="45.855922" lon="9.195662"><time>2024-05-04T11:06:13.000Z</time><ele>1183.8</ele></trkpt><trkpt lat="45.855919" lon="9.195649"><time>2024-05-04T11:06:14.000Z</time><ele>1184</ele></trkpt><trkpt lat="45.855922" lon="9.195637"><time>2024-05-04T11:06:15.000Z</time><ele>1184.2</ele></trkpt><trkpt lat="45.855924" lon="9.195619"><time>2024-05-04T11:06:16.000Z</time><ele>1184.2</ele></trkpt><trkpt lat="45.855921" lon="9.195601"><time>2024-05-04T11:06:17.000Z</time><ele>1184.4</ele></trkpt><trkpt lat="45.855922" lon="9.195595"><time>2024-05-04T11:06:18.000Z</time><ele>1184.4</ele></trkpt><trkpt lat="45.855912" lon="9.195577"><time>2024-05-04T11:06:19.000Z</time><ele>1184.4</ele></trkpt><trkpt lat="45.855908" lon="9.195571"><time>2024-05-04T11:06:20.000Z</time><ele>1184.4</ele></trkpt><trkpt lat="45.855895" lon="9.195553"><time>2024-05-04T11:06:21.000Z</time><ele>1184.4</ele></trkpt><trkpt lat="45.855886" lon="9.195532"><time>2024-05-04T11:06:22.000Z</time><ele>1184.4</ele></trkpt><trkpt lat="45.855875" lon="9.19552"><time>2024-05-04T11:06:23.000Z</time><ele>1184.4</ele></trkpt><trkpt lat="45.855868" lon="9.195506"><time>2024-05-04T11:06:24.000Z</time><ele>1184.8</ele></trkpt><trkpt lat="45.855866" lon="9.195491"><time>2024-05-04T11:06:25.000Z</time><ele>1185</ele></trkpt><trkpt lat="45.855863" lon="9.195475"><time>2024-05-04T11:06:26.000Z</time><ele>1185</ele></trkpt><trkpt lat="45.855857" lon="9.195461"><time>2024-05-04T11:06:27.000Z</time><ele>1185.4</ele></trkpt><trkpt lat="45.855856" lon="9.195458"><time>2024-05-04T11:06:28.000Z</time><ele>1185.6</ele></trkpt><trkpt lat="45.855853" lon="9.195451"><time>2024-05-04T11:06:29.000Z</time><ele>1185.8</ele></trkpt><trkpt lat="45.855852" lon="9.195449"><time>2024-05-04T11:06:30.000Z</time><ele>1186</ele></trkpt><trkpt lat="45.855847" lon="9.195442"><time>2024-05-04T11:06:31.000Z</time><ele>1186.2</ele></trkpt><trkpt lat="45.855841" lon="9.195429"><time>2024-05-04T11:06:32.000Z</time><ele>1186.4</ele></trkpt><trkpt lat="45.855835" lon="9.19541"><time>2024-05-04T11:06:33.000Z</time><ele>1186.6</ele></trkpt><trkpt lat="45.855832" lon="9.195389"><time>2024-05-04T11:06:34.000Z</time><ele>1186.6</ele></trkpt><trkpt lat="45.855827" lon="9.195366"><time>2024-05-04T11:06:35.000Z</time><ele>1186.6</ele></trkpt><trkpt lat="45.855824" lon="9.195348"><time>2024-05-04T11:06:36.000Z</time><ele>1186.8</ele></trkpt><trkpt lat="45.855823" lon="9.195335"><time>2024-05-04T11:06:37.000Z</time><ele>1186.8</ele></trkpt><trkpt lat="45.85582" lon="9.195323"><time>2024-05-04T11:06:38.000Z</time><ele>1186.8</ele></trkpt><trkpt lat="45.855818" lon="9.195318"><time>2024-05-04T11:06:39.000Z</time><ele>1187</ele></trkpt><trkpt lat="45.855817" lon="9.195314"><time>2024-05-04T11:06:40.000Z</time><ele>1187.4</ele></trkpt><trkpt lat="45.855815" lon="9.195307"><time>2024-05-04T11:06:41.000Z</time><ele>1187.4</ele></trkpt><trkpt lat="45.855816" lon="9.195297"><time>2024-05-04T11:06:42.000Z</time><ele>1187.6</ele></trkpt><trkpt lat="45.855818" lon="9.19529"><time>2024-05-04T11:06:43.000Z</time><ele>1187.6</ele></trkpt><trkpt lat="45.85582" lon="9.195284"><time>2024-05-04T11:06:44.000Z</time><ele>1187.8</ele></trkpt><trkpt lat="45.85582" lon="9.19528"><time>2024-05-04T11:06:45.000Z</time><ele>1188</ele></trkpt><trkpt lat="45.855816" lon="9.195272"><time>2024-05-04T11:06:46.000Z</time><ele>1188</ele></trkpt><trkpt lat="45.855811" lon="9.195261"><time>2024-05-04T11:06:47.000Z</time><ele>1188</ele></trkpt><trkpt lat="45.855809" lon="9.195245"><time>2024-05-04T11:06:48.000Z</time><ele>1188.2</ele></trkpt><trkpt lat="45.85581" lon="9.195227"><time>2024-05-04T11:06:49.000Z</time><ele>1188.2</ele></trkpt><trkpt lat="45.855813" lon="9.19521"><time>2024-05-04T11:06:50.000Z</time><ele>1188.4</ele></trkpt><trkpt lat="45.855822" lon="9.195188"><time>2024-05-04T11:06:51.000Z</time><ele>1188.6</ele></trkpt><trkpt lat="45.855827" lon="9.195173"><time>2024-05-04T11:06:52.000Z</time><ele>1188.6</ele></trkpt><trkpt lat="45.855829" lon="9.195168"><time>2024-05-04T11:06:53.000Z</time><ele>1188.8</ele></trkpt><trkpt lat="45.855827" lon="9.195158"><time>2024-05-04T11:06:54.000Z</time><ele>1189</ele></trkpt><trkpt lat="45.855827" lon="9.19515"><time>2024-05-04T11:06:55.000Z</time><ele>1189</ele></trkpt><trkpt lat="45.855828" lon="9.195144"><time>2024-05-04T11:06:56.000Z</time><ele>1189</ele></trkpt><trkpt lat="45.855823" lon="9.195122"><time>2024-05-04T11:06:57.000Z</time><ele>1189</ele></trkpt><trkpt lat="45.855814" lon="9.195101"><time>2024-05-04T11:06:58.000Z</time><ele>1189</ele></trkpt><trkpt lat="45.855806" lon="9.195084"><time>2024-05-04T11:06:59.000Z</time><ele>1189</ele></trkpt><trkpt lat="45.855802" lon="9.195069"><time>2024-05-04T11:07:00.000Z</time><ele>1188.8</ele></trkpt><trkpt lat="45.855796" lon="9.195046"><time>2024-05-04T11:07:01.000Z</time><ele>1188.8</ele></trkpt><trkpt lat="45.855796" lon="9.195039"><time>2024-05-04T11:07:02.000Z</time><ele>1188.8</ele></trkpt><trkpt lat="45.855793" lon="9.19503"><time>2024-05-04T11:07:03.000Z</time><ele>1188.8</ele></trkpt><trkpt lat="45.855782" lon="9.195006"><time>2024-05-04T11:07:04.000Z</time><ele>1188.6</ele></trkpt><trkpt lat="45.855777" lon="9.194986"><time>2024-05-04T11:07:05.000Z</time><ele>1188.6</ele></trkpt><trkpt lat="45.855777" lon="9.194973"><time>2024-05-04T11:07:06.000Z</time><ele>1188.6</ele></trkpt><trkpt lat="45.855775" lon="9.194958"><time>2024-05-04T11:07:07.000Z</time><ele>1188.6</ele></trkpt><trkpt lat="45.855773" lon="9.194951"><time>2024-05-04T11:07:08.000Z</time><ele>1188.6</ele></trkpt><trkpt lat="45.855773" lon="9.194948"><time>2024-05-04T11:07:09.000Z</time><ele>1188.6</ele></trkpt><trkpt lat="45.855773" lon="9.194945"><time>2024-05-04T11:07:10.000Z</time><ele>1188.6</ele></trkpt><trkpt lat="45.855767" lon="9.194934"><time>2024-05-04T11:07:11.000Z</time><ele>1188.6</ele></trkpt><trkpt lat="45.855756" lon="9.19492"><time>2024-05-04T11:07:12.000Z</time><ele>1188.8</ele></trkpt><trkpt lat="45.855746" lon="9.194904"><time>2024-05-04T11:07:13.000Z</time><ele>1189</ele></trkpt><trkpt lat="45.855735" lon="9.194887"><time>2024-05-04T11:07:14.000Z</time><ele>1189.2</ele></trkpt><trkpt lat="45.855726" lon="9.194875"><time>2024-05-04T11:07:15.000Z</time><ele>1189.2</ele></trkpt><trkpt lat="45.855717" lon="9.194866"><time>2024-05-04T11:07:16.000Z</time><ele>1189.2</ele></trkpt><trkpt lat="45.855712" lon="9.194856"><time>2024-05-04T11:07:17.000Z</time><ele>1189.2</ele></trkpt><trkpt lat="45.855707" lon="9.194842"><time>2024-05-04T11:07:18.000Z</time><ele>1189.4</ele></trkpt><trkpt lat="45.855705" lon="9.194837"><time>2024-05-04T11:07:19.000Z</time><ele>1189.4</ele></trkpt><trkpt lat="45.855702" lon="9.194833"><time>2024-05-04T11:07:20.000Z</time><ele>1189.8</ele></trkpt><trkpt lat="45.855691" lon="9.194817"><time>2024-05-04T11:07:21.000Z</time><ele>1189.8</ele></trkpt><trkpt lat="45.855687" lon="9.194812"><time>2024-05-04T11:07:22.000Z</time><ele>1190</ele></trkpt><trkpt lat="45.855678" lon="9.194798"><time>2024-05-04T11:07:23.000Z</time><ele>1190.2</ele></trkpt><trkpt lat="45.85567" lon="9.194781"><time>2024-05-04T11:07:24.000Z</time><ele>1190.2</ele></trkpt><trkpt lat="45.855659" lon="9.194762"><time>2024-05-04T11:07:25.000Z</time><ele>1190.4</ele></trkpt><trkpt lat="45.855652" lon="9.194749"><time>2024-05-04T11:07:26.000Z</time><ele>1190.4</ele></trkpt><trkpt lat="45.855644" lon="9.194739"><time>2024-05-04T11:07:27.000Z</time><ele>1190.4</ele></trkpt><trkpt lat="45.85564" lon="9.194729"><time>2024-05-04T11:07:28.000Z</time><ele>1190.4</ele></trkpt><trkpt lat="45.855633" lon="9.194718"><time>2024-05-04T11:07:29.000Z</time><ele>1190.4</ele></trkpt><trkpt lat="45.85563" lon="9.194713"><time>2024-05-04T11:07:30.000Z</time><ele>1190.4</ele></trkpt><trkpt lat="45.855622" lon="9.194711"><time>2024-05-04T11:07:31.000Z</time><ele>1190.4</ele></trkpt><trkpt lat="45.85562" lon="9.194712"><time>2024-05-04T11:07:32.000Z</time><ele>1190.4</ele></trkpt><trkpt lat="45.855623" lon="9.194712"><time>2024-05-04T11:07:33.000Z</time><ele>1190.4</ele></trkpt><trkpt lat="45.855623" lon="9.194712"><time>2024-05-04T11:07:34.000Z</time><ele>1190.4</ele></trkpt><trkpt lat="45.855623" lon="9.194712"><time>2024-05-04T11:07:35.000Z</time><ele>1190.2</ele></trkpt><trkpt lat="45.855624" lon="9.19471"><time>2024-05-04T11:07:36.000Z</time><ele>1190.2</ele></trkpt><trkpt lat="45.855622" lon="9.194708"><time>2024-05-04T11:07:37.000Z</time><ele>1190.2</ele></trkpt><trkpt lat="45.855612" lon="9.194707"><time>2024-05-04T11:07:38.000Z</time><ele>1190.2</ele></trkpt><trkpt lat="45.85561" lon="9.194707"><time>2024-05-04T11:07:39.000Z</time><ele>1190</ele></trkpt><trkpt lat="45.855611" lon="9.194707"><time>2024-05-04T11:07:40.000Z</time><ele>1190</ele></trkpt><trkpt lat="45.855612" lon="9.194707"><time>2024-05-04T11:07:41.000Z</time><ele>1190</ele></trkpt><trkpt lat="45.855611" lon="9.194707"><time>2024-05-04T11:07:42.000Z</time><ele>1189.8</ele></trkpt><trkpt lat="45.85561" lon="9.194706"><time>2024-05-04T11:07:43.000Z</time><ele>1189.8</ele></trkpt><trkpt lat="45.855611" lon="9.194705"><time>2024-05-04T11:07:44.000Z</time><ele>1189.8</ele></trkpt><trkpt lat="45.855611" lon="9.194705"><time>2024-05-04T11:07:45.000Z</time><ele>1190</ele></trkpt><trkpt lat="45.855611" lon="9.194705"><time>2024-05-04T11:07:46.000Z</time><ele>1190</ele></trkpt><trkpt lat="45.855611" lon="9.194705"><time>2024-05-04T11:07:47.000Z</time><ele>1190.2</ele></trkpt><trkpt lat="45.855611" lon="9.194705"><time>2024-05-04T11:07:48.000Z</time><ele>1190.2</ele></trkpt><trkpt lat="45.855611" lon="9.194705"><time>2024-05-04T11:07:49.000Z</time><ele>1190.2</ele></trkpt><trkpt lat="45.855611" lon="9.194705"><time>2024-05-04T11:07:50.000Z</time><ele>1190.2</ele></trkpt><trkpt lat="45.855611" lon="9.194705"><time>2024-05-04T11:07:51.000Z</time><ele>1190.4</ele></trkpt><trkpt lat="45.855611" lon="9.194705"><time>2024-05-04T11:07:52.000Z</time><ele>1190.2</ele></trkpt><trkpt lat="45.855611" lon="9.194705"><time>2024-05-04T11:07:53.000Z</time><ele>1190</ele></trkpt><trkpt lat="45.855611" lon="9.194705"><time>2024-05-04T11:07:54.000Z</time><ele>1190</ele></trkpt><trkpt lat="45.855611" lon="9.194705"><time>2024-05-04T11:07:55.000Z</time><ele>1189.8</ele></trkpt><trkpt lat="45.855611" lon="9.194705"><time>2024-05-04T11:07:56.000Z</time><ele>1189.6</ele></trkpt><trkpt lat="45.855611" lon="9.194705"><time>2024-05-04T11:07:57.000Z</time><ele>1189.6</ele></trkpt><trkpt lat="45.85561" lon="9.194705"><time>2024-05-04T11:07:58.000Z</time><ele>1189.6</ele></trkpt><trkpt lat="45.85561" lon="9.194705"><time>2024-05-04T11:07:59.000Z</time><ele>1189.6</ele></trkpt><trkpt lat="45.855609" lon="9.194705"><time>2024-05-04T11:08:00.000Z</time><ele>1189.6</ele></trkpt><trkpt lat="45.855606" lon="9.194704"><time>2024-05-04T11:08:01.000Z</time><ele>1189.6</ele></trkpt><trkpt lat="45.855604" lon="9.194704"><time>2024-05-04T11:08:02.000Z</time><ele>1189.6</ele></trkpt><trkpt lat="45.855604" lon="9.194704"><time>2024-05-04T11:08:03.000Z</time><ele>1189.8</ele></trkpt><trkpt lat="45.855604" lon="9.194704"><time>2024-05-04T11:08:04.000Z</time><ele>1189.8</ele></trkpt><trkpt lat="45.855602" lon="9.194703"><time>2024-05-04T11:08:05.000Z</time><ele>1189.8</ele></trkpt><trkpt lat="45.855596" lon="9.194703"><time>2024-05-04T11:08:06.000Z</time><ele>1189.8</ele></trkpt><trkpt lat="45.855594" lon="9.194703"><time>2024-05-04T11:08:07.000Z</time><ele>1189.8</ele></trkpt><trkpt lat="45.855594" lon="9.194703"><time>2024-05-04T11:08:08.000Z</time><ele>1190</ele></trkpt><trkpt lat="45.855594" lon="9.194703"><time>2024-05-04T11:08:09.000Z</time><ele>1190</ele></trkpt><trkpt lat="45.855593" lon="9.194702"><time>2024-05-04T11:08:10.000Z</time><ele>1190</ele></trkpt><trkpt lat="45.855593" lon="9.194702"><time>2024-05-04T11:08:11.000Z</time><ele>1190</ele></trkpt><trkpt lat="45.855593" lon="9.194701"><time>2024-05-04T11:08:12.000Z</time><ele>1190</ele></trkpt><trkpt lat="45.855593" lon="9.194701"><time>2024-05-04T11:08:13.000Z</time><ele>1189.8</ele></trkpt><trkpt lat="45.855593" lon="9.194701"><time>2024-05-04T11:08:14.000Z</time><ele>1189.8</ele></trkpt><trkpt lat="45.855593" lon="9.194701"><time>2024-05-04T11:08:15.000Z</time><ele>1189.8</ele></trkpt><trkpt lat="45.855592" lon="9.194701"><time>2024-05-04T11:08:16.000Z</time><ele>1189.8</ele></trkpt><trkpt lat="45.855591" lon="9.194701"><time>2024-05-04T11:08:17.000Z</time><ele>1189.8</ele></trkpt><trkpt lat="45.855591" lon="9.194701"><time>2024-05-04T11:08:18.000Z</time><ele>1189.8</ele></trkpt><trkpt lat="45.85559" lon="9.1947"><time>2024-05-04T11:08:19.000Z</time><ele>1189.8</ele></trkpt><trkpt lat="45.855589" lon="9.1947"><time>2024-05-04T11:08:20.000Z</time><ele>1189.8</ele></trkpt><trkpt lat="45.855589" lon="9.1947"><time>2024-05-04T11:08:21.000Z</time><ele>1189.8</ele></trkpt><trkpt lat="45.855589" lon="9.1947"><time>2024-05-04T11:08:22.000Z</time><ele>1189.8</ele></trkpt><trkpt lat="45.855589" lon="9.1947"><time>2024-05-04T11:08:23.000Z</time><ele>1189.8</ele></trkpt><trkpt lat="45.855588" lon="9.1947"><time>2024-05-04T11:08:24.000Z</time><ele>1190</ele></trkpt><trkpt lat="45.855588" lon="9.1947"><time>2024-05-04T11:08:25.000Z</time><ele>1190.2</ele></trkpt><trkpt lat="45.855588" lon="9.1947"><time>2024-05-04T11:08:26.000Z</time><ele>1190.4</ele></trkpt><trkpt lat="45.855586" lon="9.194699"><time>2024-05-04T11:08:27.000Z</time><ele>1190.4</ele></trkpt><trkpt lat="45.855578" lon="9.194696"><time>2024-05-04T11:08:28.000Z</time><ele>1190.4</ele></trkpt><trkpt lat="45.855575" lon="9.194695"><time>2024-05-04T11:08:29.000Z</time><ele>1190.4</ele></trkpt><trkpt lat="45.855573" lon="9.194694"><time>2024-05-04T11:08:30.000Z</time><ele>1190.4</ele></trkpt><trkpt lat="45.855571" lon="9.194693"><time>2024-05-04T11:08:31.000Z</time><ele>1190.6</ele></trkpt><trkpt lat="45.85557" lon="9.194693"><time>2024-05-04T11:08:32.000Z</time><ele>1190.6</ele></trkpt><trkpt lat="45.855569" lon="9.194692"><time>2024-05-04T11:08:33.000Z</time><ele>1190.6</ele></trkpt><trkpt lat="45.855567" lon="9.19469"><time>2024-05-04T11:08:34.000Z</time><ele>1190.6</ele></trkpt><trkpt lat="45.855567" lon="9.194689"><time>2024-05-04T11:08:35.000Z</time><ele>1190.8</ele></trkpt><trkpt lat="45.855567" lon="9.194688"><time>2024-05-04T11:08:36.000Z</time><ele>1190.8</ele></trkpt><trkpt lat="45.855566" lon="9.194688"><time>2024-05-04T11:08:37.000Z</time><ele>1190.8</ele></trkpt><trkpt lat="45.855566" lon="9.194687"><time>2024-05-04T11:08:38.000Z</time><ele>1190.8</ele></trkpt><trkpt lat="45.855566" lon="9.194687"><time>2024-05-04T11:08:39.000Z</time><ele>1191</ele></trkpt><trkpt lat="45.855566" lon="9.194685"><time>2024-05-04T11:08:40.000Z</time><ele>1191</ele></trkpt><trkpt lat="45.855566" lon="9.194685"><time>2024-05-04T11:08:41.000Z</time><ele>1191</ele></trkpt><trkpt lat="45.855566" lon="9.194684"><time>2024-05-04T11:08:42.000Z</time><ele>1191</ele></trkpt><trkpt lat="45.855565" lon="9.194683"><time>2024-05-04T11:08:43.000Z</time><ele>1191</ele></trkpt><trkpt lat="45.855565" lon="9.194683"><time>2024-05-04T11:08:44.000Z</time><ele>1191</ele></trkpt><trkpt lat="45.855565" lon="9.194683"><time>2024-05-04T11:08:45.000Z</time><ele>1191</ele></trkpt><trkpt lat="45.855562" lon="9.194683"><time>2024-05-04T11:08:46.000Z</time><ele>1191</ele></trkpt><trkpt lat="45.855561" lon="9.194683"><time>2024-05-04T11:08:47.000Z</time><ele>1191.2</ele></trkpt><trkpt lat="45.855559" lon="9.194683"><time>2024-05-04T11:08:48.000Z</time><ele>1191.2</ele></trkpt><trkpt lat="45.855557" lon="9.194682"><time>2024-05-04T11:08:49.000Z</time><ele>1191.2</ele></trkpt><trkpt lat="45.855552" lon="9.194668"><time>2024-05-04T11:08:50.000Z</time><ele>1191.2</ele></trkpt><trkpt lat="45.85554" lon="9.194645"><time>2024-05-04T11:08:51.000Z</time><ele>1191.2</ele></trkpt><trkpt lat="45.855531" lon="9.194624"><time>2024-05-04T11:08:52.000Z</time><ele>1191.2</ele></trkpt><trkpt lat="45.855524" lon="9.194599"><time>2024-05-04T11:08:53.000Z</time><ele>1191.2</ele></trkpt><trkpt lat="45.855515" lon="9.19457"><time>2024-05-04T11:08:54.000Z</time><ele>1191.2</ele></trkpt><trkpt lat="45.855507" lon="9.194539"><time>2024-05-04T11:08:55.000Z</time><ele>1191.2</ele></trkpt><trkpt lat="45.855499" lon="9.194511"><time>2024-05-04T11:08:56.000Z</time><ele>1191.2</ele></trkpt><trkpt lat="45.855495" lon="9.19449"><time>2024-05-04T11:08:57.000Z</time><ele>1191.4</ele></trkpt><trkpt lat="45.855488" lon="9.194465"><time>2024-05-04T11:08:58.000Z</time><ele>1191.4</ele></trkpt><trkpt lat="45.855478" lon="9.19444"><time>2024-05-04T11:08:59.000Z</time><ele>1191.4</ele></trkpt><trkpt lat="45.855473" lon="9.194426"><time>2024-05-04T11:09:00.000Z</time><ele>1191.6</ele></trkpt><trkpt lat="45.855467" lon="9.19441"><time>2024-05-04T11:09:01.000Z</time><ele>1191.6</ele></trkpt><trkpt lat="45.855464" lon="9.194396"><time>2024-05-04T11:09:02.000Z</time><ele>1191.6</ele></trkpt><trkpt lat="45.855461" lon="9.19439"><time>2024-05-04T11:09:03.000Z</time><ele>1191.6</ele></trkpt><trkpt lat="45.855461" lon="9.194383"><time>2024-05-04T11:09:04.000Z</time><ele>1191.6</ele></trkpt><trkpt lat="45.855459" lon="9.194376"><time>2024-05-04T11:09:05.000Z</time><ele>1191.6</ele></trkpt><trkpt lat="45.855457" lon="9.194362"><time>2024-05-04T11:09:06.000Z</time><ele>1191.6</ele></trkpt><trkpt lat="45.855457" lon="9.194346"><time>2024-05-04T11:09:07.000Z</time><ele>1191.4</ele></trkpt><trkpt lat="45.855453" lon="9.194331"><time>2024-05-04T11:09:08.000Z</time><ele>1191.4</ele></trkpt><trkpt lat="45.855449" lon="9.194313"><time>2024-05-04T11:09:09.000Z</time><ele>1191.4</ele></trkpt><trkpt lat="45.855445" lon="9.194294"><time>2024-05-04T11:09:10.000Z</time><ele>1191.4</ele></trkpt><trkpt lat="45.855444" lon="9.194268"><time>2024-05-04T11:09:11.000Z</time><ele>1191.4</ele></trkpt><trkpt lat="45.85545" lon="9.19425"><time>2024-05-04T11:09:12.000Z</time><ele>1191.4</ele></trkpt><trkpt lat="45.855443" lon="9.194234"><time>2024-05-04T11:09:13.000Z</time><ele>1191.4</ele></trkpt><trkpt lat="45.855433" lon="9.194223"><time>2024-05-04T11:09:14.000Z</time><ele>1191.6</ele></trkpt><trkpt lat="45.85543" lon="9.194217"><time>2024-05-04T11:09:15.000Z</time><ele>1191.6</ele></trkpt><trkpt lat="45.85543" lon="9.194212"><time>2024-05-04T11:09:16.000Z</time><ele>1191.6</ele></trkpt><trkpt lat="45.85543" lon="9.194194"><time>2024-05-04T11:09:17.000Z</time><ele>1191.6</ele></trkpt><trkpt lat="45.855433" lon="9.194178"><time>2024-05-04T11:09:18.000Z</time><ele>1191.8</ele></trkpt><trkpt lat="45.855434" lon="9.194168"><time>2024-05-04T11:09:19.000Z</time><ele>1192</ele></trkpt><trkpt lat="45.855434" lon="9.194163"><time>2024-05-04T11:09:20.000Z</time><ele>1192</ele></trkpt><trkpt lat="45.855427" lon="9.194146"><time>2024-05-04T11:09:21.000Z</time><ele>1192.2</ele></trkpt><trkpt lat="45.855421" lon="9.194126"><time>2024-05-04T11:09:22.000Z</time><ele>1192.4</ele></trkpt><trkpt lat="45.85542" lon="9.194111"><time>2024-05-04T11:09:23.000Z</time><ele>1192.4</ele></trkpt><trkpt lat="45.855415" lon="9.194099"><time>2024-05-04T11:09:24.000Z</time><ele>1192.4</ele></trkpt><trkpt lat="45.855413" lon="9.19409"><time>2024-05-04T11:09:25.000Z</time><ele>1192.6</ele></trkpt><trkpt lat="45.855408" lon="9.194083"><time>2024-05-04T11:09:26.000Z</time><ele>1192.6</ele></trkpt><trkpt lat="45.855402" lon="9.194074"><time>2024-05-04T11:09:27.000Z</time><ele>1192.8</ele></trkpt><trkpt lat="45.855394" lon="9.194061"><time>2024-05-04T11:09:28.000Z</time><ele>1192.8</ele></trkpt><trkpt lat="45.855384" lon="9.194046"><time>2024-05-04T11:09:29.000Z</time><ele>1193</ele></trkpt><trkpt lat="45.855375" lon="9.194031"><time>2024-05-04T11:09:30.000Z</time><ele>1193</ele></trkpt><trkpt lat="45.855369" lon="9.194013"><time>2024-05-04T11:09:31.000Z</time><ele>1193.2</ele></trkpt><trkpt lat="45.855369" lon="9.194007"><time>2024-05-04T11:09:32.000Z</time><ele>1193.2</ele></trkpt><trkpt lat="45.855367" lon="9.194004"><time>2024-05-04T11:09:33.000Z</time><ele>1193.4</ele></trkpt><trkpt lat="45.85536" lon="9.193992"><time>2024-05-04T11:09:34.000Z</time><ele>1193.6</ele></trkpt><trkpt lat="45.855353" lon="9.193976"><time>2024-05-04T11:09:35.000Z</time><ele>1193.6</ele></trkpt><trkpt lat="45.85535" lon="9.193965"><time>2024-05-04T11:09:36.000Z</time><ele>1193.6</ele></trkpt><trkpt lat="45.855347" lon="9.193955"><time>2024-05-04T11:09:37.000Z</time><ele>1193.8</ele></trkpt><trkpt lat="45.855344" lon="9.193945"><time>2024-05-04T11:09:38.000Z</time><ele>1193.8</ele></trkpt><trkpt lat="45.855345" lon="9.193938"><time>2024-05-04T11:09:39.000Z</time><ele>1194</ele></trkpt><trkpt lat="45.855344" lon="9.193932"><time>2024-05-04T11:09:40.000Z</time><ele>1194</ele></trkpt><trkpt lat="45.855342" lon="9.193925"><time>2024-05-04T11:09:41.000Z</time><ele>1194.2</ele></trkpt><trkpt lat="45.85534" lon="9.193923"><time>2024-05-04T11:09:42.000Z</time><ele>1194.4</ele></trkpt><trkpt lat="45.855341" lon="9.193919"><time>2024-05-04T11:09:43.000Z</time><ele>1194.4</ele></trkpt><trkpt lat="45.855341" lon="9.193916"><time>2024-05-04T11:09:44.000Z</time><ele>1194.6</ele></trkpt><trkpt lat="45.855337" lon="9.193912"><time>2024-05-04T11:09:45.000Z</time><ele>1194.8</ele></trkpt><trkpt lat="45.855334" lon="9.193908"><time>2024-05-04T11:09:46.000Z</time><ele>1194.8</ele></trkpt><trkpt lat="45.855332" lon="9.193904"><time>2024-05-04T11:09:47.000Z</time><ele>1195</ele></trkpt><trkpt lat="45.855326" lon="9.193897"><time>2024-05-04T11:09:48.000Z</time><ele>1195.2</ele></trkpt><trkpt lat="45.855323" lon="9.193895"><time>2024-05-04T11:09:49.000Z</time><ele>1195.2</ele></trkpt><trkpt lat="45.85532" lon="9.193883"><time>2024-05-04T11:09:50.000Z</time><ele>1195.4</ele></trkpt><trkpt lat="45.855318" lon="9.193869"><time>2024-05-04T11:09:51.000Z</time><ele>1195.6</ele></trkpt><trkpt lat="45.855312" lon="9.193857"><time>2024-05-04T11:09:52.000Z</time><ele>1195.6</ele></trkpt><trkpt lat="45.855306" lon="9.193847"><time>2024-05-04T11:09:53.000Z</time><ele>1195.8</ele></trkpt><trkpt lat="45.855299" lon="9.193836"><time>2024-05-04T11:09:54.000Z</time><ele>1195.8</ele></trkpt><trkpt lat="45.85529" lon="9.193822"><time>2024-05-04T11:09:55.000Z</time><ele>1196.2</ele></trkpt><trkpt lat="45.855288" lon="9.193814"><time>2024-05-04T11:09:56.000Z</time><ele>1196.4</ele></trkpt><trkpt lat="45.855279" lon="9.1938"><time>2024-05-04T11:09:57.000Z</time><ele>1196.6</ele></trkpt><trkpt lat="45.855276" lon="9.193794"><time>2024-05-04T11:09:58.000Z</time><ele>1196.8</ele></trkpt><trkpt lat="45.855273" lon="9.193787"><time>2024-05-04T11:09:59.000Z</time><ele>1196.8</ele></trkpt><trkpt lat="45.855272" lon="9.193783"><time>2024-05-04T11:10:00.000Z</time><ele>1196.8</ele></trkpt><trkpt lat="45.855269" lon="9.193775"><time>2024-05-04T11:10:01.000Z</time><ele>1197</ele></trkpt><trkpt lat="45.855262" lon="9.193768"><time>2024-05-04T11:10:02.000Z</time><ele>1197</ele></trkpt><trkpt lat="45.855257" lon="9.193757"><time>2024-05-04T11:10:03.000Z</time><ele>1197</ele></trkpt><trkpt lat="45.855256" lon="9.193751"><time>2024-05-04T11:10:04.000Z</time><ele>1197.2</ele></trkpt><trkpt lat="45.85525" lon="9.193741"><time>2024-05-04T11:10:05.000Z</time><ele>1197.2</ele></trkpt><trkpt lat="45.855241" lon="9.193727"><time>2024-05-04T11:10:06.000Z</time><ele>1197.4</ele></trkpt><trkpt lat="45.855236" lon="9.193722"><time>2024-05-04T11:10:07.000Z</time><ele>1197.6</ele></trkpt><trkpt lat="45.855231" lon="9.193705"><time>2024-05-04T11:10:08.000Z</time><ele>1197.6</ele></trkpt><trkpt lat="45.855226" lon="9.193688"><time>2024-05-04T11:10:09.000Z</time><ele>1197.6</ele></trkpt><trkpt lat="45.855215" lon="9.193668"><time>2024-05-04T11:10:10.000Z</time><ele>1197.6</ele></trkpt><trkpt lat="45.855204" lon="9.193649"><time>2024-05-04T11:10:11.000Z</time><ele>1197.6</ele></trkpt><trkpt lat="45.8552" lon="9.19364"><time>2024-05-04T11:10:12.000Z</time><ele>1197.6</ele></trkpt><trkpt lat="45.855192" lon="9.193627"><time>2024-05-04T11:10:13.000Z</time><ele>1197.6</ele></trkpt><trkpt lat="45.855183" lon="9.193611"><time>2024-05-04T11:10:14.000Z</time><ele>1197.8</ele></trkpt><trkpt lat="45.85517" lon="9.193607"><time>2024-05-04T11:10:15.000Z</time><ele>1197.8</ele></trkpt><trkpt lat="45.855167" lon="9.193604"><time>2024-05-04T11:10:16.000Z</time><ele>1197.8</ele></trkpt><trkpt lat="45.855148" lon="9.193595"><time>2024-05-04T11:10:17.000Z</time><ele>1198</ele></trkpt><trkpt lat="45.855126" lon="9.193584"><time>2024-05-04T11:10:18.000Z</time><ele>1198.2</ele></trkpt><trkpt lat="45.855107" lon="9.193568"><time>2024-05-04T11:10:19.000Z</time><ele>1198.4</ele></trkpt><trkpt lat="45.855103" lon="9.193563"><time>2024-05-04T11:10:20.000Z</time><ele>1198.8</ele></trkpt><trkpt lat="45.855102" lon="9.193561"><time>2024-05-04T11:10:21.000Z</time><ele>1199</ele></trkpt><trkpt lat="45.855108" lon="9.193563"><time>2024-05-04T11:10:22.000Z</time><ele>1199.2</ele></trkpt><trkpt lat="45.855107" lon="9.193563"><time>2024-05-04T11:10:23.000Z</time><ele>1199.2</ele></trkpt><trkpt lat="45.855104" lon="9.193558"><time>2024-05-04T11:10:24.000Z</time><ele>1199.2</ele></trkpt><trkpt lat="45.855101" lon="9.193555"><time>2024-05-04T11:10:25.000Z</time><ele>1199.2</ele></trkpt><trkpt lat="45.855098" lon="9.193552"><time>2024-05-04T11:10:26.000Z</time><ele>1199.4</ele></trkpt><trkpt lat="45.855095" lon="9.193553"><time>2024-05-04T11:10:27.000Z</time><ele>1199.4</ele></trkpt><trkpt lat="45.855094" lon="9.193555"><time>2024-05-04T11:10:28.000Z</time><ele>1199.6</ele></trkpt><trkpt lat="45.855094" lon="9.193555"><time>2024-05-04T11:10:29.000Z</time><ele>1199.6</ele></trkpt><trkpt lat="45.855095" lon="9.193555"><time>2024-05-04T11:10:30.000Z</time><ele>1199.8</ele></trkpt><trkpt lat="45.855097" lon="9.193555"><time>2024-05-04T11:10:31.000Z</time><ele>1199.8</ele></trkpt><trkpt lat="45.855098" lon="9.193547"><time>2024-05-04T11:10:32.000Z</time><ele>1200</ele></trkpt><trkpt lat="45.855094" lon="9.193538"><time>2024-05-04T11:10:33.000Z</time><ele>1200</ele></trkpt><trkpt lat="45.855092" lon="9.193533"><time>2024-05-04T11:10:34.000Z</time><ele>1200.2</ele></trkpt><trkpt lat="45.855083" lon="9.193526"><time>2024-05-04T11:10:35.000Z</time><ele>1200.4</ele></trkpt><trkpt lat="45.855077" lon="9.193514"><time>2024-05-04T11:10:36.000Z</time><ele>1200.4</ele></trkpt><trkpt lat="45.855074" lon="9.193503"><time>2024-05-04T11:10:37.000Z</time><ele>1200.6</ele></trkpt><trkpt lat="45.855068" lon="9.193487"><time>2024-05-04T11:10:38.000Z</time><ele>1200.8</ele></trkpt><trkpt lat="45.855061" lon="9.19347"><time>2024-05-04T11:10:39.000Z</time><ele>1200.8</ele></trkpt><trkpt lat="45.855058" lon="9.193468"><time>2024-05-04T11:10:40.000Z</time><ele>1201</ele></trkpt><trkpt lat="45.855051" lon="9.193459"><time>2024-05-04T11:10:41.000Z</time><ele>1201.2</ele></trkpt><trkpt lat="45.855038" lon="9.193455"><time>2024-05-04T11:10:42.000Z</time><ele>1201.2</ele></trkpt><trkpt lat="45.855033" lon="9.193455"><time>2024-05-04T11:10:43.000Z</time><ele>1201.4</ele></trkpt><trkpt lat="45.855023" lon="9.193448"><time>2024-05-04T11:10:44.000Z</time><ele>1201.6</ele></trkpt><trkpt lat="45.855014" lon="9.193442"><time>2024-05-04T11:10:45.000Z</time><ele>1201.6</ele></trkpt><trkpt lat="45.855011" lon="9.193433"><time>2024-05-04T11:10:46.000Z</time><ele>1201.6</ele></trkpt><trkpt lat="45.855006" lon="9.193417"><time>2024-05-04T11:10:47.000Z</time><ele>1201.8</ele></trkpt><trkpt lat="45.855" lon="9.193408"><time>2024-05-04T11:10:48.000Z</time><ele>1201.8</ele></trkpt><trkpt lat="45.854995" lon="9.193405"><time>2024-05-04T11:10:49.000Z</time><ele>1202</ele></trkpt><trkpt lat="45.854988" lon="9.193393"><time>2024-05-04T11:10:50.000Z</time><ele>1202</ele></trkpt><trkpt lat="45.854979" lon="9.19338"><time>2024-05-04T11:10:51.000Z</time><ele>1202.2</ele></trkpt><trkpt lat="45.854968" lon="9.193368"><time>2024-05-04T11:10:52.000Z</time><ele>1202.2</ele></trkpt><trkpt lat="45.854965" lon="9.193366"><time>2024-05-04T11:10:53.000Z</time><ele>1202.4</ele></trkpt><trkpt lat="45.854965" lon="9.193366"><time>2024-05-04T11:10:54.000Z</time><ele>1202.8</ele></trkpt><trkpt lat="45.854964" lon="9.193366"><time>2024-05-04T11:10:55.000Z</time><ele>1203</ele></trkpt><trkpt lat="45.854961" lon="9.193364"><time>2024-05-04T11:10:56.000Z</time><ele>1203.2</ele></trkpt><trkpt lat="45.854953" lon="9.193351"><time>2024-05-04T11:10:57.000Z</time><ele>1203.4</ele></trkpt><trkpt lat="45.854945" lon="9.193333"><time>2024-05-04T11:10:58.000Z</time><ele>1203.6</ele></trkpt><trkpt lat="45.854937" lon="9.193318"><time>2024-05-04T11:10:59.000Z</time><ele>1203.6</ele></trkpt><trkpt lat="45.854927" lon="9.193307"><time>2024-05-04T11:11:00.000Z</time><ele>1203.8</ele></trkpt><trkpt lat="45.854918" lon="9.193301"><time>2024-05-04T11:11:01.000Z</time><ele>1203.8</ele></trkpt><trkpt lat="45.85491" lon="9.193296"><time>2024-05-04T11:11:02.000Z</time><ele>1203.8</ele></trkpt><trkpt lat="45.854902" lon="9.193283"><time>2024-05-04T11:11:03.000Z</time><ele>1204</ele></trkpt><trkpt lat="45.854898" lon="9.193269"><time>2024-05-04T11:11:04.000Z</time><ele>1204.4</ele></trkpt><trkpt lat="45.854896" lon="9.193255"><time>2024-05-04T11:11:05.000Z</time><ele>1204.4</ele></trkpt><trkpt lat="45.854892" lon="9.193244"><time>2024-05-04T11:11:06.000Z</time><ele>1204.6</ele></trkpt><trkpt lat="45.854886" lon="9.193236"><time>2024-05-04T11:11:07.000Z</time><ele>1204.6</ele></trkpt><trkpt lat="45.854876" lon="9.193229"><time>2024-05-04T11:11:08.000Z</time><ele>1204.8</ele></trkpt><trkpt lat="45.854866" lon="9.193218"><time>2024-05-04T11:11:09.000Z</time><ele>1204.8</ele></trkpt><trkpt lat="45.854851" lon="9.193203"><time>2024-05-04T11:11:10.000Z</time><ele>1204.8</ele></trkpt><trkpt lat="45.854834" lon="9.193188"><time>2024-05-04T11:11:11.000Z</time><ele>1205</ele></trkpt><trkpt lat="45.854823" lon="9.193178"><time>2024-05-04T11:11:12.000Z</time><ele>1205.2</ele></trkpt><trkpt lat="45.854812" lon="9.193168"><time>2024-05-04T11:11:13.000Z</time><ele>1205.4</ele></trkpt><trkpt lat="45.854804" lon="9.193157"><time>2024-05-04T11:11:14.000Z</time><ele>1205.4</ele></trkpt><trkpt lat="45.854795" lon="9.193151"><time>2024-05-04T11:11:15.000Z</time><ele>1205.4</ele></trkpt><trkpt lat="45.854788" lon="9.193144"><time>2024-05-04T11:11:16.000Z</time><ele>1205.4</ele></trkpt><trkpt lat="45.854783" lon="9.193135"><time>2024-05-04T11:11:17.000Z</time><ele>1205.4</ele></trkpt><trkpt lat="45.854772" lon="9.193118"><time>2024-05-04T11:11:18.000Z</time><ele>1205.4</ele></trkpt><trkpt lat="45.854763" lon="9.193101"><time>2024-05-04T11:11:19.000Z</time><ele>1205.4</ele></trkpt><trkpt lat="45.854757" lon="9.19309"><time>2024-05-04T11:11:20.000Z</time><ele>1205.4</ele></trkpt><trkpt lat="45.854747" lon="9.193083"><time>2024-05-04T11:11:21.000Z</time><ele>1205.6</ele></trkpt><trkpt lat="45.854736" lon="9.193074"><time>2024-05-04T11:11:22.000Z</time><ele>1205.8</ele></trkpt><trkpt lat="45.854721" lon="9.193065"><time>2024-05-04T11:11:23.000Z</time><ele>1205.8</ele></trkpt><trkpt lat="45.854709" lon="9.193056"><time>2024-05-04T11:11:24.000Z</time><ele>1206</ele></trkpt><trkpt lat="45.854699" lon="9.193042"><time>2024-05-04T11:11:25.000Z</time><ele>1206</ele></trkpt><trkpt lat="45.854687" lon="9.193032"><time>2024-05-04T11:11:26.000Z</time><ele>1206</ele></trkpt><trkpt lat="45.854678" lon="9.19302"><time>2024-05-04T11:11:27.000Z</time><ele>1206</ele></trkpt><trkpt lat="45.854672" lon="9.193003"><time>2024-05-04T11:11:28.000Z</time><ele>1205.8</ele></trkpt><trkpt lat="45.854668" lon="9.192994"><time>2024-05-04T11:11:29.000Z</time><ele>1205.6</ele></trkpt><trkpt lat="45.854666" lon="9.192981"><time>2024-05-04T11:11:30.000Z</time><ele>1205.6</ele></trkpt><trkpt lat="45.854666" lon="9.192968"><time>2024-05-04T11:11:31.000Z</time><ele>1205.4</ele></trkpt><trkpt lat="45.854663" lon="9.192964"><time>2024-05-04T11:11:32.000Z</time><ele>1205.4</ele></trkpt><trkpt lat="45.854663" lon="9.192961"><time>2024-05-04T11:11:33.000Z</time><ele>1205.4</ele></trkpt><trkpt lat="45.854664" lon="9.192962"><time>2024-05-04T11:11:34.000Z</time><ele>1205.6</ele></trkpt><trkpt lat="45.854666" lon="9.192964"><time>2024-05-04T11:11:35.000Z</time><ele>1205.8</ele></trkpt><trkpt lat="45.854668" lon="9.192967"><time>2024-05-04T11:11:36.000Z</time><ele>1205.8</ele></trkpt><trkpt lat="45.854668" lon="9.192965"><time>2024-05-04T11:11:37.000Z</time><ele>1205.8</ele></trkpt><trkpt lat="45.854665" lon="9.192949"><time>2024-05-04T11:11:38.000Z</time><ele>1205.8</ele></trkpt><trkpt lat="45.854664" lon="9.192934"><time>2024-05-04T11:11:39.000Z</time><ele>1205.8</ele></trkpt><trkpt lat="45.854664" lon="9.192928"><time>2024-05-04T11:11:40.000Z</time><ele>1205.8</ele></trkpt><trkpt lat="45.854663" lon="9.192923"><time>2024-05-04T11:11:41.000Z</time><ele>1205.8</ele></trkpt><trkpt lat="45.854662" lon="9.192919"><time>2024-05-04T11:11:42.000Z</time><ele>1205.8</ele></trkpt><trkpt lat="45.854661" lon="9.192916"><time>2024-05-04T11:11:43.000Z</time><ele>1205.8</ele></trkpt><trkpt lat="45.854643" lon="9.192903"><time>2024-05-04T11:11:44.000Z</time><ele>1205.6</ele></trkpt><trkpt lat="45.854641" lon="9.192899"><time>2024-05-04T11:11:45.000Z</time><ele>1205.6</ele></trkpt><trkpt lat="45.854636" lon="9.192894"><time>2024-05-04T11:11:46.000Z</time><ele>1205.6</ele></trkpt><trkpt lat="45.854634" lon="9.192885"><time>2024-05-04T11:11:47.000Z</time><ele>1205.6</ele></trkpt><trkpt lat="45.854631" lon="9.192876"><time>2024-05-04T11:11:48.000Z</time><ele>1205.4</ele></trkpt><trkpt lat="45.854626" lon="9.192869"><time>2024-05-04T11:11:49.000Z</time><ele>1205.4</ele></trkpt><trkpt lat="45.854622" lon="9.192866"><time>2024-05-04T11:11:50.000Z</time><ele>1205.4</ele></trkpt><trkpt lat="45.854618" lon="9.192856"><time>2024-05-04T11:11:51.000Z</time><ele>1205.4</ele></trkpt><trkpt lat="45.854608" lon="9.192843"><time>2024-05-04T11:11:52.000Z</time><ele>1205.2</ele></trkpt><trkpt lat="45.854602" lon="9.192832"><time>2024-05-04T11:11:53.000Z</time><ele>1204.8</ele></trkpt><trkpt lat="45.854597" lon="9.192823"><time>2024-05-04T11:11:54.000Z</time><ele>1204.8</ele></trkpt><trkpt lat="45.854596" lon="9.192817"><time>2024-05-04T11:11:55.000Z</time><ele>1204.6</ele></trkpt><trkpt lat="45.854601" lon="9.192814"><time>2024-05-04T11:11:56.000Z</time><ele>1204.6</ele></trkpt><trkpt lat="45.8546" lon="9.19281"><time>2024-05-04T11:11:57.000Z</time><ele>1204.4</ele></trkpt><trkpt lat="45.854595" lon="9.192798"><time>2024-05-04T11:11:58.000Z</time><ele>1204.4</ele></trkpt><trkpt lat="45.854587" lon="9.192785"><time>2024-05-04T11:11:59.000Z</time><ele>1204.4</ele></trkpt><trkpt lat="45.854579" lon="9.192771"><time>2024-05-04T11:12:00.000Z</time><ele>1204.4</ele></trkpt><trkpt lat="45.85457" lon="9.192765"><time>2024-05-04T11:12:01.000Z</time><ele>1204.4</ele></trkpt><trkpt lat="45.854562" lon="9.192753"><time>2024-05-04T11:12:02.000Z</time><ele>1204.4</ele></trkpt><trkpt lat="45.854554" lon="9.19274"><time>2024-05-04T11:12:03.000Z</time><ele>1204.4</ele></trkpt><trkpt lat="45.854545" lon="9.192725"><time>2024-05-04T11:12:04.000Z</time><ele>1204.2</ele></trkpt><trkpt lat="45.85454" lon="9.192709"><time>2024-05-04T11:12:05.000Z</time><ele>1204.2</ele></trkpt><trkpt lat="45.854536" lon="9.192696"><time>2024-05-04T11:12:06.000Z</time><ele>1204.2</ele></trkpt><trkpt lat="45.854533" lon="9.192686"><time>2024-05-04T11:12:07.000Z</time><ele>1204.2</ele></trkpt><trkpt lat="45.854527" lon="9.192674"><time>2024-05-04T11:12:08.000Z</time><ele>1204.2</ele></trkpt><trkpt lat="45.854522" lon="9.192658"><time>2024-05-04T11:12:09.000Z</time><ele>1204.2</ele></trkpt><trkpt lat="45.854516" lon="9.19264"><time>2024-05-04T11:12:10.000Z</time><ele>1204.2</ele></trkpt><trkpt lat="45.854511" lon="9.192625"><time>2024-05-04T11:12:11.000Z</time><ele>1204</ele></trkpt><trkpt lat="45.854509" lon="9.192611"><time>2024-05-04T11:12:12.000Z</time><ele>1204</ele></trkpt><trkpt lat="45.854501" lon="9.192598"><time>2024-05-04T11:12:13.000Z</time><ele>1204.2</ele></trkpt><trkpt lat="45.854492" lon="9.192583"><time>2024-05-04T11:12:14.000Z</time><ele>1204.2</ele></trkpt><trkpt lat="45.85448" lon="9.192573"><time>2024-05-04T11:12:15.000Z</time><ele>1204.2</ele></trkpt><trkpt lat="45.854467" lon="9.192565"><time>2024-05-04T11:12:16.000Z</time><ele>1204.2</ele></trkpt><trkpt lat="45.854464" lon="9.192565"><time>2024-05-04T11:12:17.000Z</time><ele>1204.4</ele></trkpt><trkpt lat="45.854462" lon="9.192565"><time>2024-05-04T11:12:18.000Z</time><ele>1204.4</ele></trkpt><trkpt lat="45.854449" lon="9.192537"><time>2024-05-04T11:12:19.000Z</time><ele>1204.4</ele></trkpt><trkpt lat="45.854447" lon="9.192536"><time>2024-05-04T11:12:20.000Z</time><ele>1204.4</ele></trkpt><trkpt lat="45.854447" lon="9.192537"><time>2024-05-04T11:12:21.000Z</time><ele>1204.6</ele></trkpt><trkpt lat="45.854444" lon="9.192519"><time>2024-05-04T11:12:22.000Z</time><ele>1204.6</ele></trkpt><trkpt lat="45.854444" lon="9.192517"><time>2024-05-04T11:12:23.000Z</time><ele>1204.6</ele></trkpt><trkpt lat="45.854445" lon="9.192517"><time>2024-05-04T11:12:24.000Z</time><ele>1204.6</ele></trkpt><trkpt lat="45.854446" lon="9.192517"><time>2024-05-04T11:12:25.000Z</time><ele>1204.6</ele></trkpt><trkpt lat="45.854442" lon="9.192517"><time>2024-05-04T11:12:26.000Z</time><ele>1204.6</ele></trkpt><trkpt lat="45.854434" lon="9.19251"><time>2024-05-04T11:12:27.000Z</time><ele>1204.6</ele></trkpt><trkpt lat="45.854422" lon="9.192498"><time>2024-05-04T11:12:28.000Z</time><ele>1204.6</ele></trkpt><trkpt lat="45.854412" lon="9.192482"><time>2024-05-04T11:12:29.000Z</time><ele>1204.8</ele></trkpt><trkpt lat="45.854413" lon="9.192478"><time>2024-05-04T11:12:30.000Z</time><ele>1204.8</ele></trkpt><trkpt lat="45.854415" lon="9.192476"><time>2024-05-04T11:12:31.000Z</time><ele>1204.8</ele></trkpt><trkpt lat="45.854414" lon="9.192475"><time>2024-05-04T11:12:32.000Z</time><ele>1205</ele></trkpt><trkpt lat="45.854411" lon="9.192474"><time>2024-05-04T11:12:33.000Z</time><ele>1205</ele></trkpt><trkpt lat="45.854409" lon="9.192473"><time>2024-05-04T11:12:34.000Z</time><ele>1205.2</ele></trkpt><trkpt lat="45.85441" lon="9.192473"><time>2024-05-04T11:12:35.000Z</time><ele>1205.4</ele></trkpt><trkpt lat="45.854413" lon="9.192472"><time>2024-05-04T11:12:36.000Z</time><ele>1205.8</ele></trkpt><trkpt lat="45.854414" lon="9.192464"><time>2024-05-04T11:12:37.000Z</time><ele>1206</ele></trkpt><trkpt lat="45.85441" lon="9.192455"><time>2024-05-04T11:12:38.000Z</time><ele>1206</ele></trkpt><trkpt lat="45.854408" lon="9.192449"><time>2024-05-04T11:12:39.000Z</time><ele>1206.4</ele></trkpt><trkpt lat="45.854402" lon="9.192442"><time>2024-05-04T11:12:40.000Z</time><ele>1206.6</ele></trkpt><trkpt lat="45.854392" lon="9.192433"><time>2024-05-04T11:12:41.000Z</time><ele>1206.6</ele></trkpt><trkpt lat="45.854381" lon="9.192425"><time>2024-05-04T11:12:42.000Z</time><ele>1206.8</ele></trkpt><trkpt lat="45.854376" lon="9.192425"><time>2024-05-04T11:12:43.000Z</time><ele>1206.8</ele></trkpt><trkpt lat="45.854375" lon="9.192425"><time>2024-05-04T11:12:44.000Z</time><ele>1207</ele></trkpt><trkpt lat="45.854375" lon="9.192424"><time>2024-05-04T11:12:45.000Z</time><ele>1207.2</ele></trkpt><trkpt lat="45.85437" lon="9.192416"><time>2024-05-04T11:12:46.000Z</time><ele>1207.6</ele></trkpt><trkpt lat="45.85436" lon="9.192403"><time>2024-05-04T11:12:47.000Z</time><ele>1207.6</ele></trkpt><trkpt lat="45.854349" lon="9.192391"><time>2024-05-04T11:12:48.000Z</time><ele>1207.8</ele></trkpt><trkpt lat="45.854345" lon="9.192387"><time>2024-05-04T11:12:49.000Z</time><ele>1208</ele></trkpt><trkpt lat="45.854337" lon="9.19238"><time>2024-05-04T11:12:50.000Z</time><ele>1208.2</ele></trkpt><trkpt lat="45.854329" lon="9.192373"><time>2024-05-04T11:12:51.000Z</time><ele>1208.4</ele></trkpt><trkpt lat="45.854318" lon="9.192363"><time>2024-05-04T11:12:52.000Z</time><ele>1208.8</ele></trkpt><trkpt lat="45.854312" lon="9.19236"><time>2024-05-04T11:12:53.000Z</time><ele>1209</ele></trkpt><trkpt lat="45.854308" lon="9.192356"><time>2024-05-04T11:12:54.000Z</time><ele>1209.2</ele></trkpt><trkpt lat="45.854306" lon="9.192351"><time>2024-05-04T11:12:55.000Z</time><ele>1209.4</ele></trkpt><trkpt lat="45.854305" lon="9.192348"><time>2024-05-04T11:12:56.000Z</time><ele>1209.6</ele></trkpt><trkpt lat="45.854302" lon="9.192345"><time>2024-05-04T11:12:57.000Z</time><ele>1209.8</ele></trkpt><trkpt lat="45.854298" lon="9.192344"><time>2024-05-04T11:12:58.000Z</time><ele>1210</ele></trkpt><trkpt lat="45.85428" lon="9.192337"><time>2024-05-04T11:12:59.000Z</time><ele>1210</ele></trkpt><trkpt lat="45.85426" lon="9.192326"><time>2024-05-04T11:13:00.000Z</time><ele>1210.4</ele></trkpt><trkpt lat="45.85424" lon="9.192302"><time>2024-05-04T11:13:01.000Z</time><ele>1210.6</ele></trkpt><trkpt lat="45.854235" lon="9.192303"><time>2024-05-04T11:13:02.000Z</time><ele>1210.8</ele></trkpt><trkpt lat="45.854231" lon="9.192304"><time>2024-05-04T11:13:03.000Z</time><ele>1211.2</ele></trkpt><trkpt lat="45.854222" lon="9.192301"><time>2024-05-04T11:13:04.000Z</time><ele>1211.4</ele></trkpt><trkpt lat="45.854219" lon="9.1923"><time>2024-05-04T11:13:05.000Z</time><ele>1211.6</ele></trkpt><trkpt lat="45.854217" lon="9.192301"><time>2024-05-04T11:13:06.000Z</time><ele>1212</ele></trkpt><trkpt lat="45.854214" lon="9.1923"><time>2024-05-04T11:13:07.000Z</time><ele>1212.2</ele></trkpt><trkpt lat="45.854214" lon="9.1923"><time>2024-05-04T11:13:08.000Z</time><ele>1212.4</ele></trkpt><trkpt lat="45.854208" lon="9.192292"><time>2024-05-04T11:13:09.000Z</time><ele>1212.4</ele></trkpt><trkpt lat="45.854206" lon="9.192288"><time>2024-05-04T11:13:10.000Z</time><ele>1212.8</ele></trkpt><trkpt lat="45.854207" lon="9.192285"><time>2024-05-04T11:13:11.000Z</time><ele>1213</ele></trkpt><trkpt lat="45.854206" lon="9.192283"><time>2024-05-04T11:13:12.000Z</time><ele>1213.2</ele></trkpt><trkpt lat="45.854199" lon="9.192278"><time>2024-05-04T11:13:13.000Z</time><ele>1213.4</ele></trkpt><trkpt lat="45.854195" lon="9.192273"><time>2024-05-04T11:13:14.000Z</time><ele>1213.6</ele></trkpt><trkpt lat="45.854193" lon="9.192266"><time>2024-05-04T11:13:15.000Z</time><ele>1213.6</ele></trkpt><trkpt lat="45.854185" lon="9.192259"><time>2024-05-04T11:13:16.000Z</time><ele>1214</ele></trkpt><trkpt lat="45.854174" lon="9.192258"><time>2024-05-04T11:13:17.000Z</time><ele>1214</ele></trkpt><trkpt lat="45.854171" lon="9.192258"><time>2024-05-04T11:13:18.000Z</time><ele>1214.2</ele></trkpt><trkpt lat="45.854168" lon="9.192258"><time>2024-05-04T11:13:19.000Z</time><ele>1214.4</ele></trkpt><trkpt lat="45.854167" lon="9.192253"><time>2024-05-04T11:13:20.000Z</time><ele>1214.6</ele></trkpt><trkpt lat="45.85416" lon="9.192246"><time>2024-05-04T11:13:21.000Z</time><ele>1214.6</ele></trkpt><trkpt lat="45.854155" lon="9.192243"><time>2024-05-04T11:13:22.000Z</time><ele>1215</ele></trkpt><trkpt lat="45.854149" lon="9.192234"><time>2024-05-04T11:13:23.000Z</time><ele>1215.2</ele></trkpt><trkpt lat="45.854146" lon="9.192235"><time>2024-05-04T11:13:24.000Z</time><ele>1215.4</ele></trkpt><trkpt lat="45.854131" lon="9.192222"><time>2024-05-04T11:13:25.000Z</time><ele>1215.6</ele></trkpt><trkpt lat="45.854128" lon="9.192223"><time>2024-05-04T11:13:26.000Z</time><ele>1215.8</ele></trkpt><trkpt lat="45.854125" lon="9.192224"><time>2024-05-04T11:13:27.000Z</time><ele>1216</ele></trkpt><trkpt lat="45.854125" lon="9.192226"><time>2024-05-04T11:13:28.000Z</time><ele>1216.2</ele></trkpt><trkpt lat="45.854125" lon="9.192224"><time>2024-05-04T11:13:29.000Z</time><ele>1216.4</ele></trkpt><trkpt lat="45.854117" lon="9.192216"><time>2024-05-04T11:13:30.000Z</time><ele>1216.6</ele></trkpt><trkpt lat="45.854105" lon="9.192208"><time>2024-05-04T11:13:31.000Z</time><ele>1216.8</ele></trkpt><trkpt lat="45.854092" lon="9.192196"><time>2024-05-04T11:13:32.000Z</time><ele>1216.8</ele></trkpt><trkpt lat="45.854081" lon="9.192183"><time>2024-05-04T11:13:33.000Z</time><ele>1216.8</ele></trkpt><trkpt lat="45.85407" lon="9.192172"><time>2024-05-04T11:13:34.000Z</time><ele>1217.2</ele></trkpt><trkpt lat="45.854068" lon="9.192171"><time>2024-05-04T11:13:35.000Z</time><ele>1217.4</ele></trkpt><trkpt lat="45.854065" lon="9.192166"><time>2024-05-04T11:13:36.000Z</time><ele>1217.6</ele></trkpt><trkpt lat="45.854062" lon="9.192156"><time>2024-05-04T11:13:37.000Z</time><ele>1217.8</ele></trkpt><trkpt lat="45.854059" lon="9.192145"><time>2024-05-04T11:13:38.000Z</time><ele>1218</ele></trkpt><trkpt lat="45.854056" lon="9.192132"><time>2024-05-04T11:13:39.000Z</time><ele>1218.2</ele></trkpt><trkpt lat="45.854057" lon="9.192126"><time>2024-05-04T11:13:40.000Z</time><ele>1218.4</ele></trkpt><trkpt lat="45.854052" lon="9.192113"><time>2024-05-04T11:13:41.000Z</time><ele>1218.4</ele></trkpt><trkpt lat="45.854051" lon="9.192109"><time>2024-05-04T11:13:42.000Z</time><ele>1218.6</ele></trkpt><trkpt lat="45.854041" lon="9.192097"><time>2024-05-04T11:13:43.000Z</time><ele>1218.8</ele></trkpt><trkpt lat="45.854028" lon="9.192086"><time>2024-05-04T11:13:44.000Z</time><ele>1218.8</ele></trkpt><trkpt lat="45.854016" lon="9.192075"><time>2024-05-04T11:13:45.000Z</time><ele>1219</ele></trkpt><trkpt lat="45.854012" lon="9.192071"><time>2024-05-04T11:13:46.000Z</time><ele>1219.2</ele></trkpt><trkpt lat="45.854009" lon="9.192069"><time>2024-05-04T11:13:47.000Z</time><ele>1219.4</ele></trkpt><trkpt lat="45.854006" lon="9.192066"><time>2024-05-04T11:13:48.000Z</time><ele>1219.6</ele></trkpt><trkpt lat="45.853995" lon="9.192053"><time>2024-05-04T11:13:49.000Z</time><ele>1219.6</ele></trkpt><trkpt lat="45.853992" lon="9.192051"><time>2024-05-04T11:13:50.000Z</time><ele>1219.8</ele></trkpt><trkpt lat="45.853986" lon="9.192039"><time>2024-05-04T11:13:51.000Z</time><ele>1220.2</ele></trkpt><trkpt lat="45.853982" lon="9.192036"><time>2024-05-04T11:13:52.000Z</time><ele>1220.4</ele></trkpt><trkpt lat="45.85398" lon="9.192034"><time>2024-05-04T11:13:53.000Z</time><ele>1220.6</ele></trkpt><trkpt lat="45.85398" lon="9.192035"><time>2024-05-04T11:13:54.000Z</time><ele>1220.6</ele></trkpt><trkpt lat="45.853973" lon="9.192031"><time>2024-05-04T11:13:55.000Z</time><ele>1220.8</ele></trkpt><trkpt lat="45.853972" lon="9.192029"><time>2024-05-04T11:13:56.000Z</time><ele>1221</ele></trkpt><trkpt lat="45.85396" lon="9.192015"><time>2024-05-04T11:13:57.000Z</time><ele>1221.4</ele></trkpt><trkpt lat="45.853947" lon="9.192007"><time>2024-05-04T11:13:58.000Z</time><ele>1221.6</ele></trkpt><trkpt lat="45.853936" lon="9.19201"><time>2024-05-04T11:13:59.000Z</time><ele>1221.8</ele></trkpt><trkpt lat="45.853927" lon="9.192011"><time>2024-05-04T11:14:00.000Z</time><ele>1222</ele></trkpt><trkpt lat="45.853922" lon="9.19201"><time>2024-05-04T11:14:01.000Z</time><ele>1222.2</ele></trkpt><trkpt lat="45.853918" lon="9.192012"><time>2024-05-04T11:14:02.000Z</time><ele>1222.2</ele></trkpt><trkpt lat="45.853904" lon="9.192012"><time>2024-05-04T11:14:03.000Z</time><ele>1222.4</ele></trkpt><trkpt lat="45.85389" lon="9.19201"><time>2024-05-04T11:14:04.000Z</time><ele>1222.6</ele></trkpt><trkpt lat="45.853881" lon="9.192012"><time>2024-05-04T11:14:05.000Z</time><ele>1222.8</ele></trkpt><trkpt lat="45.853868" lon="9.192012"><time>2024-05-04T11:14:06.000Z</time><ele>1222.8</ele></trkpt><trkpt lat="45.853855" lon="9.192016"><time>2024-05-04T11:14:07.000Z</time><ele>1223</ele></trkpt><trkpt lat="45.853843" lon="9.192019"><time>2024-05-04T11:14:08.000Z</time><ele>1223.4</ele></trkpt><trkpt lat="45.853833" lon="9.192018"><time>2024-05-04T11:14:09.000Z</time><ele>1223.4</ele></trkpt><trkpt lat="45.853824" lon="9.192017"><time>2024-05-04T11:14:10.000Z</time><ele>1223.6</ele></trkpt><trkpt lat="45.853808" lon="9.192006"><time>2024-05-04T11:14:11.000Z</time><ele>1223.8</ele></trkpt><trkpt lat="45.853798" lon="9.191993"><time>2024-05-04T11:14:12.000Z</time><ele>1224</ele></trkpt><trkpt lat="45.853788" lon="9.191984"><time>2024-05-04T11:14:13.000Z</time><ele>1224</ele></trkpt><trkpt lat="45.853779" lon="9.191978"><time>2024-05-04T11:14:14.000Z</time><ele>1224.2</ele></trkpt><trkpt lat="45.853769" lon="9.191976"><time>2024-05-04T11:14:15.000Z</time><ele>1224.2</ele></trkpt><trkpt lat="45.853763" lon="9.191975"><time>2024-05-04T11:14:16.000Z</time><ele>1224.4</ele></trkpt><trkpt lat="45.853759" lon="9.19197"><time>2024-05-04T11:14:17.000Z</time><ele>1224.6</ele></trkpt><trkpt lat="45.853751" lon="9.191964"><time>2024-05-04T11:14:18.000Z</time><ele>1224.8</ele></trkpt><trkpt lat="45.853746" lon="9.191961"><time>2024-05-04T11:14:19.000Z</time><ele>1224.8</ele></trkpt><trkpt lat="45.853745" lon="9.19196"><time>2024-05-04T11:14:20.000Z</time><ele>1225.4</ele></trkpt><trkpt lat="45.853743" lon="9.191958"><time>2024-05-04T11:14:21.000Z</time><ele>1225.6</ele></trkpt><trkpt lat="45.853741" lon="9.191954"><time>2024-05-04T11:14:22.000Z</time><ele>1225.8</ele></trkpt><trkpt lat="45.853739" lon="9.191948"><time>2024-05-04T11:14:23.000Z</time><ele>1226</ele></trkpt><trkpt lat="45.853736" lon="9.191943"><time>2024-05-04T11:14:24.000Z</time><ele>1226</ele></trkpt><trkpt lat="45.853732" lon="9.191937"><time>2024-05-04T11:14:25.000Z</time><ele>1226</ele></trkpt><trkpt lat="45.853729" lon="9.191926"><time>2024-05-04T11:14:26.000Z</time><ele>1225.8</ele></trkpt><trkpt lat="45.853725" lon="9.191918"><time>2024-05-04T11:14:27.000Z</time><ele>1225.8</ele></trkpt><trkpt lat="45.853721" lon="9.19191"><time>2024-05-04T11:14:28.000Z</time><ele>1225.8</ele></trkpt><trkpt lat="45.853717" lon="9.1919"><time>2024-05-04T11:14:29.000Z</time><ele>1225.8</ele></trkpt><trkpt lat="45.853714" lon="9.191893"><time>2024-05-04T11:14:30.000Z</time><ele>1226</ele></trkpt><trkpt lat="45.85371" lon="9.191888"><time>2024-05-04T11:14:31.000Z</time><ele>1226</ele></trkpt><trkpt lat="45.853709" lon="9.191881"><time>2024-05-04T11:14:32.000Z</time><ele>1226.2</ele></trkpt><trkpt lat="45.853706" lon="9.191877"><time>2024-05-04T11:14:33.000Z</time><ele>1226.4</ele></trkpt><trkpt lat="45.853703" lon="9.19187"><time>2024-05-04T11:14:34.000Z</time><ele>1226.6</ele></trkpt><trkpt lat="45.8537" lon="9.191866"><time>2024-05-04T11:14:35.000Z</time><ele>1226.8</ele></trkpt><trkpt lat="45.8537" lon="9.191863"><time>2024-05-04T11:14:36.000Z</time><ele>1227</ele></trkpt><trkpt lat="45.853698" lon="9.191859"><time>2024-05-04T11:14:37.000Z</time><ele>1227.2</ele></trkpt><trkpt lat="45.853697" lon="9.191856"><time>2024-05-04T11:14:38.000Z</time><ele>1227.4</ele></trkpt><trkpt lat="45.853692" lon="9.191847"><time>2024-05-04T11:14:39.000Z</time><ele>1227.4</ele></trkpt><trkpt lat="45.853689" lon="9.191838"><time>2024-05-04T11:14:40.000Z</time><ele>1227.4</ele></trkpt><trkpt lat="45.853683" lon="9.19183"><time>2024-05-04T11:14:41.000Z</time><ele>1227.6</ele></trkpt><trkpt lat="45.85368" lon="9.191821"><time>2024-05-04T11:14:42.000Z</time><ele>1227.6</ele></trkpt><trkpt lat="45.853673" lon="9.191815"><time>2024-05-04T11:14:43.000Z</time><ele>1227.8</ele></trkpt><trkpt lat="45.853672" lon="9.19181"><time>2024-05-04T11:14:44.000Z</time><ele>1227.8</ele></trkpt><trkpt lat="45.853666" lon="9.191803"><time>2024-05-04T11:14:45.000Z</time><ele>1228</ele></trkpt><trkpt lat="45.85366" lon="9.191794"><time>2024-05-04T11:14:46.000Z</time><ele>1228.2</ele></trkpt><trkpt lat="45.853654" lon="9.191788"><time>2024-05-04T11:14:47.000Z</time><ele>1228.4</ele></trkpt><trkpt lat="45.853652" lon="9.191783"><time>2024-05-04T11:14:48.000Z</time><ele>1228.8</ele></trkpt><trkpt lat="45.853652" lon="9.191781"><time>2024-05-04T11:14:49.000Z</time><ele>1229.2</ele></trkpt><trkpt lat="45.853651" lon="9.191781"><time>2024-05-04T11:14:50.000Z</time><ele>1229.4</ele></trkpt><trkpt lat="45.853649" lon="9.191776"><time>2024-05-04T11:14:51.000Z</time><ele>1229.6</ele></trkpt><trkpt lat="45.853647" lon="9.191771"><time>2024-05-04T11:14:52.000Z</time><ele>1229.8</ele></trkpt><trkpt lat="45.853646" lon="9.191769"><time>2024-05-04T11:14:53.000Z</time><ele>1230</ele></trkpt><trkpt lat="45.853646" lon="9.191768"><time>2024-05-04T11:14:54.000Z</time><ele>1230.2</ele></trkpt><trkpt lat="45.853645" lon="9.191764"><time>2024-05-04T11:14:55.000Z</time><ele>1230.6</ele></trkpt><trkpt lat="45.853643" lon="9.191759"><time>2024-05-04T11:14:56.000Z</time><ele>1230.8</ele></trkpt><trkpt lat="45.853637" lon="9.191754"><time>2024-05-04T11:14:57.000Z</time><ele>1231</ele></trkpt><trkpt lat="45.853632" lon="9.191745"><time>2024-05-04T11:14:58.000Z</time><ele>1231</ele></trkpt><trkpt lat="45.853629" lon="9.191741"><time>2024-05-04T11:14:59.000Z</time><ele>1231.2</ele></trkpt><trkpt lat="45.853628" lon="9.191735"><time>2024-05-04T11:15:00.000Z</time><ele>1231.4</ele></trkpt><trkpt lat="45.853623" lon="9.191728"><time>2024-05-04T11:15:01.000Z</time><ele>1231.8</ele></trkpt><trkpt lat="45.85362" lon="9.191724"><time>2024-05-04T11:15:02.000Z</time><ele>1232</ele></trkpt><trkpt lat="45.853612" lon="9.191715"><time>2024-05-04T11:15:03.000Z</time><ele>1232.2</ele></trkpt><trkpt lat="45.853606" lon="9.191708"><time>2024-05-04T11:15:04.000Z</time><ele>1232.4</ele></trkpt><trkpt lat="45.853598" lon="9.191703"><time>2024-05-04T11:15:05.000Z</time><ele>1232.4</ele></trkpt><trkpt lat="45.853589" lon="9.191698"><time>2024-05-04T11:15:06.000Z</time><ele>1232.4</ele></trkpt><trkpt lat="45.853585" lon="9.191696"><time>2024-05-04T11:15:07.000Z</time><ele>1232.6</ele></trkpt><trkpt lat="45.853572" lon="9.191684"><time>2024-05-04T11:15:08.000Z</time><ele>1232.8</ele></trkpt><trkpt lat="45.853569" lon="9.191682"><time>2024-05-04T11:15:09.000Z</time><ele>1233</ele></trkpt><trkpt lat="45.853568" lon="9.191681"><time>2024-05-04T11:15:10.000Z</time><ele>1233</ele></trkpt><trkpt lat="45.853568" lon="9.191681"><time>2024-05-04T11:15:11.000Z</time><ele>1233.2</ele></trkpt><trkpt lat="45.853569" lon="9.191682"><time>2024-05-04T11:15:12.000Z</time><ele>1233.2</ele></trkpt><trkpt lat="45.853571" lon="9.191684"><time>2024-05-04T11:15:13.000Z</time><ele>1233.4</ele></trkpt><trkpt lat="45.853571" lon="9.191684"><time>2024-05-04T11:15:14.000Z</time><ele>1233.4</ele></trkpt><trkpt lat="45.853571" lon="9.191683"><time>2024-05-04T11:15:15.000Z</time><ele>1233.6</ele></trkpt><trkpt lat="45.853571" lon="9.191681"><time>2024-05-04T11:15:16.000Z</time><ele>1233.6</ele></trkpt><trkpt lat="45.85357" lon="9.19168"><time>2024-05-04T11:15:17.000Z</time><ele>1233.8</ele></trkpt><trkpt lat="45.853568" lon="9.191679"><time>2024-05-04T11:15:18.000Z</time><ele>1233.8</ele></trkpt><trkpt lat="45.853555" lon="9.191664"><time>2024-05-04T11:15:19.000Z</time><ele>1233.8</ele></trkpt><trkpt lat="45.853542" lon="9.191651"><time>2024-05-04T11:15:20.000Z</time><ele>1234</ele></trkpt><trkpt lat="45.853534" lon="9.191642"><time>2024-05-04T11:15:21.000Z</time><ele>1234</ele></trkpt><trkpt lat="45.853529" lon="9.19164"><time>2024-05-04T11:15:22.000Z</time><ele>1234</ele></trkpt><trkpt lat="45.853519" lon="9.191642"><time>2024-05-04T11:15:23.000Z</time><ele>1234.2</ele></trkpt><trkpt lat="45.853508" lon="9.191641"><time>2024-05-04T11:15:24.000Z</time><ele>1234.2</ele></trkpt><trkpt lat="45.853498" lon="9.191633"><time>2024-05-04T11:15:25.000Z</time><ele>1234.2</ele></trkpt><trkpt lat="45.853491" lon="9.191622"><time>2024-05-04T11:15:26.000Z</time><ele>1234.2</ele></trkpt><trkpt lat="45.853485" lon="9.191614"><time>2024-05-04T11:15:27.000Z</time><ele>1234.4</ele></trkpt><trkpt lat="45.853479" lon="9.191611"><time>2024-05-04T11:15:28.000Z</time><ele>1234.6</ele></trkpt><trkpt lat="45.853468" lon="9.19161"><time>2024-05-04T11:15:29.000Z</time><ele>1234.6</ele></trkpt><trkpt lat="45.853456" lon="9.191608"><time>2024-05-04T11:15:30.000Z</time><ele>1234.8</ele></trkpt><trkpt lat="45.853454" lon="9.191609"><time>2024-05-04T11:15:31.000Z</time><ele>1234.8</ele></trkpt><trkpt lat="45.853453" lon="9.19161"><time>2024-05-04T11:15:32.000Z</time><ele>1235</ele></trkpt><trkpt lat="45.853455" lon="9.19161"><time>2024-05-04T11:15:33.000Z</time><ele>1235</ele></trkpt><trkpt lat="45.853457" lon="9.191609"><time>2024-05-04T11:15:34.000Z</time><ele>1235</ele></trkpt><trkpt lat="45.853458" lon="9.191608"><time>2024-05-04T11:15:35.000Z</time><ele>1234.8</ele></trkpt><trkpt lat="45.853452" lon="9.191607"><time>2024-05-04T11:15:36.000Z</time><ele>1234.8</ele></trkpt><trkpt lat="45.853449" lon="9.191607"><time>2024-05-04T11:15:37.000Z</time><ele>1234.8</ele></trkpt><trkpt lat="45.853448" lon="9.191608"><time>2024-05-04T11:15:38.000Z</time><ele>1234.8</ele></trkpt><trkpt lat="45.853438" lon="9.191607"><time>2024-05-04T11:15:39.000Z</time><ele>1234.8</ele></trkpt><trkpt lat="45.85344" lon="9.191611"><time>2024-05-04T11:15:40.000Z</time><ele>1234.8</ele></trkpt><trkpt lat="45.853441" lon="9.191614"><time>2024-05-04T11:15:41.000Z</time><ele>1234.8</ele></trkpt><trkpt lat="45.853443" lon="9.191614"><time>2024-05-04T11:15:42.000Z</time><ele>1234.8</ele></trkpt><trkpt lat="45.853444" lon="9.191614"><time>2024-05-04T11:15:43.000Z</time><ele>1234.8</ele></trkpt><trkpt lat="45.853444" lon="9.191614"><time>2024-05-04T11:15:44.000Z</time><ele>1234.8</ele></trkpt><trkpt lat="45.853444" lon="9.191614"><time>2024-05-04T11:15:45.000Z</time><ele>1234.8</ele></trkpt><trkpt lat="45.853444" lon="9.191614"><time>2024-05-04T11:15:46.000Z</time><ele>1234.8</ele></trkpt><trkpt lat="45.853444" lon="9.191614"><time>2024-05-04T11:15:47.000Z</time><ele>1235</ele></trkpt><trkpt lat="45.853444" lon="9.191614"><time>2024-05-04T11:15:48.000Z</time><ele>1235</ele></trkpt><trkpt lat="45.853444" lon="9.191614"><time>2024-05-04T11:15:49.000Z</time><ele>1235</ele></trkpt><trkpt lat="45.853444" lon="9.191614"><time>2024-05-04T11:15:50.000Z</time><ele>1235</ele></trkpt><trkpt lat="45.853444" lon="9.191614"><time>2024-05-04T11:15:51.000Z</time><ele>1235</ele></trkpt><trkpt lat="45.853444" lon="9.191614"><time>2024-05-04T11:15:52.000Z</time><ele>1235</ele></trkpt><trkpt lat="45.853444" lon="9.191612"><time>2024-05-04T11:15:53.000Z</time><ele>1235</ele></trkpt><trkpt lat="45.853444" lon="9.191608"><time>2024-05-04T11:15:54.000Z</time><ele>1235</ele></trkpt><trkpt lat="45.853444" lon="9.191608"><time>2024-05-04T11:15:55.000Z</time><ele>1235</ele></trkpt><trkpt lat="45.853444" lon="9.191607"><time>2024-05-04T11:15:56.000Z</time><ele>1235</ele></trkpt><trkpt lat="45.853444" lon="9.191607"><time>2024-05-04T11:15:57.000Z</time><ele>1235</ele></trkpt><trkpt lat="45.853444" lon="9.191607"><time>2024-05-04T11:15:58.000Z</time><ele>1235</ele></trkpt><trkpt lat="45.853444" lon="9.191607"><time>2024-05-04T11:15:59.000Z</time><ele>1235.2</ele></trkpt><trkpt lat="45.853444" lon="9.191607"><time>2024-05-04T11:16:00.000Z</time><ele>1235.4</ele></trkpt><trkpt lat="45.853444" lon="9.191605"><time>2024-05-04T11:16:01.000Z</time><ele>1235.4</ele></trkpt><trkpt lat="45.853444" lon="9.191605"><time>2024-05-04T11:16:02.000Z</time><ele>1235.6</ele></trkpt><trkpt lat="45.853444" lon="9.191605"><time>2024-05-04T11:16:03.000Z</time><ele>1235.6</ele></trkpt><trkpt lat="45.853444" lon="9.191605"><time>2024-05-04T11:16:04.000Z</time><ele>1235.6</ele></trkpt><trkpt lat="45.853444" lon="9.191605"><time>2024-05-04T11:16:05.000Z</time><ele>1235.6</ele></trkpt><trkpt lat="45.853444" lon="9.191605"><time>2024-05-04T11:16:06.000Z</time><ele>1235.6</ele></trkpt><trkpt lat="45.853444" lon="9.191605"><time>2024-05-04T11:16:07.000Z</time><ele>1235.6</ele></trkpt><trkpt lat="45.853444" lon="9.191605"><time>2024-05-04T11:16:08.000Z</time><ele>1235.6</ele></trkpt><trkpt lat="45.853444" lon="9.191605"><time>2024-05-04T11:16:09.000Z</time><ele>1235.6</ele></trkpt><trkpt lat="45.853444" lon="9.191605"><time>2024-05-04T11:16:10.000Z</time><ele>1235.4</ele></trkpt><trkpt lat="45.853445" lon="9.191605"><time>2024-05-04T11:16:11.000Z</time><ele>1235.4</ele></trkpt><trkpt lat="45.853446" lon="9.191605"><time>2024-05-04T11:16:12.000Z</time><ele>1235.4</ele></trkpt><trkpt lat="45.853447" lon="9.191605"><time>2024-05-04T11:16:13.000Z</time><ele>1235.4</ele></trkpt><trkpt lat="45.853449" lon="9.191605"><time>2024-05-04T11:16:14.000Z</time><ele>1235.2</ele></trkpt><trkpt lat="45.85345" lon="9.191607"><time>2024-05-04T11:16:15.000Z</time><ele>1235.2</ele></trkpt><trkpt lat="45.853451" lon="9.191608"><time>2024-05-04T11:16:16.000Z</time><ele>1235.2</ele></trkpt><trkpt lat="45.853451" lon="9.191609"><time>2024-05-04T11:16:17.000Z</time><ele>1235.4</ele></trkpt><trkpt lat="45.853451" lon="9.191609"><time>2024-05-04T11:16:18.000Z</time><ele>1235.4</ele></trkpt><trkpt lat="45.853452" lon="9.19161"><time>2024-05-04T11:16:19.000Z</time><ele>1235.4</ele></trkpt><trkpt lat="45.853452" lon="9.191612"><time>2024-05-04T11:16:20.000Z</time><ele>1235.4</ele></trkpt><trkpt lat="45.853452" lon="9.191613"><time>2024-05-04T11:16:21.000Z</time><ele>1235.4</ele></trkpt><trkpt lat="45.853452" lon="9.191613"><time>2024-05-04T11:16:22.000Z</time><ele>1235.4</ele></trkpt><trkpt lat="45.853452" lon="9.191614"><time>2024-05-04T11:16:23.000Z</time><ele>1235.4</ele></trkpt><trkpt lat="45.853452" lon="9.191616"><time>2024-05-04T11:16:24.000Z</time><ele>1235.2</ele></trkpt><trkpt lat="45.853452" lon="9.191616"><time>2024-05-04T11:16:25.000Z</time><ele>1235.2</ele></trkpt><trkpt lat="45.85345" lon="9.191613"><time>2024-05-04T11:16:26.000Z</time><ele>1235.2</ele></trkpt><trkpt lat="45.853438" lon="9.191605"><time>2024-05-04T11:16:27.000Z</time><ele>1235.2</ele></trkpt><trkpt lat="45.853426" lon="9.191603"><time>2024-05-04T11:16:28.000Z</time><ele>1235</ele></trkpt><trkpt lat="45.853416" lon="9.191598"><time>2024-05-04T11:16:29.000Z</time><ele>1235</ele></trkpt><trkpt lat="45.853406" lon="9.1916"><time>2024-05-04T11:16:30.000Z</time><ele>1235</ele></trkpt><trkpt lat="45.853398" lon="9.191598"><time>2024-05-04T11:16:31.000Z</time><ele>1234.8</ele></trkpt><trkpt lat="45.853385" lon="9.191597"><time>2024-05-04T11:16:32.000Z</time><ele>1234.4</ele></trkpt><trkpt lat="45.853371" lon="9.191595"><time>2024-05-04T11:16:33.000Z</time><ele>1234.2</ele></trkpt><trkpt lat="45.853359" lon="9.191594"><time>2024-05-04T11:16:34.000Z</time><ele>1234</ele></trkpt><trkpt lat="45.853345" lon="9.191595"><time>2024-05-04T11:16:35.000Z</time><ele>1233.6</ele></trkpt><trkpt lat="45.853336" lon="9.1916"><time>2024-05-04T11:16:36.000Z</time><ele>1233.4</ele></trkpt><trkpt lat="45.853325" lon="9.191599"><time>2024-05-04T11:16:37.000Z</time><ele>1233.2</ele></trkpt><trkpt lat="45.853312" lon="9.191599"><time>2024-05-04T11:16:38.000Z</time><ele>1232.8</ele></trkpt><trkpt lat="45.853303" lon="9.191601"><time>2024-05-04T11:16:39.000Z</time><ele>1232.4</ele></trkpt><trkpt lat="45.853293" lon="9.191604"><time>2024-05-04T11:16:40.000Z</time><ele>1232</ele></trkpt><trkpt lat="45.853284" lon="9.191608"><time>2024-05-04T11:16:41.000Z</time><ele>1231.8</ele></trkpt><trkpt lat="45.853278" lon="9.191615"><time>2024-05-04T11:16:42.000Z</time><ele>1231.4</ele></trkpt><trkpt lat="45.85327" lon="9.191621"><time>2024-05-04T11:16:43.000Z</time><ele>1231.2</ele></trkpt><trkpt lat="45.853263" lon="9.191625"><time>2024-05-04T11:16:44.000Z</time><ele>1231</ele></trkpt><trkpt lat="45.853255" lon="9.19163"><time>2024-05-04T11:16:45.000Z</time><ele>1230.6</ele></trkpt><trkpt lat="45.853248" lon="9.191629"><time>2024-05-04T11:16:46.000Z</time><ele>1230.2</ele></trkpt><trkpt lat="45.853244" lon="9.191632"><time>2024-05-04T11:16:47.000Z</time><ele>1229.8</ele></trkpt><trkpt lat="45.853238" lon="9.19164"><time>2024-05-04T11:16:48.000Z</time><ele>1229.6</ele></trkpt><trkpt lat="45.853227" lon="9.19164"><time>2024-05-04T11:16:49.000Z</time><ele>1229.2</ele></trkpt><trkpt lat="45.853221" lon="9.19164"><time>2024-05-04T11:16:50.000Z</time><ele>1229</ele></trkpt><trkpt lat="45.853216" lon="9.191644"><time>2024-05-04T11:16:51.000Z</time><ele>1229</ele></trkpt><trkpt lat="45.853213" lon="9.19165"><time>2024-05-04T11:16:52.000Z</time><ele>1228.6</ele></trkpt><trkpt lat="45.85321" lon="9.191656"><time>2024-05-04T11:16:53.000Z</time><ele>1228.4</ele></trkpt><trkpt lat="45.853205" lon="9.191662"><time>2024-05-04T11:16:54.000Z</time><ele>1228.2</ele></trkpt><trkpt lat="45.853201" lon="9.191671"><time>2024-05-04T11:16:55.000Z</time><ele>1228.2</ele></trkpt><trkpt lat="45.853198" lon="9.191679"><time>2024-05-04T11:16:56.000Z</time><ele>1228</ele></trkpt><trkpt lat="45.853191" lon="9.191681"><time>2024-05-04T11:16:57.000Z</time><ele>1228</ele></trkpt><trkpt lat="45.853185" lon="9.191683"><time>2024-05-04T11:16:58.000Z</time><ele>1227.6</ele></trkpt><trkpt lat="45.853178" lon="9.191683"><time>2024-05-04T11:16:59.000Z</time><ele>1227.4</ele></trkpt><trkpt lat="45.853172" lon="9.191688"><time>2024-05-04T11:17:00.000Z</time><ele>1227.2</ele></trkpt><trkpt lat="45.853166" lon="9.191693"><time>2024-05-04T11:17:01.000Z</time><ele>1227</ele></trkpt><trkpt lat="45.853162" lon="9.191703"><time>2024-05-04T11:17:02.000Z</time><ele>1226.8</ele></trkpt><trkpt lat="45.853159" lon="9.191711"><time>2024-05-04T11:17:03.000Z</time><ele>1226.6</ele></trkpt><trkpt lat="45.853153" lon="9.191722"><time>2024-05-04T11:17:04.000Z</time><ele>1226.4</ele></trkpt><trkpt lat="45.853143" lon="9.191726"><time>2024-05-04T11:17:05.000Z</time><ele>1226</ele></trkpt><trkpt lat="45.853132" lon="9.191734"><time>2024-05-04T11:17:06.000Z</time><ele>1225.8</ele></trkpt><trkpt lat="45.853122" lon="9.19174"><time>2024-05-04T11:17:07.000Z</time><ele>1225.4</ele></trkpt><trkpt lat="45.853117" lon="9.191747"><time>2024-05-04T11:17:08.000Z</time><ele>1225.2</ele></trkpt><trkpt lat="45.853112" lon="9.191755"><time>2024-05-04T11:17:09.000Z</time><ele>1224.8</ele></trkpt><trkpt lat="45.853103" lon="9.191761"><time>2024-05-04T11:17:10.000Z</time><ele>1224.4</ele></trkpt><trkpt lat="45.853097" lon="9.191766"><time>2024-05-04T11:17:11.000Z</time><ele>1224</ele></trkpt><trkpt lat="45.853092" lon="9.19177"><time>2024-05-04T11:17:12.000Z</time><ele>1223.6</ele></trkpt><trkpt lat="45.853081" lon="9.191774"><time>2024-05-04T11:17:13.000Z</time><ele>1223.4</ele></trkpt><trkpt lat="45.853071" lon="9.191776"><time>2024-05-04T11:17:14.000Z</time><ele>1222.8</ele></trkpt><trkpt lat="45.853064" lon="9.191782"><time>2024-05-04T11:17:15.000Z</time><ele>1222.6</ele></trkpt><trkpt lat="45.853055" lon="9.191786"><time>2024-05-04T11:17:16.000Z</time><ele>1222</ele></trkpt><trkpt lat="45.853047" lon="9.191791"><time>2024-05-04T11:17:17.000Z</time><ele>1221.6</ele></trkpt><trkpt lat="45.853044" lon="9.191795"><time>2024-05-04T11:17:18.000Z</time><ele>1221.2</ele></trkpt><trkpt lat="45.853039" lon="9.191798"><time>2024-05-04T11:17:19.000Z</time><ele>1221</ele></trkpt><trkpt lat="45.853035" lon="9.191802"><time>2024-05-04T11:17:20.000Z</time><ele>1220.6</ele></trkpt><trkpt lat="45.853031" lon="9.191808"><time>2024-05-04T11:17:21.000Z</time><ele>1220.4</ele></trkpt><trkpt lat="45.853028" lon="9.191813"><time>2024-05-04T11:17:22.000Z</time><ele>1220</ele></trkpt><trkpt lat="45.853023" lon="9.191819"><time>2024-05-04T11:17:23.000Z</time><ele>1219.8</ele></trkpt><trkpt lat="45.853017" lon="9.191822"><time>2024-05-04T11:17:24.000Z</time><ele>1219.8</ele></trkpt><trkpt lat="45.853013" lon="9.191827"><time>2024-05-04T11:17:25.000Z</time><ele>1219.6</ele></trkpt><trkpt lat="45.853007" lon="9.191829"><time>2024-05-04T11:17:26.000Z</time><ele>1219.6</ele></trkpt><trkpt lat="45.852999" lon="9.191827"><time>2024-05-04T11:17:27.000Z</time><ele>1219.2</ele></trkpt><trkpt lat="45.852992" lon="9.191825"><time>2024-05-04T11:17:28.000Z</time><ele>1218.8</ele></trkpt><trkpt lat="45.852989" lon="9.191829"><time>2024-05-04T11:17:29.000Z</time><ele>1218.6</ele></trkpt><trkpt lat="45.852988" lon="9.191831"><time>2024-05-04T11:17:30.000Z</time><ele>1218.2</ele></trkpt><trkpt lat="45.852989" lon="9.191832"><time>2024-05-04T11:17:31.000Z</time><ele>1218</ele></trkpt><trkpt lat="45.85299" lon="9.191829"><time>2024-05-04T11:17:32.000Z</time><ele>1217.8</ele></trkpt><trkpt lat="45.852987" lon="9.191826"><time>2024-05-04T11:17:33.000Z</time><ele>1217.6</ele></trkpt><trkpt lat="45.852984" lon="9.191826"><time>2024-05-04T11:17:34.000Z</time><ele>1217.4</ele></trkpt><trkpt lat="45.852979" lon="9.191828"><time>2024-05-04T11:17:35.000Z</time><ele>1217.4</ele></trkpt><trkpt lat="45.852973" lon="9.191832"><time>2024-05-04T11:17:36.000Z</time><ele>1217.4</ele></trkpt><trkpt lat="45.852967" lon="9.191837"><time>2024-05-04T11:17:37.000Z</time><ele>1217.2</ele></trkpt><trkpt lat="45.852962" lon="9.191843"><time>2024-05-04T11:17:38.000Z</time><ele>1217</ele></trkpt><trkpt lat="45.852956" lon="9.191851"><time>2024-05-04T11:17:39.000Z</time><ele>1216.8</ele></trkpt><trkpt lat="45.852951" lon="9.191857"><time>2024-05-04T11:17:40.000Z</time><ele>1216.6</ele></trkpt><trkpt lat="45.852943" lon="9.191863"><time>2024-05-04T11:17:41.000Z</time><ele>1216.4</ele></trkpt><trkpt lat="45.852935" lon="9.191872"><time>2024-05-04T11:17:42.000Z</time><ele>1216.2</ele></trkpt><trkpt lat="45.852927" lon="9.191879"><time>2024-05-04T11:17:43.000Z</time><ele>1216</ele></trkpt><trkpt lat="45.852919" lon="9.191888"><time>2024-05-04T11:17:44.000Z</time><ele>1215.6</ele></trkpt><trkpt lat="45.852912" lon="9.191896"><time>2024-05-04T11:17:45.000Z</time><ele>1215.4</ele></trkpt><trkpt lat="45.852902" lon="9.191903"><time>2024-05-04T11:17:46.000Z</time><ele>1215</ele></trkpt><trkpt lat="45.852891" lon="9.19191"><time>2024-05-04T11:17:47.000Z</time><ele>1214.6</ele></trkpt><trkpt lat="45.852881" lon="9.191918"><time>2024-05-04T11:17:48.000Z</time><ele>1214.2</ele></trkpt><trkpt lat="45.852873" lon="9.191926"><time>2024-05-04T11:17:49.000Z</time><ele>1214.2</ele></trkpt><trkpt lat="45.852867" lon="9.191933"><time>2024-05-04T11:17:50.000Z</time><ele>1213.8</ele></trkpt><trkpt lat="45.85286" lon="9.191942"><time>2024-05-04T11:17:51.000Z</time><ele>1213.4</ele></trkpt><trkpt lat="45.852851" lon="9.191945"><time>2024-05-04T11:17:52.000Z</time><ele>1213.2</ele></trkpt><trkpt lat="45.85284" lon="9.191947"><time>2024-05-04T11:17:53.000Z</time><ele>1213.2</ele></trkpt><trkpt lat="45.852831" lon="9.191951"><time>2024-05-04T11:17:54.000Z</time><ele>1213.2</ele></trkpt><trkpt lat="45.852824" lon="9.191956"><time>2024-05-04T11:17:55.000Z</time><ele>1212.8</ele></trkpt><trkpt lat="45.852815" lon="9.191961"><time>2024-05-04T11:17:56.000Z</time><ele>1212.4</ele></trkpt><trkpt lat="45.852809" lon="9.191964"><time>2024-05-04T11:17:57.000Z</time><ele>1212.2</ele></trkpt><trkpt lat="45.852808" lon="9.191966"><time>2024-05-04T11:17:58.000Z</time><ele>1212</ele></trkpt><trkpt lat="45.85281" lon="9.191977"><time>2024-05-04T11:17:59.000Z</time><ele>1211.6</ele></trkpt><trkpt lat="45.852818" lon="9.191982"><time>2024-05-04T11:18:00.000Z</time><ele>1211.4</ele></trkpt><trkpt lat="45.852818" lon="9.191984"><time>2024-05-04T11:18:01.000Z</time><ele>1211.2</ele></trkpt><trkpt lat="45.852819" lon="9.191984"><time>2024-05-04T11:18:02.000Z</time><ele>1211.2</ele></trkpt><trkpt lat="45.852819" lon="9.191984"><time>2024-05-04T11:18:03.000Z</time><ele>1211</ele></trkpt><trkpt lat="45.852818" lon="9.191984"><time>2024-05-04T11:18:04.000Z</time><ele>1211</ele></trkpt><trkpt lat="45.852818" lon="9.191985"><time>2024-05-04T11:18:05.000Z</time><ele>1211</ele></trkpt><trkpt lat="45.852821" lon="9.191985"><time>2024-05-04T11:18:06.000Z</time><ele>1211</ele></trkpt><trkpt lat="45.852822" lon="9.191985"><time>2024-05-04T11:18:07.000Z</time><ele>1211</ele></trkpt><trkpt lat="45.852819" lon="9.191984"><time>2024-05-04T11:18:08.000Z</time><ele>1211</ele></trkpt><trkpt lat="45.852817" lon="9.191984"><time>2024-05-04T11:18:09.000Z</time><ele>1211</ele></trkpt><trkpt lat="45.852811" lon="9.191987"><time>2024-05-04T11:18:10.000Z</time><ele>1210.8</ele></trkpt><trkpt lat="45.852803" lon="9.19199"><time>2024-05-04T11:18:11.000Z</time><ele>1210.8</ele></trkpt><trkpt lat="45.852795" lon="9.191996"><time>2024-05-04T11:18:12.000Z</time><ele>1210.8</ele></trkpt><trkpt lat="45.852788" lon="9.192003"><time>2024-05-04T11:18:13.000Z</time><ele>1210.6</ele></trkpt><trkpt lat="45.85278" lon="9.192012"><time>2024-05-04T11:18:14.000Z</time><ele>1210.6</ele></trkpt><trkpt lat="45.85277" lon="9.19202"><time>2024-05-04T11:18:15.000Z</time><ele>1210.4</ele></trkpt><trkpt lat="45.852759" lon="9.192024"><time>2024-05-04T11:18:16.000Z</time><ele>1210.2</ele></trkpt><trkpt lat="45.852748" lon="9.192028"><time>2024-05-04T11:18:17.000Z</time><ele>1209.8</ele></trkpt><trkpt lat="45.852738" lon="9.19203"><time>2024-05-04T11:18:18.000Z</time><ele>1209.6</ele></trkpt><trkpt lat="45.852729" lon="9.192034"><time>2024-05-04T11:18:19.000Z</time><ele>1209.6</ele></trkpt><trkpt lat="45.85272" lon="9.192041"><time>2024-05-04T11:18:20.000Z</time><ele>1209.4</ele></trkpt><trkpt lat="45.852711" lon="9.192047"><time>2024-05-04T11:18:21.000Z</time><ele>1209</ele></trkpt><trkpt lat="45.852703" lon="9.192055"><time>2024-05-04T11:18:22.000Z</time><ele>1208.8</ele></trkpt><trkpt lat="45.852693" lon="9.192062"><time>2024-05-04T11:18:23.000Z</time><ele>1208.6</ele></trkpt><trkpt lat="45.852683" lon="9.192071"><time>2024-05-04T11:18:24.000Z</time><ele>1208.2</ele></trkpt><trkpt lat="45.852673" lon="9.192079"><time>2024-05-04T11:18:25.000Z</time><ele>1208</ele></trkpt><trkpt lat="45.852661" lon="9.192084"><time>2024-05-04T11:18:26.000Z</time><ele>1208</ele></trkpt><trkpt lat="45.852652" lon="9.19209"><time>2024-05-04T11:18:27.000Z</time><ele>1207.8</ele></trkpt><trkpt lat="45.852646" lon="9.192095"><time>2024-05-04T11:18:28.000Z</time><ele>1207.6</ele></trkpt><trkpt lat="45.852641" lon="9.192103"><time>2024-05-04T11:18:29.000Z</time><ele>1207.2</ele></trkpt><trkpt lat="45.852634" lon="9.19211"><time>2024-05-04T11:18:30.000Z</time><ele>1207</ele></trkpt><trkpt lat="45.852621" lon="9.192107"><time>2024-05-04T11:18:31.000Z</time><ele>1206.6</ele></trkpt><trkpt lat="45.852611" lon="9.192107"><time>2024-05-04T11:18:32.000Z</time><ele>1206.2</ele></trkpt><trkpt lat="45.852604" lon="9.19211"><time>2024-05-04T11:18:33.000Z</time><ele>1206</ele></trkpt><trkpt lat="45.852596" lon="9.192114"><time>2024-05-04T11:18:34.000Z</time><ele>1205.8</ele></trkpt><trkpt lat="45.852584" lon="9.192122"><time>2024-05-04T11:18:35.000Z</time><ele>1205.6</ele></trkpt><trkpt lat="45.852573" lon="9.192134"><time>2024-05-04T11:18:36.000Z</time><ele>1205.4</ele></trkpt><trkpt lat="45.852564" lon="9.192147"><time>2024-05-04T11:18:37.000Z</time><ele>1205.2</ele></trkpt><trkpt lat="45.852554" lon="9.192158"><time>2024-05-04T11:18:38.000Z</time><ele>1204.8</ele></trkpt><trkpt lat="45.852549" lon="9.192174"><time>2024-05-04T11:18:39.000Z</time><ele>1204.8</ele></trkpt><trkpt lat="45.852544" lon="9.192192"><time>2024-05-04T11:18:40.000Z</time><ele>1204.6</ele></trkpt><trkpt lat="45.852535" lon="9.192209"><time>2024-05-04T11:18:41.000Z</time><ele>1204.6</ele></trkpt><trkpt lat="45.852528" lon="9.192224"><time>2024-05-04T11:18:42.000Z</time><ele>1204.6</ele></trkpt><trkpt lat="45.852522" lon="9.192239"><time>2024-05-04T11:18:43.000Z</time><ele>1204.4</ele></trkpt><trkpt lat="45.852515" lon="9.192252"><time>2024-05-04T11:18:44.000Z</time><ele>1204.4</ele></trkpt><trkpt lat="45.852509" lon="9.192265"><time>2024-05-04T11:18:45.000Z</time><ele>1204.4</ele></trkpt><trkpt lat="45.852505" lon="9.192278"><time>2024-05-04T11:18:46.000Z</time><ele>1204.4</ele></trkpt><trkpt lat="45.852498" lon="9.192288"><time>2024-05-04T11:18:47.000Z</time><ele>1204.4</ele></trkpt><trkpt lat="45.852492" lon="9.192298"><time>2024-05-04T11:18:48.000Z</time><ele>1204.2</ele></trkpt><trkpt lat="45.852485" lon="9.192309"><time>2024-05-04T11:18:49.000Z</time><ele>1204.2</ele></trkpt><trkpt lat="45.85248" lon="9.192323"><time>2024-05-04T11:18:50.000Z</time><ele>1204.2</ele></trkpt><trkpt lat="45.852473" lon="9.192338"><time>2024-05-04T11:18:51.000Z</time><ele>1204.2</ele></trkpt><trkpt lat="45.852467" lon="9.192351"><time>2024-05-04T11:18:52.000Z</time><ele>1204.2</ele></trkpt><trkpt lat="45.852459" lon="9.192359"><time>2024-05-04T11:18:53.000Z</time><ele>1204.2</ele></trkpt><trkpt lat="45.85245" lon="9.192365"><time>2024-05-04T11:18:54.000Z</time><ele>1204.2</ele></trkpt><trkpt lat="45.852441" lon="9.192372"><time>2024-05-04T11:18:55.000Z</time><ele>1204.2</ele></trkpt><trkpt lat="45.852433" lon="9.192381"><time>2024-05-04T11:18:56.000Z</time><ele>1204</ele></trkpt><trkpt lat="45.852422" lon="9.192386"><time>2024-05-04T11:18:57.000Z</time><ele>1204</ele></trkpt><trkpt lat="45.852413" lon="9.192393"><time>2024-05-04T11:18:58.000Z</time><ele>1203.8</ele></trkpt><trkpt lat="45.852403" lon="9.1924"><time>2024-05-04T11:18:59.000Z</time><ele>1203.6</ele></trkpt><trkpt lat="45.852392" lon="9.192408"><time>2024-05-04T11:19:00.000Z</time><ele>1203.4</ele></trkpt><trkpt lat="45.852387" lon="9.192412"><time>2024-05-04T11:19:01.000Z</time><ele>1203</ele></trkpt><trkpt lat="45.852387" lon="9.192414"><time>2024-05-04T11:19:02.000Z</time><ele>1202.8</ele></trkpt><trkpt lat="45.852386" lon="9.192418"><time>2024-05-04T11:19:03.000Z</time><ele>1202.4</ele></trkpt><trkpt lat="45.852384" lon="9.192422"><time>2024-05-04T11:19:04.000Z</time><ele>1202.2</ele></trkpt><trkpt lat="45.852379" lon="9.192426"><time>2024-05-04T11:19:05.000Z</time><ele>1202.2</ele></trkpt><trkpt lat="45.852376" lon="9.192429"><time>2024-05-04T11:19:06.000Z</time><ele>1202</ele></trkpt><trkpt lat="45.85237" lon="9.192437"><time>2024-05-04T11:19:07.000Z</time><ele>1202</ele></trkpt><trkpt lat="45.852365" lon="9.192444"><time>2024-05-04T11:19:08.000Z</time><ele>1202</ele></trkpt><trkpt lat="45.852361" lon="9.192449"><time>2024-05-04T11:19:09.000Z</time><ele>1201.6</ele></trkpt><trkpt lat="45.852353" lon="9.19245"><time>2024-05-04T11:19:10.000Z</time><ele>1201.6</ele></trkpt><trkpt lat="45.852344" lon="9.19245"><time>2024-05-04T11:19:11.000Z</time><ele>1201.4</ele></trkpt><trkpt lat="45.852338" lon="9.192453"><time>2024-05-04T11:19:12.000Z</time><ele>1201.4</ele></trkpt><trkpt lat="45.85233" lon="9.192458"><time>2024-05-04T11:19:13.000Z</time><ele>1201.2</ele></trkpt><trkpt lat="45.852321" lon="9.192461"><time>2024-05-04T11:19:14.000Z</time><ele>1200.8</ele></trkpt><trkpt lat="45.852311" lon="9.192466"><time>2024-05-04T11:19:15.000Z</time><ele>1200.6</ele></trkpt><trkpt lat="45.852303" lon="9.192472"><time>2024-05-04T11:19:16.000Z</time><ele>1200.4</ele></trkpt><trkpt lat="45.852294" lon="9.19248"><time>2024-05-04T11:19:17.000Z</time><ele>1200.2</ele></trkpt><trkpt lat="45.852284" lon="9.192484"><time>2024-05-04T11:19:18.000Z</time><ele>1200</ele></trkpt><trkpt lat="45.852275" lon="9.192487"><time>2024-05-04T11:19:19.000Z</time><ele>1200</ele></trkpt><trkpt lat="45.852267" lon="9.192492"><time>2024-05-04T11:19:20.000Z</time><ele>1199.6</ele></trkpt><trkpt lat="45.852258" lon="9.192496"><time>2024-05-04T11:19:21.000Z</time><ele>1199.4</ele></trkpt><trkpt lat="45.852248" lon="9.192499"><time>2024-05-04T11:19:22.000Z</time><ele>1199.2</ele></trkpt><trkpt lat="45.852246" lon="9.192509"><time>2024-05-04T11:19:23.000Z</time><ele>1199</ele></trkpt><trkpt lat="45.852244" lon="9.19252"><time>2024-05-04T11:19:24.000Z</time><ele>1198.8</ele></trkpt><trkpt lat="45.852238" lon="9.192527"><time>2024-05-04T11:19:25.000Z</time><ele>1198.8</ele></trkpt><trkpt lat="45.852231" lon="9.192534"><time>2024-05-04T11:19:26.000Z</time><ele>1198.6</ele></trkpt><trkpt lat="45.852224" lon="9.19254"><time>2024-05-04T11:19:27.000Z</time><ele>1198.4</ele></trkpt><trkpt lat="45.852217" lon="9.192544"><time>2024-05-04T11:19:28.000Z</time><ele>1198.2</ele></trkpt><trkpt lat="45.852207" lon="9.192549"><time>2024-05-04T11:19:29.000Z</time><ele>1198</ele></trkpt><trkpt lat="45.852197" lon="9.192556"><time>2024-05-04T11:19:30.000Z</time><ele>1197.8</ele></trkpt><trkpt lat="45.852191" lon="9.192561"><time>2024-05-04T11:19:31.000Z</time><ele>1197.4</ele></trkpt><trkpt lat="45.85218" lon="9.192566"><time>2024-05-04T11:19:32.000Z</time><ele>1197</ele></trkpt><trkpt lat="45.852173" lon="9.192574"><time>2024-05-04T11:19:33.000Z</time><ele>1197</ele></trkpt><trkpt lat="45.852165" lon="9.192585"><time>2024-05-04T11:19:34.000Z</time><ele>1196.6</ele></trkpt><trkpt lat="45.852157" lon="9.192591"><time>2024-05-04T11:19:35.000Z</time><ele>1196.2</ele></trkpt><trkpt lat="45.852148" lon="9.192597"><time>2024-05-04T11:19:36.000Z</time><ele>1196</ele></trkpt><trkpt lat="45.852141" lon="9.192606"><time>2024-05-04T11:19:37.000Z</time><ele>1195.8</ele></trkpt><trkpt lat="45.852139" lon="9.192617"><time>2024-05-04T11:19:38.000Z</time><ele>1195.6</ele></trkpt><trkpt lat="45.852137" lon="9.192628"><time>2024-05-04T11:19:39.000Z</time><ele>1195.2</ele></trkpt><trkpt lat="45.852133" lon="9.192631"><time>2024-05-04T11:19:40.000Z</time><ele>1195</ele></trkpt><trkpt lat="45.852131" lon="9.192636"><time>2024-05-04T11:19:41.000Z</time><ele>1194.8</ele></trkpt><trkpt lat="45.852127" lon="9.192638"><time>2024-05-04T11:19:42.000Z</time><ele>1194.4</ele></trkpt><trkpt lat="45.852124" lon="9.192643"><time>2024-05-04T11:19:43.000Z</time><ele>1194</ele></trkpt><trkpt lat="45.852121" lon="9.192646"><time>2024-05-04T11:19:44.000Z</time><ele>1193.8</ele></trkpt><trkpt lat="45.852115" lon="9.192648"><time>2024-05-04T11:19:45.000Z</time><ele>1193.6</ele></trkpt><trkpt lat="45.85211" lon="9.19265"><time>2024-05-04T11:19:46.000Z</time><ele>1193.2</ele></trkpt><trkpt lat="45.852102" lon="9.192649"><time>2024-05-04T11:19:47.000Z</time><ele>1193</ele></trkpt><trkpt lat="45.852094" lon="9.192645"><time>2024-05-04T11:19:48.000Z</time><ele>1192.8</ele></trkpt><trkpt lat="45.852088" lon="9.192643"><time>2024-05-04T11:19:49.000Z</time><ele>1192.4</ele></trkpt><trkpt lat="45.852084" lon="9.192641"><time>2024-05-04T11:19:50.000Z</time><ele>1192.2</ele></trkpt><trkpt lat="45.852077" lon="9.192637"><time>2024-05-04T11:19:51.000Z</time><ele>1191.8</ele></trkpt><trkpt lat="45.852069" lon="9.192635"><time>2024-05-04T11:19:52.000Z</time><ele>1191.4</ele></trkpt><trkpt lat="45.852063" lon="9.192633"><time>2024-05-04T11:19:53.000Z</time><ele>1191.2</ele></trkpt><trkpt lat="45.852057" lon="9.192633"><time>2024-05-04T11:19:54.000Z</time><ele>1191</ele></trkpt><trkpt lat="45.852049" lon="9.192631"><time>2024-05-04T11:19:55.000Z</time><ele>1190.8</ele></trkpt><trkpt lat="45.852044" lon="9.192634"><time>2024-05-04T11:19:56.000Z</time><ele>1190.4</ele></trkpt><trkpt lat="45.85204" lon="9.192635"><time>2024-05-04T11:19:57.000Z</time><ele>1190.2</ele></trkpt><trkpt lat="45.85204" lon="9.192636"><time>2024-05-04T11:19:58.000Z</time><ele>1189.8</ele></trkpt><trkpt lat="45.85204" lon="9.192638"><time>2024-05-04T11:19:59.000Z</time><ele>1189.4</ele></trkpt><trkpt lat="45.852042" lon="9.19264"><time>2024-05-04T11:20:00.000Z</time><ele>1189.2</ele></trkpt><trkpt lat="45.852042" lon="9.192641"><time>2024-05-04T11:20:01.000Z</time><ele>1189</ele></trkpt><trkpt lat="45.852043" lon="9.19264"><time>2024-05-04T11:20:02.000Z</time><ele>1188.8</ele></trkpt><trkpt lat="45.852044" lon="9.19264"><time>2024-05-04T11:20:03.000Z</time><ele>1188.8</ele></trkpt><trkpt lat="45.852044" lon="9.19264"><time>2024-05-04T11:20:04.000Z</time><ele>1188.8</ele></trkpt><trkpt lat="45.852044" lon="9.192641"><time>2024-05-04T11:20:05.000Z</time><ele>1188.8</ele></trkpt><trkpt lat="45.852045" lon="9.192643"><time>2024-05-04T11:20:06.000Z</time><ele>1189</ele></trkpt><trkpt lat="45.852045" lon="9.192643"><time>2024-05-04T11:20:07.000Z</time><ele>1189</ele></trkpt><trkpt lat="45.852045" lon="9.192643"><time>2024-05-04T11:20:08.000Z</time><ele>1189</ele></trkpt><trkpt lat="45.852045" lon="9.192643"><time>2024-05-04T11:20:09.000Z</time><ele>1189</ele></trkpt><trkpt lat="45.852045" lon="9.192643"><time>2024-05-04T11:20:10.000Z</time><ele>1189.2</ele></trkpt><trkpt lat="45.852045" lon="9.192643"><time>2024-05-04T11:20:11.000Z</time><ele>1189.2</ele></trkpt><trkpt lat="45.852045" lon="9.192643"><time>2024-05-04T11:20:12.000Z</time><ele>1189.2</ele></trkpt><trkpt lat="45.852045" lon="9.192643"><time>2024-05-04T11:20:13.000Z</time><ele>1189.2</ele></trkpt><trkpt lat="45.852045" lon="9.192643"><time>2024-05-04T11:20:14.000Z</time><ele>1189.2</ele></trkpt><trkpt lat="45.852045" lon="9.192643"><time>2024-05-04T11:20:15.000Z</time><ele>1189.2</ele></trkpt><trkpt lat="45.852045" lon="9.192643"><time>2024-05-04T11:20:16.000Z</time><ele>1189</ele></trkpt><trkpt lat="45.852045" lon="9.192643"><time>2024-05-04T11:20:17.000Z</time><ele>1189</ele></trkpt><trkpt lat="45.852045" lon="9.192643"><time>2024-05-04T11:20:18.000Z</time><ele>1189</ele></trkpt><trkpt lat="45.852045" lon="9.192643"><time>2024-05-04T11:20:19.000Z</time><ele>1188.8</ele></trkpt><trkpt lat="45.852045" lon="9.192643"><time>2024-05-04T11:20:20.000Z</time><ele>1188.8</ele></trkpt><trkpt lat="45.85204" lon="9.192643"><time>2024-05-04T11:20:21.000Z</time><ele>1188.2</ele></trkpt><trkpt lat="45.852031" lon="9.192642"><time>2024-05-04T11:20:22.000Z</time><ele>1187.8</ele></trkpt><trkpt lat="45.852018" lon="9.19264"><time>2024-05-04T11:20:23.000Z</time><ele>1187.6</ele></trkpt><trkpt lat="45.852005" lon="9.192635"><time>2024-05-04T11:20:24.000Z</time><ele>1187.2</ele></trkpt><trkpt lat="45.851992" lon="9.19263"><time>2024-05-04T11:20:25.000Z</time><ele>1186.8</ele></trkpt><trkpt lat="45.851981" lon="9.192628"><time>2024-05-04T11:20:26.000Z</time><ele>1186.2</ele></trkpt><trkpt lat="45.851969" lon="9.192628"><time>2024-05-04T11:20:27.000Z</time><ele>1185.8</ele></trkpt><trkpt lat="45.851957" lon="9.192626"><time>2024-05-04T11:20:28.000Z</time><ele>1185.4</ele></trkpt><trkpt lat="45.851944" lon="9.192624"><time>2024-05-04T11:20:29.000Z</time><ele>1185</ele></trkpt><trkpt lat="45.851933" lon="9.192623"><time>2024-05-04T11:20:30.000Z</time><ele>1184.6</ele></trkpt><trkpt lat="45.85193" lon="9.192625"><time>2024-05-04T11:20:31.000Z</time><ele>1184.2</ele></trkpt><trkpt lat="45.851929" lon="9.192629"><time>2024-05-04T11:20:32.000Z</time><ele>1184</ele></trkpt><trkpt lat="45.851924" lon="9.192631"><time>2024-05-04T11:20:33.000Z</time><ele>1183.6</ele></trkpt><trkpt lat="45.851918" lon="9.192629"><time>2024-05-04T11:20:34.000Z</time><ele>1183.4</ele></trkpt><trkpt lat="45.851908" lon="9.192625"><time>2024-05-04T11:20:35.000Z</time><ele>1182.8</ele></trkpt><trkpt lat="45.851903" lon="9.192623"><time>2024-05-04T11:20:36.000Z</time><ele>1182.4</ele></trkpt><trkpt lat="45.851897" lon="9.19262"><time>2024-05-04T11:20:37.000Z</time><ele>1181.8</ele></trkpt><trkpt lat="45.851887" lon="9.192616"><time>2024-05-04T11:20:38.000Z</time><ele>1181.6</ele></trkpt><trkpt lat="45.851878" lon="9.192616"><time>2024-05-04T11:20:39.000Z</time><ele>1180.8</ele></trkpt><trkpt lat="45.851871" lon="9.192618"><time>2024-05-04T11:20:40.000Z</time><ele>1180.6</ele></trkpt><trkpt lat="45.851868" lon="9.192617"><time>2024-05-04T11:20:41.000Z</time><ele>1180.2</ele></trkpt><trkpt lat="45.851861" lon="9.192616"><time>2024-05-04T11:20:42.000Z</time><ele>1180</ele></trkpt><trkpt lat="45.851853" lon="9.19262"><time>2024-05-04T11:20:43.000Z</time><ele>1179.4</ele></trkpt><trkpt lat="45.851847" lon="9.192621"><time>2024-05-04T11:20:44.000Z</time><ele>1179</ele></trkpt><trkpt lat="45.851837" lon="9.192619"><time>2024-05-04T11:20:45.000Z</time><ele>1178.6</ele></trkpt><trkpt lat="45.85183" lon="9.192618"><time>2024-05-04T11:20:46.000Z</time><ele>1178.2</ele></trkpt><trkpt lat="45.85183" lon="9.192618"><time>2024-05-04T11:20:47.000Z</time><ele>1178</ele></trkpt><trkpt lat="45.851823" lon="9.192614"><time>2024-05-04T11:20:48.000Z</time><ele>1177.8</ele></trkpt><trkpt lat="45.851818" lon="9.192612"><time>2024-05-04T11:20:49.000Z</time><ele>1177.4</ele></trkpt><trkpt lat="45.851811" lon="9.192611"><time>2024-05-04T11:20:50.000Z</time><ele>1177</ele></trkpt><trkpt lat="45.851807" lon="9.192612"><time>2024-05-04T11:20:51.000Z</time><ele>1176.4</ele></trkpt><trkpt lat="45.851801" lon="9.19261"><time>2024-05-04T11:20:52.000Z</time><ele>1176.2</ele></trkpt><trkpt lat="45.851793" lon="9.192608"><time>2024-05-04T11:20:53.000Z</time><ele>1175.8</ele></trkpt><trkpt lat="45.851785" lon="9.192606"><time>2024-05-04T11:20:54.000Z</time><ele>1175.6</ele></trkpt><trkpt lat="45.851783" lon="9.192605"><time>2024-05-04T11:20:55.000Z</time><ele>1175.2</ele></trkpt><trkpt lat="45.85178" lon="9.192606"><time>2024-05-04T11:20:56.000Z</time><ele>1175</ele></trkpt><trkpt lat="45.851776" lon="9.192606"><time>2024-05-04T11:20:57.000Z</time><ele>1174.6</ele></trkpt><trkpt lat="45.851773" lon="9.192608"><time>2024-05-04T11:20:58.000Z</time><ele>1174.4</ele></trkpt><trkpt lat="45.851768" lon="9.192609"><time>2024-05-04T11:20:59.000Z</time><ele>1174.4</ele></trkpt><trkpt lat="45.851762" lon="9.192612"><time>2024-05-04T11:21:00.000Z</time><ele>1174.2</ele></trkpt><trkpt lat="45.851757" lon="9.192614"><time>2024-05-04T11:21:01.000Z</time><ele>1173.6</ele></trkpt><trkpt lat="45.851752" lon="9.192613"><time>2024-05-04T11:21:02.000Z</time><ele>1173.2</ele></trkpt><trkpt lat="45.851749" lon="9.192611"><time>2024-05-04T11:21:03.000Z</time><ele>1172.6</ele></trkpt><trkpt lat="45.851744" lon="9.192609"><time>2024-05-04T11:21:04.000Z</time><ele>1172.4</ele></trkpt><trkpt lat="45.851737" lon="9.192609"><time>2024-05-04T11:21:05.000Z</time><ele>1172.2</ele></trkpt><trkpt lat="45.851734" lon="9.192608"><time>2024-05-04T11:21:06.000Z</time><ele>1171.8</ele></trkpt><trkpt lat="45.851728" lon="9.192611"><time>2024-05-04T11:21:07.000Z</time><ele>1171.6</ele></trkpt><trkpt lat="45.85172" lon="9.192613"><time>2024-05-04T11:21:08.000Z</time><ele>1171.2</ele></trkpt><trkpt lat="45.851714" lon="9.192616"><time>2024-05-04T11:21:09.000Z</time><ele>1170.8</ele></trkpt><trkpt lat="45.851709" lon="9.192617"><time>2024-05-04T11:21:10.000Z</time><ele>1170.2</ele></trkpt><trkpt lat="45.851705" lon="9.192618"><time>2024-05-04T11:21:11.000Z</time><ele>1169.8</ele></trkpt><trkpt lat="45.851701" lon="9.19262"><time>2024-05-04T11:21:12.000Z</time><ele>1169.4</ele></trkpt><trkpt lat="45.851697" lon="9.192623"><time>2024-05-04T11:21:13.000Z</time><ele>1169</ele></trkpt><trkpt lat="45.851694" lon="9.192624"><time>2024-05-04T11:21:14.000Z</time><ele>1168.8</ele></trkpt><trkpt lat="45.851691" lon="9.192623"><time>2024-05-04T11:21:15.000Z</time><ele>1168.2</ele></trkpt><trkpt lat="45.851686" lon="9.192619"><time>2024-05-04T11:21:16.000Z</time><ele>1167.8</ele></trkpt><trkpt lat="45.85168" lon="9.192617"><time>2024-05-04T11:21:17.000Z</time><ele>1167.4</ele></trkpt><trkpt lat="45.851674" lon="9.192617"><time>2024-05-04T11:21:18.000Z</time><ele>1167.2</ele></trkpt><trkpt lat="45.851668" lon="9.19262"><time>2024-05-04T11:21:19.000Z</time><ele>1166.8</ele></trkpt><trkpt lat="45.851665" lon="9.192623"><time>2024-05-04T11:21:20.000Z</time><ele>1166.6</ele></trkpt><trkpt lat="45.851663" lon="9.192627"><time>2024-05-04T11:21:21.000Z</time><ele>1166.2</ele></trkpt><trkpt lat="45.851658" lon="9.192629"><time>2024-05-04T11:21:22.000Z</time><ele>1166.2</ele></trkpt><trkpt lat="45.851655" lon="9.192633"><time>2024-05-04T11:21:23.000Z</time><ele>1165.8</ele></trkpt><trkpt lat="45.851651" lon="9.192633"><time>2024-05-04T11:21:24.000Z</time><ele>1165.4</ele></trkpt><trkpt lat="45.851647" lon="9.192634"><time>2024-05-04T11:21:25.000Z</time><ele>1165.2</ele></trkpt><trkpt lat="45.851643" lon="9.192637"><time>2024-05-04T11:21:26.000Z</time><ele>1164.8</ele></trkpt><trkpt lat="45.85164" lon="9.192639"><time>2024-05-04T11:21:27.000Z</time><ele>1164.4</ele></trkpt><trkpt lat="45.851637" lon="9.192642"><time>2024-05-04T11:21:28.000Z</time><ele>1164.2</ele></trkpt><trkpt lat="45.851636" lon="9.192644"><time>2024-05-04T11:21:29.000Z</time><ele>1163.8</ele></trkpt><trkpt lat="45.851634" lon="9.192644"><time>2024-05-04T11:21:30.000Z</time><ele>1163.4</ele></trkpt><trkpt lat="45.851633" lon="9.192646"><time>2024-05-04T11:21:31.000Z</time><ele>1163.2</ele></trkpt><trkpt lat="45.851632" lon="9.192646"><time>2024-05-04T11:21:32.000Z</time><ele>1163.2</ele></trkpt><trkpt lat="45.851632" lon="9.192646"><time>2024-05-04T11:21:33.000Z</time><ele>1163</ele></trkpt><trkpt lat="45.851632" lon="9.192646"><time>2024-05-04T11:21:34.000Z</time><ele>1163</ele></trkpt><trkpt lat="45.851632" lon="9.192646"><time>2024-05-04T11:21:35.000Z</time><ele>1162.8</ele></trkpt><trkpt lat="45.851632" lon="9.192646"><time>2024-05-04T11:21:36.000Z</time><ele>1162.8</ele></trkpt><trkpt lat="45.851632" lon="9.192646"><time>2024-05-04T11:21:37.000Z</time><ele>1162.8</ele></trkpt><trkpt lat="45.851632" lon="9.192646"><time>2024-05-04T11:21:38.000Z</time><ele>1162.8</ele></trkpt><trkpt lat="45.851632" lon="9.192646"><time>2024-05-04T11:21:39.000Z</time><ele>1162.6</ele></trkpt><trkpt lat="45.851632" lon="9.192646"><time>2024-05-04T11:21:40.000Z</time><ele>1162.4</ele></trkpt><trkpt lat="45.851632" lon="9.192646"><time>2024-05-04T11:21:41.000Z</time><ele>1162.2</ele></trkpt><trkpt lat="45.851632" lon="9.192646"><time>2024-05-04T11:21:42.000Z</time><ele>1162</ele></trkpt><trkpt lat="45.851632" lon="9.192646"><time>2024-05-04T11:21:43.000Z</time><ele>1162</ele></trkpt><trkpt lat="45.851632" lon="9.192645"><time>2024-05-04T11:21:44.000Z</time><ele>1161.8</ele></trkpt><trkpt lat="45.851632" lon="9.192644"><time>2024-05-04T11:21:45.000Z</time><ele>1161.4</ele></trkpt><trkpt lat="45.851632" lon="9.192644"><time>2024-05-04T11:21:46.000Z</time><ele>1161.2</ele></trkpt><trkpt lat="45.851632" lon="9.192643"><time>2024-05-04T11:21:47.000Z</time><ele>1160.8</ele></trkpt><trkpt lat="45.851625" lon="9.192642"><time>2024-05-04T11:21:48.000Z</time><ele>1160.6</ele></trkpt><trkpt lat="45.851611" lon="9.19264"><time>2024-05-04T11:21:49.000Z</time><ele>1160</ele></trkpt><trkpt lat="45.851594" lon="9.19264"><time>2024-05-04T11:21:50.000Z</time><ele>1159.8</ele></trkpt><trkpt lat="45.851579" lon="9.19264"><time>2024-05-04T11:21:51.000Z</time><ele>1159.6</ele></trkpt><trkpt lat="45.851569" lon="9.192638"><time>2024-05-04T11:21:52.000Z</time><ele>1159.4</ele></trkpt><trkpt lat="45.851558" lon="9.192637"><time>2024-05-04T11:21:53.000Z</time><ele>1159.2</ele></trkpt><trkpt lat="45.851546" lon="9.192635"><time>2024-05-04T11:21:54.000Z</time><ele>1158.8</ele></trkpt><trkpt lat="45.851535" lon="9.192629"><time>2024-05-04T11:21:55.000Z</time><ele>1158.4</ele></trkpt><trkpt lat="45.851521" lon="9.192627"><time>2024-05-04T11:21:56.000Z</time><ele>1158.2</ele></trkpt><trkpt lat="45.85151" lon="9.192625"><time>2024-05-04T11:21:57.000Z</time><ele>1157.8</ele></trkpt><trkpt lat="45.851504" lon="9.192626"><time>2024-05-04T11:21:58.000Z</time><ele>1157.6</ele></trkpt><trkpt lat="45.851499" lon="9.192625"><time>2024-05-04T11:21:59.000Z</time><ele>1157.2</ele></trkpt><trkpt lat="45.851492" lon="9.192622"><time>2024-05-04T11:22:00.000Z</time><ele>1156.8</ele></trkpt><trkpt lat="45.851486" lon="9.192621"><time>2024-05-04T11:22:01.000Z</time><ele>1156.6</ele></trkpt><trkpt lat="45.851478" lon="9.192621"><time>2024-05-04T11:22:02.000Z</time><ele>1156.4</ele></trkpt><trkpt lat="45.85147" lon="9.19262"><time>2024-05-04T11:22:03.000Z</time><ele>1156</ele></trkpt><trkpt lat="45.851462" lon="9.192621"><time>2024-05-04T11:22:04.000Z</time><ele>1155.6</ele></trkpt><trkpt lat="45.851458" lon="9.19262"><time>2024-05-04T11:22:05.000Z</time><ele>1155.2</ele></trkpt><trkpt lat="45.851452" lon="9.192619"><time>2024-05-04T11:22:06.000Z</time><ele>1155</ele></trkpt><trkpt lat="45.851447" lon="9.192619"><time>2024-05-04T11:22:07.000Z</time><ele>1154.8</ele></trkpt><trkpt lat="45.851442" lon="9.19262"><time>2024-05-04T11:22:08.000Z</time><ele>1154.6</ele></trkpt><trkpt lat="45.851435" lon="9.192617"><time>2024-05-04T11:22:09.000Z</time><ele>1154.2</ele></trkpt><trkpt lat="45.851428" lon="9.192615"><time>2024-05-04T11:22:10.000Z</time><ele>1154</ele></trkpt><trkpt lat="45.85142" lon="9.192614"><time>2024-05-04T11:22:11.000Z</time><ele>1153.6</ele></trkpt><trkpt lat="45.851414" lon="9.192611"><time>2024-05-04T11:22:12.000Z</time><ele>1153.2</ele></trkpt><trkpt lat="45.851409" lon="9.192609"><time>2024-05-04T11:22:13.000Z</time><ele>1153</ele></trkpt><trkpt lat="45.851404" lon="9.192608"><time>2024-05-04T11:22:14.000Z</time><ele>1152.8</ele></trkpt><trkpt lat="45.8514" lon="9.192613"><time>2024-05-04T11:22:15.000Z</time><ele>1152.6</ele></trkpt><trkpt lat="45.851397" lon="9.192615"><time>2024-05-04T11:22:16.000Z</time><ele>1152.2</ele></trkpt><trkpt lat="45.851392" lon="9.192615"><time>2024-05-04T11:22:17.000Z</time><ele>1151.8</ele></trkpt><trkpt lat="45.851387" lon="9.192616"><time>2024-05-04T11:22:18.000Z</time><ele>1151.6</ele></trkpt><trkpt lat="45.851382" lon="9.192617"><time>2024-05-04T11:22:19.000Z</time><ele>1151.4</ele></trkpt><trkpt lat="45.851377" lon="9.192619"><time>2024-05-04T11:22:20.000Z</time><ele>1151.2</ele></trkpt><trkpt lat="45.851371" lon="9.192621"><time>2024-05-04T11:22:21.000Z</time><ele>1150.8</ele></trkpt><trkpt lat="45.851366" lon="9.192622"><time>2024-05-04T11:22:22.000Z</time><ele>1150.6</ele></trkpt><trkpt lat="45.851361" lon="9.192621"><time>2024-05-04T11:22:23.000Z</time><ele>1150.2</ele></trkpt><trkpt lat="45.851354" lon="9.19262"><time>2024-05-04T11:22:24.000Z</time><ele>1150</ele></trkpt><trkpt lat="45.851345" lon="9.192621"><time>2024-05-04T11:22:25.000Z</time><ele>1149.8</ele></trkpt><trkpt lat="45.851339" lon="9.192622"><time>2024-05-04T11:22:26.000Z</time><ele>1149.6</ele></trkpt><trkpt lat="45.851335" lon="9.192627"><time>2024-05-04T11:22:27.000Z</time><ele>1149</ele></trkpt><trkpt lat="45.851331" lon="9.192633"><time>2024-05-04T11:22:28.000Z</time><ele>1148.8</ele></trkpt><trkpt lat="45.851328" lon="9.192635"><time>2024-05-04T11:22:29.000Z</time><ele>1148.4</ele></trkpt><trkpt lat="45.851322" lon="9.192636"><time>2024-05-04T11:22:30.000Z</time><ele>1148.2</ele></trkpt><trkpt lat="45.851317" lon="9.192636"><time>2024-05-04T11:22:31.000Z</time><ele>1148</ele></trkpt><trkpt lat="45.851312" lon="9.192637"><time>2024-05-04T11:22:32.000Z</time><ele>1147.6</ele></trkpt><trkpt lat="45.851304" lon="9.192635"><time>2024-05-04T11:22:33.000Z</time><ele>1147.4</ele></trkpt><trkpt lat="45.851296" lon="9.192633"><time>2024-05-04T11:22:34.000Z</time><ele>1147.2</ele></trkpt><trkpt lat="45.851288" lon="9.192631"><time>2024-05-04T11:22:35.000Z</time><ele>1147</ele></trkpt><trkpt lat="45.851281" lon="9.192629"><time>2024-05-04T11:22:36.000Z</time><ele>1146.6</ele></trkpt><trkpt lat="45.851276" lon="9.192632"><time>2024-05-04T11:22:37.000Z</time><ele>1146.2</ele></trkpt><trkpt lat="45.851273" lon="9.192635"><time>2024-05-04T11:22:38.000Z</time><ele>1146</ele></trkpt><trkpt lat="45.851269" lon="9.192635"><time>2024-05-04T11:22:39.000Z</time><ele>1145.6</ele></trkpt><trkpt lat="45.851259" lon="9.192632"><time>2024-05-04T11:22:40.000Z</time><ele>1145.2</ele></trkpt><trkpt lat="45.851245" lon="9.192629"><time>2024-05-04T11:22:41.000Z</time><ele>1144.8</ele></trkpt><trkpt lat="45.851236" lon="9.192625"><time>2024-05-04T11:22:42.000Z</time><ele>1144.6</ele></trkpt><trkpt lat="45.851229" lon="9.192626"><time>2024-05-04T11:22:43.000Z</time><ele>1144.2</ele></trkpt><trkpt lat="45.851222" lon="9.192627"><time>2024-05-04T11:22:44.000Z</time><ele>1143.6</ele></trkpt><trkpt lat="45.851215" lon="9.192628"><time>2024-05-04T11:22:45.000Z</time><ele>1143.4</ele></trkpt><trkpt lat="45.851212" lon="9.192629"><time>2024-05-04T11:22:46.000Z</time><ele>1143.2</ele></trkpt><trkpt lat="45.851207" lon="9.192627"><time>2024-05-04T11:22:47.000Z</time><ele>1142.8</ele></trkpt><trkpt lat="45.851198" lon="9.192624"><time>2024-05-04T11:22:48.000Z</time><ele>1142.6</ele></trkpt><trkpt lat="45.85119" lon="9.192623"><time>2024-05-04T11:22:49.000Z</time><ele>1142.4</ele></trkpt><trkpt lat="45.851181" lon="9.192624"><time>2024-05-04T11:22:50.000Z</time><ele>1142.2</ele></trkpt><trkpt lat="45.851172" lon="9.192617"><time>2024-05-04T11:22:51.000Z</time><ele>1142</ele></trkpt><trkpt lat="45.851166" lon="9.192615"><time>2024-05-04T11:22:52.000Z</time><ele>1141.8</ele></trkpt><trkpt lat="45.851161" lon="9.192616"><time>2024-05-04T11:22:53.000Z</time><ele>1141.4</ele></trkpt><trkpt lat="45.851156" lon="9.192617"><time>2024-05-04T11:22:54.000Z</time><ele>1141.2</ele></trkpt><trkpt lat="45.851148" lon="9.192619"><time>2024-05-04T11:22:55.000Z</time><ele>1140.8</ele></trkpt><trkpt lat="45.851139" lon="9.19262"><time>2024-05-04T11:22:56.000Z</time><ele>1140.4</ele></trkpt><trkpt lat="45.851129" lon="9.192622"><time>2024-05-04T11:22:57.000Z</time><ele>1140.2</ele></trkpt><trkpt lat="45.851118" lon="9.19262"><time>2024-05-04T11:22:58.000Z</time><ele>1140</ele></trkpt><trkpt lat="45.851107" lon="9.19262"><time>2024-05-04T11:22:59.000Z</time><ele>1139.6</ele></trkpt><trkpt lat="45.851095" lon="9.192621"><time>2024-05-04T11:23:00.000Z</time><ele>1139.2</ele></trkpt><trkpt lat="45.851084" lon="9.19262"><time>2024-05-04T11:23:01.000Z</time><ele>1139</ele></trkpt><trkpt lat="45.851077" lon="9.19262"><time>2024-05-04T11:23:02.000Z</time><ele>1139</ele></trkpt><trkpt lat="45.851071" lon="9.192621"><time>2024-05-04T11:23:03.000Z</time><ele>1138.8</ele></trkpt><trkpt lat="45.851062" lon="9.192621"><time>2024-05-04T11:23:04.000Z</time><ele>1138.8</ele></trkpt><trkpt lat="45.851052" lon="9.192619"><time>2024-05-04T11:23:05.000Z</time><ele>1138.8</ele></trkpt><trkpt lat="45.851041" lon="9.192616"><time>2024-05-04T11:23:06.000Z</time><ele>1138.8</ele></trkpt><trkpt lat="45.851029" lon="9.192613"><time>2024-05-04T11:23:07.000Z</time><ele>1138.6</ele></trkpt><trkpt lat="45.851018" lon="9.192614"><time>2024-05-04T11:23:08.000Z</time><ele>1138.6</ele></trkpt><trkpt lat="45.851006" lon="9.192615"><time>2024-05-04T11:23:09.000Z</time><ele>1138.4</ele></trkpt><trkpt lat="45.850994" lon="9.192613"><time>2024-05-04T11:23:10.000Z</time><ele>1138.4</ele></trkpt><trkpt lat="45.850983" lon="9.192606"><time>2024-05-04T11:23:11.000Z</time><ele>1138</ele></trkpt><trkpt lat="45.850969" lon="9.192604"><time>2024-05-04T11:23:12.000Z</time><ele>1137.8</ele></trkpt><trkpt lat="45.850955" lon="9.192599"><time>2024-05-04T11:23:13.000Z</time><ele>1137.8</ele></trkpt><trkpt lat="45.850943" lon="9.192598"><time>2024-05-04T11:23:14.000Z</time><ele>1137.4</ele></trkpt><trkpt lat="45.850933" lon="9.1926"><time>2024-05-04T11:23:15.000Z</time><ele>1137.4</ele></trkpt><trkpt lat="45.850924" lon="9.192601"><time>2024-05-04T11:23:16.000Z</time><ele>1137.2</ele></trkpt><trkpt lat="45.850912" lon="9.192601"><time>2024-05-04T11:23:17.000Z</time><ele>1137</ele></trkpt><trkpt lat="45.850901" lon="9.192603"><time>2024-05-04T11:23:18.000Z</time><ele>1136.8</ele></trkpt><trkpt lat="45.850891" lon="9.192602"><time>2024-05-04T11:23:19.000Z</time><ele>1136.6</ele></trkpt><trkpt lat="45.850882" lon="9.192606"><time>2024-05-04T11:23:20.000Z</time><ele>1136.4</ele></trkpt><trkpt lat="45.850873" lon="9.192608"><time>2024-05-04T11:23:21.000Z</time><ele>1136.4</ele></trkpt><trkpt lat="45.85086" lon="9.192607"><time>2024-05-04T11:23:22.000Z</time><ele>1136.2</ele></trkpt><trkpt lat="45.850848" lon="9.192606"><time>2024-05-04T11:23:23.000Z</time><ele>1136</ele></trkpt><trkpt lat="45.850835" lon="9.192605"><time>2024-05-04T11:23:24.000Z</time><ele>1135.8</ele></trkpt><trkpt lat="45.850823" lon="9.192603"><time>2024-05-04T11:23:25.000Z</time><ele>1135.8</ele></trkpt><trkpt lat="45.850811" lon="9.1926"><time>2024-05-04T11:23:26.000Z</time><ele>1135.6</ele></trkpt><trkpt lat="45.850797" lon="9.192596"><time>2024-05-04T11:23:27.000Z</time><ele>1135.4</ele></trkpt><trkpt lat="45.850781" lon="9.192593"><time>2024-05-04T11:23:28.000Z</time><ele>1135.4</ele></trkpt><trkpt lat="45.850766" lon="9.19259"><time>2024-05-04T11:23:29.000Z</time><ele>1135.2</ele></trkpt><trkpt lat="45.850753" lon="9.192592"><time>2024-05-04T11:23:30.000Z</time><ele>1135</ele></trkpt><trkpt lat="45.850741" lon="9.192597"><time>2024-05-04T11:23:31.000Z</time><ele>1135</ele></trkpt><trkpt lat="45.850734" lon="9.192608"><time>2024-05-04T11:23:32.000Z</time><ele>1135</ele></trkpt><trkpt lat="45.850728" lon="9.192619"><time>2024-05-04T11:23:33.000Z</time><ele>1134.8</ele></trkpt><trkpt lat="45.85072" lon="9.192623"><time>2024-05-04T11:23:34.000Z</time><ele>1134.8</ele></trkpt><trkpt lat="45.850709" lon="9.192632"><time>2024-05-04T11:23:35.000Z</time><ele>1134.6</ele></trkpt><trkpt lat="45.850696" lon="9.192638"><time>2024-05-04T11:23:36.000Z</time><ele>1134.6</ele></trkpt><trkpt lat="45.850686" lon="9.192647"><time>2024-05-04T11:23:37.000Z</time><ele>1134.4</ele></trkpt><trkpt lat="45.850676" lon="9.192653"><time>2024-05-04T11:23:38.000Z</time><ele>1134.4</ele></trkpt><trkpt lat="45.850664" lon="9.192659"><time>2024-05-04T11:23:39.000Z</time><ele>1134.2</ele></trkpt><trkpt lat="45.850654" lon="9.19266"><time>2024-05-04T11:23:40.000Z</time><ele>1133.8</ele></trkpt><trkpt lat="45.850645" lon="9.19266"><time>2024-05-04T11:23:41.000Z</time><ele>1133.6</ele></trkpt><trkpt lat="45.850632" lon="9.19266"><time>2024-05-04T11:23:42.000Z</time><ele>1133.4</ele></trkpt><trkpt lat="45.850621" lon="9.192657"><time>2024-05-04T11:23:43.000Z</time><ele>1133.4</ele></trkpt><trkpt lat="45.850608" lon="9.192654"><time>2024-05-04T11:23:44.000Z</time><ele>1133.2</ele></trkpt><trkpt lat="45.8506" lon="9.192652"><time>2024-05-04T11:23:45.000Z</time><ele>1133.2</ele></trkpt><trkpt lat="45.850593" lon="9.192653"><time>2024-05-04T11:23:46.000Z</time><ele>1133.2</ele></trkpt><trkpt lat="45.850586" lon="9.192655"><time>2024-05-04T11:23:47.000Z</time><ele>1133.2</ele></trkpt><trkpt lat="45.850582" lon="9.192654"><time>2024-05-04T11:23:48.000Z</time><ele>1133.2</ele></trkpt><trkpt lat="45.850578" lon="9.192653"><time>2024-05-04T11:23:49.000Z</time><ele>1133.2</ele></trkpt><trkpt lat="45.850574" lon="9.192653"><time>2024-05-04T11:23:50.000Z</time><ele>1133.2</ele></trkpt><trkpt lat="45.850568" lon="9.192654"><time>2024-05-04T11:23:51.000Z</time><ele>1133.4</ele></trkpt><trkpt lat="45.85056" lon="9.192651"><time>2024-05-04T11:23:52.000Z</time><ele>1133.4</ele></trkpt><trkpt lat="45.850555" lon="9.192652"><time>2024-05-04T11:23:53.000Z</time><ele>1133.4</ele></trkpt><trkpt lat="45.850553" lon="9.192653"><time>2024-05-04T11:23:54.000Z</time><ele>1133.2</ele></trkpt><trkpt lat="45.850553" lon="9.192655"><time>2024-05-04T11:23:55.000Z</time><ele>1133.2</ele></trkpt><trkpt lat="45.850547" lon="9.192654"><time>2024-05-04T11:23:56.000Z</time><ele>1133</ele></trkpt><trkpt lat="45.850542" lon="9.19266"><time>2024-05-04T11:23:57.000Z</time><ele>1132.8</ele></trkpt><trkpt lat="45.850539" lon="9.192663"><time>2024-05-04T11:23:58.000Z</time><ele>1132.6</ele></trkpt><trkpt lat="45.850539" lon="9.192676"><time>2024-05-04T11:23:59.000Z</time><ele>1132.6</ele></trkpt><trkpt lat="45.850537" lon="9.192688"><time>2024-05-04T11:24:00.000Z</time><ele>1132.6</ele></trkpt><trkpt lat="45.850536" lon="9.192703"><time>2024-05-04T11:24:01.000Z</time><ele>1132.4</ele></trkpt><trkpt lat="45.850532" lon="9.192712"><time>2024-05-04T11:24:02.000Z</time><ele>1132.4</ele></trkpt><trkpt lat="45.850531" lon="9.192721"><time>2024-05-04T11:24:03.000Z</time><ele>1132.4</ele></trkpt><trkpt lat="45.850532" lon="9.192726"><time>2024-05-04T11:24:04.000Z</time><ele>1132.4</ele></trkpt><trkpt lat="45.850532" lon="9.192727"><time>2024-05-04T11:24:05.000Z</time><ele>1132.6</ele></trkpt><trkpt lat="45.85053" lon="9.192731"><time>2024-05-04T11:24:06.000Z</time><ele>1132.6</ele></trkpt><trkpt lat="45.85053" lon="9.192733"><time>2024-05-04T11:24:07.000Z</time><ele>1132.6</ele></trkpt><trkpt lat="45.85053" lon="9.192733"><time>2024-05-04T11:24:08.000Z</time><ele>1132.4</ele></trkpt><trkpt lat="45.850531" lon="9.192734"><time>2024-05-04T11:24:09.000Z</time><ele>1132.4</ele></trkpt><trkpt lat="45.850533" lon="9.192737"><time>2024-05-04T11:24:10.000Z</time><ele>1132.4</ele></trkpt><trkpt lat="45.850535" lon="9.192738"><time>2024-05-04T11:24:11.000Z</time><ele>1132.2</ele></trkpt><trkpt lat="45.850537" lon="9.192738"><time>2024-05-04T11:24:12.000Z</time><ele>1132.2</ele></trkpt><trkpt lat="45.850537" lon="9.192737"><time>2024-05-04T11:24:13.000Z</time><ele>1132.2</ele></trkpt><trkpt lat="45.850537" lon="9.192737"><time>2024-05-04T11:24:14.000Z</time><ele>1132.2</ele></trkpt><trkpt lat="45.850537" lon="9.192738"><time>2024-05-04T11:24:15.000Z</time><ele>1132.2</ele></trkpt><trkpt lat="45.850537" lon="9.192739"><time>2024-05-04T11:24:16.000Z</time><ele>1132.2</ele></trkpt><trkpt lat="45.850538" lon="9.192738"><time>2024-05-04T11:24:17.000Z</time><ele>1132.2</ele></trkpt><trkpt lat="45.850538" lon="9.192738"><time>2024-05-04T11:24:18.000Z</time><ele>1132</ele></trkpt><trkpt lat="45.850538" lon="9.192738"><time>2024-05-04T11:24:19.000Z</time><ele>1132</ele></trkpt><trkpt lat="45.850538" lon="9.192738"><time>2024-05-04T11:24:20.000Z</time><ele>1132</ele></trkpt><trkpt lat="45.850538" lon="9.192738"><time>2024-05-04T11:24:21.000Z</time><ele>1132</ele></trkpt><trkpt lat="45.850538" lon="9.192738"><time>2024-05-04T11:24:22.000Z</time><ele>1132</ele></trkpt><trkpt lat="45.850538" lon="9.192738"><time>2024-05-04T11:24:23.000Z</time><ele>1132</ele></trkpt><trkpt lat="45.850538" lon="9.192738"><time>2024-05-04T11:24:24.000Z</time><ele>1132</ele></trkpt><trkpt lat="45.850538" lon="9.192738"><time>2024-05-04T11:24:25.000Z</time><ele>1132</ele></trkpt><trkpt lat="45.850538" lon="9.192738"><time>2024-05-04T11:24:26.000Z</time><ele>1132</ele></trkpt><trkpt lat="45.850538" lon="9.192738"><time>2024-05-04T11:24:27.000Z</time><ele>1131.8</ele></trkpt><trkpt lat="45.850537" lon="9.192738"><time>2024-05-04T11:24:28.000Z</time><ele>1131.8</ele></trkpt><trkpt lat="45.850537" lon="9.192738"><time>2024-05-04T11:24:29.000Z</time><ele>1131.8</ele></trkpt><trkpt lat="45.850537" lon="9.192738"><time>2024-05-04T11:24:30.000Z</time><ele>1132</ele></trkpt><trkpt lat="45.850537" lon="9.192738"><time>2024-05-04T11:24:31.000Z</time><ele>1132</ele></trkpt><trkpt lat="45.850537" lon="9.192737"><time>2024-05-04T11:24:32.000Z</time><ele>1132</ele></trkpt><trkpt lat="45.850535" lon="9.192737"><time>2024-05-04T11:24:33.000Z</time><ele>1132</ele></trkpt><trkpt lat="45.850534" lon="9.192737"><time>2024-05-04T11:24:34.000Z</time><ele>1132.2</ele></trkpt><trkpt lat="45.850533" lon="9.192737"><time>2024-05-04T11:24:35.000Z</time><ele>1132.2</ele></trkpt><trkpt lat="45.850533" lon="9.192737"><time>2024-05-04T11:24:36.000Z</time><ele>1132.2</ele></trkpt><trkpt lat="45.850531" lon="9.192735"><time>2024-05-04T11:24:37.000Z</time><ele>1132.2</ele></trkpt><trkpt lat="45.850531" lon="9.192734"><time>2024-05-04T11:24:38.000Z</time><ele>1132.2</ele></trkpt><trkpt lat="45.85053" lon="9.192734"><time>2024-05-04T11:24:39.000Z</time><ele>1132.2</ele></trkpt><trkpt lat="45.85053" lon="9.192732"><time>2024-05-04T11:24:40.000Z</time><ele>1132.2</ele></trkpt><trkpt lat="45.85053" lon="9.192731"><time>2024-05-04T11:24:41.000Z</time><ele>1132.2</ele></trkpt><trkpt lat="45.850528" lon="9.19273"><time>2024-05-04T11:24:42.000Z</time><ele>1132.2</ele></trkpt><trkpt lat="45.850527" lon="9.192729"><time>2024-05-04T11:24:43.000Z</time><ele>1132.4</ele></trkpt><trkpt lat="45.850526" lon="9.192729"><time>2024-05-04T11:24:44.000Z</time><ele>1132.4</ele></trkpt><trkpt lat="45.850524" lon="9.192727"><time>2024-05-04T11:24:45.000Z</time><ele>1132.6</ele></trkpt><trkpt lat="45.850523" lon="9.192727"><time>2024-05-04T11:24:46.000Z</time><ele>1132.6</ele></trkpt><trkpt lat="45.850522" lon="9.192726"><time>2024-05-04T11:24:47.000Z</time><ele>1132.6</ele></trkpt><trkpt lat="45.850522" lon="9.192726"><time>2024-05-04T11:24:48.000Z</time><ele>1132.6</ele></trkpt><trkpt lat="45.850522" lon="9.192726"><time>2024-05-04T11:24:49.000Z</time><ele>1132.6</ele></trkpt><trkpt lat="45.850522" lon="9.192726"><time>2024-05-04T11:24:50.000Z</time><ele>1132.6</ele></trkpt><trkpt lat="45.850522" lon="9.192726"><time>2024-05-04T11:24:51.000Z</time><ele>1132.6</ele></trkpt><trkpt lat="45.850522" lon="9.192726"><time>2024-05-04T11:24:52.000Z</time><ele>1132.6</ele></trkpt><trkpt lat="45.850522" lon="9.192726"><time>2024-05-04T11:24:53.000Z</time><ele>1132.6</ele></trkpt><trkpt lat="45.850522" lon="9.192726"><time>2024-05-04T11:24:54.000Z</time><ele>1132.4</ele></trkpt><trkpt lat="45.850522" lon="9.192726"><time>2024-05-04T11:24:55.000Z</time><ele>1132.4</ele></trkpt><trkpt lat="45.850522" lon="9.192725"><time>2024-05-04T11:24:56.000Z</time><ele>1132.4</ele></trkpt><trkpt lat="45.850522" lon="9.192725"><time>2024-05-04T11:24:57.000Z</time><ele>1132.4</ele></trkpt><trkpt lat="45.850522" lon="9.192725"><time>2024-05-04T11:24:58.000Z</time><ele>1132.4</ele></trkpt><trkpt lat="45.850522" lon="9.192725"><time>2024-05-04T11:24:59.000Z</time><ele>1132.4</ele></trkpt><trkpt lat="45.850522" lon="9.192725"><time>2024-05-04T11:25:00.000Z</time><ele>1132.4</ele></trkpt><trkpt lat="45.850522" lon="9.192725"><time>2024-05-04T11:25:01.000Z</time><ele>1132.4</ele></trkpt><trkpt lat="45.850522" lon="9.192725"><time>2024-05-04T11:25:02.000Z</time><ele>1132.4</ele></trkpt><trkpt lat="45.850522" lon="9.192725"><time>2024-05-04T11:25:03.000Z</time><ele>1132.4</ele></trkpt><trkpt lat="45.850522" lon="9.192725"><time>2024-05-04T11:25:04.000Z</time><ele>1132.4</ele></trkpt><trkpt lat="45.850522" lon="9.192725"><time>2024-05-04T11:25:05.000Z</time><ele>1132.4</ele></trkpt><trkpt lat="45.850522" lon="9.192725"><time>2024-05-04T11:25:06.000Z</time><ele>1132.4</ele></trkpt><trkpt lat="45.850522" lon="9.192725"><time>2024-05-04T11:25:07.000Z</time><ele>1132.4</ele></trkpt><trkpt lat="45.850522" lon="9.192725"><time>2024-05-04T11:25:08.000Z</time><ele>1132.4</ele></trkpt><trkpt lat="45.850522" lon="9.192724"><time>2024-05-04T11:25:09.000Z</time><ele>1132.4</ele></trkpt><trkpt lat="45.850522" lon="9.192724"><time>2024-05-04T11:25:10.000Z</time><ele>1132.4</ele></trkpt><trkpt lat="45.850523" lon="9.192724"><time>2024-05-04T11:25:11.000Z</time><ele>1132.6</ele></trkpt><trkpt lat="45.850525" lon="9.192721"><time>2024-05-04T11:25:12.000Z</time><ele>1132.6</ele></trkpt><trkpt lat="45.850534" lon="9.192711"><time>2024-05-04T11:25:13.000Z</time><ele>1132.8</ele></trkpt><trkpt lat="45.850545" lon="9.192702"><time>2024-05-04T11:25:14.000Z</time><ele>1132.8</ele></trkpt><trkpt lat="45.850559" lon="9.192693"><time>2024-05-04T11:25:15.000Z</time><ele>1133</ele></trkpt><trkpt lat="45.850569" lon="9.192684"><time>2024-05-04T11:25:16.000Z</time><ele>1133</ele></trkpt><trkpt lat="45.850578" lon="9.192672"><time>2024-05-04T11:25:17.000Z</time><ele>1133</ele></trkpt><trkpt lat="45.850586" lon="9.192659"><time>2024-05-04T11:25:18.000Z</time><ele>1133.2</ele></trkpt><trkpt lat="45.850595" lon="9.192649"><time>2024-05-04T11:25:19.000Z</time><ele>1133.2</ele></trkpt><trkpt lat="45.850607" lon="9.192642"><time>2024-05-04T11:25:20.000Z</time><ele>1133.2</ele></trkpt><trkpt lat="45.850617" lon="9.192633"><time>2024-05-04T11:25:21.000Z</time><ele>1133.2</ele></trkpt><trkpt lat="45.850628" lon="9.192626"><time>2024-05-04T11:25:22.000Z</time><ele>1133.2</ele></trkpt><trkpt lat="45.850637" lon="9.192616"><time>2024-05-04T11:25:23.000Z</time><ele>1133.2</ele></trkpt><trkpt lat="45.850642" lon="9.192608"><time>2024-05-04T11:25:24.000Z</time><ele>1133.2</ele></trkpt><trkpt lat="45.850648" lon="9.192598"><time>2024-05-04T11:25:25.000Z</time><ele>1133.2</ele></trkpt><trkpt lat="45.850657" lon="9.192592"><time>2024-05-04T11:25:26.000Z</time><ele>1133.2</ele></trkpt><trkpt lat="45.850665" lon="9.192582"><time>2024-05-04T11:25:27.000Z</time><ele>1133.2</ele></trkpt><trkpt lat="45.85067" lon="9.192573"><time>2024-05-04T11:25:28.000Z</time><ele>1133.2</ele></trkpt><trkpt lat="45.850676" lon="9.192563"><time>2024-05-04T11:25:29.000Z</time><ele>1133.2</ele></trkpt><trkpt lat="45.850682" lon="9.192553"><time>2024-05-04T11:25:30.000Z</time><ele>1133.2</ele></trkpt><trkpt lat="45.850682" lon="9.192544"><time>2024-05-04T11:25:31.000Z</time><ele>1133</ele></trkpt><trkpt lat="45.850682" lon="9.192533"><time>2024-05-04T11:25:32.000Z</time><ele>1132.8</ele></trkpt><trkpt lat="45.850682" lon="9.192521"><time>2024-05-04T11:25:33.000Z</time><ele>1132.8</ele></trkpt><trkpt lat="45.850681" lon="9.192506"><time>2024-05-04T11:25:34.000Z</time><ele>1132.6</ele></trkpt><trkpt lat="45.85068" lon="9.192495"><time>2024-05-04T11:25:35.000Z</time><ele>1132.6</ele></trkpt><trkpt lat="45.850676" lon="9.192487"><time>2024-05-04T11:25:36.000Z</time><ele>1132.4</ele></trkpt><trkpt lat="45.85067" lon="9.192482"><time>2024-05-04T11:25:37.000Z</time><ele>1132</ele></trkpt><trkpt lat="45.850668" lon="9.192476"><time>2024-05-04T11:25:38.000Z</time><ele>1131.8</ele></trkpt><trkpt lat="45.850666" lon="9.19247"><time>2024-05-04T11:25:39.000Z</time><ele>1131.6</ele></trkpt><trkpt lat="45.85066" lon="9.192466"><time>2024-05-04T11:25:40.000Z</time><ele>1131.6</ele></trkpt><trkpt lat="45.850654" lon="9.192463"><time>2024-05-04T11:25:41.000Z</time><ele>1131.2</ele></trkpt><trkpt lat="45.850648" lon="9.19246"><time>2024-05-04T11:25:42.000Z</time><ele>1131</ele></trkpt><trkpt lat="45.85064" lon="9.192453"><time>2024-05-04T11:25:43.000Z</time><ele>1130.6</ele></trkpt><trkpt lat="45.850635" lon="9.192451"><time>2024-05-04T11:25:44.000Z</time><ele>1130.2</ele></trkpt><trkpt lat="45.850629" lon="9.192447"><time>2024-05-04T11:25:45.000Z</time><ele>1130</ele></trkpt><trkpt lat="45.850624" lon="9.192446"><time>2024-05-04T11:25:46.000Z</time><ele>1129.6</ele></trkpt><trkpt lat="45.850618" lon="9.192446"><time>2024-05-04T11:25:47.000Z</time><ele>1129.4</ele></trkpt><trkpt lat="45.85061" lon="9.192446"><time>2024-05-04T11:25:48.000Z</time><ele>1129.2</ele></trkpt><trkpt lat="45.850601" lon="9.192445"><time>2024-05-04T11:25:49.000Z</time><ele>1129</ele></trkpt><trkpt lat="45.850593" lon="9.192446"><time>2024-05-04T11:25:50.000Z</time><ele>1128.6</ele></trkpt><trkpt lat="45.850585" lon="9.192446"><time>2024-05-04T11:25:51.000Z</time><ele>1128.2</ele></trkpt><trkpt lat="45.850579" lon="9.192448"><time>2024-05-04T11:25:52.000Z</time><ele>1127.8</ele></trkpt><trkpt lat="45.850571" lon="9.192451"><time>2024-05-04T11:25:53.000Z</time><ele>1127.6</ele></trkpt><trkpt lat="45.850563" lon="9.192454"><time>2024-05-04T11:25:54.000Z</time><ele>1127.4</ele></trkpt><trkpt lat="45.850553" lon="9.192455"><time>2024-05-04T11:25:55.000Z</time><ele>1127.2</ele></trkpt><trkpt lat="45.85054" lon="9.192456"><time>2024-05-04T11:25:56.000Z</time><ele>1126.8</ele></trkpt><trkpt lat="45.850532" lon="9.192461"><time>2024-05-04T11:25:57.000Z</time><ele>1126.8</ele></trkpt><trkpt lat="45.850527" lon="9.192462"><time>2024-05-04T11:25:58.000Z</time><ele>1126.6</ele></trkpt><trkpt lat="45.850521" lon="9.192464"><time>2024-05-04T11:25:59.000Z</time><ele>1126.4</ele></trkpt><trkpt lat="45.850514" lon="9.192467"><time>2024-05-04T11:26:00.000Z</time><ele>1126.4</ele></trkpt><trkpt lat="45.850512" lon="9.192478"><time>2024-05-04T11:26:01.000Z</time><ele>1126</ele></trkpt><trkpt lat="45.850507" lon="9.192483"><time>2024-05-04T11:26:02.000Z</time><ele>1125.8</ele></trkpt><trkpt lat="45.850502" lon="9.192483"><time>2024-05-04T11:26:03.000Z</time><ele>1125.6</ele></trkpt><trkpt lat="45.850498" lon="9.192486"><time>2024-05-04T11:26:04.000Z</time><ele>1125.4</ele></trkpt><trkpt lat="45.850496" lon="9.19249"><time>2024-05-04T11:26:05.000Z</time><ele>1125</ele></trkpt><trkpt lat="45.85049" lon="9.192492"><time>2024-05-04T11:26:06.000Z</time><ele>1125</ele></trkpt><trkpt lat="45.850479" lon="9.192489"><time>2024-05-04T11:26:07.000Z</time><ele>1124.8</ele></trkpt><trkpt lat="45.850461" lon="9.192477"><time>2024-05-04T11:26:08.000Z</time><ele>1124.4</ele></trkpt><trkpt lat="45.850453" lon="9.192478"><time>2024-05-04T11:26:09.000Z</time><ele>1124.2</ele></trkpt><trkpt lat="45.850449" lon="9.19248"><time>2024-05-04T11:26:10.000Z</time><ele>1124</ele></trkpt><trkpt lat="45.850447" lon="9.19248"><time>2024-05-04T11:26:11.000Z</time><ele>1124</ele></trkpt><trkpt lat="45.850441" lon="9.19248"><time>2024-05-04T11:26:12.000Z</time><ele>1123.6</ele></trkpt><trkpt lat="45.850437" lon="9.192481"><time>2024-05-04T11:26:13.000Z</time><ele>1123.4</ele></trkpt><trkpt lat="45.850433" lon="9.192482"><time>2024-05-04T11:26:14.000Z</time><ele>1123</ele></trkpt><trkpt lat="45.850427" lon="9.19248"><time>2024-05-04T11:26:15.000Z</time><ele>1122.8</ele></trkpt><trkpt lat="45.850418" lon="9.19248"><time>2024-05-04T11:26:16.000Z</time><ele>1122.6</ele></trkpt><trkpt lat="45.850408" lon="9.192476"><time>2024-05-04T11:26:17.000Z</time><ele>1122.2</ele></trkpt><trkpt lat="45.8504" lon="9.192468"><time>2024-05-04T11:26:18.000Z</time><ele>1122</ele></trkpt><trkpt lat="45.850394" lon="9.192467"><time>2024-05-04T11:26:19.000Z</time><ele>1121.8</ele></trkpt><trkpt lat="45.850389" lon="9.192469"><time>2024-05-04T11:26:20.000Z</time><ele>1121.6</ele></trkpt><trkpt lat="45.850384" lon="9.192472"><time>2024-05-04T11:26:21.000Z</time><ele>1121.4</ele></trkpt><trkpt lat="45.850376" lon="9.192472"><time>2024-05-04T11:26:22.000Z</time><ele>1121.2</ele></trkpt><trkpt lat="45.85037" lon="9.192472"><time>2024-05-04T11:26:23.000Z</time><ele>1120.8</ele></trkpt><trkpt lat="45.850365" lon="9.192474"><time>2024-05-04T11:26:24.000Z</time><ele>1120.6</ele></trkpt><trkpt lat="45.850357" lon="9.192473"><time>2024-05-04T11:26:25.000Z</time><ele>1120.2</ele></trkpt><trkpt lat="45.850354" lon="9.192477"><time>2024-05-04T11:26:26.000Z</time><ele>1119.8</ele></trkpt><trkpt lat="45.850346" lon="9.192476"><time>2024-05-04T11:26:27.000Z</time><ele>1119.6</ele></trkpt><trkpt lat="45.85034" lon="9.192477"><time>2024-05-04T11:26:28.000Z</time><ele>1119.2</ele></trkpt><trkpt lat="45.850334" lon="9.19248"><time>2024-05-04T11:26:29.000Z</time><ele>1119</ele></trkpt><trkpt lat="45.850326" lon="9.192483"><time>2024-05-04T11:26:30.000Z</time><ele>1118.6</ele></trkpt><trkpt lat="45.850319" lon="9.192484"><time>2024-05-04T11:26:31.000Z</time><ele>1118.4</ele></trkpt><trkpt lat="45.850309" lon="9.192483"><time>2024-05-04T11:26:32.000Z</time><ele>1118.4</ele></trkpt><trkpt lat="45.8503" lon="9.192483"><time>2024-05-04T11:26:33.000Z</time><ele>1117.8</ele></trkpt><trkpt lat="45.85029" lon="9.192482"><time>2024-05-04T11:26:34.000Z</time><ele>1117.6</ele></trkpt><trkpt lat="45.850282" lon="9.192483"><time>2024-05-04T11:26:35.000Z</time><ele>1117.4</ele></trkpt><trkpt lat="45.85027" lon="9.192482"><time>2024-05-04T11:26:36.000Z</time><ele>1117.2</ele></trkpt><trkpt lat="45.850259" lon="9.192485"><time>2024-05-04T11:26:37.000Z</time><ele>1117</ele></trkpt><trkpt lat="45.850252" lon="9.192481"><time>2024-05-04T11:26:38.000Z</time><ele>1117</ele></trkpt><trkpt lat="45.850245" lon="9.192482"><time>2024-05-04T11:26:39.000Z</time><ele>1116.6</ele></trkpt><trkpt lat="45.850243" lon="9.192485"><time>2024-05-04T11:26:40.000Z</time><ele>1116.4</ele></trkpt><trkpt lat="45.850239" lon="9.192485"><time>2024-05-04T11:26:41.000Z</time><ele>1116.2</ele></trkpt><trkpt lat="45.850234" lon="9.192487"><time>2024-05-04T11:26:42.000Z</time><ele>1116</ele></trkpt><trkpt lat="45.850227" lon="9.192488"><time>2024-05-04T11:26:43.000Z</time><ele>1115.8</ele></trkpt><trkpt lat="45.850212" lon="9.192485"><time>2024-05-04T11:26:44.000Z</time><ele>1115.4</ele></trkpt><trkpt lat="45.850205" lon="9.192486"><time>2024-05-04T11:26:45.000Z</time><ele>1115</ele></trkpt><trkpt lat="45.850197" lon="9.192485"><time>2024-05-04T11:26:46.000Z</time><ele>1114.8</ele></trkpt><trkpt lat="45.850193" lon="9.192485"><time>2024-05-04T11:26:47.000Z</time><ele>1114.6</ele></trkpt><trkpt lat="45.85019" lon="9.192487"><time>2024-05-04T11:26:48.000Z</time><ele>1114.4</ele></trkpt><trkpt lat="45.850183" lon="9.192484"><time>2024-05-04T11:26:49.000Z</time><ele>1114.2</ele></trkpt><trkpt lat="45.850174" lon="9.192482"><time>2024-05-04T11:26:50.000Z</time><ele>1114</ele></trkpt><trkpt lat="45.850166" lon="9.192484"><time>2024-05-04T11:26:51.000Z</time><ele>1113.8</ele></trkpt><trkpt lat="45.850163" lon="9.192489"><time>2024-05-04T11:26:52.000Z</time><ele>1113.4</ele></trkpt><trkpt lat="45.850158" lon="9.192493"><time>2024-05-04T11:26:53.000Z</time><ele>1113.2</ele></trkpt><trkpt lat="45.850151" lon="9.192497"><time>2024-05-04T11:26:54.000Z</time><ele>1112.8</ele></trkpt><trkpt lat="45.850143" lon="9.192499"><time>2024-05-04T11:26:55.000Z</time><ele>1112.4</ele></trkpt><trkpt lat="45.850137" lon="9.192503"><time>2024-05-04T11:26:56.000Z</time><ele>1112.2</ele></trkpt><trkpt lat="45.850127" lon="9.192505"><time>2024-05-04T11:26:57.000Z</time><ele>1111.8</ele></trkpt><trkpt lat="45.850116" lon="9.192507"><time>2024-05-04T11:26:58.000Z</time><ele>1111.6</ele></trkpt><trkpt lat="45.850107" lon="9.192508"><time>2024-05-04T11:26:59.000Z</time><ele>1111.6</ele></trkpt><trkpt lat="45.8501" lon="9.192508"><time>2024-05-04T11:27:00.000Z</time><ele>1111.2</ele></trkpt><trkpt lat="45.850094" lon="9.192508"><time>2024-05-04T11:27:01.000Z</time><ele>1111</ele></trkpt><trkpt lat="45.850088" lon="9.192513"><time>2024-05-04T11:27:02.000Z</time><ele>1110.8</ele></trkpt><trkpt lat="45.85008" lon="9.192511"><time>2024-05-04T11:27:03.000Z</time><ele>1110.6</ele></trkpt><trkpt lat="45.850075" lon="9.192507"><time>2024-05-04T11:27:04.000Z</time><ele>1110.4</ele></trkpt><trkpt lat="45.850077" lon="9.192516"><time>2024-05-04T11:27:05.000Z</time><ele>1110.4</ele></trkpt><trkpt lat="45.850073" lon="9.192518"><time>2024-05-04T11:27:06.000Z</time><ele>1110.2</ele></trkpt><trkpt lat="45.850068" lon="9.19252"><time>2024-05-04T11:27:07.000Z</time><ele>1110</ele></trkpt><trkpt lat="45.850059" lon="9.192521"><time>2024-05-04T11:27:08.000Z</time><ele>1109.6</ele></trkpt><trkpt lat="45.850053" lon="9.192522"><time>2024-05-04T11:27:09.000Z</time><ele>1109.4</ele></trkpt><trkpt lat="45.850047" lon="9.192528"><time>2024-05-04T11:27:10.000Z</time><ele>1109.2</ele></trkpt><trkpt lat="45.85004" lon="9.192529"><time>2024-05-04T11:27:11.000Z</time><ele>1108.8</ele></trkpt><trkpt lat="45.850033" lon="9.192528"><time>2024-05-04T11:27:12.000Z</time><ele>1108.6</ele></trkpt><trkpt lat="45.850028" lon="9.192536"><time>2024-05-04T11:27:13.000Z</time><ele>1108.4</ele></trkpt><trkpt lat="45.850027" lon="9.192544"><time>2024-05-04T11:27:14.000Z</time><ele>1108</ele></trkpt><trkpt lat="45.850021" lon="9.192548"><time>2024-05-04T11:27:15.000Z</time><ele>1107.8</ele></trkpt><trkpt lat="45.850012" lon="9.192552"><time>2024-05-04T11:27:16.000Z</time><ele>1107.6</ele></trkpt><trkpt lat="45.850011" lon="9.192564"><time>2024-05-04T11:27:17.000Z</time><ele>1107.2</ele></trkpt><trkpt lat="45.850007" lon="9.192574"><time>2024-05-04T11:27:18.000Z</time><ele>1107</ele></trkpt><trkpt lat="45.849999" lon="9.19258"><time>2024-05-04T11:27:19.000Z</time><ele>1106.6</ele></trkpt><trkpt lat="45.849993" lon="9.192586"><time>2024-05-04T11:27:20.000Z</time><ele>1106.4</ele></trkpt><trkpt lat="45.849988" lon="9.192585"><time>2024-05-04T11:27:21.000Z</time><ele>1106.2</ele></trkpt><trkpt lat="45.849979" lon="9.192582"><time>2024-05-04T11:27:22.000Z</time><ele>1106</ele></trkpt><trkpt lat="45.849973" lon="9.192583"><time>2024-05-04T11:27:23.000Z</time><ele>1105.8</ele></trkpt><trkpt lat="45.84997" lon="9.192583"><time>2024-05-04T11:27:24.000Z</time><ele>1105.8</ele></trkpt><trkpt lat="45.849966" lon="9.19258"><time>2024-05-04T11:27:25.000Z</time><ele>1105.4</ele></trkpt><trkpt lat="45.849962" lon="9.192578"><time>2024-05-04T11:27:26.000Z</time><ele>1105.2</ele></trkpt><trkpt lat="45.849954" lon="9.192576"><time>2024-05-04T11:27:27.000Z</time><ele>1105</ele></trkpt><trkpt lat="45.849948" lon="9.192576"><time>2024-05-04T11:27:28.000Z</time><ele>1104.8</ele></trkpt><trkpt lat="45.849946" lon="9.192576"><time>2024-05-04T11:27:29.000Z</time><ele>1104.6</ele></trkpt><trkpt lat="45.849945" lon="9.192581"><time>2024-05-04T11:27:30.000Z</time><ele>1104.2</ele></trkpt><trkpt lat="45.849943" lon="9.192585"><time>2024-05-04T11:27:31.000Z</time><ele>1103.8</ele></trkpt><trkpt lat="45.849938" lon="9.192588"><time>2024-05-04T11:27:32.000Z</time><ele>1103.6</ele></trkpt><trkpt lat="45.849932" lon="9.192591"><time>2024-05-04T11:27:33.000Z</time><ele>1103.2</ele></trkpt><trkpt lat="45.849927" lon="9.192595"><time>2024-05-04T11:27:34.000Z</time><ele>1103</ele></trkpt><trkpt lat="45.84992" lon="9.192595"><time>2024-05-04T11:27:35.000Z</time><ele>1102.8</ele></trkpt><trkpt lat="45.849915" lon="9.192597"><time>2024-05-04T11:27:36.000Z</time><ele>1102.6</ele></trkpt><trkpt lat="45.849908" lon="9.192598"><time>2024-05-04T11:27:37.000Z</time><ele>1102.2</ele></trkpt><trkpt lat="45.849904" lon="9.192599"><time>2024-05-04T11:27:38.000Z</time><ele>1101.8</ele></trkpt><trkpt lat="45.8499" lon="9.192601"><time>2024-05-04T11:27:39.000Z</time><ele>1101.6</ele></trkpt><trkpt lat="45.849898" lon="9.192609"><time>2024-05-04T11:27:40.000Z</time><ele>1101.4</ele></trkpt><trkpt lat="45.849892" lon="9.192612"><time>2024-05-04T11:27:41.000Z</time><ele>1101.2</ele></trkpt><trkpt lat="45.849883" lon="9.192612"><time>2024-05-04T11:27:42.000Z</time><ele>1101</ele></trkpt><trkpt lat="45.849876" lon="9.192614"><time>2024-05-04T11:27:43.000Z</time><ele>1100.8</ele></trkpt><trkpt lat="45.849869" lon="9.192614"><time>2024-05-04T11:27:44.000Z</time><ele>1100.8</ele></trkpt><trkpt lat="45.84986" lon="9.192617"><time>2024-05-04T11:27:45.000Z</time><ele>1100.6</ele></trkpt><trkpt lat="45.849853" lon="9.192621"><time>2024-05-04T11:27:46.000Z</time><ele>1100.2</ele></trkpt><trkpt lat="45.849849" lon="9.192625"><time>2024-05-04T11:27:47.000Z</time><ele>1100.2</ele></trkpt><trkpt lat="45.849844" lon="9.192632"><time>2024-05-04T11:27:48.000Z</time><ele>1100</ele></trkpt><trkpt lat="45.849843" lon="9.19263"><time>2024-05-04T11:27:49.000Z</time><ele>1099.6</ele></trkpt><trkpt lat="45.849841" lon="9.192631"><time>2024-05-04T11:27:50.000Z</time><ele>1099.6</ele></trkpt><trkpt lat="45.84984" lon="9.19263"><time>2024-05-04T11:27:51.000Z</time><ele>1099.4</ele></trkpt><trkpt lat="45.849836" lon="9.192629"><time>2024-05-04T11:27:52.000Z</time><ele>1099.4</ele></trkpt><trkpt lat="45.849834" lon="9.192631"><time>2024-05-04T11:27:53.000Z</time><ele>1099.2</ele></trkpt><trkpt lat="45.849832" lon="9.192631"><time>2024-05-04T11:27:54.000Z</time><ele>1099.2</ele></trkpt><trkpt lat="45.849824" lon="9.192623"><time>2024-05-04T11:27:55.000Z</time><ele>1098.8</ele></trkpt><trkpt lat="45.849821" lon="9.19262"><time>2024-05-04T11:27:56.000Z</time><ele>1098.4</ele></trkpt><trkpt lat="45.849819" lon="9.192621"><time>2024-05-04T11:27:57.000Z</time><ele>1098.2</ele></trkpt><trkpt lat="45.849818" lon="9.192622"><time>2024-05-04T11:27:58.000Z</time><ele>1098</ele></trkpt><trkpt lat="45.849817" lon="9.192621"><time>2024-05-04T11:27:59.000Z</time><ele>1097.6</ele></trkpt><trkpt lat="45.849816" lon="9.192621"><time>2024-05-04T11:28:00.000Z</time><ele>1097.4</ele></trkpt><trkpt lat="45.849811" lon="9.19262"><time>2024-05-04T11:28:01.000Z</time><ele>1097.2</ele></trkpt><trkpt lat="45.849801" lon="9.192615"><time>2024-05-04T11:28:02.000Z</time><ele>1097.2</ele></trkpt><trkpt lat="45.849795" lon="9.192616"><time>2024-05-04T11:28:03.000Z</time><ele>1097</ele></trkpt><trkpt lat="45.849786" lon="9.192615"><time>2024-05-04T11:28:04.000Z</time><ele>1096.8</ele></trkpt><trkpt lat="45.849782" lon="9.192614"><time>2024-05-04T11:28:05.000Z</time><ele>1096.4</ele></trkpt><trkpt lat="45.84978" lon="9.192618"><time>2024-05-04T11:28:06.000Z</time><ele>1096.2</ele></trkpt><trkpt lat="45.849777" lon="9.192618"><time>2024-05-04T11:28:07.000Z</time><ele>1096</ele></trkpt><trkpt lat="45.849773" lon="9.192619"><time>2024-05-04T11:28:08.000Z</time><ele>1096</ele></trkpt><trkpt lat="45.84977" lon="9.192622"><time>2024-05-04T11:28:09.000Z</time><ele>1095.8</ele></trkpt><trkpt lat="45.849772" lon="9.192626"><time>2024-05-04T11:28:10.000Z</time><ele>1095.6</ele></trkpt><trkpt lat="45.849772" lon="9.192626"><time>2024-05-04T11:28:11.000Z</time><ele>1095.4</ele></trkpt><trkpt lat="45.849769" lon="9.192625"><time>2024-05-04T11:28:12.000Z</time><ele>1095.4</ele></trkpt><trkpt lat="45.849761" lon="9.192617"><time>2024-05-04T11:28:13.000Z</time><ele>1095</ele></trkpt><trkpt lat="45.849755" lon="9.192612"><time>2024-05-04T11:28:14.000Z</time><ele>1094.8</ele></trkpt><trkpt lat="45.849749" lon="9.192612"><time>2024-05-04T11:28:15.000Z</time><ele>1094.4</ele></trkpt><trkpt lat="45.849747" lon="9.192614"><time>2024-05-04T11:28:16.000Z</time><ele>1094</ele></trkpt><trkpt lat="45.849745" lon="9.192616"><time>2024-05-04T11:28:17.000Z</time><ele>1093.8</ele></trkpt><trkpt lat="45.849742" lon="9.19262"><time>2024-05-04T11:28:18.000Z</time><ele>1093.8</ele></trkpt><trkpt lat="45.84974" lon="9.192621"><time>2024-05-04T11:28:19.000Z</time><ele>1093.6</ele></trkpt><trkpt lat="45.849739" lon="9.192622"><time>2024-05-04T11:28:20.000Z</time><ele>1093.4</ele></trkpt><trkpt lat="45.849737" lon="9.192622"><time>2024-05-04T11:28:21.000Z</time><ele>1093</ele></trkpt><trkpt lat="45.849736" lon="9.192631"><time>2024-05-04T11:28:22.000Z</time><ele>1092.8</ele></trkpt><trkpt lat="45.849733" lon="9.192632"><time>2024-05-04T11:28:23.000Z</time><ele>1092.4</ele></trkpt><trkpt lat="45.849724" lon="9.192627"><time>2024-05-04T11:28:24.000Z</time><ele>1092.2</ele></trkpt><trkpt lat="45.849716" lon="9.192626"><time>2024-05-04T11:28:25.000Z</time><ele>1092</ele></trkpt><trkpt lat="45.849708" lon="9.192626"><time>2024-05-04T11:28:26.000Z</time><ele>1091.8</ele></trkpt><trkpt lat="45.849701" lon="9.192628"><time>2024-05-04T11:28:27.000Z</time><ele>1091.6</ele></trkpt><trkpt lat="45.849695" lon="9.192633"><time>2024-05-04T11:28:28.000Z</time><ele>1091.4</ele></trkpt><trkpt lat="45.849689" lon="9.192639"><time>2024-05-04T11:28:29.000Z</time><ele>1091.4</ele></trkpt><trkpt lat="45.849684" lon="9.192642"><time>2024-05-04T11:28:30.000Z</time><ele>1091.2</ele></trkpt><trkpt lat="45.849681" lon="9.192644"><time>2024-05-04T11:28:31.000Z</time><ele>1090.8</ele></trkpt><trkpt lat="45.849678" lon="9.192649"><time>2024-05-04T11:28:32.000Z</time><ele>1090.4</ele></trkpt><trkpt lat="45.849676" lon="9.192653"><time>2024-05-04T11:28:33.000Z</time><ele>1090.2</ele></trkpt><trkpt lat="45.849667" lon="9.192654"><time>2024-05-04T11:28:34.000Z</time><ele>1090</ele></trkpt><trkpt lat="45.849664" lon="9.192655"><time>2024-05-04T11:28:35.000Z</time><ele>1089.8</ele></trkpt><trkpt lat="45.849658" lon="9.192655"><time>2024-05-04T11:28:36.000Z</time><ele>1089.4</ele></trkpt><trkpt lat="45.849645" lon="9.192656"><time>2024-05-04T11:28:37.000Z</time><ele>1089.2</ele></trkpt><trkpt lat="45.849631" lon="9.192653"><time>2024-05-04T11:28:38.000Z</time><ele>1089.2</ele></trkpt><trkpt lat="45.849623" lon="9.192652"><time>2024-05-04T11:28:39.000Z</time><ele>1088.8</ele></trkpt><trkpt lat="45.849614" lon="9.192654"><time>2024-05-04T11:28:40.000Z</time><ele>1088.6</ele></trkpt><trkpt lat="45.849605" lon="9.192657"><time>2024-05-04T11:28:41.000Z</time><ele>1088.2</ele></trkpt><trkpt lat="45.849587" lon="9.192656"><time>2024-05-04T11:28:42.000Z</time><ele>1087.8</ele></trkpt><trkpt lat="45.849577" lon="9.192663"><time>2024-05-04T11:28:43.000Z</time><ele>1087.8</ele></trkpt><trkpt lat="45.849573" lon="9.192665"><time>2024-05-04T11:28:44.000Z</time><ele>1087.6</ele></trkpt><trkpt lat="45.849569" lon="9.192668"><time>2024-05-04T11:28:45.000Z</time><ele>1087.4</ele></trkpt><trkpt lat="45.849555" lon="9.192666"><time>2024-05-04T11:28:46.000Z</time><ele>1087</ele></trkpt><trkpt lat="45.849544" lon="9.192665"><time>2024-05-04T11:28:47.000Z</time><ele>1086.8</ele></trkpt><trkpt lat="45.849536" lon="9.192666"><time>2024-05-04T11:28:48.000Z</time><ele>1086.6</ele></trkpt><trkpt lat="45.849527" lon="9.192668"><time>2024-05-04T11:28:49.000Z</time><ele>1086.6</ele></trkpt><trkpt lat="45.849521" lon="9.19267"><time>2024-05-04T11:28:50.000Z</time><ele>1086.4</ele></trkpt><trkpt lat="45.849516" lon="9.192673"><time>2024-05-04T11:28:51.000Z</time><ele>1086.4</ele></trkpt><trkpt lat="45.849514" lon="9.19268"><time>2024-05-04T11:28:52.000Z</time><ele>1086</ele></trkpt><trkpt lat="45.849507" lon="9.192687"><time>2024-05-04T11:28:53.000Z</time><ele>1086</ele></trkpt><trkpt lat="45.849499" lon="9.192689"><time>2024-05-04T11:28:54.000Z</time><ele>1085.8</ele></trkpt><trkpt lat="45.849487" lon="9.192685"><time>2024-05-04T11:28:55.000Z</time><ele>1085.4</ele></trkpt><trkpt lat="45.849474" lon="9.192677"><time>2024-05-04T11:28:56.000Z</time><ele>1085.2</ele></trkpt><trkpt lat="45.84946" lon="9.192674"><time>2024-05-04T11:28:57.000Z</time><ele>1084.8</ele></trkpt><trkpt lat="45.849443" lon="9.192668"><time>2024-05-04T11:28:58.000Z</time><ele>1084.6</ele></trkpt><trkpt lat="45.849432" lon="9.192671"><time>2024-05-04T11:28:59.000Z</time><ele>1084.4</ele></trkpt><trkpt lat="45.849423" lon="9.192678"><time>2024-05-04T11:29:00.000Z</time><ele>1084.2</ele></trkpt><trkpt lat="45.84941" lon="9.192679"><time>2024-05-04T11:29:01.000Z</time><ele>1084</ele></trkpt><trkpt lat="45.8494" lon="9.192683"><time>2024-05-04T11:29:02.000Z</time><ele>1083.8</ele></trkpt><trkpt lat="45.849388" lon="9.192688"><time>2024-05-04T11:29:03.000Z</time><ele>1083.6</ele></trkpt><trkpt lat="45.849383" lon="9.19269"><time>2024-05-04T11:29:04.000Z</time><ele>1083.6</ele></trkpt><trkpt lat="45.849372" lon="9.192692"><time>2024-05-04T11:29:05.000Z</time><ele>1083.4</ele></trkpt><trkpt lat="45.849362" lon="9.192705"><time>2024-05-04T11:29:06.000Z</time><ele>1083.2</ele></trkpt><trkpt lat="45.849361" lon="9.192719"><time>2024-05-04T11:29:07.000Z</time><ele>1083.2</ele></trkpt><trkpt lat="45.849356" lon="9.192722"><time>2024-05-04T11:29:08.000Z</time><ele>1083</ele></trkpt><trkpt lat="45.849354" lon="9.192725"><time>2024-05-04T11:29:09.000Z</time><ele>1082.8</ele></trkpt><trkpt lat="45.849353" lon="9.192728"><time>2024-05-04T11:29:10.000Z</time><ele>1082.8</ele></trkpt><trkpt lat="45.849354" lon="9.192729"><time>2024-05-04T11:29:11.000Z</time><ele>1082.6</ele></trkpt><trkpt lat="45.849354" lon="9.192729"><time>2024-05-04T11:29:12.000Z</time><ele>1082.6</ele></trkpt><trkpt lat="45.849355" lon="9.192729"><time>2024-05-04T11:29:13.000Z</time><ele>1082.6</ele></trkpt><trkpt lat="45.849356" lon="9.192728"><time>2024-05-04T11:29:14.000Z</time><ele>1082.6</ele></trkpt><trkpt lat="45.849354" lon="9.192729"><time>2024-05-04T11:29:15.000Z</time><ele>1082.6</ele></trkpt><trkpt lat="45.849352" lon="9.192728"><time>2024-05-04T11:29:16.000Z</time><ele>1082.6</ele></trkpt><trkpt lat="45.849351" lon="9.192726"><time>2024-05-04T11:29:17.000Z</time><ele>1082.4</ele></trkpt><trkpt lat="45.84935" lon="9.192724"><time>2024-05-04T11:29:18.000Z</time><ele>1082.4</ele></trkpt><trkpt lat="45.84935" lon="9.192724"><time>2024-05-04T11:29:19.000Z</time><ele>1082.4</ele></trkpt><trkpt lat="45.849352" lon="9.192725"><time>2024-05-04T11:29:20.000Z</time><ele>1082.4</ele></trkpt><trkpt lat="45.849353" lon="9.192726"><time>2024-05-04T11:29:21.000Z</time><ele>1082.4</ele></trkpt><trkpt lat="45.849354" lon="9.192728"><time>2024-05-04T11:29:22.000Z</time><ele>1082.4</ele></trkpt><trkpt lat="45.849353" lon="9.192729"><time>2024-05-04T11:29:23.000Z</time><ele>1082.2</ele></trkpt><trkpt lat="45.84935" lon="9.192729"><time>2024-05-04T11:29:24.000Z</time><ele>1082.2</ele></trkpt><trkpt lat="45.849345" lon="9.19273"><time>2024-05-04T11:29:25.000Z</time><ele>1082.2</ele></trkpt><trkpt lat="45.849339" lon="9.192732"><time>2024-05-04T11:29:26.000Z</time><ele>1082.2</ele></trkpt><trkpt lat="45.849333" lon="9.192733"><time>2024-05-04T11:29:27.000Z</time><ele>1082.2</ele></trkpt><trkpt lat="45.849328" lon="9.192735"><time>2024-05-04T11:29:28.000Z</time><ele>1082</ele></trkpt><trkpt lat="45.84932" lon="9.192736"><time>2024-05-04T11:29:29.000Z</time><ele>1082</ele></trkpt><trkpt lat="45.849311" lon="9.192741"><time>2024-05-04T11:29:30.000Z</time><ele>1081.8</ele></trkpt><trkpt lat="45.849299" lon="9.192746"><time>2024-05-04T11:29:31.000Z</time><ele>1081.8</ele></trkpt><trkpt lat="45.849289" lon="9.192749"><time>2024-05-04T11:29:32.000Z</time><ele>1081.6</ele></trkpt><trkpt lat="45.849276" lon="9.192754"><time>2024-05-04T11:29:33.000Z</time><ele>1081.2</ele></trkpt><trkpt lat="45.849266" lon="9.192758"><time>2024-05-04T11:29:34.000Z</time><ele>1081</ele></trkpt><trkpt lat="45.849259" lon="9.192757"><time>2024-05-04T11:29:35.000Z</time><ele>1081</ele></trkpt><trkpt lat="45.849249" lon="9.19275"><time>2024-05-04T11:29:36.000Z</time><ele>1081</ele></trkpt><trkpt lat="45.849244" lon="9.192748"><time>2024-05-04T11:29:37.000Z</time><ele>1080.8</ele></trkpt><trkpt lat="45.84924" lon="9.192747"><time>2024-05-04T11:29:38.000Z</time><ele>1080.8</ele></trkpt><trkpt lat="45.849231" lon="9.192742"><time>2024-05-04T11:29:39.000Z</time><ele>1080.6</ele></trkpt><trkpt lat="45.849226" lon="9.192739"><time>2024-05-04T11:29:40.000Z</time><ele>1080.6</ele></trkpt><trkpt lat="45.849222" lon="9.192736"><time>2024-05-04T11:29:41.000Z</time><ele>1080.4</ele></trkpt><trkpt lat="45.849219" lon="9.192734"><time>2024-05-04T11:29:42.000Z</time><ele>1080.4</ele></trkpt><trkpt lat="45.849215" lon="9.192735"><time>2024-05-04T11:29:43.000Z</time><ele>1080.2</ele></trkpt><trkpt lat="45.849208" lon="9.192732"><time>2024-05-04T11:29:44.000Z</time><ele>1080</ele></trkpt><trkpt lat="45.849201" lon="9.192736"><time>2024-05-04T11:29:45.000Z</time><ele>1079.6</ele></trkpt><trkpt lat="45.849194" lon="9.192737"><time>2024-05-04T11:29:46.000Z</time><ele>1079.4</ele></trkpt><trkpt lat="45.849183" lon="9.192736"><time>2024-05-04T11:29:47.000Z</time><ele>1079.4</ele></trkpt><trkpt lat="45.849174" lon="9.19273"><time>2024-05-04T11:29:48.000Z</time><ele>1079.2</ele></trkpt><trkpt lat="45.84917" lon="9.192729"><time>2024-05-04T11:29:49.000Z</time><ele>1079</ele></trkpt><trkpt lat="45.849165" lon="9.192728"><time>2024-05-04T11:29:50.000Z</time><ele>1079</ele></trkpt><trkpt lat="45.849156" lon="9.192727"><time>2024-05-04T11:29:51.000Z</time><ele>1078.8</ele></trkpt><trkpt lat="45.849146" lon="9.192726"><time>2024-05-04T11:29:52.000Z</time><ele>1078.8</ele></trkpt><trkpt lat="45.849138" lon="9.192724"><time>2024-05-04T11:29:53.000Z</time><ele>1078.6</ele></trkpt><trkpt lat="45.849129" lon="9.19272"><time>2024-05-04T11:29:54.000Z</time><ele>1078.6</ele></trkpt><trkpt lat="45.849123" lon="9.192719"><time>2024-05-04T11:29:55.000Z</time><ele>1078.4</ele></trkpt><trkpt lat="45.849114" lon="9.192718"><time>2024-05-04T11:29:56.000Z</time><ele>1078.2</ele></trkpt><trkpt lat="45.849103" lon="9.192716"><time>2024-05-04T11:29:57.000Z</time><ele>1078.2</ele></trkpt><trkpt lat="45.849094" lon="9.192716"><time>2024-05-04T11:29:58.000Z</time><ele>1078</ele></trkpt><trkpt lat="45.849084" lon="9.192718"><time>2024-05-04T11:29:59.000Z</time><ele>1077.8</ele></trkpt><trkpt lat="45.849081" lon="9.192725"><time>2024-05-04T11:30:00.000Z</time><ele>1077.8</ele></trkpt><trkpt lat="45.84908" lon="9.192731"><time>2024-05-04T11:30:01.000Z</time><ele>1077.6</ele></trkpt><trkpt lat="45.849074" lon="9.192732"><time>2024-05-04T11:30:02.000Z</time><ele>1077.4</ele></trkpt><trkpt lat="45.849059" lon="9.19273"><time>2024-05-04T11:30:03.000Z</time><ele>1077.4</ele></trkpt><trkpt lat="45.849045" lon="9.192724"><time>2024-05-04T11:30:04.000Z</time><ele>1077.2</ele></trkpt><trkpt lat="45.849029" lon="9.192724"><time>2024-05-04T11:30:05.000Z</time><ele>1077</ele></trkpt><trkpt lat="45.84902" lon="9.192725"><time>2024-05-04T11:30:06.000Z</time><ele>1076.8</ele></trkpt><trkpt lat="45.849012" lon="9.192725"><time>2024-05-04T11:30:07.000Z</time><ele>1076.6</ele></trkpt><trkpt lat="45.849001" lon="9.192723"><time>2024-05-04T11:30:08.000Z</time><ele>1076.6</ele></trkpt><trkpt lat="45.848983" lon="9.192717"><time>2024-05-04T11:30:09.000Z</time><ele>1076.6</ele></trkpt><trkpt lat="45.848968" lon="9.192714"><time>2024-05-04T11:30:10.000Z</time><ele>1076.4</ele></trkpt><trkpt lat="45.848958" lon="9.192713"><time>2024-05-04T11:30:11.000Z</time><ele>1076.4</ele></trkpt><trkpt lat="45.848946" lon="9.19271"><time>2024-05-04T11:30:12.000Z</time><ele>1076.2</ele></trkpt><trkpt lat="45.84893" lon="9.192708"><time>2024-05-04T11:30:13.000Z</time><ele>1076.2</ele></trkpt><trkpt lat="45.848917" lon="9.192708"><time>2024-05-04T11:30:14.000Z</time><ele>1076</ele></trkpt><trkpt lat="45.848904" lon="9.19271"><time>2024-05-04T11:30:15.000Z</time><ele>1075.8</ele></trkpt><trkpt lat="45.848894" lon="9.192711"><time>2024-05-04T11:30:16.000Z</time><ele>1075.6</ele></trkpt><trkpt lat="45.848881" lon="9.192715"><time>2024-05-04T11:30:17.000Z</time><ele>1075.6</ele></trkpt><trkpt lat="45.848864" lon="9.19272"><time>2024-05-04T11:30:18.000Z</time><ele>1075.4</ele></trkpt><trkpt lat="45.848851" lon="9.192721"><time>2024-05-04T11:30:19.000Z</time><ele>1075.4</ele></trkpt><trkpt lat="45.848839" lon="9.192719"><time>2024-05-04T11:30:20.000Z</time><ele>1075.2</ele></trkpt><trkpt lat="45.848832" lon="9.192717"><time>2024-05-04T11:30:21.000Z</time><ele>1075.2</ele></trkpt><trkpt lat="45.84882" lon="9.192715"><time>2024-05-04T11:30:22.000Z</time><ele>1075.2</ele></trkpt><trkpt lat="45.848803" lon="9.192712"><time>2024-05-04T11:30:23.000Z</time><ele>1075</ele></trkpt><trkpt lat="45.848792" lon="9.192711"><time>2024-05-04T11:30:24.000Z</time><ele>1075</ele></trkpt><trkpt lat="45.848779" lon="9.192712"><time>2024-05-04T11:30:25.000Z</time><ele>1074.8</ele></trkpt><trkpt lat="45.848768" lon="9.192716"><time>2024-05-04T11:30:26.000Z</time><ele>1074.8</ele></trkpt><trkpt lat="45.848762" lon="9.192722"><time>2024-05-04T11:30:27.000Z</time><ele>1074.8</ele></trkpt><trkpt lat="45.848754" lon="9.192725"><time>2024-05-04T11:30:28.000Z</time><ele>1074.8</ele></trkpt><trkpt lat="45.848747" lon="9.192728"><time>2024-05-04T11:30:29.000Z</time><ele>1074.8</ele></trkpt><trkpt lat="45.848742" lon="9.192731"><time>2024-05-04T11:30:30.000Z</time><ele>1074.6</ele></trkpt><trkpt lat="45.848734" lon="9.192736"><time>2024-05-04T11:30:31.000Z</time><ele>1074.4</ele></trkpt><trkpt lat="45.848728" lon="9.192741"><time>2024-05-04T11:30:32.000Z</time><ele>1074.2</ele></trkpt><trkpt lat="45.84872" lon="9.192743"><time>2024-05-04T11:30:33.000Z</time><ele>1074.2</ele></trkpt><trkpt lat="45.848714" lon="9.192749"><time>2024-05-04T11:30:34.000Z</time><ele>1074</ele></trkpt><trkpt lat="45.848708" lon="9.192757"><time>2024-05-04T11:30:35.000Z</time><ele>1073.8</ele></trkpt><trkpt lat="45.848701" lon="9.192763"><time>2024-05-04T11:30:36.000Z</time><ele>1073.8</ele></trkpt><trkpt lat="45.84869" lon="9.192766"><time>2024-05-04T11:30:37.000Z</time><ele>1073.6</ele></trkpt><trkpt lat="45.848676" lon="9.192771"><time>2024-05-04T11:30:38.000Z</time><ele>1073.6</ele></trkpt><trkpt lat="45.848666" lon="9.192774"><time>2024-05-04T11:30:39.000Z</time><ele>1073.6</ele></trkpt><trkpt lat="45.848654" lon="9.192772"><time>2024-05-04T11:30:40.000Z</time><ele>1073.4</ele></trkpt><trkpt lat="45.848639" lon="9.192774"><time>2024-05-04T11:30:41.000Z</time><ele>1073.2</ele></trkpt><trkpt lat="45.848631" lon="9.19278"><time>2024-05-04T11:30:42.000Z</time><ele>1073.2</ele></trkpt><trkpt lat="45.848623" lon="9.192785"><time>2024-05-04T11:30:43.000Z</time><ele>1073</ele></trkpt><trkpt lat="45.848611" lon="9.192794"><time>2024-05-04T11:30:44.000Z</time><ele>1073</ele></trkpt><trkpt lat="45.848601" lon="9.1928"><time>2024-05-04T11:30:45.000Z</time><ele>1072.8</ele></trkpt><trkpt lat="45.848591" lon="9.192804"><time>2024-05-04T11:30:46.000Z</time><ele>1072.8</ele></trkpt><trkpt lat="45.848585" lon="9.19281"><time>2024-05-04T11:30:47.000Z</time><ele>1072.8</ele></trkpt><trkpt lat="45.848576" lon="9.192816"><time>2024-05-04T11:30:48.000Z</time><ele>1072.6</ele></trkpt><trkpt lat="45.848565" lon="9.192819"><time>2024-05-04T11:30:49.000Z</time><ele>1072.6</ele></trkpt><trkpt lat="45.848547" lon="9.192818"><time>2024-05-04T11:30:50.000Z</time><ele>1072.6</ele></trkpt><trkpt lat="45.848531" lon="9.192818"><time>2024-05-04T11:30:51.000Z</time><ele>1072.4</ele></trkpt><trkpt lat="45.848525" lon="9.192821"><time>2024-05-04T11:30:52.000Z</time><ele>1072.4</ele></trkpt><trkpt lat="45.848521" lon="9.192829"><time>2024-05-04T11:30:53.000Z</time><ele>1072.4</ele></trkpt><trkpt lat="45.848518" lon="9.192835"><time>2024-05-04T11:30:54.000Z</time><ele>1072.4</ele></trkpt><trkpt lat="45.848513" lon="9.192846"><time>2024-05-04T11:30:55.000Z</time><ele>1072.4</ele></trkpt><trkpt lat="45.848506" lon="9.192855"><time>2024-05-04T11:30:56.000Z</time><ele>1072.4</ele></trkpt><trkpt lat="45.848496" lon="9.192863"><time>2024-05-04T11:30:57.000Z</time><ele>1072.4</ele></trkpt><trkpt lat="45.848488" lon="9.192862"><time>2024-05-04T11:30:58.000Z</time><ele>1072.4</ele></trkpt><trkpt lat="45.84848" lon="9.192855"><time>2024-05-04T11:30:59.000Z</time><ele>1072.6</ele></trkpt><trkpt lat="45.848478" lon="9.192858"><time>2024-05-04T11:31:00.000Z</time><ele>1072.6</ele></trkpt><trkpt lat="45.848467" lon="9.192856"><time>2024-05-04T11:31:01.000Z</time><ele>1072.4</ele></trkpt><trkpt lat="45.848458" lon="9.192848"><time>2024-05-04T11:31:02.000Z</time><ele>1072.4</ele></trkpt><trkpt lat="45.848454" lon="9.192846"><time>2024-05-04T11:31:03.000Z</time><ele>1072.4</ele></trkpt><trkpt lat="45.848444" lon="9.192838"><time>2024-05-04T11:31:04.000Z</time><ele>1072.4</ele></trkpt><trkpt lat="45.848438" lon="9.192835"><time>2024-05-04T11:31:05.000Z</time><ele>1072.2</ele></trkpt><trkpt lat="45.848427" lon="9.192837"><time>2024-05-04T11:31:06.000Z</time><ele>1072.2</ele></trkpt><trkpt lat="45.848425" lon="9.192838"><time>2024-05-04T11:31:07.000Z</time><ele>1072.2</ele></trkpt><trkpt lat="45.848417" lon="9.192836"><time>2024-05-04T11:31:08.000Z</time><ele>1072.2</ele></trkpt><trkpt lat="45.848405" lon="9.192833"><time>2024-05-04T11:31:09.000Z</time><ele>1072.2</ele></trkpt><trkpt lat="45.848399" lon="9.192834"><time>2024-05-04T11:31:10.000Z</time><ele>1072</ele></trkpt><trkpt lat="45.848397" lon="9.192832"><time>2024-05-04T11:31:11.000Z</time><ele>1072</ele></trkpt><trkpt lat="45.848396" lon="9.192828"><time>2024-05-04T11:31:12.000Z</time><ele>1072</ele></trkpt><trkpt lat="45.848383" lon="9.192823"><time>2024-05-04T11:31:13.000Z</time><ele>1072</ele></trkpt><trkpt lat="45.84838" lon="9.192823"><time>2024-05-04T11:31:14.000Z</time><ele>1072</ele></trkpt><trkpt lat="45.848372" lon="9.192822"><time>2024-05-04T11:31:15.000Z</time><ele>1072</ele></trkpt><trkpt lat="45.84837" lon="9.192826"><time>2024-05-04T11:31:16.000Z</time><ele>1072</ele></trkpt><trkpt lat="45.848372" lon="9.192829"><time>2024-05-04T11:31:17.000Z</time><ele>1072</ele></trkpt><trkpt lat="45.848365" lon="9.192822"><time>2024-05-04T11:31:18.000Z</time><ele>1072.2</ele></trkpt><trkpt lat="45.848368" lon="9.192818"><time>2024-05-04T11:31:19.000Z</time><ele>1072.2</ele></trkpt><trkpt lat="45.84837" lon="9.192817"><time>2024-05-04T11:31:20.000Z</time><ele>1072.2</ele></trkpt><trkpt lat="45.848371" lon="9.192817"><time>2024-05-04T11:31:21.000Z</time><ele>1072.2</ele></trkpt><trkpt lat="45.848373" lon="9.192822"><time>2024-05-04T11:31:22.000Z</time><ele>1072.2</ele></trkpt><trkpt lat="45.848374" lon="9.192825"><time>2024-05-04T11:31:23.000Z</time><ele>1072.4</ele></trkpt><trkpt lat="45.848367" lon="9.192826"><time>2024-05-04T11:31:24.000Z</time><ele>1072.2</ele></trkpt><trkpt lat="45.848361" lon="9.192827"><time>2024-05-04T11:31:25.000Z</time><ele>1072.2</ele></trkpt><trkpt lat="45.848358" lon="9.192825"><time>2024-05-04T11:31:26.000Z</time><ele>1072.2</ele></trkpt><trkpt lat="45.848353" lon="9.192819"><time>2024-05-04T11:31:27.000Z</time><ele>1072.2</ele></trkpt><trkpt lat="45.848347" lon="9.192808"><time>2024-05-04T11:31:28.000Z</time><ele>1072.2</ele></trkpt><trkpt lat="45.848341" lon="9.192796"><time>2024-05-04T11:31:29.000Z</time><ele>1072</ele></trkpt><trkpt lat="45.848332" lon="9.192777"><time>2024-05-04T11:31:30.000Z</time><ele>1072</ele></trkpt><trkpt lat="45.848324" lon="9.19277"><time>2024-05-04T11:31:31.000Z</time><ele>1072</ele></trkpt><trkpt lat="45.848314" lon="9.192766"><time>2024-05-04T11:31:32.000Z</time><ele>1072</ele></trkpt><trkpt lat="45.848304" lon="9.192765"><time>2024-05-04T11:31:33.000Z</time><ele>1072</ele></trkpt><trkpt lat="45.848294" lon="9.19276"><time>2024-05-04T11:31:34.000Z</time><ele>1072</ele></trkpt><trkpt lat="45.848283" lon="9.192756"><time>2024-05-04T11:31:35.000Z</time><ele>1072</ele></trkpt><trkpt lat="45.848272" lon="9.192751"><time>2024-05-04T11:31:36.000Z</time><ele>1072</ele></trkpt><trkpt lat="45.848261" lon="9.192742"><time>2024-05-04T11:31:37.000Z</time><ele>1072</ele></trkpt><trkpt lat="45.848251" lon="9.192734"><time>2024-05-04T11:31:38.000Z</time><ele>1072</ele></trkpt><trkpt lat="45.848241" lon="9.192725"><time>2024-05-04T11:31:39.000Z</time><ele>1072</ele></trkpt><trkpt lat="45.84823" lon="9.192725"><time>2024-05-04T11:31:40.000Z</time><ele>1072</ele></trkpt><trkpt lat="45.848215" lon="9.192726"><time>2024-05-04T11:31:41.000Z</time><ele>1072</ele></trkpt><trkpt lat="45.848198" lon="9.192731"><time>2024-05-04T11:31:42.000Z</time><ele>1071.8</ele></trkpt><trkpt lat="45.84819" lon="9.192725"><time>2024-05-04T11:31:43.000Z</time><ele>1071.8</ele></trkpt><trkpt lat="45.848181" lon="9.192726"><time>2024-05-04T11:31:44.000Z</time><ele>1071.8</ele></trkpt><trkpt lat="45.848178" lon="9.192723"><time>2024-05-04T11:31:45.000Z</time><ele>1072</ele></trkpt><trkpt lat="45.848171" lon="9.192723"><time>2024-05-04T11:31:46.000Z</time><ele>1071.8</ele></trkpt><trkpt lat="45.848165" lon="9.192714"><time>2024-05-04T11:31:47.000Z</time><ele>1071.8</ele></trkpt><trkpt lat="45.84816" lon="9.192707"><time>2024-05-04T11:31:48.000Z</time><ele>1072</ele></trkpt><trkpt lat="45.848155" lon="9.192702"><time>2024-05-04T11:31:49.000Z</time><ele>1072</ele></trkpt><trkpt lat="45.848148" lon="9.192693"><time>2024-05-04T11:31:50.000Z</time><ele>1072</ele></trkpt><trkpt lat="45.848142" lon="9.192682"><time>2024-05-04T11:31:51.000Z</time><ele>1072</ele></trkpt><trkpt lat="45.848136" lon="9.192671"><time>2024-05-04T11:31:52.000Z</time><ele>1072</ele></trkpt><trkpt lat="45.848126" lon="9.192664"><time>2024-05-04T11:31:53.000Z</time><ele>1072</ele></trkpt><trkpt lat="45.848107" lon="9.192652"><time>2024-05-04T11:31:54.000Z</time><ele>1072</ele></trkpt><trkpt lat="45.848084" lon="9.192649"><time>2024-05-04T11:31:55.000Z</time><ele>1072.2</ele></trkpt><trkpt lat="45.848068" lon="9.192646"><time>2024-05-04T11:31:56.000Z</time><ele>1072.4</ele></trkpt><trkpt lat="45.848058" lon="9.192646"><time>2024-05-04T11:31:57.000Z</time><ele>1072.4</ele></trkpt><trkpt lat="45.848041" lon="9.192647"><time>2024-05-04T11:31:58.000Z</time><ele>1072.6</ele></trkpt><trkpt lat="45.848022" lon="9.192633"><time>2024-05-04T11:31:59.000Z</time><ele>1072.6</ele></trkpt><trkpt lat="45.848001" lon="9.192619"><time>2024-05-04T11:32:00.000Z</time><ele>1072.8</ele></trkpt><trkpt lat="45.847986" lon="9.192615"><time>2024-05-04T11:32:01.000Z</time><ele>1072.8</ele></trkpt><trkpt lat="45.847975" lon="9.192614"><time>2024-05-04T11:32:02.000Z</time><ele>1073</ele></trkpt><trkpt lat="45.847964" lon="9.192615"><time>2024-05-04T11:32:03.000Z</time><ele>1073</ele></trkpt><trkpt lat="45.84796" lon="9.192615"><time>2024-05-04T11:32:04.000Z</time><ele>1073</ele></trkpt><trkpt lat="45.847959" lon="9.192616"><time>2024-05-04T11:32:05.000Z</time><ele>1073.2</ele></trkpt><trkpt lat="45.84796" lon="9.192619"><time>2024-05-04T11:32:06.000Z</time><ele>1073.2</ele></trkpt><trkpt lat="45.847959" lon="9.192623"><time>2024-05-04T11:32:07.000Z</time><ele>1073.4</ele></trkpt><trkpt lat="45.847957" lon="9.192632"><time>2024-05-04T11:32:08.000Z</time><ele>1073.4</ele></trkpt><trkpt lat="45.847957" lon="9.19264"><time>2024-05-04T11:32:09.000Z</time><ele>1073.4</ele></trkpt><trkpt lat="45.847944" lon="9.19264"><time>2024-05-04T11:32:10.000Z</time><ele>1073.4</ele></trkpt><trkpt lat="45.84792" lon="9.19262"><time>2024-05-04T11:32:11.000Z</time><ele>1073.4</ele></trkpt><trkpt lat="45.847895" lon="9.192606"><time>2024-05-04T11:32:12.000Z</time><ele>1073.4</ele></trkpt><trkpt lat="45.847877" lon="9.192597"><time>2024-05-04T11:32:13.000Z</time><ele>1073.4</ele></trkpt><trkpt lat="45.847862" lon="9.192591"><time>2024-05-04T11:32:14.000Z</time><ele>1073.4</ele></trkpt><trkpt lat="45.847847" lon="9.192589"><time>2024-05-04T11:32:15.000Z</time><ele>1073.4</ele></trkpt><trkpt lat="45.847833" lon="9.192587"><time>2024-05-04T11:32:16.000Z</time><ele>1073.4</ele></trkpt><trkpt lat="45.847821" lon="9.192587"><time>2024-05-04T11:32:17.000Z</time><ele>1073.2</ele></trkpt><trkpt lat="45.847806" lon="9.192586"><time>2024-05-04T11:32:18.000Z</time><ele>1073.2</ele></trkpt><trkpt lat="45.847789" lon="9.192584"><time>2024-05-04T11:32:19.000Z</time><ele>1073.2</ele></trkpt><trkpt lat="45.847773" lon="9.192592"><time>2024-05-04T11:32:20.000Z</time><ele>1073.2</ele></trkpt><trkpt lat="45.847761" lon="9.192598"><time>2024-05-04T11:32:21.000Z</time><ele>1073.2</ele></trkpt><trkpt lat="45.847753" lon="9.192606"><time>2024-05-04T11:32:22.000Z</time><ele>1073.2</ele></trkpt><trkpt lat="45.847743" lon="9.192603"><time>2024-05-04T11:32:23.000Z</time><ele>1073.2</ele></trkpt><trkpt lat="45.847739" lon="9.192601"><time>2024-05-04T11:32:24.000Z</time><ele>1073.2</ele></trkpt><trkpt lat="45.847735" lon="9.192596"><time>2024-05-04T11:32:25.000Z</time><ele>1073.2</ele></trkpt><trkpt lat="45.847736" lon="9.192595"><time>2024-05-04T11:32:26.000Z</time><ele>1073.2</ele></trkpt><trkpt lat="45.847737" lon="9.192597"><time>2024-05-04T11:32:27.000Z</time><ele>1073.2</ele></trkpt><trkpt lat="45.847737" lon="9.192607"><time>2024-05-04T11:32:28.000Z</time><ele>1073.2</ele></trkpt><trkpt lat="45.847739" lon="9.192615"><time>2024-05-04T11:32:29.000Z</time><ele>1073.2</ele></trkpt><trkpt lat="45.847742" lon="9.192619"><time>2024-05-04T11:32:30.000Z</time><ele>1073.2</ele></trkpt><trkpt lat="45.847742" lon="9.192618"><time>2024-05-04T11:32:31.000Z</time><ele>1073.2</ele></trkpt><trkpt lat="45.847752" lon="9.192637"><time>2024-05-04T11:32:32.000Z</time><ele>1073</ele></trkpt><trkpt lat="45.847763" lon="9.192651"><time>2024-05-04T11:32:33.000Z</time><ele>1073</ele></trkpt><trkpt lat="45.847766" lon="9.192653"><time>2024-05-04T11:32:34.000Z</time><ele>1073</ele></trkpt><trkpt lat="45.847766" lon="9.192651"><time>2024-05-04T11:32:35.000Z</time><ele>1073</ele></trkpt><trkpt lat="45.847766" lon="9.192652"><time>2024-05-04T11:32:36.000Z</time><ele>1073</ele></trkpt><trkpt lat="45.847766" lon="9.192652"><time>2024-05-04T11:32:37.000Z</time><ele>1073</ele></trkpt><trkpt lat="45.847766" lon="9.192652"><time>2024-05-04T11:32:38.000Z</time><ele>1073</ele></trkpt><trkpt lat="45.847766" lon="9.192652"><time>2024-05-04T11:32:39.000Z</time><ele>1073</ele></trkpt><trkpt lat="45.847766" lon="9.192652"><time>2024-05-04T11:32:40.000Z</time><ele>1073</ele></trkpt><trkpt lat="45.847766" lon="9.192652"><time>2024-05-04T11:32:41.000Z</time><ele>1073</ele></trkpt><trkpt lat="45.847766" lon="9.192652"><time>2024-05-04T11:32:42.000Z</time><ele>1073</ele></trkpt><trkpt lat="45.847766" lon="9.192652"><time>2024-05-04T11:32:43.000Z</time><ele>1073</ele></trkpt><trkpt lat="45.847766" lon="9.192652"><time>2024-05-04T11:32:44.000Z</time><ele>1073</ele></trkpt><trkpt lat="45.847765" lon="9.192658"><time>2024-05-04T11:32:45.000Z</time><ele>1072.8</ele></trkpt><trkpt lat="45.847759" lon="9.192675"><time>2024-05-04T11:32:46.000Z</time><ele>1072.8</ele></trkpt><trkpt lat="45.847744" lon="9.19268"><time>2024-05-04T11:32:47.000Z</time><ele>1072.8</ele></trkpt><trkpt lat="45.847729" lon="9.19269"><time>2024-05-04T11:32:48.000Z</time><ele>1072.8</ele></trkpt><trkpt lat="45.847717" lon="9.192703"><time>2024-05-04T11:32:49.000Z</time><ele>1072.8</ele></trkpt><trkpt lat="45.847704" lon="9.192719"><time>2024-05-04T11:32:50.000Z</time><ele>1072.8</ele></trkpt><trkpt lat="45.847695" lon="9.192732"><time>2024-05-04T11:32:51.000Z</time><ele>1072.8</ele></trkpt><trkpt lat="45.847682" lon="9.19274"><time>2024-05-04T11:32:52.000Z</time><ele>1072.8</ele></trkpt><trkpt lat="45.847664" lon="9.192737"><time>2024-05-04T11:32:53.000Z</time><ele>1072.8</ele></trkpt><trkpt lat="45.847647" lon="9.192736"><time>2024-05-04T11:32:54.000Z</time><ele>1072.8</ele></trkpt><trkpt lat="45.847627" lon="9.192725"><time>2024-05-04T11:32:55.000Z</time><ele>1072.8</ele></trkpt><trkpt lat="45.847609" lon="9.192719"><time>2024-05-04T11:32:56.000Z</time><ele>1072.8</ele></trkpt><trkpt lat="45.847592" lon="9.192724"><time>2024-05-04T11:32:57.000Z</time><ele>1072.8</ele></trkpt><trkpt lat="45.847581" lon="9.192743"><time>2024-05-04T11:32:58.000Z</time><ele>1072.8</ele></trkpt><trkpt lat="45.847576" lon="9.192764"><time>2024-05-04T11:32:59.000Z</time><ele>1072.8</ele></trkpt><trkpt lat="45.847574" lon="9.192783"><time>2024-05-04T11:33:00.000Z</time><ele>1072.8</ele></trkpt><trkpt lat="45.847567" lon="9.192793"><time>2024-05-04T11:33:01.000Z</time><ele>1072.8</ele></trkpt><trkpt lat="45.847559" lon="9.192804"><time>2024-05-04T11:33:02.000Z</time><ele>1072.8</ele></trkpt><trkpt lat="45.847548" lon="9.192813"><time>2024-05-04T11:33:03.000Z</time><ele>1072.8</ele></trkpt><trkpt lat="45.847536" lon="9.192822"><time>2024-05-04T11:33:04.000Z</time><ele>1072.6</ele></trkpt><trkpt lat="45.847528" lon="9.192833"><time>2024-05-04T11:33:05.000Z</time><ele>1072.6</ele></trkpt><trkpt lat="45.847523" lon="9.192846"><time>2024-05-04T11:33:06.000Z</time><ele>1072.6</ele></trkpt><trkpt lat="45.847512" lon="9.192847"><time>2024-05-04T11:33:07.000Z</time><ele>1072.4</ele></trkpt><trkpt lat="45.8475" lon="9.19285"><time>2024-05-04T11:33:08.000Z</time><ele>1072.4</ele></trkpt><trkpt lat="45.84749" lon="9.192856"><time>2024-05-04T11:33:09.000Z</time><ele>1072.2</ele></trkpt><trkpt lat="45.847485" lon="9.192876"><time>2024-05-04T11:33:10.000Z</time><ele>1072.2</ele></trkpt><trkpt lat="45.847468" lon="9.192875"><time>2024-05-04T11:33:11.000Z</time><ele>1072</ele></trkpt><trkpt lat="45.84745" lon="9.192875"><time>2024-05-04T11:33:12.000Z</time><ele>1072</ele></trkpt><trkpt lat="45.847439" lon="9.192883"><time>2024-05-04T11:33:13.000Z</time><ele>1072</ele></trkpt><trkpt lat="45.847432" lon="9.192896"><time>2024-05-04T11:33:14.000Z</time><ele>1072</ele></trkpt><trkpt lat="45.847426" lon="9.192911"><time>2024-05-04T11:33:15.000Z</time><ele>1072</ele></trkpt><trkpt lat="45.847417" lon="9.192919"><time>2024-05-04T11:33:16.000Z</time><ele>1071.8</ele></trkpt><trkpt lat="45.847409" lon="9.192929"><time>2024-05-04T11:33:17.000Z</time><ele>1071.8</ele></trkpt><trkpt lat="45.847381" lon="9.192932"><time>2024-05-04T11:33:18.000Z</time><ele>1071.8</ele></trkpt><trkpt lat="45.847363" lon="9.192937"><time>2024-05-04T11:33:19.000Z</time><ele>1071.8</ele></trkpt><trkpt lat="45.847349" lon="9.192943"><time>2024-05-04T11:33:20.000Z</time><ele>1071.8</ele></trkpt><trkpt lat="45.847341" lon="9.192957"><time>2024-05-04T11:33:21.000Z</time><ele>1071.8</ele></trkpt><trkpt lat="45.84733" lon="9.192963"><time>2024-05-04T11:33:22.000Z</time><ele>1071.6</ele></trkpt><trkpt lat="45.847319" lon="9.192968"><time>2024-05-04T11:33:23.000Z</time><ele>1071.8</ele></trkpt><trkpt lat="45.847305" lon="9.192969"><time>2024-05-04T11:33:24.000Z</time><ele>1071.6</ele></trkpt><trkpt lat="45.84729" lon="9.192972"><time>2024-05-04T11:33:25.000Z</time><ele>1071.6</ele></trkpt><trkpt lat="45.847277" lon="9.192976"><time>2024-05-04T11:33:26.000Z</time><ele>1071.6</ele></trkpt><trkpt lat="45.847267" lon="9.192982"><time>2024-05-04T11:33:27.000Z</time><ele>1071.6</ele></trkpt><trkpt lat="45.84726" lon="9.192985"><time>2024-05-04T11:33:28.000Z</time><ele>1071.6</ele></trkpt><trkpt lat="45.847256" lon="9.192996"><time>2024-05-04T11:33:29.000Z</time><ele>1071.6</ele></trkpt><trkpt lat="45.847248" lon="9.193004"><time>2024-05-04T11:33:30.000Z</time><ele>1071.4</ele></trkpt><trkpt lat="45.847236" lon="9.19301"><time>2024-05-04T11:33:31.000Z</time><ele>1071.4</ele></trkpt><trkpt lat="45.847212" lon="9.192999"><time>2024-05-04T11:33:32.000Z</time><ele>1071.4</ele></trkpt><trkpt lat="45.847183" lon="9.193007"><time>2024-05-04T11:33:33.000Z</time><ele>1071.4</ele></trkpt><trkpt lat="45.847173" lon="9.193008"><time>2024-05-04T11:33:34.000Z</time><ele>1071.4</ele></trkpt><trkpt lat="45.847158" lon="9.192998"><time>2024-05-04T11:33:35.000Z</time><ele>1071.4</ele></trkpt><trkpt lat="45.847141" lon="9.192992"><time>2024-05-04T11:33:36.000Z</time><ele>1071.6</ele></trkpt><trkpt lat="45.847118" lon="9.192979"><time>2024-05-04T11:33:37.000Z</time><ele>1071.6</ele></trkpt><trkpt lat="45.847093" lon="9.192956"><time>2024-05-04T11:33:38.000Z</time><ele>1071.6</ele></trkpt><trkpt lat="45.847079" lon="9.192951"><time>2024-05-04T11:33:39.000Z</time><ele>1071.6</ele></trkpt><trkpt lat="45.847068" lon="9.192944"><time>2024-05-04T11:33:40.000Z</time><ele>1071.6</ele></trkpt><trkpt lat="45.847048" lon="9.192959"><time>2024-05-04T11:33:41.000Z</time><ele>1071.6</ele></trkpt><trkpt lat="45.847034" lon="9.192984"><time>2024-05-04T11:33:42.000Z</time><ele>1071.6</ele></trkpt><trkpt lat="45.847023" lon="9.193014"><time>2024-05-04T11:33:43.000Z</time><ele>1071.6</ele></trkpt><trkpt lat="45.847006" lon="9.193035"><time>2024-05-04T11:33:44.000Z</time><ele>1071.6</ele></trkpt><trkpt lat="45.846986" lon="9.193037"><time>2024-05-04T11:33:45.000Z</time><ele>1071.6</ele></trkpt><trkpt lat="45.846967" lon="9.19303"><time>2024-05-04T11:33:46.000Z</time><ele>1071.6</ele></trkpt><trkpt lat="45.846943" lon="9.193034"><time>2024-05-04T11:33:47.000Z</time><ele>1071.8</ele></trkpt><trkpt lat="45.846932" lon="9.193041"><time>2024-05-04T11:33:48.000Z</time><ele>1071.8</ele></trkpt><trkpt lat="45.846918" lon="9.193035"><time>2024-05-04T11:33:49.000Z</time><ele>1071.8</ele></trkpt><trkpt lat="45.846913" lon="9.193035"><time>2024-05-04T11:33:50.000Z</time><ele>1071.8</ele></trkpt><trkpt lat="45.846905" lon="9.193029"><time>2024-05-04T11:33:51.000Z</time><ele>1071.8</ele></trkpt><trkpt lat="45.846889" lon="9.193034"><time>2024-05-04T11:33:52.000Z</time><ele>1071.8</ele></trkpt><trkpt lat="45.846882" lon="9.193057"><time>2024-05-04T11:33:53.000Z</time><ele>1072</ele></trkpt><trkpt lat="45.846879" lon="9.193064"><time>2024-05-04T11:33:54.000Z</time><ele>1072</ele></trkpt><trkpt lat="45.846866" lon="9.19307"><time>2024-05-04T11:33:55.000Z</time><ele>1072</ele></trkpt><trkpt lat="45.846854" lon="9.193075"><time>2024-05-04T11:33:56.000Z</time><ele>1072.2</ele></trkpt><trkpt lat="45.846846" lon="9.193084"><time>2024-05-04T11:33:57.000Z</time><ele>1072.2</ele></trkpt><trkpt lat="45.846839" lon="9.193096"><time>2024-05-04T11:33:58.000Z</time><ele>1072.4</ele></trkpt><trkpt lat="45.846834" lon="9.193113"><time>2024-05-04T11:33:59.000Z</time><ele>1072.6</ele></trkpt><trkpt lat="45.84683" lon="9.193124"><time>2024-05-04T11:34:00.000Z</time><ele>1072.6</ele></trkpt><trkpt lat="45.846823" lon="9.193132"><time>2024-05-04T11:34:01.000Z</time><ele>1072.8</ele></trkpt><trkpt lat="45.846818" lon="9.193139"><time>2024-05-04T11:34:02.000Z</time><ele>1072.8</ele></trkpt><trkpt lat="45.846813" lon="9.193144"><time>2024-05-04T11:34:03.000Z</time><ele>1072.8</ele></trkpt><trkpt lat="45.846796" lon="9.193151"><time>2024-05-04T11:34:04.000Z</time><ele>1073</ele></trkpt><trkpt lat="45.846776" lon="9.193144"><time>2024-05-04T11:34:05.000Z</time><ele>1073</ele></trkpt><trkpt lat="45.846757" lon="9.193143"><time>2024-05-04T11:34:06.000Z</time><ele>1073.2</ele></trkpt><trkpt lat="45.846748" lon="9.193149"><time>2024-05-04T11:34:07.000Z</time><ele>1073.2</ele></trkpt><trkpt lat="45.846737" lon="9.193149"><time>2024-05-04T11:34:08.000Z</time><ele>1073.4</ele></trkpt><trkpt lat="45.846714" lon="9.193142"><time>2024-05-04T11:34:09.000Z</time><ele>1073.4</ele></trkpt><trkpt lat="45.84669" lon="9.193172"><time>2024-05-04T11:34:10.000Z</time><ele>1073.4</ele></trkpt><trkpt lat="45.846677" lon="9.193171"><time>2024-05-04T11:34:11.000Z</time><ele>1073.6</ele></trkpt><trkpt lat="45.84668" lon="9.193164"><time>2024-05-04T11:34:12.000Z</time><ele>1073.6</ele></trkpt><trkpt lat="45.846668" lon="9.19316"><time>2024-05-04T11:34:13.000Z</time><ele>1073.6</ele></trkpt><trkpt lat="45.846656" lon="9.193164"><time>2024-05-04T11:34:14.000Z</time><ele>1073.8</ele></trkpt><trkpt lat="45.846648" lon="9.193172"><time>2024-05-04T11:34:15.000Z</time><ele>1074</ele></trkpt><trkpt lat="45.846632" lon="9.193167"><time>2024-05-04T11:34:16.000Z</time><ele>1074</ele></trkpt><trkpt lat="45.846617" lon="9.193163"><time>2024-05-04T11:34:17.000Z</time><ele>1074</ele></trkpt><trkpt lat="45.846601" lon="9.193162"><time>2024-05-04T11:34:18.000Z</time><ele>1074.2</ele></trkpt><trkpt lat="45.846592" lon="9.193167"><time>2024-05-04T11:34:19.000Z</time><ele>1074.2</ele></trkpt><trkpt lat="45.84658" lon="9.193178"><time>2024-05-04T11:34:20.000Z</time><ele>1074.2</ele></trkpt><trkpt lat="45.846572" lon="9.193187"><time>2024-05-04T11:34:21.000Z</time><ele>1074.2</ele></trkpt><trkpt lat="45.846562" lon="9.193198"><time>2024-05-04T11:34:22.000Z</time><ele>1074.2</ele></trkpt><trkpt lat="45.846555" lon="9.193208"><time>2024-05-04T11:34:23.000Z</time><ele>1074.2</ele></trkpt><trkpt lat="45.846549" lon="9.193218"><time>2024-05-04T11:34:24.000Z</time><ele>1074.2</ele></trkpt><trkpt lat="45.846544" lon="9.193231"><time>2024-05-04T11:34:25.000Z</time><ele>1074.2</ele></trkpt><trkpt lat="45.846534" lon="9.193239"><time>2024-05-04T11:34:26.000Z</time><ele>1074.2</ele></trkpt><trkpt lat="45.846525" lon="9.193247"><time>2024-05-04T11:34:27.000Z</time><ele>1074.4</ele></trkpt><trkpt lat="45.846518" lon="9.193268"><time>2024-05-04T11:34:28.000Z</time><ele>1074.4</ele></trkpt><trkpt lat="45.846506" lon="9.193281"><time>2024-05-04T11:34:29.000Z</time><ele>1074.6</ele></trkpt><trkpt lat="45.846498" lon="9.193291"><time>2024-05-04T11:34:30.000Z</time><ele>1074.6</ele></trkpt><trkpt lat="45.846493" lon="9.193296"><time>2024-05-04T11:34:31.000Z</time><ele>1074.6</ele></trkpt><trkpt lat="45.846483" lon="9.193291"><time>2024-05-04T11:34:32.000Z</time><ele>1074.6</ele></trkpt><trkpt lat="45.846469" lon="9.193279"><time>2024-05-04T11:34:33.000Z</time><ele>1074.6</ele></trkpt><trkpt lat="45.846453" lon="9.193279"><time>2024-05-04T11:34:34.000Z</time><ele>1074.6</ele></trkpt><trkpt lat="45.846444" lon="9.193285"><time>2024-05-04T11:34:35.000Z</time><ele>1074.8</ele></trkpt><trkpt lat="45.846427" lon="9.193283"><time>2024-05-04T11:34:36.000Z</time><ele>1074.8</ele></trkpt><trkpt lat="45.846408" lon="9.193273"><time>2024-05-04T11:34:37.000Z</time><ele>1074.8</ele></trkpt><trkpt lat="45.846391" lon="9.193269"><time>2024-05-04T11:34:38.000Z</time><ele>1074.8</ele></trkpt><trkpt lat="45.846379" lon="9.193269"><time>2024-05-04T11:34:39.000Z</time><ele>1074.8</ele></trkpt><trkpt lat="45.846363" lon="9.193269"><time>2024-05-04T11:34:40.000Z</time><ele>1074.8</ele></trkpt><trkpt lat="45.84635" lon="9.193274"><time>2024-05-04T11:34:41.000Z</time><ele>1074.8</ele></trkpt><trkpt lat="45.846343" lon="9.193283"><time>2024-05-04T11:34:42.000Z</time><ele>1074.8</ele></trkpt><trkpt lat="45.846334" lon="9.193291"><time>2024-05-04T11:34:43.000Z</time><ele>1074.8</ele></trkpt><trkpt lat="45.846325" lon="9.193301"><time>2024-05-04T11:34:44.000Z</time><ele>1074.8</ele></trkpt><trkpt lat="45.846325" lon="9.193311"><time>2024-05-04T11:34:45.000Z</time><ele>1074.8</ele></trkpt><trkpt lat="45.846311" lon="9.193312"><time>2024-05-04T11:34:46.000Z</time><ele>1074.8</ele></trkpt><trkpt lat="45.846302" lon="9.193306"><time>2024-05-04T11:34:47.000Z</time><ele>1074.8</ele></trkpt><trkpt lat="45.846298" lon="9.193317"><time>2024-05-04T11:34:48.000Z</time><ele>1074.8</ele></trkpt><trkpt lat="45.846294" lon="9.193326"><time>2024-05-04T11:34:49.000Z</time><ele>1074.8</ele></trkpt><trkpt lat="45.846282" lon="9.193325"><time>2024-05-04T11:34:50.000Z</time><ele>1074.8</ele></trkpt><trkpt lat="45.846266" lon="9.193325"><time>2024-05-04T11:34:51.000Z</time><ele>1074.8</ele></trkpt><trkpt lat="45.84625" lon="9.193327"><time>2024-05-04T11:34:52.000Z</time><ele>1074.8</ele></trkpt><trkpt lat="45.846233" lon="9.193321"><time>2024-05-04T11:34:53.000Z</time><ele>1074.8</ele></trkpt><trkpt lat="45.846217" lon="9.193315"><time>2024-05-04T11:34:54.000Z</time><ele>1074.8</ele></trkpt><trkpt lat="45.846206" lon="9.193311"><time>2024-05-04T11:34:55.000Z</time><ele>1074.8</ele></trkpt><trkpt lat="45.846197" lon="9.193321"><time>2024-05-04T11:34:56.000Z</time><ele>1074.8</ele></trkpt><trkpt lat="45.846189" lon="9.19333"><time>2024-05-04T11:34:57.000Z</time><ele>1075</ele></trkpt><trkpt lat="45.846183" lon="9.193336"><time>2024-05-04T11:34:58.000Z</time><ele>1075</ele></trkpt><trkpt lat="45.846174" lon="9.19333"><time>2024-05-04T11:34:59.000Z</time><ele>1075</ele></trkpt><trkpt lat="45.846172" lon="9.193332"><time>2024-05-04T11:35:00.000Z</time><ele>1075</ele></trkpt><trkpt lat="45.846172" lon="9.193335"><time>2024-05-04T11:35:01.000Z</time><ele>1075</ele></trkpt><trkpt lat="45.846171" lon="9.193338"><time>2024-05-04T11:35:02.000Z</time><ele>1075</ele></trkpt><trkpt lat="45.84617" lon="9.193343"><time>2024-05-04T11:35:03.000Z</time><ele>1075.2</ele></trkpt><trkpt lat="45.84616" lon="9.193349"><time>2024-05-04T11:35:04.000Z</time><ele>1075.2</ele></trkpt><trkpt lat="45.846156" lon="9.193358"><time>2024-05-04T11:35:05.000Z</time><ele>1075.2</ele></trkpt><trkpt lat="45.846155" lon="9.193363"><time>2024-05-04T11:35:06.000Z</time><ele>1075.2</ele></trkpt><trkpt lat="45.846156" lon="9.193374"><time>2024-05-04T11:35:07.000Z</time><ele>1075.2</ele></trkpt><trkpt lat="45.846158" lon="9.193377"><time>2024-05-04T11:35:08.000Z</time><ele>1075.2</ele></trkpt><trkpt lat="45.846165" lon="9.193369"><time>2024-05-04T11:35:09.000Z</time><ele>1075.2</ele></trkpt><trkpt lat="45.846161" lon="9.193363"><time>2024-05-04T11:35:10.000Z</time><ele>1075.2</ele></trkpt><trkpt lat="45.846161" lon="9.193363"><time>2024-05-04T11:35:11.000Z</time><ele>1075.2</ele></trkpt><trkpt lat="45.846163" lon="9.193365"><time>2024-05-04T11:35:12.000Z</time><ele>1075.2</ele></trkpt><trkpt lat="45.846163" lon="9.193364"><time>2024-05-04T11:35:13.000Z</time><ele>1075.2</ele></trkpt><trkpt lat="45.846163" lon="9.193364"><time>2024-05-04T11:35:14.000Z</time><ele>1075.2</ele></trkpt><trkpt lat="45.846163" lon="9.193364"><time>2024-05-04T11:35:15.000Z</time><ele>1075.2</ele></trkpt><trkpt lat="45.846163" lon="9.193364"><time>2024-05-04T11:35:16.000Z</time><ele>1075.4</ele></trkpt><trkpt lat="45.846163" lon="9.193364"><time>2024-05-04T11:35:17.000Z</time><ele>1075.4</ele></trkpt><trkpt lat="45.846163" lon="9.193364"><time>2024-05-04T11:35:18.000Z</time><ele>1075.6</ele></trkpt><trkpt lat="45.846163" lon="9.193364"><time>2024-05-04T11:35:19.000Z</time><ele>1075.6</ele></trkpt><trkpt lat="45.846163" lon="9.193364"><time>2024-05-04T11:35:20.000Z</time><ele>1075.6</ele></trkpt><trkpt lat="45.846163" lon="9.193364"><time>2024-05-04T11:35:21.000Z</time><ele>1075.6</ele></trkpt><trkpt lat="45.846163" lon="9.193364"><time>2024-05-04T11:35:22.000Z</time><ele>1075.8</ele></trkpt><trkpt lat="45.846163" lon="9.193364"><time>2024-05-04T11:35:23.000Z</time><ele>1075.8</ele></trkpt><trkpt lat="45.846163" lon="9.193364"><time>2024-05-04T11:35:24.000Z</time><ele>1075.8</ele></trkpt><trkpt lat="45.846163" lon="9.193363"><time>2024-05-04T11:35:25.000Z</time><ele>1075.8</ele></trkpt><trkpt lat="45.846163" lon="9.193363"><time>2024-05-04T11:35:26.000Z</time><ele>1075.6</ele></trkpt><trkpt lat="45.846163" lon="9.193363"><time>2024-05-04T11:35:27.000Z</time><ele>1075.6</ele></trkpt><trkpt lat="45.846163" lon="9.193361"><time>2024-05-04T11:35:28.000Z</time><ele>1075.8</ele></trkpt><trkpt lat="45.846163" lon="9.193361"><time>2024-05-04T11:35:29.000Z</time><ele>1075.8</ele></trkpt><trkpt lat="45.846163" lon="9.193361"><time>2024-05-04T11:35:30.000Z</time><ele>1075.8</ele></trkpt><trkpt lat="45.846163" lon="9.193361"><time>2024-05-04T11:35:31.000Z</time><ele>1075.8</ele></trkpt><trkpt lat="45.846163" lon="9.193361"><time>2024-05-04T11:35:32.000Z</time><ele>1075.8</ele></trkpt><trkpt lat="45.846163" lon="9.19336"><time>2024-05-04T11:35:33.000Z</time><ele>1075.8</ele></trkpt><trkpt lat="45.846163" lon="9.19336"><time>2024-05-04T11:35:34.000Z</time><ele>1075.8</ele></trkpt><trkpt lat="45.846163" lon="9.193361"><time>2024-05-04T11:35:35.000Z</time><ele>1075.8</ele></trkpt><trkpt lat="45.846163" lon="9.193361"><time>2024-05-04T11:35:36.000Z</time><ele>1075.8</ele></trkpt><trkpt lat="45.846163" lon="9.193361"><time>2024-05-04T11:35:37.000Z</time><ele>1075.8</ele></trkpt><trkpt lat="45.846163" lon="9.193361"><time>2024-05-04T11:35:38.000Z</time><ele>1075.6</ele></trkpt><trkpt lat="45.846163" lon="9.193361"><time>2024-05-04T11:35:39.000Z</time><ele>1075.4</ele></trkpt><trkpt lat="45.846164" lon="9.193361"><time>2024-05-04T11:35:40.000Z</time><ele>1075.4</ele></trkpt><trkpt lat="45.846164" lon="9.193361"><time>2024-05-04T11:35:41.000Z</time><ele>1075.2</ele></trkpt><trkpt lat="45.846165" lon="9.193361"><time>2024-05-04T11:35:42.000Z</time><ele>1075.2</ele></trkpt><trkpt lat="45.846165" lon="9.193361"><time>2024-05-04T11:35:43.000Z</time><ele>1075.2</ele></trkpt><trkpt lat="45.846165" lon="9.193361"><time>2024-05-04T11:35:44.000Z</time><ele>1075.2</ele></trkpt><trkpt lat="45.846165" lon="9.193361"><time>2024-05-04T11:35:45.000Z</time><ele>1075.2</ele></trkpt><trkpt lat="45.846165" lon="9.193361"><time>2024-05-04T11:35:46.000Z</time><ele>1075.2</ele></trkpt><trkpt lat="45.846165" lon="9.193361"><time>2024-05-04T11:35:47.000Z</time><ele>1075.2</ele></trkpt><trkpt lat="45.846165" lon="9.193362"><time>2024-05-04T11:35:48.000Z</time><ele>1075.2</ele></trkpt><trkpt lat="45.846166" lon="9.193366"><time>2024-05-04T11:35:49.000Z</time><ele>1075.2</ele></trkpt><trkpt lat="45.846167" lon="9.193369"><time>2024-05-04T11:35:50.000Z</time><ele>1075.2</ele></trkpt><trkpt lat="45.846168" lon="9.193379"><time>2024-05-04T11:35:51.000Z</time><ele>1075.2</ele></trkpt><trkpt lat="45.846169" lon="9.193391"><time>2024-05-04T11:35:52.000Z</time><ele>1075.2</ele></trkpt><trkpt lat="45.84617" lon="9.193395"><time>2024-05-04T11:35:53.000Z</time><ele>1075.2</ele></trkpt><trkpt lat="45.84617" lon="9.193396"><time>2024-05-04T11:35:54.000Z</time><ele>1075.2</ele></trkpt><trkpt lat="45.84617" lon="9.193397"><time>2024-05-04T11:35:55.000Z</time><ele>1075.2</ele></trkpt><trkpt lat="45.84617" lon="9.193397"><time>2024-05-04T11:35:56.000Z</time><ele>1075.2</ele></trkpt><trkpt lat="45.84617" lon="9.193397"><time>2024-05-04T11:35:57.000Z</time><ele>1075.2</ele></trkpt><trkpt lat="45.846171" lon="9.193397"><time>2024-05-04T11:35:58.000Z</time><ele>1075.2</ele></trkpt><trkpt lat="45.846171" lon="9.193397"><time>2024-05-04T11:35:59.000Z</time><ele>1075.2</ele></trkpt><trkpt lat="45.846171" lon="9.193397"><time>2024-05-04T11:36:00.000Z</time><ele>1075.4</ele></trkpt><trkpt lat="45.846171" lon="9.193397"><time>2024-05-04T11:36:01.000Z</time><ele>1075.4</ele></trkpt><trkpt lat="45.846172" lon="9.193397"><time>2024-05-04T11:36:02.000Z</time><ele>1075.4</ele></trkpt><trkpt lat="45.846172" lon="9.193397"><time>2024-05-04T11:36:03.000Z</time><ele>1075.6</ele></trkpt><trkpt lat="45.846172" lon="9.193397"><time>2024-05-04T11:36:04.000Z</time><ele>1075.6</ele></trkpt><trkpt lat="45.846172" lon="9.193397"><time>2024-05-04T11:36:05.000Z</time><ele>1075.8</ele></trkpt><trkpt lat="45.846172" lon="9.193397"><time>2024-05-04T11:36:06.000Z</time><ele>1075.8</ele></trkpt><trkpt lat="45.846173" lon="9.193397"><time>2024-05-04T11:36:07.000Z</time><ele>1075.8</ele></trkpt><trkpt lat="45.846173" lon="9.193397"><time>2024-05-04T11:36:08.000Z</time><ele>1075.8</ele></trkpt><trkpt lat="45.846173" lon="9.193397"><time>2024-05-04T11:36:09.000Z</time><ele>1075.8</ele></trkpt><trkpt lat="45.846173" lon="9.193397"><time>2024-05-04T11:36:10.000Z</time><ele>1075.8</ele></trkpt><trkpt lat="45.846173" lon="9.193397"><time>2024-05-04T11:36:11.000Z</time><ele>1075.8</ele></trkpt><trkpt lat="45.846174" lon="9.193397"><time>2024-05-04T11:36:12.000Z</time><ele>1075.8</ele></trkpt><trkpt lat="45.846174" lon="9.193397"><time>2024-05-04T11:36:13.000Z</time><ele>1075.8</ele></trkpt><trkpt lat="45.846174" lon="9.193397"><time>2024-05-04T11:36:14.000Z</time><ele>1075.8</ele></trkpt><trkpt lat="45.846175" lon="9.193397"><time>2024-05-04T11:36:15.000Z</time><ele>1075.8</ele></trkpt><trkpt lat="45.846175" lon="9.193397"><time>2024-05-04T11:36:16.000Z</time><ele>1075.8</ele></trkpt><trkpt lat="45.846175" lon="9.193397"><time>2024-05-04T11:36:17.000Z</time><ele>1075.8</ele></trkpt><trkpt lat="45.846175" lon="9.193397"><time>2024-05-04T11:36:18.000Z</time><ele>1075.8</ele></trkpt><trkpt lat="45.846175" lon="9.193397"><time>2024-05-04T11:36:19.000Z</time><ele>1075.8</ele></trkpt><trkpt lat="45.846175" lon="9.193397"><time>2024-05-04T11:36:20.000Z</time><ele>1075.8</ele></trkpt><trkpt lat="45.846175" lon="9.193397"><time>2024-05-04T11:36:21.000Z</time><ele>1075.8</ele></trkpt><trkpt lat="45.846176" lon="9.193397"><time>2024-05-04T11:36:22.000Z</time><ele>1075.8</ele></trkpt><trkpt lat="45.846177" lon="9.193397"><time>2024-05-04T11:36:23.000Z</time><ele>1075.8</ele></trkpt><trkpt lat="45.846178" lon="9.193397"><time>2024-05-04T11:36:24.000Z</time><ele>1075.8</ele></trkpt><trkpt lat="45.846178" lon="9.193397"><time>2024-05-04T11:36:25.000Z</time><ele>1075.8</ele></trkpt><trkpt lat="45.846178" lon="9.193397"><time>2024-05-04T11:36:26.000Z</time><ele>1076</ele></trkpt><trkpt lat="45.846178" lon="9.193397"><time>2024-05-04T11:36:27.000Z</time><ele>1076</ele></trkpt><trkpt lat="45.846178" lon="9.193397"><time>2024-05-04T11:36:28.000Z</time><ele>1076</ele></trkpt><trkpt lat="45.846178" lon="9.193398"><time>2024-05-04T11:36:29.000Z</time><ele>1076</ele></trkpt><trkpt lat="45.846178" lon="9.193398"><time>2024-05-04T11:36:30.000Z</time><ele>1076.2</ele></trkpt><trkpt lat="45.846179" lon="9.193398"><time>2024-05-04T11:36:31.000Z</time><ele>1076.4</ele></trkpt><trkpt lat="45.846179" lon="9.193399"><time>2024-05-04T11:36:32.000Z</time><ele>1076.4</ele></trkpt><trkpt lat="45.846179" lon="9.1934"><time>2024-05-04T11:36:33.000Z</time><ele>1076.4</ele></trkpt><trkpt lat="45.84618" lon="9.1934"><time>2024-05-04T11:36:34.000Z</time><ele>1076.6</ele></trkpt><trkpt lat="45.84618" lon="9.193401"><time>2024-05-04T11:36:35.000Z</time><ele>1076.6</ele></trkpt><trkpt lat="45.84618" lon="9.193401"><time>2024-05-04T11:36:36.000Z</time><ele>1076.6</ele></trkpt><trkpt lat="45.84618" lon="9.193402"><time>2024-05-04T11:36:37.000Z</time><ele>1076.6</ele></trkpt><trkpt lat="45.84618" lon="9.193403"><time>2024-05-04T11:36:38.000Z</time><ele>1076.6</ele></trkpt><trkpt lat="45.84618" lon="9.193403"><time>2024-05-04T11:36:39.000Z</time><ele>1076.6</ele></trkpt><trkpt lat="45.84618" lon="9.193403"><time>2024-05-04T11:36:40.000Z</time><ele>1076.6</ele></trkpt><trkpt lat="45.846181" lon="9.193403"><time>2024-05-04T11:36:41.000Z</time><ele>1076.6</ele></trkpt><trkpt lat="45.846181" lon="9.193404"><time>2024-05-04T11:36:42.000Z</time><ele>1076.6</ele></trkpt><trkpt lat="45.846181" lon="9.193405"><time>2024-05-04T11:36:43.000Z</time><ele>1076.6</ele></trkpt><trkpt lat="45.846182" lon="9.193406"><time>2024-05-04T11:36:44.000Z</time><ele>1076.6</ele></trkpt><trkpt lat="45.846183" lon="9.193406"><time>2024-05-04T11:36:45.000Z</time><ele>1076.6</ele></trkpt><trkpt lat="45.846185" lon="9.193406"><time>2024-05-04T11:36:46.000Z</time><ele>1076.6</ele></trkpt><trkpt lat="45.846186" lon="9.193407"><time>2024-05-04T11:36:47.000Z</time><ele>1076.6</ele></trkpt><trkpt lat="45.846187" lon="9.193407"><time>2024-05-04T11:36:48.000Z</time><ele>1076.6</ele></trkpt><trkpt lat="45.846188" lon="9.193407"><time>2024-05-04T11:36:49.000Z</time><ele>1076.6</ele></trkpt><trkpt lat="45.846189" lon="9.193407"><time>2024-05-04T11:36:50.000Z</time><ele>1076.6</ele></trkpt><trkpt lat="45.84619" lon="9.193407"><time>2024-05-04T11:36:51.000Z</time><ele>1076.6</ele></trkpt><trkpt lat="45.846191" lon="9.193407"><time>2024-05-04T11:36:52.000Z</time><ele>1076.6</ele></trkpt><trkpt lat="45.846192" lon="9.193407"><time>2024-05-04T11:36:53.000Z</time><ele>1076.6</ele></trkpt><trkpt lat="45.846193" lon="9.193408"><time>2024-05-04T11:36:54.000Z</time><ele>1076.6</ele></trkpt><trkpt lat="45.846194" lon="9.193409"><time>2024-05-04T11:36:55.000Z</time><ele>1076.6</ele></trkpt><trkpt lat="45.846194" lon="9.19341"><time>2024-05-04T11:36:56.000Z</time><ele>1076.6</ele></trkpt><trkpt lat="45.846194" lon="9.193411"><time>2024-05-04T11:36:57.000Z</time><ele>1076.6</ele></trkpt><trkpt lat="45.846194" lon="9.193414"><time>2024-05-04T11:36:58.000Z</time><ele>1076.6</ele></trkpt><trkpt lat="45.846194" lon="9.193417"><time>2024-05-04T11:36:59.000Z</time><ele>1076.6</ele></trkpt><trkpt lat="45.846195" lon="9.19342"><time>2024-05-04T11:37:00.000Z</time><ele>1076.8</ele></trkpt><trkpt lat="45.846195" lon="9.193423"><time>2024-05-04T11:37:01.000Z</time><ele>1077</ele></trkpt><trkpt lat="45.846195" lon="9.193425"><time>2024-05-04T11:37:02.000Z</time><ele>1077</ele></trkpt><trkpt lat="45.846195" lon="9.193426"><time>2024-05-04T11:37:03.000Z</time><ele>1076.8</ele></trkpt><trkpt lat="45.846195" lon="9.193427"><time>2024-05-04T11:37:04.000Z</time><ele>1076.8</ele></trkpt><trkpt lat="45.846195" lon="9.193428"><time>2024-05-04T11:37:05.000Z</time><ele>1076.6</ele></trkpt><trkpt lat="45.846195" lon="9.193429"><time>2024-05-04T11:37:06.000Z</time><ele>1076.4</ele></trkpt><trkpt lat="45.846195" lon="9.19343"><time>2024-05-04T11:37:07.000Z</time><ele>1076.2</ele></trkpt><trkpt lat="45.846195" lon="9.193431"><time>2024-05-04T11:37:08.000Z</time><ele>1076.2</ele></trkpt><trkpt lat="45.846195" lon="9.193434"><time>2024-05-04T11:37:09.000Z</time><ele>1075.8</ele></trkpt><trkpt lat="45.846193" lon="9.193436"><time>2024-05-04T11:37:10.000Z</time><ele>1075.6</ele></trkpt><trkpt lat="45.84619" lon="9.193439"><time>2024-05-04T11:37:11.000Z</time><ele>1075.6</ele></trkpt><trkpt lat="45.846186" lon="9.193442"><time>2024-05-04T11:37:12.000Z</time><ele>1075.4</ele></trkpt><trkpt lat="45.846184" lon="9.193445"><time>2024-05-04T11:37:13.000Z</time><ele>1075.4</ele></trkpt><trkpt lat="45.846183" lon="9.193448"><time>2024-05-04T11:37:14.000Z</time><ele>1075.4</ele></trkpt><trkpt lat="45.846181" lon="9.193451"><time>2024-05-04T11:37:15.000Z</time><ele>1075.4</ele></trkpt><trkpt lat="45.846181" lon="9.193454"><time>2024-05-04T11:37:16.000Z</time><ele>1075.4</ele></trkpt><trkpt lat="45.846178" lon="9.193459"><time>2024-05-04T11:37:17.000Z</time><ele>1075.4</ele></trkpt><trkpt lat="45.846175" lon="9.193464"><time>2024-05-04T11:37:18.000Z</time><ele>1075.4</ele></trkpt><trkpt lat="45.846169" lon="9.193467"><time>2024-05-04T11:37:19.000Z</time><ele>1075.6</ele></trkpt><trkpt lat="45.846164" lon="9.193469"><time>2024-05-04T11:37:20.000Z</time><ele>1075.6</ele></trkpt><trkpt lat="45.84616" lon="9.19347"><time>2024-05-04T11:37:21.000Z</time><ele>1075.8</ele></trkpt><trkpt lat="45.846158" lon="9.19347"><time>2024-05-04T11:37:22.000Z</time><ele>1076</ele></trkpt><trkpt lat="45.846157" lon="9.193471"><time>2024-05-04T11:37:23.000Z</time><ele>1076.2</ele></trkpt><trkpt lat="45.846156" lon="9.193471"><time>2024-05-04T11:37:24.000Z</time><ele>1076.4</ele></trkpt><trkpt lat="45.846156" lon="9.193471"><time>2024-05-04T11:37:25.000Z</time><ele>1076.6</ele></trkpt><trkpt lat="45.846155" lon="9.193471"><time>2024-05-04T11:37:26.000Z</time><ele>1076.6</ele></trkpt><trkpt lat="45.846155" lon="9.193471"><time>2024-05-04T11:37:27.000Z</time><ele>1076.8</ele></trkpt><trkpt lat="45.846155" lon="9.193472"><time>2024-05-04T11:37:28.000Z</time><ele>1077</ele></trkpt><trkpt lat="45.846155" lon="9.193472"><time>2024-05-04T11:37:29.000Z</time><ele>1077</ele></trkpt><trkpt lat="45.846155" lon="9.193472"><time>2024-05-04T11:37:30.000Z</time><ele>1077.2</ele></trkpt><trkpt lat="45.846155" lon="9.193472"><time>2024-05-04T11:37:31.000Z</time><ele>1077.4</ele></trkpt><trkpt lat="45.846155" lon="9.193472"><time>2024-05-04T11:37:32.000Z</time><ele>1077.2</ele></trkpt><trkpt lat="45.846155" lon="9.193472"><time>2024-05-04T11:37:33.000Z</time><ele>1077.2</ele></trkpt><trkpt lat="45.846155" lon="9.19347"><time>2024-05-04T11:37:34.000Z</time><ele>1077.2</ele></trkpt><trkpt lat="45.846155" lon="9.193469"><time>2024-05-04T11:37:35.000Z</time><ele>1077</ele></trkpt><trkpt lat="45.846155" lon="9.193468"><time>2024-05-04T11:37:36.000Z</time><ele>1076.8</ele></trkpt><trkpt lat="45.846155" lon="9.193467"><time>2024-05-04T11:37:37.000Z</time><ele>1076.6</ele></trkpt><trkpt lat="45.846155" lon="9.193466"><time>2024-05-04T11:37:38.000Z</time><ele>1076.4</ele></trkpt><trkpt lat="45.846154" lon="9.193466"><time>2024-05-04T11:37:39.000Z</time><ele>1076.4</ele></trkpt><trkpt lat="45.846154" lon="9.193465"><time>2024-05-04T11:37:40.000Z</time><ele>1076.4</ele></trkpt><trkpt lat="45.846154" lon="9.193465"><time>2024-05-04T11:37:41.000Z</time><ele>1076.2</ele></trkpt><trkpt lat="45.846154" lon="9.193465"><time>2024-05-04T11:37:42.000Z</time><ele>1076</ele></trkpt><trkpt lat="45.846154" lon="9.193465"><time>2024-05-04T11:37:43.000Z</time><ele>1075.8</ele></trkpt><trkpt lat="45.846153" lon="9.193465"><time>2024-05-04T11:37:44.000Z</time><ele>1075.6</ele></trkpt><trkpt lat="45.846153" lon="9.193465"><time>2024-05-04T11:37:45.000Z</time><ele>1075.2</ele></trkpt><trkpt lat="45.846153" lon="9.193465"><time>2024-05-04T11:37:46.000Z</time><ele>1075</ele></trkpt><trkpt lat="45.846153" lon="9.193465"><time>2024-05-04T11:37:47.000Z</time><ele>1074.8</ele></trkpt><trkpt lat="45.846153" lon="9.193465"><time>2024-05-04T11:37:48.000Z</time><ele>1074.6</ele></trkpt><trkpt lat="45.846153" lon="9.193465"><time>2024-05-04T11:37:49.000Z</time><ele>1074.2</ele></trkpt><trkpt lat="45.846153" lon="9.193465"><time>2024-05-04T11:37:50.000Z</time><ele>1074</ele></trkpt><trkpt lat="45.846153" lon="9.193467"><time>2024-05-04T11:37:51.000Z</time><ele>1074</ele></trkpt><trkpt lat="45.846144" lon="9.193477"><time>2024-05-04T11:37:52.000Z</time><ele>1073.8</ele></trkpt><trkpt lat="45.846122" lon="9.193493"><time>2024-05-04T11:37:53.000Z</time><ele>1073.4</ele></trkpt><trkpt lat="45.846104" lon="9.19351"><time>2024-05-04T11:37:54.000Z</time><ele>1073.2</ele></trkpt><trkpt lat="45.846085" lon="9.193524"><time>2024-05-04T11:37:55.000Z</time><ele>1073.2</ele></trkpt><trkpt lat="45.846068" lon="9.193538"><time>2024-05-04T11:37:56.000Z</time><ele>1073</ele></trkpt><trkpt lat="45.846058" lon="9.193552"><time>2024-05-04T11:37:57.000Z</time><ele>1072.8</ele></trkpt><trkpt lat="45.846045" lon="9.193559"><time>2024-05-04T11:37:58.000Z</time><ele>1072.8</ele></trkpt><trkpt lat="45.846031" lon="9.193573"><time>2024-05-04T11:37:59.000Z</time><ele>1072.8</ele></trkpt><trkpt lat="45.846012" lon="9.193599"><time>2024-05-04T11:38:00.000Z</time><ele>1072.6</ele></trkpt><trkpt lat="45.845998" lon="9.19363"><time>2024-05-04T11:38:01.000Z</time><ele>1072.6</ele></trkpt><trkpt lat="45.845988" lon="9.193646"><time>2024-05-04T11:38:02.000Z</time><ele>1072.2</ele></trkpt><trkpt lat="45.845986" lon="9.193649"><time>2024-05-04T11:38:03.000Z</time><ele>1072.2</ele></trkpt><trkpt lat="45.845985" lon="9.193651"><time>2024-05-04T11:38:04.000Z</time><ele>1072</ele></trkpt><trkpt lat="45.845974" lon="9.193656"><time>2024-05-04T11:38:05.000Z</time><ele>1072</ele></trkpt><trkpt lat="45.845966" lon="9.193662"><time>2024-05-04T11:38:06.000Z</time><ele>1072</ele></trkpt><trkpt lat="45.845958" lon="9.193667"><time>2024-05-04T11:38:07.000Z</time><ele>1072</ele></trkpt><trkpt lat="45.845957" lon="9.193668"><time>2024-05-04T11:38:08.000Z</time><ele>1072</ele></trkpt><trkpt lat="45.845958" lon="9.193672"><time>2024-05-04T11:38:09.000Z</time><ele>1072</ele></trkpt><trkpt lat="45.845949" lon="9.193682"><time>2024-05-04T11:38:10.000Z</time><ele>1072.2</ele></trkpt><trkpt lat="45.845933" lon="9.193693"><time>2024-05-04T11:38:11.000Z</time><ele>1072.2</ele></trkpt><trkpt lat="45.845917" lon="9.193701"><time>2024-05-04T11:38:12.000Z</time><ele>1072.2</ele></trkpt><trkpt lat="45.845898" lon="9.193716"><time>2024-05-04T11:38:13.000Z</time><ele>1072.2</ele></trkpt><trkpt lat="45.845885" lon="9.193725"><time>2024-05-04T11:38:14.000Z</time><ele>1072</ele></trkpt><trkpt lat="45.845878" lon="9.193741"><time>2024-05-04T11:38:15.000Z</time><ele>1072</ele></trkpt><trkpt lat="45.845879" lon="9.193743"><time>2024-05-04T11:38:16.000Z</time><ele>1071.6</ele></trkpt><trkpt lat="45.845872" lon="9.193755"><time>2024-05-04T11:38:17.000Z</time><ele>1071.6</ele></trkpt><trkpt lat="45.84586" lon="9.193771"><time>2024-05-04T11:38:18.000Z</time><ele>1071.4</ele></trkpt><trkpt lat="45.84585" lon="9.193783"><time>2024-05-04T11:38:19.000Z</time><ele>1071.2</ele></trkpt><trkpt lat="45.845842" lon="9.193802"><time>2024-05-04T11:38:20.000Z</time><ele>1071.2</ele></trkpt><trkpt lat="45.845833" lon="9.193815"><time>2024-05-04T11:38:21.000Z</time><ele>1071.2</ele></trkpt><trkpt lat="45.845823" lon="9.193821"><time>2024-05-04T11:38:22.000Z</time><ele>1071</ele></trkpt><trkpt lat="45.84581" lon="9.193823"><time>2024-05-04T11:38:23.000Z</time><ele>1071</ele></trkpt><trkpt lat="45.845793" lon="9.193832"><time>2024-05-04T11:38:24.000Z</time><ele>1071</ele></trkpt><trkpt lat="45.84579" lon="9.193835"><time>2024-05-04T11:38:25.000Z</time><ele>1071</ele></trkpt><trkpt lat="45.845788" lon="9.193841"><time>2024-05-04T11:38:26.000Z</time><ele>1071</ele></trkpt><trkpt lat="45.84578" lon="9.193844"><time>2024-05-04T11:38:27.000Z</time><ele>1071</ele></trkpt><trkpt lat="45.845768" lon="9.193849"><time>2024-05-04T11:38:28.000Z</time><ele>1071.2</ele></trkpt><trkpt lat="45.845761" lon="9.193856"><time>2024-05-04T11:38:29.000Z</time><ele>1071</ele></trkpt><trkpt lat="45.845758" lon="9.193869"><time>2024-05-04T11:38:30.000Z</time><ele>1071</ele></trkpt><trkpt lat="45.845757" lon="9.193875"><time>2024-05-04T11:38:31.000Z</time><ele>1071</ele></trkpt><trkpt lat="45.845755" lon="9.19388"><time>2024-05-04T11:38:32.000Z</time><ele>1071</ele></trkpt><trkpt lat="45.845753" lon="9.193889"><time>2024-05-04T11:38:33.000Z</time><ele>1070.8</ele></trkpt><trkpt lat="45.84575" lon="9.193901"><time>2024-05-04T11:38:34.000Z</time><ele>1070.8</ele></trkpt><trkpt lat="45.845747" lon="9.193905"><time>2024-05-04T11:38:35.000Z</time><ele>1070.6</ele></trkpt><trkpt lat="45.845742" lon="9.19391"><time>2024-05-04T11:38:36.000Z</time><ele>1070.6</ele></trkpt><trkpt lat="45.845735" lon="9.193918"><time>2024-05-04T11:38:37.000Z</time><ele>1070.6</ele></trkpt><trkpt lat="45.845725" lon="9.193925"><time>2024-05-04T11:38:38.000Z</time><ele>1070.4</ele></trkpt><trkpt lat="45.845714" lon="9.193934"><time>2024-05-04T11:38:39.000Z</time><ele>1070.4</ele></trkpt><trkpt lat="45.845707" lon="9.193946"><time>2024-05-04T11:38:40.000Z</time><ele>1070.2</ele></trkpt><trkpt lat="45.845704" lon="9.193953"><time>2024-05-04T11:38:41.000Z</time><ele>1070.2</ele></trkpt><trkpt lat="45.845699" lon="9.193959"><time>2024-05-04T11:38:42.000Z</time><ele>1070.4</ele></trkpt><trkpt lat="45.845696" lon="9.193962"><time>2024-05-04T11:38:43.000Z</time><ele>1070.4</ele></trkpt><trkpt lat="45.845691" lon="9.193969"><time>2024-05-04T11:38:44.000Z</time><ele>1070.6</ele></trkpt><trkpt lat="45.845682" lon="9.193977"><time>2024-05-04T11:38:45.000Z</time><ele>1070.6</ele></trkpt><trkpt lat="45.845671" lon="9.193986"><time>2024-05-04T11:38:46.000Z</time><ele>1070.6</ele></trkpt><trkpt lat="45.845659" lon="9.193994"><time>2024-05-04T11:38:47.000Z</time><ele>1070.6</ele></trkpt><trkpt lat="45.845646" lon="9.193997"><time>2024-05-04T11:38:48.000Z</time><ele>1070.6</ele></trkpt><trkpt lat="45.845644" lon="9.193997"><time>2024-05-04T11:38:49.000Z</time><ele>1070.6</ele></trkpt><trkpt lat="45.845638" lon="9.194001"><time>2024-05-04T11:38:50.000Z</time><ele>1070.6</ele></trkpt><trkpt lat="45.845637" lon="9.194002"><time>2024-05-04T11:38:51.000Z</time><ele>1070.8</ele></trkpt><trkpt lat="45.845637" lon="9.194005"><time>2024-05-04T11:38:52.000Z</time><ele>1071</ele></trkpt><trkpt lat="45.845631" lon="9.194006"><time>2024-05-04T11:38:53.000Z</time><ele>1071</ele></trkpt><trkpt lat="45.845622" lon="9.194006"><time>2024-05-04T11:38:54.000Z</time><ele>1071.2</ele></trkpt><trkpt lat="45.845613" lon="9.194009"><time>2024-05-04T11:38:55.000Z</time><ele>1071.6</ele></trkpt><trkpt lat="45.845609" lon="9.194011"><time>2024-05-04T11:38:56.000Z</time><ele>1071.8</ele></trkpt><trkpt lat="45.845597" lon="9.194015"><time>2024-05-04T11:38:57.000Z</time><ele>1072</ele></trkpt><trkpt lat="45.845595" lon="9.194015"><time>2024-05-04T11:38:58.000Z</time><ele>1072.2</ele></trkpt><trkpt lat="45.845593" lon="9.194012"><time>2024-05-04T11:38:59.000Z</time><ele>1072.4</ele></trkpt><trkpt lat="45.845594" lon="9.194011"><time>2024-05-04T11:39:00.000Z</time><ele>1072.4</ele></trkpt><trkpt lat="45.845595" lon="9.194011"><time>2024-05-04T11:39:01.000Z</time><ele>1072.6</ele></trkpt><trkpt lat="45.845596" lon="9.194013"><time>2024-05-04T11:39:02.000Z</time><ele>1072.8</ele></trkpt><trkpt lat="45.845596" lon="9.194016"><time>2024-05-04T11:39:03.000Z</time><ele>1073.2</ele></trkpt><trkpt lat="45.845596" lon="9.194022"><time>2024-05-04T11:39:04.000Z</time><ele>1073.4</ele></trkpt><trkpt lat="45.845575" lon="9.194036"><time>2024-05-04T11:39:05.000Z</time><ele>1073.6</ele></trkpt><trkpt lat="45.84555" lon="9.194039"><time>2024-05-04T11:39:06.000Z</time><ele>1073.8</ele></trkpt><trkpt lat="45.845533" lon="9.194053"><time>2024-05-04T11:39:07.000Z</time><ele>1074</ele></trkpt><trkpt lat="45.845519" lon="9.194062"><time>2024-05-04T11:39:08.000Z</time><ele>1074.2</ele></trkpt><trkpt lat="45.845512" lon="9.194071"><time>2024-05-04T11:39:09.000Z</time><ele>1074.2</ele></trkpt><trkpt lat="45.845506" lon="9.194083"><time>2024-05-04T11:39:10.000Z</time><ele>1074.4</ele></trkpt><trkpt lat="45.845501" lon="9.194095"><time>2024-05-04T11:39:11.000Z</time><ele>1074.6</ele></trkpt><trkpt lat="45.845494" lon="9.194108"><time>2024-05-04T11:39:12.000Z</time><ele>1074.8</ele></trkpt><trkpt lat="45.845487" lon="9.194122"><time>2024-05-04T11:39:13.000Z</time><ele>1074.8</ele></trkpt><trkpt lat="45.845482" lon="9.194137"><time>2024-05-04T11:39:14.000Z</time><ele>1075</ele></trkpt><trkpt lat="45.845474" lon="9.194146"><time>2024-05-04T11:39:15.000Z</time><ele>1075.2</ele></trkpt><trkpt lat="45.845463" lon="9.194157"><time>2024-05-04T11:39:16.000Z</time><ele>1075.4</ele></trkpt><trkpt lat="45.845453" lon="9.194167"><time>2024-05-04T11:39:17.000Z</time><ele>1075.4</ele></trkpt><trkpt lat="45.845446" lon="9.194184"><time>2024-05-04T11:39:18.000Z</time><ele>1075.6</ele></trkpt><trkpt lat="45.845441" lon="9.194197"><time>2024-05-04T11:39:19.000Z</time><ele>1075.6</ele></trkpt><trkpt lat="45.845436" lon="9.194214"><time>2024-05-04T11:39:20.000Z</time><ele>1075.6</ele></trkpt><trkpt lat="45.845428" lon="9.19423"><time>2024-05-04T11:39:21.000Z</time><ele>1075.6</ele></trkpt><trkpt lat="45.845417" lon="9.194246"><time>2024-05-04T11:39:22.000Z</time><ele>1075.6</ele></trkpt><trkpt lat="45.845408" lon="9.19426"><time>2024-05-04T11:39:23.000Z</time><ele>1075.6</ele></trkpt><trkpt lat="45.845401" lon="9.194271"><time>2024-05-04T11:39:24.000Z</time><ele>1075.4</ele></trkpt><trkpt lat="45.845392" lon="9.194288"><time>2024-05-04T11:39:25.000Z</time><ele>1075.4</ele></trkpt><trkpt lat="45.845381" lon="9.194302"><time>2024-05-04T11:39:26.000Z</time><ele>1075.4</ele></trkpt><trkpt lat="45.845374" lon="9.194321"><time>2024-05-04T11:39:27.000Z</time><ele>1075.4</ele></trkpt><trkpt lat="45.845363" lon="9.194337"><time>2024-05-04T11:39:28.000Z</time><ele>1075.4</ele></trkpt><trkpt lat="45.845352" lon="9.19435"><time>2024-05-04T11:39:29.000Z</time><ele>1075.4</ele></trkpt><trkpt lat="45.845344" lon="9.194352"><time>2024-05-04T11:39:30.000Z</time><ele>1075.6</ele></trkpt><trkpt lat="45.845328" lon="9.194364"><time>2024-05-04T11:39:31.000Z</time><ele>1075.6</ele></trkpt><trkpt lat="45.845317" lon="9.194379"><time>2024-05-04T11:39:32.000Z</time><ele>1075.8</ele></trkpt><trkpt lat="45.845306" lon="9.194396"><time>2024-05-04T11:39:33.000Z</time><ele>1075.8</ele></trkpt><trkpt lat="45.8453" lon="9.194402"><time>2024-05-04T11:39:34.000Z</time><ele>1076</ele></trkpt><trkpt lat="45.845295" lon="9.19441"><time>2024-05-04T11:39:35.000Z</time><ele>1076.2</ele></trkpt><trkpt lat="45.845291" lon="9.19442"><time>2024-05-04T11:39:36.000Z</time><ele>1076.4</ele></trkpt><trkpt lat="45.845284" lon="9.194432"><time>2024-05-04T11:39:37.000Z</time><ele>1076.6</ele></trkpt><trkpt lat="45.845272" lon="9.194445"><time>2024-05-04T11:39:38.000Z</time><ele>1076.6</ele></trkpt><trkpt lat="45.845263" lon="9.194452"><time>2024-05-04T11:39:39.000Z</time><ele>1076.6</ele></trkpt><trkpt lat="45.845253" lon="9.194464"><time>2024-05-04T11:39:40.000Z</time><ele>1076.4</ele></trkpt><trkpt lat="45.845244" lon="9.194478"><time>2024-05-04T11:39:41.000Z</time><ele>1076.4</ele></trkpt><trkpt lat="45.845235" lon="9.194487"><time>2024-05-04T11:39:42.000Z</time><ele>1076.2</ele></trkpt><trkpt lat="45.845223" lon="9.194494"><time>2024-05-04T11:39:43.000Z</time><ele>1076.2</ele></trkpt><trkpt lat="45.845209" lon="9.194498"><time>2024-05-04T11:39:44.000Z</time><ele>1076.2</ele></trkpt><trkpt lat="45.845196" lon="9.194501"><time>2024-05-04T11:39:45.000Z</time><ele>1076.4</ele></trkpt><trkpt lat="45.845185" lon="9.194504"><time>2024-05-04T11:39:46.000Z</time><ele>1076.6</ele></trkpt><trkpt lat="45.845173" lon="9.194508"><time>2024-05-04T11:39:47.000Z</time><ele>1076.6</ele></trkpt><trkpt lat="45.845159" lon="9.194514"><time>2024-05-04T11:39:48.000Z</time><ele>1076.8</ele></trkpt><trkpt lat="45.845148" lon="9.194522"><time>2024-05-04T11:39:49.000Z</time><ele>1077</ele></trkpt><trkpt lat="45.845141" lon="9.194534"><time>2024-05-04T11:39:50.000Z</time><ele>1077</ele></trkpt><trkpt lat="45.845132" lon="9.19455"><time>2024-05-04T11:39:51.000Z</time><ele>1077</ele></trkpt><trkpt lat="45.845121" lon="9.194562"><time>2024-05-04T11:39:52.000Z</time><ele>1077.2</ele></trkpt><trkpt lat="45.845108" lon="9.194577"><time>2024-05-04T11:39:53.000Z</time><ele>1077.2</ele></trkpt><trkpt lat="45.845098" lon="9.194582"><time>2024-05-04T11:39:54.000Z</time><ele>1077.2</ele></trkpt><trkpt lat="45.845087" lon="9.194584"><time>2024-05-04T11:39:55.000Z</time><ele>1077.2</ele></trkpt><trkpt lat="45.845071" lon="9.194597"><time>2024-05-04T11:39:56.000Z</time><ele>1077.4</ele></trkpt><trkpt lat="45.845066" lon="9.1946"><time>2024-05-04T11:39:57.000Z</time><ele>1077.4</ele></trkpt><trkpt lat="45.845064" lon="9.194607"><time>2024-05-04T11:39:58.000Z</time><ele>1077.4</ele></trkpt><trkpt lat="45.845063" lon="9.194611"><time>2024-05-04T11:39:59.000Z</time><ele>1077.4</ele></trkpt><trkpt lat="45.845067" lon="9.194627"><time>2024-05-04T11:40:00.000Z</time><ele>1077.4</ele></trkpt><trkpt lat="45.84507" lon="9.194652"><time>2024-05-04T11:40:01.000Z</time><ele>1077.6</ele></trkpt><trkpt lat="45.845064" lon="9.194674"><time>2024-05-04T11:40:02.000Z</time><ele>1077.4</ele></trkpt><trkpt lat="45.845056" lon="9.194691"><time>2024-05-04T11:40:03.000Z</time><ele>1077.2</ele></trkpt><trkpt lat="45.845046" lon="9.194703"><time>2024-05-04T11:40:04.000Z</time><ele>1077.2</ele></trkpt><trkpt lat="45.845039" lon="9.194712"><time>2024-05-04T11:40:05.000Z</time><ele>1077.2</ele></trkpt><trkpt lat="45.845028" lon="9.194721"><time>2024-05-04T11:40:06.000Z</time><ele>1077.2</ele></trkpt><trkpt lat="45.845023" lon="9.194732"><time>2024-05-04T11:40:07.000Z</time><ele>1077.2</ele></trkpt><trkpt lat="45.845017" lon="9.194751"><time>2024-05-04T11:40:08.000Z</time><ele>1077.4</ele></trkpt><trkpt lat="45.845012" lon="9.194769"><time>2024-05-04T11:40:09.000Z</time><ele>1077.4</ele></trkpt><trkpt lat="45.845007" lon="9.194779"><time>2024-05-04T11:40:10.000Z</time><ele>1077.6</ele></trkpt><trkpt lat="45.845" lon="9.19479"><time>2024-05-04T11:40:11.000Z</time><ele>1077.6</ele></trkpt><trkpt lat="45.844998" lon="9.194797"><time>2024-05-04T11:40:12.000Z</time><ele>1077.6</ele></trkpt><trkpt lat="45.844991" lon="9.194813"><time>2024-05-04T11:40:13.000Z</time><ele>1077.8</ele></trkpt><trkpt lat="45.844975" lon="9.194832"><time>2024-05-04T11:40:14.000Z</time><ele>1077.8</ele></trkpt><trkpt lat="45.844955" lon="9.194851"><time>2024-05-04T11:40:15.000Z</time><ele>1078</ele></trkpt><trkpt lat="45.844941" lon="9.194865"><time>2024-05-04T11:40:16.000Z</time><ele>1078.2</ele></trkpt><trkpt lat="45.844927" lon="9.194873"><time>2024-05-04T11:40:17.000Z</time><ele>1078.2</ele></trkpt><trkpt lat="45.844917" lon="9.194884"><time>2024-05-04T11:40:18.000Z</time><ele>1078.4</ele></trkpt><trkpt lat="45.844908" lon="9.194899"><time>2024-05-04T11:40:19.000Z</time><ele>1078.6</ele></trkpt><trkpt lat="45.844902" lon="9.194911"><time>2024-05-04T11:40:20.000Z</time><ele>1078.8</ele></trkpt><trkpt lat="45.84489" lon="9.194924"><time>2024-05-04T11:40:21.000Z</time><ele>1079</ele></trkpt><trkpt lat="45.84489" lon="9.194925"><time>2024-05-04T11:40:22.000Z</time><ele>1079</ele></trkpt><trkpt lat="45.844881" lon="9.194939"><time>2024-05-04T11:40:23.000Z</time><ele>1079</ele></trkpt><trkpt lat="45.844873" lon="9.194951"><time>2024-05-04T11:40:24.000Z</time><ele>1079.2</ele></trkpt><trkpt lat="45.844863" lon="9.194961"><time>2024-05-04T11:40:25.000Z</time><ele>1079.4</ele></trkpt><trkpt lat="45.844847" lon="9.194972"><time>2024-05-04T11:40:26.000Z</time><ele>1079.6</ele></trkpt><trkpt lat="45.844837" lon="9.194988"><time>2024-05-04T11:40:27.000Z</time><ele>1079.8</ele></trkpt><trkpt lat="45.844826" lon="9.195006"><time>2024-05-04T11:40:28.000Z</time><ele>1080</ele></trkpt><trkpt lat="45.844819" lon="9.195016"><time>2024-05-04T11:40:29.000Z</time><ele>1080.2</ele></trkpt><trkpt lat="45.84481" lon="9.195023"><time>2024-05-04T11:40:30.000Z</time><ele>1080.4</ele></trkpt><trkpt lat="45.844802" lon="9.195037"><time>2024-05-04T11:40:31.000Z</time><ele>1080.4</ele></trkpt><trkpt lat="45.844792" lon="9.19505"><time>2024-05-04T11:40:32.000Z</time><ele>1080.4</ele></trkpt><trkpt lat="45.844779" lon="9.195064"><time>2024-05-04T11:40:33.000Z</time><ele>1080.4</ele></trkpt><trkpt lat="45.844771" lon="9.195075"><time>2024-05-04T11:40:34.000Z</time><ele>1080.4</ele></trkpt><trkpt lat="45.84476" lon="9.195096"><time>2024-05-04T11:40:35.000Z</time><ele>1080.4</ele></trkpt><trkpt lat="45.844755" lon="9.195109"><time>2024-05-04T11:40:36.000Z</time><ele>1080.4</ele></trkpt><trkpt lat="45.844748" lon="9.195123"><time>2024-05-04T11:40:37.000Z</time><ele>1080.4</ele></trkpt><trkpt lat="45.84474" lon="9.195135"><time>2024-05-04T11:40:38.000Z</time><ele>1080.6</ele></trkpt><trkpt lat="45.844729" lon="9.195144"><time>2024-05-04T11:40:39.000Z</time><ele>1080.6</ele></trkpt><trkpt lat="45.844721" lon="9.195151"><time>2024-05-04T11:40:40.000Z</time><ele>1080.8</ele></trkpt><trkpt lat="45.844717" lon="9.195154"><time>2024-05-04T11:40:41.000Z</time><ele>1081</ele></trkpt><trkpt lat="45.84471" lon="9.19516"><time>2024-05-04T11:40:42.000Z</time><ele>1081.4</ele></trkpt><trkpt lat="45.844702" lon="9.195164"><time>2024-05-04T11:40:43.000Z</time><ele>1081.6</ele></trkpt><trkpt lat="45.844696" lon="9.195166"><time>2024-05-04T11:40:44.000Z</time><ele>1082</ele></trkpt><trkpt lat="45.844692" lon="9.195169"><time>2024-05-04T11:40:45.000Z</time><ele>1082.2</ele></trkpt><trkpt lat="45.844676" lon="9.195188"><time>2024-05-04T11:40:46.000Z</time><ele>1082.4</ele></trkpt><trkpt lat="45.844661" lon="9.1952"><time>2024-05-04T11:40:47.000Z</time><ele>1082.6</ele></trkpt><trkpt lat="45.844648" lon="9.195205"><time>2024-05-04T11:40:48.000Z</time><ele>1082.8</ele></trkpt><trkpt lat="45.844636" lon="9.195211"><time>2024-05-04T11:40:49.000Z</time><ele>1083</ele></trkpt><trkpt lat="45.844633" lon="9.195214"><time>2024-05-04T11:40:50.000Z</time><ele>1083.2</ele></trkpt><trkpt lat="45.844631" lon="9.195217"><time>2024-05-04T11:40:51.000Z</time><ele>1083.4</ele></trkpt><trkpt lat="45.844626" lon="9.195233"><time>2024-05-04T11:40:52.000Z</time><ele>1083.4</ele></trkpt><trkpt lat="45.844616" lon="9.195244"><time>2024-05-04T11:40:53.000Z</time><ele>1083.4</ele></trkpt><trkpt lat="45.844606" lon="9.195254"><time>2024-05-04T11:40:54.000Z</time><ele>1083.6</ele></trkpt><trkpt lat="45.844602" lon="9.19526"><time>2024-05-04T11:40:55.000Z</time><ele>1083.8</ele></trkpt><trkpt lat="45.844593" lon="9.195279"><time>2024-05-04T11:40:56.000Z</time><ele>1084</ele></trkpt><trkpt lat="45.84459" lon="9.195281"><time>2024-05-04T11:40:57.000Z</time><ele>1084</ele></trkpt><trkpt lat="45.844583" lon="9.195285"><time>2024-05-04T11:40:58.000Z</time><ele>1084.2</ele></trkpt><trkpt lat="45.844577" lon="9.195284"><time>2024-05-04T11:40:59.000Z</time><ele>1084.4</ele></trkpt><trkpt lat="45.844569" lon="9.195285"><time>2024-05-04T11:41:00.000Z</time><ele>1084.6</ele></trkpt><trkpt lat="45.844563" lon="9.195284"><time>2024-05-04T11:41:01.000Z</time><ele>1084.8</ele></trkpt><trkpt lat="45.844559" lon="9.195282"><time>2024-05-04T11:41:02.000Z</time><ele>1084.8</ele></trkpt><trkpt lat="45.844556" lon="9.195283"><time>2024-05-04T11:41:03.000Z</time><ele>1085</ele></trkpt><trkpt lat="45.844549" lon="9.195289"><time>2024-05-04T11:41:04.000Z</time><ele>1085.2</ele></trkpt><trkpt lat="45.844546" lon="9.195293"><time>2024-05-04T11:41:05.000Z</time><ele>1085.4</ele></trkpt><trkpt lat="45.844546" lon="9.195296"><time>2024-05-04T11:41:06.000Z</time><ele>1085.6</ele></trkpt><trkpt lat="45.844545" lon="9.195298"><time>2024-05-04T11:41:07.000Z</time><ele>1085.6</ele></trkpt><trkpt lat="45.844542" lon="9.1953"><time>2024-05-04T11:41:08.000Z</time><ele>1085.8</ele></trkpt><trkpt lat="45.844535" lon="9.195307"><time>2024-05-04T11:41:09.000Z</time><ele>1086</ele></trkpt><trkpt lat="45.844533" lon="9.19531"><time>2024-05-04T11:41:10.000Z</time><ele>1086.2</ele></trkpt><trkpt lat="45.844531" lon="9.195312"><time>2024-05-04T11:41:11.000Z</time><ele>1086.2</ele></trkpt><trkpt lat="45.84453" lon="9.195315"><time>2024-05-04T11:41:12.000Z</time><ele>1086.4</ele></trkpt><trkpt lat="45.844522" lon="9.19532"><time>2024-05-04T11:41:13.000Z</time><ele>1086.6</ele></trkpt><trkpt lat="45.844517" lon="9.195322"><time>2024-05-04T11:41:14.000Z</time><ele>1087</ele></trkpt><trkpt lat="45.844516" lon="9.195326"><time>2024-05-04T11:41:15.000Z</time><ele>1087.4</ele></trkpt><trkpt lat="45.844513" lon="9.195329"><time>2024-05-04T11:41:16.000Z</time><ele>1087.6</ele></trkpt><trkpt lat="45.844509" lon="9.195334"><time>2024-05-04T11:41:17.000Z</time><ele>1087.8</ele></trkpt><trkpt lat="45.8445" lon="9.19534"><time>2024-05-04T11:41:18.000Z</time><ele>1088</ele></trkpt><trkpt lat="45.844492" lon="9.195346"><time>2024-05-04T11:41:19.000Z</time><ele>1088.2</ele></trkpt><trkpt lat="45.844484" lon="9.195351"><time>2024-05-04T11:41:20.000Z</time><ele>1088.4</ele></trkpt><trkpt lat="45.844475" lon="9.195352"><time>2024-05-04T11:41:21.000Z</time><ele>1088.4</ele></trkpt><trkpt lat="45.84446" lon="9.195351"><time>2024-05-04T11:41:22.000Z</time><ele>1088.6</ele></trkpt><trkpt lat="45.844447" lon="9.195352"><time>2024-05-04T11:41:23.000Z</time><ele>1088.8</ele></trkpt><trkpt lat="45.844436" lon="9.195353"><time>2024-05-04T11:41:24.000Z</time><ele>1088.8</ele></trkpt><trkpt lat="45.844427" lon="9.195359"><time>2024-05-04T11:41:25.000Z</time><ele>1089</ele></trkpt><trkpt lat="45.844416" lon="9.195364"><time>2024-05-04T11:41:26.000Z</time><ele>1089.4</ele></trkpt><trkpt lat="45.844403" lon="9.195364"><time>2024-05-04T11:41:27.000Z</time><ele>1089.6</ele></trkpt><trkpt lat="45.844392" lon="9.195366"><time>2024-05-04T11:41:28.000Z</time><ele>1089.8</ele></trkpt><trkpt lat="45.844383" lon="9.195371"><time>2024-05-04T11:41:29.000Z</time><ele>1090</ele></trkpt><trkpt lat="45.844376" lon="9.195384"><time>2024-05-04T11:41:30.000Z</time><ele>1090.2</ele></trkpt><trkpt lat="45.844369" lon="9.195396"><time>2024-05-04T11:41:31.000Z</time><ele>1090.4</ele></trkpt><trkpt lat="45.84436" lon="9.195406"><time>2024-05-04T11:41:32.000Z</time><ele>1090.8</ele></trkpt><trkpt lat="45.844347" lon="9.195416"><time>2024-05-04T11:41:33.000Z</time><ele>1091</ele></trkpt><trkpt lat="45.844331" lon="9.195422"><time>2024-05-04T11:41:34.000Z</time><ele>1091.2</ele></trkpt><trkpt lat="45.844325" lon="9.195425"><time>2024-05-04T11:41:35.000Z</time><ele>1091.4</ele></trkpt><trkpt lat="45.844314" lon="9.195425"><time>2024-05-04T11:41:36.000Z</time><ele>1091.4</ele></trkpt><trkpt lat="45.844304" lon="9.195427"><time>2024-05-04T11:41:37.000Z</time><ele>1091.6</ele></trkpt><trkpt lat="45.844298" lon="9.195429"><time>2024-05-04T11:41:38.000Z</time><ele>1091.8</ele></trkpt><trkpt lat="45.844291" lon="9.195434"><time>2024-05-04T11:41:39.000Z</time><ele>1092.2</ele></trkpt><trkpt lat="45.844282" lon="9.195437"><time>2024-05-04T11:41:40.000Z</time><ele>1092.2</ele></trkpt><trkpt lat="45.844278" lon="9.195437"><time>2024-05-04T11:41:41.000Z</time><ele>1092.4</ele></trkpt><trkpt lat="45.844271" lon="9.195434"><time>2024-05-04T11:41:42.000Z</time><ele>1092.8</ele></trkpt><trkpt lat="45.844266" lon="9.195434"><time>2024-05-04T11:41:43.000Z</time><ele>1093.2</ele></trkpt><trkpt lat="45.844263" lon="9.195433"><time>2024-05-04T11:41:44.000Z</time><ele>1093.4</ele></trkpt><trkpt lat="45.844253" lon="9.195425"><time>2024-05-04T11:41:45.000Z</time><ele>1093.4</ele></trkpt><trkpt lat="45.844241" lon="9.195416"><time>2024-05-04T11:41:46.000Z</time><ele>1093.6</ele></trkpt><trkpt lat="45.844232" lon="9.195413"><time>2024-05-04T11:41:47.000Z</time><ele>1093.8</ele></trkpt><trkpt lat="45.844224" lon="9.195417"><time>2024-05-04T11:41:48.000Z</time><ele>1094</ele></trkpt><trkpt lat="45.844218" lon="9.195418"><time>2024-05-04T11:41:49.000Z</time><ele>1094.2</ele></trkpt><trkpt lat="45.844214" lon="9.195418"><time>2024-05-04T11:41:50.000Z</time><ele>1094.4</ele></trkpt><trkpt lat="45.844206" lon="9.195418"><time>2024-05-04T11:41:51.000Z</time><ele>1094.6</ele></trkpt><trkpt lat="45.844195" lon="9.195418"><time>2024-05-04T11:41:52.000Z</time><ele>1094.8</ele></trkpt><trkpt lat="45.844184" lon="9.19542"><time>2024-05-04T11:41:53.000Z</time><ele>1095</ele></trkpt><trkpt lat="45.844174" lon="9.19542"><time>2024-05-04T11:41:54.000Z</time><ele>1095.4</ele></trkpt><trkpt lat="45.844166" lon="9.19542"><time>2024-05-04T11:41:55.000Z</time><ele>1095.6</ele></trkpt><trkpt lat="45.844157" lon="9.195416"><time>2024-05-04T11:41:56.000Z</time><ele>1095.8</ele></trkpt><trkpt lat="45.844148" lon="9.195411"><time>2024-05-04T11:41:57.000Z</time><ele>1096</ele></trkpt><trkpt lat="45.84414" lon="9.195409"><time>2024-05-04T11:41:58.000Z</time><ele>1096.2</ele></trkpt><trkpt lat="45.844133" lon="9.195409"><time>2024-05-04T11:41:59.000Z</time><ele>1096.4</ele></trkpt><trkpt lat="45.844129" lon="9.19541"><time>2024-05-04T11:42:00.000Z</time><ele>1096.6</ele></trkpt><trkpt lat="45.844119" lon="9.195409"><time>2024-05-04T11:42:01.000Z</time><ele>1096.8</ele></trkpt><trkpt lat="45.844107" lon="9.19541"><time>2024-05-04T11:42:02.000Z</time><ele>1096.8</ele></trkpt><trkpt lat="45.844102" lon="9.195409"><time>2024-05-04T11:42:03.000Z</time><ele>1097</ele></trkpt><trkpt lat="45.8441" lon="9.195409"><time>2024-05-04T11:42:04.000Z</time><ele>1097</ele></trkpt><trkpt lat="45.844098" lon="9.195409"><time>2024-05-04T11:42:05.000Z</time><ele>1097.2</ele></trkpt><trkpt lat="45.844098" lon="9.195408"><time>2024-05-04T11:42:06.000Z</time><ele>1097.2</ele></trkpt><trkpt lat="45.844097" lon="9.195407"><time>2024-05-04T11:42:07.000Z</time><ele>1097.4</ele></trkpt><trkpt lat="45.844096" lon="9.19541"><time>2024-05-04T11:42:08.000Z</time><ele>1097.4</ele></trkpt><trkpt lat="45.844078" lon="9.195413"><time>2024-05-04T11:42:09.000Z</time><ele>1097.6</ele></trkpt><trkpt lat="45.844068" lon="9.195415"><time>2024-05-04T11:42:10.000Z</time><ele>1097.8</ele></trkpt><trkpt lat="45.844066" lon="9.195414"><time>2024-05-04T11:42:11.000Z</time><ele>1097.8</ele></trkpt><trkpt lat="45.844065" lon="9.195415"><time>2024-05-04T11:42:12.000Z</time><ele>1098</ele></trkpt><trkpt lat="45.844064" lon="9.195414"><time>2024-05-04T11:42:13.000Z</time><ele>1098</ele></trkpt><trkpt lat="45.844064" lon="9.195414"><time>2024-05-04T11:42:14.000Z</time><ele>1098</ele></trkpt><trkpt lat="45.844065" lon="9.195415"><time>2024-05-04T11:42:15.000Z</time><ele>1098</ele></trkpt><trkpt lat="45.844062" lon="9.19542"><time>2024-05-04T11:42:16.000Z</time><ele>1098</ele></trkpt><trkpt lat="45.844064" lon="9.195425"><time>2024-05-04T11:42:17.000Z</time><ele>1098</ele></trkpt><trkpt lat="45.844061" lon="9.195421"><time>2024-05-04T11:42:18.000Z</time><ele>1098</ele></trkpt><trkpt lat="45.84406" lon="9.19542"><time>2024-05-04T11:42:19.000Z</time><ele>1098</ele></trkpt><trkpt lat="45.84406" lon="9.19542"><time>2024-05-04T11:42:20.000Z</time><ele>1098</ele></trkpt><trkpt lat="45.84406" lon="9.19542"><time>2024-05-04T11:42:21.000Z</time><ele>1098</ele></trkpt><trkpt lat="45.84406" lon="9.19542"><time>2024-05-04T11:42:22.000Z</time><ele>1098</ele></trkpt><trkpt lat="45.84406" lon="9.19542"><time>2024-05-04T11:42:23.000Z</time><ele>1098</ele></trkpt><trkpt lat="45.84406" lon="9.19542"><time>2024-05-04T11:42:24.000Z</time><ele>1098</ele></trkpt><trkpt lat="45.84406" lon="9.19542"><time>2024-05-04T11:42:25.000Z</time><ele>1098</ele></trkpt><trkpt lat="45.84406" lon="9.19542"><time>2024-05-04T11:42:26.000Z</time><ele>1097.8</ele></trkpt><trkpt lat="45.84406" lon="9.19542"><time>2024-05-04T11:42:27.000Z</time><ele>1097.6</ele></trkpt><trkpt lat="45.84406" lon="9.19542"><time>2024-05-04T11:42:28.000Z</time><ele>1097.4</ele></trkpt><trkpt lat="45.844061" lon="9.19542"><time>2024-05-04T11:42:29.000Z</time><ele>1097.4</ele></trkpt><trkpt lat="45.844061" lon="9.19542"><time>2024-05-04T11:42:30.000Z</time><ele>1097.2</ele></trkpt><trkpt lat="45.844062" lon="9.19542"><time>2024-05-04T11:42:31.000Z</time><ele>1097.2</ele></trkpt><trkpt lat="45.844062" lon="9.195413"><time>2024-05-04T11:42:32.000Z</time><ele>1096.8</ele></trkpt><trkpt lat="45.844059" lon="9.195394"><time>2024-05-04T11:42:33.000Z</time><ele>1096.8</ele></trkpt><trkpt lat="45.844051" lon="9.19538"><time>2024-05-04T11:42:34.000Z</time><ele>1096.6</ele></trkpt><trkpt lat="45.844048" lon="9.195363"><time>2024-05-04T11:42:35.000Z</time><ele>1096.4</ele></trkpt><trkpt lat="45.844046" lon="9.19535"><time>2024-05-04T11:42:36.000Z</time><ele>1096.2</ele></trkpt><trkpt lat="45.844046" lon="9.195336"><time>2024-05-04T11:42:37.000Z</time><ele>1096</ele></trkpt><trkpt lat="45.844046" lon="9.195318"><time>2024-05-04T11:42:38.000Z</time><ele>1095.8</ele></trkpt><trkpt lat="45.844045" lon="9.195302"><time>2024-05-04T11:42:39.000Z</time><ele>1095.8</ele></trkpt><trkpt lat="45.844042" lon="9.195283"><time>2024-05-04T11:42:40.000Z</time><ele>1095.6</ele></trkpt><trkpt lat="45.844043" lon="9.195266"><time>2024-05-04T11:42:41.000Z</time><ele>1095.4</ele></trkpt><trkpt lat="45.844043" lon="9.195257"><time>2024-05-04T11:42:42.000Z</time><ele>1095.4</ele></trkpt><trkpt lat="45.844043" lon="9.195248"><time>2024-05-04T11:42:43.000Z</time><ele>1095.2</ele></trkpt><trkpt lat="45.844045" lon="9.19524"><time>2024-05-04T11:42:44.000Z</time><ele>1095</ele></trkpt><trkpt lat="45.844049" lon="9.195238"><time>2024-05-04T11:42:45.000Z</time><ele>1094.8</ele></trkpt><trkpt lat="45.844048" lon="9.195228"><time>2024-05-04T11:42:46.000Z</time><ele>1094.8</ele></trkpt><trkpt lat="45.844049" lon="9.195216"><time>2024-05-04T11:42:47.000Z</time><ele>1094.6</ele></trkpt><trkpt lat="45.84405" lon="9.195207"><time>2024-05-04T11:42:48.000Z</time><ele>1094.4</ele></trkpt><trkpt lat="45.844052" lon="9.19519"><time>2024-05-04T11:42:49.000Z</time><ele>1094.2</ele></trkpt><trkpt lat="45.844057" lon="9.19518"><time>2024-05-04T11:42:50.000Z</time><ele>1094</ele></trkpt><trkpt lat="45.844054" lon="9.195165"><time>2024-05-04T11:42:51.000Z</time><ele>1094</ele></trkpt><trkpt lat="45.844052" lon="9.195151"><time>2024-05-04T11:42:52.000Z</time><ele>1093.8</ele></trkpt><trkpt lat="45.844052" lon="9.195135"><time>2024-05-04T11:42:53.000Z</time><ele>1093.6</ele></trkpt><trkpt lat="45.844053" lon="9.195118"><time>2024-05-04T11:42:54.000Z</time><ele>1093.6</ele></trkpt><trkpt lat="45.844053" lon="9.195102"><time>2024-05-04T11:42:55.000Z</time><ele>1093.2</ele></trkpt><trkpt lat="45.844054" lon="9.195086"><time>2024-05-04T11:42:56.000Z</time><ele>1093</ele></trkpt><trkpt lat="45.844054" lon="9.195072"><time>2024-05-04T11:42:57.000Z</time><ele>1093</ele></trkpt><trkpt lat="45.844051" lon="9.19506"><time>2024-05-04T11:42:58.000Z</time><ele>1093</ele></trkpt><trkpt lat="45.844049" lon="9.195047"><time>2024-05-04T11:42:59.000Z</time><ele>1092.8</ele></trkpt><trkpt lat="45.844048" lon="9.195031"><time>2024-05-04T11:43:00.000Z</time><ele>1092.8</ele></trkpt><trkpt lat="45.844049" lon="9.195017"><time>2024-05-04T11:43:01.000Z</time><ele>1092.6</ele></trkpt><trkpt lat="45.84405" lon="9.195002"><time>2024-05-04T11:43:02.000Z</time><ele>1092.6</ele></trkpt><trkpt lat="45.84405" lon="9.194987"><time>2024-05-04T11:43:03.000Z</time><ele>1092.6</ele></trkpt><trkpt lat="45.844047" lon="9.194971"><time>2024-05-04T11:43:04.000Z</time><ele>1092.4</ele></trkpt><trkpt lat="45.844048" lon="9.194957"><time>2024-05-04T11:43:05.000Z</time><ele>1092.4</ele></trkpt><trkpt lat="45.844046" lon="9.194943"><time>2024-05-04T11:43:06.000Z</time><ele>1092.2</ele></trkpt><trkpt lat="45.844044" lon="9.194926"><time>2024-05-04T11:43:07.000Z</time><ele>1092.2</ele></trkpt><trkpt lat="45.844044" lon="9.194907"><time>2024-05-04T11:43:08.000Z</time><ele>1092.2</ele></trkpt><trkpt lat="45.844042" lon="9.194892"><time>2024-05-04T11:43:09.000Z</time><ele>1092.2</ele></trkpt><trkpt lat="45.844045" lon="9.194878"><time>2024-05-04T11:43:10.000Z</time><ele>1092.2</ele></trkpt><trkpt lat="45.844048" lon="9.194869"><time>2024-05-04T11:43:11.000Z</time><ele>1092.2</ele></trkpt><trkpt lat="45.844051" lon="9.194855"><time>2024-05-04T11:43:12.000Z</time><ele>1092</ele></trkpt><trkpt lat="45.844052" lon="9.194844"><time>2024-05-04T11:43:13.000Z</time><ele>1092</ele></trkpt><trkpt lat="45.844052" lon="9.194834"><time>2024-05-04T11:43:14.000Z</time><ele>1092</ele></trkpt><trkpt lat="45.844048" lon="9.194822"><time>2024-05-04T11:43:15.000Z</time><ele>1091.8</ele></trkpt><trkpt lat="45.844045" lon="9.194808"><time>2024-05-04T11:43:16.000Z</time><ele>1091.8</ele></trkpt><trkpt lat="45.844043" lon="9.194795"><time>2024-05-04T11:43:17.000Z</time><ele>1091.8</ele></trkpt><trkpt lat="45.844046" lon="9.194779"><time>2024-05-04T11:43:18.000Z</time><ele>1091.8</ele></trkpt><trkpt lat="45.844048" lon="9.194766"><time>2024-05-04T11:43:19.000Z</time><ele>1091.8</ele></trkpt><trkpt lat="45.844052" lon="9.194754"><time>2024-05-04T11:43:20.000Z</time><ele>1091.6</ele></trkpt><trkpt lat="45.844051" lon="9.194738"><time>2024-05-04T11:43:21.000Z</time><ele>1091.6</ele></trkpt><trkpt lat="45.844046" lon="9.194727"><time>2024-05-04T11:43:22.000Z</time><ele>1091.6</ele></trkpt><trkpt lat="45.844041" lon="9.194712"><time>2024-05-04T11:43:23.000Z</time><ele>1091.4</ele></trkpt><trkpt lat="45.844039" lon="9.194701"><time>2024-05-04T11:43:24.000Z</time><ele>1091.2</ele></trkpt><trkpt lat="45.844033" lon="9.194687"><time>2024-05-04T11:43:25.000Z</time><ele>1091.2</ele></trkpt><trkpt lat="45.844024" lon="9.194669"><time>2024-05-04T11:43:26.000Z</time><ele>1091.2</ele></trkpt><trkpt lat="45.844016" lon="9.194646"><time>2024-05-04T11:43:27.000Z</time><ele>1091.2</ele></trkpt><trkpt lat="45.844012" lon="9.194633"><time>2024-05-04T11:43:28.000Z</time><ele>1091.2</ele></trkpt><trkpt lat="45.844009" lon="9.194625"><time>2024-05-04T11:43:29.000Z</time><ele>1091</ele></trkpt><trkpt lat="45.844006" lon="9.194611"><time>2024-05-04T11:43:30.000Z</time><ele>1091</ele></trkpt><trkpt lat="45.843999" lon="9.194591"><time>2024-05-04T11:43:31.000Z</time><ele>1091</ele></trkpt><trkpt lat="45.843998" lon="9.194575"><time>2024-05-04T11:43:32.000Z</time><ele>1090.8</ele></trkpt><trkpt lat="45.843995" lon="9.194558"><time>2024-05-04T11:43:33.000Z</time><ele>1090.8</ele></trkpt><trkpt lat="45.843994" lon="9.194548"><time>2024-05-04T11:43:34.000Z</time><ele>1090.8</ele></trkpt><trkpt lat="45.843991" lon="9.194534"><time>2024-05-04T11:43:35.000Z</time><ele>1090.8</ele></trkpt><trkpt lat="45.843989" lon="9.194523"><time>2024-05-04T11:43:36.000Z</time><ele>1090.6</ele></trkpt><trkpt lat="45.843983" lon="9.194509"><time>2024-05-04T11:43:37.000Z</time><ele>1090.6</ele></trkpt><trkpt lat="45.843979" lon="9.194504"><time>2024-05-04T11:43:38.000Z</time><ele>1090.4</ele></trkpt><trkpt lat="45.843976" lon="9.194498"><time>2024-05-04T11:43:39.000Z</time><ele>1090.4</ele></trkpt><trkpt lat="45.84397" lon="9.194487"><time>2024-05-04T11:43:40.000Z</time><ele>1090.4</ele></trkpt><trkpt lat="45.843968" lon="9.194485"><time>2024-05-04T11:43:41.000Z</time><ele>1090.4</ele></trkpt><trkpt lat="45.843964" lon="9.194476"><time>2024-05-04T11:43:42.000Z</time><ele>1090.6</ele></trkpt><trkpt lat="45.843964" lon="9.194473"><time>2024-05-04T11:43:43.000Z</time><ele>1090.4</ele></trkpt><trkpt lat="45.843965" lon="9.194473"><time>2024-05-04T11:43:44.000Z</time><ele>1090.4</ele></trkpt><trkpt lat="45.843967" lon="9.194469"><time>2024-05-04T11:43:45.000Z</time><ele>1090.4</ele></trkpt><trkpt lat="45.843967" lon="9.194466"><time>2024-05-04T11:43:46.000Z</time><ele>1090.6</ele></trkpt><trkpt lat="45.843962" lon="9.194462"><time>2024-05-04T11:43:47.000Z</time><ele>1090.6</ele></trkpt><trkpt lat="45.843961" lon="9.194463"><time>2024-05-04T11:43:48.000Z</time><ele>1090.4</ele></trkpt><trkpt lat="45.843962" lon="9.194464"><time>2024-05-04T11:43:49.000Z</time><ele>1090.4</ele></trkpt><trkpt lat="45.843966" lon="9.19447"><time>2024-05-04T11:43:50.000Z</time><ele>1090.4</ele></trkpt><trkpt lat="45.84397" lon="9.194473"><time>2024-05-04T11:43:51.000Z</time><ele>1090.4</ele></trkpt><trkpt lat="45.843973" lon="9.194473"><time>2024-05-04T11:43:52.000Z</time><ele>1090.4</ele></trkpt><trkpt lat="45.843974" lon="9.194472"><time>2024-05-04T11:43:53.000Z</time><ele>1090.4</ele></trkpt><trkpt lat="45.843973" lon="9.194473"><time>2024-05-04T11:43:54.000Z</time><ele>1090.2</ele></trkpt><trkpt lat="45.843972" lon="9.194472"><time>2024-05-04T11:43:55.000Z</time><ele>1090.2</ele></trkpt><trkpt lat="45.843971" lon="9.19446"><time>2024-05-04T11:43:56.000Z</time><ele>1090</ele></trkpt><trkpt lat="45.84397" lon="9.194452"><time>2024-05-04T11:43:57.000Z</time><ele>1089.8</ele></trkpt><trkpt lat="45.84397" lon="9.194449"><time>2024-05-04T11:43:58.000Z</time><ele>1089.8</ele></trkpt><trkpt lat="45.84397" lon="9.194442"><time>2024-05-04T11:43:59.000Z</time><ele>1089.6</ele></trkpt><trkpt lat="45.84397" lon="9.194429"><time>2024-05-04T11:44:00.000Z</time><ele>1089.4</ele></trkpt><trkpt lat="45.843969" lon="9.194416"><time>2024-05-04T11:44:01.000Z</time><ele>1089.2</ele></trkpt><trkpt lat="45.843969" lon="9.194402"><time>2024-05-04T11:44:02.000Z</time><ele>1089.2</ele></trkpt><trkpt lat="45.843967" lon="9.194393"><time>2024-05-04T11:44:03.000Z</time><ele>1089</ele></trkpt><trkpt lat="45.843964" lon="9.194381"><time>2024-05-04T11:44:04.000Z</time><ele>1088.8</ele></trkpt><trkpt lat="45.84396" lon="9.194365"><time>2024-05-04T11:44:05.000Z</time><ele>1088.6</ele></trkpt><trkpt lat="45.843956" lon="9.194348"><time>2024-05-04T11:44:06.000Z</time><ele>1088.4</ele></trkpt><trkpt lat="45.843953" lon="9.194335"><time>2024-05-04T11:44:07.000Z</time><ele>1088.2</ele></trkpt><trkpt lat="45.84395" lon="9.194328"><time>2024-05-04T11:44:08.000Z</time><ele>1088.2</ele></trkpt><trkpt lat="45.843946" lon="9.194325"><time>2024-05-04T11:44:09.000Z</time><ele>1087.8</ele></trkpt><trkpt lat="45.843948" lon="9.194322"><time>2024-05-04T11:44:10.000Z</time><ele>1087.6</ele></trkpt><trkpt lat="45.843951" lon="9.194325"><time>2024-05-04T11:44:11.000Z</time><ele>1087.4</ele></trkpt><trkpt lat="45.843949" lon="9.194315"><time>2024-05-04T11:44:12.000Z</time><ele>1087.4</ele></trkpt><trkpt lat="45.843945" lon="9.1943"><time>2024-05-04T11:44:13.000Z</time><ele>1086.8</ele></trkpt><trkpt lat="45.843944" lon="9.194293"><time>2024-05-04T11:44:14.000Z</time><ele>1086.6</ele></trkpt><trkpt lat="45.843939" lon="9.194285"><time>2024-05-04T11:44:15.000Z</time><ele>1086.4</ele></trkpt><trkpt lat="45.843939" lon="9.194283"><time>2024-05-04T11:44:16.000Z</time><ele>1086.2</ele></trkpt><trkpt lat="45.843941" lon="9.194279"><time>2024-05-04T11:44:17.000Z</time><ele>1086.2</ele></trkpt><trkpt lat="45.843942" lon="9.194274"><time>2024-05-04T11:44:18.000Z</time><ele>1086</ele></trkpt><trkpt lat="45.843942" lon="9.194271"><time>2024-05-04T11:44:19.000Z</time><ele>1086</ele></trkpt><trkpt lat="45.843942" lon="9.194266"><time>2024-05-04T11:44:20.000Z</time><ele>1086</ele></trkpt><trkpt lat="45.843941" lon="9.194262"><time>2024-05-04T11:44:21.000Z</time><ele>1085.8</ele></trkpt><trkpt lat="45.84394" lon="9.194259"><time>2024-05-04T11:44:22.000Z</time><ele>1085.8</ele></trkpt><trkpt lat="45.84394" lon="9.194254"><time>2024-05-04T11:44:23.000Z</time><ele>1085.4</ele></trkpt><trkpt lat="45.84394" lon="9.194244"><time>2024-05-04T11:44:24.000Z</time><ele>1085.2</ele></trkpt><trkpt lat="45.84394" lon="9.194236"><time>2024-05-04T11:44:25.000Z</time><ele>1085</ele></trkpt><trkpt lat="45.843943" lon="9.194229"><time>2024-05-04T11:44:26.000Z</time><ele>1084.8</ele></trkpt><trkpt lat="45.843942" lon="9.194218"><time>2024-05-04T11:44:27.000Z</time><ele>1084.6</ele></trkpt><trkpt lat="45.843942" lon="9.194204"><time>2024-05-04T11:44:28.000Z</time><ele>1084.6</ele></trkpt><trkpt lat="45.843942" lon="9.194192"><time>2024-05-04T11:44:29.000Z</time><ele>1084.4</ele></trkpt><trkpt lat="45.843938" lon="9.194186"><time>2024-05-04T11:44:30.000Z</time><ele>1084.2</ele></trkpt><trkpt lat="45.843935" lon="9.194178"><time>2024-05-04T11:44:31.000Z</time><ele>1084.2</ele></trkpt><trkpt lat="45.843932" lon="9.194173"><time>2024-05-04T11:44:32.000Z</time><ele>1084</ele></trkpt><trkpt lat="45.843929" lon="9.19417"><time>2024-05-04T11:44:33.000Z</time><ele>1084</ele></trkpt><trkpt lat="45.843924" lon="9.194161"><time>2024-05-04T11:44:34.000Z</time><ele>1083.8</ele></trkpt><trkpt lat="45.843918" lon="9.194152"><time>2024-05-04T11:44:35.000Z</time><ele>1083.8</ele></trkpt><trkpt lat="45.843914" lon="9.194147"><time>2024-05-04T11:44:36.000Z</time><ele>1083.6</ele></trkpt><trkpt lat="45.843914" lon="9.194145"><time>2024-05-04T11:44:37.000Z</time><ele>1083.6</ele></trkpt><trkpt lat="45.843912" lon="9.194138"><time>2024-05-04T11:44:38.000Z</time><ele>1083.4</ele></trkpt><trkpt lat="45.84391" lon="9.194129"><time>2024-05-04T11:44:39.000Z</time><ele>1083.4</ele></trkpt><trkpt lat="45.84391" lon="9.194119"><time>2024-05-04T11:44:40.000Z</time><ele>1083.2</ele></trkpt><trkpt lat="45.843911" lon="9.194107"><time>2024-05-04T11:44:41.000Z</time><ele>1083</ele></trkpt><trkpt lat="45.84391" lon="9.19409"><time>2024-05-04T11:44:42.000Z</time><ele>1082.6</ele></trkpt><trkpt lat="45.843911" lon="9.194079"><time>2024-05-04T11:44:43.000Z</time><ele>1082.4</ele></trkpt><trkpt lat="45.84391" lon="9.194067"><time>2024-05-04T11:44:44.000Z</time><ele>1082.2</ele></trkpt><trkpt lat="45.843906" lon="9.194048"><time>2024-05-04T11:44:45.000Z</time><ele>1082</ele></trkpt><trkpt lat="45.843897" lon="9.194022"><time>2024-05-04T11:44:46.000Z</time><ele>1081.8</ele></trkpt><trkpt lat="45.843894" lon="9.193998"><time>2024-05-04T11:44:47.000Z</time><ele>1081.8</ele></trkpt><trkpt lat="45.843894" lon="9.193993"><time>2024-05-04T11:44:48.000Z</time><ele>1081.6</ele></trkpt><trkpt lat="45.843893" lon="9.193989"><time>2024-05-04T11:44:49.000Z</time><ele>1081.4</ele></trkpt><trkpt lat="45.843891" lon="9.193987"><time>2024-05-04T11:44:50.000Z</time><ele>1081.2</ele></trkpt><trkpt lat="45.843892" lon="9.193972"><time>2024-05-04T11:44:51.000Z</time><ele>1081.2</ele></trkpt><trkpt lat="45.843892" lon="9.193967"><time>2024-05-04T11:44:52.000Z</time><ele>1081</ele></trkpt><trkpt lat="45.843892" lon="9.193952"><time>2024-05-04T11:44:53.000Z</time><ele>1080.8</ele></trkpt><trkpt lat="45.843886" lon="9.193934"><time>2024-05-04T11:44:54.000Z</time><ele>1080.6</ele></trkpt><trkpt lat="45.843881" lon="9.193913"><time>2024-05-04T11:44:55.000Z</time><ele>1080.4</ele></trkpt><trkpt lat="45.843874" lon="9.193893"><time>2024-05-04T11:44:56.000Z</time><ele>1080.2</ele></trkpt><trkpt lat="45.84387" lon="9.193877"><time>2024-05-04T11:44:57.000Z</time><ele>1079.8</ele></trkpt><trkpt lat="45.843867" lon="9.19386"><time>2024-05-04T11:44:58.000Z</time><ele>1079.6</ele></trkpt><trkpt lat="45.843865" lon="9.193846"><time>2024-05-04T11:44:59.000Z</time><ele>1079.4</ele></trkpt><trkpt lat="45.843865" lon="9.193834"><time>2024-05-04T11:45:00.000Z</time><ele>1079.4</ele></trkpt><trkpt lat="45.843862" lon="9.193824"><time>2024-05-04T11:45:01.000Z</time><ele>1079</ele></trkpt><trkpt lat="45.843858" lon="9.193816"><time>2024-05-04T11:45:02.000Z</time><ele>1078.6</ele></trkpt><trkpt lat="45.843854" lon="9.193805"><time>2024-05-04T11:45:03.000Z</time><ele>1078.4</ele></trkpt><trkpt lat="45.843854" lon="9.193791"><time>2024-05-04T11:45:04.000Z</time><ele>1078</ele></trkpt><trkpt lat="45.843855" lon="9.193776"><time>2024-05-04T11:45:05.000Z</time><ele>1077.6</ele></trkpt><trkpt lat="45.843859" lon="9.193754"><time>2024-05-04T11:45:06.000Z</time><ele>1077.6</ele></trkpt><trkpt lat="45.843859" lon="9.193746"><time>2024-05-04T11:45:07.000Z</time><ele>1077.4</ele></trkpt><trkpt lat="45.843855" lon="9.193736"><time>2024-05-04T11:45:08.000Z</time><ele>1077.2</ele></trkpt><trkpt lat="45.843853" lon="9.193721"><time>2024-05-04T11:45:09.000Z</time><ele>1076.8</ele></trkpt><trkpt lat="45.843851" lon="9.193708"><time>2024-05-04T11:45:10.000Z</time><ele>1076.6</ele></trkpt><trkpt lat="45.843845" lon="9.193696"><time>2024-05-04T11:45:11.000Z</time><ele>1076.2</ele></trkpt><trkpt lat="45.843834" lon="9.193678"><time>2024-05-04T11:45:12.000Z</time><ele>1076</ele></trkpt><trkpt lat="45.843828" lon="9.193658"><time>2024-05-04T11:45:13.000Z</time><ele>1075.8</ele></trkpt><trkpt lat="45.843821" lon="9.193636"><time>2024-05-04T11:45:14.000Z</time><ele>1075.6</ele></trkpt><trkpt lat="45.843815" lon="9.193615"><time>2024-05-04T11:45:15.000Z</time><ele>1075.4</ele></trkpt><trkpt lat="45.843807" lon="9.193595"><time>2024-05-04T11:45:16.000Z</time><ele>1075.4</ele></trkpt><trkpt lat="45.8438" lon="9.193576"><time>2024-05-04T11:45:17.000Z</time><ele>1075</ele></trkpt><trkpt lat="45.843791" lon="9.193562"><time>2024-05-04T11:45:18.000Z</time><ele>1074.8</ele></trkpt><trkpt lat="45.843777" lon="9.19355"><time>2024-05-04T11:45:19.000Z</time><ele>1074.6</ele></trkpt><trkpt lat="45.843764" lon="9.193538"><time>2024-05-04T11:45:20.000Z</time><ele>1074.4</ele></trkpt><trkpt lat="45.843754" lon="9.193525"><time>2024-05-04T11:45:21.000Z</time><ele>1074.4</ele></trkpt><trkpt lat="45.843746" lon="9.193509"><time>2024-05-04T11:45:22.000Z</time><ele>1074</ele></trkpt><trkpt lat="45.843737" lon="9.193492"><time>2024-05-04T11:45:23.000Z</time><ele>1073.8</ele></trkpt><trkpt lat="45.843728" lon="9.193477"><time>2024-05-04T11:45:24.000Z</time><ele>1073.6</ele></trkpt><trkpt lat="45.843725" lon="9.193464"><time>2024-05-04T11:45:25.000Z</time><ele>1073.4</ele></trkpt><trkpt lat="45.843723" lon="9.193452"><time>2024-05-04T11:45:26.000Z</time><ele>1073.4</ele></trkpt><trkpt lat="45.843717" lon="9.193437"><time>2024-05-04T11:45:27.000Z</time><ele>1073</ele></trkpt><trkpt lat="45.843708" lon="9.193419"><time>2024-05-04T11:45:28.000Z</time><ele>1072.8</ele></trkpt><trkpt lat="45.843699" lon="9.193402"><time>2024-05-04T11:45:29.000Z</time><ele>1072.6</ele></trkpt><trkpt lat="45.843693" lon="9.193391"><time>2024-05-04T11:45:30.000Z</time><ele>1072.6</ele></trkpt><trkpt lat="45.843686" lon="9.193379"><time>2024-05-04T11:45:31.000Z</time><ele>1072.2</ele></trkpt><trkpt lat="45.843676" lon="9.193364"><time>2024-05-04T11:45:32.000Z</time><ele>1072</ele></trkpt><trkpt lat="45.843669" lon="9.193353"><time>2024-05-04T11:45:33.000Z</time><ele>1071.8</ele></trkpt><trkpt lat="45.843663" lon="9.193348"><time>2024-05-04T11:45:34.000Z</time><ele>1071.4</ele></trkpt><trkpt lat="45.843655" lon="9.193346"><time>2024-05-04T11:45:35.000Z</time><ele>1071.2</ele></trkpt><trkpt lat="45.843646" lon="9.19334"><time>2024-05-04T11:45:36.000Z</time><ele>1071</ele></trkpt><trkpt lat="45.843635" lon="9.19333"><time>2024-05-04T11:45:37.000Z</time><ele>1070.4</ele></trkpt><trkpt lat="45.843628" lon="9.193322"><time>2024-05-04T11:45:38.000Z</time><ele>1070</ele></trkpt><trkpt lat="45.843622" lon="9.193313"><time>2024-05-04T11:45:39.000Z</time><ele>1069.8</ele></trkpt><trkpt lat="45.843616" lon="9.193301"><time>2024-05-04T11:45:40.000Z</time><ele>1069.6</ele></trkpt><trkpt lat="45.843614" lon="9.193296"><time>2024-05-04T11:45:41.000Z</time><ele>1069.4</ele></trkpt><trkpt lat="45.843613" lon="9.193295"><time>2024-05-04T11:45:42.000Z</time><ele>1069.4</ele></trkpt><trkpt lat="45.84361" lon="9.193293"><time>2024-05-04T11:45:43.000Z</time><ele>1069</ele></trkpt><trkpt lat="45.843602" lon="9.193281"><time>2024-05-04T11:45:44.000Z</time><ele>1068.6</ele></trkpt><trkpt lat="45.843597" lon="9.193271"><time>2024-05-04T11:45:45.000Z</time><ele>1068.4</ele></trkpt><trkpt lat="45.84359" lon="9.193261"><time>2024-05-04T11:45:46.000Z</time><ele>1068.2</ele></trkpt><trkpt lat="45.843584" lon="9.193257"><time>2024-05-04T11:45:47.000Z</time><ele>1068</ele></trkpt><trkpt lat="45.84358" lon="9.193254"><time>2024-05-04T11:45:48.000Z</time><ele>1067.6</ele></trkpt><trkpt lat="45.843568" lon="9.193248"><time>2024-05-04T11:45:49.000Z</time><ele>1067.4</ele></trkpt><trkpt lat="45.843562" lon="9.193243"><time>2024-05-04T11:45:50.000Z</time><ele>1067.2</ele></trkpt><trkpt lat="45.843553" lon="9.193234"><time>2024-05-04T11:45:51.000Z</time><ele>1067</ele></trkpt><trkpt lat="45.843543" lon="9.193225"><time>2024-05-04T11:45:52.000Z</time><ele>1066.8</ele></trkpt><trkpt lat="45.843528" lon="9.193201"><time>2024-05-04T11:45:53.000Z</time><ele>1066.6</ele></trkpt><trkpt lat="45.843518" lon="9.193172"><time>2024-05-04T11:45:54.000Z</time><ele>1066.6</ele></trkpt><trkpt lat="45.843511" lon="9.193159"><time>2024-05-04T11:45:55.000Z</time><ele>1066.4</ele></trkpt><trkpt lat="45.843507" lon="9.193145"><time>2024-05-04T11:45:56.000Z</time><ele>1066.4</ele></trkpt><trkpt lat="45.8435" lon="9.193135"><time>2024-05-04T11:45:57.000Z</time><ele>1066.4</ele></trkpt><trkpt lat="45.843494" lon="9.193125"><time>2024-05-04T11:45:58.000Z</time><ele>1066.2</ele></trkpt><trkpt lat="45.843488" lon="9.193115"><time>2024-05-04T11:45:59.000Z</time><ele>1066</ele></trkpt><trkpt lat="45.843482" lon="9.193108"><time>2024-05-04T11:46:00.000Z</time><ele>1065.8</ele></trkpt><trkpt lat="45.843476" lon="9.193098"><time>2024-05-04T11:46:01.000Z</time><ele>1065.6</ele></trkpt><trkpt lat="45.843471" lon="9.193088"><time>2024-05-04T11:46:02.000Z</time><ele>1065.4</ele></trkpt><trkpt lat="45.843463" lon="9.193075"><time>2024-05-04T11:46:03.000Z</time><ele>1065</ele></trkpt><trkpt lat="45.843452" lon="9.193062"><time>2024-05-04T11:46:04.000Z</time><ele>1064.8</ele></trkpt><trkpt lat="45.84344" lon="9.193055"><time>2024-05-04T11:46:05.000Z</time><ele>1064.6</ele></trkpt><trkpt lat="45.843429" lon="9.193046"><time>2024-05-04T11:46:06.000Z</time><ele>1064.6</ele></trkpt><trkpt lat="45.843409" lon="9.193029"><time>2024-05-04T11:46:07.000Z</time><ele>1064.4</ele></trkpt><trkpt lat="45.8434" lon="9.19302"><time>2024-05-04T11:46:08.000Z</time><ele>1064</ele></trkpt><trkpt lat="45.84339" lon="9.193014"><time>2024-05-04T11:46:09.000Z</time><ele>1063.8</ele></trkpt><trkpt lat="45.843379" lon="9.193002"><time>2024-05-04T11:46:10.000Z</time><ele>1063.4</ele></trkpt><trkpt lat="45.843367" lon="9.192995"><time>2024-05-04T11:46:11.000Z</time><ele>1063.2</ele></trkpt><trkpt lat="45.843356" lon="9.192987"><time>2024-05-04T11:46:12.000Z</time><ele>1063</ele></trkpt><trkpt lat="45.843347" lon="9.192976"><time>2024-05-04T11:46:13.000Z</time><ele>1062.8</ele></trkpt><trkpt lat="45.843341" lon="9.192967"><time>2024-05-04T11:46:14.000Z</time><ele>1062.6</ele></trkpt><trkpt lat="45.843337" lon="9.192961"><time>2024-05-04T11:46:15.000Z</time><ele>1062.4</ele></trkpt><trkpt lat="45.843334" lon="9.192951"><time>2024-05-04T11:46:16.000Z</time><ele>1062</ele></trkpt><trkpt lat="45.843331" lon="9.192934"><time>2024-05-04T11:46:17.000Z</time><ele>1061.6</ele></trkpt><trkpt lat="45.84333" lon="9.192927"><time>2024-05-04T11:46:18.000Z</time><ele>1061.6</ele></trkpt><trkpt lat="45.843323" lon="9.19292"><time>2024-05-04T11:46:19.000Z</time><ele>1061.4</ele></trkpt><trkpt lat="45.843317" lon="9.192914"><time>2024-05-04T11:46:20.000Z</time><ele>1061.2</ele></trkpt><trkpt lat="45.843308" lon="9.192905"><time>2024-05-04T11:46:21.000Z</time><ele>1060.8</ele></trkpt><trkpt lat="45.843297" lon="9.192893"><time>2024-05-04T11:46:22.000Z</time><ele>1060.6</ele></trkpt><trkpt lat="45.843286" lon="9.192881"><time>2024-05-04T11:46:23.000Z</time><ele>1060.2</ele></trkpt><trkpt lat="45.843279" lon="9.192867"><time>2024-05-04T11:46:24.000Z</time><ele>1060</ele></trkpt><trkpt lat="45.843272" lon="9.192853"><time>2024-05-04T11:46:25.000Z</time><ele>1059.8</ele></trkpt><trkpt lat="45.843263" lon="9.192843"><time>2024-05-04T11:46:26.000Z</time><ele>1059.4</ele></trkpt><trkpt lat="45.843252" lon="9.192832"><time>2024-05-04T11:46:27.000Z</time><ele>1059</ele></trkpt><trkpt lat="45.843244" lon="9.192828"><time>2024-05-04T11:46:28.000Z</time><ele>1058.8</ele></trkpt><trkpt lat="45.84324" lon="9.192825"><time>2024-05-04T11:46:29.000Z</time><ele>1058.4</ele></trkpt><trkpt lat="45.843235" lon="9.192817"><time>2024-05-04T11:46:30.000Z</time><ele>1058</ele></trkpt><trkpt lat="45.843228" lon="9.192801"><time>2024-05-04T11:46:31.000Z</time><ele>1057.8</ele></trkpt><trkpt lat="45.843218" lon="9.192787"><time>2024-05-04T11:46:32.000Z</time><ele>1057.6</ele></trkpt><trkpt lat="45.84321" lon="9.192778"><time>2024-05-04T11:46:33.000Z</time><ele>1057.4</ele></trkpt><trkpt lat="45.843202" lon="9.192769"><time>2024-05-04T11:46:34.000Z</time><ele>1057.2</ele></trkpt><trkpt lat="45.84319" lon="9.192758"><time>2024-05-04T11:46:35.000Z</time><ele>1057</ele></trkpt><trkpt lat="45.843181" lon="9.192746"><time>2024-05-04T11:46:36.000Z</time><ele>1056.8</ele></trkpt><trkpt lat="45.843176" lon="9.192743"><time>2024-05-04T11:46:37.000Z</time><ele>1056.4</ele></trkpt><trkpt lat="45.843169" lon="9.192745"><time>2024-05-04T11:46:38.000Z</time><ele>1056</ele></trkpt><trkpt lat="45.84316" lon="9.192739"><time>2024-05-04T11:46:39.000Z</time><ele>1055.8</ele></trkpt><trkpt lat="45.843152" lon="9.192734"><time>2024-05-04T11:46:40.000Z</time><ele>1055.6</ele></trkpt><trkpt lat="45.843141" lon="9.192727"><time>2024-05-04T11:46:41.000Z</time><ele>1055.4</ele></trkpt><trkpt lat="45.843136" lon="9.192725"><time>2024-05-04T11:46:42.000Z</time><ele>1055.4</ele></trkpt><trkpt lat="45.843129" lon="9.19272"><time>2024-05-04T11:46:43.000Z</time><ele>1055</ele></trkpt><trkpt lat="45.843119" lon="9.192718"><time>2024-05-04T11:46:44.000Z</time><ele>1054.6</ele></trkpt><trkpt lat="45.843111" lon="9.192714"><time>2024-05-04T11:46:45.000Z</time><ele>1054.4</ele></trkpt><trkpt lat="45.843099" lon="9.192707"><time>2024-05-04T11:46:46.000Z</time><ele>1054</ele></trkpt><trkpt lat="45.843093" lon="9.192697"><time>2024-05-04T11:46:47.000Z</time><ele>1053.8</ele></trkpt><trkpt lat="45.843086" lon="9.192692"><time>2024-05-04T11:46:48.000Z</time><ele>1053.6</ele></trkpt><trkpt lat="45.843077" lon="9.192685"><time>2024-05-04T11:46:49.000Z</time><ele>1053.4</ele></trkpt><trkpt lat="45.843067" lon="9.192676"><time>2024-05-04T11:46:50.000Z</time><ele>1053</ele></trkpt><trkpt lat="45.84306" lon="9.192665"><time>2024-05-04T11:46:51.000Z</time><ele>1052.8</ele></trkpt><trkpt lat="45.84305" lon="9.192651"><time>2024-05-04T11:46:52.000Z</time><ele>1052.6</ele></trkpt><trkpt lat="45.843043" lon="9.192639"><time>2024-05-04T11:46:53.000Z</time><ele>1052.4</ele></trkpt><trkpt lat="45.843035" lon="9.192628"><time>2024-05-04T11:46:54.000Z</time><ele>1052.2</ele></trkpt><trkpt lat="45.843026" lon="9.192614"><time>2024-05-04T11:46:55.000Z</time><ele>1052</ele></trkpt><trkpt lat="45.843019" lon="9.192596"><time>2024-05-04T11:46:56.000Z</time><ele>1051.8</ele></trkpt><trkpt lat="45.84301" lon="9.192581"><time>2024-05-04T11:46:57.000Z</time><ele>1051.4</ele></trkpt><trkpt lat="45.842999" lon="9.19257"><time>2024-05-04T11:46:58.000Z</time><ele>1051.2</ele></trkpt><trkpt lat="45.842991" lon="9.192563"><time>2024-05-04T11:46:59.000Z</time><ele>1051.2</ele></trkpt><trkpt lat="45.84298" lon="9.192559"><time>2024-05-04T11:47:00.000Z</time><ele>1051</ele></trkpt><trkpt lat="45.84297" lon="9.192555"><time>2024-05-04T11:47:01.000Z</time><ele>1050.8</ele></trkpt><trkpt lat="45.842962" lon="9.192549"><time>2024-05-04T11:47:02.000Z</time><ele>1050.6</ele></trkpt><trkpt lat="45.842954" lon="9.192543"><time>2024-05-04T11:47:03.000Z</time><ele>1050.4</ele></trkpt><trkpt lat="45.842944" lon="9.192541"><time>2024-05-04T11:47:04.000Z</time><ele>1050.2</ele></trkpt><trkpt lat="45.842937" lon="9.192532"><time>2024-05-04T11:47:05.000Z</time><ele>1050</ele></trkpt><trkpt lat="45.842925" lon="9.192523"><time>2024-05-04T11:47:06.000Z</time><ele>1049.8</ele></trkpt><trkpt lat="45.842919" lon="9.192522"><time>2024-05-04T11:47:07.000Z</time><ele>1049.6</ele></trkpt><trkpt lat="45.842911" lon="9.192524"><time>2024-05-04T11:47:08.000Z</time><ele>1049.4</ele></trkpt><trkpt lat="45.842903" lon="9.192523"><time>2024-05-04T11:47:09.000Z</time><ele>1049.2</ele></trkpt><trkpt lat="45.84289" lon="9.192514"><time>2024-05-04T11:47:10.000Z</time><ele>1049</ele></trkpt><trkpt lat="45.842873" lon="9.192507"><time>2024-05-04T11:47:11.000Z</time><ele>1048.8</ele></trkpt><trkpt lat="45.842859" lon="9.192503"><time>2024-05-04T11:47:12.000Z</time><ele>1048.8</ele></trkpt><trkpt lat="45.842847" lon="9.192499"><time>2024-05-04T11:47:13.000Z</time><ele>1048.4</ele></trkpt><trkpt lat="45.842834" lon="9.19248"><time>2024-05-04T11:47:14.000Z</time><ele>1048</ele></trkpt><trkpt lat="45.842826" lon="9.192475"><time>2024-05-04T11:47:15.000Z</time><ele>1047.8</ele></trkpt><trkpt lat="45.842814" lon="9.192469"><time>2024-05-04T11:47:16.000Z</time><ele>1047.6</ele></trkpt><trkpt lat="45.842801" lon="9.192459"><time>2024-05-04T11:47:17.000Z</time><ele>1047.4</ele></trkpt><trkpt lat="45.842794" lon="9.192447"><time>2024-05-04T11:47:18.000Z</time><ele>1047.4</ele></trkpt><trkpt lat="45.842781" lon="9.192439"><time>2024-05-04T11:47:19.000Z</time><ele>1047.2</ele></trkpt><trkpt lat="45.84277" lon="9.192432"><time>2024-05-04T11:47:20.000Z</time><ele>1047</ele></trkpt><trkpt lat="45.842758" lon="9.192425"><time>2024-05-04T11:47:21.000Z</time><ele>1046.8</ele></trkpt><trkpt lat="45.842747" lon="9.192418"><time>2024-05-04T11:47:22.000Z</time><ele>1046.6</ele></trkpt><trkpt lat="45.842741" lon="9.192413"><time>2024-05-04T11:47:23.000Z</time><ele>1046.6</ele></trkpt><trkpt lat="45.84274" lon="9.192405"><time>2024-05-04T11:47:24.000Z</time><ele>1046.4</ele></trkpt><trkpt lat="45.842733" lon="9.192388"><time>2024-05-04T11:47:25.000Z</time><ele>1046.2</ele></trkpt><trkpt lat="45.842727" lon="9.192373"><time>2024-05-04T11:47:26.000Z</time><ele>1046</ele></trkpt><trkpt lat="45.842717" lon="9.192361"><time>2024-05-04T11:47:27.000Z</time><ele>1045.8</ele></trkpt><trkpt lat="45.84271" lon="9.192348"><time>2024-05-04T11:47:28.000Z</time><ele>1045.8</ele></trkpt><trkpt lat="45.842704" lon="9.192337"><time>2024-05-04T11:47:29.000Z</time><ele>1045.6</ele></trkpt><trkpt lat="45.8427" lon="9.192327"><time>2024-05-04T11:47:30.000Z</time><ele>1045.4</ele></trkpt><trkpt lat="45.842692" lon="9.192314"><time>2024-05-04T11:47:31.000Z</time><ele>1045.2</ele></trkpt><trkpt lat="45.842683" lon="9.192309"><time>2024-05-04T11:47:32.000Z</time><ele>1045</ele></trkpt><trkpt lat="45.842675" lon="9.19231"><time>2024-05-04T11:47:33.000Z</time><ele>1045</ele></trkpt><trkpt lat="45.842668" lon="9.192298"><time>2024-05-04T11:47:34.000Z</time><ele>1044.6</ele></trkpt><trkpt lat="45.842654" lon="9.192283"><time>2024-05-04T11:47:35.000Z</time><ele>1044.4</ele></trkpt><trkpt lat="45.842642" lon="9.192275"><time>2024-05-04T11:47:36.000Z</time><ele>1044.2</ele></trkpt><trkpt lat="45.842626" lon="9.192264"><time>2024-05-04T11:47:37.000Z</time><ele>1044</ele></trkpt><trkpt lat="45.842617" lon="9.192254"><time>2024-05-04T11:47:38.000Z</time><ele>1043.8</ele></trkpt><trkpt lat="45.842609" lon="9.192246"><time>2024-05-04T11:47:39.000Z</time><ele>1043.8</ele></trkpt><trkpt lat="45.842601" lon="9.192237"><time>2024-05-04T11:47:40.000Z</time><ele>1043.8</ele></trkpt><trkpt lat="45.842592" lon="9.192227"><time>2024-05-04T11:47:41.000Z</time><ele>1043.6</ele></trkpt><trkpt lat="45.842584" lon="9.192218"><time>2024-05-04T11:47:42.000Z</time><ele>1043.4</ele></trkpt><trkpt lat="45.842582" lon="9.192214"><time>2024-05-04T11:47:43.000Z</time><ele>1043.2</ele></trkpt><trkpt lat="45.842579" lon="9.192212"><time>2024-05-04T11:47:44.000Z</time><ele>1043</ele></trkpt><trkpt lat="45.842571" lon="9.192212"><time>2024-05-04T11:47:45.000Z</time><ele>1043</ele></trkpt><trkpt lat="45.842561" lon="9.192206"><time>2024-05-04T11:47:46.000Z</time><ele>1042.8</ele></trkpt><trkpt lat="45.842553" lon="9.192194"><time>2024-05-04T11:47:47.000Z</time><ele>1042.6</ele></trkpt><trkpt lat="45.842546" lon="9.192175"><time>2024-05-04T11:47:48.000Z</time><ele>1042.4</ele></trkpt><trkpt lat="45.842537" lon="9.192156"><time>2024-05-04T11:47:49.000Z</time><ele>1042.2</ele></trkpt><trkpt lat="45.842528" lon="9.192147"><time>2024-05-04T11:47:50.000Z</time><ele>1042</ele></trkpt><trkpt lat="45.842518" lon="9.19214"><time>2024-05-04T11:47:51.000Z</time><ele>1042</ele></trkpt><trkpt lat="45.842508" lon="9.192129"><time>2024-05-04T11:47:52.000Z</time><ele>1041.8</ele></trkpt><trkpt lat="45.842499" lon="9.192118"><time>2024-05-04T11:47:53.000Z</time><ele>1041.6</ele></trkpt><trkpt lat="45.842492" lon="9.192106"><time>2024-05-04T11:47:54.000Z</time><ele>1041.4</ele></trkpt><trkpt lat="45.842485" lon="9.192091"><time>2024-05-04T11:47:55.000Z</time><ele>1041.2</ele></trkpt><trkpt lat="45.842475" lon="9.192082"><time>2024-05-04T11:47:56.000Z</time><ele>1041</ele></trkpt><trkpt lat="45.842465" lon="9.192078"><time>2024-05-04T11:47:57.000Z</time><ele>1040.8</ele></trkpt><trkpt lat="45.842455" lon="9.192078"><time>2024-05-04T11:47:58.000Z</time><ele>1040.6</ele></trkpt><trkpt lat="45.842441" lon="9.192073"><time>2024-05-04T11:47:59.000Z</time><ele>1040.4</ele></trkpt><trkpt lat="45.842428" lon="9.192065"><time>2024-05-04T11:48:00.000Z</time><ele>1040.4</ele></trkpt><trkpt lat="45.842418" lon="9.192058"><time>2024-05-04T11:48:01.000Z</time><ele>1040.2</ele></trkpt><trkpt lat="45.842407" lon="9.19205"><time>2024-05-04T11:48:02.000Z</time><ele>1040</ele></trkpt><trkpt lat="45.842397" lon="9.192038"><time>2024-05-04T11:48:03.000Z</time><ele>1040</ele></trkpt><trkpt lat="45.842388" lon="9.192028"><time>2024-05-04T11:48:04.000Z</time><ele>1039.8</ele></trkpt><trkpt lat="45.842379" lon="9.192023"><time>2024-05-04T11:48:05.000Z</time><ele>1039.6</ele></trkpt><trkpt lat="45.842368" lon="9.192017"><time>2024-05-04T11:48:06.000Z</time><ele>1039.6</ele></trkpt><trkpt lat="45.842357" lon="9.192012"><time>2024-05-04T11:48:07.000Z</time><ele>1039.4</ele></trkpt><trkpt lat="45.842348" lon="9.192005"><time>2024-05-04T11:48:08.000Z</time><ele>1039.2</ele></trkpt><trkpt lat="45.842338" lon="9.191999"><time>2024-05-04T11:48:09.000Z</time><ele>1039.2</ele></trkpt><trkpt lat="45.84233" lon="9.191993"><time>2024-05-04T11:48:10.000Z</time><ele>1039</ele></trkpt><trkpt lat="45.842319" lon="9.191986"><time>2024-05-04T11:48:11.000Z</time><ele>1038.8</ele></trkpt><trkpt lat="45.842311" lon="9.191974"><time>2024-05-04T11:48:12.000Z</time><ele>1038.8</ele></trkpt><trkpt lat="45.842303" lon="9.191959"><time>2024-05-04T11:48:13.000Z</time><ele>1038.6</ele></trkpt><trkpt lat="45.842295" lon="9.191943"><time>2024-05-04T11:48:14.000Z</time><ele>1038.6</ele></trkpt><trkpt lat="45.842284" lon="9.191934"><time>2024-05-04T11:48:15.000Z</time><ele>1038.2</ele></trkpt><trkpt lat="45.842272" lon="9.191931"><time>2024-05-04T11:48:16.000Z</time><ele>1038.2</ele></trkpt><trkpt lat="45.842263" lon="9.191929"><time>2024-05-04T11:48:17.000Z</time><ele>1038</ele></trkpt><trkpt lat="45.842251" lon="9.19192"><time>2024-05-04T11:48:18.000Z</time><ele>1038</ele></trkpt><trkpt lat="45.842243" lon="9.191911"><time>2024-05-04T11:48:19.000Z</time><ele>1037.8</ele></trkpt><trkpt lat="45.842232" lon="9.191903"><time>2024-05-04T11:48:20.000Z</time><ele>1037.6</ele></trkpt><trkpt lat="45.842226" lon="9.1919"><time>2024-05-04T11:48:21.000Z</time><ele>1037.4</ele></trkpt><trkpt lat="45.842217" lon="9.191905"><time>2024-05-04T11:48:22.000Z</time><ele>1037.2</ele></trkpt><trkpt lat="45.842206" lon="9.191907"><time>2024-05-04T11:48:23.000Z</time><ele>1037</ele></trkpt><trkpt lat="45.842197" lon="9.191906"><time>2024-05-04T11:48:24.000Z</time><ele>1037</ele></trkpt><trkpt lat="45.842184" lon="9.191899"><time>2024-05-04T11:48:25.000Z</time><ele>1036.8</ele></trkpt><trkpt lat="45.842171" lon="9.191891"><time>2024-05-04T11:48:26.000Z</time><ele>1036.6</ele></trkpt><trkpt lat="45.84216" lon="9.191882"><time>2024-05-04T11:48:27.000Z</time><ele>1036.6</ele></trkpt><trkpt lat="45.84215" lon="9.191877"><time>2024-05-04T11:48:28.000Z</time><ele>1036.4</ele></trkpt><trkpt lat="45.842138" lon="9.191874"><time>2024-05-04T11:48:29.000Z</time><ele>1036.2</ele></trkpt><trkpt lat="45.842128" lon="9.191873"><time>2024-05-04T11:48:30.000Z</time><ele>1036.2</ele></trkpt><trkpt lat="45.842116" lon="9.191867"><time>2024-05-04T11:48:31.000Z</time><ele>1035.8</ele></trkpt><trkpt lat="45.842103" lon="9.191854"><time>2024-05-04T11:48:32.000Z</time><ele>1035.6</ele></trkpt><trkpt lat="45.842095" lon="9.191844"><time>2024-05-04T11:48:33.000Z</time><ele>1035.4</ele></trkpt><trkpt lat="45.842081" lon="9.191839"><time>2024-05-04T11:48:34.000Z</time><ele>1035.4</ele></trkpt><trkpt lat="45.842071" lon="9.191833"><time>2024-05-04T11:48:35.000Z</time><ele>1035.2</ele></trkpt><trkpt lat="45.842058" lon="9.191824"><time>2024-05-04T11:48:36.000Z</time><ele>1035.2</ele></trkpt><trkpt lat="45.842048" lon="9.191815"><time>2024-05-04T11:48:37.000Z</time><ele>1035</ele></trkpt><trkpt lat="45.842039" lon="9.191803"><time>2024-05-04T11:48:38.000Z</time><ele>1035</ele></trkpt><trkpt lat="45.842029" lon="9.191799"><time>2024-05-04T11:48:39.000Z</time><ele>1035</ele></trkpt><trkpt lat="45.842014" lon="9.191797"><time>2024-05-04T11:48:40.000Z</time><ele>1034.8</ele></trkpt><trkpt lat="45.842003" lon="9.191784"><time>2024-05-04T11:48:41.000Z</time><ele>1034.6</ele></trkpt><trkpt lat="45.841995" lon="9.19177"><time>2024-05-04T11:48:42.000Z</time><ele>1034.4</ele></trkpt><trkpt lat="45.841985" lon="9.191758"><time>2024-05-04T11:48:43.000Z</time><ele>1034.4</ele></trkpt><trkpt lat="45.841976" lon="9.191755"><time>2024-05-04T11:48:44.000Z</time><ele>1034.2</ele></trkpt><trkpt lat="45.841965" lon="9.19175"><time>2024-05-04T11:48:45.000Z</time><ele>1034.2</ele></trkpt><trkpt lat="45.841956" lon="9.191742"><time>2024-05-04T11:48:46.000Z</time><ele>1034.2</ele></trkpt><trkpt lat="45.841944" lon="9.191732"><time>2024-05-04T11:48:47.000Z</time><ele>1034</ele></trkpt><trkpt lat="45.841931" lon="9.191728"><time>2024-05-04T11:48:48.000Z</time><ele>1033.8</ele></trkpt><trkpt lat="45.841918" lon="9.191722"><time>2024-05-04T11:48:49.000Z</time><ele>1033.6</ele></trkpt><trkpt lat="45.841906" lon="9.191713"><time>2024-05-04T11:48:50.000Z</time><ele>1033.4</ele></trkpt><trkpt lat="45.841894" lon="9.191707"><time>2024-05-04T11:48:51.000Z</time><ele>1033.4</ele></trkpt><trkpt lat="45.841884" lon="9.191702"><time>2024-05-04T11:48:52.000Z</time><ele>1033.2</ele></trkpt><trkpt lat="45.841873" lon="9.191692"><time>2024-05-04T11:48:53.000Z</time><ele>1033</ele></trkpt><trkpt lat="45.841862" lon="9.19168"><time>2024-05-04T11:48:54.000Z</time><ele>1033</ele></trkpt><trkpt lat="45.841851" lon="9.19167"><time>2024-05-04T11:48:55.000Z</time><ele>1032.8</ele></trkpt><trkpt lat="45.841841" lon="9.191659"><time>2024-05-04T11:48:56.000Z</time><ele>1032.8</ele></trkpt><trkpt lat="45.84183" lon="9.191647"><time>2024-05-04T11:48:57.000Z</time><ele>1032.8</ele></trkpt><trkpt lat="45.841822" lon="9.191628"><time>2024-05-04T11:48:58.000Z</time><ele>1032.6</ele></trkpt><trkpt lat="45.841819" lon="9.191614"><time>2024-05-04T11:48:59.000Z</time><ele>1032.4</ele></trkpt><trkpt lat="45.841814" lon="9.191603"><time>2024-05-04T11:49:00.000Z</time><ele>1032.2</ele></trkpt><trkpt lat="45.841807" lon="9.191598"><time>2024-05-04T11:49:01.000Z</time><ele>1032.2</ele></trkpt><trkpt lat="45.841802" lon="9.191597"><time>2024-05-04T11:49:02.000Z</time><ele>1032</ele></trkpt><trkpt lat="45.841801" lon="9.191592"><time>2024-05-04T11:49:03.000Z</time><ele>1032</ele></trkpt><trkpt lat="45.841802" lon="9.19159"><time>2024-05-04T11:49:04.000Z</time><ele>1031.8</ele></trkpt><trkpt lat="45.841783" lon="9.191587"><time>2024-05-04T11:49:05.000Z</time><ele>1031.8</ele></trkpt><trkpt lat="45.841763" lon="9.19158"><time>2024-05-04T11:49:06.000Z</time><ele>1031.8</ele></trkpt><trkpt lat="45.841758" lon="9.191577"><time>2024-05-04T11:49:07.000Z</time><ele>1031.6</ele></trkpt><trkpt lat="45.841745" lon="9.191568"><time>2024-05-04T11:49:08.000Z</time><ele>1031.6</ele></trkpt><trkpt lat="45.841741" lon="9.191565"><time>2024-05-04T11:49:09.000Z</time><ele>1031.6</ele></trkpt><trkpt lat="45.841739" lon="9.191563"><time>2024-05-04T11:49:10.000Z</time><ele>1031.6</ele></trkpt><trkpt lat="45.841727" lon="9.191556"><time>2024-05-04T11:49:11.000Z</time><ele>1031.6</ele></trkpt><trkpt lat="45.841718" lon="9.191555"><time>2024-05-04T11:49:12.000Z</time><ele>1031.6</ele></trkpt><trkpt lat="45.841708" lon="9.191552"><time>2024-05-04T11:49:13.000Z</time><ele>1031.6</ele></trkpt><trkpt lat="45.8417" lon="9.19155"><time>2024-05-04T11:49:14.000Z</time><ele>1031.6</ele></trkpt><trkpt lat="45.84169" lon="9.191548"><time>2024-05-04T11:49:15.000Z</time><ele>1031.6</ele></trkpt><trkpt lat="45.841679" lon="9.191545"><time>2024-05-04T11:49:16.000Z</time><ele>1031.4</ele></trkpt><trkpt lat="45.841668" lon="9.191545"><time>2024-05-04T11:49:17.000Z</time><ele>1031.4</ele></trkpt><trkpt lat="45.841656" lon="9.191548"><time>2024-05-04T11:49:18.000Z</time><ele>1031.4</ele></trkpt><trkpt lat="45.841645" lon="9.191546"><time>2024-05-04T11:49:19.000Z</time><ele>1031.4</ele></trkpt><trkpt lat="45.841632" lon="9.191542"><time>2024-05-04T11:49:20.000Z</time><ele>1031.2</ele></trkpt><trkpt lat="45.841622" lon="9.191536"><time>2024-05-04T11:49:21.000Z</time><ele>1031.2</ele></trkpt><trkpt lat="45.841618" lon="9.191536"><time>2024-05-04T11:49:22.000Z</time><ele>1031.2</ele></trkpt><trkpt lat="45.841605" lon="9.191525"><time>2024-05-04T11:49:23.000Z</time><ele>1031.2</ele></trkpt><trkpt lat="45.841594" lon="9.191524"><time>2024-05-04T11:49:24.000Z</time><ele>1031</ele></trkpt><trkpt lat="45.841588" lon="9.191524"><time>2024-05-04T11:49:25.000Z</time><ele>1031</ele></trkpt><trkpt lat="45.841586" lon="9.191526"><time>2024-05-04T11:49:26.000Z</time><ele>1030.8</ele></trkpt><trkpt lat="45.841585" lon="9.191525"><time>2024-05-04T11:49:27.000Z</time><ele>1030.8</ele></trkpt><trkpt lat="45.841586" lon="9.19152"><time>2024-05-04T11:49:28.000Z</time><ele>1030.8</ele></trkpt><trkpt lat="45.84159" lon="9.191522"><time>2024-05-04T11:49:29.000Z</time><ele>1030.8</ele></trkpt><trkpt lat="45.841592" lon="9.191526"><time>2024-05-04T11:49:30.000Z</time><ele>1030.8</ele></trkpt><trkpt lat="45.841595" lon="9.191529"><time>2024-05-04T11:49:31.000Z</time><ele>1030.8</ele></trkpt><trkpt lat="45.841597" lon="9.191532"><time>2024-05-04T11:49:32.000Z</time><ele>1030.8</ele></trkpt><trkpt lat="45.841599" lon="9.191533"><time>2024-05-04T11:49:33.000Z</time><ele>1030.8</ele></trkpt><trkpt lat="45.8416" lon="9.191534"><time>2024-05-04T11:49:34.000Z</time><ele>1030.8</ele></trkpt><trkpt lat="45.841602" lon="9.191533"><time>2024-05-04T11:49:35.000Z</time><ele>1031</ele></trkpt><trkpt lat="45.841602" lon="9.191531"><time>2024-05-04T11:49:36.000Z</time><ele>1031</ele></trkpt><trkpt lat="45.841599" lon="9.191533"><time>2024-05-04T11:49:37.000Z</time><ele>1030.8</ele></trkpt><trkpt lat="45.841596" lon="9.191538"><time>2024-05-04T11:49:38.000Z</time><ele>1030.8</ele></trkpt><trkpt lat="45.841595" lon="9.19154"><time>2024-05-04T11:49:39.000Z</time><ele>1030.8</ele></trkpt><trkpt lat="45.841593" lon="9.19154"><time>2024-05-04T11:49:40.000Z</time><ele>1030.8</ele></trkpt><trkpt lat="45.841593" lon="9.191534"><time>2024-05-04T11:49:41.000Z</time><ele>1030.8</ele></trkpt><trkpt lat="45.841592" lon="9.191532"><time>2024-05-04T11:49:42.000Z</time><ele>1030.8</ele></trkpt><trkpt lat="45.841586" lon="9.191535"><time>2024-05-04T11:49:43.000Z</time><ele>1030.8</ele></trkpt><trkpt lat="45.841581" lon="9.191531"><time>2024-05-04T11:49:44.000Z</time><ele>1031</ele></trkpt><trkpt lat="45.841577" lon="9.191524"><time>2024-05-04T11:49:45.000Z</time><ele>1031</ele></trkpt><trkpt lat="45.841566" lon="9.191503"><time>2024-05-04T11:49:46.000Z</time><ele>1031</ele></trkpt><trkpt lat="45.841556" lon="9.191486"><time>2024-05-04T11:49:47.000Z</time><ele>1031</ele></trkpt><trkpt lat="45.84155" lon="9.191471"><time>2024-05-04T11:49:48.000Z</time><ele>1031</ele></trkpt><trkpt lat="45.841539" lon="9.191462"><time>2024-05-04T11:49:49.000Z</time><ele>1031</ele></trkpt><trkpt lat="45.841532" lon="9.191457"><time>2024-05-04T11:49:50.000Z</time><ele>1031</ele></trkpt><trkpt lat="45.841521" lon="9.191453"><time>2024-05-04T11:49:51.000Z</time><ele>1031</ele></trkpt><trkpt lat="45.841509" lon="9.191445"><time>2024-05-04T11:49:52.000Z</time><ele>1031</ele></trkpt><trkpt lat="45.841499" lon="9.191434"><time>2024-05-04T11:49:53.000Z</time><ele>1030.8</ele></trkpt><trkpt lat="45.841491" lon="9.191428"><time>2024-05-04T11:49:54.000Z</time><ele>1030.6</ele></trkpt><trkpt lat="45.841485" lon="9.191425"><time>2024-05-04T11:49:55.000Z</time><ele>1030.6</ele></trkpt><trkpt lat="45.841473" lon="9.191424"><time>2024-05-04T11:49:56.000Z</time><ele>1030.6</ele></trkpt><trkpt lat="45.841458" lon="9.19142"><time>2024-05-04T11:49:57.000Z</time><ele>1030.6</ele></trkpt><trkpt lat="45.841445" lon="9.191416"><time>2024-05-04T11:49:58.000Z</time><ele>1030.6</ele></trkpt><trkpt lat="45.841429" lon="9.191406"><time>2024-05-04T11:49:59.000Z</time><ele>1030.6</ele></trkpt><trkpt lat="45.84142" lon="9.191404"><time>2024-05-04T11:50:00.000Z</time><ele>1030.6</ele></trkpt><trkpt lat="45.841409" lon="9.191404"><time>2024-05-04T11:50:01.000Z</time><ele>1030.4</ele></trkpt><trkpt lat="45.841401" lon="9.191402"><time>2024-05-04T11:50:02.000Z</time><ele>1030.4</ele></trkpt><trkpt lat="45.841393" lon="9.191407"><time>2024-05-04T11:50:03.000Z</time><ele>1030.2</ele></trkpt><trkpt lat="45.841392" lon="9.191409"><time>2024-05-04T11:50:04.000Z</time><ele>1030</ele></trkpt><trkpt lat="45.841387" lon="9.191414"><time>2024-05-04T11:50:05.000Z</time><ele>1030</ele></trkpt><trkpt lat="45.841383" lon="9.191417"><time>2024-05-04T11:50:06.000Z</time><ele>1030</ele></trkpt><trkpt lat="45.841383" lon="9.191416"><time>2024-05-04T11:50:07.000Z</time><ele>1029.8</ele></trkpt><trkpt lat="45.841383" lon="9.191414"><time>2024-05-04T11:50:08.000Z</time><ele>1029.8</ele></trkpt><trkpt lat="45.841371" lon="9.191409"><time>2024-05-04T11:50:09.000Z</time><ele>1029.6</ele></trkpt><trkpt lat="45.841363" lon="9.191405"><time>2024-05-04T11:50:10.000Z</time><ele>1029.6</ele></trkpt><trkpt lat="45.841351" lon="9.191404"><time>2024-05-04T11:50:11.000Z</time><ele>1029.6</ele></trkpt><trkpt lat="45.84134" lon="9.191401"><time>2024-05-04T11:50:12.000Z</time><ele>1029.6</ele></trkpt><trkpt lat="45.841329" lon="9.191396"><time>2024-05-04T11:50:13.000Z</time><ele>1029.4</ele></trkpt><trkpt lat="45.84132" lon="9.191392"><time>2024-05-04T11:50:14.000Z</time><ele>1029.2</ele></trkpt><trkpt lat="45.84131" lon="9.19139"><time>2024-05-04T11:50:15.000Z</time><ele>1029</ele></trkpt><trkpt lat="45.841301" lon="9.191389"><time>2024-05-04T11:50:16.000Z</time><ele>1028.8</ele></trkpt><trkpt lat="45.841292" lon="9.191389"><time>2024-05-04T11:50:17.000Z</time><ele>1028.6</ele></trkpt><trkpt lat="45.841282" lon="9.191385"><time>2024-05-04T11:50:18.000Z</time><ele>1028.2</ele></trkpt><trkpt lat="45.841275" lon="9.191377"><time>2024-05-04T11:50:19.000Z</time><ele>1027.8</ele></trkpt><trkpt lat="45.841265" lon="9.191367"><time>2024-05-04T11:50:20.000Z</time><ele>1027.6</ele></trkpt><trkpt lat="45.841253" lon="9.191357"><time>2024-05-04T11:50:21.000Z</time><ele>1027.4</ele></trkpt><trkpt lat="45.841244" lon="9.191346"><time>2024-05-04T11:50:22.000Z</time><ele>1027.2</ele></trkpt><trkpt lat="45.841237" lon="9.191332"><time>2024-05-04T11:50:23.000Z</time><ele>1027</ele></trkpt><trkpt lat="45.841229" lon="9.191324"><time>2024-05-04T11:50:24.000Z</time><ele>1026.8</ele></trkpt><trkpt lat="45.841224" lon="9.191314"><time>2024-05-04T11:50:25.000Z</time><ele>1026.6</ele></trkpt><trkpt lat="45.841219" lon="9.191302"><time>2024-05-04T11:50:26.000Z</time><ele>1026.4</ele></trkpt><trkpt lat="45.841213" lon="9.191289"><time>2024-05-04T11:50:27.000Z</time><ele>1026</ele></trkpt><trkpt lat="45.841206" lon="9.191276"><time>2024-05-04T11:50:28.000Z</time><ele>1025.8</ele></trkpt><trkpt lat="45.841199" lon="9.191266"><time>2024-05-04T11:50:29.000Z</time><ele>1025.6</ele></trkpt><trkpt lat="45.841193" lon="9.191259"><time>2024-05-04T11:50:30.000Z</time><ele>1025.4</ele></trkpt><trkpt lat="45.841184" lon="9.191252"><time>2024-05-04T11:50:31.000Z</time><ele>1025.2</ele></trkpt><trkpt lat="45.841177" lon="9.191245"><time>2024-05-04T11:50:32.000Z</time><ele>1025</ele></trkpt><trkpt lat="45.841172" lon="9.191236"><time>2024-05-04T11:50:33.000Z</time><ele>1024.8</ele></trkpt><trkpt lat="45.84117" lon="9.19122"><time>2024-05-04T11:50:34.000Z</time><ele>1024.8</ele></trkpt><trkpt lat="45.841166" lon="9.191207"><time>2024-05-04T11:50:35.000Z</time><ele>1024.6</ele></trkpt><trkpt lat="45.841161" lon="9.191197"><time>2024-05-04T11:50:36.000Z</time><ele>1024.4</ele></trkpt><trkpt lat="45.841155" lon="9.191184"><time>2024-05-04T11:50:37.000Z</time><ele>1024.2</ele></trkpt><trkpt lat="45.841145" lon="9.19117"><time>2024-05-04T11:50:38.000Z</time><ele>1024</ele></trkpt><trkpt lat="45.841136" lon="9.191159"><time>2024-05-04T11:50:39.000Z</time><ele>1023.8</ele></trkpt><trkpt lat="45.841128" lon="9.191148"><time>2024-05-04T11:50:40.000Z</time><ele>1023.6</ele></trkpt><trkpt lat="45.841123" lon="9.19114"><time>2024-05-04T11:50:41.000Z</time><ele>1023.4</ele></trkpt><trkpt lat="45.841119" lon="9.191127"><time>2024-05-04T11:50:42.000Z</time><ele>1023.2</ele></trkpt><trkpt lat="45.841114" lon="9.191117"><time>2024-05-04T11:50:43.000Z</time><ele>1023</ele></trkpt><trkpt lat="45.841108" lon="9.191106"><time>2024-05-04T11:50:44.000Z</time><ele>1022.8</ele></trkpt><trkpt lat="45.841104" lon="9.191093"><time>2024-05-04T11:50:45.000Z</time><ele>1022.6</ele></trkpt><trkpt lat="45.841101" lon="9.191081"><time>2024-05-04T11:50:46.000Z</time><ele>1022.4</ele></trkpt><trkpt lat="45.841098" lon="9.191069"><time>2024-05-04T11:50:47.000Z</time><ele>1022.2</ele></trkpt><trkpt lat="45.841093" lon="9.19106"><time>2024-05-04T11:50:48.000Z</time><ele>1022</ele></trkpt><trkpt lat="45.841087" lon="9.191049"><time>2024-05-04T11:50:49.000Z</time><ele>1021.8</ele></trkpt><trkpt lat="45.841083" lon="9.191037"><time>2024-05-04T11:50:50.000Z</time><ele>1021.6</ele></trkpt><trkpt lat="45.841082" lon="9.19103"><time>2024-05-04T11:50:51.000Z</time><ele>1021.4</ele></trkpt><trkpt lat="45.841079" lon="9.191025"><time>2024-05-04T11:50:52.000Z</time><ele>1021.2</ele></trkpt><trkpt lat="45.841074" lon="9.191014"><time>2024-05-04T11:50:53.000Z</time><ele>1021</ele></trkpt><trkpt lat="45.841066" lon="9.191004"><time>2024-05-04T11:50:54.000Z</time><ele>1020.8</ele></trkpt><trkpt lat="45.84106" lon="9.190996"><time>2024-05-04T11:50:55.000Z</time><ele>1020.6</ele></trkpt><trkpt lat="45.841055" lon="9.190984"><time>2024-05-04T11:50:56.000Z</time><ele>1020.4</ele></trkpt><trkpt lat="45.841049" lon="9.190969"><time>2024-05-04T11:50:57.000Z</time><ele>1020.2</ele></trkpt><trkpt lat="45.841045" lon="9.190955"><time>2024-05-04T11:50:58.000Z</time><ele>1020</ele></trkpt><trkpt lat="45.841042" lon="9.190948"><time>2024-05-04T11:50:59.000Z</time><ele>1019.8</ele></trkpt><trkpt lat="45.841039" lon="9.190941"><time>2024-05-04T11:51:00.000Z</time><ele>1019.6</ele></trkpt><trkpt lat="45.841038" lon="9.190931"><time>2024-05-04T11:51:01.000Z</time><ele>1019.2</ele></trkpt><trkpt lat="45.841037" lon="9.190921"><time>2024-05-04T11:51:02.000Z</time><ele>1019</ele></trkpt><trkpt lat="45.841035" lon="9.190911"><time>2024-05-04T11:51:03.000Z</time><ele>1018.8</ele></trkpt><trkpt lat="45.841034" lon="9.190902"><time>2024-05-04T11:51:04.000Z</time><ele>1018.6</ele></trkpt><trkpt lat="45.841032" lon="9.190891"><time>2024-05-04T11:51:05.000Z</time><ele>1018.4</ele></trkpt><trkpt lat="45.841029" lon="9.190875"><time>2024-05-04T11:51:06.000Z</time><ele>1018.2</ele></trkpt><trkpt lat="45.841025" lon="9.190853"><time>2024-05-04T11:51:07.000Z</time><ele>1018</ele></trkpt><trkpt lat="45.841024" lon="9.190839"><time>2024-05-04T11:51:08.000Z</time><ele>1017.8</ele></trkpt><trkpt lat="45.841018" lon="9.190825"><time>2024-05-04T11:51:09.000Z</time><ele>1017.6</ele></trkpt><trkpt lat="45.841013" lon="9.190811"><time>2024-05-04T11:51:10.000Z</time><ele>1017.6</ele></trkpt><trkpt lat="45.841008" lon="9.190798"><time>2024-05-04T11:51:11.000Z</time><ele>1017.4</ele></trkpt><trkpt lat="45.841007" lon="9.190787"><time>2024-05-04T11:51:12.000Z</time><ele>1017.2</ele></trkpt><trkpt lat="45.841006" lon="9.190774"><time>2024-05-04T11:51:13.000Z</time><ele>1017</ele></trkpt><trkpt lat="45.841001" lon="9.190764"><time>2024-05-04T11:51:14.000Z</time><ele>1017</ele></trkpt><trkpt lat="45.840991" lon="9.190757"><time>2024-05-04T11:51:15.000Z</time><ele>1016.8</ele></trkpt><trkpt lat="45.840984" lon="9.190752"><time>2024-05-04T11:51:16.000Z</time><ele>1016.6</ele></trkpt><trkpt lat="45.840978" lon="9.190753"><time>2024-05-04T11:51:17.000Z</time><ele>1016.4</ele></trkpt><trkpt lat="45.840976" lon="9.190744"><time>2024-05-04T11:51:18.000Z</time><ele>1016.4</ele></trkpt><trkpt lat="45.840973" lon="9.190725"><time>2024-05-04T11:51:19.000Z</time><ele>1016.2</ele></trkpt><trkpt lat="45.840968" lon="9.190713"><time>2024-05-04T11:51:20.000Z</time><ele>1015.8</ele></trkpt><trkpt lat="45.840963" lon="9.190708"><time>2024-05-04T11:51:21.000Z</time><ele>1015.6</ele></trkpt><trkpt lat="45.840956" lon="9.190695"><time>2024-05-04T11:51:22.000Z</time><ele>1015.6</ele></trkpt><trkpt lat="45.840948" lon="9.190687"><time>2024-05-04T11:51:23.000Z</time><ele>1015.4</ele></trkpt><trkpt lat="45.840944" lon="9.190683"><time>2024-05-04T11:51:24.000Z</time><ele>1015.4</ele></trkpt><trkpt lat="45.840943" lon="9.190681"><time>2024-05-04T11:51:25.000Z</time><ele>1015</ele></trkpt><trkpt lat="45.840944" lon="9.190678"><time>2024-05-04T11:51:26.000Z</time><ele>1014.8</ele></trkpt><trkpt lat="45.840946" lon="9.190676"><time>2024-05-04T11:51:27.000Z</time><ele>1014.8</ele></trkpt><trkpt lat="45.840946" lon="9.190675"><time>2024-05-04T11:51:28.000Z</time><ele>1014.8</ele></trkpt><trkpt lat="45.840942" lon="9.190671"><time>2024-05-04T11:51:29.000Z</time><ele>1014.6</ele></trkpt><trkpt lat="45.840937" lon="9.190663"><time>2024-05-04T11:51:30.000Z</time><ele>1014.6</ele></trkpt><trkpt lat="45.840927" lon="9.190647"><time>2024-05-04T11:51:31.000Z</time><ele>1014.6</ele></trkpt><trkpt lat="45.840914" lon="9.190634"><time>2024-05-04T11:51:32.000Z</time><ele>1014.4</ele></trkpt><trkpt lat="45.840906" lon="9.190622"><time>2024-05-04T11:51:33.000Z</time><ele>1014.2</ele></trkpt><trkpt lat="45.840897" lon="9.190609"><time>2024-05-04T11:51:34.000Z</time><ele>1014.2</ele></trkpt><trkpt lat="45.840889" lon="9.190594"><time>2024-05-04T11:51:35.000Z</time><ele>1014</ele></trkpt><trkpt lat="45.840882" lon="9.190581"><time>2024-05-04T11:51:36.000Z</time><ele>1013.8</ele></trkpt><trkpt lat="45.840874" lon="9.190568"><time>2024-05-04T11:51:37.000Z</time><ele>1013.8</ele></trkpt><trkpt lat="45.840865" lon="9.190557"><time>2024-05-04T11:51:38.000Z</time><ele>1013.4</ele></trkpt><trkpt lat="45.840857" lon="9.190549"><time>2024-05-04T11:51:39.000Z</time><ele>1013.4</ele></trkpt><trkpt lat="45.840846" lon="9.190542"><time>2024-05-04T11:51:40.000Z</time><ele>1013.2</ele></trkpt><trkpt lat="45.840836" lon="9.19053"><time>2024-05-04T11:51:41.000Z</time><ele>1013.2</ele></trkpt><trkpt lat="45.840826" lon="9.190516"><time>2024-05-04T11:51:42.000Z</time><ele>1013</ele></trkpt><trkpt lat="45.840816" lon="9.190497"><time>2024-05-04T11:51:43.000Z</time><ele>1012.8</ele></trkpt><trkpt lat="45.840808" lon="9.19048"><time>2024-05-04T11:51:44.000Z</time><ele>1012.8</ele></trkpt><trkpt lat="45.8408" lon="9.190464"><time>2024-05-04T11:51:45.000Z</time><ele>1012.6</ele></trkpt><trkpt lat="45.840791" lon="9.190452"><time>2024-05-04T11:51:46.000Z</time><ele>1012.6</ele></trkpt><trkpt lat="45.840776" lon="9.190444"><time>2024-05-04T11:51:47.000Z</time><ele>1012.6</ele></trkpt><trkpt lat="45.84076" lon="9.190428"><time>2024-05-04T11:51:48.000Z</time><ele>1012.6</ele></trkpt><trkpt lat="45.840749" lon="9.19041"><time>2024-05-04T11:51:49.000Z</time><ele>1012.4</ele></trkpt><trkpt lat="45.84074" lon="9.190394"><time>2024-05-04T11:51:50.000Z</time><ele>1012.2</ele></trkpt><trkpt lat="45.840731" lon="9.190382"><time>2024-05-04T11:51:51.000Z</time><ele>1012.2</ele></trkpt><trkpt lat="45.840721" lon="9.190371"><time>2024-05-04T11:51:52.000Z</time><ele>1012</ele></trkpt><trkpt lat="45.840715" lon="9.190361"><time>2024-05-04T11:51:53.000Z</time><ele>1012</ele></trkpt><trkpt lat="45.840703" lon="9.190355"><time>2024-05-04T11:51:54.000Z</time><ele>1011.8</ele></trkpt><trkpt lat="45.840699" lon="9.190351"><time>2024-05-04T11:51:55.000Z</time><ele>1011.8</ele></trkpt><trkpt lat="45.840693" lon="9.190347"><time>2024-05-04T11:51:56.000Z</time><ele>1011.8</ele></trkpt><trkpt lat="45.840686" lon="9.190335"><time>2024-05-04T11:51:57.000Z</time><ele>1011.8</ele></trkpt><trkpt lat="45.840678" lon="9.190323"><time>2024-05-04T11:51:58.000Z</time><ele>1011.6</ele></trkpt><trkpt lat="45.84067" lon="9.190313"><time>2024-05-04T11:51:59.000Z</time><ele>1011.6</ele></trkpt><trkpt lat="45.840664" lon="9.190304"><time>2024-05-04T11:52:00.000Z</time><ele>1011.4</ele></trkpt><trkpt lat="45.840661" lon="9.190288"><time>2024-05-04T11:52:01.000Z</time><ele>1011.4</ele></trkpt><trkpt lat="45.840659" lon="9.190275"><time>2024-05-04T11:52:02.000Z</time><ele>1011.4</ele></trkpt><trkpt lat="45.840656" lon="9.190264"><time>2024-05-04T11:52:03.000Z</time><ele>1011.4</ele></trkpt><trkpt lat="45.840648" lon="9.19025"><time>2024-05-04T11:52:04.000Z</time><ele>1011.2</ele></trkpt><trkpt lat="45.84064" lon="9.190233"><time>2024-05-04T11:52:05.000Z</time><ele>1011.2</ele></trkpt><trkpt lat="45.840629" lon="9.190218"><time>2024-05-04T11:52:06.000Z</time><ele>1011.2</ele></trkpt><trkpt lat="45.840618" lon="9.190204"><time>2024-05-04T11:52:07.000Z</time><ele>1011</ele></trkpt><trkpt lat="45.84061" lon="9.190189"><time>2024-05-04T11:52:08.000Z</time><ele>1010.8</ele></trkpt><trkpt lat="45.840604" lon="9.190179"><time>2024-05-04T11:52:09.000Z</time><ele>1010.8</ele></trkpt><trkpt lat="45.840602" lon="9.190164"><time>2024-05-04T11:52:10.000Z</time><ele>1010.8</ele></trkpt><trkpt lat="45.840598" lon="9.190145"><time>2024-05-04T11:52:11.000Z</time><ele>1010.8</ele></trkpt><trkpt lat="45.840593" lon="9.19013"><time>2024-05-04T11:52:12.000Z</time><ele>1010.6</ele></trkpt><trkpt lat="45.840589" lon="9.190118"><time>2024-05-04T11:52:13.000Z</time><ele>1010.6</ele></trkpt><trkpt lat="45.840585" lon="9.190107"><time>2024-05-04T11:52:14.000Z</time><ele>1010.6</ele></trkpt><trkpt lat="45.84058" lon="9.190095"><time>2024-05-04T11:52:15.000Z</time><ele>1010.6</ele></trkpt><trkpt lat="45.840575" lon="9.19008"><time>2024-05-04T11:52:16.000Z</time><ele>1010.6</ele></trkpt><trkpt lat="45.840572" lon="9.190066"><time>2024-05-04T11:52:17.000Z</time><ele>1010.6</ele></trkpt><trkpt lat="45.840567" lon="9.19005"><time>2024-05-04T11:52:18.000Z</time><ele>1010.6</ele></trkpt><trkpt lat="45.840561" lon="9.190041"><time>2024-05-04T11:52:19.000Z</time><ele>1010.6</ele></trkpt><trkpt lat="45.840555" lon="9.190029"><time>2024-05-04T11:52:20.000Z</time><ele>1010.6</ele></trkpt><trkpt lat="45.840554" lon="9.19002"><time>2024-05-04T11:52:21.000Z</time><ele>1010.4</ele></trkpt><trkpt lat="45.840554" lon="9.190009"><time>2024-05-04T11:52:22.000Z</time><ele>1010.2</ele></trkpt><trkpt lat="45.840551" lon="9.189996"><time>2024-05-04T11:52:23.000Z</time><ele>1010</ele></trkpt><trkpt lat="45.840544" lon="9.189985"><time>2024-05-04T11:52:24.000Z</time><ele>1010</ele></trkpt><trkpt lat="45.840537" lon="9.189973"><time>2024-05-04T11:52:25.000Z</time><ele>1009.6</ele></trkpt><trkpt lat="45.840531" lon="9.189964"><time>2024-05-04T11:52:26.000Z</time><ele>1009.4</ele></trkpt><trkpt lat="45.840525" lon="9.189957"><time>2024-05-04T11:52:27.000Z</time><ele>1009.2</ele></trkpt><trkpt lat="45.840522" lon="9.189945"><time>2024-05-04T11:52:28.000Z</time><ele>1009</ele></trkpt><trkpt lat="45.840518" lon="9.189933"><time>2024-05-04T11:52:29.000Z</time><ele>1008.8</ele></trkpt><trkpt lat="45.840517" lon="9.18992"><time>2024-05-04T11:52:30.000Z</time><ele>1008.4</ele></trkpt><trkpt lat="45.840517" lon="9.189902"><time>2024-05-04T11:52:31.000Z</time><ele>1008.2</ele></trkpt><trkpt lat="45.840515" lon="9.189879"><time>2024-05-04T11:52:32.000Z</time><ele>1008</ele></trkpt><trkpt lat="45.840511" lon="9.189864"><time>2024-05-04T11:52:33.000Z</time><ele>1008</ele></trkpt><trkpt lat="45.840504" lon="9.189844"><time>2024-05-04T11:52:34.000Z</time><ele>1007.8</ele></trkpt><trkpt lat="45.840496" lon="9.18983"><time>2024-05-04T11:52:35.000Z</time><ele>1007.6</ele></trkpt><trkpt lat="45.840487" lon="9.189819"><time>2024-05-04T11:52:36.000Z</time><ele>1007.4</ele></trkpt><trkpt lat="45.840481" lon="9.189807"><time>2024-05-04T11:52:37.000Z</time><ele>1007</ele></trkpt><trkpt lat="45.840473" lon="9.189796"><time>2024-05-04T11:52:38.000Z</time><ele>1006.6</ele></trkpt><trkpt lat="45.840464" lon="9.189784"><time>2024-05-04T11:52:39.000Z</time><ele>1006.4</ele></trkpt><trkpt lat="45.840462" lon="9.189779"><time>2024-05-04T11:52:40.000Z</time><ele>1006.2</ele></trkpt><trkpt lat="45.840458" lon="9.189763"><time>2024-05-04T11:52:41.000Z</time><ele>1006</ele></trkpt><trkpt lat="45.840455" lon="9.189746"><time>2024-05-04T11:52:42.000Z</time><ele>1005.8</ele></trkpt><trkpt lat="45.840448" lon="9.189722"><time>2024-05-04T11:52:43.000Z</time><ele>1005.4</ele></trkpt><trkpt lat="45.840447" lon="9.189694"><time>2024-05-04T11:52:44.000Z</time><ele>1005.4</ele></trkpt><trkpt lat="45.840448" lon="9.189668"><time>2024-05-04T11:52:45.000Z</time><ele>1005.2</ele></trkpt><trkpt lat="45.840448" lon="9.189651"><time>2024-05-04T11:52:46.000Z</time><ele>1005</ele></trkpt><trkpt lat="45.840442" lon="9.189631"><time>2024-05-04T11:52:47.000Z</time><ele>1005</ele></trkpt><trkpt lat="45.840431" lon="9.189611"><time>2024-05-04T11:52:48.000Z</time><ele>1004.8</ele></trkpt><trkpt lat="45.84042" lon="9.189593"><time>2024-05-04T11:52:49.000Z</time><ele>1004.4</ele></trkpt><trkpt lat="45.840411" lon="9.189582"><time>2024-05-04T11:52:50.000Z</time><ele>1004.2</ele></trkpt><trkpt lat="45.840407" lon="9.18958"><time>2024-05-04T11:52:51.000Z</time><ele>1003.8</ele></trkpt><trkpt lat="45.840406" lon="9.189577"><time>2024-05-04T11:52:52.000Z</time><ele>1003.8</ele></trkpt><trkpt lat="45.8404" lon="9.189567"><time>2024-05-04T11:52:53.000Z</time><ele>1003.6</ele></trkpt><trkpt lat="45.840396" lon="9.189562"><time>2024-05-04T11:52:54.000Z</time><ele>1003.6</ele></trkpt><trkpt lat="45.84039" lon="9.189546"><time>2024-05-04T11:52:55.000Z</time><ele>1003.4</ele></trkpt><trkpt lat="45.840385" lon="9.189532"><time>2024-05-04T11:52:56.000Z</time><ele>1003.2</ele></trkpt><trkpt lat="45.840381" lon="9.189525"><time>2024-05-04T11:52:57.000Z</time><ele>1003</ele></trkpt><trkpt lat="45.84038" lon="9.189524"><time>2024-05-04T11:52:58.000Z</time><ele>1003</ele></trkpt><trkpt lat="45.840376" lon="9.189517"><time>2024-05-04T11:52:59.000Z</time><ele>1002.8</ele></trkpt><trkpt lat="45.840371" lon="9.189505"><time>2024-05-04T11:53:00.000Z</time><ele>1002.6</ele></trkpt><trkpt lat="45.840362" lon="9.189488"><time>2024-05-04T11:53:01.000Z</time><ele>1002.4</ele></trkpt><trkpt lat="45.840354" lon="9.189471"><time>2024-05-04T11:53:02.000Z</time><ele>1002.2</ele></trkpt><trkpt lat="45.840342" lon="9.189451"><time>2024-05-04T11:53:03.000Z</time><ele>1002</ele></trkpt><trkpt lat="45.840332" lon="9.189426"><time>2024-05-04T11:53:04.000Z</time><ele>1001.6</ele></trkpt><trkpt lat="45.84032" lon="9.189401"><time>2024-05-04T11:53:05.000Z</time><ele>1001.4</ele></trkpt><trkpt lat="45.840317" lon="9.189384"><time>2024-05-04T11:53:06.000Z</time><ele>1001.4</ele></trkpt><trkpt lat="45.840316" lon="9.189361"><time>2024-05-04T11:53:07.000Z</time><ele>1001.2</ele></trkpt><trkpt lat="45.840313" lon="9.189348"><time>2024-05-04T11:53:08.000Z</time><ele>1001</ele></trkpt><trkpt lat="45.84031" lon="9.189335"><time>2024-05-04T11:53:09.000Z</time><ele>1001</ele></trkpt><trkpt lat="45.84031" lon="9.189321"><time>2024-05-04T11:53:10.000Z</time><ele>1001</ele></trkpt><trkpt lat="45.840309" lon="9.189307"><time>2024-05-04T11:53:11.000Z</time><ele>1000.8</ele></trkpt><trkpt lat="45.840306" lon="9.189299"><time>2024-05-04T11:53:12.000Z</time><ele>1000.6</ele></trkpt><trkpt lat="45.840303" lon="9.189282"><time>2024-05-04T11:53:13.000Z</time><ele>1000.4</ele></trkpt><trkpt lat="45.840297" lon="9.189265"><time>2024-05-04T11:53:14.000Z</time><ele>1000.4</ele></trkpt><trkpt lat="45.840292" lon="9.18925"><time>2024-05-04T11:53:15.000Z</time><ele>1000.2</ele></trkpt><trkpt lat="45.840284" lon="9.189238"><time>2024-05-04T11:53:16.000Z</time><ele>1000.2</ele></trkpt><trkpt lat="45.840275" lon="9.189226"><time>2024-05-04T11:53:17.000Z</time><ele>1000</ele></trkpt><trkpt lat="45.840269" lon="9.189218"><time>2024-05-04T11:53:18.000Z</time><ele>999.8</ele></trkpt><trkpt lat="45.840264" lon="9.189207"><time>2024-05-04T11:53:19.000Z</time><ele>999.8</ele></trkpt><trkpt lat="45.840255" lon="9.18918"><time>2024-05-04T11:53:20.000Z</time><ele>999.8</ele></trkpt><trkpt lat="45.840246" lon="9.189165"><time>2024-05-04T11:53:21.000Z</time><ele>999.8</ele></trkpt><trkpt lat="45.840243" lon="9.189143"><time>2024-05-04T11:53:22.000Z</time><ele>999.6</ele></trkpt><trkpt lat="45.84024" lon="9.189121"><time>2024-05-04T11:53:23.000Z</time><ele>999.4</ele></trkpt><trkpt lat="45.840239" lon="9.189098"><time>2024-05-04T11:53:24.000Z</time><ele>999.4</ele></trkpt><trkpt lat="45.840234" lon="9.189082"><time>2024-05-04T11:53:25.000Z</time><ele>999.2</ele></trkpt><trkpt lat="45.840223" lon="9.189059"><time>2024-05-04T11:53:26.000Z</time><ele>999</ele></trkpt><trkpt lat="45.84021" lon="9.18905"><time>2024-05-04T11:53:27.000Z</time><ele>999</ele></trkpt><trkpt lat="45.840199" lon="9.189034"><time>2024-05-04T11:53:28.000Z</time><ele>998.8</ele></trkpt><trkpt lat="45.840191" lon="9.189018"><time>2024-05-04T11:53:29.000Z</time><ele>998.8</ele></trkpt><trkpt lat="45.840181" lon="9.189007"><time>2024-05-04T11:53:30.000Z</time><ele>998.6</ele></trkpt><trkpt lat="45.840171" lon="9.188987"><time>2024-05-04T11:53:31.000Z</time><ele>998.4</ele></trkpt><trkpt lat="45.840166" lon="9.188964"><time>2024-05-04T11:53:32.000Z</time><ele>998.4</ele></trkpt><trkpt lat="45.840163" lon="9.188946"><time>2024-05-04T11:53:33.000Z</time><ele>998.4</ele></trkpt><trkpt lat="45.840157" lon="9.188929"><time>2024-05-04T11:53:34.000Z</time><ele>998.2</ele></trkpt><trkpt lat="45.840153" lon="9.188911"><time>2024-05-04T11:53:35.000Z</time><ele>998.2</ele></trkpt><trkpt lat="45.840146" lon="9.188895"><time>2024-05-04T11:53:36.000Z</time><ele>998</ele></trkpt><trkpt lat="45.840141" lon="9.188883"><time>2024-05-04T11:53:37.000Z</time><ele>998</ele></trkpt><trkpt lat="45.840137" lon="9.188873"><time>2024-05-04T11:53:38.000Z</time><ele>997.8</ele></trkpt><trkpt lat="45.840133" lon="9.188861"><time>2024-05-04T11:53:39.000Z</time><ele>997.8</ele></trkpt><trkpt lat="45.84013" lon="9.188852"><time>2024-05-04T11:53:40.000Z</time><ele>997.6</ele></trkpt><trkpt lat="45.840121" lon="9.18884"><time>2024-05-04T11:53:41.000Z</time><ele>997.6</ele></trkpt><trkpt lat="45.84011" lon="9.188825"><time>2024-05-04T11:53:42.000Z</time><ele>997.4</ele></trkpt><trkpt lat="45.840104" lon="9.188806"><time>2024-05-04T11:53:43.000Z</time><ele>997.2</ele></trkpt><trkpt lat="45.840097" lon="9.188778"><time>2024-05-04T11:53:44.000Z</time><ele>997</ele></trkpt><trkpt lat="45.840092" lon="9.188759"><time>2024-05-04T11:53:45.000Z</time><ele>997</ele></trkpt><trkpt lat="45.840086" lon="9.188744"><time>2024-05-04T11:53:46.000Z</time><ele>996.8</ele></trkpt><trkpt lat="45.840077" lon="9.188728"><time>2024-05-04T11:53:47.000Z</time><ele>996.8</ele></trkpt><trkpt lat="45.840068" lon="9.188714"><time>2024-05-04T11:53:48.000Z</time><ele>996.6</ele></trkpt><trkpt lat="45.840058" lon="9.188701"><time>2024-05-04T11:53:49.000Z</time><ele>996.6</ele></trkpt><trkpt lat="45.840055" lon="9.188688"><time>2024-05-04T11:53:50.000Z</time><ele>996.6</ele></trkpt><trkpt lat="45.840046" lon="9.188674"><time>2024-05-04T11:53:51.000Z</time><ele>996.6</ele></trkpt><trkpt lat="45.84003" lon="9.188654"><time>2024-05-04T11:53:52.000Z</time><ele>996.6</ele></trkpt><trkpt lat="45.840029" lon="9.188651"><time>2024-05-04T11:53:53.000Z</time><ele>996.4</ele></trkpt><trkpt lat="45.840022" lon="9.188632"><time>2024-05-04T11:53:54.000Z</time><ele>996.4</ele></trkpt><trkpt lat="45.840017" lon="9.188615"><time>2024-05-04T11:53:55.000Z</time><ele>996.2</ele></trkpt><trkpt lat="45.840011" lon="9.188604"><time>2024-05-04T11:53:56.000Z</time><ele>996.2</ele></trkpt><trkpt lat="45.840005" lon="9.188588"><time>2024-05-04T11:53:57.000Z</time><ele>996.2</ele></trkpt><trkpt lat="45.840001" lon="9.188568"><time>2024-05-04T11:53:58.000Z</time><ele>996</ele></trkpt><trkpt lat="45.839996" lon="9.188545"><time>2024-05-04T11:53:59.000Z</time><ele>996</ele></trkpt><trkpt lat="45.839994" lon="9.188518"><time>2024-05-04T11:54:00.000Z</time><ele>995.8</ele></trkpt><trkpt lat="45.839989" lon="9.188503"><time>2024-05-04T11:54:01.000Z</time><ele>995.6</ele></trkpt><trkpt lat="45.839985" lon="9.18849"><time>2024-05-04T11:54:02.000Z</time><ele>995.6</ele></trkpt><trkpt lat="45.839982" lon="9.188473"><time>2024-05-04T11:54:03.000Z</time><ele>995.4</ele></trkpt><trkpt lat="45.839981" lon="9.188452"><time>2024-05-04T11:54:04.000Z</time><ele>995.4</ele></trkpt><trkpt lat="45.839981" lon="9.188433"><time>2024-05-04T11:54:05.000Z</time><ele>995.2</ele></trkpt><trkpt lat="45.839977" lon="9.188417"><time>2024-05-04T11:54:06.000Z</time><ele>995.2</ele></trkpt><trkpt lat="45.839971" lon="9.188404"><time>2024-05-04T11:54:07.000Z</time><ele>995</ele></trkpt><trkpt lat="45.83996" lon="9.188392"><time>2024-05-04T11:54:08.000Z</time><ele>995</ele></trkpt><trkpt lat="45.839947" lon="9.188387"><time>2024-05-04T11:54:09.000Z</time><ele>995</ele></trkpt><trkpt lat="45.839935" lon="9.188387"><time>2024-05-04T11:54:10.000Z</time><ele>994.8</ele></trkpt><trkpt lat="45.839925" lon="9.188386"><time>2024-05-04T11:54:11.000Z</time><ele>994.8</ele></trkpt><trkpt lat="45.839908" lon="9.188382"><time>2024-05-04T11:54:12.000Z</time><ele>994.8</ele></trkpt><trkpt lat="45.839896" lon="9.188375"><time>2024-05-04T11:54:13.000Z</time><ele>994.6</ele></trkpt><trkpt lat="45.839886" lon="9.188369"><time>2024-05-04T11:54:14.000Z</time><ele>994.6</ele></trkpt><trkpt lat="45.83987" lon="9.188364"><time>2024-05-04T11:54:15.000Z</time><ele>994.4</ele></trkpt><trkpt lat="45.839857" lon="9.188363"><time>2024-05-04T11:54:16.000Z</time><ele>994.4</ele></trkpt><trkpt lat="45.839843" lon="9.188364"><time>2024-05-04T11:54:17.000Z</time><ele>994.4</ele></trkpt><trkpt lat="45.839831" lon="9.188362"><time>2024-05-04T11:54:18.000Z</time><ele>994.2</ele></trkpt><trkpt lat="45.839819" lon="9.188362"><time>2024-05-04T11:54:19.000Z</time><ele>994</ele></trkpt><trkpt lat="45.839806" lon="9.188358"><time>2024-05-04T11:54:20.000Z</time><ele>994</ele></trkpt><trkpt lat="45.839792" lon="9.188351"><time>2024-05-04T11:54:21.000Z</time><ele>993.8</ele></trkpt><trkpt lat="45.839784" lon="9.188344"><time>2024-05-04T11:54:22.000Z</time><ele>993.8</ele></trkpt><trkpt lat="45.839777" lon="9.188337"><time>2024-05-04T11:54:23.000Z</time><ele>993.6</ele></trkpt><trkpt lat="45.839769" lon="9.188327"><time>2024-05-04T11:54:24.000Z</time><ele>993.4</ele></trkpt><trkpt lat="45.839762" lon="9.188318"><time>2024-05-04T11:54:25.000Z</time><ele>993.4</ele></trkpt><trkpt lat="45.839747" lon="9.188294"><time>2024-05-04T11:54:26.000Z</time><ele>993.2</ele></trkpt><trkpt lat="45.839732" lon="9.188277"><time>2024-05-04T11:54:27.000Z</time><ele>993.2</ele></trkpt><trkpt lat="45.839722" lon="9.188264"><time>2024-05-04T11:54:28.000Z</time><ele>993.2</ele></trkpt><trkpt lat="45.839709" lon="9.188248"><time>2024-05-04T11:54:29.000Z</time><ele>993</ele></trkpt><trkpt lat="45.839699" lon="9.188237"><time>2024-05-04T11:54:30.000Z</time><ele>993</ele></trkpt><trkpt lat="45.839689" lon="9.188225"><time>2024-05-04T11:54:31.000Z</time><ele>992.8</ele></trkpt><trkpt lat="45.839682" lon="9.188212"><time>2024-05-04T11:54:32.000Z</time><ele>992.8</ele></trkpt><trkpt lat="45.839676" lon="9.188194"><time>2024-05-04T11:54:33.000Z</time><ele>992.8</ele></trkpt><trkpt lat="45.839664" lon="9.18818"><time>2024-05-04T11:54:34.000Z</time><ele>992.6</ele></trkpt><trkpt lat="45.83965" lon="9.18817"><time>2024-05-04T11:54:35.000Z</time><ele>992.6</ele></trkpt><trkpt lat="45.839638" lon="9.188157"><time>2024-05-04T11:54:36.000Z</time><ele>992.6</ele></trkpt><trkpt lat="45.839626" lon="9.188147"><time>2024-05-04T11:54:37.000Z</time><ele>992.4</ele></trkpt><trkpt lat="45.839615" lon="9.188137"><time>2024-05-04T11:54:38.000Z</time><ele>992.4</ele></trkpt><trkpt lat="45.839615" lon="9.188137"><time>2024-05-04T11:54:39.000Z</time><ele>992.2</ele></trkpt><trkpt lat="45.839586" lon="9.188119"><time>2024-05-04T11:54:40.000Z</time><ele>992</ele></trkpt><trkpt lat="45.839575" lon="9.18811"><time>2024-05-04T11:54:41.000Z</time><ele>992</ele></trkpt><trkpt lat="45.839562" lon="9.188097"><time>2024-05-04T11:54:42.000Z</time><ele>992</ele></trkpt><trkpt lat="45.839551" lon="9.18809"><time>2024-05-04T11:54:43.000Z</time><ele>991.8</ele></trkpt><trkpt lat="45.839539" lon="9.188084"><time>2024-05-04T11:54:44.000Z</time><ele>991.6</ele></trkpt><trkpt lat="45.839527" lon="9.188074"><time>2024-05-04T11:54:45.000Z</time><ele>991.4</ele></trkpt><trkpt lat="45.839516" lon="9.188063"><time>2024-05-04T11:54:46.000Z</time><ele>991.4</ele></trkpt><trkpt lat="45.839502" lon="9.188054"><time>2024-05-04T11:54:47.000Z</time><ele>991.2</ele></trkpt><trkpt lat="45.83949" lon="9.188045"><time>2024-05-04T11:54:48.000Z</time><ele>991.2</ele></trkpt><trkpt lat="45.839477" lon="9.188041"><time>2024-05-04T11:54:49.000Z</time><ele>991</ele></trkpt><trkpt lat="45.839456" lon="9.188031"><time>2024-05-04T11:54:50.000Z</time><ele>991</ele></trkpt><trkpt lat="45.839438" lon="9.188027"><time>2024-05-04T11:54:51.000Z</time><ele>990.8</ele></trkpt><trkpt lat="45.839426" lon="9.188031"><time>2024-05-04T11:54:52.000Z</time><ele>990.8</ele></trkpt><trkpt lat="45.83941" lon="9.188034"><time>2024-05-04T11:54:53.000Z</time><ele>990.8</ele></trkpt><trkpt lat="45.839392" lon="9.188036"><time>2024-05-04T11:54:54.000Z</time><ele>990.6</ele></trkpt><trkpt lat="45.839377" lon="9.188037"><time>2024-05-04T11:54:55.000Z</time><ele>990.4</ele></trkpt><trkpt lat="45.839366" lon="9.188048"><time>2024-05-04T11:54:56.000Z</time><ele>990.2</ele></trkpt><trkpt lat="45.839359" lon="9.188052"><time>2024-05-04T11:54:57.000Z</time><ele>990</ele></trkpt><trkpt lat="45.839341" lon="9.188054"><time>2024-05-04T11:54:58.000Z</time><ele>989.8</ele></trkpt><trkpt lat="45.839329" lon="9.188058"><time>2024-05-04T11:54:59.000Z</time><ele>989.8</ele></trkpt><trkpt lat="45.839319" lon="9.188062"><time>2024-05-04T11:55:00.000Z</time><ele>989.8</ele></trkpt><trkpt lat="45.839301" lon="9.188059"><time>2024-05-04T11:55:01.000Z</time><ele>989.6</ele></trkpt><trkpt lat="45.839293" lon="9.188053"><time>2024-05-04T11:55:02.000Z</time><ele>989.6</ele></trkpt><trkpt lat="45.83928" lon="9.188057"><time>2024-05-04T11:55:03.000Z</time><ele>989.4</ele></trkpt><trkpt lat="45.83927" lon="9.188063"><time>2024-05-04T11:55:04.000Z</time><ele>989.4</ele></trkpt><trkpt lat="45.83926" lon="9.188069"><time>2024-05-04T11:55:05.000Z</time><ele>989.4</ele></trkpt><trkpt lat="45.839253" lon="9.188072"><time>2024-05-04T11:55:06.000Z</time><ele>989.4</ele></trkpt><trkpt lat="45.83924" lon="9.188078"><time>2024-05-04T11:55:07.000Z</time><ele>989.2</ele></trkpt><trkpt lat="45.839224" lon="9.188096"><time>2024-05-04T11:55:08.000Z</time><ele>989.2</ele></trkpt><trkpt lat="45.839212" lon="9.188107"><time>2024-05-04T11:55:09.000Z</time><ele>988.8</ele></trkpt><trkpt lat="45.8392" lon="9.188115"><time>2024-05-04T11:55:10.000Z</time><ele>988.6</ele></trkpt><trkpt lat="45.839189" lon="9.188124"><time>2024-05-04T11:55:11.000Z</time><ele>988.4</ele></trkpt><trkpt lat="45.839181" lon="9.188132"><time>2024-05-04T11:55:12.000Z</time><ele>988.4</ele></trkpt><trkpt lat="45.839176" lon="9.188133"><time>2024-05-04T11:55:13.000Z</time><ele>988.4</ele></trkpt><trkpt lat="45.839175" lon="9.188133"><time>2024-05-04T11:55:14.000Z</time><ele>988.4</ele></trkpt><trkpt lat="45.839175" lon="9.188131"><time>2024-05-04T11:55:15.000Z</time><ele>988.2</ele></trkpt><trkpt lat="45.839175" lon="9.188131"><time>2024-05-04T11:55:16.000Z</time><ele>988.2</ele></trkpt><trkpt lat="45.839174" lon="9.18813"><time>2024-05-04T11:55:17.000Z</time><ele>988.2</ele></trkpt><trkpt lat="45.839164" lon="9.188136"><time>2024-05-04T11:55:18.000Z</time><ele>988.2</ele></trkpt><trkpt lat="45.839155" lon="9.18814"><time>2024-05-04T11:55:19.000Z</time><ele>988.4</ele></trkpt><trkpt lat="45.839148" lon="9.188142"><time>2024-05-04T11:55:20.000Z</time><ele>988.2</ele></trkpt><trkpt lat="45.839133" lon="9.18815"><time>2024-05-04T11:55:21.000Z</time><ele>988.2</ele></trkpt><trkpt lat="45.839124" lon="9.188157"><time>2024-05-04T11:55:22.000Z</time><ele>988.2</ele></trkpt><trkpt lat="45.839104" lon="9.188166"><time>2024-05-04T11:55:23.000Z</time><ele>988.2</ele></trkpt><trkpt lat="45.839087" lon="9.188177"><time>2024-05-04T11:55:24.000Z</time><ele>988</ele></trkpt><trkpt lat="45.839075" lon="9.188184"><time>2024-05-04T11:55:25.000Z</time><ele>988</ele></trkpt><trkpt lat="45.839062" lon="9.188189"><time>2024-05-04T11:55:26.000Z</time><ele>987.8</ele></trkpt><trkpt lat="45.83905" lon="9.188197"><time>2024-05-04T11:55:27.000Z</time><ele>987.8</ele></trkpt><trkpt lat="45.839033" lon="9.188202"><time>2024-05-04T11:55:28.000Z</time><ele>987.8</ele></trkpt><trkpt lat="45.839021" lon="9.188209"><time>2024-05-04T11:55:29.000Z</time><ele>987.8</ele></trkpt><trkpt lat="45.839006" lon="9.188224"><time>2024-05-04T11:55:30.000Z</time><ele>987.8</ele></trkpt><trkpt lat="45.838992" lon="9.188239"><time>2024-05-04T11:55:31.000Z</time><ele>987.8</ele></trkpt><trkpt lat="45.83898" lon="9.188249"><time>2024-05-04T11:55:32.000Z</time><ele>987.8</ele></trkpt><trkpt lat="45.838963" lon="9.188257"><time>2024-05-04T11:55:33.000Z</time><ele>987.8</ele></trkpt><trkpt lat="45.838951" lon="9.188261"><time>2024-05-04T11:55:34.000Z</time><ele>987.8</ele></trkpt><trkpt lat="45.838939" lon="9.188264"><time>2024-05-04T11:55:35.000Z</time><ele>987.8</ele></trkpt><trkpt lat="45.838928" lon="9.188268"><time>2024-05-04T11:55:36.000Z</time><ele>987.8</ele></trkpt><trkpt lat="45.838915" lon="9.188272"><time>2024-05-04T11:55:37.000Z</time><ele>987.8</ele></trkpt><trkpt lat="45.838902" lon="9.188275"><time>2024-05-04T11:55:38.000Z</time><ele>987.6</ele></trkpt><trkpt lat="45.83889" lon="9.188283"><time>2024-05-04T11:55:39.000Z</time><ele>987.6</ele></trkpt><trkpt lat="45.838877" lon="9.188287"><time>2024-05-04T11:55:40.000Z</time><ele>987.6</ele></trkpt><trkpt lat="45.838867" lon="9.188294"><time>2024-05-04T11:55:41.000Z</time><ele>987.6</ele></trkpt><trkpt lat="45.838856" lon="9.188297"><time>2024-05-04T11:55:42.000Z</time><ele>987.6</ele></trkpt><trkpt lat="45.838842" lon="9.188296"><time>2024-05-04T11:55:43.000Z</time><ele>987.6</ele></trkpt><trkpt lat="45.83883" lon="9.188309"><time>2024-05-04T11:55:44.000Z</time><ele>987.6</ele></trkpt><trkpt lat="45.838817" lon="9.188314"><time>2024-05-04T11:55:45.000Z</time><ele>987.6</ele></trkpt><trkpt lat="45.838801" lon="9.188327"><time>2024-05-04T11:55:46.000Z</time><ele>987.6</ele></trkpt><trkpt lat="45.838785" lon="9.188332"><time>2024-05-04T11:55:47.000Z</time><ele>987.4</ele></trkpt><trkpt lat="45.838774" lon="9.188333"><time>2024-05-04T11:55:48.000Z</time><ele>987.4</ele></trkpt><trkpt lat="45.838765" lon="9.188335"><time>2024-05-04T11:55:49.000Z</time><ele>987.4</ele></trkpt><trkpt lat="45.838757" lon="9.188337"><time>2024-05-04T11:55:50.000Z</time><ele>987.4</ele></trkpt><trkpt lat="45.838741" lon="9.188345"><time>2024-05-04T11:55:51.000Z</time><ele>987.4</ele></trkpt><trkpt lat="45.838731" lon="9.188345"><time>2024-05-04T11:55:52.000Z</time><ele>987.4</ele></trkpt><trkpt lat="45.838722" lon="9.188347"><time>2024-05-04T11:55:53.000Z</time><ele>987.4</ele></trkpt><trkpt lat="45.838711" lon="9.188351"><time>2024-05-04T11:55:54.000Z</time><ele>987.2</ele></trkpt><trkpt lat="45.838701" lon="9.188354"><time>2024-05-04T11:55:55.000Z</time><ele>987.2</ele></trkpt><trkpt lat="45.838692" lon="9.188362"><time>2024-05-04T11:55:56.000Z</time><ele>987.2</ele></trkpt><trkpt lat="45.838681" lon="9.188366"><time>2024-05-04T11:55:57.000Z</time><ele>987.2</ele></trkpt><trkpt lat="45.838675" lon="9.188369"><time>2024-05-04T11:55:58.000Z</time><ele>987.2</ele></trkpt><trkpt lat="45.838669" lon="9.188373"><time>2024-05-04T11:55:59.000Z</time><ele>987.2</ele></trkpt><trkpt lat="45.838665" lon="9.188375"><time>2024-05-04T11:56:00.000Z</time><ele>987.2</ele></trkpt><trkpt lat="45.838656" lon="9.188382"><time>2024-05-04T11:56:01.000Z</time><ele>987.2</ele></trkpt><trkpt lat="45.838645" lon="9.188383"><time>2024-05-04T11:56:02.000Z</time><ele>987</ele></trkpt><trkpt lat="45.838629" lon="9.18839"><time>2024-05-04T11:56:03.000Z</time><ele>987</ele></trkpt><trkpt lat="45.838626" lon="9.188391"><time>2024-05-04T11:56:04.000Z</time><ele>987</ele></trkpt><trkpt lat="45.838598" lon="9.188397"><time>2024-05-04T11:56:05.000Z</time><ele>987</ele></trkpt><trkpt lat="45.838568" lon="9.188413"><time>2024-05-04T11:56:06.000Z</time><ele>987</ele></trkpt><trkpt lat="45.838544" lon="9.188426"><time>2024-05-04T11:56:07.000Z</time><ele>987</ele></trkpt><trkpt lat="45.83852" lon="9.188432"><time>2024-05-04T11:56:08.000Z</time><ele>986.8</ele></trkpt><trkpt lat="45.838496" lon="9.188424"><time>2024-05-04T11:56:09.000Z</time><ele>986.8</ele></trkpt><trkpt lat="45.838474" lon="9.188412"><time>2024-05-04T11:56:10.000Z</time><ele>986.6</ele></trkpt><trkpt lat="45.83845" lon="9.188409"><time>2024-05-04T11:56:11.000Z</time><ele>986.6</ele></trkpt><trkpt lat="45.838422" lon="9.188416"><time>2024-05-04T11:56:12.000Z</time><ele>986.4</ele></trkpt><trkpt lat="45.838392" lon="9.188432"><time>2024-05-04T11:56:13.000Z</time><ele>986.4</ele></trkpt><trkpt lat="45.838371" lon="9.188438"><time>2024-05-04T11:56:14.000Z</time><ele>986.2</ele></trkpt><trkpt lat="45.83836" lon="9.188438"><time>2024-05-04T11:56:15.000Z</time><ele>986.2</ele></trkpt><trkpt lat="45.83835" lon="9.18844"><time>2024-05-04T11:56:16.000Z</time><ele>986.2</ele></trkpt><trkpt lat="45.838347" lon="9.188442"><time>2024-05-04T11:56:17.000Z</time><ele>986.2</ele></trkpt><trkpt lat="45.838345" lon="9.18844"><time>2024-05-04T11:56:18.000Z</time><ele>986.2</ele></trkpt><trkpt lat="45.838336" lon="9.188434"><time>2024-05-04T11:56:19.000Z</time><ele>986.2</ele></trkpt><trkpt lat="45.838327" lon="9.188442"><time>2024-05-04T11:56:20.000Z</time><ele>986.2</ele></trkpt><trkpt lat="45.838322" lon="9.18846"><time>2024-05-04T11:56:21.000Z</time><ele>986.2</ele></trkpt><trkpt lat="45.838318" lon="9.188483"><time>2024-05-04T11:56:22.000Z</time><ele>986.2</ele></trkpt><trkpt lat="45.838308" lon="9.188491"><time>2024-05-04T11:56:23.000Z</time><ele>986.2</ele></trkpt><trkpt lat="45.838298" lon="9.188491"><time>2024-05-04T11:56:24.000Z</time><ele>986</ele></trkpt><trkpt lat="45.838286" lon="9.188504"><time>2024-05-04T11:56:25.000Z</time><ele>986</ele></trkpt><trkpt lat="45.838278" lon="9.188531"><time>2024-05-04T11:56:26.000Z</time><ele>986</ele></trkpt><trkpt lat="45.838268" lon="9.188545"><time>2024-05-04T11:56:27.000Z</time><ele>986</ele></trkpt><trkpt lat="45.83826" lon="9.188551"><time>2024-05-04T11:56:28.000Z</time><ele>986</ele></trkpt><trkpt lat="45.838256" lon="9.188554"><time>2024-05-04T11:56:29.000Z</time><ele>985.8</ele></trkpt><trkpt lat="45.838249" lon="9.188563"><time>2024-05-04T11:56:30.000Z</time><ele>985.8</ele></trkpt><trkpt lat="45.838243" lon="9.188575"><time>2024-05-04T11:56:31.000Z</time><ele>985.6</ele></trkpt><trkpt lat="45.838237" lon="9.188588"><time>2024-05-04T11:56:32.000Z</time><ele>985.6</ele></trkpt><trkpt lat="45.838227" lon="9.188601"><time>2024-05-04T11:56:33.000Z</time><ele>985.6</ele></trkpt><trkpt lat="45.838223" lon="9.188605"><time>2024-05-04T11:56:34.000Z</time><ele>985.4</ele></trkpt><trkpt lat="45.838219" lon="9.188627"><time>2024-05-04T11:56:35.000Z</time><ele>985.4</ele></trkpt><trkpt lat="45.8382" lon="9.188657"><time>2024-05-04T11:56:36.000Z</time><ele>985.4</ele></trkpt><trkpt lat="45.838184" lon="9.188677"><time>2024-05-04T11:56:37.000Z</time><ele>985.4</ele></trkpt><trkpt lat="45.838172" lon="9.188702"><time>2024-05-04T11:56:38.000Z</time><ele>985.4</ele></trkpt><trkpt lat="45.838168" lon="9.188703"><time>2024-05-04T11:56:39.000Z</time><ele>985.4</ele></trkpt><trkpt lat="45.838166" lon="9.188706"><time>2024-05-04T11:56:40.000Z</time><ele>985.4</ele></trkpt><trkpt lat="45.838163" lon="9.188708"><time>2024-05-04T11:56:41.000Z</time><ele>985.6</ele></trkpt><trkpt lat="45.838157" lon="9.188726"><time>2024-05-04T11:56:42.000Z</time><ele>985.6</ele></trkpt><trkpt lat="45.838152" lon="9.188745"><time>2024-05-04T11:56:43.000Z</time><ele>985.6</ele></trkpt><trkpt lat="45.838152" lon="9.188759"><time>2024-05-04T11:56:44.000Z</time><ele>985.6</ele></trkpt><trkpt lat="45.838148" lon="9.188774"><time>2024-05-04T11:56:45.000Z</time><ele>985.6</ele></trkpt><trkpt lat="45.838146" lon="9.188781"><time>2024-05-04T11:56:46.000Z</time><ele>985.6</ele></trkpt><trkpt lat="45.83812" lon="9.188805"><time>2024-05-04T11:56:47.000Z</time><ele>985.6</ele></trkpt><trkpt lat="45.838105" lon="9.188826"><time>2024-05-04T11:56:48.000Z</time><ele>985.6</ele></trkpt><trkpt lat="45.838097" lon="9.188852"><time>2024-05-04T11:56:49.000Z</time><ele>985.6</ele></trkpt><trkpt lat="45.838093" lon="9.188855"><time>2024-05-04T11:56:50.000Z</time><ele>985.6</ele></trkpt><trkpt lat="45.838084" lon="9.188865"><time>2024-05-04T11:56:51.000Z</time><ele>985.6</ele></trkpt><trkpt lat="45.838082" lon="9.188865"><time>2024-05-04T11:56:52.000Z</time><ele>985.6</ele></trkpt><trkpt lat="45.838081" lon="9.188865"><time>2024-05-04T11:56:53.000Z</time><ele>985.8</ele></trkpt><trkpt lat="45.838081" lon="9.188864"><time>2024-05-04T11:56:54.000Z</time><ele>985.8</ele></trkpt><trkpt lat="45.838082" lon="9.188882"><time>2024-05-04T11:56:55.000Z</time><ele>985.8</ele></trkpt><trkpt lat="45.838084" lon="9.188894"><time>2024-05-04T11:56:56.000Z</time><ele>985.6</ele></trkpt><trkpt lat="45.838086" lon="9.188895"><time>2024-05-04T11:56:57.000Z</time><ele>985.6</ele></trkpt><trkpt lat="45.838086" lon="9.188895"><time>2024-05-04T11:56:58.000Z</time><ele>985.4</ele></trkpt><trkpt lat="45.838087" lon="9.188896"><time>2024-05-04T11:56:59.000Z</time><ele>985.4</ele></trkpt><trkpt lat="45.838088" lon="9.188897"><time>2024-05-04T11:57:00.000Z</time><ele>985.4</ele></trkpt><trkpt lat="45.838088" lon="9.188899"><time>2024-05-04T11:57:01.000Z</time><ele>985.4</ele></trkpt><trkpt lat="45.838088" lon="9.1889"><time>2024-05-04T11:57:02.000Z</time><ele>985.2</ele></trkpt><trkpt lat="45.838088" lon="9.188899"><time>2024-05-04T11:57:03.000Z</time><ele>985.2</ele></trkpt><trkpt lat="45.838096" lon="9.188894"><time>2024-05-04T11:57:04.000Z</time><ele>985.2</ele></trkpt><trkpt lat="45.838095" lon="9.188895"><time>2024-05-04T11:57:05.000Z</time><ele>985.2</ele></trkpt><trkpt lat="45.838091" lon="9.188895"><time>2024-05-04T11:57:06.000Z</time><ele>985.2</ele></trkpt><trkpt lat="45.838093" lon="9.188881"><time>2024-05-04T11:57:07.000Z</time><ele>985</ele></trkpt><trkpt lat="45.838093" lon="9.188872"><time>2024-05-04T11:57:08.000Z</time><ele>985</ele></trkpt><trkpt lat="45.838091" lon="9.188878"><time>2024-05-04T11:57:09.000Z</time><ele>985</ele></trkpt><trkpt lat="45.838086" lon="9.18889"><time>2024-05-04T11:57:10.000Z</time><ele>985</ele></trkpt><trkpt lat="45.838087" lon="9.18889"><time>2024-05-04T11:57:11.000Z</time><ele>985</ele></trkpt><trkpt lat="45.838088" lon="9.188892"><time>2024-05-04T11:57:12.000Z</time><ele>985</ele></trkpt><trkpt lat="45.838088" lon="9.188889"><time>2024-05-04T11:57:13.000Z</time><ele>985</ele></trkpt><trkpt lat="45.838087" lon="9.188887"><time>2024-05-04T11:57:14.000Z</time><ele>985</ele></trkpt><trkpt lat="45.838087" lon="9.188885"><time>2024-05-04T11:57:15.000Z</time><ele>985</ele></trkpt><trkpt lat="45.838082" lon="9.188887"><time>2024-05-04T11:57:16.000Z</time><ele>985</ele></trkpt><trkpt lat="45.838082" lon="9.188885"><time>2024-05-04T11:57:17.000Z</time><ele>985</ele></trkpt><trkpt lat="45.838073" lon="9.188892"><time>2024-05-04T11:57:18.000Z</time><ele>985</ele></trkpt><trkpt lat="45.838071" lon="9.188893"><time>2024-05-04T11:57:19.000Z</time><ele>985</ele></trkpt><trkpt lat="45.838069" lon="9.188893"><time>2024-05-04T11:57:20.000Z</time><ele>985</ele></trkpt><trkpt lat="45.838058" lon="9.188897"><time>2024-05-04T11:57:21.000Z</time><ele>985</ele></trkpt><trkpt lat="45.838058" lon="9.188902"><time>2024-05-04T11:57:22.000Z</time><ele>985</ele></trkpt><trkpt lat="45.838053" lon="9.188902"><time>2024-05-04T11:57:23.000Z</time><ele>985</ele></trkpt><trkpt lat="45.838053" lon="9.188907"><time>2024-05-04T11:57:24.000Z</time><ele>984.8</ele></trkpt><trkpt lat="45.838042" lon="9.188907"><time>2024-05-04T11:57:25.000Z</time><ele>984.6</ele></trkpt><trkpt lat="45.83804" lon="9.188905"><time>2024-05-04T11:57:26.000Z</time><ele>984.6</ele></trkpt><trkpt lat="45.838031" lon="9.18891"><time>2024-05-04T11:57:27.000Z</time><ele>984.4</ele></trkpt><trkpt lat="45.838025" lon="9.188915"><time>2024-05-04T11:57:28.000Z</time><ele>984</ele></trkpt><trkpt lat="45.838014" lon="9.188914"><time>2024-05-04T11:57:29.000Z</time><ele>983.8</ele></trkpt><trkpt lat="45.838004" lon="9.188911"><time>2024-05-04T11:57:30.000Z</time><ele>983.6</ele></trkpt><trkpt lat="45.837995" lon="9.188912"><time>2024-05-04T11:57:31.000Z</time><ele>983.4</ele></trkpt><trkpt lat="45.837984" lon="9.188912"><time>2024-05-04T11:57:32.000Z</time><ele>983.2</ele></trkpt><trkpt lat="45.837973" lon="9.188908"><time>2024-05-04T11:57:33.000Z</time><ele>982.6</ele></trkpt><trkpt lat="45.837963" lon="9.188907"><time>2024-05-04T11:57:34.000Z</time><ele>982.4</ele></trkpt><trkpt lat="45.837955" lon="9.18891"><time>2024-05-04T11:57:35.000Z</time><ele>982.2</ele></trkpt><trkpt lat="45.83795" lon="9.18891"><time>2024-05-04T11:57:36.000Z</time><ele>982</ele></trkpt><trkpt lat="45.837942" lon="9.188911"><time>2024-05-04T11:57:37.000Z</time><ele>981.8</ele></trkpt><trkpt lat="45.837934" lon="9.188904"><time>2024-05-04T11:57:38.000Z</time><ele>981.6</ele></trkpt><trkpt lat="45.837923" lon="9.188899"><time>2024-05-04T11:57:39.000Z</time><ele>981.4</ele></trkpt><trkpt lat="45.837908" lon="9.188896"><time>2024-05-04T11:57:40.000Z</time><ele>981.4</ele></trkpt><trkpt lat="45.837896" lon="9.188891"><time>2024-05-04T11:57:41.000Z</time><ele>981.2</ele></trkpt><trkpt lat="45.837886" lon="9.188884"><time>2024-05-04T11:57:42.000Z</time><ele>981</ele></trkpt><trkpt lat="45.837879" lon="9.188885"><time>2024-05-04T11:57:43.000Z</time><ele>980.6</ele></trkpt><trkpt lat="45.837869" lon="9.188883"><time>2024-05-04T11:57:44.000Z</time><ele>980.6</ele></trkpt><trkpt lat="45.837858" lon="9.188885"><time>2024-05-04T11:57:45.000Z</time><ele>980.2</ele></trkpt><trkpt lat="45.83785" lon="9.188884"><time>2024-05-04T11:57:46.000Z</time><ele>980.2</ele></trkpt><trkpt lat="45.83784" lon="9.188877"><time>2024-05-04T11:57:47.000Z</time><ele>979.8</ele></trkpt><trkpt lat="45.837829" lon="9.188883"><time>2024-05-04T11:57:48.000Z</time><ele>979.8</ele></trkpt><trkpt lat="45.837819" lon="9.188882"><time>2024-05-04T11:57:49.000Z</time><ele>979.6</ele></trkpt><trkpt lat="45.837811" lon="9.188881"><time>2024-05-04T11:57:50.000Z</time><ele>979.6</ele></trkpt><trkpt lat="45.837802" lon="9.188874"><time>2024-05-04T11:57:51.000Z</time><ele>979.4</ele></trkpt><trkpt lat="45.837788" lon="9.18887"><time>2024-05-04T11:57:52.000Z</time><ele>979.2</ele></trkpt><trkpt lat="45.837784" lon="9.18887"><time>2024-05-04T11:57:53.000Z</time><ele>979.2</ele></trkpt><trkpt lat="45.837763" lon="9.188893"><time>2024-05-04T11:57:54.000Z</time><ele>979</ele></trkpt><trkpt lat="45.837746" lon="9.188901"><time>2024-05-04T11:57:55.000Z</time><ele>979</ele></trkpt><trkpt lat="45.83773" lon="9.188902"><time>2024-05-04T11:57:56.000Z</time><ele>978.8</ele></trkpt><trkpt lat="45.83771" lon="9.188902"><time>2024-05-04T11:57:57.000Z</time><ele>978.8</ele></trkpt><trkpt lat="45.837691" lon="9.188897"><time>2024-05-04T11:57:58.000Z</time><ele>978.8</ele></trkpt><trkpt lat="45.837673" lon="9.188898"><time>2024-05-04T11:57:59.000Z</time><ele>978.8</ele></trkpt><trkpt lat="45.837657" lon="9.1889"><time>2024-05-04T11:58:00.000Z</time><ele>978.8</ele></trkpt><trkpt lat="45.83764" lon="9.188901"><time>2024-05-04T11:58:01.000Z</time><ele>978.8</ele></trkpt><trkpt lat="45.83763" lon="9.188902"><time>2024-05-04T11:58:02.000Z</time><ele>978.8</ele></trkpt><trkpt lat="45.837617" lon="9.188897"><time>2024-05-04T11:58:03.000Z</time><ele>978.8</ele></trkpt><trkpt lat="45.837612" lon="9.1889"><time>2024-05-04T11:58:04.000Z</time><ele>978.8</ele></trkpt><trkpt lat="45.837604" lon="9.188902"><time>2024-05-04T11:58:05.000Z</time><ele>978.8</ele></trkpt><trkpt lat="45.837599" lon="9.188906"><time>2024-05-04T11:58:06.000Z</time><ele>978.8</ele></trkpt><trkpt lat="45.837597" lon="9.188902"><time>2024-05-04T11:58:07.000Z</time><ele>978.8</ele></trkpt><trkpt lat="45.837597" lon="9.1889"><time>2024-05-04T11:58:08.000Z</time><ele>978.6</ele></trkpt><trkpt lat="45.837595" lon="9.188893"><time>2024-05-04T11:58:09.000Z</time><ele>978.6</ele></trkpt><trkpt lat="45.837592" lon="9.188884"><time>2024-05-04T11:58:10.000Z</time><ele>978.6</ele></trkpt><trkpt lat="45.837583" lon="9.188876"><time>2024-05-04T11:58:11.000Z</time><ele>978.8</ele></trkpt><trkpt lat="45.837579" lon="9.188864"><time>2024-05-04T11:58:12.000Z</time><ele>978.6</ele></trkpt><trkpt lat="45.837573" lon="9.188861"><time>2024-05-04T11:58:13.000Z</time><ele>978.6</ele></trkpt><trkpt lat="45.837559" lon="9.188858"><time>2024-05-04T11:58:14.000Z</time><ele>978.6</ele></trkpt><trkpt lat="45.837541" lon="9.188853"><time>2024-05-04T11:58:15.000Z</time><ele>978.6</ele></trkpt><trkpt lat="45.837525" lon="9.188847"><time>2024-05-04T11:58:16.000Z</time><ele>978.6</ele></trkpt><trkpt lat="45.837515" lon="9.18884"><time>2024-05-04T11:58:17.000Z</time><ele>978.4</ele></trkpt><trkpt lat="45.837497" lon="9.188841"><time>2024-05-04T11:58:18.000Z</time><ele>978.2</ele></trkpt><trkpt lat="45.837487" lon="9.18884"><time>2024-05-04T11:58:19.000Z</time><ele>978.2</ele></trkpt><trkpt lat="45.837473" lon="9.188844"><time>2024-05-04T11:58:20.000Z</time><ele>978.2</ele></trkpt><trkpt lat="45.837461" lon="9.188845"><time>2024-05-04T11:58:21.000Z</time><ele>978</ele></trkpt><trkpt lat="45.837446" lon="9.188847"><time>2024-05-04T11:58:22.000Z</time><ele>978</ele></trkpt><trkpt lat="45.837435" lon="9.188848"><time>2024-05-04T11:58:23.000Z</time><ele>978</ele></trkpt><trkpt lat="45.837423" lon="9.188854"><time>2024-05-04T11:58:24.000Z</time><ele>978</ele></trkpt><trkpt lat="45.837407" lon="9.188864"><time>2024-05-04T11:58:25.000Z</time><ele>978</ele></trkpt><trkpt lat="45.837392" lon="9.188872"><time>2024-05-04T11:58:26.000Z</time><ele>978</ele></trkpt><trkpt lat="45.837381" lon="9.188883"><time>2024-05-04T11:58:27.000Z</time><ele>978</ele></trkpt><trkpt lat="45.837371" lon="9.188892"><time>2024-05-04T11:58:28.000Z</time><ele>978</ele></trkpt><trkpt lat="45.837363" lon="9.188904"><time>2024-05-04T11:58:29.000Z</time><ele>978</ele></trkpt><trkpt lat="45.837356" lon="9.188911"><time>2024-05-04T11:58:30.000Z</time><ele>977.8</ele></trkpt><trkpt lat="45.837339" lon="9.188926"><time>2024-05-04T11:58:31.000Z</time><ele>977.8</ele></trkpt><trkpt lat="45.837322" lon="9.188938"><time>2024-05-04T11:58:32.000Z</time><ele>977.8</ele></trkpt><trkpt lat="45.837309" lon="9.188952"><time>2024-05-04T11:58:33.000Z</time><ele>977.6</ele></trkpt><trkpt lat="45.837298" lon="9.188964"><time>2024-05-04T11:58:34.000Z</time><ele>977.6</ele></trkpt><trkpt lat="45.837286" lon="9.188976"><time>2024-05-04T11:58:35.000Z</time><ele>977.6</ele></trkpt><trkpt lat="45.837279" lon="9.188986"><time>2024-05-04T11:58:36.000Z</time><ele>977.6</ele></trkpt><trkpt lat="45.83727" lon="9.188995"><time>2024-05-04T11:58:37.000Z</time><ele>977.6</ele></trkpt><trkpt lat="45.83726" lon="9.189007"><time>2024-05-04T11:58:38.000Z</time><ele>977.4</ele></trkpt><trkpt lat="45.837255" lon="9.189014"><time>2024-05-04T11:58:39.000Z</time><ele>977.4</ele></trkpt><trkpt lat="45.837252" lon="9.189018"><time>2024-05-04T11:58:40.000Z</time><ele>977.4</ele></trkpt><trkpt lat="45.837244" lon="9.189022"><time>2024-05-04T11:58:41.000Z</time><ele>977.4</ele></trkpt><trkpt lat="45.837237" lon="9.189035"><time>2024-05-04T11:58:42.000Z</time><ele>977.4</ele></trkpt><trkpt lat="45.837229" lon="9.189045"><time>2024-05-04T11:58:43.000Z</time><ele>977.2</ele></trkpt><trkpt lat="45.837219" lon="9.189057"><time>2024-05-04T11:58:44.000Z</time><ele>977.2</ele></trkpt><trkpt lat="45.837213" lon="9.189069"><time>2024-05-04T11:58:45.000Z</time><ele>977</ele></trkpt><trkpt lat="45.837206" lon="9.18908"><time>2024-05-04T11:58:46.000Z</time><ele>976.8</ele></trkpt><trkpt lat="45.837197" lon="9.189094"><time>2024-05-04T11:58:47.000Z</time><ele>976.6</ele></trkpt><trkpt lat="45.837191" lon="9.189107"><time>2024-05-04T11:58:48.000Z</time><ele>976.4</ele></trkpt><trkpt lat="45.837191" lon="9.189112"><time>2024-05-04T11:58:49.000Z</time><ele>976.4</ele></trkpt><trkpt lat="45.837187" lon="9.189121"><time>2024-05-04T11:58:50.000Z</time><ele>976.2</ele></trkpt><trkpt lat="45.837184" lon="9.189142"><time>2024-05-04T11:58:51.000Z</time><ele>976.2</ele></trkpt><trkpt lat="45.837185" lon="9.189151"><time>2024-05-04T11:58:52.000Z</time><ele>975.8</ele></trkpt><trkpt lat="45.837182" lon="9.189162"><time>2024-05-04T11:58:53.000Z</time><ele>975.6</ele></trkpt><trkpt lat="45.837183" lon="9.189179"><time>2024-05-04T11:58:54.000Z</time><ele>975.2</ele></trkpt><trkpt lat="45.837181" lon="9.189204"><time>2024-05-04T11:58:55.000Z</time><ele>975</ele></trkpt><trkpt lat="45.837178" lon="9.18923"><time>2024-05-04T11:58:56.000Z</time><ele>974.8</ele></trkpt><trkpt lat="45.837171" lon="9.189249"><time>2024-05-04T11:58:57.000Z</time><ele>974.4</ele></trkpt><trkpt lat="45.837163" lon="9.189265"><time>2024-05-04T11:58:58.000Z</time><ele>974.2</ele></trkpt><trkpt lat="45.837158" lon="9.189274"><time>2024-05-04T11:58:59.000Z</time><ele>974.2</ele></trkpt><trkpt lat="45.83715" lon="9.189288"><time>2024-05-04T11:59:00.000Z</time><ele>973.8</ele></trkpt><trkpt lat="45.83714" lon="9.189299"><time>2024-05-04T11:59:01.000Z</time><ele>973.8</ele></trkpt><trkpt lat="45.837128" lon="9.189317"><time>2024-05-04T11:59:02.000Z</time><ele>973.4</ele></trkpt><trkpt lat="45.837118" lon="9.189339"><time>2024-05-04T11:59:03.000Z</time><ele>973.2</ele></trkpt><trkpt lat="45.837112" lon="9.189357"><time>2024-05-04T11:59:04.000Z</time><ele>972.8</ele></trkpt><trkpt lat="45.837111" lon="9.189379"><time>2024-05-04T11:59:05.000Z</time><ele>972.6</ele></trkpt><trkpt lat="45.837111" lon="9.189398"><time>2024-05-04T11:59:06.000Z</time><ele>972.6</ele></trkpt><trkpt lat="45.837112" lon="9.189421"><time>2024-05-04T11:59:07.000Z</time><ele>972.4</ele></trkpt><trkpt lat="45.837109" lon="9.189437"><time>2024-05-04T11:59:08.000Z</time><ele>972.4</ele></trkpt><trkpt lat="45.837102" lon="9.189447"><time>2024-05-04T11:59:09.000Z</time><ele>972.2</ele></trkpt><trkpt lat="45.837098" lon="9.189459"><time>2024-05-04T11:59:10.000Z</time><ele>972</ele></trkpt><trkpt lat="45.837096" lon="9.18948"><time>2024-05-04T11:59:11.000Z</time><ele>972</ele></trkpt><trkpt lat="45.837096" lon="9.189495"><time>2024-05-04T11:59:12.000Z</time><ele>971.8</ele></trkpt><trkpt lat="45.837091" lon="9.189519"><time>2024-05-04T11:59:13.000Z</time><ele>971.8</ele></trkpt><trkpt lat="45.837093" lon="9.18953"><time>2024-05-04T11:59:14.000Z</time><ele>971.8</ele></trkpt><trkpt lat="45.837092" lon="9.189545"><time>2024-05-04T11:59:15.000Z</time><ele>971.6</ele></trkpt><trkpt lat="45.837092" lon="9.189564"><time>2024-05-04T11:59:16.000Z</time><ele>971.6</ele></trkpt><trkpt lat="45.837091" lon="9.189571"><time>2024-05-04T11:59:17.000Z</time><ele>971.6</ele></trkpt><trkpt lat="45.837093" lon="9.189585"><time>2024-05-04T11:59:18.000Z</time><ele>971.4</ele></trkpt><trkpt lat="45.837091" lon="9.189601"><time>2024-05-04T11:59:19.000Z</time><ele>971.2</ele></trkpt><trkpt lat="45.837087" lon="9.189612"><time>2024-05-04T11:59:20.000Z</time><ele>971.2</ele></trkpt><trkpt lat="45.837085" lon="9.189625"><time>2024-05-04T11:59:21.000Z</time><ele>971.2</ele></trkpt><trkpt lat="45.837084" lon="9.189639"><time>2024-05-04T11:59:22.000Z</time><ele>971.2</ele></trkpt><trkpt lat="45.837079" lon="9.189656"><time>2024-05-04T11:59:23.000Z</time><ele>971.2</ele></trkpt><trkpt lat="45.837076" lon="9.189673"><time>2024-05-04T11:59:24.000Z</time><ele>971</ele></trkpt><trkpt lat="45.837071" lon="9.189694"><time>2024-05-04T11:59:25.000Z</time><ele>971</ele></trkpt><trkpt lat="45.83707" lon="9.189712"><time>2024-05-04T11:59:26.000Z</time><ele>971</ele></trkpt><trkpt lat="45.837068" lon="9.189732"><time>2024-05-04T11:59:27.000Z</time><ele>971</ele></trkpt><trkpt lat="45.837068" lon="9.189752"><time>2024-05-04T11:59:28.000Z</time><ele>971</ele></trkpt><trkpt lat="45.837066" lon="9.189767"><time>2024-05-04T11:59:29.000Z</time><ele>971</ele></trkpt><trkpt lat="45.837065" lon="9.189778"><time>2024-05-04T11:59:30.000Z</time><ele>970.8</ele></trkpt><trkpt lat="45.837064" lon="9.189792"><time>2024-05-04T11:59:31.000Z</time><ele>970.8</ele></trkpt><trkpt lat="45.837061" lon="9.18981"><time>2024-05-04T11:59:32.000Z</time><ele>970.8</ele></trkpt><trkpt lat="45.837058" lon="9.189828"><time>2024-05-04T11:59:33.000Z</time><ele>970.6</ele></trkpt><trkpt lat="45.837058" lon="9.189844"><time>2024-05-04T11:59:34.000Z</time><ele>970.4</ele></trkpt><trkpt lat="45.837057" lon="9.189862"><time>2024-05-04T11:59:35.000Z</time><ele>970.4</ele></trkpt><trkpt lat="45.837056" lon="9.189875"><time>2024-05-04T11:59:36.000Z</time><ele>970.4</ele></trkpt><trkpt lat="45.837056" lon="9.189886"><time>2024-05-04T11:59:37.000Z</time><ele>970.2</ele></trkpt><trkpt lat="45.837052" lon="9.189897"><time>2024-05-04T11:59:38.000Z</time><ele>970.2</ele></trkpt><trkpt lat="45.837049" lon="9.189913"><time>2024-05-04T11:59:39.000Z</time><ele>970</ele></trkpt><trkpt lat="45.837045" lon="9.18993"><time>2024-05-04T11:59:40.000Z</time><ele>970</ele></trkpt><trkpt lat="45.837038" lon="9.189943"><time>2024-05-04T11:59:41.000Z</time><ele>969.8</ele></trkpt><trkpt lat="45.837028" lon="9.189955"><time>2024-05-04T11:59:42.000Z</time><ele>969.8</ele></trkpt><trkpt lat="45.837017" lon="9.189966"><time>2024-05-04T11:59:43.000Z</time><ele>969.4</ele></trkpt><trkpt lat="45.837011" lon="9.189981"><time>2024-05-04T11:59:44.000Z</time><ele>969.4</ele></trkpt><trkpt lat="45.837005" lon="9.189989"><time>2024-05-04T11:59:45.000Z</time><ele>969.4</ele></trkpt><trkpt lat="45.836995" lon="9.19"><time>2024-05-04T11:59:46.000Z</time><ele>969.2</ele></trkpt><trkpt lat="45.836985" lon="9.190005"><time>2024-05-04T11:59:47.000Z</time><ele>969.2</ele></trkpt><trkpt lat="45.836974" lon="9.19001"><time>2024-05-04T11:59:48.000Z</time><ele>969.2</ele></trkpt><trkpt lat="45.836963" lon="9.190018"><time>2024-05-04T11:59:49.000Z</time><ele>969</ele></trkpt><trkpt lat="45.836952" lon="9.190027"><time>2024-05-04T11:59:50.000Z</time><ele>969</ele></trkpt><trkpt lat="45.836944" lon="9.190041"><time>2024-05-04T11:59:51.000Z</time><ele>969</ele></trkpt><trkpt lat="45.836933" lon="9.190061"><time>2024-05-04T11:59:52.000Z</time><ele>969</ele></trkpt><trkpt lat="45.836924" lon="9.190074"><time>2024-05-04T11:59:53.000Z</time><ele>968.8</ele></trkpt><trkpt lat="45.836912" lon="9.190084"><time>2024-05-04T11:59:54.000Z</time><ele>968.8</ele></trkpt><trkpt lat="45.836903" lon="9.190087"><time>2024-05-04T11:59:55.000Z</time><ele>968.8</ele></trkpt><trkpt lat="45.83689" lon="9.190103"><time>2024-05-04T11:59:56.000Z</time><ele>968.8</ele></trkpt><trkpt lat="45.836872" lon="9.190109"><time>2024-05-04T11:59:57.000Z</time><ele>968.8</ele></trkpt><trkpt lat="45.83686" lon="9.190112"><time>2024-05-04T11:59:58.000Z</time><ele>968.8</ele></trkpt><trkpt lat="45.836848" lon="9.190116"><time>2024-05-04T11:59:59.000Z</time><ele>968.6</ele></trkpt><trkpt lat="45.836831" lon="9.190132"><time>2024-05-04T12:00:00.000Z</time><ele>968.6</ele></trkpt><trkpt lat="45.836819" lon="9.190139"><time>2024-05-04T12:00:01.000Z</time><ele>968.4</ele></trkpt><trkpt lat="45.836809" lon="9.190151"><time>2024-05-04T12:00:02.000Z</time><ele>968.4</ele></trkpt><trkpt lat="45.8368" lon="9.190163"><time>2024-05-04T12:00:03.000Z</time><ele>968.4</ele></trkpt><trkpt lat="45.836794" lon="9.190182"><time>2024-05-04T12:00:04.000Z</time><ele>968.4</ele></trkpt><trkpt lat="45.836792" lon="9.190196"><time>2024-05-04T12:00:05.000Z</time><ele>968.4</ele></trkpt><trkpt lat="45.836786" lon="9.190206"><time>2024-05-04T12:00:06.000Z</time><ele>968.4</ele></trkpt><trkpt lat="45.836782" lon="9.190207"><time>2024-05-04T12:00:07.000Z</time><ele>968.4</ele></trkpt><trkpt lat="45.836774" lon="9.19021"><time>2024-05-04T12:00:08.000Z</time><ele>968.4</ele></trkpt><trkpt lat="45.836765" lon="9.190221"><time>2024-05-04T12:00:09.000Z</time><ele>968.4</ele></trkpt><trkpt lat="45.836757" lon="9.190234"><time>2024-05-04T12:00:10.000Z</time><ele>968.4</ele></trkpt><trkpt lat="45.836744" lon="9.19024"><time>2024-05-04T12:00:11.000Z</time><ele>968.4</ele></trkpt><trkpt lat="45.836723" lon="9.190249"><time>2024-05-04T12:00:12.000Z</time><ele>968.2</ele></trkpt><trkpt lat="45.836712" lon="9.190259"><time>2024-05-04T12:00:13.000Z</time><ele>968.2</ele></trkpt><trkpt lat="45.8367" lon="9.190267"><time>2024-05-04T12:00:14.000Z</time><ele>968.2</ele></trkpt><trkpt lat="45.83669" lon="9.190277"><time>2024-05-04T12:00:15.000Z</time><ele>968.2</ele></trkpt><trkpt lat="45.836678" lon="9.190284"><time>2024-05-04T12:00:16.000Z</time><ele>968.2</ele></trkpt><trkpt lat="45.836667" lon="9.190294"><time>2024-05-04T12:00:17.000Z</time><ele>968</ele></trkpt><trkpt lat="45.836658" lon="9.190302"><time>2024-05-04T12:00:18.000Z</time><ele>968</ele></trkpt><trkpt lat="45.836649" lon="9.190309"><time>2024-05-04T12:00:19.000Z</time><ele>968</ele></trkpt><trkpt lat="45.836637" lon="9.190318"><time>2024-05-04T12:00:20.000Z</time><ele>968</ele></trkpt><trkpt lat="45.836623" lon="9.190323"><time>2024-05-04T12:00:21.000Z</time><ele>967.8</ele></trkpt><trkpt lat="45.836609" lon="9.190327"><time>2024-05-04T12:00:22.000Z</time><ele>967.8</ele></trkpt><trkpt lat="45.836598" lon="9.190333"><time>2024-05-04T12:00:23.000Z</time><ele>967.6</ele></trkpt><trkpt lat="45.836589" lon="9.190342"><time>2024-05-04T12:00:24.000Z</time><ele>967.6</ele></trkpt><trkpt lat="45.836583" lon="9.190347"><time>2024-05-04T12:00:25.000Z</time><ele>967.6</ele></trkpt><trkpt lat="45.836575" lon="9.190349"><time>2024-05-04T12:00:26.000Z</time><ele>967.6</ele></trkpt><trkpt lat="45.836563" lon="9.190352"><time>2024-05-04T12:00:27.000Z</time><ele>967.6</ele></trkpt><trkpt lat="45.836553" lon="9.19036"><time>2024-05-04T12:00:28.000Z</time><ele>967.4</ele></trkpt><trkpt lat="45.836542" lon="9.190371"><time>2024-05-04T12:00:29.000Z</time><ele>967.4</ele></trkpt><trkpt lat="45.836533" lon="9.190378"><time>2024-05-04T12:00:30.000Z</time><ele>967.4</ele></trkpt><trkpt lat="45.836527" lon="9.19038"><time>2024-05-04T12:00:31.000Z</time><ele>967.4</ele></trkpt><trkpt lat="45.836522" lon="9.190386"><time>2024-05-04T12:00:32.000Z</time><ele>967.4</ele></trkpt><trkpt lat="45.836515" lon="9.1904"><time>2024-05-04T12:00:33.000Z</time><ele>967.2</ele></trkpt><trkpt lat="45.836508" lon="9.190414"><time>2024-05-04T12:00:34.000Z</time><ele>967.2</ele></trkpt><trkpt lat="45.836498" lon="9.190427"><time>2024-05-04T12:00:35.000Z</time><ele>967.2</ele></trkpt><trkpt lat="45.83649" lon="9.190434"><time>2024-05-04T12:00:36.000Z</time><ele>967</ele></trkpt><trkpt lat="45.836483" lon="9.190445"><time>2024-05-04T12:00:37.000Z</time><ele>967</ele></trkpt><trkpt lat="45.836476" lon="9.19046"><time>2024-05-04T12:00:38.000Z</time><ele>966.6</ele></trkpt><trkpt lat="45.836468" lon="9.190477"><time>2024-05-04T12:00:39.000Z</time><ele>966.4</ele></trkpt><trkpt lat="45.836458" lon="9.190496"><time>2024-05-04T12:00:40.000Z</time><ele>966.2</ele></trkpt><trkpt lat="45.836449" lon="9.190516"><time>2024-05-04T12:00:41.000Z</time><ele>966</ele></trkpt><trkpt lat="45.836439" lon="9.190528"><time>2024-05-04T12:00:42.000Z</time><ele>966</ele></trkpt><trkpt lat="45.83642" lon="9.190531"><time>2024-05-04T12:00:43.000Z</time><ele>965.8</ele></trkpt><trkpt lat="45.836409" lon="9.190537"><time>2024-05-04T12:00:44.000Z</time><ele>965.8</ele></trkpt><trkpt lat="45.836397" lon="9.190549"><time>2024-05-04T12:00:45.000Z</time><ele>965.8</ele></trkpt><trkpt lat="45.836389" lon="9.190549"><time>2024-05-04T12:00:46.000Z</time><ele>965.8</ele></trkpt><trkpt lat="45.836383" lon="9.190549"><time>2024-05-04T12:00:47.000Z</time><ele>965.8</ele></trkpt><trkpt lat="45.836373" lon="9.190555"><time>2024-05-04T12:00:48.000Z</time><ele>965.6</ele></trkpt><trkpt lat="45.83636" lon="9.190569"><time>2024-05-04T12:00:49.000Z</time><ele>965.6</ele></trkpt><trkpt lat="45.836349" lon="9.190572"><time>2024-05-04T12:00:50.000Z</time><ele>965.4</ele></trkpt><trkpt lat="45.836335" lon="9.190567"><time>2024-05-04T12:00:51.000Z</time><ele>965.4</ele></trkpt><trkpt lat="45.836323" lon="9.190558"><time>2024-05-04T12:00:52.000Z</time><ele>965.2</ele></trkpt><trkpt lat="45.836312" lon="9.190555"><time>2024-05-04T12:00:53.000Z</time><ele>965.2</ele></trkpt><trkpt lat="45.836301" lon="9.190555"><time>2024-05-04T12:00:54.000Z</time><ele>965</ele></trkpt><trkpt lat="45.83629" lon="9.19056"><time>2024-05-04T12:00:55.000Z</time><ele>965</ele></trkpt><trkpt lat="45.836282" lon="9.190559"><time>2024-05-04T12:00:56.000Z</time><ele>964.8</ele></trkpt><trkpt lat="45.836274" lon="9.19056"><time>2024-05-04T12:00:57.000Z</time><ele>964.6</ele></trkpt><trkpt lat="45.836268" lon="9.190556"><time>2024-05-04T12:00:58.000Z</time><ele>964.6</ele></trkpt><trkpt lat="45.836258" lon="9.190551"><time>2024-05-04T12:00:59.000Z</time><ele>964.4</ele></trkpt><trkpt lat="45.836251" lon="9.19055"><time>2024-05-04T12:01:00.000Z</time><ele>964.2</ele></trkpt><trkpt lat="45.836243" lon="9.190547"><time>2024-05-04T12:01:01.000Z</time><ele>964.2</ele></trkpt><trkpt lat="45.836235" lon="9.19054"><time>2024-05-04T12:01:02.000Z</time><ele>964</ele></trkpt><trkpt lat="45.83623" lon="9.190526"><time>2024-05-04T12:01:03.000Z</time><ele>963.8</ele></trkpt><trkpt lat="45.836225" lon="9.190511"><time>2024-05-04T12:01:04.000Z</time><ele>963.6</ele></trkpt><trkpt lat="45.836219" lon="9.190496"><time>2024-05-04T12:01:05.000Z</time><ele>963.4</ele></trkpt><trkpt lat="45.836214" lon="9.190482"><time>2024-05-04T12:01:06.000Z</time><ele>963.4</ele></trkpt><trkpt lat="45.836216" lon="9.190469"><time>2024-05-04T12:01:07.000Z</time><ele>963.2</ele></trkpt><trkpt lat="45.836212" lon="9.190456"><time>2024-05-04T12:01:08.000Z</time><ele>963.2</ele></trkpt><trkpt lat="45.836199" lon="9.190454"><time>2024-05-04T12:01:09.000Z</time><ele>963</ele></trkpt><trkpt lat="45.836184" lon="9.190443"><time>2024-05-04T12:01:10.000Z</time><ele>962.8</ele></trkpt><trkpt lat="45.836173" lon="9.190423"><time>2024-05-04T12:01:11.000Z</time><ele>962.8</ele></trkpt><trkpt lat="45.836161" lon="9.190415"><time>2024-05-04T12:01:12.000Z</time><ele>962.6</ele></trkpt><trkpt lat="45.836149" lon="9.1904"><time>2024-05-04T12:01:13.000Z</time><ele>962.4</ele></trkpt><trkpt lat="45.836139" lon="9.190393"><time>2024-05-04T12:01:14.000Z</time><ele>962.2</ele></trkpt><trkpt lat="45.836126" lon="9.190382"><time>2024-05-04T12:01:15.000Z</time><ele>962</ele></trkpt><trkpt lat="45.836108" lon="9.190377"><time>2024-05-04T12:01:16.000Z</time><ele>961.8</ele></trkpt><trkpt lat="45.836097" lon="9.190376"><time>2024-05-04T12:01:17.000Z</time><ele>961.6</ele></trkpt><trkpt lat="45.836087" lon="9.190374"><time>2024-05-04T12:01:18.000Z</time><ele>961.6</ele></trkpt><trkpt lat="45.83607" lon="9.190357"><time>2024-05-04T12:01:19.000Z</time><ele>961.4</ele></trkpt><trkpt lat="45.836055" lon="9.190339"><time>2024-05-04T12:01:20.000Z</time><ele>961.4</ele></trkpt><trkpt lat="45.836046" lon="9.190339"><time>2024-05-04T12:01:21.000Z</time><ele>961.4</ele></trkpt><trkpt lat="45.83604" lon="9.190334"><time>2024-05-04T12:01:22.000Z</time><ele>961.4</ele></trkpt><trkpt lat="45.836035" lon="9.190332"><time>2024-05-04T12:01:23.000Z</time><ele>961.4</ele></trkpt><trkpt lat="45.836032" lon="9.190326"><time>2024-05-04T12:01:24.000Z</time><ele>961.4</ele></trkpt><trkpt lat="45.836029" lon="9.190312"><time>2024-05-04T12:01:25.000Z</time><ele>961.4</ele></trkpt><trkpt lat="45.836024" lon="9.190304"><time>2024-05-04T12:01:26.000Z</time><ele>961.2</ele></trkpt><trkpt lat="45.836016" lon="9.190302"><time>2024-05-04T12:01:27.000Z</time><ele>961</ele></trkpt><trkpt lat="45.83601" lon="9.190296"><time>2024-05-04T12:01:28.000Z</time><ele>961</ele></trkpt><trkpt lat="45.836002" lon="9.190285"><time>2024-05-04T12:01:29.000Z</time><ele>961</ele></trkpt><trkpt lat="45.835995" lon="9.190276"><time>2024-05-04T12:01:30.000Z</time><ele>961</ele></trkpt><trkpt lat="45.835988" lon="9.190264"><time>2024-05-04T12:01:31.000Z</time><ele>960.8</ele></trkpt><trkpt lat="45.835983" lon="9.190252"><time>2024-05-04T12:01:32.000Z</time><ele>960.8</ele></trkpt><trkpt lat="45.835978" lon="9.190239"><time>2024-05-04T12:01:33.000Z</time><ele>960.6</ele></trkpt><trkpt lat="45.835971" lon="9.190227"><time>2024-05-04T12:01:34.000Z</time><ele>960.6</ele></trkpt><trkpt lat="45.835966" lon="9.190215"><time>2024-05-04T12:01:35.000Z</time><ele>960.6</ele></trkpt><trkpt lat="45.835962" lon="9.190204"><time>2024-05-04T12:01:36.000Z</time><ele>960.6</ele></trkpt><trkpt lat="45.835956" lon="9.190189"><time>2024-05-04T12:01:37.000Z</time><ele>960.6</ele></trkpt><trkpt lat="45.835951" lon="9.190176"><time>2024-05-04T12:01:38.000Z</time><ele>960.6</ele></trkpt><trkpt lat="45.835943" lon="9.190167"><time>2024-05-04T12:01:39.000Z</time><ele>960.6</ele></trkpt><trkpt lat="45.835929" lon="9.190159"><time>2024-05-04T12:01:40.000Z</time><ele>960.6</ele></trkpt><trkpt lat="45.835915" lon="9.190158"><time>2024-05-04T12:01:41.000Z</time><ele>960.6</ele></trkpt><trkpt lat="45.835905" lon="9.190156"><time>2024-05-04T12:01:42.000Z</time><ele>960.6</ele></trkpt><trkpt lat="45.835894" lon="9.19015"><time>2024-05-04T12:01:43.000Z</time><ele>960.6</ele></trkpt><trkpt lat="45.835883" lon="9.190142"><time>2024-05-04T12:01:44.000Z</time><ele>960.6</ele></trkpt><trkpt lat="45.835878" lon="9.190127"><time>2024-05-04T12:01:45.000Z</time><ele>960.6</ele></trkpt><trkpt lat="45.835873" lon="9.190107"><time>2024-05-04T12:01:46.000Z</time><ele>960.6</ele></trkpt><trkpt lat="45.835868" lon="9.190088"><time>2024-05-04T12:01:47.000Z</time><ele>960.6</ele></trkpt><trkpt lat="45.835859" lon="9.190063"><time>2024-05-04T12:01:48.000Z</time><ele>960.6</ele></trkpt><trkpt lat="45.835846" lon="9.190041"><time>2024-05-04T12:01:49.000Z</time><ele>960.4</ele></trkpt><trkpt lat="45.835827" lon="9.190029"><time>2024-05-04T12:01:50.000Z</time><ele>960.4</ele></trkpt><trkpt lat="45.835813" lon="9.190018"><time>2024-05-04T12:01:51.000Z</time><ele>960.6</ele></trkpt><trkpt lat="45.835801" lon="9.190003"><time>2024-05-04T12:01:52.000Z</time><ele>960.6</ele></trkpt><trkpt lat="45.83579" lon="9.189993"><time>2024-05-04T12:01:53.000Z</time><ele>960.6</ele></trkpt><trkpt lat="45.835781" lon="9.189983"><time>2024-05-04T12:01:54.000Z</time><ele>960.6</ele></trkpt><trkpt lat="45.835767" lon="9.189973"><time>2024-05-04T12:01:55.000Z</time><ele>960.4</ele></trkpt><trkpt lat="45.835755" lon="9.18996"><time>2024-05-04T12:01:56.000Z</time><ele>960.4</ele></trkpt><trkpt lat="45.835745" lon="9.189951"><time>2024-05-04T12:01:57.000Z</time><ele>960.4</ele></trkpt><trkpt lat="45.835731" lon="9.189947"><time>2024-05-04T12:01:58.000Z</time><ele>960.4</ele></trkpt><trkpt lat="45.835716" lon="9.189938"><time>2024-05-04T12:01:59.000Z</time><ele>960.4</ele></trkpt><trkpt lat="45.835703" lon="9.189927"><time>2024-05-04T12:02:00.000Z</time><ele>960.4</ele></trkpt><trkpt lat="45.835691" lon="9.189918"><time>2024-05-04T12:02:01.000Z</time><ele>960.4</ele></trkpt><trkpt lat="45.835682" lon="9.189911"><time>2024-05-04T12:02:02.000Z</time><ele>960.4</ele></trkpt><trkpt lat="45.835674" lon="9.18991"><time>2024-05-04T12:02:03.000Z</time><ele>960.2</ele></trkpt><trkpt lat="45.835664" lon="9.189906"><time>2024-05-04T12:02:04.000Z</time><ele>960.2</ele></trkpt><trkpt lat="45.835653" lon="9.189903"><time>2024-05-04T12:02:05.000Z</time><ele>960.2</ele></trkpt><trkpt lat="45.835642" lon="9.189901"><time>2024-05-04T12:02:06.000Z</time><ele>960</ele></trkpt><trkpt lat="45.835634" lon="9.189892"><time>2024-05-04T12:02:07.000Z</time><ele>960</ele></trkpt><trkpt lat="45.835627" lon="9.189888"><time>2024-05-04T12:02:08.000Z</time><ele>960</ele></trkpt><trkpt lat="45.835622" lon="9.189879"><time>2024-05-04T12:02:09.000Z</time><ele>960</ele></trkpt><trkpt lat="45.835616" lon="9.189874"><time>2024-05-04T12:02:10.000Z</time><ele>959.8</ele></trkpt><trkpt lat="45.835609" lon="9.18986"><time>2024-05-04T12:02:11.000Z</time><ele>959.8</ele></trkpt><trkpt lat="45.835601" lon="9.189845"><time>2024-05-04T12:02:12.000Z</time><ele>959.6</ele></trkpt><trkpt lat="45.835591" lon="9.189836"><time>2024-05-04T12:02:13.000Z</time><ele>959.4</ele></trkpt><trkpt lat="45.835583" lon="9.18983"><time>2024-05-04T12:02:14.000Z</time><ele>959.2</ele></trkpt><trkpt lat="45.835574" lon="9.189825"><time>2024-05-04T12:02:15.000Z</time><ele>959</ele></trkpt><trkpt lat="45.835568" lon="9.189818"><time>2024-05-04T12:02:16.000Z</time><ele>958.8</ele></trkpt><trkpt lat="45.835561" lon="9.189812"><time>2024-05-04T12:02:17.000Z</time><ele>958.8</ele></trkpt><trkpt lat="45.835554" lon="9.189806"><time>2024-05-04T12:02:18.000Z</time><ele>958.6</ele></trkpt><trkpt lat="45.835547" lon="9.189801"><time>2024-05-04T12:02:19.000Z</time><ele>958.6</ele></trkpt><trkpt lat="45.83554" lon="9.189796"><time>2024-05-04T12:02:20.000Z</time><ele>958.6</ele></trkpt><trkpt lat="45.835531" lon="9.189793"><time>2024-05-04T12:02:21.000Z</time><ele>958.4</ele></trkpt><trkpt lat="45.835525" lon="9.189776"><time>2024-05-04T12:02:22.000Z</time><ele>958.4</ele></trkpt><trkpt lat="45.835513" lon="9.189755"><time>2024-05-04T12:02:23.000Z</time><ele>958.2</ele></trkpt><trkpt lat="45.8355" lon="9.189747"><time>2024-05-04T12:02:24.000Z</time><ele>958.2</ele></trkpt><trkpt lat="45.835488" lon="9.189744"><time>2024-05-04T12:02:25.000Z</time><ele>958</ele></trkpt><trkpt lat="45.835479" lon="9.189741"><time>2024-05-04T12:02:26.000Z</time><ele>958</ele></trkpt><trkpt lat="45.835472" lon="9.189742"><time>2024-05-04T12:02:27.000Z</time><ele>958</ele></trkpt><trkpt lat="45.835468" lon="9.189744"><time>2024-05-04T12:02:28.000Z</time><ele>958</ele></trkpt><trkpt lat="45.835466" lon="9.189744"><time>2024-05-04T12:02:29.000Z</time><ele>958</ele></trkpt><trkpt lat="45.835458" lon="9.189745"><time>2024-05-04T12:02:30.000Z</time><ele>958</ele></trkpt><trkpt lat="45.835449" lon="9.189743"><time>2024-05-04T12:02:31.000Z</time><ele>958</ele></trkpt><trkpt lat="45.835438" lon="9.189737"><time>2024-05-04T12:02:32.000Z</time><ele>957.8</ele></trkpt><trkpt lat="45.835428" lon="9.189725"><time>2024-05-04T12:02:33.000Z</time><ele>957.8</ele></trkpt><trkpt lat="45.835415" lon="9.189716"><time>2024-05-04T12:02:34.000Z</time><ele>957.8</ele></trkpt><trkpt lat="45.835402" lon="9.189702"><time>2024-05-04T12:02:35.000Z</time><ele>957.6</ele></trkpt><trkpt lat="45.835391" lon="9.18969"><time>2024-05-04T12:02:36.000Z</time><ele>957.6</ele></trkpt><trkpt lat="45.835382" lon="9.189684"><time>2024-05-04T12:02:37.000Z</time><ele>957.6</ele></trkpt><trkpt lat="45.835372" lon="9.189677"><time>2024-05-04T12:02:38.000Z</time><ele>957.6</ele></trkpt><trkpt lat="45.835362" lon="9.189669"><time>2024-05-04T12:02:39.000Z</time><ele>957.6</ele></trkpt><trkpt lat="45.835351" lon="9.189659"><time>2024-05-04T12:02:40.000Z</time><ele>957.6</ele></trkpt><trkpt lat="45.83534" lon="9.189651"><time>2024-05-04T12:02:41.000Z</time><ele>957.6</ele></trkpt><trkpt lat="45.835328" lon="9.189642"><time>2024-05-04T12:02:42.000Z</time><ele>957.6</ele></trkpt><trkpt lat="45.835318" lon="9.189631"><time>2024-05-04T12:02:43.000Z</time><ele>957.6</ele></trkpt><trkpt lat="45.835305" lon="9.189625"><time>2024-05-04T12:02:44.000Z</time><ele>957.6</ele></trkpt><trkpt lat="45.835293" lon="9.189613"><time>2024-05-04T12:02:45.000Z</time><ele>957.6</ele></trkpt><trkpt lat="45.835281" lon="9.189597"><time>2024-05-04T12:02:46.000Z</time><ele>957.6</ele></trkpt><trkpt lat="45.835273" lon="9.189588"><time>2024-05-04T12:02:47.000Z</time><ele>957.6</ele></trkpt><trkpt lat="45.835263" lon="9.189576"><time>2024-05-04T12:02:48.000Z</time><ele>957.6</ele></trkpt><trkpt lat="45.835254" lon="9.189563"><time>2024-05-04T12:02:49.000Z</time><ele>957.8</ele></trkpt><trkpt lat="45.835248" lon="9.189553"><time>2024-05-04T12:02:50.000Z</time><ele>957.8</ele></trkpt><trkpt lat="45.835238" lon="9.189538"><time>2024-05-04T12:02:51.000Z</time><ele>957.8</ele></trkpt><trkpt lat="45.835229" lon="9.189523"><time>2024-05-04T12:02:52.000Z</time><ele>957.8</ele></trkpt><trkpt lat="45.835218" lon="9.189514"><time>2024-05-04T12:02:53.000Z</time><ele>957.8</ele></trkpt><trkpt lat="45.835205" lon="9.189505"><time>2024-05-04T12:02:54.000Z</time><ele>957.8</ele></trkpt><trkpt lat="45.835196" lon="9.189494"><time>2024-05-04T12:02:55.000Z</time><ele>957.8</ele></trkpt><trkpt lat="45.835191" lon="9.189485"><time>2024-05-04T12:02:56.000Z</time><ele>957.8</ele></trkpt><trkpt lat="45.835186" lon="9.189476"><time>2024-05-04T12:02:57.000Z</time><ele>957.8</ele></trkpt><trkpt lat="45.835171" lon="9.189464"><time>2024-05-04T12:02:58.000Z</time><ele>957.8</ele></trkpt><trkpt lat="45.835157" lon="9.18945"><time>2024-05-04T12:02:59.000Z</time><ele>957.8</ele></trkpt><trkpt lat="45.83515" lon="9.189432"><time>2024-05-04T12:03:00.000Z</time><ele>957.8</ele></trkpt><trkpt lat="45.835145" lon="9.189415"><time>2024-05-04T12:03:01.000Z</time><ele>957.8</ele></trkpt><trkpt lat="45.835132" lon="9.189408"><time>2024-05-04T12:03:02.000Z</time><ele>957.8</ele></trkpt><trkpt lat="45.835124" lon="9.189403"><time>2024-05-04T12:03:03.000Z</time><ele>957.8</ele></trkpt><trkpt lat="45.835113" lon="9.189397"><time>2024-05-04T12:03:04.000Z</time><ele>958</ele></trkpt><trkpt lat="45.835106" lon="9.189382"><time>2024-05-04T12:03:05.000Z</time><ele>958</ele></trkpt><trkpt lat="45.835101" lon="9.189372"><time>2024-05-04T12:03:06.000Z</time><ele>958.2</ele></trkpt><trkpt lat="45.835097" lon="9.189362"><time>2024-05-04T12:03:07.000Z</time><ele>958.2</ele></trkpt><trkpt lat="45.835094" lon="9.189351"><time>2024-05-04T12:03:08.000Z</time><ele>958.4</ele></trkpt><trkpt lat="45.835091" lon="9.189338"><time>2024-05-04T12:03:09.000Z</time><ele>958.6</ele></trkpt><trkpt lat="45.835087" lon="9.189326"><time>2024-05-04T12:03:10.000Z</time><ele>958.6</ele></trkpt><trkpt lat="45.835083" lon="9.189317"><time>2024-05-04T12:03:11.000Z</time><ele>958.8</ele></trkpt><trkpt lat="45.835079" lon="9.189305"><time>2024-05-04T12:03:12.000Z</time><ele>959</ele></trkpt><trkpt lat="45.835072" lon="9.189297"><time>2024-05-04T12:03:13.000Z</time><ele>959.2</ele></trkpt><trkpt lat="45.835062" lon="9.189285"><time>2024-05-04T12:03:14.000Z</time><ele>959.4</ele></trkpt><trkpt lat="45.835055" lon="9.189276"><time>2024-05-04T12:03:15.000Z</time><ele>959.4</ele></trkpt><trkpt lat="45.83505" lon="9.189264"><time>2024-05-04T12:03:16.000Z</time><ele>959.6</ele></trkpt><trkpt lat="45.835045" lon="9.189252"><time>2024-05-04T12:03:17.000Z</time><ele>959.6</ele></trkpt><trkpt lat="45.83504" lon="9.18924"><time>2024-05-04T12:03:18.000Z</time><ele>959.6</ele></trkpt><trkpt lat="45.835034" lon="9.18923"><time>2024-05-04T12:03:19.000Z</time><ele>959.6</ele></trkpt><trkpt lat="45.835029" lon="9.18922"><time>2024-05-04T12:03:20.000Z</time><ele>959.6</ele></trkpt><trkpt lat="45.835024" lon="9.189211"><time>2024-05-04T12:03:21.000Z</time><ele>959.6</ele></trkpt><trkpt lat="45.835014" lon="9.189202"><time>2024-05-04T12:03:22.000Z</time><ele>959.6</ele></trkpt><trkpt lat="45.835006" lon="9.18919"><time>2024-05-04T12:03:23.000Z</time><ele>959.4</ele></trkpt><trkpt lat="45.834996" lon="9.189183"><time>2024-05-04T12:03:24.000Z</time><ele>959.2</ele></trkpt><trkpt lat="45.834994" lon="9.189182"><time>2024-05-04T12:03:25.000Z</time><ele>959</ele></trkpt><trkpt lat="45.834982" lon="9.18918"><time>2024-05-04T12:03:26.000Z</time><ele>959</ele></trkpt><trkpt lat="45.834978" lon="9.18918"><time>2024-05-04T12:03:27.000Z</time><ele>958.8</ele></trkpt><trkpt lat="45.834969" lon="9.189176"><time>2024-05-04T12:03:28.000Z</time><ele>958.8</ele></trkpt><trkpt lat="45.834959" lon="9.189176"><time>2024-05-04T12:03:29.000Z</time><ele>958.6</ele></trkpt><trkpt lat="45.834956" lon="9.18918"><time>2024-05-04T12:03:30.000Z</time><ele>958.6</ele></trkpt><trkpt lat="45.834946" lon="9.189182"><time>2024-05-04T12:03:31.000Z</time><ele>958.6</ele></trkpt><trkpt lat="45.834931" lon="9.189192"><time>2024-05-04T12:03:32.000Z</time><ele>958.4</ele></trkpt><trkpt lat="45.834915" lon="9.189206"><time>2024-05-04T12:03:33.000Z</time><ele>958.4</ele></trkpt><trkpt lat="45.834901" lon="9.189216"><time>2024-05-04T12:03:34.000Z</time><ele>958.4</ele></trkpt><trkpt lat="45.834886" lon="9.189227"><time>2024-05-04T12:03:35.000Z</time><ele>958.2</ele></trkpt><trkpt lat="45.834872" lon="9.189231"><time>2024-05-04T12:03:36.000Z</time><ele>958</ele></trkpt><trkpt lat="45.834861" lon="9.189233"><time>2024-05-04T12:03:37.000Z</time><ele>958</ele></trkpt><trkpt lat="45.834848" lon="9.18923"><time>2024-05-04T12:03:38.000Z</time><ele>957.8</ele></trkpt><trkpt lat="45.834831" lon="9.189223"><time>2024-05-04T12:03:39.000Z</time><ele>957.8</ele></trkpt><trkpt lat="45.834811" lon="9.189214"><time>2024-05-04T12:03:40.000Z</time><ele>957.6</ele></trkpt><trkpt lat="45.834809" lon="9.189215"><time>2024-05-04T12:03:41.000Z</time><ele>957.6</ele></trkpt><trkpt lat="45.834798" lon="9.189219"><time>2024-05-04T12:03:42.000Z</time><ele>957.4</ele></trkpt><trkpt lat="45.834782" lon="9.189228"><time>2024-05-04T12:03:43.000Z</time><ele>957</ele></trkpt><trkpt lat="45.834765" lon="9.189236"><time>2024-05-04T12:03:44.000Z</time><ele>957</ele></trkpt><trkpt lat="45.834755" lon="9.189235"><time>2024-05-04T12:03:45.000Z</time><ele>956.8</ele></trkpt><trkpt lat="45.834744" lon="9.189227"><time>2024-05-04T12:03:46.000Z</time><ele>956.8</ele></trkpt><trkpt lat="45.834734" lon="9.189219"><time>2024-05-04T12:03:47.000Z</time><ele>956.8</ele></trkpt><trkpt lat="45.834724" lon="9.189218"><time>2024-05-04T12:03:48.000Z</time><ele>956.8</ele></trkpt><trkpt lat="45.834716" lon="9.189219"><time>2024-05-04T12:03:49.000Z</time><ele>956.8</ele></trkpt><trkpt lat="45.834703" lon="9.189218"><time>2024-05-04T12:03:50.000Z</time><ele>956.8</ele></trkpt><trkpt lat="45.834695" lon="9.189213"><time>2024-05-04T12:03:51.000Z</time><ele>956.8</ele></trkpt><trkpt lat="45.834686" lon="9.189205"><time>2024-05-04T12:03:52.000Z</time><ele>956.6</ele></trkpt><trkpt lat="45.834681" lon="9.189203"><time>2024-05-04T12:03:53.000Z</time><ele>956.6</ele></trkpt><trkpt lat="45.834675" lon="9.1892"><time>2024-05-04T12:03:54.000Z</time><ele>956.6</ele></trkpt><trkpt lat="45.834665" lon="9.189189"><time>2024-05-04T12:03:55.000Z</time><ele>956.6</ele></trkpt><trkpt lat="45.83466" lon="9.189187"><time>2024-05-04T12:03:56.000Z</time><ele>956.4</ele></trkpt><trkpt lat="45.834655" lon="9.189183"><time>2024-05-04T12:03:57.000Z</time><ele>956.4</ele></trkpt><trkpt lat="45.834648" lon="9.189183"><time>2024-05-04T12:03:58.000Z</time><ele>956.2</ele></trkpt><trkpt lat="45.834642" lon="9.189182"><time>2024-05-04T12:03:59.000Z</time><ele>955.8</ele></trkpt><trkpt lat="45.834633" lon="9.189183"><time>2024-05-04T12:04:00.000Z</time><ele>955.8</ele></trkpt><trkpt lat="45.834624" lon="9.189187"><time>2024-05-04T12:04:01.000Z</time><ele>955.6</ele></trkpt><trkpt lat="45.834613" lon="9.189195"><time>2024-05-04T12:04:02.000Z</time><ele>955.4</ele></trkpt><trkpt lat="45.834601" lon="9.189205"><time>2024-05-04T12:04:03.000Z</time><ele>955.2</ele></trkpt><trkpt lat="45.834584" lon="9.189211"><time>2024-05-04T12:04:04.000Z</time><ele>955.2</ele></trkpt><trkpt lat="45.834563" lon="9.189214"><time>2024-05-04T12:04:05.000Z</time><ele>954.8</ele></trkpt><trkpt lat="45.83455" lon="9.189214"><time>2024-05-04T12:04:06.000Z</time><ele>954.6</ele></trkpt><trkpt lat="45.834545" lon="9.189217"><time>2024-05-04T12:04:07.000Z</time><ele>954.4</ele></trkpt><trkpt lat="45.834544" lon="9.189227"><time>2024-05-04T12:04:08.000Z</time><ele>954.4</ele></trkpt><trkpt lat="45.834532" lon="9.18924"><time>2024-05-04T12:04:09.000Z</time><ele>954.2</ele></trkpt><trkpt lat="45.834521" lon="9.189252"><time>2024-05-04T12:04:10.000Z</time><ele>954</ele></trkpt><trkpt lat="45.834514" lon="9.189264"><time>2024-05-04T12:04:11.000Z</time><ele>953.8</ele></trkpt><trkpt lat="45.834508" lon="9.189276"><time>2024-05-04T12:04:12.000Z</time><ele>953.6</ele></trkpt><trkpt lat="45.834499" lon="9.189286"><time>2024-05-04T12:04:13.000Z</time><ele>953.4</ele></trkpt><trkpt lat="45.83449" lon="9.189291"><time>2024-05-04T12:04:14.000Z</time><ele>953.4</ele></trkpt><trkpt lat="45.834487" lon="9.189296"><time>2024-05-04T12:04:15.000Z</time><ele>953.2</ele></trkpt><trkpt lat="45.834482" lon="9.189309"><time>2024-05-04T12:04:16.000Z</time><ele>953.2</ele></trkpt><trkpt lat="45.834478" lon="9.189324"><time>2024-05-04T12:04:17.000Z</time><ele>953</ele></trkpt><trkpt lat="45.834476" lon="9.189342"><time>2024-05-04T12:04:18.000Z</time><ele>952.8</ele></trkpt><trkpt lat="45.834468" lon="9.189357"><time>2024-05-04T12:04:19.000Z</time><ele>952.6</ele></trkpt><trkpt lat="45.834457" lon="9.189373"><time>2024-05-04T12:04:20.000Z</time><ele>952.4</ele></trkpt><trkpt lat="45.834452" lon="9.189385"><time>2024-05-04T12:04:21.000Z</time><ele>952.2</ele></trkpt><trkpt lat="45.834442" lon="9.189395"><time>2024-05-04T12:04:22.000Z</time><ele>952.2</ele></trkpt><trkpt lat="45.834438" lon="9.189398"><time>2024-05-04T12:04:23.000Z</time><ele>952</ele></trkpt><trkpt lat="45.834436" lon="9.18941"><time>2024-05-04T12:04:24.000Z</time><ele>952</ele></trkpt><trkpt lat="45.834424" lon="9.189413"><time>2024-05-04T12:04:25.000Z</time><ele>951.8</ele></trkpt><trkpt lat="45.834414" lon="9.189418"><time>2024-05-04T12:04:26.000Z</time><ele>951.6</ele></trkpt><trkpt lat="45.834401" lon="9.189424"><time>2024-05-04T12:04:27.000Z</time><ele>951.4</ele></trkpt><trkpt lat="45.834388" lon="9.189433"><time>2024-05-04T12:04:28.000Z</time><ele>951.2</ele></trkpt><trkpt lat="45.834375" lon="9.18944"><time>2024-05-04T12:04:29.000Z</time><ele>951.2</ele></trkpt><trkpt lat="45.834362" lon="9.189451"><time>2024-05-04T12:04:30.000Z</time><ele>951</ele></trkpt><trkpt lat="45.834351" lon="9.189462"><time>2024-05-04T12:04:31.000Z</time><ele>950.8</ele></trkpt><trkpt lat="45.834339" lon="9.189462"><time>2024-05-04T12:04:32.000Z</time><ele>950.8</ele></trkpt><trkpt lat="45.834325" lon="9.189467"><time>2024-05-04T12:04:33.000Z</time><ele>950.6</ele></trkpt><trkpt lat="45.83431" lon="9.189477"><time>2024-05-04T12:04:34.000Z</time><ele>950.4</ele></trkpt><trkpt lat="45.8343" lon="9.189491"><time>2024-05-04T12:04:35.000Z</time><ele>950.2</ele></trkpt><trkpt lat="45.834287" lon="9.189505"><time>2024-05-04T12:04:36.000Z</time><ele>950.2</ele></trkpt><trkpt lat="45.83428" lon="9.189512"><time>2024-05-04T12:04:37.000Z</time><ele>950.2</ele></trkpt><trkpt lat="45.834273" lon="9.189522"><time>2024-05-04T12:04:38.000Z</time><ele>950</ele></trkpt><trkpt lat="45.834263" lon="9.189531"><time>2024-05-04T12:04:39.000Z</time><ele>949.8</ele></trkpt><trkpt lat="45.834259" lon="9.189533"><time>2024-05-04T12:04:40.000Z</time><ele>949.8</ele></trkpt><trkpt lat="45.83425" lon="9.189537"><time>2024-05-04T12:04:41.000Z</time><ele>949.8</ele></trkpt><trkpt lat="45.834239" lon="9.189539"><time>2024-05-04T12:04:42.000Z</time><ele>949.6</ele></trkpt><trkpt lat="45.834228" lon="9.189542"><time>2024-05-04T12:04:43.000Z</time><ele>949.6</ele></trkpt><trkpt lat="45.834215" lon="9.189543"><time>2024-05-04T12:04:44.000Z</time><ele>949.4</ele></trkpt><trkpt lat="45.834204" lon="9.189551"><time>2024-05-04T12:04:45.000Z</time><ele>949.4</ele></trkpt><trkpt lat="45.834196" lon="9.189563"><time>2024-05-04T12:04:46.000Z</time><ele>949.4</ele></trkpt><trkpt lat="45.834187" lon="9.189576"><time>2024-05-04T12:04:47.000Z</time><ele>949.2</ele></trkpt><trkpt lat="45.834175" lon="9.189582"><time>2024-05-04T12:04:48.000Z</time><ele>949.2</ele></trkpt><trkpt lat="45.834169" lon="9.189581"><time>2024-05-04T12:04:49.000Z</time><ele>949.2</ele></trkpt><trkpt lat="45.834157" lon="9.189584"><time>2024-05-04T12:04:50.000Z</time><ele>949</ele></trkpt><trkpt lat="45.834144" lon="9.189582"><time>2024-05-04T12:04:51.000Z</time><ele>949</ele></trkpt><trkpt lat="45.834132" lon="9.189582"><time>2024-05-04T12:04:52.000Z</time><ele>949</ele></trkpt><trkpt lat="45.834123" lon="9.189585"><time>2024-05-04T12:04:53.000Z</time><ele>948.8</ele></trkpt><trkpt lat="45.834117" lon="9.189599"><time>2024-05-04T12:04:54.000Z</time><ele>948.8</ele></trkpt><trkpt lat="45.834109" lon="9.189621"><time>2024-05-04T12:04:55.000Z</time><ele>948.8</ele></trkpt><trkpt lat="45.8341" lon="9.18964"><time>2024-05-04T12:04:56.000Z</time><ele>948.8</ele></trkpt><trkpt lat="45.834089" lon="9.189654"><time>2024-05-04T12:04:57.000Z</time><ele>948.8</ele></trkpt><trkpt lat="45.834081" lon="9.189665"><time>2024-05-04T12:04:58.000Z</time><ele>948.8</ele></trkpt><trkpt lat="45.834076" lon="9.189666"><time>2024-05-04T12:04:59.000Z</time><ele>948.6</ele></trkpt><trkpt lat="45.834073" lon="9.189669"><time>2024-05-04T12:05:00.000Z</time><ele>948.6</ele></trkpt><trkpt lat="45.834071" lon="9.189671"><time>2024-05-04T12:05:01.000Z</time><ele>948.6</ele></trkpt><trkpt lat="45.834069" lon="9.189682"><time>2024-05-04T12:05:02.000Z</time><ele>948.6</ele></trkpt><trkpt lat="45.834064" lon="9.189692"><time>2024-05-04T12:05:03.000Z</time><ele>948.6</ele></trkpt><trkpt lat="45.834052" lon="9.189702"><time>2024-05-04T12:05:04.000Z</time><ele>948.4</ele></trkpt><trkpt lat="45.834043" lon="9.189708"><time>2024-05-04T12:05:05.000Z</time><ele>948.4</ele></trkpt><trkpt lat="45.834038" lon="9.189715"><time>2024-05-04T12:05:06.000Z</time><ele>948.2</ele></trkpt><trkpt lat="45.834029" lon="9.189729"><time>2024-05-04T12:05:07.000Z</time><ele>948</ele></trkpt><trkpt lat="45.834024" lon="9.189741"><time>2024-05-04T12:05:08.000Z</time><ele>947.8</ele></trkpt><trkpt lat="45.834019" lon="9.189752"><time>2024-05-04T12:05:09.000Z</time><ele>947.4</ele></trkpt><trkpt lat="45.834013" lon="9.189766"><time>2024-05-04T12:05:10.000Z</time><ele>947.2</ele></trkpt><trkpt lat="45.834008" lon="9.189778"><time>2024-05-04T12:05:11.000Z</time><ele>947</ele></trkpt><trkpt lat="45.833998" lon="9.189789"><time>2024-05-04T12:05:12.000Z</time><ele>946.8</ele></trkpt><trkpt lat="45.833988" lon="9.1898"><time>2024-05-04T12:05:13.000Z</time><ele>946.8</ele></trkpt><trkpt lat="45.833981" lon="9.189821"><time>2024-05-04T12:05:14.000Z</time><ele>946.6</ele></trkpt><trkpt lat="45.83397" lon="9.189838"><time>2024-05-04T12:05:15.000Z</time><ele>946.4</ele></trkpt><trkpt lat="45.833964" lon="9.189846"><time>2024-05-04T12:05:16.000Z</time><ele>946.2</ele></trkpt><trkpt lat="45.833959" lon="9.18986"><time>2024-05-04T12:05:17.000Z</time><ele>946.2</ele></trkpt><trkpt lat="45.833958" lon="9.189871"><time>2024-05-04T12:05:18.000Z</time><ele>946</ele></trkpt><trkpt lat="45.833954" lon="9.189881"><time>2024-05-04T12:05:19.000Z</time><ele>945.8</ele></trkpt><trkpt lat="45.833946" lon="9.189891"><time>2024-05-04T12:05:20.000Z</time><ele>945.6</ele></trkpt><trkpt lat="45.83394" lon="9.1899"><time>2024-05-04T12:05:21.000Z</time><ele>945.4</ele></trkpt><trkpt lat="45.833933" lon="9.189917"><time>2024-05-04T12:05:22.000Z</time><ele>945.4</ele></trkpt><trkpt lat="45.833925" lon="9.189942"><time>2024-05-04T12:05:23.000Z</time><ele>945.2</ele></trkpt><trkpt lat="45.833917" lon="9.18996"><time>2024-05-04T12:05:24.000Z</time><ele>945.2</ele></trkpt><trkpt lat="45.833909" lon="9.189975"><time>2024-05-04T12:05:25.000Z</time><ele>945.2</ele></trkpt><trkpt lat="45.833905" lon="9.189979"><time>2024-05-04T12:05:26.000Z</time><ele>945</ele></trkpt><trkpt lat="45.833897" lon="9.189978"><time>2024-05-04T12:05:27.000Z</time><ele>945</ele></trkpt><trkpt lat="45.833892" lon="9.18999"><time>2024-05-04T12:05:28.000Z</time><ele>945</ele></trkpt><trkpt lat="45.833887" lon="9.190011"><time>2024-05-04T12:05:29.000Z</time><ele>945</ele></trkpt><trkpt lat="45.83388" lon="9.190035"><time>2024-05-04T12:05:30.000Z</time><ele>945</ele></trkpt><trkpt lat="45.833872" lon="9.190057"><time>2024-05-04T12:05:31.000Z</time><ele>944.8</ele></trkpt><trkpt lat="45.833864" lon="9.190072"><time>2024-05-04T12:05:32.000Z</time><ele>944.6</ele></trkpt><trkpt lat="45.833855" lon="9.190087"><time>2024-05-04T12:05:33.000Z</time><ele>944.6</ele></trkpt><trkpt lat="45.833843" lon="9.190097"><time>2024-05-04T12:05:34.000Z</time><ele>944.6</ele></trkpt><trkpt lat="45.833823" lon="9.19011"><time>2024-05-04T12:05:35.000Z</time><ele>944.4</ele></trkpt><trkpt lat="45.833809" lon="9.190115"><time>2024-05-04T12:05:36.000Z</time><ele>944.4</ele></trkpt><trkpt lat="45.833798" lon="9.190126"><time>2024-05-04T12:05:37.000Z</time><ele>944.4</ele></trkpt><trkpt lat="45.833788" lon="9.190144"><time>2024-05-04T12:05:38.000Z</time><ele>944.2</ele></trkpt><trkpt lat="45.833778" lon="9.190164"><time>2024-05-04T12:05:39.000Z</time><ele>944</ele></trkpt><trkpt lat="45.83377" lon="9.19018"><time>2024-05-04T12:05:40.000Z</time><ele>943.8</ele></trkpt><trkpt lat="45.833763" lon="9.190198"><time>2024-05-04T12:05:41.000Z</time><ele>943.8</ele></trkpt><trkpt lat="45.833753" lon="9.190218"><time>2024-05-04T12:05:42.000Z</time><ele>943.6</ele></trkpt><trkpt lat="45.83375" lon="9.190227"><time>2024-05-04T12:05:43.000Z</time><ele>943.4</ele></trkpt><trkpt lat="45.833746" lon="9.19024"><time>2024-05-04T12:05:44.000Z</time><ele>943.4</ele></trkpt><trkpt lat="45.833739" lon="9.190257"><time>2024-05-04T12:05:45.000Z</time><ele>943.2</ele></trkpt><trkpt lat="45.833734" lon="9.190273"><time>2024-05-04T12:05:46.000Z</time><ele>943.2</ele></trkpt><trkpt lat="45.833729" lon="9.190286"><time>2024-05-04T12:05:47.000Z</time><ele>943</ele></trkpt><trkpt lat="45.833719" lon="9.1903"><time>2024-05-04T12:05:48.000Z</time><ele>943</ele></trkpt><trkpt lat="45.833712" lon="9.190308"><time>2024-05-04T12:05:49.000Z</time><ele>943</ele></trkpt><trkpt lat="45.833707" lon="9.190316"><time>2024-05-04T12:05:50.000Z</time><ele>942.8</ele></trkpt><trkpt lat="45.833702" lon="9.190326"><time>2024-05-04T12:05:51.000Z</time><ele>942.6</ele></trkpt><trkpt lat="45.833696" lon="9.190336"><time>2024-05-04T12:05:52.000Z</time><ele>942.6</ele></trkpt><trkpt lat="45.83369" lon="9.190349"><time>2024-05-04T12:05:53.000Z</time><ele>942.4</ele></trkpt><trkpt lat="45.833685" lon="9.190367"><time>2024-05-04T12:05:54.000Z</time><ele>942.4</ele></trkpt><trkpt lat="45.833675" lon="9.190382"><time>2024-05-04T12:05:55.000Z</time><ele>942.4</ele></trkpt><trkpt lat="45.833665" lon="9.190391"><time>2024-05-04T12:05:56.000Z</time><ele>942.2</ele></trkpt><trkpt lat="45.833659" lon="9.190405"><time>2024-05-04T12:05:57.000Z</time><ele>942.2</ele></trkpt><trkpt lat="45.833658" lon="9.190415"><time>2024-05-04T12:05:58.000Z</time><ele>942.2</ele></trkpt><trkpt lat="45.833656" lon="9.190427"><time>2024-05-04T12:05:59.000Z</time><ele>942.2</ele></trkpt><trkpt lat="45.833654" lon="9.190443"><time>2024-05-04T12:06:00.000Z</time><ele>942</ele></trkpt><trkpt lat="45.833653" lon="9.190459"><time>2024-05-04T12:06:01.000Z</time><ele>941.8</ele></trkpt><trkpt lat="45.833649" lon="9.190472"><time>2024-05-04T12:06:02.000Z</time><ele>941.6</ele></trkpt><trkpt lat="45.833642" lon="9.19048"><time>2024-05-04T12:06:03.000Z</time><ele>941.6</ele></trkpt><trkpt lat="45.833637" lon="9.190494"><time>2024-05-04T12:06:04.000Z</time><ele>941.4</ele></trkpt><trkpt lat="45.83363" lon="9.190514"><time>2024-05-04T12:06:05.000Z</time><ele>941.2</ele></trkpt><trkpt lat="45.833623" lon="9.190533"><time>2024-05-04T12:06:06.000Z</time><ele>941.2</ele></trkpt><trkpt lat="45.833616" lon="9.190544"><time>2024-05-04T12:06:07.000Z</time><ele>941</ele></trkpt><trkpt lat="45.833616" lon="9.19055"><time>2024-05-04T12:06:08.000Z</time><ele>940.8</ele></trkpt><trkpt lat="45.833613" lon="9.190555"><time>2024-05-04T12:06:09.000Z</time><ele>940.8</ele></trkpt><trkpt lat="45.833608" lon="9.190564"><time>2024-05-04T12:06:10.000Z</time><ele>940.8</ele></trkpt><trkpt lat="45.833602" lon="9.190571"><time>2024-05-04T12:06:11.000Z</time><ele>940.8</ele></trkpt><trkpt lat="45.833595" lon="9.190585"><time>2024-05-04T12:06:12.000Z</time><ele>940.6</ele></trkpt><trkpt lat="45.833584" lon="9.190611"><time>2024-05-04T12:06:13.000Z</time><ele>940.6</ele></trkpt><trkpt lat="45.833576" lon="9.190624"><time>2024-05-04T12:06:14.000Z</time><ele>940.4</ele></trkpt><trkpt lat="45.833566" lon="9.190637"><time>2024-05-04T12:06:15.000Z</time><ele>940.4</ele></trkpt><trkpt lat="45.833558" lon="9.190641"><time>2024-05-04T12:06:16.000Z</time><ele>940.4</ele></trkpt><trkpt lat="45.833548" lon="9.190648"><time>2024-05-04T12:06:17.000Z</time><ele>940.4</ele></trkpt><trkpt lat="45.833538" lon="9.190665"><time>2024-05-04T12:06:18.000Z</time><ele>940.4</ele></trkpt><trkpt lat="45.83353" lon="9.190684"><time>2024-05-04T12:06:19.000Z</time><ele>940.4</ele></trkpt><trkpt lat="45.833519" lon="9.190702"><time>2024-05-04T12:06:20.000Z</time><ele>940.4</ele></trkpt><trkpt lat="45.83351" lon="9.190709"><time>2024-05-04T12:06:21.000Z</time><ele>940.4</ele></trkpt><trkpt lat="45.833502" lon="9.19072"><time>2024-05-04T12:06:22.000Z</time><ele>940.2</ele></trkpt><trkpt lat="45.833494" lon="9.190729"><time>2024-05-04T12:06:23.000Z</time><ele>940.2</ele></trkpt><trkpt lat="45.833487" lon="9.190743"><time>2024-05-04T12:06:24.000Z</time><ele>940</ele></trkpt><trkpt lat="45.833481" lon="9.190756"><time>2024-05-04T12:06:25.000Z</time><ele>940</ele></trkpt><trkpt lat="45.833472" lon="9.190771"><time>2024-05-04T12:06:26.000Z</time><ele>940</ele></trkpt><trkpt lat="45.833464" lon="9.19078"><time>2024-05-04T12:06:27.000Z</time><ele>940</ele></trkpt><trkpt lat="45.833457" lon="9.190788"><time>2024-05-04T12:06:28.000Z</time><ele>940</ele></trkpt><trkpt lat="45.833438" lon="9.190787"><time>2024-05-04T12:06:29.000Z</time><ele>940</ele></trkpt><trkpt lat="45.833434" lon="9.190796"><time>2024-05-04T12:06:30.000Z</time><ele>940</ele></trkpt><trkpt lat="45.833429" lon="9.190806"><time>2024-05-04T12:06:31.000Z</time><ele>940</ele></trkpt><trkpt lat="45.833423" lon="9.190818"><time>2024-05-04T12:06:32.000Z</time><ele>939.8</ele></trkpt><trkpt lat="45.833417" lon="9.190834"><time>2024-05-04T12:06:33.000Z</time><ele>939.8</ele></trkpt><trkpt lat="45.83341" lon="9.190848"><time>2024-05-04T12:06:34.000Z</time><ele>939.8</ele></trkpt><trkpt lat="45.833404" lon="9.190861"><time>2024-05-04T12:06:35.000Z</time><ele>939.8</ele></trkpt><trkpt lat="45.833396" lon="9.19087"><time>2024-05-04T12:06:36.000Z</time><ele>939.8</ele></trkpt><trkpt lat="45.833385" lon="9.190875"><time>2024-05-04T12:06:37.000Z</time><ele>939.6</ele></trkpt><trkpt lat="45.833374" lon="9.190883"><time>2024-05-04T12:06:38.000Z</time><ele>939.6</ele></trkpt><trkpt lat="45.833361" lon="9.19089"><time>2024-05-04T12:06:39.000Z</time><ele>939.4</ele></trkpt><trkpt lat="45.833349" lon="9.190899"><time>2024-05-04T12:06:40.000Z</time><ele>939.4</ele></trkpt><trkpt lat="45.833337" lon="9.190907"><time>2024-05-04T12:06:41.000Z</time><ele>939.4</ele></trkpt><trkpt lat="45.833329" lon="9.190911"><time>2024-05-04T12:06:42.000Z</time><ele>939.2</ele></trkpt><trkpt lat="45.833321" lon="9.190916"><time>2024-05-04T12:06:43.000Z</time><ele>939.2</ele></trkpt><trkpt lat="45.833311" lon="9.190925"><time>2024-05-04T12:06:44.000Z</time><ele>939.2</ele></trkpt><trkpt lat="45.833301" lon="9.190928"><time>2024-05-04T12:06:45.000Z</time><ele>939.2</ele></trkpt><trkpt lat="45.833289" lon="9.190933"><time>2024-05-04T12:06:46.000Z</time><ele>939.2</ele></trkpt><trkpt lat="45.833279" lon="9.190938"><time>2024-05-04T12:06:47.000Z</time><ele>939</ele></trkpt><trkpt lat="45.833268" lon="9.190948"><time>2024-05-04T12:06:48.000Z</time><ele>939</ele></trkpt><trkpt lat="45.833256" lon="9.190954"><time>2024-05-04T12:06:49.000Z</time><ele>938.8</ele></trkpt><trkpt lat="45.833243" lon="9.19096"><time>2024-05-04T12:06:50.000Z</time><ele>938.6</ele></trkpt><trkpt lat="45.833231" lon="9.190967"><time>2024-05-04T12:06:51.000Z</time><ele>938.6</ele></trkpt><trkpt lat="45.833221" lon="9.190973"><time>2024-05-04T12:06:52.000Z</time><ele>938.6</ele></trkpt><trkpt lat="45.833213" lon="9.190981"><time>2024-05-04T12:06:53.000Z</time><ele>938.4</ele></trkpt><trkpt lat="45.833203" lon="9.190986"><time>2024-05-04T12:06:54.000Z</time><ele>938.4</ele></trkpt><trkpt lat="45.833193" lon="9.190995"><time>2024-05-04T12:06:55.000Z</time><ele>938.4</ele></trkpt><trkpt lat="45.833183" lon="9.191005"><time>2024-05-04T12:06:56.000Z</time><ele>938.4</ele></trkpt><trkpt lat="45.833173" lon="9.191016"><time>2024-05-04T12:06:57.000Z</time><ele>938.4</ele></trkpt><trkpt lat="45.833164" lon="9.19103"><time>2024-05-04T12:06:58.000Z</time><ele>938.2</ele></trkpt><trkpt lat="45.833151" lon="9.191044"><time>2024-05-04T12:06:59.000Z</time><ele>938.2</ele></trkpt><trkpt lat="45.833141" lon="9.191052"><time>2024-05-04T12:07:00.000Z</time><ele>938.2</ele></trkpt><trkpt lat="45.833133" lon="9.191056"><time>2024-05-04T12:07:01.000Z</time><ele>938</ele></trkpt><trkpt lat="45.833123" lon="9.191056"><time>2024-05-04T12:07:02.000Z</time><ele>938</ele></trkpt><trkpt lat="45.833115" lon="9.191058"><time>2024-05-04T12:07:03.000Z</time><ele>938</ele></trkpt><trkpt lat="45.833111" lon="9.191062"><time>2024-05-04T12:07:04.000Z</time><ele>937.8</ele></trkpt><trkpt lat="45.833103" lon="9.191065"><time>2024-05-04T12:07:05.000Z</time><ele>937.6</ele></trkpt><trkpt lat="45.833093" lon="9.191064"><time>2024-05-04T12:07:06.000Z</time><ele>937.4</ele></trkpt><trkpt lat="45.833081" lon="9.191064"><time>2024-05-04T12:07:07.000Z</time><ele>937.2</ele></trkpt><trkpt lat="45.833072" lon="9.191072"><time>2024-05-04T12:07:08.000Z</time><ele>937</ele></trkpt><trkpt lat="45.833065" lon="9.191074"><time>2024-05-04T12:07:09.000Z</time><ele>936.8</ele></trkpt><trkpt lat="45.83306" lon="9.191075"><time>2024-05-04T12:07:10.000Z</time><ele>936.6</ele></trkpt><trkpt lat="45.83305" lon="9.191089"><time>2024-05-04T12:07:11.000Z</time><ele>936.6</ele></trkpt><trkpt lat="45.83304" lon="9.191102"><time>2024-05-04T12:07:12.000Z</time><ele>936.4</ele></trkpt><trkpt lat="45.833035" lon="9.191106"><time>2024-05-04T12:07:13.000Z</time><ele>936.2</ele></trkpt><trkpt lat="45.833032" lon="9.191108"><time>2024-05-04T12:07:14.000Z</time><ele>936</ele></trkpt><trkpt lat="45.83303" lon="9.191107"><time>2024-05-04T12:07:15.000Z</time><ele>935.8</ele></trkpt><trkpt lat="45.833023" lon="9.191107"><time>2024-05-04T12:07:16.000Z</time><ele>935.6</ele></trkpt><trkpt lat="45.833016" lon="9.191107"><time>2024-05-04T12:07:17.000Z</time><ele>935.4</ele></trkpt><trkpt lat="45.833008" lon="9.191113"><time>2024-05-04T12:07:18.000Z</time><ele>935.2</ele></trkpt><trkpt lat="45.833006" lon="9.191113"><time>2024-05-04T12:07:19.000Z</time><ele>935.2</ele></trkpt><trkpt lat="45.833007" lon="9.191117"><time>2024-05-04T12:07:20.000Z</time><ele>935</ele></trkpt><trkpt lat="45.833009" lon="9.191116"><time>2024-05-04T12:07:21.000Z</time><ele>935</ele></trkpt><trkpt lat="45.833004" lon="9.191138"><time>2024-05-04T12:07:22.000Z</time><ele>935</ele></trkpt><trkpt lat="45.833002" lon="9.191139"><time>2024-05-04T12:07:23.000Z</time><ele>935</ele></trkpt><trkpt lat="45.833001" lon="9.191139"><time>2024-05-04T12:07:24.000Z</time><ele>935</ele></trkpt><trkpt lat="45.833002" lon="9.191139"><time>2024-05-04T12:07:25.000Z</time><ele>935</ele></trkpt><trkpt lat="45.833004" lon="9.19114"><time>2024-05-04T12:07:26.000Z</time><ele>935</ele></trkpt><trkpt lat="45.833006" lon="9.191142"><time>2024-05-04T12:07:27.000Z</time><ele>935</ele></trkpt><trkpt lat="45.833005" lon="9.19114"><time>2024-05-04T12:07:28.000Z</time><ele>935</ele></trkpt><trkpt lat="45.832998" lon="9.191137"><time>2024-05-04T12:07:29.000Z</time><ele>935</ele></trkpt><trkpt lat="45.83299" lon="9.19114"><time>2024-05-04T12:07:30.000Z</time><ele>935</ele></trkpt><trkpt lat="45.832984" lon="9.191148"><time>2024-05-04T12:07:31.000Z</time><ele>935</ele></trkpt><trkpt lat="45.832978" lon="9.19115"><time>2024-05-04T12:07:32.000Z</time><ele>935</ele></trkpt><trkpt lat="45.832968" lon="9.191158"><time>2024-05-04T12:07:33.000Z</time><ele>935</ele></trkpt><trkpt lat="45.832966" lon="9.191159"><time>2024-05-04T12:07:34.000Z</time><ele>934.8</ele></trkpt><trkpt lat="45.832961" lon="9.191162"><time>2024-05-04T12:07:35.000Z</time><ele>934.8</ele></trkpt><trkpt lat="45.832957" lon="9.191167"><time>2024-05-04T12:07:36.000Z</time><ele>934.6</ele></trkpt><trkpt lat="45.832953" lon="9.191171"><time>2024-05-04T12:07:37.000Z</time><ele>934.2</ele></trkpt><trkpt lat="45.832944" lon="9.191173"><time>2024-05-04T12:07:38.000Z</time><ele>933.8</ele></trkpt><trkpt lat="45.83294" lon="9.191177"><time>2024-05-04T12:07:39.000Z</time><ele>933.8</ele></trkpt><trkpt lat="45.832935" lon="9.191182"><time>2024-05-04T12:07:40.000Z</time><ele>933.6</ele></trkpt><trkpt lat="45.832929" lon="9.191179"><time>2024-05-04T12:07:41.000Z</time><ele>933.4</ele></trkpt><trkpt lat="45.832924" lon="9.191173"><time>2024-05-04T12:07:42.000Z</time><ele>933.2</ele></trkpt><trkpt lat="45.832919" lon="9.191172"><time>2024-05-04T12:07:43.000Z</time><ele>933</ele></trkpt><trkpt lat="45.832913" lon="9.191166"><time>2024-05-04T12:07:44.000Z</time><ele>932.8</ele></trkpt><trkpt lat="45.832906" lon="9.19116"><time>2024-05-04T12:07:45.000Z</time><ele>932.6</ele></trkpt><trkpt lat="45.832901" lon="9.191165"><time>2024-05-04T12:07:46.000Z</time><ele>932.4</ele></trkpt><trkpt lat="45.832895" lon="9.191166"><time>2024-05-04T12:07:47.000Z</time><ele>932.4</ele></trkpt><trkpt lat="45.83289" lon="9.19116"><time>2024-05-04T12:07:48.000Z</time><ele>932</ele></trkpt><trkpt lat="45.832887" lon="9.191148"><time>2024-05-04T12:07:49.000Z</time><ele>931.8</ele></trkpt><trkpt lat="45.832883" lon="9.191137"><time>2024-05-04T12:07:50.000Z</time><ele>931.6</ele></trkpt><trkpt lat="45.83288" lon="9.191123"><time>2024-05-04T12:07:51.000Z</time><ele>931.4</ele></trkpt><trkpt lat="45.832876" lon="9.191113"><time>2024-05-04T12:07:52.000Z</time><ele>931.2</ele></trkpt><trkpt lat="45.83287" lon="9.191106"><time>2024-05-04T12:07:53.000Z</time><ele>931</ele></trkpt><trkpt lat="45.832862" lon="9.191102"><time>2024-05-04T12:07:54.000Z</time><ele>931</ele></trkpt><trkpt lat="45.832855" lon="9.191093"><time>2024-05-04T12:07:55.000Z</time><ele>930.6</ele></trkpt><trkpt lat="45.832851" lon="9.191083"><time>2024-05-04T12:07:56.000Z</time><ele>930.2</ele></trkpt><trkpt lat="45.832846" lon="9.19107"><time>2024-05-04T12:07:57.000Z</time><ele>930.2</ele></trkpt><trkpt lat="45.832841" lon="9.19106"><time>2024-05-04T12:07:58.000Z</time><ele>930</ele></trkpt><trkpt lat="45.832837" lon="9.191056"><time>2024-05-04T12:07:59.000Z</time><ele>929.8</ele></trkpt><trkpt lat="45.832834" lon="9.191055"><time>2024-05-04T12:08:00.000Z</time><ele>929.6</ele></trkpt><trkpt lat="45.832833" lon="9.191059"><time>2024-05-04T12:08:01.000Z</time><ele>929.4</ele></trkpt><trkpt lat="45.832825" lon="9.191056"><time>2024-05-04T12:08:02.000Z</time><ele>929.2</ele></trkpt><trkpt lat="45.832822" lon="9.191054"><time>2024-05-04T12:08:03.000Z</time><ele>929</ele></trkpt><trkpt lat="45.832819" lon="9.191049"><time>2024-05-04T12:08:04.000Z</time><ele>928.8</ele></trkpt><trkpt lat="45.832812" lon="9.191051"><time>2024-05-04T12:08:05.000Z</time><ele>928.4</ele></trkpt><trkpt lat="45.832806" lon="9.191047"><time>2024-05-04T12:08:06.000Z</time><ele>928</ele></trkpt><trkpt lat="45.832799" lon="9.191026"><time>2024-05-04T12:08:07.000Z</time><ele>927.8</ele></trkpt><trkpt lat="45.832791" lon="9.191005"><time>2024-05-04T12:08:08.000Z</time><ele>927.6</ele></trkpt><trkpt lat="45.832785" lon="9.190986"><time>2024-05-04T12:08:09.000Z</time><ele>927.4</ele></trkpt><trkpt lat="45.83277" lon="9.19097"><time>2024-05-04T12:08:10.000Z</time><ele>927.2</ele></trkpt><trkpt lat="45.832756" lon="9.190966"><time>2024-05-04T12:08:11.000Z</time><ele>926.8</ele></trkpt><trkpt lat="45.832752" lon="9.190964"><time>2024-05-04T12:08:12.000Z</time><ele>926.6</ele></trkpt><trkpt lat="45.832751" lon="9.190965"><time>2024-05-04T12:08:13.000Z</time><ele>926.6</ele></trkpt><trkpt lat="45.83275" lon="9.190968"><time>2024-05-04T12:08:14.000Z</time><ele>926.4</ele></trkpt><trkpt lat="45.832749" lon="9.19097"><time>2024-05-04T12:08:15.000Z</time><ele>926.2</ele></trkpt><trkpt lat="45.832742" lon="9.190967"><time>2024-05-04T12:08:16.000Z</time><ele>926</ele></trkpt><trkpt lat="45.832732" lon="9.190961"><time>2024-05-04T12:08:17.000Z</time><ele>925.6</ele></trkpt><trkpt lat="45.83273" lon="9.190961"><time>2024-05-04T12:08:18.000Z</time><ele>925.4</ele></trkpt><trkpt lat="45.832729" lon="9.190961"><time>2024-05-04T12:08:19.000Z</time><ele>925.2</ele></trkpt><trkpt lat="45.832727" lon="9.190958"><time>2024-05-04T12:08:20.000Z</time><ele>925</ele></trkpt><trkpt lat="45.832717" lon="9.190947"><time>2024-05-04T12:08:21.000Z</time><ele>924.8</ele></trkpt><trkpt lat="45.832708" lon="9.19094"><time>2024-05-04T12:08:22.000Z</time><ele>924.6</ele></trkpt><trkpt lat="45.8327" lon="9.190935"><time>2024-05-04T12:08:23.000Z</time><ele>924.4</ele></trkpt><trkpt lat="45.832695" lon="9.190937"><time>2024-05-04T12:08:24.000Z</time><ele>924.4</ele></trkpt><trkpt lat="45.832689" lon="9.190927"><time>2024-05-04T12:08:25.000Z</time><ele>924.4</ele></trkpt><trkpt lat="45.832686" lon="9.190924"><time>2024-05-04T12:08:26.000Z</time><ele>924</ele></trkpt><trkpt lat="45.832683" lon="9.190924"><time>2024-05-04T12:08:27.000Z</time><ele>923.6</ele></trkpt><trkpt lat="45.832677" lon="9.190922"><time>2024-05-04T12:08:28.000Z</time><ele>923.6</ele></trkpt><trkpt lat="45.832668" lon="9.190922"><time>2024-05-04T12:08:29.000Z</time><ele>923.4</ele></trkpt><trkpt lat="45.832658" lon="9.19092"><time>2024-05-04T12:08:30.000Z</time><ele>923</ele></trkpt><trkpt lat="45.832654" lon="9.190918"><time>2024-05-04T12:08:31.000Z</time><ele>922.8</ele></trkpt><trkpt lat="45.832648" lon="9.190911"><time>2024-05-04T12:08:32.000Z</time><ele>922.8</ele></trkpt><trkpt lat="45.832644" lon="9.190898"><time>2024-05-04T12:08:33.000Z</time><ele>922.6</ele></trkpt><trkpt lat="45.83264" lon="9.190884"><time>2024-05-04T12:08:34.000Z</time><ele>922.6</ele></trkpt><trkpt lat="45.832635" lon="9.19087"><time>2024-05-04T12:08:35.000Z</time><ele>922.6</ele></trkpt><trkpt lat="45.832628" lon="9.190856"><time>2024-05-04T12:08:36.000Z</time><ele>922.4</ele></trkpt><trkpt lat="45.83262" lon="9.19084"><time>2024-05-04T12:08:37.000Z</time><ele>922.4</ele></trkpt><trkpt lat="45.832611" lon="9.190827"><time>2024-05-04T12:08:38.000Z</time><ele>922.4</ele></trkpt><trkpt lat="45.832603" lon="9.190816"><time>2024-05-04T12:08:39.000Z</time><ele>922.2</ele></trkpt><trkpt lat="45.8326" lon="9.190803"><time>2024-05-04T12:08:40.000Z</time><ele>922.2</ele></trkpt><trkpt lat="45.832591" lon="9.190789"><time>2024-05-04T12:08:41.000Z</time><ele>922.2</ele></trkpt><trkpt lat="45.832576" lon="9.190778"><time>2024-05-04T12:08:42.000Z</time><ele>922.2</ele></trkpt><trkpt lat="45.832557" lon="9.190767"><time>2024-05-04T12:08:43.000Z</time><ele>922</ele></trkpt><trkpt lat="45.832536" lon="9.190754"><time>2024-05-04T12:08:44.000Z</time><ele>922</ele></trkpt><trkpt lat="45.832519" lon="9.19074"><time>2024-05-04T12:08:45.000Z</time><ele>921.8</ele></trkpt><trkpt lat="45.832504" lon="9.190727"><time>2024-05-04T12:08:46.000Z</time><ele>921.8</ele></trkpt><trkpt lat="45.832488" lon="9.190717"><time>2024-05-04T12:08:47.000Z</time><ele>921.6</ele></trkpt><trkpt lat="45.832477" lon="9.190716"><time>2024-05-04T12:08:48.000Z</time><ele>921.6</ele></trkpt><trkpt lat="45.832473" lon="9.190717"><time>2024-05-04T12:08:49.000Z</time><ele>921.4</ele></trkpt><trkpt lat="45.832471" lon="9.190717"><time>2024-05-04T12:08:50.000Z</time><ele>921.4</ele></trkpt><trkpt lat="45.83247" lon="9.190718"><time>2024-05-04T12:08:51.000Z</time><ele>921.4</ele></trkpt><trkpt lat="45.832471" lon="9.190718"><time>2024-05-04T12:08:52.000Z</time><ele>921.2</ele></trkpt><trkpt lat="45.832466" lon="9.190711"><time>2024-05-04T12:08:53.000Z</time><ele>921.2</ele></trkpt><trkpt lat="45.832462" lon="9.190707"><time>2024-05-04T12:08:54.000Z</time><ele>921.2</ele></trkpt><trkpt lat="45.83246" lon="9.190707"><time>2024-05-04T12:08:55.000Z</time><ele>921.2</ele></trkpt><trkpt lat="45.832457" lon="9.190707"><time>2024-05-04T12:08:56.000Z</time><ele>921.2</ele></trkpt><trkpt lat="45.83245" lon="9.190708"><time>2024-05-04T12:08:57.000Z</time><ele>921</ele></trkpt><trkpt lat="45.832443" lon="9.190714"><time>2024-05-04T12:08:58.000Z</time><ele>921</ele></trkpt><trkpt lat="45.832436" lon="9.190711"><time>2024-05-04T12:08:59.000Z</time><ele>921</ele></trkpt><trkpt lat="45.832432" lon="9.190715"><time>2024-05-04T12:09:00.000Z</time><ele>921</ele></trkpt><trkpt lat="45.832419" lon="9.190708"><time>2024-05-04T12:09:01.000Z</time><ele>921</ele></trkpt><trkpt lat="45.832409" lon="9.190703"><time>2024-05-04T12:09:02.000Z</time><ele>921</ele></trkpt><trkpt lat="45.832397" lon="9.190705"><time>2024-05-04T12:09:03.000Z</time><ele>921</ele></trkpt><trkpt lat="45.832384" lon="9.19071"><time>2024-05-04T12:09:04.000Z</time><ele>921</ele></trkpt><trkpt lat="45.83237" lon="9.190713"><time>2024-05-04T12:09:05.000Z</time><ele>921</ele></trkpt><trkpt lat="45.832355" lon="9.190713"><time>2024-05-04T12:09:06.000Z</time><ele>921</ele></trkpt><trkpt lat="45.832344" lon="9.190714"><time>2024-05-04T12:09:07.000Z</time><ele>921</ele></trkpt><trkpt lat="45.832339" lon="9.190716"><time>2024-05-04T12:09:08.000Z</time><ele>921</ele></trkpt><trkpt lat="45.83234" lon="9.190716"><time>2024-05-04T12:09:09.000Z</time><ele>921</ele></trkpt><trkpt lat="45.832339" lon="9.190711"><time>2024-05-04T12:09:10.000Z</time><ele>921</ele></trkpt><trkpt lat="45.832339" lon="9.19071"><time>2024-05-04T12:09:11.000Z</time><ele>921</ele></trkpt><trkpt lat="45.83234" lon="9.190706"><time>2024-05-04T12:09:12.000Z</time><ele>921</ele></trkpt><trkpt lat="45.832336" lon="9.190708"><time>2024-05-04T12:09:13.000Z</time><ele>921</ele></trkpt><trkpt lat="45.832332" lon="9.19071"><time>2024-05-04T12:09:14.000Z</time><ele>921</ele></trkpt><trkpt lat="45.832329" lon="9.190714"><time>2024-05-04T12:09:15.000Z</time><ele>920.8</ele></trkpt><trkpt lat="45.832316" lon="9.190713"><time>2024-05-04T12:09:16.000Z</time><ele>920.8</ele></trkpt><trkpt lat="45.832312" lon="9.190713"><time>2024-05-04T12:09:17.000Z</time><ele>920.8</ele></trkpt><trkpt lat="45.832311" lon="9.190713"><time>2024-05-04T12:09:18.000Z</time><ele>920.8</ele></trkpt><trkpt lat="45.832312" lon="9.190713"><time>2024-05-04T12:09:19.000Z</time><ele>920.8</ele></trkpt><trkpt lat="45.832313" lon="9.190716"><time>2024-05-04T12:09:20.000Z</time><ele>921</ele></trkpt><trkpt lat="45.832315" lon="9.190721"><time>2024-05-04T12:09:21.000Z</time><ele>921</ele></trkpt><trkpt lat="45.832317" lon="9.19072"><time>2024-05-04T12:09:22.000Z</time><ele>921</ele></trkpt><trkpt lat="45.832318" lon="9.190722"><time>2024-05-04T12:09:23.000Z</time><ele>921</ele></trkpt><trkpt lat="45.83232" lon="9.190719"><time>2024-05-04T12:09:24.000Z</time><ele>921</ele></trkpt><trkpt lat="45.832322" lon="9.190718"><time>2024-05-04T12:09:25.000Z</time><ele>921</ele></trkpt><trkpt lat="45.832323" lon="9.190714"><time>2024-05-04T12:09:26.000Z</time><ele>921.2</ele></trkpt><trkpt lat="45.832323" lon="9.190711"><time>2024-05-04T12:09:27.000Z</time><ele>921.2</ele></trkpt><trkpt lat="45.832323" lon="9.190708"><time>2024-05-04T12:09:28.000Z</time><ele>921.4</ele></trkpt><trkpt lat="45.832323" lon="9.190707"><time>2024-05-04T12:09:29.000Z</time><ele>921.4</ele></trkpt><trkpt lat="45.832322" lon="9.190707"><time>2024-05-04T12:09:30.000Z</time><ele>921.4</ele></trkpt><trkpt lat="45.832317" lon="9.190708"><time>2024-05-04T12:09:31.000Z</time><ele>921.4</ele></trkpt><trkpt lat="45.832319" lon="9.190706"><time>2024-05-04T12:09:32.000Z</time><ele>921.4</ele></trkpt><trkpt lat="45.832319" lon="9.190705"><time>2024-05-04T12:09:33.000Z</time><ele>921.4</ele></trkpt><trkpt lat="45.83232" lon="9.190702"><time>2024-05-04T12:09:34.000Z</time><ele>921.2</ele></trkpt><trkpt lat="45.832311" lon="9.190693"><time>2024-05-04T12:09:35.000Z</time><ele>921.2</ele></trkpt><trkpt lat="45.832302" lon="9.190696"><time>2024-05-04T12:09:36.000Z</time><ele>921.2</ele></trkpt><trkpt lat="45.832288" lon="9.190696"><time>2024-05-04T12:09:37.000Z</time><ele>921.2</ele></trkpt><trkpt lat="45.832268" lon="9.190688"><time>2024-05-04T12:09:38.000Z</time><ele>921</ele></trkpt><trkpt lat="45.832257" lon="9.190687"><time>2024-05-04T12:09:39.000Z</time><ele>921</ele></trkpt><trkpt lat="45.832245" lon="9.190692"><time>2024-05-04T12:09:40.000Z</time><ele>921</ele></trkpt><trkpt lat="45.83223" lon="9.190696"><time>2024-05-04T12:09:41.000Z</time><ele>920.8</ele></trkpt><trkpt lat="45.832217" lon="9.190694"><time>2024-05-04T12:09:42.000Z</time><ele>920.8</ele></trkpt><trkpt lat="45.832204" lon="9.190697"><time>2024-05-04T12:09:43.000Z</time><ele>920.8</ele></trkpt><trkpt lat="45.832192" lon="9.190698"><time>2024-05-04T12:09:44.000Z</time><ele>920.8</ele></trkpt><trkpt lat="45.832182" lon="9.190692"><time>2024-05-04T12:09:45.000Z</time><ele>920.8</ele></trkpt><trkpt lat="45.83217" lon="9.190689"><time>2024-05-04T12:09:46.000Z</time><ele>920.6</ele></trkpt><trkpt lat="45.832155" lon="9.190685"><time>2024-05-04T12:09:47.000Z</time><ele>920.6</ele></trkpt><trkpt lat="45.832141" lon="9.190682"><time>2024-05-04T12:09:48.000Z</time><ele>920.6</ele></trkpt><trkpt lat="45.832128" lon="9.190681"><time>2024-05-04T12:09:49.000Z</time><ele>920.4</ele></trkpt><trkpt lat="45.832112" lon="9.190685"><time>2024-05-04T12:09:50.000Z</time><ele>920.4</ele></trkpt><trkpt lat="45.832097" lon="9.190689"><time>2024-05-04T12:09:51.000Z</time><ele>920.2</ele></trkpt><trkpt lat="45.832079" lon="9.190693"><time>2024-05-04T12:09:52.000Z</time><ele>920.2</ele></trkpt><trkpt lat="45.832063" lon="9.190685"><time>2024-05-04T12:09:53.000Z</time><ele>920.2</ele></trkpt><trkpt lat="45.832057" lon="9.190679"><time>2024-05-04T12:09:54.000Z</time><ele>920</ele></trkpt><trkpt lat="45.832054" lon="9.190678"><time>2024-05-04T12:09:55.000Z</time><ele>920</ele></trkpt><trkpt lat="45.832046" lon="9.190678"><time>2024-05-04T12:09:56.000Z</time><ele>920</ele></trkpt><trkpt lat="45.832037" lon="9.190676"><time>2024-05-04T12:09:57.000Z</time><ele>920</ele></trkpt><trkpt lat="45.83203" lon="9.190671"><time>2024-05-04T12:09:58.000Z</time><ele>919.8</ele></trkpt><trkpt lat="45.83202" lon="9.190669"><time>2024-05-04T12:09:59.000Z</time><ele>919.8</ele></trkpt><trkpt lat="45.832014" lon="9.190667"><time>2024-05-04T12:10:00.000Z</time><ele>919.8</ele></trkpt><trkpt lat="45.832005" lon="9.190665"><time>2024-05-04T12:10:01.000Z</time><ele>919.6</ele></trkpt><trkpt lat="45.831994" lon="9.190657"><time>2024-05-04T12:10:02.000Z</time><ele>919.6</ele></trkpt><trkpt lat="45.831982" lon="9.190651"><time>2024-05-04T12:10:03.000Z</time><ele>919.4</ele></trkpt><trkpt lat="45.831973" lon="9.19064"><time>2024-05-04T12:10:04.000Z</time><ele>919.4</ele></trkpt><trkpt lat="45.83196" lon="9.190632"><time>2024-05-04T12:10:05.000Z</time><ele>919.2</ele></trkpt><trkpt lat="45.831946" lon="9.190625"><time>2024-05-04T12:10:06.000Z</time><ele>919</ele></trkpt><trkpt lat="45.831936" lon="9.190618"><time>2024-05-04T12:10:07.000Z</time><ele>918.8</ele></trkpt><trkpt lat="45.831927" lon="9.190609"><time>2024-05-04T12:10:08.000Z</time><ele>918.6</ele></trkpt><trkpt lat="45.831918" lon="9.190594"><time>2024-05-04T12:10:09.000Z</time><ele>918.6</ele></trkpt><trkpt lat="45.831905" lon="9.190581"><time>2024-05-04T12:10:10.000Z</time><ele>918.4</ele></trkpt><trkpt lat="45.831894" lon="9.190566"><time>2024-05-04T12:10:11.000Z</time><ele>918.4</ele></trkpt><trkpt lat="45.831879" lon="9.190541"><time>2024-05-04T12:10:12.000Z</time><ele>918.2</ele></trkpt><trkpt lat="45.831866" lon="9.190524"><time>2024-05-04T12:10:13.000Z</time><ele>918.2</ele></trkpt><trkpt lat="45.831846" lon="9.190515"><time>2024-05-04T12:10:14.000Z</time><ele>918.2</ele></trkpt><trkpt lat="45.83183" lon="9.190508"><time>2024-05-04T12:10:15.000Z</time><ele>918</ele></trkpt><trkpt lat="45.831817" lon="9.190504"><time>2024-05-04T12:10:16.000Z</time><ele>917.8</ele></trkpt><trkpt lat="45.831805" lon="9.190493"><time>2024-05-04T12:10:17.000Z</time><ele>917.8</ele></trkpt><trkpt lat="45.831789" lon="9.190479"><time>2024-05-04T12:10:18.000Z</time><ele>917.6</ele></trkpt><trkpt lat="45.831773" lon="9.190468"><time>2024-05-04T12:10:19.000Z</time><ele>917.6</ele></trkpt><trkpt lat="45.831755" lon="9.190459"><time>2024-05-04T12:10:20.000Z</time><ele>917.6</ele></trkpt><trkpt lat="45.831738" lon="9.190449"><time>2024-05-04T12:10:21.000Z</time><ele>917.6</ele></trkpt><trkpt lat="45.831718" lon="9.190442"><time>2024-05-04T12:10:22.000Z</time><ele>917.6</ele></trkpt><trkpt lat="45.831699" lon="9.190441"><time>2024-05-04T12:10:23.000Z</time><ele>917.4</ele></trkpt><trkpt lat="45.831682" lon="9.190447"><time>2024-05-04T12:10:24.000Z</time><ele>917.2</ele></trkpt><trkpt lat="45.831668" lon="9.190453"><time>2024-05-04T12:10:25.000Z</time><ele>917.2</ele></trkpt><trkpt lat="45.831654" lon="9.190458"><time>2024-05-04T12:10:26.000Z</time><ele>917</ele></trkpt><trkpt lat="45.831642" lon="9.190462"><time>2024-05-04T12:10:27.000Z</time><ele>917</ele></trkpt><trkpt lat="45.831632" lon="9.190468"><time>2024-05-04T12:10:28.000Z</time><ele>917</ele></trkpt><trkpt lat="45.831614" lon="9.190484"><time>2024-05-04T12:10:29.000Z</time><ele>917</ele></trkpt><trkpt lat="45.831596" lon="9.190489"><time>2024-05-04T12:10:30.000Z</time><ele>916.8</ele></trkpt><trkpt lat="45.831582" lon="9.190492"><time>2024-05-04T12:10:31.000Z</time><ele>916.8</ele></trkpt><trkpt lat="45.831559" lon="9.190495"><time>2024-05-04T12:10:32.000Z</time><ele>916.8</ele></trkpt><trkpt lat="45.831542" lon="9.190502"><time>2024-05-04T12:10:33.000Z</time><ele>916.8</ele></trkpt><trkpt lat="45.831528" lon="9.190506"><time>2024-05-04T12:10:34.000Z</time><ele>916.6</ele></trkpt><trkpt lat="45.831522" lon="9.190508"><time>2024-05-04T12:10:35.000Z</time><ele>916.6</ele></trkpt><trkpt lat="45.831507" lon="9.190506"><time>2024-05-04T12:10:36.000Z</time><ele>916.4</ele></trkpt><trkpt lat="45.831495" lon="9.1905"><time>2024-05-04T12:10:37.000Z</time><ele>916.2</ele></trkpt><trkpt lat="45.831486" lon="9.190504"><time>2024-05-04T12:10:38.000Z</time><ele>916</ele></trkpt><trkpt lat="45.831472" lon="9.190509"><time>2024-05-04T12:10:39.000Z</time><ele>916</ele></trkpt><trkpt lat="45.831459" lon="9.190511"><time>2024-05-04T12:10:40.000Z</time><ele>915.8</ele></trkpt><trkpt lat="45.831447" lon="9.190518"><time>2024-05-04T12:10:41.000Z</time><ele>915.8</ele></trkpt><trkpt lat="45.831437" lon="9.190525"><time>2024-05-04T12:10:42.000Z</time><ele>915.8</ele></trkpt><trkpt lat="45.831426" lon="9.190531"><time>2024-05-04T12:10:43.000Z</time><ele>915.6</ele></trkpt><trkpt lat="45.831412" lon="9.190535"><time>2024-05-04T12:10:44.000Z</time><ele>915.6</ele></trkpt><trkpt lat="45.831399" lon="9.190537"><time>2024-05-04T12:10:45.000Z</time><ele>915.4</ele></trkpt><trkpt lat="45.831387" lon="9.190538"><time>2024-05-04T12:10:46.000Z</time><ele>915.2</ele></trkpt><trkpt lat="45.831373" lon="9.190541"><time>2024-05-04T12:10:47.000Z</time><ele>915</ele></trkpt><trkpt lat="45.831358" lon="9.190545"><time>2024-05-04T12:10:48.000Z</time><ele>915</ele></trkpt><trkpt lat="45.831344" lon="9.190544"><time>2024-05-04T12:10:49.000Z</time><ele>915</ele></trkpt><trkpt lat="45.83133" lon="9.190545"><time>2024-05-04T12:10:50.000Z</time><ele>915</ele></trkpt><trkpt lat="45.831316" lon="9.190547"><time>2024-05-04T12:10:51.000Z</time><ele>914.8</ele></trkpt><trkpt lat="45.831303" lon="9.190549"><time>2024-05-04T12:10:52.000Z</time><ele>914.8</ele></trkpt><trkpt lat="45.831291" lon="9.190555"><time>2024-05-04T12:10:53.000Z</time><ele>914.8</ele></trkpt><trkpt lat="45.831283" lon="9.190554"><time>2024-05-04T12:10:54.000Z</time><ele>914.8</ele></trkpt><trkpt lat="45.831275" lon="9.190552"><time>2024-05-04T12:10:55.000Z</time><ele>914.6</ele></trkpt><trkpt lat="45.831266" lon="9.190553"><time>2024-05-04T12:10:56.000Z</time><ele>914.6</ele></trkpt><trkpt lat="45.831256" lon="9.190551"><time>2024-05-04T12:10:57.000Z</time><ele>914.4</ele></trkpt><trkpt lat="45.83125" lon="9.190545"><time>2024-05-04T12:10:58.000Z</time><ele>914</ele></trkpt><trkpt lat="45.831246" lon="9.19054"><time>2024-05-04T12:10:59.000Z</time><ele>913.8</ele></trkpt><trkpt lat="45.831241" lon="9.190538"><time>2024-05-04T12:11:00.000Z</time><ele>913.6</ele></trkpt><trkpt lat="45.831232" lon="9.190537"><time>2024-05-04T12:11:01.000Z</time><ele>913.2</ele></trkpt><trkpt lat="45.831225" lon="9.190539"><time>2024-05-04T12:11:02.000Z</time><ele>913</ele></trkpt><trkpt lat="45.831218" lon="9.19053"><time>2024-05-04T12:11:03.000Z</time><ele>912.8</ele></trkpt><trkpt lat="45.831206" lon="9.190523"><time>2024-05-04T12:11:04.000Z</time><ele>912.6</ele></trkpt><trkpt lat="45.831196" lon="9.190519"><time>2024-05-04T12:11:05.000Z</time><ele>912.4</ele></trkpt><trkpt lat="45.831191" lon="9.190521"><time>2024-05-04T12:11:06.000Z</time><ele>912.2</ele></trkpt><trkpt lat="45.831187" lon="9.190523"><time>2024-05-04T12:11:07.000Z</time><ele>912.2</ele></trkpt><trkpt lat="45.831183" lon="9.19052"><time>2024-05-04T12:11:08.000Z</time><ele>912</ele></trkpt><trkpt lat="45.83118" lon="9.190513"><time>2024-05-04T12:11:09.000Z</time><ele>911.8</ele></trkpt><trkpt lat="45.831176" lon="9.190503"><time>2024-05-04T12:11:10.000Z</time><ele>911.6</ele></trkpt><trkpt lat="45.831171" lon="9.190491"><time>2024-05-04T12:11:11.000Z</time><ele>911.4</ele></trkpt><trkpt lat="45.831168" lon="9.190482"><time>2024-05-04T12:11:12.000Z</time><ele>911.2</ele></trkpt><trkpt lat="45.83116" lon="9.190466"><time>2024-05-04T12:11:13.000Z</time><ele>911</ele></trkpt><trkpt lat="45.831155" lon="9.190461"><time>2024-05-04T12:11:14.000Z</time><ele>910.8</ele></trkpt><trkpt lat="45.831146" lon="9.190459"><time>2024-05-04T12:11:15.000Z</time><ele>910.6</ele></trkpt><trkpt lat="45.83114" lon="9.190452"><time>2024-05-04T12:11:16.000Z</time><ele>910.6</ele></trkpt><trkpt lat="45.831133" lon="9.190445"><time>2024-05-04T12:11:17.000Z</time><ele>910.4</ele></trkpt><trkpt lat="45.831127" lon="9.190439"><time>2024-05-04T12:11:18.000Z</time><ele>910.2</ele></trkpt><trkpt lat="45.831122" lon="9.190433"><time>2024-05-04T12:11:19.000Z</time><ele>910</ele></trkpt><trkpt lat="45.831116" lon="9.190427"><time>2024-05-04T12:11:20.000Z</time><ele>909.6</ele></trkpt><trkpt lat="45.831107" lon="9.190423"><time>2024-05-04T12:11:21.000Z</time><ele>909.4</ele></trkpt><trkpt lat="45.831098" lon="9.190411"><time>2024-05-04T12:11:22.000Z</time><ele>909.2</ele></trkpt><trkpt lat="45.831096" lon="9.190394"><time>2024-05-04T12:11:23.000Z</time><ele>909</ele></trkpt><trkpt lat="45.831088" lon="9.190381"><time>2024-05-04T12:11:24.000Z</time><ele>908.8</ele></trkpt><trkpt lat="45.831079" lon="9.190369"><time>2024-05-04T12:11:25.000Z</time><ele>908.6</ele></trkpt><trkpt lat="45.831067" lon="9.190356"><time>2024-05-04T12:11:26.000Z</time><ele>908.4</ele></trkpt><trkpt lat="45.83106" lon="9.19035"><time>2024-05-04T12:11:27.000Z</time><ele>908.2</ele></trkpt><trkpt lat="45.831054" lon="9.190346"><time>2024-05-04T12:11:28.000Z</time><ele>908</ele></trkpt><trkpt lat="45.83105" lon="9.190336"><time>2024-05-04T12:11:29.000Z</time><ele>907.8</ele></trkpt><trkpt lat="45.831045" lon="9.190334"><time>2024-05-04T12:11:30.000Z</time><ele>907.6</ele></trkpt><trkpt lat="45.831038" lon="9.190324"><time>2024-05-04T12:11:31.000Z</time><ele>907.6</ele></trkpt><trkpt lat="45.83103" lon="9.190319"><time>2024-05-04T12:11:32.000Z</time><ele>907.4</ele></trkpt><trkpt lat="45.831024" lon="9.19031"><time>2024-05-04T12:11:33.000Z</time><ele>907.4</ele></trkpt><trkpt lat="45.831018" lon="9.190301"><time>2024-05-04T12:11:34.000Z</time><ele>907</ele></trkpt><trkpt lat="45.831016" lon="9.190276"><time>2024-05-04T12:11:35.000Z</time><ele>906.8</ele></trkpt><trkpt lat="45.83101" lon="9.19026"><time>2024-05-04T12:11:36.000Z</time><ele>906.8</ele></trkpt><trkpt lat="45.831007" lon="9.190245"><time>2024-05-04T12:11:37.000Z</time><ele>906.6</ele></trkpt><trkpt lat="45.831004" lon="9.190237"><time>2024-05-04T12:11:38.000Z</time><ele>906.4</ele></trkpt><trkpt lat="45.830999" lon="9.19022"><time>2024-05-04T12:11:39.000Z</time><ele>906.2</ele></trkpt><trkpt lat="45.830994" lon="9.190206"><time>2024-05-04T12:11:40.000Z</time><ele>906</ele></trkpt><trkpt lat="45.830989" lon="9.190193"><time>2024-05-04T12:11:41.000Z</time><ele>906</ele></trkpt><trkpt lat="45.830986" lon="9.19018"><time>2024-05-04T12:11:42.000Z</time><ele>905.8</ele></trkpt><trkpt lat="45.830981" lon="9.190167"><time>2024-05-04T12:11:43.000Z</time><ele>905.6</ele></trkpt><trkpt lat="45.830973" lon="9.190157"><time>2024-05-04T12:11:44.000Z</time><ele>905.6</ele></trkpt><trkpt lat="45.83097" lon="9.19015"><time>2024-05-04T12:11:45.000Z</time><ele>905.4</ele></trkpt><trkpt lat="45.830966" lon="9.190147"><time>2024-05-04T12:11:46.000Z</time><ele>905.4</ele></trkpt><trkpt lat="45.830959" lon="9.190144"><time>2024-05-04T12:11:47.000Z</time><ele>905.2</ele></trkpt><trkpt lat="45.830952" lon="9.190135"><time>2024-05-04T12:11:48.000Z</time><ele>905.2</ele></trkpt><trkpt lat="45.830953" lon="9.190116"><time>2024-05-04T12:11:49.000Z</time><ele>905</ele></trkpt><trkpt lat="45.830948" lon="9.190099"><time>2024-05-04T12:11:50.000Z</time><ele>904.8</ele></trkpt><trkpt lat="45.830942" lon="9.190083"><time>2024-05-04T12:11:51.000Z</time><ele>904.6</ele></trkpt><trkpt lat="45.830935" lon="9.190069"><time>2024-05-04T12:11:52.000Z</time><ele>904.4</ele></trkpt><trkpt lat="45.83093" lon="9.190053"><time>2024-05-04T12:11:53.000Z</time><ele>904.4</ele></trkpt><trkpt lat="45.830927" lon="9.190037"><time>2024-05-04T12:11:54.000Z</time><ele>904.2</ele></trkpt><trkpt lat="45.830919" lon="9.190024"><time>2024-05-04T12:11:55.000Z</time><ele>904.2</ele></trkpt><trkpt lat="45.830911" lon="9.190011"><time>2024-05-04T12:11:56.000Z</time><ele>904</ele></trkpt><trkpt lat="45.830908" lon="9.19"><time>2024-05-04T12:11:57.000Z</time><ele>903.8</ele></trkpt><trkpt lat="45.830906" lon="9.189987"><time>2024-05-04T12:11:58.000Z</time><ele>903.6</ele></trkpt><trkpt lat="45.830903" lon="9.18998"><time>2024-05-04T12:11:59.000Z</time><ele>903.4</ele></trkpt><trkpt lat="45.8309" lon="9.189972"><time>2024-05-04T12:12:00.000Z</time><ele>903.4</ele></trkpt><trkpt lat="45.830898" lon="9.189961"><time>2024-05-04T12:12:01.000Z</time><ele>903.4</ele></trkpt><trkpt lat="45.830891" lon="9.18995"><time>2024-05-04T12:12:02.000Z</time><ele>903.2</ele></trkpt><trkpt lat="45.830877" lon="9.189946"><time>2024-05-04T12:12:03.000Z</time><ele>903.2</ele></trkpt><trkpt lat="45.830862" lon="9.189939"><time>2024-05-04T12:12:04.000Z</time><ele>902.8</ele></trkpt><trkpt lat="45.830846" lon="9.18994"><time>2024-05-04T12:12:05.000Z</time><ele>902.6</ele></trkpt><trkpt lat="45.830836" lon="9.189935"><time>2024-05-04T12:12:06.000Z</time><ele>902.4</ele></trkpt><trkpt lat="45.830833" lon="9.189919"><time>2024-05-04T12:12:07.000Z</time><ele>902.2</ele></trkpt><trkpt lat="45.830824" lon="9.18991"><time>2024-05-04T12:12:08.000Z</time><ele>902</ele></trkpt><trkpt lat="45.830813" lon="9.189908"><time>2024-05-04T12:12:09.000Z</time><ele>901.6</ele></trkpt><trkpt lat="45.830801" lon="9.189911"><time>2024-05-04T12:12:10.000Z</time><ele>901.4</ele></trkpt><trkpt lat="45.830792" lon="9.18991"><time>2024-05-04T12:12:11.000Z</time><ele>901.2</ele></trkpt><trkpt lat="45.830782" lon="9.189905"><time>2024-05-04T12:12:12.000Z</time><ele>901.2</ele></trkpt><trkpt lat="45.830768" lon="9.1899"><time>2024-05-04T12:12:13.000Z</time><ele>901</ele></trkpt><trkpt lat="45.830763" lon="9.189897"><time>2024-05-04T12:12:14.000Z</time><ele>900.8</ele></trkpt><trkpt lat="45.830761" lon="9.189894"><time>2024-05-04T12:12:15.000Z</time><ele>900.4</ele></trkpt><trkpt lat="45.830758" lon="9.189895"><time>2024-05-04T12:12:16.000Z</time><ele>900.2</ele></trkpt><trkpt lat="45.830748" lon="9.189897"><time>2024-05-04T12:12:17.000Z</time><ele>899.8</ele></trkpt><trkpt lat="45.830735" lon="9.189906"><time>2024-05-04T12:12:18.000Z</time><ele>899.8</ele></trkpt><trkpt lat="45.830727" lon="9.189908"><time>2024-05-04T12:12:19.000Z</time><ele>899.6</ele></trkpt><trkpt lat="45.830718" lon="9.189907"><time>2024-05-04T12:12:20.000Z</time><ele>899.4</ele></trkpt><trkpt lat="45.830704" lon="9.189913"><time>2024-05-04T12:12:21.000Z</time><ele>899.2</ele></trkpt><trkpt lat="45.830695" lon="9.189915"><time>2024-05-04T12:12:22.000Z</time><ele>899</ele></trkpt><trkpt lat="45.830684" lon="9.189917"><time>2024-05-04T12:12:23.000Z</time><ele>898.8</ele></trkpt><trkpt lat="45.830668" lon="9.189922"><time>2024-05-04T12:12:24.000Z</time><ele>898.8</ele></trkpt><trkpt lat="45.830657" lon="9.189919"><time>2024-05-04T12:12:25.000Z</time><ele>898.6</ele></trkpt><trkpt lat="45.830648" lon="9.189917"><time>2024-05-04T12:12:26.000Z</time><ele>898.2</ele></trkpt><trkpt lat="45.830638" lon="9.18992"><time>2024-05-04T12:12:27.000Z</time><ele>898</ele></trkpt><trkpt lat="45.830626" lon="9.189925"><time>2024-05-04T12:12:28.000Z</time><ele>898</ele></trkpt><trkpt lat="45.830618" lon="9.18993"><time>2024-05-04T12:12:29.000Z</time><ele>897.8</ele></trkpt><trkpt lat="45.830608" lon="9.189934"><time>2024-05-04T12:12:30.000Z</time><ele>897.8</ele></trkpt><trkpt lat="45.830594" lon="9.189935"><time>2024-05-04T12:12:31.000Z</time><ele>897.8</ele></trkpt><trkpt lat="45.830581" lon="9.189927"><time>2024-05-04T12:12:32.000Z</time><ele>897.4</ele></trkpt><trkpt lat="45.830571" lon="9.189935"><time>2024-05-04T12:12:33.000Z</time><ele>897.2</ele></trkpt><trkpt lat="45.83056" lon="9.189938"><time>2024-05-04T12:12:34.000Z</time><ele>897</ele></trkpt><trkpt lat="45.83055" lon="9.189937"><time>2024-05-04T12:12:35.000Z</time><ele>897</ele></trkpt><trkpt lat="45.830539" lon="9.18994"><time>2024-05-04T12:12:36.000Z</time><ele>896.8</ele></trkpt><trkpt lat="45.830531" lon="9.18994"><time>2024-05-04T12:12:37.000Z</time><ele>896.6</ele></trkpt><trkpt lat="45.83052" lon="9.189942"><time>2024-05-04T12:12:38.000Z</time><ele>896.4</ele></trkpt><trkpt lat="45.830511" lon="9.189937"><time>2024-05-04T12:12:39.000Z</time><ele>896.2</ele></trkpt><trkpt lat="45.830502" lon="9.189925"><time>2024-05-04T12:12:40.000Z</time><ele>896</ele></trkpt><trkpt lat="45.830497" lon="9.189922"><time>2024-05-04T12:12:41.000Z</time><ele>895.6</ele></trkpt><trkpt lat="45.830493" lon="9.189922"><time>2024-05-04T12:12:42.000Z</time><ele>895.2</ele></trkpt><trkpt lat="45.830489" lon="9.189925"><time>2024-05-04T12:12:43.000Z</time><ele>895</ele></trkpt><trkpt lat="45.830482" lon="9.189923"><time>2024-05-04T12:12:44.000Z</time><ele>894.8</ele></trkpt><trkpt lat="45.830457" lon="9.189912"><time>2024-05-04T12:12:45.000Z</time><ele>894.4</ele></trkpt><trkpt lat="45.830446" lon="9.189917"><time>2024-05-04T12:12:46.000Z</time><ele>894.2</ele></trkpt><trkpt lat="45.83044" lon="9.189938"><time>2024-05-04T12:12:47.000Z</time><ele>894</ele></trkpt><trkpt lat="45.830437" lon="9.18994"><time>2024-05-04T12:12:48.000Z</time><ele>893.6</ele></trkpt><trkpt lat="45.830433" lon="9.18994"><time>2024-05-04T12:12:49.000Z</time><ele>893.4</ele></trkpt><trkpt lat="45.830423" lon="9.189939"><time>2024-05-04T12:12:50.000Z</time><ele>893.4</ele></trkpt><trkpt lat="45.830394" lon="9.189936"><time>2024-05-04T12:12:51.000Z</time><ele>893.2</ele></trkpt><trkpt lat="45.830359" lon="9.189931"><time>2024-05-04T12:12:52.000Z</time><ele>893</ele></trkpt><trkpt lat="45.830332" lon="9.189928"><time>2024-05-04T12:12:53.000Z</time><ele>892.8</ele></trkpt><trkpt lat="45.830311" lon="9.18995"><time>2024-05-04T12:12:54.000Z</time><ele>892.4</ele></trkpt><trkpt lat="45.830298" lon="9.189953"><time>2024-05-04T12:12:55.000Z</time><ele>892</ele></trkpt><trkpt lat="45.830298" lon="9.189962"><time>2024-05-04T12:12:56.000Z</time><ele>891.8</ele></trkpt><trkpt lat="45.830302" lon="9.189991"><time>2024-05-04T12:12:57.000Z</time><ele>891.6</ele></trkpt><trkpt lat="45.830302" lon="9.190018"><time>2024-05-04T12:12:58.000Z</time><ele>891.4</ele></trkpt><trkpt lat="45.830298" lon="9.190039"><time>2024-05-04T12:12:59.000Z</time><ele>891</ele></trkpt><trkpt lat="45.830294" lon="9.190049"><time>2024-05-04T12:13:00.000Z</time><ele>891</ele></trkpt><trkpt lat="45.830291" lon="9.190062"><time>2024-05-04T12:13:01.000Z</time><ele>890.6</ele></trkpt><trkpt lat="45.830289" lon="9.190073"><time>2024-05-04T12:13:02.000Z</time><ele>890.4</ele></trkpt><trkpt lat="45.830287" lon="9.190084"><time>2024-05-04T12:13:03.000Z</time><ele>890.4</ele></trkpt><trkpt lat="45.830284" lon="9.190094"><time>2024-05-04T12:13:04.000Z</time><ele>890.2</ele></trkpt><trkpt lat="45.83028" lon="9.190099"><time>2024-05-04T12:13:05.000Z</time><ele>890</ele></trkpt><trkpt lat="45.830274" lon="9.190112"><time>2024-05-04T12:13:06.000Z</time><ele>889.8</ele></trkpt><trkpt lat="45.830272" lon="9.190114"><time>2024-05-04T12:13:07.000Z</time><ele>889.4</ele></trkpt><trkpt lat="45.830271" lon="9.190117"><time>2024-05-04T12:13:08.000Z</time><ele>889.2</ele></trkpt><trkpt lat="45.830272" lon="9.190122"><time>2024-05-04T12:13:09.000Z</time><ele>888.8</ele></trkpt><trkpt lat="45.830259" lon="9.190129"><time>2024-05-04T12:13:10.000Z</time><ele>888.4</ele></trkpt><trkpt lat="45.830244" lon="9.190143"><time>2024-05-04T12:13:11.000Z</time><ele>888.2</ele></trkpt><trkpt lat="45.830237" lon="9.190153"><time>2024-05-04T12:13:12.000Z</time><ele>888.2</ele></trkpt><trkpt lat="45.830227" lon="9.190163"><time>2024-05-04T12:13:13.000Z</time><ele>888</ele></trkpt><trkpt lat="45.830223" lon="9.190166"><time>2024-05-04T12:13:14.000Z</time><ele>887.8</ele></trkpt><trkpt lat="45.830218" lon="9.190166"><time>2024-05-04T12:13:15.000Z</time><ele>887.6</ele></trkpt><trkpt lat="45.830214" lon="9.190176"><time>2024-05-04T12:13:16.000Z</time><ele>887.2</ele></trkpt><trkpt lat="45.830205" lon="9.190191"><time>2024-05-04T12:13:17.000Z</time><ele>887.2</ele></trkpt><trkpt lat="45.830199" lon="9.190197"><time>2024-05-04T12:13:18.000Z</time><ele>887</ele></trkpt><trkpt lat="45.830186" lon="9.190206"><time>2024-05-04T12:13:19.000Z</time><ele>886.8</ele></trkpt><trkpt lat="45.830172" lon="9.190208"><time>2024-05-04T12:13:20.000Z</time><ele>886.6</ele></trkpt><trkpt lat="45.830157" lon="9.190215"><time>2024-05-04T12:13:21.000Z</time><ele>886.4</ele></trkpt><trkpt lat="45.830147" lon="9.190215"><time>2024-05-04T12:13:22.000Z</time><ele>886.4</ele></trkpt><trkpt lat="45.83014" lon="9.190229"><time>2024-05-04T12:13:23.000Z</time><ele>886.2</ele></trkpt><trkpt lat="45.830137" lon="9.19025"><time>2024-05-04T12:13:24.000Z</time><ele>886</ele></trkpt><trkpt lat="45.830133" lon="9.190267"><time>2024-05-04T12:13:25.000Z</time><ele>886</ele></trkpt><trkpt lat="45.830125" lon="9.190278"><time>2024-05-04T12:13:26.000Z</time><ele>885.8</ele></trkpt><trkpt lat="45.830117" lon="9.190287"><time>2024-05-04T12:13:27.000Z</time><ele>885.6</ele></trkpt><trkpt lat="45.830113" lon="9.190288"><time>2024-05-04T12:13:28.000Z</time><ele>885.6</ele></trkpt><trkpt lat="45.830104" lon="9.190299"><time>2024-05-04T12:13:29.000Z</time><ele>885.4</ele></trkpt><trkpt lat="45.830093" lon="9.190307"><time>2024-05-04T12:13:30.000Z</time><ele>885.4</ele></trkpt><trkpt lat="45.830082" lon="9.190312"><time>2024-05-04T12:13:31.000Z</time><ele>885.2</ele></trkpt><trkpt lat="45.830073" lon="9.190313"><time>2024-05-04T12:13:32.000Z</time><ele>884.8</ele></trkpt><trkpt lat="45.830066" lon="9.190317"><time>2024-05-04T12:13:33.000Z</time><ele>884.6</ele></trkpt><trkpt lat="45.830061" lon="9.190324"><time>2024-05-04T12:13:34.000Z</time><ele>884.4</ele></trkpt><trkpt lat="45.830056" lon="9.190328"><time>2024-05-04T12:13:35.000Z</time><ele>884.2</ele></trkpt><trkpt lat="45.830048" lon="9.190336"><time>2024-05-04T12:13:36.000Z</time><ele>884</ele></trkpt><trkpt lat="45.830038" lon="9.190336"><time>2024-05-04T12:13:37.000Z</time><ele>884</ele></trkpt><trkpt lat="45.830021" lon="9.190337"><time>2024-05-04T12:13:38.000Z</time><ele>883.8</ele></trkpt><trkpt lat="45.830003" lon="9.190329"><time>2024-05-04T12:13:39.000Z</time><ele>883.6</ele></trkpt><trkpt lat="45.829991" lon="9.190331"><time>2024-05-04T12:13:40.000Z</time><ele>883.4</ele></trkpt><trkpt lat="45.829975" lon="9.190324"><time>2024-05-04T12:13:41.000Z</time><ele>883.2</ele></trkpt><trkpt lat="45.829965" lon="9.190326"><time>2024-05-04T12:13:42.000Z</time><ele>883</ele></trkpt><trkpt lat="45.829953" lon="9.190326"><time>2024-05-04T12:13:43.000Z</time><ele>882.8</ele></trkpt><trkpt lat="45.82994" lon="9.190332"><time>2024-05-04T12:13:44.000Z</time><ele>882.8</ele></trkpt><trkpt lat="45.829927" lon="9.190345"><time>2024-05-04T12:13:45.000Z</time><ele>882.6</ele></trkpt><trkpt lat="45.829918" lon="9.190361"><time>2024-05-04T12:13:46.000Z</time><ele>882.6</ele></trkpt><trkpt lat="45.829913" lon="9.190369"><time>2024-05-04T12:13:47.000Z</time><ele>882.4</ele></trkpt><trkpt lat="45.829905" lon="9.190372"><time>2024-05-04T12:13:48.000Z</time><ele>882.2</ele></trkpt><trkpt lat="45.829894" lon="9.190374"><time>2024-05-04T12:13:49.000Z</time><ele>882.2</ele></trkpt><trkpt lat="45.829884" lon="9.190373"><time>2024-05-04T12:13:50.000Z</time><ele>882</ele></trkpt><trkpt lat="45.829878" lon="9.190368"><time>2024-05-04T12:13:51.000Z</time><ele>882</ele></trkpt><trkpt lat="45.829873" lon="9.19037"><time>2024-05-04T12:13:52.000Z</time><ele>882</ele></trkpt><trkpt lat="45.829865" lon="9.190368"><time>2024-05-04T12:13:53.000Z</time><ele>881.8</ele></trkpt><trkpt lat="45.82985" lon="9.190367"><time>2024-05-04T12:13:54.000Z</time><ele>881.8</ele></trkpt><trkpt lat="45.829832" lon="9.190367"><time>2024-05-04T12:13:55.000Z</time><ele>881.6</ele></trkpt><trkpt lat="45.829821" lon="9.190371"><time>2024-05-04T12:13:56.000Z</time><ele>881.4</ele></trkpt><trkpt lat="45.829804" lon="9.190385"><time>2024-05-04T12:13:57.000Z</time><ele>881.2</ele></trkpt><trkpt lat="45.829793" lon="9.190393"><time>2024-05-04T12:13:58.000Z</time><ele>881</ele></trkpt><trkpt lat="45.829782" lon="9.190404"><time>2024-05-04T12:13:59.000Z</time><ele>881</ele></trkpt><trkpt lat="45.829766" lon="9.190421"><time>2024-05-04T12:14:00.000Z</time><ele>881</ele></trkpt><trkpt lat="45.829751" lon="9.190435"><time>2024-05-04T12:14:01.000Z</time><ele>880.6</ele></trkpt><trkpt lat="45.829742" lon="9.190444"><time>2024-05-04T12:14:02.000Z</time><ele>880.6</ele></trkpt><trkpt lat="45.829728" lon="9.190457"><time>2024-05-04T12:14:03.000Z</time><ele>880.4</ele></trkpt><trkpt lat="45.829715" lon="9.190472"><time>2024-05-04T12:14:04.000Z</time><ele>880.4</ele></trkpt><trkpt lat="45.829706" lon="9.190476"><time>2024-05-04T12:14:05.000Z</time><ele>880.4</ele></trkpt><trkpt lat="45.829695" lon="9.190486"><time>2024-05-04T12:14:06.000Z</time><ele>880.4</ele></trkpt><trkpt lat="45.829677" lon="9.1905"><time>2024-05-04T12:14:07.000Z</time><ele>880.4</ele></trkpt><trkpt lat="45.829666" lon="9.190509"><time>2024-05-04T12:14:08.000Z</time><ele>880.2</ele></trkpt><trkpt lat="45.82966" lon="9.190511"><time>2024-05-04T12:14:09.000Z</time><ele>880.2</ele></trkpt><trkpt lat="45.829653" lon="9.190514"><time>2024-05-04T12:14:10.000Z</time><ele>880</ele></trkpt><trkpt lat="45.829644" lon="9.190522"><time>2024-05-04T12:14:11.000Z</time><ele>880</ele></trkpt><trkpt lat="45.829635" lon="9.190523"><time>2024-05-04T12:14:12.000Z</time><ele>879.8</ele></trkpt><trkpt lat="45.829615" lon="9.190526"><time>2024-05-04T12:14:13.000Z</time><ele>879.8</ele></trkpt><trkpt lat="45.829598" lon="9.190513"><time>2024-05-04T12:14:14.000Z</time><ele>879.6</ele></trkpt><trkpt lat="45.829584" lon="9.190527"><time>2024-05-04T12:14:15.000Z</time><ele>879.6</ele></trkpt><trkpt lat="45.829572" lon="9.190546"><time>2024-05-04T12:14:16.000Z</time><ele>879.4</ele></trkpt><trkpt lat="45.829556" lon="9.190569"><time>2024-05-04T12:14:17.000Z</time><ele>879.4</ele></trkpt><trkpt lat="45.829538" lon="9.190587"><time>2024-05-04T12:14:18.000Z</time><ele>879.4</ele></trkpt><trkpt lat="45.829527" lon="9.190607"><time>2024-05-04T12:14:19.000Z</time><ele>879.2</ele></trkpt><trkpt lat="45.829519" lon="9.19061"><time>2024-05-04T12:14:20.000Z</time><ele>879.2</ele></trkpt><trkpt lat="45.829506" lon="9.190612"><time>2024-05-04T12:14:21.000Z</time><ele>879</ele></trkpt><trkpt lat="45.829493" lon="9.190616"><time>2024-05-04T12:14:22.000Z</time><ele>879</ele></trkpt><trkpt lat="45.829483" lon="9.190615"><time>2024-05-04T12:14:23.000Z</time><ele>878.8</ele></trkpt><trkpt lat="45.829474" lon="9.190615"><time>2024-05-04T12:14:24.000Z</time><ele>878.8</ele></trkpt><trkpt lat="45.829467" lon="9.19062"><time>2024-05-04T12:14:25.000Z</time><ele>878.8</ele></trkpt><trkpt lat="45.829458" lon="9.19062"><time>2024-05-04T12:14:26.000Z</time><ele>878.6</ele></trkpt><trkpt lat="45.829445" lon="9.19063"><time>2024-05-04T12:14:27.000Z</time><ele>878.6</ele></trkpt><trkpt lat="45.82943" lon="9.190639"><time>2024-05-04T12:14:28.000Z</time><ele>878.4</ele></trkpt><trkpt lat="45.829415" lon="9.190643"><time>2024-05-04T12:14:29.000Z</time><ele>878.4</ele></trkpt><trkpt lat="45.8294" lon="9.190652"><time>2024-05-04T12:14:30.000Z</time><ele>878.4</ele></trkpt><trkpt lat="45.829383" lon="9.190657"><time>2024-05-04T12:14:31.000Z</time><ele>878.2</ele></trkpt><trkpt lat="45.829369" lon="9.190658"><time>2024-05-04T12:14:32.000Z</time><ele>878.2</ele></trkpt><trkpt lat="45.829358" lon="9.19066"><time>2024-05-04T12:14:33.000Z</time><ele>878</ele></trkpt><trkpt lat="45.829347" lon="9.190665"><time>2024-05-04T12:14:34.000Z</time><ele>878</ele></trkpt><trkpt lat="45.829338" lon="9.190663"><time>2024-05-04T12:14:35.000Z</time><ele>877.8</ele></trkpt><trkpt lat="45.829326" lon="9.190655"><time>2024-05-04T12:14:36.000Z</time><ele>877.8</ele></trkpt><trkpt lat="45.829317" lon="9.190644"><time>2024-05-04T12:14:37.000Z</time><ele>877.8</ele></trkpt><trkpt lat="45.829312" lon="9.190635"><time>2024-05-04T12:14:38.000Z</time><ele>877.8</ele></trkpt><trkpt lat="45.829302" lon="9.190617"><time>2024-05-04T12:14:39.000Z</time><ele>877.6</ele></trkpt><trkpt lat="45.829292" lon="9.190603"><time>2024-05-04T12:14:40.000Z</time><ele>877.6</ele></trkpt><trkpt lat="45.829282" lon="9.190592"><time>2024-05-04T12:14:41.000Z</time><ele>877.6</ele></trkpt><trkpt lat="45.829269" lon="9.190587"><time>2024-05-04T12:14:42.000Z</time><ele>877.4</ele></trkpt><trkpt lat="45.829256" lon="9.190585"><time>2024-05-04T12:14:43.000Z</time><ele>877.4</ele></trkpt><trkpt lat="45.829244" lon="9.19058"><time>2024-05-04T12:14:44.000Z</time><ele>877.4</ele></trkpt><trkpt lat="45.829233" lon="9.19057"><time>2024-05-04T12:14:45.000Z</time><ele>877.4</ele></trkpt><trkpt lat="45.829229" lon="9.190558"><time>2024-05-04T12:14:46.000Z</time><ele>877.4</ele></trkpt><trkpt lat="45.829222" lon="9.190546"><time>2024-05-04T12:14:47.000Z</time><ele>877.4</ele></trkpt><trkpt lat="45.829213" lon="9.190536"><time>2024-05-04T12:14:48.000Z</time><ele>877.4</ele></trkpt><trkpt lat="45.829208" lon="9.190534"><time>2024-05-04T12:14:49.000Z</time><ele>877.2</ele></trkpt><trkpt lat="45.8292" lon="9.19053"><time>2024-05-04T12:14:50.000Z</time><ele>877.2</ele></trkpt><trkpt lat="45.829189" lon="9.190534"><time>2024-05-04T12:14:51.000Z</time><ele>877.2</ele></trkpt><trkpt lat="45.829182" lon="9.19054"><time>2024-05-04T12:14:52.000Z</time><ele>877.2</ele></trkpt><trkpt lat="45.82918" lon="9.190541"><time>2024-05-04T12:14:53.000Z</time><ele>877</ele></trkpt><trkpt lat="45.82918" lon="9.190541"><time>2024-05-04T12:14:54.000Z</time><ele>877</ele></trkpt><trkpt lat="45.829176" lon="9.190531"><time>2024-05-04T12:14:55.000Z</time><ele>877</ele></trkpt><trkpt lat="45.82917" lon="9.190523"><time>2024-05-04T12:14:56.000Z</time><ele>877.2</ele></trkpt><trkpt lat="45.829171" lon="9.190523"><time>2024-05-04T12:14:57.000Z</time><ele>877.2</ele></trkpt><trkpt lat="45.829165" lon="9.190519"><time>2024-05-04T12:14:58.000Z</time><ele>877.2</ele></trkpt><trkpt lat="45.829156" lon="9.190518"><time>2024-05-04T12:14:59.000Z</time><ele>877.2</ele></trkpt><trkpt lat="45.829154" lon="9.190509"><time>2024-05-04T12:15:00.000Z</time><ele>877.2</ele></trkpt><trkpt lat="45.829146" lon="9.190495"><time>2024-05-04T12:15:01.000Z</time><ele>877.2</ele></trkpt><trkpt lat="45.829136" lon="9.19048"><time>2024-05-04T12:15:02.000Z</time><ele>877.2</ele></trkpt><trkpt lat="45.829124" lon="9.190467"><time>2024-05-04T12:15:03.000Z</time><ele>877.2</ele></trkpt><trkpt lat="45.82911" lon="9.190456"><time>2024-05-04T12:15:04.000Z</time><ele>877.2</ele></trkpt><trkpt lat="45.829099" lon="9.190458"><time>2024-05-04T12:15:05.000Z</time><ele>877.2</ele></trkpt><trkpt lat="45.829091" lon="9.190461"><time>2024-05-04T12:15:06.000Z</time><ele>877.2</ele></trkpt><trkpt lat="45.829084" lon="9.190456"><time>2024-05-04T12:15:07.000Z</time><ele>877.2</ele></trkpt><trkpt lat="45.829073" lon="9.190444"><time>2024-05-04T12:15:08.000Z</time><ele>877</ele></trkpt><trkpt lat="45.829059" lon="9.190434"><time>2024-05-04T12:15:09.000Z</time><ele>877</ele></trkpt><trkpt lat="45.829046" lon="9.190423"><time>2024-05-04T12:15:10.000Z</time><ele>877</ele></trkpt><trkpt lat="45.829032" lon="9.190417"><time>2024-05-04T12:15:11.000Z</time><ele>877</ele></trkpt><trkpt lat="45.829019" lon="9.190425"><time>2024-05-04T12:15:12.000Z</time><ele>877</ele></trkpt><trkpt lat="45.829003" lon="9.190431"><time>2024-05-04T12:15:13.000Z</time><ele>877</ele></trkpt><trkpt lat="45.828997" lon="9.190442"><time>2024-05-04T12:15:14.000Z</time><ele>877</ele></trkpt><trkpt lat="45.82899" lon="9.190452"><time>2024-05-04T12:15:15.000Z</time><ele>877</ele></trkpt><trkpt lat="45.82898" lon="9.190452"><time>2024-05-04T12:15:16.000Z</time><ele>876.8</ele></trkpt><trkpt lat="45.828972" lon="9.190439"><time>2024-05-04T12:15:17.000Z</time><ele>876.8</ele></trkpt><trkpt lat="45.828962" lon="9.190435"><time>2024-05-04T12:15:18.000Z</time><ele>876.8</ele></trkpt><trkpt lat="45.828948" lon="9.190437"><time>2024-05-04T12:15:19.000Z</time><ele>876.8</ele></trkpt><trkpt lat="45.828935" lon="9.190437"><time>2024-05-04T12:15:20.000Z</time><ele>876.8</ele></trkpt><trkpt lat="45.82892" lon="9.19044"><time>2024-05-04T12:15:21.000Z</time><ele>876.8</ele></trkpt><trkpt lat="45.828907" lon="9.190435"><time>2024-05-04T12:15:22.000Z</time><ele>876.8</ele></trkpt><trkpt lat="45.828893" lon="9.19043"><time>2024-05-04T12:15:23.000Z</time><ele>876.8</ele></trkpt><trkpt lat="45.828876" lon="9.190422"><time>2024-05-04T12:15:24.000Z</time><ele>876.8</ele></trkpt><trkpt lat="45.82886" lon="9.190425"><time>2024-05-04T12:15:25.000Z</time><ele>876.8</ele></trkpt><trkpt lat="45.828844" lon="9.190432"><time>2024-05-04T12:15:26.000Z</time><ele>876.8</ele></trkpt><trkpt lat="45.828834" lon="9.190436"><time>2024-05-04T12:15:27.000Z</time><ele>876.8</ele></trkpt><trkpt lat="45.828822" lon="9.190438"><time>2024-05-04T12:15:28.000Z</time><ele>876.6</ele></trkpt><trkpt lat="45.82881" lon="9.190432"><time>2024-05-04T12:15:29.000Z</time><ele>876.6</ele></trkpt><trkpt lat="45.828796" lon="9.190432"><time>2024-05-04T12:15:30.000Z</time><ele>876.6</ele></trkpt><trkpt lat="45.828784" lon="9.190431"><time>2024-05-04T12:15:31.000Z</time><ele>876.6</ele></trkpt><trkpt lat="45.828772" lon="9.19043"><time>2024-05-04T12:15:32.000Z</time><ele>876.4</ele></trkpt><trkpt lat="45.828762" lon="9.19043"><time>2024-05-04T12:15:33.000Z</time><ele>876.4</ele></trkpt><trkpt lat="45.828753" lon="9.190427"><time>2024-05-04T12:15:34.000Z</time><ele>876.2</ele></trkpt><trkpt lat="45.828738" lon="9.190419"><time>2024-05-04T12:15:35.000Z</time><ele>876.2</ele></trkpt><trkpt lat="45.828729" lon="9.190413"><time>2024-05-04T12:15:36.000Z</time><ele>876.2</ele></trkpt><trkpt lat="45.828716" lon="9.190407"><time>2024-05-04T12:15:37.000Z</time><ele>876</ele></trkpt><trkpt lat="45.828703" lon="9.190401"><time>2024-05-04T12:15:38.000Z</time><ele>876</ele></trkpt><trkpt lat="45.828688" lon="9.190387"><time>2024-05-04T12:15:39.000Z</time><ele>876</ele></trkpt><trkpt lat="45.82867" lon="9.190381"><time>2024-05-04T12:15:40.000Z</time><ele>875.8</ele></trkpt><trkpt lat="45.828656" lon="9.190374"><time>2024-05-04T12:15:41.000Z</time><ele>875.8</ele></trkpt><trkpt lat="45.828645" lon="9.190369"><time>2024-05-04T12:15:42.000Z</time><ele>875.8</ele></trkpt><trkpt lat="45.828635" lon="9.190372"><time>2024-05-04T12:15:43.000Z</time><ele>875.8</ele></trkpt><trkpt lat="45.828624" lon="9.190375"><time>2024-05-04T12:15:44.000Z</time><ele>875.6</ele></trkpt><trkpt lat="45.828614" lon="9.190376"><time>2024-05-04T12:15:45.000Z</time><ele>875.4</ele></trkpt><trkpt lat="45.828606" lon="9.190373"><time>2024-05-04T12:15:46.000Z</time><ele>875.4</ele></trkpt><trkpt lat="45.828595" lon="9.190368"><time>2024-05-04T12:15:47.000Z</time><ele>875.2</ele></trkpt><trkpt lat="45.828584" lon="9.190364"><time>2024-05-04T12:15:48.000Z</time><ele>875</ele></trkpt><trkpt lat="45.82857" lon="9.190363"><time>2024-05-04T12:15:49.000Z</time><ele>875</ele></trkpt><trkpt lat="45.82855" lon="9.190362"><time>2024-05-04T12:15:50.000Z</time><ele>874.8</ele></trkpt><trkpt lat="45.828533" lon="9.190358"><time>2024-05-04T12:15:51.000Z</time><ele>874.6</ele></trkpt><trkpt lat="45.828519" lon="9.190349"><time>2024-05-04T12:15:52.000Z</time><ele>874.6</ele></trkpt><trkpt lat="45.828506" lon="9.190333"><time>2024-05-04T12:15:53.000Z</time><ele>874.6</ele></trkpt><trkpt lat="45.828492" lon="9.190322"><time>2024-05-04T12:15:54.000Z</time><ele>874.4</ele></trkpt><trkpt lat="45.828479" lon="9.190318"><time>2024-05-04T12:15:55.000Z</time><ele>874.4</ele></trkpt><trkpt lat="45.828467" lon="9.190312"><time>2024-05-04T12:15:56.000Z</time><ele>874.4</ele></trkpt><trkpt lat="45.828459" lon="9.190303"><time>2024-05-04T12:15:57.000Z</time><ele>874.4</ele></trkpt><trkpt lat="45.828453" lon="9.19029"><time>2024-05-04T12:15:58.000Z</time><ele>874.2</ele></trkpt><trkpt lat="45.828447" lon="9.190277"><time>2024-05-04T12:15:59.000Z</time><ele>874.2</ele></trkpt><trkpt lat="45.828438" lon="9.190266"><time>2024-05-04T12:16:00.000Z</time><ele>874.2</ele></trkpt><trkpt lat="45.828429" lon="9.190258"><time>2024-05-04T12:16:01.000Z</time><ele>874.2</ele></trkpt><trkpt lat="45.828421" lon="9.190247"><time>2024-05-04T12:16:02.000Z</time><ele>874.2</ele></trkpt><trkpt lat="45.828414" lon="9.19024"><time>2024-05-04T12:16:03.000Z</time><ele>874.2</ele></trkpt><trkpt lat="45.828406" lon="9.190236"><time>2024-05-04T12:16:04.000Z</time><ele>874.2</ele></trkpt><trkpt lat="45.828395" lon="9.190227"><time>2024-05-04T12:16:05.000Z</time><ele>874.2</ele></trkpt><trkpt lat="45.828385" lon="9.190215"><time>2024-05-04T12:16:06.000Z</time><ele>874</ele></trkpt><trkpt lat="45.828374" lon="9.190204"><time>2024-05-04T12:16:07.000Z</time><ele>874</ele></trkpt><trkpt lat="45.828363" lon="9.190194"><time>2024-05-04T12:16:08.000Z</time><ele>874</ele></trkpt><trkpt lat="45.828354" lon="9.19018"><time>2024-05-04T12:16:09.000Z</time><ele>873.8</ele></trkpt><trkpt lat="45.828341" lon="9.190161"><time>2024-05-04T12:16:10.000Z</time><ele>873.8</ele></trkpt><trkpt lat="45.828323" lon="9.190153"><time>2024-05-04T12:16:11.000Z</time><ele>873.8</ele></trkpt><trkpt lat="45.828313" lon="9.190132"><time>2024-05-04T12:16:12.000Z</time><ele>873.8</ele></trkpt><trkpt lat="45.828305" lon="9.190107"><time>2024-05-04T12:16:13.000Z</time><ele>873.8</ele></trkpt><trkpt lat="45.828291" lon="9.190084"><time>2024-05-04T12:16:14.000Z</time><ele>873.6</ele></trkpt><trkpt lat="45.828283" lon="9.190064"><time>2024-05-04T12:16:15.000Z</time><ele>873.6</ele></trkpt><trkpt lat="45.828279" lon="9.190049"><time>2024-05-04T12:16:16.000Z</time><ele>873.6</ele></trkpt><trkpt lat="45.828275" lon="9.19004"><time>2024-05-04T12:16:17.000Z</time><ele>873.6</ele></trkpt><trkpt lat="45.828272" lon="9.190028"><time>2024-05-04T12:16:18.000Z</time><ele>873.6</ele></trkpt><trkpt lat="45.828266" lon="9.190016"><time>2024-05-04T12:16:19.000Z</time><ele>873.6</ele></trkpt><trkpt lat="45.82826" lon="9.190006"><time>2024-05-04T12:16:20.000Z</time><ele>873.6</ele></trkpt><trkpt lat="45.828254" lon="9.189995"><time>2024-05-04T12:16:21.000Z</time><ele>873.6</ele></trkpt><trkpt lat="45.828248" lon="9.189985"><time>2024-05-04T12:16:22.000Z</time><ele>873.6</ele></trkpt><trkpt lat="45.828239" lon="9.18997"><time>2024-05-04T12:16:23.000Z</time><ele>873.6</ele></trkpt><trkpt lat="45.828229" lon="9.189955"><time>2024-05-04T12:16:24.000Z</time><ele>873.4</ele></trkpt><trkpt lat="45.828219" lon="9.189941"><time>2024-05-04T12:16:25.000Z</time><ele>873.4</ele></trkpt><trkpt lat="45.828204" lon="9.189932"><time>2024-05-04T12:16:26.000Z</time><ele>873.4</ele></trkpt><trkpt lat="45.828191" lon="9.189926"><time>2024-05-04T12:16:27.000Z</time><ele>873.4</ele></trkpt><trkpt lat="45.828179" lon="9.189913"><time>2024-05-04T12:16:28.000Z</time><ele>873.4</ele></trkpt><trkpt lat="45.828167" lon="9.189895"><time>2024-05-04T12:16:29.000Z</time><ele>873.4</ele></trkpt><trkpt lat="45.828158" lon="9.189886"><time>2024-05-04T12:16:30.000Z</time><ele>873.4</ele></trkpt><trkpt lat="45.828144" lon="9.189874"><time>2024-05-04T12:16:31.000Z</time><ele>873.4</ele></trkpt><trkpt lat="45.828135" lon="9.189866"><time>2024-05-04T12:16:32.000Z</time><ele>873.4</ele></trkpt><trkpt lat="45.828127" lon="9.189857"><time>2024-05-04T12:16:33.000Z</time><ele>873.4</ele></trkpt><trkpt lat="45.828115" lon="9.189846"><time>2024-05-04T12:16:34.000Z</time><ele>873.4</ele></trkpt><trkpt lat="45.828104" lon="9.189837"><time>2024-05-04T12:16:35.000Z</time><ele>873.4</ele></trkpt><trkpt lat="45.828091" lon="9.189824"><time>2024-05-04T12:16:36.000Z</time><ele>873.4</ele></trkpt><trkpt lat="45.828081" lon="9.189809"><time>2024-05-04T12:16:37.000Z</time><ele>873.4</ele></trkpt><trkpt lat="45.828073" lon="9.189793"><time>2024-05-04T12:16:38.000Z</time><ele>873.2</ele></trkpt><trkpt lat="45.828063" lon="9.189782"><time>2024-05-04T12:16:39.000Z</time><ele>873.2</ele></trkpt><trkpt lat="45.828056" lon="9.189777"><time>2024-05-04T12:16:40.000Z</time><ele>873.2</ele></trkpt><trkpt lat="45.828043" lon="9.189769"><time>2024-05-04T12:16:41.000Z</time><ele>873</ele></trkpt><trkpt lat="45.828031" lon="9.189758"><time>2024-05-04T12:16:42.000Z</time><ele>873</ele></trkpt><trkpt lat="45.828018" lon="9.189748"><time>2024-05-04T12:16:43.000Z</time><ele>872.8</ele></trkpt><trkpt lat="45.828001" lon="9.189742"><time>2024-05-04T12:16:44.000Z</time><ele>872.8</ele></trkpt><trkpt lat="45.827987" lon="9.189737"><time>2024-05-04T12:16:45.000Z</time><ele>872.8</ele></trkpt><trkpt lat="45.827973" lon="9.189722"><time>2024-05-04T12:16:46.000Z</time><ele>872.8</ele></trkpt><trkpt lat="45.827964" lon="9.189713"><time>2024-05-04T12:16:47.000Z</time><ele>873</ele></trkpt><trkpt lat="45.827956" lon="9.189702"><time>2024-05-04T12:16:48.000Z</time><ele>873</ele></trkpt><trkpt lat="45.827949" lon="9.189688"><time>2024-05-04T12:16:49.000Z</time><ele>873</ele></trkpt><trkpt lat="45.827942" lon="9.189667"><time>2024-05-04T12:16:50.000Z</time><ele>873</ele></trkpt><trkpt lat="45.827937" lon="9.189643"><time>2024-05-04T12:16:51.000Z</time><ele>873</ele></trkpt><trkpt lat="45.827925" lon="9.189633"><time>2024-05-04T12:16:52.000Z</time><ele>873</ele></trkpt><trkpt lat="45.827913" lon="9.189617"><time>2024-05-04T12:16:53.000Z</time><ele>873</ele></trkpt><trkpt lat="45.827906" lon="9.189598"><time>2024-05-04T12:16:54.000Z</time><ele>872.8</ele></trkpt><trkpt lat="45.827898" lon="9.189584"><time>2024-05-04T12:16:55.000Z</time><ele>872.8</ele></trkpt><trkpt lat="45.827891" lon="9.189569"><time>2024-05-04T12:16:56.000Z</time><ele>872.8</ele></trkpt><trkpt lat="45.827885" lon="9.189556"><time>2024-05-04T12:16:57.000Z</time><ele>872.6</ele></trkpt><trkpt lat="45.827873" lon="9.189548"><time>2024-05-04T12:16:58.000Z</time><ele>872.6</ele></trkpt><trkpt lat="45.827862" lon="9.189541"><time>2024-05-04T12:16:59.000Z</time><ele>872.6</ele></trkpt><trkpt lat="45.827858" lon="9.189528"><time>2024-05-04T12:17:00.000Z</time><ele>872.4</ele></trkpt><trkpt lat="45.827855" lon="9.189521"><time>2024-05-04T12:17:01.000Z</time><ele>872.4</ele></trkpt><trkpt lat="45.82785" lon="9.189513"><time>2024-05-04T12:17:02.000Z</time><ele>872.2</ele></trkpt><trkpt lat="45.82784" lon="9.189513"><time>2024-05-04T12:17:03.000Z</time><ele>872.2</ele></trkpt><trkpt lat="45.82783" lon="9.189506"><time>2024-05-04T12:17:04.000Z</time><ele>872</ele></trkpt><trkpt lat="45.827815" lon="9.189502"><time>2024-05-04T12:17:05.000Z</time><ele>872</ele></trkpt><trkpt lat="45.827805" lon="9.189495"><time>2024-05-04T12:17:06.000Z</time><ele>871.8</ele></trkpt><trkpt lat="45.827797" lon="9.189488"><time>2024-05-04T12:17:07.000Z</time><ele>871.4</ele></trkpt><trkpt lat="45.827787" lon="9.189478"><time>2024-05-04T12:17:08.000Z</time><ele>871.2</ele></trkpt><trkpt lat="45.827774" lon="9.189472"><time>2024-05-04T12:17:09.000Z</time><ele>871</ele></trkpt><trkpt lat="45.827764" lon="9.189471"><time>2024-05-04T12:17:10.000Z</time><ele>870.8</ele></trkpt><trkpt lat="45.82775" lon="9.189479"><time>2024-05-04T12:17:11.000Z</time><ele>870.4</ele></trkpt><trkpt lat="45.827733" lon="9.189479"><time>2024-05-04T12:17:12.000Z</time><ele>870.2</ele></trkpt><trkpt lat="45.827717" lon="9.189478"><time>2024-05-04T12:17:13.000Z</time><ele>870</ele></trkpt><trkpt lat="45.827705" lon="9.189478"><time>2024-05-04T12:17:14.000Z</time><ele>870</ele></trkpt><trkpt lat="45.827691" lon="9.189482"><time>2024-05-04T12:17:15.000Z</time><ele>869.8</ele></trkpt><trkpt lat="45.827675" lon="9.189487"><time>2024-05-04T12:17:16.000Z</time><ele>869.6</ele></trkpt><trkpt lat="45.827663" lon="9.189479"><time>2024-05-04T12:17:17.000Z</time><ele>869.4</ele></trkpt><trkpt lat="45.827648" lon="9.189486"><time>2024-05-04T12:17:18.000Z</time><ele>869.2</ele></trkpt><trkpt lat="45.827638" lon="9.189498"><time>2024-05-04T12:17:19.000Z</time><ele>869</ele></trkpt><trkpt lat="45.827625" lon="9.189495"><time>2024-05-04T12:17:20.000Z</time><ele>868.8</ele></trkpt><trkpt lat="45.827613" lon="9.189489"><time>2024-05-04T12:17:21.000Z</time><ele>868.8</ele></trkpt><trkpt lat="45.827602" lon="9.189497"><time>2024-05-04T12:17:22.000Z</time><ele>868.6</ele></trkpt><trkpt lat="45.827591" lon="9.189497"><time>2024-05-04T12:17:23.000Z</time><ele>868.4</ele></trkpt><trkpt lat="45.827579" lon="9.1895"><time>2024-05-04T12:17:24.000Z</time><ele>868</ele></trkpt><trkpt lat="45.827568" lon="9.189505"><time>2024-05-04T12:17:25.000Z</time><ele>867.8</ele></trkpt><trkpt lat="45.827552" lon="9.189516"><time>2024-05-04T12:17:26.000Z</time><ele>867.6</ele></trkpt><trkpt lat="45.827543" lon="9.18952"><time>2024-05-04T12:17:27.000Z</time><ele>867.4</ele></trkpt><trkpt lat="45.82753" lon="9.189525"><time>2024-05-04T12:17:28.000Z</time><ele>867.4</ele></trkpt><trkpt lat="45.827513" lon="9.189526"><time>2024-05-04T12:17:29.000Z</time><ele>867.4</ele></trkpt><trkpt lat="45.827503" lon="9.189518"><time>2024-05-04T12:17:30.000Z</time><ele>867.2</ele></trkpt><trkpt lat="45.827491" lon="9.189512"><time>2024-05-04T12:17:31.000Z</time><ele>867</ele></trkpt><trkpt lat="45.827492" lon="9.189477"><time>2024-05-04T12:17:32.000Z</time><ele>867</ele></trkpt><trkpt lat="45.827484" lon="9.189469"><time>2024-05-04T12:17:33.000Z</time><ele>866.6</ele></trkpt><trkpt lat="45.827472" lon="9.189453"><time>2024-05-04T12:17:34.000Z</time><ele>866.4</ele></trkpt><trkpt lat="45.827463" lon="9.189449"><time>2024-05-04T12:17:35.000Z</time><ele>866.2</ele></trkpt><trkpt lat="45.827452" lon="9.189445"><time>2024-05-04T12:17:36.000Z</time><ele>866.2</ele></trkpt><trkpt lat="45.827437" lon="9.189439"><time>2024-05-04T12:17:37.000Z</time><ele>866</ele></trkpt><trkpt lat="45.827427" lon="9.189436"><time>2024-05-04T12:17:38.000Z</time><ele>866</ele></trkpt><trkpt lat="45.827409" lon="9.18944"><time>2024-05-04T12:17:39.000Z</time><ele>865.8</ele></trkpt><trkpt lat="45.827398" lon="9.189443"><time>2024-05-04T12:17:40.000Z</time><ele>865.8</ele></trkpt><trkpt lat="45.82738" lon="9.189441"><time>2024-05-04T12:17:41.000Z</time><ele>865.8</ele></trkpt><trkpt lat="45.827368" lon="9.189432"><time>2024-05-04T12:17:42.000Z</time><ele>865.8</ele></trkpt><trkpt lat="45.827354" lon="9.189425"><time>2024-05-04T12:17:43.000Z</time><ele>865.6</ele></trkpt><trkpt lat="45.82734" lon="9.189415"><time>2024-05-04T12:17:44.000Z</time><ele>865.6</ele></trkpt><trkpt lat="45.827327" lon="9.189405"><time>2024-05-04T12:17:45.000Z</time><ele>865.4</ele></trkpt><trkpt lat="45.827315" lon="9.189398"><time>2024-05-04T12:17:46.000Z</time><ele>865.4</ele></trkpt><trkpt lat="45.827305" lon="9.18939"><time>2024-05-04T12:17:47.000Z</time><ele>865.2</ele></trkpt><trkpt lat="45.827296" lon="9.189378"><time>2024-05-04T12:17:48.000Z</time><ele>865.2</ele></trkpt><trkpt lat="45.827286" lon="9.189369"><time>2024-05-04T12:17:49.000Z</time><ele>865</ele></trkpt><trkpt lat="45.827272" lon="9.189369"><time>2024-05-04T12:17:50.000Z</time><ele>865</ele></trkpt><trkpt lat="45.827253" lon="9.189376"><time>2024-05-04T12:17:51.000Z</time><ele>865</ele></trkpt><trkpt lat="45.827239" lon="9.189371"><time>2024-05-04T12:17:52.000Z</time><ele>864.8</ele></trkpt><trkpt lat="45.827229" lon="9.189353"><time>2024-05-04T12:17:53.000Z</time><ele>864.8</ele></trkpt><trkpt lat="45.827221" lon="9.189341"><time>2024-05-04T12:17:54.000Z</time><ele>864.8</ele></trkpt><trkpt lat="45.827213" lon="9.189328"><time>2024-05-04T12:17:55.000Z</time><ele>864.8</ele></trkpt><trkpt lat="45.8272" lon="9.189331"><time>2024-05-04T12:17:56.000Z</time><ele>864.6</ele></trkpt><trkpt lat="45.827192" lon="9.189326"><time>2024-05-04T12:17:57.000Z</time><ele>864.6</ele></trkpt><trkpt lat="45.827183" lon="9.189319"><time>2024-05-04T12:17:58.000Z</time><ele>864.6</ele></trkpt><trkpt lat="45.827171" lon="9.189319"><time>2024-05-04T12:17:59.000Z</time><ele>864.6</ele></trkpt><trkpt lat="45.827157" lon="9.18932"><time>2024-05-04T12:18:00.000Z</time><ele>864.6</ele></trkpt><trkpt lat="45.827147" lon="9.189318"><time>2024-05-04T12:18:01.000Z</time><ele>864.4</ele></trkpt><trkpt lat="45.827132" lon="9.189314"><time>2024-05-04T12:18:02.000Z</time><ele>864.4</ele></trkpt><trkpt lat="45.827119" lon="9.189309"><time>2024-05-04T12:18:03.000Z</time><ele>864.4</ele></trkpt><trkpt lat="45.827106" lon="9.189304"><time>2024-05-04T12:18:04.000Z</time><ele>864.4</ele></trkpt><trkpt lat="45.827093" lon="9.1893"><time>2024-05-04T12:18:05.000Z</time><ele>864.4</ele></trkpt><trkpt lat="45.827081" lon="9.189294"><time>2024-05-04T12:18:06.000Z</time><ele>864.4</ele></trkpt><trkpt lat="45.827068" lon="9.189291"><time>2024-05-04T12:18:07.000Z</time><ele>864.4</ele></trkpt><trkpt lat="45.827058" lon="9.189293"><time>2024-05-04T12:18:08.000Z</time><ele>864.4</ele></trkpt><trkpt lat="45.827046" lon="9.189295"><time>2024-05-04T12:18:09.000Z</time><ele>864.4</ele></trkpt><trkpt lat="45.827033" lon="9.189291"><time>2024-05-04T12:18:10.000Z</time><ele>864.4</ele></trkpt><trkpt lat="45.827021" lon="9.18928"><time>2024-05-04T12:18:11.000Z</time><ele>864.4</ele></trkpt><trkpt lat="45.827008" lon="9.189269"><time>2024-05-04T12:18:12.000Z</time><ele>864.4</ele></trkpt><trkpt lat="45.826999" lon="9.189263"><time>2024-05-04T12:18:13.000Z</time><ele>864.4</ele></trkpt><trkpt lat="45.826986" lon="9.189263"><time>2024-05-04T12:18:14.000Z</time><ele>864.4</ele></trkpt><trkpt lat="45.826973" lon="9.189266"><time>2024-05-04T12:18:15.000Z</time><ele>864.4</ele></trkpt><trkpt lat="45.82696" lon="9.189257"><time>2024-05-04T12:18:16.000Z</time><ele>864.4</ele></trkpt><trkpt lat="45.826946" lon="9.189236"><time>2024-05-04T12:18:17.000Z</time><ele>864.4</ele></trkpt><trkpt lat="45.826934" lon="9.189224"><time>2024-05-04T12:18:18.000Z</time><ele>864.4</ele></trkpt><trkpt lat="45.82692" lon="9.189219"><time>2024-05-04T12:18:19.000Z</time><ele>864.2</ele></trkpt><trkpt lat="45.826908" lon="9.189215"><time>2024-05-04T12:18:20.000Z</time><ele>864.2</ele></trkpt><trkpt lat="45.826901" lon="9.189208"><time>2024-05-04T12:18:21.000Z</time><ele>864.2</ele></trkpt><trkpt lat="45.826885" lon="9.189205"><time>2024-05-04T12:18:22.000Z</time><ele>864.2</ele></trkpt><trkpt lat="45.826874" lon="9.189191"><time>2024-05-04T12:18:23.000Z</time><ele>864.2</ele></trkpt><trkpt lat="45.826866" lon="9.189183"><time>2024-05-04T12:18:24.000Z</time><ele>864.2</ele></trkpt><trkpt lat="45.826855" lon="9.189177"><time>2024-05-04T12:18:25.000Z</time><ele>864.2</ele></trkpt><trkpt lat="45.826845" lon="9.189176"><time>2024-05-04T12:18:26.000Z</time><ele>864.2</ele></trkpt><trkpt lat="45.826829" lon="9.189175"><time>2024-05-04T12:18:27.000Z</time><ele>864.2</ele></trkpt><trkpt lat="45.826819" lon="9.189167"><time>2024-05-04T12:18:28.000Z</time><ele>864.2</ele></trkpt><trkpt lat="45.826809" lon="9.189164"><time>2024-05-04T12:18:29.000Z</time><ele>864.2</ele></trkpt><trkpt lat="45.826796" lon="9.189162"><time>2024-05-04T12:18:30.000Z</time><ele>864.2</ele></trkpt><trkpt lat="45.826774" lon="9.189154"><time>2024-05-04T12:18:31.000Z</time><ele>864.2</ele></trkpt><trkpt lat="45.826756" lon="9.189152"><time>2024-05-04T12:18:32.000Z</time><ele>864.2</ele></trkpt><trkpt lat="45.826741" lon="9.189148"><time>2024-05-04T12:18:33.000Z</time><ele>864.2</ele></trkpt><trkpt lat="45.826723" lon="9.189142"><time>2024-05-04T12:18:34.000Z</time><ele>864.2</ele></trkpt><trkpt lat="45.826709" lon="9.189136"><time>2024-05-04T12:18:35.000Z</time><ele>864.2</ele></trkpt><trkpt lat="45.826694" lon="9.189135"><time>2024-05-04T12:18:36.000Z</time><ele>864</ele></trkpt><trkpt lat="45.82668" lon="9.189136"><time>2024-05-04T12:18:37.000Z</time><ele>864</ele></trkpt><trkpt lat="45.826664" lon="9.189143"><time>2024-05-04T12:18:38.000Z</time><ele>864</ele></trkpt><trkpt lat="45.826652" lon="9.189151"><time>2024-05-04T12:18:39.000Z</time><ele>864</ele></trkpt><trkpt lat="45.826638" lon="9.189162"><time>2024-05-04T12:18:40.000Z</time><ele>864</ele></trkpt><trkpt lat="45.826624" lon="9.189172"><time>2024-05-04T12:18:41.000Z</time><ele>864</ele></trkpt><trkpt lat="45.82661" lon="9.189182"><time>2024-05-04T12:18:42.000Z</time><ele>864</ele></trkpt><trkpt lat="45.826596" lon="9.189191"><time>2024-05-04T12:18:43.000Z</time><ele>864</ele></trkpt><trkpt lat="45.826584" lon="9.189201"><time>2024-05-04T12:18:44.000Z</time><ele>864</ele></trkpt><trkpt lat="45.826573" lon="9.18921"><time>2024-05-04T12:18:45.000Z</time><ele>864</ele></trkpt><trkpt lat="45.826559" lon="9.189216"><time>2024-05-04T12:18:46.000Z</time><ele>864</ele></trkpt><trkpt lat="45.826546" lon="9.18922"><time>2024-05-04T12:18:47.000Z</time><ele>864</ele></trkpt><trkpt lat="45.826534" lon="9.189222"><time>2024-05-04T12:18:48.000Z</time><ele>864</ele></trkpt><trkpt lat="45.826524" lon="9.189221"><time>2024-05-04T12:18:49.000Z</time><ele>863.8</ele></trkpt><trkpt lat="45.826518" lon="9.189223"><time>2024-05-04T12:18:50.000Z</time><ele>863.8</ele></trkpt><trkpt lat="45.826508" lon="9.189228"><time>2024-05-04T12:18:51.000Z</time><ele>863.8</ele></trkpt><trkpt lat="45.826495" lon="9.189235"><time>2024-05-04T12:18:52.000Z</time><ele>863.8</ele></trkpt><trkpt lat="45.826488" lon="9.189244"><time>2024-05-04T12:18:53.000Z</time><ele>863.6</ele></trkpt><trkpt lat="45.826481" lon="9.189254"><time>2024-05-04T12:18:54.000Z</time><ele>863.4</ele></trkpt><trkpt lat="45.826474" lon="9.189262"><time>2024-05-04T12:18:55.000Z</time><ele>863.4</ele></trkpt><trkpt lat="45.826462" lon="9.189269"><time>2024-05-04T12:18:56.000Z</time><ele>863.4</ele></trkpt><trkpt lat="45.826448" lon="9.189271"><time>2024-05-04T12:18:57.000Z</time><ele>863.4</ele></trkpt><trkpt lat="45.826438" lon="9.189275"><time>2024-05-04T12:18:58.000Z</time><ele>863.4</ele></trkpt><trkpt lat="45.826428" lon="9.189289"><time>2024-05-04T12:18:59.000Z</time><ele>863.4</ele></trkpt><trkpt lat="45.82642" lon="9.189302"><time>2024-05-04T12:19:00.000Z</time><ele>863.2</ele></trkpt><trkpt lat="45.826411" lon="9.189317"><time>2024-05-04T12:19:01.000Z</time><ele>863.2</ele></trkpt><trkpt lat="45.826403" lon="9.18932"><time>2024-05-04T12:19:02.000Z</time><ele>863</ele></trkpt><trkpt lat="45.826397" lon="9.189316"><time>2024-05-04T12:19:03.000Z</time><ele>863</ele></trkpt><trkpt lat="45.826385" lon="9.18932"><time>2024-05-04T12:19:04.000Z</time><ele>862.8</ele></trkpt><trkpt lat="45.826374" lon="9.189331"><time>2024-05-04T12:19:05.000Z</time><ele>862.8</ele></trkpt><trkpt lat="45.826365" lon="9.18935"><time>2024-05-04T12:19:06.000Z</time><ele>862.8</ele></trkpt><trkpt lat="45.826353" lon="9.189367"><time>2024-05-04T12:19:07.000Z</time><ele>862.8</ele></trkpt><trkpt lat="45.826339" lon="9.189379"><time>2024-05-04T12:19:08.000Z</time><ele>862.6</ele></trkpt><trkpt lat="45.826327" lon="9.189394"><time>2024-05-04T12:19:09.000Z</time><ele>862.6</ele></trkpt><trkpt lat="45.826313" lon="9.189414"><time>2024-05-04T12:19:10.000Z</time><ele>862.4</ele></trkpt><trkpt lat="45.826295" lon="9.189423"><time>2024-05-04T12:19:11.000Z</time><ele>862.4</ele></trkpt><trkpt lat="45.826277" lon="9.189427"><time>2024-05-04T12:19:12.000Z</time><ele>862.4</ele></trkpt><trkpt lat="45.826263" lon="9.189428"><time>2024-05-04T12:19:13.000Z</time><ele>862.2</ele></trkpt><trkpt lat="45.826254" lon="9.18943"><time>2024-05-04T12:19:14.000Z</time><ele>862.2</ele></trkpt><trkpt lat="45.826245" lon="9.189437"><time>2024-05-04T12:19:15.000Z</time><ele>862.2</ele></trkpt><trkpt lat="45.826236" lon="9.189442"><time>2024-05-04T12:19:16.000Z</time><ele>862.2</ele></trkpt><trkpt lat="45.826225" lon="9.189444"><time>2024-05-04T12:19:17.000Z</time><ele>862.2</ele></trkpt><trkpt lat="45.82622" lon="9.189442"><time>2024-05-04T12:19:18.000Z</time><ele>862</ele></trkpt><trkpt lat="45.826212" lon="9.189439"><time>2024-05-04T12:19:19.000Z</time><ele>862</ele></trkpt><trkpt lat="45.826205" lon="9.189444"><time>2024-05-04T12:19:20.000Z</time><ele>861.8</ele></trkpt><trkpt lat="45.826195" lon="9.189451"><time>2024-05-04T12:19:21.000Z</time><ele>861.6</ele></trkpt><trkpt lat="45.826185" lon="9.189452"><time>2024-05-04T12:19:22.000Z</time><ele>861.6</ele></trkpt><trkpt lat="45.826175" lon="9.189451"><time>2024-05-04T12:19:23.000Z</time><ele>861.4</ele></trkpt><trkpt lat="45.826166" lon="9.189449"><time>2024-05-04T12:19:24.000Z</time><ele>861.2</ele></trkpt><trkpt lat="45.826155" lon="9.189449"><time>2024-05-04T12:19:25.000Z</time><ele>861.2</ele></trkpt><trkpt lat="45.82614" lon="9.18945"><time>2024-05-04T12:19:26.000Z</time><ele>861</ele></trkpt><trkpt lat="45.826123" lon="9.189452"><time>2024-05-04T12:19:27.000Z</time><ele>861</ele></trkpt><trkpt lat="45.82611" lon="9.189455"><time>2024-05-04T12:19:28.000Z</time><ele>861</ele></trkpt><trkpt lat="45.826098" lon="9.189459"><time>2024-05-04T12:19:29.000Z</time><ele>861</ele></trkpt><trkpt lat="45.826088" lon="9.189461"><time>2024-05-04T12:19:30.000Z</time><ele>861</ele></trkpt><trkpt lat="45.826077" lon="9.189461"><time>2024-05-04T12:19:31.000Z</time><ele>860.8</ele></trkpt><trkpt lat="45.826067" lon="9.189463"><time>2024-05-04T12:19:32.000Z</time><ele>860.6</ele></trkpt><trkpt lat="45.826061" lon="9.189464"><time>2024-05-04T12:19:33.000Z</time><ele>860.4</ele></trkpt><trkpt lat="45.826059" lon="9.189463"><time>2024-05-04T12:19:34.000Z</time><ele>860.4</ele></trkpt><trkpt lat="45.826059" lon="9.189463"><time>2024-05-04T12:19:35.000Z</time><ele>860.4</ele></trkpt><trkpt lat="45.826059" lon="9.189463"><time>2024-05-04T12:19:36.000Z</time><ele>860.2</ele></trkpt><trkpt lat="45.826058" lon="9.189463"><time>2024-05-04T12:19:37.000Z</time><ele>860.2</ele></trkpt><trkpt lat="45.826059" lon="9.189461"><time>2024-05-04T12:19:38.000Z</time><ele>860.2</ele></trkpt><trkpt lat="45.82606" lon="9.189462"><time>2024-05-04T12:19:39.000Z</time><ele>860.2</ele></trkpt><trkpt lat="45.826059" lon="9.189464"><time>2024-05-04T12:19:40.000Z</time><ele>860.2</ele></trkpt><trkpt lat="45.826055" lon="9.189471"><time>2024-05-04T12:19:41.000Z</time><ele>860.2</ele></trkpt><trkpt lat="45.826044" lon="9.189473"><time>2024-05-04T12:19:42.000Z</time><ele>860.2</ele></trkpt><trkpt lat="45.826033" lon="9.189476"><time>2024-05-04T12:19:43.000Z</time><ele>860.2</ele></trkpt><trkpt lat="45.826023" lon="9.189475"><time>2024-05-04T12:19:44.000Z</time><ele>860.2</ele></trkpt><trkpt lat="45.826013" lon="9.189476"><time>2024-05-04T12:19:45.000Z</time><ele>860.2</ele></trkpt><trkpt lat="45.826005" lon="9.189482"><time>2024-05-04T12:19:46.000Z</time><ele>860.2</ele></trkpt><trkpt lat="45.825994" lon="9.189485"><time>2024-05-04T12:19:47.000Z</time><ele>860.2</ele></trkpt><trkpt lat="45.825988" lon="9.189493"><time>2024-05-04T12:19:48.000Z</time><ele>860.2</ele></trkpt><trkpt lat="45.825982" lon="9.189503"><time>2024-05-04T12:19:49.000Z</time><ele>860</ele></trkpt><trkpt lat="45.825972" lon="9.189515"><time>2024-05-04T12:19:50.000Z</time><ele>860</ele></trkpt><trkpt lat="45.825963" lon="9.189522"><time>2024-05-04T12:19:51.000Z</time><ele>860.2</ele></trkpt><trkpt lat="45.825955" lon="9.189528"><time>2024-05-04T12:19:52.000Z</time><ele>860</ele></trkpt><trkpt lat="45.825952" lon="9.189528"><time>2024-05-04T12:19:53.000Z</time><ele>860</ele></trkpt><trkpt lat="45.825942" lon="9.18953"><time>2024-05-04T12:19:54.000Z</time><ele>860</ele></trkpt><trkpt lat="45.825924" lon="9.189533"><time>2024-05-04T12:19:55.000Z</time><ele>860.2</ele></trkpt><trkpt lat="45.825914" lon="9.18954"><time>2024-05-04T12:19:56.000Z</time><ele>860.2</ele></trkpt><trkpt lat="45.825902" lon="9.189543"><time>2024-05-04T12:19:57.000Z</time><ele>860.2</ele></trkpt><trkpt lat="45.825892" lon="9.189541"><time>2024-05-04T12:19:58.000Z</time><ele>860.2</ele></trkpt><trkpt lat="45.825881" lon="9.189541"><time>2024-05-04T12:19:59.000Z</time><ele>860.2</ele></trkpt><trkpt lat="45.825867" lon="9.189542"><time>2024-05-04T12:20:00.000Z</time><ele>860.4</ele></trkpt><trkpt lat="45.825856" lon="9.189544"><time>2024-05-04T12:20:01.000Z</time><ele>860.6</ele></trkpt><trkpt lat="45.825846" lon="9.189545"><time>2024-05-04T12:20:02.000Z</time><ele>860.6</ele></trkpt><trkpt lat="45.825835" lon="9.189539"><time>2024-05-04T12:20:03.000Z</time><ele>860.6</ele></trkpt><trkpt lat="45.825831" lon="9.189537"><time>2024-05-04T12:20:04.000Z</time><ele>860.8</ele></trkpt><trkpt lat="45.82583" lon="9.189535"><time>2024-05-04T12:20:05.000Z</time><ele>860.8</ele></trkpt><trkpt lat="45.825823" lon="9.189532"><time>2024-05-04T12:20:06.000Z</time><ele>860.8</ele></trkpt><trkpt lat="45.825814" lon="9.189536"><time>2024-05-04T12:20:07.000Z</time><ele>860.8</ele></trkpt><trkpt lat="45.825812" lon="9.189537"><time>2024-05-04T12:20:08.000Z</time><ele>860.6</ele></trkpt><trkpt lat="45.825797" lon="9.189542"><time>2024-05-04T12:20:09.000Z</time><ele>860.4</ele></trkpt><trkpt lat="45.825788" lon="9.189533"><time>2024-05-04T12:20:10.000Z</time><ele>860.4</ele></trkpt><trkpt lat="45.825776" lon="9.189522"><time>2024-05-04T12:20:11.000Z</time><ele>860.4</ele></trkpt><trkpt lat="45.825765" lon="9.189522"><time>2024-05-04T12:20:12.000Z</time><ele>860.4</ele></trkpt><trkpt lat="45.82575" lon="9.189524"><time>2024-05-04T12:20:13.000Z</time><ele>860.4</ele></trkpt><trkpt lat="45.825736" lon="9.189534"><time>2024-05-04T12:20:14.000Z</time><ele>860.4</ele></trkpt><trkpt lat="45.825724" lon="9.189536"><time>2024-05-04T12:20:15.000Z</time><ele>860.4</ele></trkpt><trkpt lat="45.82571" lon="9.189538"><time>2024-05-04T12:20:16.000Z</time><ele>860.4</ele></trkpt><trkpt lat="45.825696" lon="9.189539"><time>2024-05-04T12:20:17.000Z</time><ele>860.4</ele></trkpt><trkpt lat="45.825684" lon="9.189537"><time>2024-05-04T12:20:18.000Z</time><ele>860.4</ele></trkpt><trkpt lat="45.825672" lon="9.189539"><time>2024-05-04T12:20:19.000Z</time><ele>860.4</ele></trkpt><trkpt lat="45.825659" lon="9.189538"><time>2024-05-04T12:20:20.000Z</time><ele>860.4</ele></trkpt><trkpt lat="45.825638" lon="9.189532"><time>2024-05-04T12:20:21.000Z</time><ele>860.4</ele></trkpt><trkpt lat="45.825633" lon="9.189533"><time>2024-05-04T12:20:22.000Z</time><ele>860.4</ele></trkpt><trkpt lat="45.825621" lon="9.189532"><time>2024-05-04T12:20:23.000Z</time><ele>860.4</ele></trkpt><trkpt lat="45.825613" lon="9.189522"><time>2024-05-04T12:20:24.000Z</time><ele>860.6</ele></trkpt><trkpt lat="45.825603" lon="9.189515"><time>2024-05-04T12:20:25.000Z</time><ele>860.6</ele></trkpt><trkpt lat="45.825591" lon="9.189502"><time>2024-05-04T12:20:26.000Z</time><ele>860.6</ele></trkpt><trkpt lat="45.825577" lon="9.189493"><time>2024-05-04T12:20:27.000Z</time><ele>860.6</ele></trkpt><trkpt lat="45.82556" lon="9.189483"><time>2024-05-04T12:20:28.000Z</time><ele>860.4</ele></trkpt><trkpt lat="45.825544" lon="9.189474"><time>2024-05-04T12:20:29.000Z</time><ele>860.4</ele></trkpt><trkpt lat="45.82553" lon="9.189468"><time>2024-05-04T12:20:30.000Z</time><ele>860.4</ele></trkpt><trkpt lat="45.825517" lon="9.189468"><time>2024-05-04T12:20:31.000Z</time><ele>860.4</ele></trkpt><trkpt lat="45.825503" lon="9.189468"><time>2024-05-04T12:20:32.000Z</time><ele>860.4</ele></trkpt><trkpt lat="45.825493" lon="9.189471"><time>2024-05-04T12:20:33.000Z</time><ele>860.4</ele></trkpt><trkpt lat="45.82548" lon="9.189472"><time>2024-05-04T12:20:34.000Z</time><ele>860.4</ele></trkpt><trkpt lat="45.825468" lon="9.18947"><time>2024-05-04T12:20:35.000Z</time><ele>860.4</ele></trkpt><trkpt lat="45.825453" lon="9.189467"><time>2024-05-04T12:20:36.000Z</time><ele>860.6</ele></trkpt><trkpt lat="45.825442" lon="9.189462"><time>2024-05-04T12:20:37.000Z</time><ele>860.6</ele></trkpt><trkpt lat="45.825427" lon="9.189456"><time>2024-05-04T12:20:38.000Z</time><ele>860.6</ele></trkpt><trkpt lat="45.825419" lon="9.189452"><time>2024-05-04T12:20:39.000Z</time><ele>860.6</ele></trkpt><trkpt lat="45.8254" lon="9.189438"><time>2024-05-04T12:20:40.000Z</time><ele>860.8</ele></trkpt><trkpt lat="45.825389" lon="9.189435"><time>2024-05-04T12:20:41.000Z</time><ele>860.8</ele></trkpt><trkpt lat="45.82538" lon="9.189439"><time>2024-05-04T12:20:42.000Z</time><ele>860.8</ele></trkpt><trkpt lat="45.825367" lon="9.189435"><time>2024-05-04T12:20:43.000Z</time><ele>860.8</ele></trkpt><trkpt lat="45.825361" lon="9.189439"><time>2024-05-04T12:20:44.000Z</time><ele>861</ele></trkpt><trkpt lat="45.825353" lon="9.189442"><time>2024-05-04T12:20:45.000Z</time><ele>861</ele></trkpt><trkpt lat="45.825344" lon="9.189441"><time>2024-05-04T12:20:46.000Z</time><ele>861</ele></trkpt><trkpt lat="45.825332" lon="9.189437"><time>2024-05-04T12:20:47.000Z</time><ele>861</ele></trkpt><trkpt lat="45.825317" lon="9.189431"><time>2024-05-04T12:20:48.000Z</time><ele>861.2</ele></trkpt><trkpt lat="45.825308" lon="9.189426"><time>2024-05-04T12:20:49.000Z</time><ele>861.2</ele></trkpt><trkpt lat="45.825297" lon="9.189417"><time>2024-05-04T12:20:50.000Z</time><ele>861.2</ele></trkpt><trkpt lat="45.825288" lon="9.189414"><time>2024-05-04T12:20:51.000Z</time><ele>861.4</ele></trkpt><trkpt lat="45.825276" lon="9.189407"><time>2024-05-04T12:20:52.000Z</time><ele>861.4</ele></trkpt><trkpt lat="45.825266" lon="9.189407"><time>2024-05-04T12:20:53.000Z</time><ele>861.6</ele></trkpt><trkpt lat="45.825257" lon="9.189401"><time>2024-05-04T12:20:54.000Z</time><ele>861.6</ele></trkpt><trkpt lat="45.825249" lon="9.189394"><time>2024-05-04T12:20:55.000Z</time><ele>861.6</ele></trkpt><trkpt lat="45.825244" lon="9.189387"><time>2024-05-04T12:20:56.000Z</time><ele>861.6</ele></trkpt><trkpt lat="45.825237" lon="9.189378"><time>2024-05-04T12:20:57.000Z</time><ele>861.8</ele></trkpt><trkpt lat="45.825225" lon="9.189365"><time>2024-05-04T12:20:58.000Z</time><ele>861.8</ele></trkpt><trkpt lat="45.825213" lon="9.189355"><time>2024-05-04T12:20:59.000Z</time><ele>861.8</ele></trkpt><trkpt lat="45.825204" lon="9.189344"><time>2024-05-04T12:21:00.000Z</time><ele>861.8</ele></trkpt><trkpt lat="45.825196" lon="9.189331"><time>2024-05-04T12:21:01.000Z</time><ele>861.8</ele></trkpt><trkpt lat="45.825187" lon="9.189318"><time>2024-05-04T12:21:02.000Z</time><ele>861.8</ele></trkpt><trkpt lat="45.825179" lon="9.189308"><time>2024-05-04T12:21:03.000Z</time><ele>861.8</ele></trkpt><trkpt lat="45.825172" lon="9.189297"><time>2024-05-04T12:21:04.000Z</time><ele>861.8</ele></trkpt><trkpt lat="45.825165" lon="9.189286"><time>2024-05-04T12:21:05.000Z</time><ele>862</ele></trkpt><trkpt lat="45.825158" lon="9.189271"><time>2024-05-04T12:21:06.000Z</time><ele>862</ele></trkpt><trkpt lat="45.82515" lon="9.189255"><time>2024-05-04T12:21:07.000Z</time><ele>862.2</ele></trkpt><trkpt lat="45.82514" lon="9.189239"><time>2024-05-04T12:21:08.000Z</time><ele>862.2</ele></trkpt><trkpt lat="45.825134" lon="9.189225"><time>2024-05-04T12:21:09.000Z</time><ele>862.2</ele></trkpt><trkpt lat="45.825131" lon="9.189211"><time>2024-05-04T12:21:10.000Z</time><ele>862.2</ele></trkpt><trkpt lat="45.825124" lon="9.189196"><time>2024-05-04T12:21:11.000Z</time><ele>862.2</ele></trkpt><trkpt lat="45.825119" lon="9.189182"><time>2024-05-04T12:21:12.000Z</time><ele>862.2</ele></trkpt><trkpt lat="45.825116" lon="9.18917"><time>2024-05-04T12:21:13.000Z</time><ele>862.2</ele></trkpt><trkpt lat="45.825115" lon="9.189157"><time>2024-05-04T12:21:14.000Z</time><ele>862.2</ele></trkpt><trkpt lat="45.825113" lon="9.189142"><time>2024-05-04T12:21:15.000Z</time><ele>862.2</ele></trkpt><trkpt lat="45.825112" lon="9.189128"><time>2024-05-04T12:21:16.000Z</time><ele>862.2</ele></trkpt><trkpt lat="45.825108" lon="9.189115"><time>2024-05-04T12:21:17.000Z</time><ele>862</ele></trkpt><trkpt lat="45.825103" lon="9.189099"><time>2024-05-04T12:21:18.000Z</time><ele>862</ele></trkpt><trkpt lat="45.825102" lon="9.189085"><time>2024-05-04T12:21:19.000Z</time><ele>862</ele></trkpt><trkpt lat="45.8251" lon="9.189072"><time>2024-05-04T12:21:20.000Z</time><ele>862</ele></trkpt><trkpt lat="45.825097" lon="9.189058"><time>2024-05-04T12:21:21.000Z</time><ele>862</ele></trkpt><trkpt lat="45.825091" lon="9.189045"><time>2024-05-04T12:21:22.000Z</time><ele>862</ele></trkpt><trkpt lat="45.825082" lon="9.189037"><time>2024-05-04T12:21:23.000Z</time><ele>862</ele></trkpt><trkpt lat="45.825077" lon="9.189021"><time>2024-05-04T12:21:24.000Z</time><ele>862</ele></trkpt><trkpt lat="45.825075" lon="9.189"><time>2024-05-04T12:21:25.000Z</time><ele>862</ele></trkpt><trkpt lat="45.825068" lon="9.188981"><time>2024-05-04T12:21:26.000Z</time><ele>862</ele></trkpt><trkpt lat="45.825065" lon="9.188964"><time>2024-05-04T12:21:27.000Z</time><ele>862</ele></trkpt><trkpt lat="45.825061" lon="9.188949"><time>2024-05-04T12:21:28.000Z</time><ele>862</ele></trkpt><trkpt lat="45.825058" lon="9.188935"><time>2024-05-04T12:21:29.000Z</time><ele>862</ele></trkpt><trkpt lat="45.825054" lon="9.188919"><time>2024-05-04T12:21:30.000Z</time><ele>862</ele></trkpt><trkpt lat="45.825048" lon="9.188902"><time>2024-05-04T12:21:31.000Z</time><ele>862</ele></trkpt><trkpt lat="45.825044" lon="9.188886"><time>2024-05-04T12:21:32.000Z</time><ele>862</ele></trkpt><trkpt lat="45.825042" lon="9.188869"><time>2024-05-04T12:21:33.000Z</time><ele>862</ele></trkpt><trkpt lat="45.825039" lon="9.18885"><time>2024-05-04T12:21:34.000Z</time><ele>862.2</ele></trkpt><trkpt lat="45.825038" lon="9.188834"><time>2024-05-04T12:21:35.000Z</time><ele>862.2</ele></trkpt><trkpt lat="45.825038" lon="9.188819"><time>2024-05-04T12:21:36.000Z</time><ele>862.2</ele></trkpt><trkpt lat="45.825039" lon="9.188801"><time>2024-05-04T12:21:37.000Z</time><ele>862.2</ele></trkpt><trkpt lat="45.825038" lon="9.188781"><time>2024-05-04T12:21:38.000Z</time><ele>862.2</ele></trkpt><trkpt lat="45.825036" lon="9.188762"><time>2024-05-04T12:21:39.000Z</time><ele>862.4</ele></trkpt><trkpt lat="45.825032" lon="9.188744"><time>2024-05-04T12:21:40.000Z</time><ele>862.4</ele></trkpt><trkpt lat="45.825031" lon="9.18873"><time>2024-05-04T12:21:41.000Z</time><ele>862.4</ele></trkpt><trkpt lat="45.825029" lon="9.188714"><time>2024-05-04T12:21:42.000Z</time><ele>862.6</ele></trkpt><trkpt lat="45.825026" lon="9.188698"><time>2024-05-04T12:21:43.000Z</time><ele>862.6</ele></trkpt><trkpt lat="45.825021" lon="9.188683"><time>2024-05-04T12:21:44.000Z</time><ele>862.6</ele></trkpt><trkpt lat="45.825017" lon="9.188673"><time>2024-05-04T12:21:45.000Z</time><ele>862.6</ele></trkpt><trkpt lat="45.825011" lon="9.188659"><time>2024-05-04T12:21:46.000Z</time><ele>862.6</ele></trkpt><trkpt lat="45.825003" lon="9.188646"><time>2024-05-04T12:21:47.000Z</time><ele>862.6</ele></trkpt><trkpt lat="45.825002" lon="9.188638"><time>2024-05-04T12:21:48.000Z</time><ele>862.6</ele></trkpt><trkpt lat="45.824988" lon="9.188606"><time>2024-05-04T12:21:49.000Z</time><ele>862.6</ele></trkpt><trkpt lat="45.824975" lon="9.18858"><time>2024-05-04T12:21:50.000Z</time><ele>862.6</ele></trkpt><trkpt lat="45.824966" lon="9.188558"><time>2024-05-04T12:21:51.000Z</time><ele>862.6</ele></trkpt><trkpt lat="45.824959" lon="9.188539"><time>2024-05-04T12:21:52.000Z</time><ele>862.6</ele></trkpt><trkpt lat="45.824956" lon="9.18852"><time>2024-05-04T12:21:53.000Z</time><ele>862.6</ele></trkpt><trkpt lat="45.824952" lon="9.188506"><time>2024-05-04T12:21:54.000Z</time><ele>862.4</ele></trkpt><trkpt lat="45.824947" lon="9.188494"><time>2024-05-04T12:21:55.000Z</time><ele>862.4</ele></trkpt><trkpt lat="45.824942" lon="9.188483"><time>2024-05-04T12:21:56.000Z</time><ele>862.4</ele></trkpt><trkpt lat="45.824937" lon="9.188468"><time>2024-05-04T12:21:57.000Z</time><ele>862.4</ele></trkpt><trkpt lat="45.824927" lon="9.188457"><time>2024-05-04T12:21:58.000Z</time><ele>862.4</ele></trkpt><trkpt lat="45.824923" lon="9.188441"><time>2024-05-04T12:21:59.000Z</time><ele>862.4</ele></trkpt><trkpt lat="45.824917" lon="9.188429"><time>2024-05-04T12:22:00.000Z</time><ele>862.4</ele></trkpt><trkpt lat="45.824909" lon="9.188407"><time>2024-05-04T12:22:01.000Z</time><ele>862.4</ele></trkpt><trkpt lat="45.824901" lon="9.188391"><time>2024-05-04T12:22:02.000Z</time><ele>862.4</ele></trkpt><trkpt lat="45.824896" lon="9.188378"><time>2024-05-04T12:22:03.000Z</time><ele>862.4</ele></trkpt><trkpt lat="45.824896" lon="9.18837"><time>2024-05-04T12:22:04.000Z</time><ele>862.4</ele></trkpt><trkpt lat="45.824893" lon="9.188357"><time>2024-05-04T12:22:05.000Z</time><ele>862.4</ele></trkpt><trkpt lat="45.824889" lon="9.188345"><time>2024-05-04T12:22:06.000Z</time><ele>862.6</ele></trkpt><trkpt lat="45.824882" lon="9.188333"><time>2024-05-04T12:22:07.000Z</time><ele>862.6</ele></trkpt><trkpt lat="45.824871" lon="9.188321"><time>2024-05-04T12:22:08.000Z</time><ele>862.6</ele></trkpt><trkpt lat="45.824864" lon="9.188309"><time>2024-05-04T12:22:09.000Z</time><ele>862.8</ele></trkpt><trkpt lat="45.824861" lon="9.188294"><time>2024-05-04T12:22:10.000Z</time><ele>862.8</ele></trkpt><trkpt lat="45.824855" lon="9.18828"><time>2024-05-04T12:22:11.000Z</time><ele>863</ele></trkpt><trkpt lat="45.824846" lon="9.188268"><time>2024-05-04T12:22:12.000Z</time><ele>863</ele></trkpt><trkpt lat="45.824838" lon="9.188258"><time>2024-05-04T12:22:13.000Z</time><ele>863.2</ele></trkpt><trkpt lat="45.824831" lon="9.188248"><time>2024-05-04T12:22:14.000Z</time><ele>863.2</ele></trkpt><trkpt lat="45.824827" lon="9.188228"><time>2024-05-04T12:22:15.000Z</time><ele>863.4</ele></trkpt><trkpt lat="45.824826" lon="9.188204"><time>2024-05-04T12:22:16.000Z</time><ele>863.4</ele></trkpt><trkpt lat="45.824821" lon="9.188199"><time>2024-05-04T12:22:17.000Z</time><ele>863.6</ele></trkpt><trkpt lat="45.824811" lon="9.188192"><time>2024-05-04T12:22:18.000Z</time><ele>863.6</ele></trkpt><trkpt lat="45.824804" lon="9.188176"><time>2024-05-04T12:22:19.000Z</time><ele>863.6</ele></trkpt><trkpt lat="45.824799" lon="9.188154"><time>2024-05-04T12:22:20.000Z</time><ele>863.6</ele></trkpt><trkpt lat="45.824796" lon="9.188133"><time>2024-05-04T12:22:21.000Z</time><ele>863.6</ele></trkpt><trkpt lat="45.824789" lon="9.188118"><time>2024-05-04T12:22:22.000Z</time><ele>863.6</ele></trkpt><trkpt lat="45.824781" lon="9.1881"><time>2024-05-04T12:22:23.000Z</time><ele>863.6</ele></trkpt><trkpt lat="45.824773" lon="9.188084"><time>2024-05-04T12:22:24.000Z</time><ele>863.6</ele></trkpt><trkpt lat="45.824769" lon="9.188067"><time>2024-05-04T12:22:25.000Z</time><ele>863.6</ele></trkpt><trkpt lat="45.82477" lon="9.188052"><time>2024-05-04T12:22:26.000Z</time><ele>863.4</ele></trkpt><trkpt lat="45.824772" lon="9.188041"><time>2024-05-04T12:22:27.000Z</time><ele>863.4</ele></trkpt><trkpt lat="45.824772" lon="9.188025"><time>2024-05-04T12:22:28.000Z</time><ele>863.4</ele></trkpt><trkpt lat="45.824769" lon="9.188014"><time>2024-05-04T12:22:29.000Z</time><ele>863.4</ele></trkpt><trkpt lat="45.824767" lon="9.187996"><time>2024-05-04T12:22:30.000Z</time><ele>863.4</ele></trkpt><trkpt lat="45.824762" lon="9.187977"><time>2024-05-04T12:22:31.000Z</time><ele>863.4</ele></trkpt><trkpt lat="45.824753" lon="9.187963"><time>2024-05-04T12:22:32.000Z</time><ele>863.4</ele></trkpt><trkpt lat="45.824748" lon="9.187951"><time>2024-05-04T12:22:33.000Z</time><ele>863.6</ele></trkpt><trkpt lat="45.824747" lon="9.187934"><time>2024-05-04T12:22:34.000Z</time><ele>863.6</ele></trkpt><trkpt lat="45.824744" lon="9.187918"><time>2024-05-04T12:22:35.000Z</time><ele>863.6</ele></trkpt><trkpt lat="45.824737" lon="9.187904"><time>2024-05-04T12:22:36.000Z</time><ele>863.6</ele></trkpt><trkpt lat="45.82473" lon="9.187891"><time>2024-05-04T12:22:37.000Z</time><ele>863.6</ele></trkpt><trkpt lat="45.824726" lon="9.187875"><time>2024-05-04T12:22:38.000Z</time><ele>863.6</ele></trkpt><trkpt lat="45.824722" lon="9.18786"><time>2024-05-04T12:22:39.000Z</time><ele>863.6</ele></trkpt><trkpt lat="45.824716" lon="9.187842"><time>2024-05-04T12:22:40.000Z</time><ele>863.4</ele></trkpt><trkpt lat="45.824712" lon="9.187826"><time>2024-05-04T12:22:41.000Z</time><ele>863.4</ele></trkpt><trkpt lat="45.824711" lon="9.187809"><time>2024-05-04T12:22:42.000Z</time><ele>863.4</ele></trkpt><trkpt lat="45.824708" lon="9.18779"><time>2024-05-04T12:22:43.000Z</time><ele>863.4</ele></trkpt><trkpt lat="45.824706" lon="9.187777"><time>2024-05-04T12:22:44.000Z</time><ele>863.4</ele></trkpt><trkpt lat="45.824701" lon="9.187764"><time>2024-05-04T12:22:45.000Z</time><ele>863.4</ele></trkpt><trkpt lat="45.824695" lon="9.187755"><time>2024-05-04T12:22:46.000Z</time><ele>863.4</ele></trkpt><trkpt lat="45.82469" lon="9.187747"><time>2024-05-04T12:22:47.000Z</time><ele>863.4</ele></trkpt><trkpt lat="45.824678" lon="9.187734"><time>2024-05-04T12:22:48.000Z</time><ele>863.4</ele></trkpt><trkpt lat="45.82467" lon="9.187727"><time>2024-05-04T12:22:49.000Z</time><ele>863.2</ele></trkpt><trkpt lat="45.82466" lon="9.18772"><time>2024-05-04T12:22:50.000Z</time><ele>863.2</ele></trkpt><trkpt lat="45.824649" lon="9.187708"><time>2024-05-04T12:22:51.000Z</time><ele>863.2</ele></trkpt><trkpt lat="45.824643" lon="9.187699"><time>2024-05-04T12:22:52.000Z</time><ele>863.2</ele></trkpt><trkpt lat="45.824635" lon="9.187689"><time>2024-05-04T12:22:53.000Z</time><ele>863.2</ele></trkpt><trkpt lat="45.824623" lon="9.187673"><time>2024-05-04T12:22:54.000Z</time><ele>863.2</ele></trkpt><trkpt lat="45.824611" lon="9.187648"><time>2024-05-04T12:22:55.000Z</time><ele>863.2</ele></trkpt><trkpt lat="45.824609" lon="9.187636"><time>2024-05-04T12:22:56.000Z</time><ele>863.2</ele></trkpt><trkpt lat="45.824605" lon="9.187616"><time>2024-05-04T12:22:57.000Z</time><ele>863.2</ele></trkpt><trkpt lat="45.824604" lon="9.187601"><time>2024-05-04T12:22:58.000Z</time><ele>863.2</ele></trkpt><trkpt lat="45.824605" lon="9.18758"><time>2024-05-04T12:22:59.000Z</time><ele>863.2</ele></trkpt><trkpt lat="45.824601" lon="9.187563"><time>2024-05-04T12:23:00.000Z</time><ele>863.2</ele></trkpt><trkpt lat="45.824594" lon="9.187543"><time>2024-05-04T12:23:01.000Z</time><ele>863</ele></trkpt><trkpt lat="45.824585" lon="9.187529"><time>2024-05-04T12:23:02.000Z</time><ele>863</ele></trkpt><trkpt lat="45.824573" lon="9.187518"><time>2024-05-04T12:23:03.000Z</time><ele>863</ele></trkpt><trkpt lat="45.824565" lon="9.187506"><time>2024-05-04T12:23:04.000Z</time><ele>863</ele></trkpt><trkpt lat="45.824558" lon="9.187489"><time>2024-05-04T12:23:05.000Z</time><ele>863</ele></trkpt><trkpt lat="45.824552" lon="9.187473"><time>2024-05-04T12:23:06.000Z</time><ele>863</ele></trkpt><trkpt lat="45.824545" lon="9.187457"><time>2024-05-04T12:23:07.000Z</time><ele>863</ele></trkpt><trkpt lat="45.824538" lon="9.187441"><time>2024-05-04T12:23:08.000Z</time><ele>863</ele></trkpt><trkpt lat="45.824531" lon="9.18742"><time>2024-05-04T12:23:09.000Z</time><ele>863</ele></trkpt><trkpt lat="45.824527" lon="9.187404"><time>2024-05-04T12:23:10.000Z</time><ele>863</ele></trkpt><trkpt lat="45.824524" lon="9.187384"><time>2024-05-04T12:23:11.000Z</time><ele>863</ele></trkpt><trkpt lat="45.824522" lon="9.187367"><time>2024-05-04T12:23:12.000Z</time><ele>863</ele></trkpt><trkpt lat="45.824521" lon="9.18735"><time>2024-05-04T12:23:13.000Z</time><ele>863</ele></trkpt><trkpt lat="45.824518" lon="9.187335"><time>2024-05-04T12:23:14.000Z</time><ele>863.2</ele></trkpt><trkpt lat="45.824517" lon="9.18732"><time>2024-05-04T12:23:15.000Z</time><ele>863.2</ele></trkpt><trkpt lat="45.824513" lon="9.187301"><time>2024-05-04T12:23:16.000Z</time><ele>863.2</ele></trkpt><trkpt lat="45.824509" lon="9.187283"><time>2024-05-04T12:23:17.000Z</time><ele>863.2</ele></trkpt><trkpt lat="45.824505" lon="9.187266"><time>2024-05-04T12:23:18.000Z</time><ele>863.2</ele></trkpt><trkpt lat="45.824506" lon="9.187253"><time>2024-05-04T12:23:19.000Z</time><ele>863.2</ele></trkpt><trkpt lat="45.824508" lon="9.187239"><time>2024-05-04T12:23:20.000Z</time><ele>863.2</ele></trkpt><trkpt lat="45.824512" lon="9.187224"><time>2024-05-04T12:23:21.000Z</time><ele>863.2</ele></trkpt><trkpt lat="45.824515" lon="9.187211"><time>2024-05-04T12:23:22.000Z</time><ele>863.2</ele></trkpt><trkpt lat="45.824514" lon="9.187207"><time>2024-05-04T12:23:23.000Z</time><ele>863</ele></trkpt><trkpt lat="45.824511" lon="9.187197"><time>2024-05-04T12:23:24.000Z</time><ele>863</ele></trkpt><trkpt lat="45.824509" lon="9.187183"><time>2024-05-04T12:23:25.000Z</time><ele>862.8</ele></trkpt><trkpt lat="45.824504" lon="9.187165"><time>2024-05-04T12:23:26.000Z</time><ele>862.8</ele></trkpt><trkpt lat="45.8245" lon="9.187145"><time>2024-05-04T12:23:27.000Z</time><ele>862.8</ele></trkpt><trkpt lat="45.824497" lon="9.187126"><time>2024-05-04T12:23:28.000Z</time><ele>862.8</ele></trkpt><trkpt lat="45.824495" lon="9.18711"><time>2024-05-04T12:23:29.000Z</time><ele>862.8</ele></trkpt><trkpt lat="45.824495" lon="9.187098"><time>2024-05-04T12:23:30.000Z</time><ele>862.8</ele></trkpt><trkpt lat="45.824493" lon="9.18709"><time>2024-05-04T12:23:31.000Z</time><ele>863</ele></trkpt><trkpt lat="45.824487" lon="9.187081"><time>2024-05-04T12:23:32.000Z</time><ele>863</ele></trkpt><trkpt lat="45.824482" lon="9.187072"><time>2024-05-04T12:23:33.000Z</time><ele>863</ele></trkpt><trkpt lat="45.824477" lon="9.187058"><time>2024-05-04T12:23:34.000Z</time><ele>862.8</ele></trkpt><trkpt lat="45.824474" lon="9.187044"><time>2024-05-04T12:23:35.000Z</time><ele>862.6</ele></trkpt><trkpt lat="45.824477" lon="9.187029"><time>2024-05-04T12:23:36.000Z</time><ele>862.6</ele></trkpt><trkpt lat="45.824481" lon="9.187014"><time>2024-05-04T12:23:37.000Z</time><ele>862.4</ele></trkpt><trkpt lat="45.824486" lon="9.187"><time>2024-05-04T12:23:38.000Z</time><ele>862.4</ele></trkpt><trkpt lat="45.824488" lon="9.186987"><time>2024-05-04T12:23:39.000Z</time><ele>862.2</ele></trkpt><trkpt lat="45.824489" lon="9.186969"><time>2024-05-04T12:23:40.000Z</time><ele>862</ele></trkpt><trkpt lat="45.824491" lon="9.186952"><time>2024-05-04T12:23:41.000Z</time><ele>862</ele></trkpt><trkpt lat="45.824489" lon="9.186934"><time>2024-05-04T12:23:42.000Z</time><ele>862</ele></trkpt><trkpt lat="45.824487" lon="9.186921"><time>2024-05-04T12:23:43.000Z</time><ele>862</ele></trkpt><trkpt lat="45.82449" lon="9.186902"><time>2024-05-04T12:23:44.000Z</time><ele>861.8</ele></trkpt><trkpt lat="45.824493" lon="9.186886"><time>2024-05-04T12:23:45.000Z</time><ele>861.8</ele></trkpt><trkpt lat="45.824491" lon="9.186864"><time>2024-05-04T12:23:46.000Z</time><ele>861.6</ele></trkpt><trkpt lat="45.824489" lon="9.186846"><time>2024-05-04T12:23:47.000Z</time><ele>861.6</ele></trkpt><trkpt lat="45.824484" lon="9.186828"><time>2024-05-04T12:23:48.000Z</time><ele>861.6</ele></trkpt><trkpt lat="45.824486" lon="9.186814"><time>2024-05-04T12:23:49.000Z</time><ele>861.6</ele></trkpt><trkpt lat="45.824491" lon="9.1868"><time>2024-05-04T12:23:50.000Z</time><ele>861.4</ele></trkpt><trkpt lat="45.824491" lon="9.186795"><time>2024-05-04T12:23:51.000Z</time><ele>861.2</ele></trkpt><trkpt lat="45.824492" lon="9.186791"><time>2024-05-04T12:23:52.000Z</time><ele>861</ele></trkpt><trkpt lat="45.824492" lon="9.186787"><time>2024-05-04T12:23:53.000Z</time><ele>860.8</ele></trkpt><trkpt lat="45.824501" lon="9.18678"><time>2024-05-04T12:23:54.000Z</time><ele>860.8</ele></trkpt><trkpt lat="45.824508" lon="9.18677"><time>2024-05-04T12:23:55.000Z</time><ele>860.8</ele></trkpt><trkpt lat="45.824516" lon="9.186754"><time>2024-05-04T12:23:56.000Z</time><ele>860.8</ele></trkpt><trkpt lat="45.824522" lon="9.186735"><time>2024-05-04T12:23:57.000Z</time><ele>860.8</ele></trkpt><trkpt lat="45.824528" lon="9.186722"><time>2024-05-04T12:23:58.000Z</time><ele>860.8</ele></trkpt><trkpt lat="45.824531" lon="9.186711"><time>2024-05-04T12:23:59.000Z</time><ele>860.8</ele></trkpt><trkpt lat="45.824536" lon="9.186701"><time>2024-05-04T12:24:00.000Z</time><ele>860.8</ele></trkpt><trkpt lat="45.824541" lon="9.186685"><time>2024-05-04T12:24:01.000Z</time><ele>860.8</ele></trkpt><trkpt lat="45.824546" lon="9.186664"><time>2024-05-04T12:24:02.000Z</time><ele>860.8</ele></trkpt><trkpt lat="45.824551" lon="9.186648"><time>2024-05-04T12:24:03.000Z</time><ele>860.6</ele></trkpt><trkpt lat="45.824553" lon="9.186631"><time>2024-05-04T12:24:04.000Z</time><ele>860.4</ele></trkpt><trkpt lat="45.824558" lon="9.186619"><time>2024-05-04T12:24:05.000Z</time><ele>860.4</ele></trkpt><trkpt lat="45.824565" lon="9.186607"><time>2024-05-04T12:24:06.000Z</time><ele>860.4</ele></trkpt><trkpt lat="45.824571" lon="9.186591"><time>2024-05-04T12:24:07.000Z</time><ele>860.4</ele></trkpt><trkpt lat="45.824576" lon="9.186574"><time>2024-05-04T12:24:08.000Z</time><ele>860.2</ele></trkpt><trkpt lat="45.824576" lon="9.186557"><time>2024-05-04T12:24:09.000Z</time><ele>860.2</ele></trkpt><trkpt lat="45.824576" lon="9.186546"><time>2024-05-04T12:24:10.000Z</time><ele>860</ele></trkpt><trkpt lat="45.824576" lon="9.18653"><time>2024-05-04T12:24:11.000Z</time><ele>860</ele></trkpt><trkpt lat="45.824576" lon="9.186509"><time>2024-05-04T12:24:12.000Z</time><ele>860</ele></trkpt><trkpt lat="45.824578" lon="9.186491"><time>2024-05-04T12:24:13.000Z</time><ele>860</ele></trkpt><trkpt lat="45.824579" lon="9.186473"><time>2024-05-04T12:24:14.000Z</time><ele>860</ele></trkpt><trkpt lat="45.824576" lon="9.186448"><time>2024-05-04T12:24:15.000Z</time><ele>860</ele></trkpt><trkpt lat="45.824582" lon="9.186431"><time>2024-05-04T12:24:16.000Z</time><ele>860</ele></trkpt><trkpt lat="45.824586" lon="9.186418"><time>2024-05-04T12:24:17.000Z</time><ele>860</ele></trkpt><trkpt lat="45.824586" lon="9.186405"><time>2024-05-04T12:24:18.000Z</time><ele>860</ele></trkpt><trkpt lat="45.824578" lon="9.186384"><time>2024-05-04T12:24:19.000Z</time><ele>860</ele></trkpt><trkpt lat="45.824581" lon="9.186364"><time>2024-05-04T12:24:20.000Z</time><ele>860</ele></trkpt><trkpt lat="45.824585" lon="9.18634"><time>2024-05-04T12:24:21.000Z</time><ele>860</ele></trkpt><trkpt lat="45.824587" lon="9.186318"><time>2024-05-04T12:24:22.000Z</time><ele>860</ele></trkpt><trkpt lat="45.824587" lon="9.186303"><time>2024-05-04T12:24:23.000Z</time><ele>860</ele></trkpt><trkpt lat="45.824587" lon="9.186287"><time>2024-05-04T12:24:24.000Z</time><ele>860</ele></trkpt><trkpt lat="45.824585" lon="9.186269"><time>2024-05-04T12:24:25.000Z</time><ele>860</ele></trkpt><trkpt lat="45.824571" lon="9.186249"><time>2024-05-04T12:24:26.000Z</time><ele>860</ele></trkpt><trkpt lat="45.824562" lon="9.18623"><time>2024-05-04T12:24:27.000Z</time><ele>860</ele></trkpt><trkpt lat="45.824558" lon="9.18621"><time>2024-05-04T12:24:28.000Z</time><ele>860.2</ele></trkpt><trkpt lat="45.824552" lon="9.186195"><time>2024-05-04T12:24:29.000Z</time><ele>860</ele></trkpt><trkpt lat="45.824547" lon="9.186188"><time>2024-05-04T12:24:30.000Z</time><ele>860</ele></trkpt><trkpt lat="45.824541" lon="9.186178"><time>2024-05-04T12:24:31.000Z</time><ele>860</ele></trkpt><trkpt lat="45.824533" lon="9.186163"><time>2024-05-04T12:24:32.000Z</time><ele>860</ele></trkpt><trkpt lat="45.824529" lon="9.186149"><time>2024-05-04T12:24:33.000Z</time><ele>860</ele></trkpt><trkpt lat="45.824527" lon="9.186132"><time>2024-05-04T12:24:34.000Z</time><ele>860</ele></trkpt><trkpt lat="45.824526" lon="9.186117"><time>2024-05-04T12:24:35.000Z</time><ele>860</ele></trkpt><trkpt lat="45.824523" lon="9.186097"><time>2024-05-04T12:24:36.000Z</time><ele>860.2</ele></trkpt><trkpt lat="45.82452" lon="9.186078"><time>2024-05-04T12:24:37.000Z</time><ele>860.2</ele></trkpt><trkpt lat="45.82452" lon="9.186068"><time>2024-05-04T12:24:38.000Z</time><ele>860.2</ele></trkpt><trkpt lat="45.82452" lon="9.186063"><time>2024-05-04T12:24:39.000Z</time><ele>860</ele></trkpt><trkpt lat="45.82452" lon="9.18605"><time>2024-05-04T12:24:40.000Z</time><ele>860</ele></trkpt><trkpt lat="45.824513" lon="9.18603"><time>2024-05-04T12:24:41.000Z</time><ele>860</ele></trkpt><trkpt lat="45.824507" lon="9.186012"><time>2024-05-04T12:24:42.000Z</time><ele>859.8</ele></trkpt><trkpt lat="45.824498" lon="9.185979"><time>2024-05-04T12:24:43.000Z</time><ele>859.8</ele></trkpt><trkpt lat="45.824491" lon="9.18596"><time>2024-05-04T12:24:44.000Z</time><ele>860</ele></trkpt><trkpt lat="45.824484" lon="9.185945"><time>2024-05-04T12:24:45.000Z</time><ele>860</ele></trkpt><trkpt lat="45.824479" lon="9.185929"><time>2024-05-04T12:24:46.000Z</time><ele>860</ele></trkpt><trkpt lat="45.824477" lon="9.185915"><time>2024-05-04T12:24:47.000Z</time><ele>860</ele></trkpt><trkpt lat="45.824475" lon="9.185901"><time>2024-05-04T12:24:48.000Z</time><ele>860</ele></trkpt><trkpt lat="45.824471" lon="9.185888"><time>2024-05-04T12:24:49.000Z</time><ele>860</ele></trkpt><trkpt lat="45.824464" lon="9.185872"><time>2024-05-04T12:24:50.000Z</time><ele>860</ele></trkpt><trkpt lat="45.824462" lon="9.185855"><time>2024-05-04T12:24:51.000Z</time><ele>860</ele></trkpt><trkpt lat="45.824459" lon="9.185837"><time>2024-05-04T12:24:52.000Z</time><ele>860</ele></trkpt><trkpt lat="45.824453" lon="9.185817"><time>2024-05-04T12:24:53.000Z</time><ele>860</ele></trkpt><trkpt lat="45.824452" lon="9.185795"><time>2024-05-04T12:24:54.000Z</time><ele>860</ele></trkpt><trkpt lat="45.824453" lon="9.185775"><time>2024-05-04T12:24:55.000Z</time><ele>860.2</ele></trkpt><trkpt lat="45.824458" lon="9.185749"><time>2024-05-04T12:24:56.000Z</time><ele>860</ele></trkpt><trkpt lat="45.824457" lon="9.185724"><time>2024-05-04T12:24:57.000Z</time><ele>860</ele></trkpt><trkpt lat="45.824455" lon="9.185704"><time>2024-05-04T12:24:58.000Z</time><ele>860</ele></trkpt><trkpt lat="45.824447" lon="9.185684"><time>2024-05-04T12:24:59.000Z</time><ele>860</ele></trkpt><trkpt lat="45.824442" lon="9.185672"><time>2024-05-04T12:25:00.000Z</time><ele>860</ele></trkpt><trkpt lat="45.824438" lon="9.185658"><time>2024-05-04T12:25:01.000Z</time><ele>860</ele></trkpt><trkpt lat="45.824434" lon="9.185643"><time>2024-05-04T12:25:02.000Z</time><ele>859.8</ele></trkpt><trkpt lat="45.824428" lon="9.185625"><time>2024-05-04T12:25:03.000Z</time><ele>859.8</ele></trkpt><trkpt lat="45.824422" lon="9.185608"><time>2024-05-04T12:25:04.000Z</time><ele>859.8</ele></trkpt><trkpt lat="45.824417" lon="9.185593"><time>2024-05-04T12:25:05.000Z</time><ele>859.6</ele></trkpt><trkpt lat="45.824413" lon="9.185581"><time>2024-05-04T12:25:06.000Z</time><ele>859.6</ele></trkpt><trkpt lat="45.824412" lon="9.18557"><time>2024-05-04T12:25:07.000Z</time><ele>859.4</ele></trkpt><trkpt lat="45.824413" lon="9.185563"><time>2024-05-04T12:25:08.000Z</time><ele>859.4</ele></trkpt><trkpt lat="45.824417" lon="9.185553"><time>2024-05-04T12:25:09.000Z</time><ele>859.4</ele></trkpt><trkpt lat="45.824423" lon="9.185542"><time>2024-05-04T12:25:10.000Z</time><ele>859.4</ele></trkpt><trkpt lat="45.824429" lon="9.185536"><time>2024-05-04T12:25:11.000Z</time><ele>859.4</ele></trkpt><trkpt lat="45.824421" lon="9.185549"><time>2024-05-04T12:25:12.000Z</time><ele>859.4</ele></trkpt><trkpt lat="45.824422" lon="9.185553"><time>2024-05-04T12:25:13.000Z</time><ele>859.4</ele></trkpt><trkpt lat="45.824426" lon="9.18555"><time>2024-05-04T12:25:14.000Z</time><ele>859.4</ele></trkpt><trkpt lat="45.824428" lon="9.185548"><time>2024-05-04T12:25:15.000Z</time><ele>859.4</ele></trkpt><trkpt lat="45.824429" lon="9.185548"><time>2024-05-04T12:25:16.000Z</time><ele>859.6</ele></trkpt><trkpt lat="45.82443" lon="9.185547"><time>2024-05-04T12:25:17.000Z</time><ele>859.6</ele></trkpt><trkpt lat="45.82443" lon="9.185546"><time>2024-05-04T12:25:18.000Z</time><ele>859.6</ele></trkpt><trkpt lat="45.82443" lon="9.185545"><time>2024-05-04T12:25:19.000Z</time><ele>859.6</ele></trkpt><trkpt lat="45.824433" lon="9.185544"><time>2024-05-04T12:25:20.000Z</time><ele>859.6</ele></trkpt><trkpt lat="45.824433" lon="9.185541"><time>2024-05-04T12:25:21.000Z</time><ele>859.6</ele></trkpt><trkpt lat="45.824438" lon="9.18554"><time>2024-05-04T12:25:22.000Z</time><ele>859.6</ele></trkpt><trkpt lat="45.824443" lon="9.185538"><time>2024-05-04T12:25:23.000Z</time><ele>859.4</ele></trkpt><trkpt lat="45.824445" lon="9.185534"><time>2024-05-04T12:25:24.000Z</time><ele>859.4</ele></trkpt><trkpt lat="45.824451" lon="9.18553"><time>2024-05-04T12:25:25.000Z</time><ele>859.4</ele></trkpt><trkpt lat="45.824457" lon="9.185528"><time>2024-05-04T12:25:26.000Z</time><ele>859.4</ele></trkpt><trkpt lat="45.824459" lon="9.185528"><time>2024-05-04T12:25:27.000Z</time><ele>859.4</ele></trkpt><trkpt lat="45.824462" lon="9.18553"><time>2024-05-04T12:25:28.000Z</time><ele>859.6</ele></trkpt><trkpt lat="45.824463" lon="9.18553"><time>2024-05-04T12:25:29.000Z</time><ele>859.6</ele></trkpt><trkpt lat="45.824465" lon="9.18553"><time>2024-05-04T12:25:30.000Z</time><ele>859.6</ele></trkpt><trkpt lat="45.824465" lon="9.185528"><time>2024-05-04T12:25:31.000Z</time><ele>859.6</ele></trkpt><trkpt lat="45.824465" lon="9.185526"><time>2024-05-04T12:25:32.000Z</time><ele>859.6</ele></trkpt><trkpt lat="45.824466" lon="9.185525"><time>2024-05-04T12:25:33.000Z</time><ele>859.6</ele></trkpt><trkpt lat="45.824465" lon="9.185525"><time>2024-05-04T12:25:34.000Z</time><ele>859.6</ele></trkpt><trkpt lat="45.824464" lon="9.185525"><time>2024-05-04T12:25:35.000Z</time><ele>859.4</ele></trkpt><trkpt lat="45.824461" lon="9.185524"><time>2024-05-04T12:25:36.000Z</time><ele>859.4</ele></trkpt><trkpt lat="45.824461" lon="9.185522"><time>2024-05-04T12:25:37.000Z</time><ele>859.4</ele></trkpt><trkpt lat="45.824459" lon="9.185522"><time>2024-05-04T12:25:38.000Z</time><ele>859.4</ele></trkpt><trkpt lat="45.824457" lon="9.185524"><time>2024-05-04T12:25:39.000Z</time><ele>859.4</ele></trkpt><trkpt lat="45.824456" lon="9.185523"><time>2024-05-04T12:25:40.000Z</time><ele>859.4</ele></trkpt><trkpt lat="45.824456" lon="9.185524"><time>2024-05-04T12:25:41.000Z</time><ele>859.4</ele></trkpt><trkpt lat="45.824455" lon="9.185523"><time>2024-05-04T12:25:42.000Z</time><ele>859.4</ele></trkpt><trkpt lat="45.824455" lon="9.185521"><time>2024-05-04T12:25:43.000Z</time><ele>859.4</ele></trkpt><trkpt lat="45.824454" lon="9.185521"><time>2024-05-04T12:25:44.000Z</time><ele>859.4</ele></trkpt><trkpt lat="45.824455" lon="9.18552"><time>2024-05-04T12:25:45.000Z</time><ele>859.4</ele></trkpt><trkpt lat="45.824455" lon="9.185521"><time>2024-05-04T12:25:46.000Z</time><ele>859.4</ele></trkpt><trkpt lat="45.824454" lon="9.18552"><time>2024-05-04T12:25:47.000Z</time><ele>859.4</ele></trkpt><trkpt lat="45.824455" lon="9.18552"><time>2024-05-04T12:25:48.000Z</time><ele>859.4</ele></trkpt><trkpt lat="45.824455" lon="9.185519"><time>2024-05-04T12:25:49.000Z</time><ele>859.4</ele></trkpt><trkpt lat="45.824455" lon="9.185519"><time>2024-05-04T12:25:50.000Z</time><ele>859.4</ele></trkpt><trkpt lat="45.824455" lon="9.185519"><time>2024-05-04T12:25:51.000Z</time><ele>859.4</ele></trkpt><trkpt lat="45.824455" lon="9.185519"><time>2024-05-04T12:25:52.000Z</time><ele>859.4</ele></trkpt><trkpt lat="45.824455" lon="9.185519"><time>2024-05-04T12:25:53.000Z</time><ele>859.4</ele></trkpt><trkpt lat="45.824455" lon="9.185519"><time>2024-05-04T12:25:54.000Z</time><ele>859.4</ele></trkpt><trkpt lat="45.824455" lon="9.185519"><time>2024-05-04T12:25:55.000Z</time><ele>859.4</ele></trkpt><trkpt lat="45.824455" lon="9.185519"><time>2024-05-04T12:25:56.000Z</time><ele>859.4</ele></trkpt><trkpt lat="45.824455" lon="9.185519"><time>2024-05-04T12:25:57.000Z</time><ele>859.4</ele></trkpt><trkpt lat="45.824455" lon="9.185519"><time>2024-05-04T12:25:58.000Z</time><ele>859.4</ele></trkpt><trkpt lat="45.824455" lon="9.185519"><time>2024-05-04T12:25:59.000Z</time><ele>859.4</ele></trkpt><trkpt lat="45.824455" lon="9.185519"><time>2024-05-04T12:26:00.000Z</time><ele>859.4</ele></trkpt><trkpt lat="45.824455" lon="9.185519"><time>2024-05-04T12:26:01.000Z</time><ele>859.4</ele></trkpt><trkpt lat="45.824455" lon="9.185519"><time>2024-05-04T12:26:02.000Z</time><ele>859.4</ele></trkpt><trkpt lat="45.824455" lon="9.185519"><time>2024-05-04T12:26:03.000Z</time><ele>859.4</ele></trkpt></trkseg></trk></gpx>